<?xml version="1.0" encoding="UTF-8"?>
<gpx version="1.1" creator="https://www.youtrack.es" xsi:schemaLocation="http://www.topografix.com/GPX/1/1 http://www.topografix.com/GPX/1/1/gpx.xsd http://www.garmin.com/xmlschemas/GpxExtensions/v3 http://www.garmin.com/xmlschemas/GpxExtensionsv3.xsd http://www.garmin.com/xmlschemas/TrackPointExtension/v1 http://www.garmin.com/xmlschemas/TrackPointExtensionv1.xsd" xmlns:gpxtpx="http://www.garmin.com/xmlschemas/TrackPointExtension/v1" xmlns:gpxx="http://www.garmin.com/xmlschemas/GpxExtensions/v3" xmlns:xsi="http://www.w3.org/2001/XMLSchema-instance">
  <metadata>
    <link href="https://www.youtrack.es">
      <text>YouTrack.es</text>
    </link>
    <time>2026-05-08T22:51:34Z</time>
  </metadata>
  <trk>
    <src>https://www.youtrack.es</src>
    <link href="https://www.youtrack.es/ruta/36653-monistrol-de-calders">
      <text>YouTrack.es</text>
    </link>
    <trkseg>
      <trkpt lat="41.5356430" lon="2.0804080">
        <ele>97.8</ele>
        <time>2022-09-26T06:52:01Z</time>
      </trkpt>
      <trkpt lat="41.5356070" lon="2.0804220">
        <ele>97.8</ele>
        <time>2022-09-26T06:52:02Z</time>
      </trkpt>
      <trkpt lat="41.5355690" lon="2.0804310">
        <ele>97.6</ele>
        <time>2022-09-26T06:52:03Z</time>
      </trkpt>
      <trkpt lat="41.5355270" lon="2.0804380">
        <ele>97.6</ele>
        <time>2022-09-26T06:52:04Z</time>
      </trkpt>
      <trkpt lat="41.5354840" lon="2.0804450">
        <ele>97.8</ele>
        <time>2022-09-26T06:52:05Z</time>
      </trkpt>
      <trkpt lat="41.5354390" lon="2.0804510">
        <ele>97.4</ele>
        <time>2022-09-26T06:52:06Z</time>
      </trkpt>
      <trkpt lat="41.5353950" lon="2.0804640">
        <ele>97.4</ele>
        <time>2022-09-26T06:52:07Z</time>
      </trkpt>
      <trkpt lat="41.5353510" lon="2.0804790">
        <ele>97.4</ele>
        <time>2022-09-26T06:52:08Z</time>
      </trkpt>
      <trkpt lat="41.5353110" lon="2.0805000">
        <ele>97.4</ele>
        <time>2022-09-26T06:52:09Z</time>
      </trkpt>
      <trkpt lat="41.5352810" lon="2.0805340">
        <ele>97.4</ele>
        <time>2022-09-26T06:52:10Z</time>
      </trkpt>
      <trkpt lat="41.5352540" lon="2.0805710">
        <ele>97.4</ele>
        <time>2022-09-26T06:52:11Z</time>
      </trkpt>
      <trkpt lat="41.5352290" lon="2.0806050">
        <ele>97.4</ele>
        <time>2022-09-26T06:52:12Z</time>
      </trkpt>
      <trkpt lat="41.5352150" lon="2.0806320">
        <ele>97.2</ele>
        <time>2022-09-26T06:52:13Z</time>
      </trkpt>
      <trkpt lat="41.5352100" lon="2.0806430">
        <ele>97.0</ele>
        <time>2022-09-26T06:52:14Z</time>
      </trkpt>
      <trkpt lat="41.5352050" lon="2.0806490">
        <ele>97.0</ele>
        <time>2022-09-26T06:52:15Z</time>
      </trkpt>
      <trkpt lat="41.5351920" lon="2.0806550">
        <ele>97.0</ele>
        <time>2022-09-26T06:52:16Z</time>
      </trkpt>
      <trkpt lat="41.5351780" lon="2.0806660">
        <ele>97.0</ele>
        <time>2022-09-26T06:52:17Z</time>
      </trkpt>
      <trkpt lat="41.5351670" lon="2.0806920">
        <ele>97.2</ele>
        <time>2022-09-26T06:52:18Z</time>
      </trkpt>
      <trkpt lat="41.5351610" lon="2.0807400">
        <ele>97.2</ele>
        <time>2022-09-26T06:52:19Z</time>
      </trkpt>
      <trkpt lat="41.5351610" lon="2.0807930">
        <ele>96.8</ele>
        <time>2022-09-26T06:52:20Z</time>
      </trkpt>
      <trkpt lat="41.5351610" lon="2.0808560">
        <ele>96.6</ele>
        <time>2022-09-26T06:52:21Z</time>
      </trkpt>
      <trkpt lat="41.5351610" lon="2.0809250">
        <ele>96.4</ele>
        <time>2022-09-26T06:52:22Z</time>
      </trkpt>
      <trkpt lat="41.5351610" lon="2.0809960">
        <ele>96.0</ele>
        <time>2022-09-26T06:52:23Z</time>
      </trkpt>
      <trkpt lat="41.5351630" lon="2.0810730">
        <ele>95.8</ele>
        <time>2022-09-26T06:52:24Z</time>
      </trkpt>
      <trkpt lat="41.5351630" lon="2.0811490">
        <ele>95.4</ele>
        <time>2022-09-26T06:52:25Z</time>
      </trkpt>
      <trkpt lat="41.5351630" lon="2.0812280">
        <ele>95.2</ele>
        <time>2022-09-26T06:52:26Z</time>
      </trkpt>
      <trkpt lat="41.5351650" lon="2.0813100">
        <ele>95.0</ele>
        <time>2022-09-26T06:52:27Z</time>
      </trkpt>
      <trkpt lat="41.5351650" lon="2.0813940">
        <ele>95.0</ele>
        <time>2022-09-26T06:52:28Z</time>
      </trkpt>
      <trkpt lat="41.5351650" lon="2.0814760">
        <ele>94.8</ele>
        <time>2022-09-26T06:52:29Z</time>
      </trkpt>
      <trkpt lat="41.5351660" lon="2.0815590">
        <ele>94.4</ele>
        <time>2022-09-26T06:52:30Z</time>
      </trkpt>
      <trkpt lat="41.5351670" lon="2.0816380">
        <ele>94.4</ele>
        <time>2022-09-26T06:52:31Z</time>
      </trkpt>
      <trkpt lat="41.5351670" lon="2.0817210">
        <ele>94.4</ele>
        <time>2022-09-26T06:52:32Z</time>
      </trkpt>
      <trkpt lat="41.5351680" lon="2.0818050">
        <ele>94.0</ele>
        <time>2022-09-26T06:52:33Z</time>
      </trkpt>
      <trkpt lat="41.5351690" lon="2.0818880">
        <ele>94.0</ele>
        <time>2022-09-26T06:52:34Z</time>
      </trkpt>
      <trkpt lat="41.5351670" lon="2.0819660">
        <ele>94.0</ele>
        <time>2022-09-26T06:52:35Z</time>
      </trkpt>
      <trkpt lat="41.5351600" lon="2.0820360">
        <ele>94.2</ele>
        <time>2022-09-26T06:52:36Z</time>
      </trkpt>
      <trkpt lat="41.5351430" lon="2.0821010">
        <ele>94.4</ele>
        <time>2022-09-26T06:52:37Z</time>
      </trkpt>
      <trkpt lat="41.5351210" lon="2.0821630">
        <ele>94.2</ele>
        <time>2022-09-26T06:52:38Z</time>
      </trkpt>
      <trkpt lat="41.5351040" lon="2.0822320">
        <ele>94.4</ele>
        <time>2022-09-26T06:52:39Z</time>
      </trkpt>
      <trkpt lat="41.5351040" lon="2.0822970">
        <ele>94.6</ele>
        <time>2022-09-26T06:52:40Z</time>
      </trkpt>
      <trkpt lat="41.5351190" lon="2.0823550">
        <ele>94.6</ele>
        <time>2022-09-26T06:52:41Z</time>
      </trkpt>
      <trkpt lat="41.5351400" lon="2.0824110">
        <ele>94.8</ele>
        <time>2022-09-26T06:52:42Z</time>
      </trkpt>
      <trkpt lat="41.5351580" lon="2.0824670">
        <ele>94.8</ele>
        <time>2022-09-26T06:52:43Z</time>
      </trkpt>
      <trkpt lat="41.5351690" lon="2.0825280">
        <ele>95.0</ele>
        <time>2022-09-26T06:52:44Z</time>
      </trkpt>
      <trkpt lat="41.5351720" lon="2.0825900">
        <ele>95.2</ele>
        <time>2022-09-26T06:52:45Z</time>
      </trkpt>
      <trkpt lat="41.5351700" lon="2.0826540">
        <ele>95.4</ele>
        <time>2022-09-26T06:52:46Z</time>
      </trkpt>
      <trkpt lat="41.5351650" lon="2.0827180">
        <ele>95.6</ele>
        <time>2022-09-26T06:52:47Z</time>
      </trkpt>
      <trkpt lat="41.5351610" lon="2.0827800">
        <ele>95.8</ele>
        <time>2022-09-26T06:52:48Z</time>
      </trkpt>
      <trkpt lat="41.5351610" lon="2.0828420">
        <ele>95.8</ele>
        <time>2022-09-26T06:52:49Z</time>
      </trkpt>
      <trkpt lat="41.5351610" lon="2.0829050">
        <ele>96.0</ele>
        <time>2022-09-26T06:52:50Z</time>
      </trkpt>
      <trkpt lat="41.5351610" lon="2.0829670">
        <ele>96.4</ele>
        <time>2022-09-26T06:52:51Z</time>
      </trkpt>
      <trkpt lat="41.5351610" lon="2.0830300">
        <ele>96.6</ele>
        <time>2022-09-26T06:52:52Z</time>
      </trkpt>
      <trkpt lat="41.5351620" lon="2.0830930">
        <ele>97.0</ele>
        <time>2022-09-26T06:52:53Z</time>
      </trkpt>
      <trkpt lat="41.5351650" lon="2.0831560">
        <ele>96.8</ele>
        <time>2022-09-26T06:52:54Z</time>
      </trkpt>
      <trkpt lat="41.5351680" lon="2.0832220">
        <ele>97.0</ele>
        <time>2022-09-26T06:52:55Z</time>
      </trkpt>
      <trkpt lat="41.5351720" lon="2.0832870">
        <ele>97.0</ele>
        <time>2022-09-26T06:52:56Z</time>
      </trkpt>
      <trkpt lat="41.5351800" lon="2.0833540">
        <ele>97.0</ele>
        <time>2022-09-26T06:52:57Z</time>
      </trkpt>
      <trkpt lat="41.5351930" lon="2.0834210">
        <ele>97.2</ele>
        <time>2022-09-26T06:52:58Z</time>
      </trkpt>
      <trkpt lat="41.5352090" lon="2.0834900">
        <ele>97.0</ele>
        <time>2022-09-26T06:52:59Z</time>
      </trkpt>
      <trkpt lat="41.5352270" lon="2.0835580">
        <ele>97.2</ele>
        <time>2022-09-26T06:53:00Z</time>
      </trkpt>
      <trkpt lat="41.5352470" lon="2.0836250">
        <ele>97.4</ele>
        <time>2022-09-26T06:53:01Z</time>
      </trkpt>
      <trkpt lat="41.5352330" lon="2.0837380">
        <ele>97.4</ele>
        <time>2022-09-26T06:53:02Z</time>
      </trkpt>
      <trkpt lat="41.5352590" lon="2.0838040">
        <ele>97.4</ele>
        <time>2022-09-26T06:53:03Z</time>
      </trkpt>
      <trkpt lat="41.5352920" lon="2.0838650">
        <ele>97.2</ele>
        <time>2022-09-26T06:53:04Z</time>
      </trkpt>
      <trkpt lat="41.5353290" lon="2.0839230">
        <ele>97.2</ele>
        <time>2022-09-26T06:53:05Z</time>
      </trkpt>
      <trkpt lat="41.5353700" lon="2.0839800">
        <ele>97.2</ele>
        <time>2022-09-26T06:53:06Z</time>
      </trkpt>
      <trkpt lat="41.5354140" lon="2.0840320">
        <ele>97.2</ele>
        <time>2022-09-26T06:53:07Z</time>
      </trkpt>
      <trkpt lat="41.5354590" lon="2.0840820">
        <ele>97.2</ele>
        <time>2022-09-26T06:53:08Z</time>
      </trkpt>
      <trkpt lat="41.5355010" lon="2.0841270">
        <ele>97.0</ele>
        <time>2022-09-26T06:53:09Z</time>
      </trkpt>
      <trkpt lat="41.5355470" lon="2.0841720">
        <ele>97.0</ele>
        <time>2022-09-26T06:53:10Z</time>
      </trkpt>
      <trkpt lat="41.5355970" lon="2.0842110">
        <ele>96.6</ele>
        <time>2022-09-26T06:53:11Z</time>
      </trkpt>
      <trkpt lat="41.5356470" lon="2.0842430">
        <ele>96.6</ele>
        <time>2022-09-26T06:53:12Z</time>
      </trkpt>
      <trkpt lat="41.5356850" lon="2.0842730">
        <ele>96.4</ele>
        <time>2022-09-26T06:53:13Z</time>
      </trkpt>
      <trkpt lat="41.5357100" lon="2.0843030">
        <ele>96.2</ele>
        <time>2022-09-26T06:53:14Z</time>
      </trkpt>
      <trkpt lat="41.5357260" lon="2.0843300">
        <ele>96.2</ele>
        <time>2022-09-26T06:53:15Z</time>
      </trkpt>
      <trkpt lat="41.5357350" lon="2.0843530">
        <ele>96.4</ele>
        <time>2022-09-26T06:53:16Z</time>
      </trkpt>
      <trkpt lat="41.5357430" lon="2.0843710">
        <ele>96.4</ele>
        <time>2022-09-26T06:53:17Z</time>
      </trkpt>
      <trkpt lat="41.5357450" lon="2.0843730">
        <ele>96.4</ele>
        <time>2022-09-26T06:53:18Z</time>
      </trkpt>
      <trkpt lat="41.5357460" lon="2.0843730">
        <ele>96.4</ele>
        <time>2022-09-26T06:53:19Z</time>
      </trkpt>
      <trkpt lat="41.5357720" lon="2.0844670">
        <ele>95.8</ele>
        <time>2022-09-26T06:53:29Z</time>
      </trkpt>
      <trkpt lat="41.5357730" lon="2.0845070">
        <ele>95.8</ele>
        <time>2022-09-26T06:53:30Z</time>
      </trkpt>
      <trkpt lat="41.5357780" lon="2.0845550">
        <ele>95.6</ele>
        <time>2022-09-26T06:53:31Z</time>
      </trkpt>
      <trkpt lat="41.5357880" lon="2.0846110">
        <ele>95.2</ele>
        <time>2022-09-26T06:53:32Z</time>
      </trkpt>
      <trkpt lat="41.5358120" lon="2.0846680">
        <ele>95.0</ele>
        <time>2022-09-26T06:53:33Z</time>
      </trkpt>
      <trkpt lat="41.5358490" lon="2.0847170">
        <ele>94.8</ele>
        <time>2022-09-26T06:53:34Z</time>
      </trkpt>
      <trkpt lat="41.5358990" lon="2.0847480">
        <ele>94.6</ele>
        <time>2022-09-26T06:53:35Z</time>
      </trkpt>
      <trkpt lat="41.5359560" lon="2.0847660">
        <ele>94.4</ele>
        <time>2022-09-26T06:53:36Z</time>
      </trkpt>
      <trkpt lat="41.5360150" lon="2.0847710">
        <ele>94.4</ele>
        <time>2022-09-26T06:53:37Z</time>
      </trkpt>
      <trkpt lat="41.5360750" lon="2.0847670">
        <ele>94.0</ele>
        <time>2022-09-26T06:53:38Z</time>
      </trkpt>
      <trkpt lat="41.5361350" lon="2.0847590">
        <ele>94.0</ele>
        <time>2022-09-26T06:53:39Z</time>
      </trkpt>
      <trkpt lat="41.5361960" lon="2.0847520">
        <ele>94.0</ele>
        <time>2022-09-26T06:53:40Z</time>
      </trkpt>
      <trkpt lat="41.5362570" lon="2.0847510">
        <ele>94.0</ele>
        <time>2022-09-26T06:53:41Z</time>
      </trkpt>
      <trkpt lat="41.5363160" lon="2.0847640">
        <ele>94.0</ele>
        <time>2022-09-26T06:53:42Z</time>
      </trkpt>
      <trkpt lat="41.5363700" lon="2.0847920">
        <ele>94.2</ele>
        <time>2022-09-26T06:53:43Z</time>
      </trkpt>
      <trkpt lat="41.5364220" lon="2.0848310">
        <ele>94.0</ele>
        <time>2022-09-26T06:53:44Z</time>
      </trkpt>
      <trkpt lat="41.5364770" lon="2.0848720">
        <ele>94.0</ele>
        <time>2022-09-26T06:53:45Z</time>
      </trkpt>
      <trkpt lat="41.5365300" lon="2.0849130">
        <ele>94.0</ele>
        <time>2022-09-26T06:53:46Z</time>
      </trkpt>
      <trkpt lat="41.5365830" lon="2.0849540">
        <ele>94.2</ele>
        <time>2022-09-26T06:53:47Z</time>
      </trkpt>
      <trkpt lat="41.5366340" lon="2.0849940">
        <ele>94.2</ele>
        <time>2022-09-26T06:53:48Z</time>
      </trkpt>
      <trkpt lat="41.5366880" lon="2.0850360">
        <ele>94.4</ele>
        <time>2022-09-26T06:53:49Z</time>
      </trkpt>
      <trkpt lat="41.5367410" lon="2.0850750">
        <ele>94.8</ele>
        <time>2022-09-26T06:53:50Z</time>
      </trkpt>
      <trkpt lat="41.5367900" lon="2.0851110">
        <ele>95.0</ele>
        <time>2022-09-26T06:53:51Z</time>
      </trkpt>
      <trkpt lat="41.5368370" lon="2.0851480">
        <ele>95.2</ele>
        <time>2022-09-26T06:53:52Z</time>
      </trkpt>
      <trkpt lat="41.5368830" lon="2.0851880">
        <ele>95.4</ele>
        <time>2022-09-26T06:53:53Z</time>
      </trkpt>
      <trkpt lat="41.5369270" lon="2.0852300">
        <ele>95.8</ele>
        <time>2022-09-26T06:53:54Z</time>
      </trkpt>
      <trkpt lat="41.5369690" lon="2.0852750">
        <ele>96.2</ele>
        <time>2022-09-26T06:53:55Z</time>
      </trkpt>
      <trkpt lat="41.5370070" lon="2.0853220">
        <ele>96.8</ele>
        <time>2022-09-26T06:53:56Z</time>
      </trkpt>
      <trkpt lat="41.5370410" lon="2.0853690">
        <ele>97.2</ele>
        <time>2022-09-26T06:53:57Z</time>
      </trkpt>
      <trkpt lat="41.5370710" lon="2.0854140">
        <ele>97.8</ele>
        <time>2022-09-26T06:53:58Z</time>
      </trkpt>
      <trkpt lat="41.5370990" lon="2.0854550">
        <ele>98.4</ele>
        <time>2022-09-26T06:53:59Z</time>
      </trkpt>
      <trkpt lat="41.5371270" lon="2.0854940">
        <ele>98.6</ele>
        <time>2022-09-26T06:54:00Z</time>
      </trkpt>
      <trkpt lat="41.5371530" lon="2.0855330">
        <ele>99.2</ele>
        <time>2022-09-26T06:54:01Z</time>
      </trkpt>
      <trkpt lat="41.5371790" lon="2.0855740">
        <ele>99.6</ele>
        <time>2022-09-26T06:54:02Z</time>
      </trkpt>
      <trkpt lat="41.5372060" lon="2.0856150">
        <ele>100.0</ele>
        <time>2022-09-26T06:54:03Z</time>
      </trkpt>
      <trkpt lat="41.5372300" lon="2.0856560">
        <ele>100.4</ele>
        <time>2022-09-26T06:54:04Z</time>
      </trkpt>
      <trkpt lat="41.5372580" lon="2.0856960">
        <ele>100.6</ele>
        <time>2022-09-26T06:54:05Z</time>
      </trkpt>
      <trkpt lat="41.5372840" lon="2.0857360">
        <ele>101.0</ele>
        <time>2022-09-26T06:54:06Z</time>
      </trkpt>
      <trkpt lat="41.5373110" lon="2.0857770">
        <ele>101.2</ele>
        <time>2022-09-26T06:54:07Z</time>
      </trkpt>
      <trkpt lat="41.5373390" lon="2.0858190">
        <ele>101.4</ele>
        <time>2022-09-26T06:54:08Z</time>
      </trkpt>
      <trkpt lat="41.5373670" lon="2.0858610">
        <ele>101.8</ele>
        <time>2022-09-26T06:54:09Z</time>
      </trkpt>
      <trkpt lat="41.5373940" lon="2.0859030">
        <ele>102.0</ele>
        <time>2022-09-26T06:54:10Z</time>
      </trkpt>
      <trkpt lat="41.5374220" lon="2.0859430">
        <ele>102.2</ele>
        <time>2022-09-26T06:54:11Z</time>
      </trkpt>
      <trkpt lat="41.5374490" lon="2.0859830">
        <ele>102.2</ele>
        <time>2022-09-26T06:54:12Z</time>
      </trkpt>
      <trkpt lat="41.5374780" lon="2.0860250">
        <ele>102.6</ele>
        <time>2022-09-26T06:54:13Z</time>
      </trkpt>
      <trkpt lat="41.5375110" lon="2.0860670">
        <ele>102.8</ele>
        <time>2022-09-26T06:54:14Z</time>
      </trkpt>
      <trkpt lat="41.5375440" lon="2.0861090">
        <ele>103.0</ele>
        <time>2022-09-26T06:54:15Z</time>
      </trkpt>
      <trkpt lat="41.5375740" lon="2.0861520">
        <ele>102.8</ele>
        <time>2022-09-26T06:54:16Z</time>
      </trkpt>
      <trkpt lat="41.5376030" lon="2.0861980">
        <ele>103.0</ele>
        <time>2022-09-26T06:54:17Z</time>
      </trkpt>
      <trkpt lat="41.5376320" lon="2.0862440">
        <ele>103.0</ele>
        <time>2022-09-26T06:54:18Z</time>
      </trkpt>
      <trkpt lat="41.5376620" lon="2.0862900">
        <ele>103.0</ele>
        <time>2022-09-26T06:54:19Z</time>
      </trkpt>
      <trkpt lat="41.5376920" lon="2.0863350">
        <ele>103.0</ele>
        <time>2022-09-26T06:54:20Z</time>
      </trkpt>
      <trkpt lat="41.5377230" lon="2.0863830">
        <ele>103.2</ele>
        <time>2022-09-26T06:54:21Z</time>
      </trkpt>
      <trkpt lat="41.5377540" lon="2.0864310">
        <ele>103.4</ele>
        <time>2022-09-26T06:54:22Z</time>
      </trkpt>
      <trkpt lat="41.5377850" lon="2.0864800">
        <ele>103.6</ele>
        <time>2022-09-26T06:54:23Z</time>
      </trkpt>
      <trkpt lat="41.5378150" lon="2.0865300">
        <ele>103.6</ele>
        <time>2022-09-26T06:54:24Z</time>
      </trkpt>
      <trkpt lat="41.5378470" lon="2.0865800">
        <ele>103.8</ele>
        <time>2022-09-26T06:54:25Z</time>
      </trkpt>
      <trkpt lat="41.5378780" lon="2.0866290">
        <ele>103.8</ele>
        <time>2022-09-26T06:54:26Z</time>
      </trkpt>
      <trkpt lat="41.5379080" lon="2.0866770">
        <ele>103.8</ele>
        <time>2022-09-26T06:54:27Z</time>
      </trkpt>
      <trkpt lat="41.5379390" lon="2.0867270">
        <ele>104.0</ele>
        <time>2022-09-26T06:54:28Z</time>
      </trkpt>
      <trkpt lat="41.5379710" lon="2.0867760">
        <ele>103.8</ele>
        <time>2022-09-26T06:54:29Z</time>
      </trkpt>
      <trkpt lat="41.5380020" lon="2.0868250">
        <ele>104.0</ele>
        <time>2022-09-26T06:54:30Z</time>
      </trkpt>
      <trkpt lat="41.5380330" lon="2.0868750">
        <ele>103.8</ele>
        <time>2022-09-26T06:54:31Z</time>
      </trkpt>
      <trkpt lat="41.5380640" lon="2.0869260">
        <ele>103.8</ele>
        <time>2022-09-26T06:54:32Z</time>
      </trkpt>
      <trkpt lat="41.5380960" lon="2.0869780">
        <ele>104.0</ele>
        <time>2022-09-26T06:54:33Z</time>
      </trkpt>
      <trkpt lat="41.5381270" lon="2.0870290">
        <ele>104.0</ele>
        <time>2022-09-26T06:54:34Z</time>
      </trkpt>
      <trkpt lat="41.5381600" lon="2.0870810">
        <ele>104.0</ele>
        <time>2022-09-26T06:54:35Z</time>
      </trkpt>
      <trkpt lat="41.5381930" lon="2.0871320">
        <ele>104.2</ele>
        <time>2022-09-26T06:54:36Z</time>
      </trkpt>
      <trkpt lat="41.5382270" lon="2.0871830">
        <ele>104.2</ele>
        <time>2022-09-26T06:54:37Z</time>
      </trkpt>
      <trkpt lat="41.5382600" lon="2.0872360">
        <ele>104.2</ele>
        <time>2022-09-26T06:54:38Z</time>
      </trkpt>
      <trkpt lat="41.5382920" lon="2.0872900">
        <ele>104.2</ele>
        <time>2022-09-26T06:54:39Z</time>
      </trkpt>
      <trkpt lat="41.5383250" lon="2.0873430">
        <ele>104.2</ele>
        <time>2022-09-26T06:54:40Z</time>
      </trkpt>
      <trkpt lat="41.5383580" lon="2.0873960">
        <ele>104.2</ele>
        <time>2022-09-26T06:54:41Z</time>
      </trkpt>
      <trkpt lat="41.5383920" lon="2.0874490">
        <ele>104.2</ele>
        <time>2022-09-26T06:54:42Z</time>
      </trkpt>
      <trkpt lat="41.5384250" lon="2.0875010">
        <ele>104.4</ele>
        <time>2022-09-26T06:54:43Z</time>
      </trkpt>
      <trkpt lat="41.5384570" lon="2.0875530">
        <ele>104.4</ele>
        <time>2022-09-26T06:54:44Z</time>
      </trkpt>
      <trkpt lat="41.5384900" lon="2.0876050">
        <ele>104.4</ele>
        <time>2022-09-26T06:54:45Z</time>
      </trkpt>
      <trkpt lat="41.5385230" lon="2.0876570">
        <ele>104.6</ele>
        <time>2022-09-26T06:54:46Z</time>
      </trkpt>
      <trkpt lat="41.5385560" lon="2.0877110">
        <ele>104.6</ele>
        <time>2022-09-26T06:54:47Z</time>
      </trkpt>
      <trkpt lat="41.5385890" lon="2.0877640">
        <ele>104.6</ele>
        <time>2022-09-26T06:54:48Z</time>
      </trkpt>
      <trkpt lat="41.5386230" lon="2.0878180">
        <ele>104.6</ele>
        <time>2022-09-26T06:54:49Z</time>
      </trkpt>
      <trkpt lat="41.5386570" lon="2.0878730">
        <ele>104.8</ele>
        <time>2022-09-26T06:54:50Z</time>
      </trkpt>
      <trkpt lat="41.5386910" lon="2.0879290">
        <ele>104.6</ele>
        <time>2022-09-26T06:54:51Z</time>
      </trkpt>
      <trkpt lat="41.5387260" lon="2.0879860">
        <ele>104.8</ele>
        <time>2022-09-26T06:54:52Z</time>
      </trkpt>
      <trkpt lat="41.5387600" lon="2.0880440">
        <ele>104.6</ele>
        <time>2022-09-26T06:54:53Z</time>
      </trkpt>
      <trkpt lat="41.5387930" lon="2.0881040">
        <ele>104.6</ele>
        <time>2022-09-26T06:54:54Z</time>
      </trkpt>
      <trkpt lat="41.5388250" lon="2.0881670">
        <ele>104.6</ele>
        <time>2022-09-26T06:54:55Z</time>
      </trkpt>
      <trkpt lat="41.5388560" lon="2.0882320">
        <ele>104.6</ele>
        <time>2022-09-26T06:54:56Z</time>
      </trkpt>
      <trkpt lat="41.5388850" lon="2.0883000">
        <ele>104.6</ele>
        <time>2022-09-26T06:54:57Z</time>
      </trkpt>
      <trkpt lat="41.5389110" lon="2.0883710">
        <ele>104.6</ele>
        <time>2022-09-26T06:54:58Z</time>
      </trkpt>
      <trkpt lat="41.5389350" lon="2.0884450">
        <ele>104.2</ele>
        <time>2022-09-26T06:54:59Z</time>
      </trkpt>
      <trkpt lat="41.5389650" lon="2.0885160">
        <ele>104.2</ele>
        <time>2022-09-26T06:55:00Z</time>
      </trkpt>
      <trkpt lat="41.5390060" lon="2.0885770">
        <ele>104.2</ele>
        <time>2022-09-26T06:55:01Z</time>
      </trkpt>
      <trkpt lat="41.5390560" lon="2.0886270">
        <ele>104.4</ele>
        <time>2022-09-26T06:55:02Z</time>
      </trkpt>
      <trkpt lat="41.5391100" lon="2.0886730">
        <ele>104.0</ele>
        <time>2022-09-26T06:55:03Z</time>
      </trkpt>
      <trkpt lat="41.5391630" lon="2.0887250">
        <ele>104.0</ele>
        <time>2022-09-26T06:55:04Z</time>
      </trkpt>
      <trkpt lat="41.5392110" lon="2.0887870">
        <ele>104.0</ele>
        <time>2022-09-26T06:55:05Z</time>
      </trkpt>
      <trkpt lat="41.5392580" lon="2.0888530">
        <ele>103.8</ele>
        <time>2022-09-26T06:55:06Z</time>
      </trkpt>
      <trkpt lat="41.5393060" lon="2.0889200">
        <ele>103.6</ele>
        <time>2022-09-26T06:55:07Z</time>
      </trkpt>
      <trkpt lat="41.5393550" lon="2.0889880">
        <ele>103.4</ele>
        <time>2022-09-26T06:55:08Z</time>
      </trkpt>
      <trkpt lat="41.5394020" lon="2.0890580">
        <ele>103.0</ele>
        <time>2022-09-26T06:55:09Z</time>
      </trkpt>
      <trkpt lat="41.5394490" lon="2.0891320">
        <ele>102.8</ele>
        <time>2022-09-26T06:55:10Z</time>
      </trkpt>
      <trkpt lat="41.5394960" lon="2.0892060">
        <ele>102.4</ele>
        <time>2022-09-26T06:55:11Z</time>
      </trkpt>
      <trkpt lat="41.5395450" lon="2.0892830">
        <ele>102.0</ele>
        <time>2022-09-26T06:55:12Z</time>
      </trkpt>
      <trkpt lat="41.5395960" lon="2.0893630">
        <ele>101.8</ele>
        <time>2022-09-26T06:55:13Z</time>
      </trkpt>
      <trkpt lat="41.5396490" lon="2.0894460">
        <ele>101.4</ele>
        <time>2022-09-26T06:55:14Z</time>
      </trkpt>
      <trkpt lat="41.5397020" lon="2.0895310">
        <ele>101.0</ele>
        <time>2022-09-26T06:55:15Z</time>
      </trkpt>
      <trkpt lat="41.5397540" lon="2.0896180">
        <ele>100.0</ele>
        <time>2022-09-26T06:55:16Z</time>
      </trkpt>
      <trkpt lat="41.5398020" lon="2.0897040">
        <ele>99.4</ele>
        <time>2022-09-26T06:55:17Z</time>
      </trkpt>
      <trkpt lat="41.5398430" lon="2.0897930">
        <ele>98.8</ele>
        <time>2022-09-26T06:55:18Z</time>
      </trkpt>
      <trkpt lat="41.5398800" lon="2.0898890">
        <ele>98.4</ele>
        <time>2022-09-26T06:55:19Z</time>
      </trkpt>
      <trkpt lat="41.5399180" lon="2.0899870">
        <ele>98.0</ele>
        <time>2022-09-26T06:55:20Z</time>
      </trkpt>
      <trkpt lat="41.5399660" lon="2.0900810">
        <ele>97.2</ele>
        <time>2022-09-26T06:55:21Z</time>
      </trkpt>
      <trkpt lat="41.5400310" lon="2.0901570">
        <ele>97.0</ele>
        <time>2022-09-26T06:55:22Z</time>
      </trkpt>
      <trkpt lat="41.5401030" lon="2.0902270">
        <ele>96.4</ele>
        <time>2022-09-26T06:55:23Z</time>
      </trkpt>
      <trkpt lat="41.5401700" lon="2.0903080">
        <ele>95.8</ele>
        <time>2022-09-26T06:55:24Z</time>
      </trkpt>
      <trkpt lat="41.5402280" lon="2.0904040">
        <ele>94.8</ele>
        <time>2022-09-26T06:55:25Z</time>
      </trkpt>
      <trkpt lat="41.5402810" lon="2.0905080">
        <ele>94.2</ele>
        <time>2022-09-26T06:55:26Z</time>
      </trkpt>
      <trkpt lat="41.5403340" lon="2.0906150">
        <ele>93.8</ele>
        <time>2022-09-26T06:55:27Z</time>
      </trkpt>
      <trkpt lat="41.5403870" lon="2.0907230">
        <ele>93.2</ele>
        <time>2022-09-26T06:55:28Z</time>
      </trkpt>
      <trkpt lat="41.5404410" lon="2.0908330">
        <ele>92.8</ele>
        <time>2022-09-26T06:55:29Z</time>
      </trkpt>
      <trkpt lat="41.5404970" lon="2.0909420">
        <ele>92.0</ele>
        <time>2022-09-26T06:55:30Z</time>
      </trkpt>
      <trkpt lat="41.5405540" lon="2.0910510">
        <ele>91.4</ele>
        <time>2022-09-26T06:55:31Z</time>
      </trkpt>
      <trkpt lat="41.5406120" lon="2.0911600">
        <ele>90.8</ele>
        <time>2022-09-26T06:55:32Z</time>
      </trkpt>
      <trkpt lat="41.5406700" lon="2.0912690">
        <ele>90.2</ele>
        <time>2022-09-26T06:55:33Z</time>
      </trkpt>
      <trkpt lat="41.5407280" lon="2.0913760">
        <ele>89.8</ele>
        <time>2022-09-26T06:55:34Z</time>
      </trkpt>
      <trkpt lat="41.5407870" lon="2.0914820">
        <ele>89.4</ele>
        <time>2022-09-26T06:55:35Z</time>
      </trkpt>
      <trkpt lat="41.5408470" lon="2.0915870">
        <ele>88.8</ele>
        <time>2022-09-26T06:55:36Z</time>
      </trkpt>
      <trkpt lat="41.5409060" lon="2.0916920">
        <ele>88.4</ele>
        <time>2022-09-26T06:55:37Z</time>
      </trkpt>
      <trkpt lat="41.5409650" lon="2.0917970">
        <ele>88.0</ele>
        <time>2022-09-26T06:55:38Z</time>
      </trkpt>
      <trkpt lat="41.5410220" lon="2.0919020">
        <ele>87.8</ele>
        <time>2022-09-26T06:55:39Z</time>
      </trkpt>
      <trkpt lat="41.5410760" lon="2.0920040">
        <ele>87.6</ele>
        <time>2022-09-26T06:55:40Z</time>
      </trkpt>
      <trkpt lat="41.5411230" lon="2.0921020">
        <ele>87.4</ele>
        <time>2022-09-26T06:55:41Z</time>
      </trkpt>
      <trkpt lat="41.5411600" lon="2.0921920">
        <ele>87.4</ele>
        <time>2022-09-26T06:55:42Z</time>
      </trkpt>
      <trkpt lat="41.5411910" lon="2.0922670">
        <ele>87.4</ele>
        <time>2022-09-26T06:55:43Z</time>
      </trkpt>
      <trkpt lat="41.5412260" lon="2.0923220">
        <ele>87.2</ele>
        <time>2022-09-26T06:55:44Z</time>
      </trkpt>
      <trkpt lat="41.5412610" lon="2.0923560">
        <ele>87.4</ele>
        <time>2022-09-26T06:55:45Z</time>
      </trkpt>
      <trkpt lat="41.5412940" lon="2.0923830">
        <ele>87.6</ele>
        <time>2022-09-26T06:55:46Z</time>
      </trkpt>
      <trkpt lat="41.5413220" lon="2.0924180">
        <ele>87.6</ele>
        <time>2022-09-26T06:55:47Z</time>
      </trkpt>
      <trkpt lat="41.5413420" lon="2.0924640">
        <ele>87.8</ele>
        <time>2022-09-26T06:55:48Z</time>
      </trkpt>
      <trkpt lat="41.5413620" lon="2.0925130">
        <ele>88.2</ele>
        <time>2022-09-26T06:55:49Z</time>
      </trkpt>
      <trkpt lat="41.5413810" lon="2.0925670">
        <ele>88.6</ele>
        <time>2022-09-26T06:55:50Z</time>
      </trkpt>
      <trkpt lat="41.5414000" lon="2.0926230">
        <ele>89.0</ele>
        <time>2022-09-26T06:55:51Z</time>
      </trkpt>
      <trkpt lat="41.5414200" lon="2.0926790">
        <ele>89.2</ele>
        <time>2022-09-26T06:55:52Z</time>
      </trkpt>
      <trkpt lat="41.5414370" lon="2.0927330">
        <ele>89.4</ele>
        <time>2022-09-26T06:55:53Z</time>
      </trkpt>
      <trkpt lat="41.5414510" lon="2.0927810">
        <ele>89.4</ele>
        <time>2022-09-26T06:55:54Z</time>
      </trkpt>
      <trkpt lat="41.5414660" lon="2.0928290">
        <ele>89.8</ele>
        <time>2022-09-26T06:55:55Z</time>
      </trkpt>
      <trkpt lat="41.5414820" lon="2.0928810">
        <ele>90.2</ele>
        <time>2022-09-26T06:55:56Z</time>
      </trkpt>
      <trkpt lat="41.5415000" lon="2.0929380">
        <ele>90.4</ele>
        <time>2022-09-26T06:55:57Z</time>
      </trkpt>
      <trkpt lat="41.5415190" lon="2.0929910">
        <ele>90.8</ele>
        <time>2022-09-26T06:55:58Z</time>
      </trkpt>
      <trkpt lat="41.5415370" lon="2.0930440">
        <ele>91.0</ele>
        <time>2022-09-26T06:55:59Z</time>
      </trkpt>
      <trkpt lat="41.5415550" lon="2.0931010">
        <ele>91.2</ele>
        <time>2022-09-26T06:56:00Z</time>
      </trkpt>
      <trkpt lat="41.5415730" lon="2.0931580">
        <ele>91.4</ele>
        <time>2022-09-26T06:56:01Z</time>
      </trkpt>
      <trkpt lat="41.5415920" lon="2.0932140">
        <ele>91.6</ele>
        <time>2022-09-26T06:56:02Z</time>
      </trkpt>
      <trkpt lat="41.5416100" lon="2.0932680">
        <ele>92.0</ele>
        <time>2022-09-26T06:56:03Z</time>
      </trkpt>
      <trkpt lat="41.5416280" lon="2.0933240">
        <ele>92.2</ele>
        <time>2022-09-26T06:56:04Z</time>
      </trkpt>
      <trkpt lat="41.5416450" lon="2.0933790">
        <ele>92.4</ele>
        <time>2022-09-26T06:56:05Z</time>
      </trkpt>
      <trkpt lat="41.5416610" lon="2.0934320">
        <ele>92.8</ele>
        <time>2022-09-26T06:56:06Z</time>
      </trkpt>
      <trkpt lat="41.5416730" lon="2.0934790">
        <ele>93.2</ele>
        <time>2022-09-26T06:56:07Z</time>
      </trkpt>
      <trkpt lat="41.5416860" lon="2.0935220">
        <ele>93.4</ele>
        <time>2022-09-26T06:56:08Z</time>
      </trkpt>
      <trkpt lat="41.5416990" lon="2.0935590">
        <ele>93.4</ele>
        <time>2022-09-26T06:56:09Z</time>
      </trkpt>
      <trkpt lat="41.5417160" lon="2.0935900">
        <ele>93.8</ele>
        <time>2022-09-26T06:56:10Z</time>
      </trkpt>
      <trkpt lat="41.5417400" lon="2.0936100">
        <ele>94.0</ele>
        <time>2022-09-26T06:56:11Z</time>
      </trkpt>
      <trkpt lat="41.5417650" lon="2.0936220">
        <ele>94.4</ele>
        <time>2022-09-26T06:56:12Z</time>
      </trkpt>
      <trkpt lat="41.5417910" lon="2.0936370">
        <ele>94.4</ele>
        <time>2022-09-26T06:56:13Z</time>
      </trkpt>
      <trkpt lat="41.5418190" lon="2.0936560">
        <ele>94.6</ele>
        <time>2022-09-26T06:56:14Z</time>
      </trkpt>
      <trkpt lat="41.5418490" lon="2.0936940">
        <ele>94.8</ele>
        <time>2022-09-26T06:56:15Z</time>
      </trkpt>
      <trkpt lat="41.5418790" lon="2.0937400">
        <ele>94.8</ele>
        <time>2022-09-26T06:56:16Z</time>
      </trkpt>
      <trkpt lat="41.5419110" lon="2.0937800">
        <ele>95.0</ele>
        <time>2022-09-26T06:56:17Z</time>
      </trkpt>
      <trkpt lat="41.5419420" lon="2.0938080">
        <ele>95.2</ele>
        <time>2022-09-26T06:56:18Z</time>
      </trkpt>
      <trkpt lat="41.5419730" lon="2.0938170">
        <ele>95.4</ele>
        <time>2022-09-26T06:56:19Z</time>
      </trkpt>
      <trkpt lat="41.5420020" lon="2.0938170">
        <ele>95.6</ele>
        <time>2022-09-26T06:56:20Z</time>
      </trkpt>
      <trkpt lat="41.5420260" lon="2.0938170">
        <ele>95.6</ele>
        <time>2022-09-26T06:56:21Z</time>
      </trkpt>
      <trkpt lat="41.5420460" lon="2.0938190">
        <ele>95.6</ele>
        <time>2022-09-26T06:56:22Z</time>
      </trkpt>
      <trkpt lat="41.5420660" lon="2.0938220">
        <ele>95.8</ele>
        <time>2022-09-26T06:56:23Z</time>
      </trkpt>
      <trkpt lat="41.5420780" lon="2.0938280">
        <ele>96.0</ele>
        <time>2022-09-26T06:56:24Z</time>
      </trkpt>
      <trkpt lat="41.5420860" lon="2.0938270">
        <ele>96.0</ele>
        <time>2022-09-26T06:56:25Z</time>
      </trkpt>
      <trkpt lat="41.5420940" lon="2.0938300">
        <ele>96.2</ele>
        <time>2022-09-26T06:56:26Z</time>
      </trkpt>
      <trkpt lat="41.5421030" lon="2.0938310">
        <ele>96.4</ele>
        <time>2022-09-26T06:56:27Z</time>
      </trkpt>
      <trkpt lat="41.5421110" lon="2.0938290">
        <ele>96.4</ele>
        <time>2022-09-26T06:56:28Z</time>
      </trkpt>
      <trkpt lat="41.5421260" lon="2.0938220">
        <ele>96.4</ele>
        <time>2022-09-26T06:56:29Z</time>
      </trkpt>
      <trkpt lat="41.5421360" lon="2.0938170">
        <ele>96.6</ele>
        <time>2022-09-26T06:56:30Z</time>
      </trkpt>
      <trkpt lat="41.5421450" lon="2.0938140">
        <ele>96.6</ele>
        <time>2022-09-26T06:56:31Z</time>
      </trkpt>
      <trkpt lat="41.5421570" lon="2.0938130">
        <ele>96.8</ele>
        <time>2022-09-26T06:56:32Z</time>
      </trkpt>
      <trkpt lat="41.5421710" lon="2.0938160">
        <ele>96.8</ele>
        <time>2022-09-26T06:56:33Z</time>
      </trkpt>
      <trkpt lat="41.5421880" lon="2.0938190">
        <ele>96.6</ele>
        <time>2022-09-26T06:56:34Z</time>
      </trkpt>
      <trkpt lat="41.5422060" lon="2.0938270">
        <ele>96.6</ele>
        <time>2022-09-26T06:56:35Z</time>
      </trkpt>
      <trkpt lat="41.5422330" lon="2.0938340">
        <ele>96.8</ele>
        <time>2022-09-26T06:56:36Z</time>
      </trkpt>
      <trkpt lat="41.5422610" lon="2.0938420">
        <ele>96.8</ele>
        <time>2022-09-26T06:56:37Z</time>
      </trkpt>
      <trkpt lat="41.5422910" lon="2.0938520">
        <ele>96.8</ele>
        <time>2022-09-26T06:56:38Z</time>
      </trkpt>
      <trkpt lat="41.5423270" lon="2.0938610">
        <ele>96.6</ele>
        <time>2022-09-26T06:56:39Z</time>
      </trkpt>
      <trkpt lat="41.5423620" lon="2.0938700">
        <ele>96.8</ele>
        <time>2022-09-26T06:56:40Z</time>
      </trkpt>
      <trkpt lat="41.5423880" lon="2.0938760">
        <ele>97.0</ele>
        <time>2022-09-26T06:56:41Z</time>
      </trkpt>
      <trkpt lat="41.5424170" lon="2.0938850">
        <ele>97.4</ele>
        <time>2022-09-26T06:56:42Z</time>
      </trkpt>
      <trkpt lat="41.5424510" lon="2.0938900">
        <ele>97.4</ele>
        <time>2022-09-26T06:56:43Z</time>
      </trkpt>
      <trkpt lat="41.5424880" lon="2.0938950">
        <ele>97.8</ele>
        <time>2022-09-26T06:56:44Z</time>
      </trkpt>
      <trkpt lat="41.5425340" lon="2.0939040">
        <ele>97.8</ele>
        <time>2022-09-26T06:56:45Z</time>
      </trkpt>
      <trkpt lat="41.5425880" lon="2.0939170">
        <ele>98.0</ele>
        <time>2022-09-26T06:56:46Z</time>
      </trkpt>
      <trkpt lat="41.5426360" lon="2.0939250">
        <ele>98.2</ele>
        <time>2022-09-26T06:56:47Z</time>
      </trkpt>
      <trkpt lat="41.5426900" lon="2.0939300">
        <ele>98.2</ele>
        <time>2022-09-26T06:56:48Z</time>
      </trkpt>
      <trkpt lat="41.5427420" lon="2.0939380">
        <ele>98.4</ele>
        <time>2022-09-26T06:56:49Z</time>
      </trkpt>
      <trkpt lat="41.5428000" lon="2.0939470">
        <ele>98.4</ele>
        <time>2022-09-26T06:56:50Z</time>
      </trkpt>
      <trkpt lat="41.5428550" lon="2.0939550">
        <ele>98.6</ele>
        <time>2022-09-26T06:56:51Z</time>
      </trkpt>
      <trkpt lat="41.5429130" lon="2.0939570">
        <ele>98.6</ele>
        <time>2022-09-26T06:56:52Z</time>
      </trkpt>
      <trkpt lat="41.5429640" lon="2.0939670">
        <ele>98.8</ele>
        <time>2022-09-26T06:56:53Z</time>
      </trkpt>
      <trkpt lat="41.5430150" lon="2.0939760">
        <ele>99.0</ele>
        <time>2022-09-26T06:56:54Z</time>
      </trkpt>
      <trkpt lat="41.5430710" lon="2.0939820">
        <ele>99.2</ele>
        <time>2022-09-26T06:56:55Z</time>
      </trkpt>
      <trkpt lat="41.5431270" lon="2.0939890">
        <ele>99.4</ele>
        <time>2022-09-26T06:56:56Z</time>
      </trkpt>
      <trkpt lat="41.5431790" lon="2.0939960">
        <ele>99.6</ele>
        <time>2022-09-26T06:56:57Z</time>
      </trkpt>
      <trkpt lat="41.5432270" lon="2.0940050">
        <ele>99.8</ele>
        <time>2022-09-26T06:56:58Z</time>
      </trkpt>
      <trkpt lat="41.5432750" lon="2.0940160">
        <ele>100.0</ele>
        <time>2022-09-26T06:56:59Z</time>
      </trkpt>
      <trkpt lat="41.5433210" lon="2.0940290">
        <ele>100.0</ele>
        <time>2022-09-26T06:57:00Z</time>
      </trkpt>
      <trkpt lat="41.5433660" lon="2.0940400">
        <ele>100.2</ele>
        <time>2022-09-26T06:57:01Z</time>
      </trkpt>
      <trkpt lat="41.5434070" lon="2.0940510">
        <ele>100.4</ele>
        <time>2022-09-26T06:57:02Z</time>
      </trkpt>
      <trkpt lat="41.5434500" lon="2.0940630">
        <ele>100.6</ele>
        <time>2022-09-26T06:57:03Z</time>
      </trkpt>
      <trkpt lat="41.5434970" lon="2.0940740">
        <ele>100.8</ele>
        <time>2022-09-26T06:57:04Z</time>
      </trkpt>
      <trkpt lat="41.5435460" lon="2.0940810">
        <ele>100.8</ele>
        <time>2022-09-26T06:57:05Z</time>
      </trkpt>
      <trkpt lat="41.5435940" lon="2.0940860">
        <ele>100.8</ele>
        <time>2022-09-26T06:57:06Z</time>
      </trkpt>
      <trkpt lat="41.5436420" lon="2.0940920">
        <ele>101.0</ele>
        <time>2022-09-26T06:57:07Z</time>
      </trkpt>
      <trkpt lat="41.5436880" lon="2.0940980">
        <ele>101.2</ele>
        <time>2022-09-26T06:57:08Z</time>
      </trkpt>
      <trkpt lat="41.5437360" lon="2.0941040">
        <ele>101.0</ele>
        <time>2022-09-26T06:57:09Z</time>
      </trkpt>
      <trkpt lat="41.5437850" lon="2.0941110">
        <ele>101.2</ele>
        <time>2022-09-26T06:57:10Z</time>
      </trkpt>
      <trkpt lat="41.5438310" lon="2.0941180">
        <ele>101.4</ele>
        <time>2022-09-26T06:57:11Z</time>
      </trkpt>
      <trkpt lat="41.5438760" lon="2.0941250">
        <ele>101.6</ele>
        <time>2022-09-26T06:57:12Z</time>
      </trkpt>
      <trkpt lat="41.5439140" lon="2.0941350">
        <ele>101.8</ele>
        <time>2022-09-26T06:57:13Z</time>
      </trkpt>
      <trkpt lat="41.5439550" lon="2.0941470">
        <ele>102.0</ele>
        <time>2022-09-26T06:57:14Z</time>
      </trkpt>
      <trkpt lat="41.5440010" lon="2.0941520">
        <ele>102.2</ele>
        <time>2022-09-26T06:57:15Z</time>
      </trkpt>
      <trkpt lat="41.5440500" lon="2.0941570">
        <ele>102.2</ele>
        <time>2022-09-26T06:57:16Z</time>
      </trkpt>
      <trkpt lat="41.5440950" lon="2.0941660">
        <ele>102.4</ele>
        <time>2022-09-26T06:57:17Z</time>
      </trkpt>
      <trkpt lat="41.5441420" lon="2.0941770">
        <ele>102.8</ele>
        <time>2022-09-26T06:57:18Z</time>
      </trkpt>
      <trkpt lat="41.5441890" lon="2.0941850">
        <ele>103.0</ele>
        <time>2022-09-26T06:57:19Z</time>
      </trkpt>
      <trkpt lat="41.5442400" lon="2.0941860">
        <ele>103.2</ele>
        <time>2022-09-26T06:57:20Z</time>
      </trkpt>
      <trkpt lat="41.5442920" lon="2.0941880">
        <ele>103.2</ele>
        <time>2022-09-26T06:57:21Z</time>
      </trkpt>
      <trkpt lat="41.5443440" lon="2.0941930">
        <ele>103.4</ele>
        <time>2022-09-26T06:57:22Z</time>
      </trkpt>
      <trkpt lat="41.5443920" lon="2.0942000">
        <ele>103.6</ele>
        <time>2022-09-26T06:57:23Z</time>
      </trkpt>
      <trkpt lat="41.5444400" lon="2.0942070">
        <ele>103.8</ele>
        <time>2022-09-26T06:57:24Z</time>
      </trkpt>
      <trkpt lat="41.5444820" lon="2.0942150">
        <ele>103.8</ele>
        <time>2022-09-26T06:57:25Z</time>
      </trkpt>
      <trkpt lat="41.5445220" lon="2.0942200">
        <ele>103.8</ele>
        <time>2022-09-26T06:57:26Z</time>
      </trkpt>
      <trkpt lat="41.5445530" lon="2.0942280">
        <ele>104.0</ele>
        <time>2022-09-26T06:57:27Z</time>
      </trkpt>
      <trkpt lat="41.5445790" lon="2.0942350">
        <ele>104.2</ele>
        <time>2022-09-26T06:57:28Z</time>
      </trkpt>
      <trkpt lat="41.5445990" lon="2.0942420">
        <ele>104.2</ele>
        <time>2022-09-26T06:57:29Z</time>
      </trkpt>
      <trkpt lat="41.5446130" lon="2.0942460">
        <ele>104.2</ele>
        <time>2022-09-26T06:57:30Z</time>
      </trkpt>
      <trkpt lat="41.5446200" lon="2.0942500">
        <ele>104.2</ele>
        <time>2022-09-26T06:57:31Z</time>
      </trkpt>
      <trkpt lat="41.5446240" lon="2.0942480">
        <ele>104.2</ele>
        <time>2022-09-26T06:57:32Z</time>
      </trkpt>
      <trkpt lat="41.5446840" lon="2.0942570">
        <ele>104.2</ele>
        <time>2022-09-26T06:58:02Z</time>
      </trkpt>
      <trkpt lat="41.5447160" lon="2.0942630">
        <ele>104.0</ele>
        <time>2022-09-26T06:58:03Z</time>
      </trkpt>
      <trkpt lat="41.5447540" lon="2.0942630">
        <ele>103.8</ele>
        <time>2022-09-26T06:58:04Z</time>
      </trkpt>
      <trkpt lat="41.5447950" lon="2.0942670">
        <ele>103.8</ele>
        <time>2022-09-26T06:58:05Z</time>
      </trkpt>
      <trkpt lat="41.5448470" lon="2.0942810">
        <ele>103.6</ele>
        <time>2022-09-26T06:58:06Z</time>
      </trkpt>
      <trkpt lat="41.5448990" lon="2.0942920">
        <ele>103.6</ele>
        <time>2022-09-26T06:58:07Z</time>
      </trkpt>
      <trkpt lat="41.5449500" lon="2.0943020">
        <ele>103.4</ele>
        <time>2022-09-26T06:58:08Z</time>
      </trkpt>
      <trkpt lat="41.5449980" lon="2.0943090">
        <ele>103.4</ele>
        <time>2022-09-26T06:58:09Z</time>
      </trkpt>
      <trkpt lat="41.5450370" lon="2.0943130">
        <ele>103.2</ele>
        <time>2022-09-26T06:58:10Z</time>
      </trkpt>
      <trkpt lat="41.5450690" lon="2.0943190">
        <ele>103.2</ele>
        <time>2022-09-26T06:58:11Z</time>
      </trkpt>
      <trkpt lat="41.5450950" lon="2.0943270">
        <ele>103.2</ele>
        <time>2022-09-26T06:58:12Z</time>
      </trkpt>
      <trkpt lat="41.5451140" lon="2.0943350">
        <ele>103.2</ele>
        <time>2022-09-26T06:58:13Z</time>
      </trkpt>
      <trkpt lat="41.5451290" lon="2.0943400">
        <ele>103.2</ele>
        <time>2022-09-26T06:58:14Z</time>
      </trkpt>
      <trkpt lat="41.5451360" lon="2.0943420">
        <ele>103.2</ele>
        <time>2022-09-26T06:58:15Z</time>
      </trkpt>
      <trkpt lat="41.5451440" lon="2.0943440">
        <ele>103.4</ele>
        <time>2022-09-26T06:58:16Z</time>
      </trkpt>
      <trkpt lat="41.5452170" lon="2.0943590">
        <ele>103.2</ele>
        <time>2022-09-26T06:58:21Z</time>
      </trkpt>
      <trkpt lat="41.5452480" lon="2.0943690">
        <ele>103.2</ele>
        <time>2022-09-26T06:58:22Z</time>
      </trkpt>
      <trkpt lat="41.5452830" lon="2.0943780">
        <ele>103.2</ele>
        <time>2022-09-26T06:58:23Z</time>
      </trkpt>
      <trkpt lat="41.5453240" lon="2.0943880">
        <ele>103.4</ele>
        <time>2022-09-26T06:58:24Z</time>
      </trkpt>
      <trkpt lat="41.5453680" lon="2.0943950">
        <ele>103.2</ele>
        <time>2022-09-26T06:58:25Z</time>
      </trkpt>
      <trkpt lat="41.5454160" lon="2.0944040">
        <ele>103.4</ele>
        <time>2022-09-26T06:58:26Z</time>
      </trkpt>
      <trkpt lat="41.5454640" lon="2.0944180">
        <ele>103.4</ele>
        <time>2022-09-26T06:58:27Z</time>
      </trkpt>
      <trkpt lat="41.5455090" lon="2.0944310">
        <ele>103.4</ele>
        <time>2022-09-26T06:58:28Z</time>
      </trkpt>
      <trkpt lat="41.5455550" lon="2.0944360">
        <ele>103.4</ele>
        <time>2022-09-26T06:58:29Z</time>
      </trkpt>
      <trkpt lat="41.5456080" lon="2.0944300">
        <ele>103.6</ele>
        <time>2022-09-26T06:58:30Z</time>
      </trkpt>
      <trkpt lat="41.5456630" lon="2.0944340">
        <ele>103.6</ele>
        <time>2022-09-26T06:58:31Z</time>
      </trkpt>
      <trkpt lat="41.5457150" lon="2.0944420">
        <ele>103.6</ele>
        <time>2022-09-26T06:58:32Z</time>
      </trkpt>
      <trkpt lat="41.5457680" lon="2.0944430">
        <ele>103.8</ele>
        <time>2022-09-26T06:58:33Z</time>
      </trkpt>
      <trkpt lat="41.5458210" lon="2.0944510">
        <ele>103.8</ele>
        <time>2022-09-26T06:58:34Z</time>
      </trkpt>
      <trkpt lat="41.5458740" lon="2.0944600">
        <ele>104.0</ele>
        <time>2022-09-26T06:58:35Z</time>
      </trkpt>
      <trkpt lat="41.5459300" lon="2.0944680">
        <ele>103.8</ele>
        <time>2022-09-26T06:58:36Z</time>
      </trkpt>
      <trkpt lat="41.5459840" lon="2.0944760">
        <ele>104.0</ele>
        <time>2022-09-26T06:58:37Z</time>
      </trkpt>
      <trkpt lat="41.5460390" lon="2.0944820">
        <ele>104.0</ele>
        <time>2022-09-26T06:58:38Z</time>
      </trkpt>
      <trkpt lat="41.5460920" lon="2.0944900">
        <ele>104.2</ele>
        <time>2022-09-26T06:58:39Z</time>
      </trkpt>
      <trkpt lat="41.5461460" lon="2.0944980">
        <ele>104.4</ele>
        <time>2022-09-26T06:58:40Z</time>
      </trkpt>
      <trkpt lat="41.5461990" lon="2.0945080">
        <ele>104.2</ele>
        <time>2022-09-26T06:58:41Z</time>
      </trkpt>
      <trkpt lat="41.5462530" lon="2.0945160">
        <ele>104.4</ele>
        <time>2022-09-26T06:58:42Z</time>
      </trkpt>
      <trkpt lat="41.5463050" lon="2.0945250">
        <ele>104.4</ele>
        <time>2022-09-26T06:58:43Z</time>
      </trkpt>
      <trkpt lat="41.5463570" lon="2.0945340">
        <ele>104.6</ele>
        <time>2022-09-26T06:58:44Z</time>
      </trkpt>
      <trkpt lat="41.5464070" lon="2.0945410">
        <ele>104.8</ele>
        <time>2022-09-26T06:58:45Z</time>
      </trkpt>
      <trkpt lat="41.5464570" lon="2.0945490">
        <ele>105.0</ele>
        <time>2022-09-26T06:58:46Z</time>
      </trkpt>
      <trkpt lat="41.5465060" lon="2.0945580">
        <ele>104.8</ele>
        <time>2022-09-26T06:58:47Z</time>
      </trkpt>
      <trkpt lat="41.5465570" lon="2.0945660">
        <ele>105.0</ele>
        <time>2022-09-26T06:58:48Z</time>
      </trkpt>
      <trkpt lat="41.5466060" lon="2.0945750">
        <ele>105.2</ele>
        <time>2022-09-26T06:58:49Z</time>
      </trkpt>
      <trkpt lat="41.5466560" lon="2.0945810">
        <ele>105.2</ele>
        <time>2022-09-26T06:58:50Z</time>
      </trkpt>
      <trkpt lat="41.5467030" lon="2.0945840">
        <ele>105.0</ele>
        <time>2022-09-26T06:58:51Z</time>
      </trkpt>
      <trkpt lat="41.5467500" lon="2.0945900">
        <ele>105.2</ele>
        <time>2022-09-26T06:58:52Z</time>
      </trkpt>
      <trkpt lat="41.5468010" lon="2.0945960">
        <ele>105.4</ele>
        <time>2022-09-26T06:58:53Z</time>
      </trkpt>
      <trkpt lat="41.5468480" lon="2.0946000">
        <ele>105.6</ele>
        <time>2022-09-26T06:58:54Z</time>
      </trkpt>
      <trkpt lat="41.5468950" lon="2.0946030">
        <ele>105.6</ele>
        <time>2022-09-26T06:58:55Z</time>
      </trkpt>
      <trkpt lat="41.5469360" lon="2.0946070">
        <ele>105.8</ele>
        <time>2022-09-26T06:58:56Z</time>
      </trkpt>
      <trkpt lat="41.5469760" lon="2.0946110">
        <ele>105.8</ele>
        <time>2022-09-26T06:58:57Z</time>
      </trkpt>
      <trkpt lat="41.5470260" lon="2.0946190">
        <ele>105.8</ele>
        <time>2022-09-26T06:58:58Z</time>
      </trkpt>
      <trkpt lat="41.5470810" lon="2.0946260">
        <ele>106.0</ele>
        <time>2022-09-26T06:58:59Z</time>
      </trkpt>
      <trkpt lat="41.5471380" lon="2.0946390">
        <ele>106.0</ele>
        <time>2022-09-26T06:59:00Z</time>
      </trkpt>
      <trkpt lat="41.5471950" lon="2.0946490">
        <ele>106.0</ele>
        <time>2022-09-26T06:59:01Z</time>
      </trkpt>
      <trkpt lat="41.5472530" lon="2.0946560">
        <ele>106.0</ele>
        <time>2022-09-26T06:59:02Z</time>
      </trkpt>
      <trkpt lat="41.5473170" lon="2.0946640">
        <ele>106.2</ele>
        <time>2022-09-26T06:59:03Z</time>
      </trkpt>
      <trkpt lat="41.5473740" lon="2.0946740">
        <ele>106.4</ele>
        <time>2022-09-26T06:59:04Z</time>
      </trkpt>
      <trkpt lat="41.5474310" lon="2.0946830">
        <ele>106.6</ele>
        <time>2022-09-26T06:59:05Z</time>
      </trkpt>
      <trkpt lat="41.5474840" lon="2.0946880">
        <ele>106.6</ele>
        <time>2022-09-26T06:59:06Z</time>
      </trkpt>
      <trkpt lat="41.5475400" lon="2.0946970">
        <ele>106.6</ele>
        <time>2022-09-26T06:59:07Z</time>
      </trkpt>
      <trkpt lat="41.5475980" lon="2.0947120">
        <ele>106.8</ele>
        <time>2022-09-26T06:59:08Z</time>
      </trkpt>
      <trkpt lat="41.5476520" lon="2.0947280">
        <ele>106.8</ele>
        <time>2022-09-26T06:59:09Z</time>
      </trkpt>
      <trkpt lat="41.5477120" lon="2.0947470">
        <ele>107.0</ele>
        <time>2022-09-26T06:59:10Z</time>
      </trkpt>
      <trkpt lat="41.5477680" lon="2.0947670">
        <ele>107.2</ele>
        <time>2022-09-26T06:59:11Z</time>
      </trkpt>
      <trkpt lat="41.5478220" lon="2.0947830">
        <ele>107.4</ele>
        <time>2022-09-26T06:59:12Z</time>
      </trkpt>
      <trkpt lat="41.5478770" lon="2.0947970">
        <ele>107.4</ele>
        <time>2022-09-26T06:59:13Z</time>
      </trkpt>
      <trkpt lat="41.5479290" lon="2.0948080">
        <ele>107.4</ele>
        <time>2022-09-26T06:59:14Z</time>
      </trkpt>
      <trkpt lat="41.5479880" lon="2.0948200">
        <ele>107.6</ele>
        <time>2022-09-26T06:59:15Z</time>
      </trkpt>
      <trkpt lat="41.5480460" lon="2.0948340">
        <ele>107.8</ele>
        <time>2022-09-26T06:59:16Z</time>
      </trkpt>
      <trkpt lat="41.5480950" lon="2.0948450">
        <ele>107.8</ele>
        <time>2022-09-26T06:59:17Z</time>
      </trkpt>
      <trkpt lat="41.5481510" lon="2.0948590">
        <ele>107.8</ele>
        <time>2022-09-26T06:59:18Z</time>
      </trkpt>
      <trkpt lat="41.5482090" lon="2.0948690">
        <ele>108.2</ele>
        <time>2022-09-26T06:59:19Z</time>
      </trkpt>
      <trkpt lat="41.5482700" lon="2.0948740">
        <ele>108.4</ele>
        <time>2022-09-26T06:59:20Z</time>
      </trkpt>
      <trkpt lat="41.5483320" lon="2.0948740">
        <ele>108.4</ele>
        <time>2022-09-26T06:59:21Z</time>
      </trkpt>
      <trkpt lat="41.5483920" lon="2.0948800">
        <ele>108.6</ele>
        <time>2022-09-26T06:59:22Z</time>
      </trkpt>
      <trkpt lat="41.5484460" lon="2.0948870">
        <ele>108.8</ele>
        <time>2022-09-26T06:59:23Z</time>
      </trkpt>
      <trkpt lat="41.5485010" lon="2.0948960">
        <ele>108.8</ele>
        <time>2022-09-26T06:59:24Z</time>
      </trkpt>
      <trkpt lat="41.5485570" lon="2.0949010">
        <ele>109.0</ele>
        <time>2022-09-26T06:59:25Z</time>
      </trkpt>
      <trkpt lat="41.5486120" lon="2.0949080">
        <ele>109.2</ele>
        <time>2022-09-26T06:59:26Z</time>
      </trkpt>
      <trkpt lat="41.5486640" lon="2.0949180">
        <ele>109.4</ele>
        <time>2022-09-26T06:59:27Z</time>
      </trkpt>
      <trkpt lat="41.5487170" lon="2.0949270">
        <ele>109.6</ele>
        <time>2022-09-26T06:59:28Z</time>
      </trkpt>
      <trkpt lat="41.5487700" lon="2.0949380">
        <ele>109.8</ele>
        <time>2022-09-26T06:59:29Z</time>
      </trkpt>
      <trkpt lat="41.5488210" lon="2.0949500">
        <ele>110.0</ele>
        <time>2022-09-26T06:59:30Z</time>
      </trkpt>
      <trkpt lat="41.5488740" lon="2.0949590">
        <ele>110.2</ele>
        <time>2022-09-26T06:59:31Z</time>
      </trkpt>
      <trkpt lat="41.5489260" lon="2.0949660">
        <ele>110.2</ele>
        <time>2022-09-26T06:59:32Z</time>
      </trkpt>
      <trkpt lat="41.5489800" lon="2.0949710">
        <ele>110.4</ele>
        <time>2022-09-26T06:59:33Z</time>
      </trkpt>
      <trkpt lat="41.5490370" lon="2.0949780">
        <ele>110.4</ele>
        <time>2022-09-26T06:59:34Z</time>
      </trkpt>
      <trkpt lat="41.5490940" lon="2.0949860">
        <ele>110.6</ele>
        <time>2022-09-26T06:59:35Z</time>
      </trkpt>
      <trkpt lat="41.5491500" lon="2.0949950">
        <ele>110.8</ele>
        <time>2022-09-26T06:59:36Z</time>
      </trkpt>
      <trkpt lat="41.5492040" lon="2.0950050">
        <ele>110.8</ele>
        <time>2022-09-26T06:59:37Z</time>
      </trkpt>
      <trkpt lat="41.5492590" lon="2.0950160">
        <ele>111.2</ele>
        <time>2022-09-26T06:59:38Z</time>
      </trkpt>
      <trkpt lat="41.5493150" lon="2.0950260">
        <ele>111.4</ele>
        <time>2022-09-26T06:59:39Z</time>
      </trkpt>
      <trkpt lat="41.5493670" lon="2.0950360">
        <ele>111.4</ele>
        <time>2022-09-26T06:59:40Z</time>
      </trkpt>
      <trkpt lat="41.5494150" lon="2.0950450">
        <ele>111.8</ele>
        <time>2022-09-26T06:59:41Z</time>
      </trkpt>
      <trkpt lat="41.5494620" lon="2.0950520">
        <ele>111.8</ele>
        <time>2022-09-26T06:59:42Z</time>
      </trkpt>
      <trkpt lat="41.5495110" lon="2.0950580">
        <ele>112.0</ele>
        <time>2022-09-26T06:59:43Z</time>
      </trkpt>
      <trkpt lat="41.5495630" lon="2.0950630">
        <ele>112.0</ele>
        <time>2022-09-26T06:59:44Z</time>
      </trkpt>
      <trkpt lat="41.5496120" lon="2.0950670">
        <ele>112.2</ele>
        <time>2022-09-26T06:59:45Z</time>
      </trkpt>
      <trkpt lat="41.5496610" lon="2.0950730">
        <ele>112.4</ele>
        <time>2022-09-26T06:59:46Z</time>
      </trkpt>
      <trkpt lat="41.5497080" lon="2.0950850">
        <ele>112.6</ele>
        <time>2022-09-26T06:59:47Z</time>
      </trkpt>
      <trkpt lat="41.5497570" lon="2.0950990">
        <ele>112.6</ele>
        <time>2022-09-26T06:59:48Z</time>
      </trkpt>
      <trkpt lat="41.5498100" lon="2.0951110">
        <ele>112.8</ele>
        <time>2022-09-26T06:59:49Z</time>
      </trkpt>
      <trkpt lat="41.5498660" lon="2.0951210">
        <ele>113.0</ele>
        <time>2022-09-26T06:59:50Z</time>
      </trkpt>
      <trkpt lat="41.5499210" lon="2.0951260">
        <ele>113.0</ele>
        <time>2022-09-26T06:59:51Z</time>
      </trkpt>
      <trkpt lat="41.5499710" lon="2.0951320">
        <ele>113.0</ele>
        <time>2022-09-26T06:59:52Z</time>
      </trkpt>
      <trkpt lat="41.5500160" lon="2.0951430">
        <ele>113.0</ele>
        <time>2022-09-26T06:59:53Z</time>
      </trkpt>
      <trkpt lat="41.5500590" lon="2.0951550">
        <ele>113.2</ele>
        <time>2022-09-26T06:59:54Z</time>
      </trkpt>
      <trkpt lat="41.5501010" lon="2.0951660">
        <ele>113.4</ele>
        <time>2022-09-26T06:59:55Z</time>
      </trkpt>
      <trkpt lat="41.5501430" lon="2.0951800">
        <ele>113.6</ele>
        <time>2022-09-26T06:59:56Z</time>
      </trkpt>
      <trkpt lat="41.5501860" lon="2.0951980">
        <ele>113.6</ele>
        <time>2022-09-26T06:59:57Z</time>
      </trkpt>
      <trkpt lat="41.5502360" lon="2.0952020">
        <ele>113.8</ele>
        <time>2022-09-26T06:59:58Z</time>
      </trkpt>
      <trkpt lat="41.5502880" lon="2.0952170">
        <ele>114.0</ele>
        <time>2022-09-26T06:59:59Z</time>
      </trkpt>
      <trkpt lat="41.5503390" lon="2.0952430">
        <ele>114.0</ele>
        <time>2022-09-26T07:00:00Z</time>
      </trkpt>
      <trkpt lat="41.5503850" lon="2.0952800">
        <ele>114.0</ele>
        <time>2022-09-26T07:00:01Z</time>
      </trkpt>
      <trkpt lat="41.5504290" lon="2.0953370">
        <ele>114.0</ele>
        <time>2022-09-26T07:00:02Z</time>
      </trkpt>
      <trkpt lat="41.5504580" lon="2.0953990">
        <ele>114.0</ele>
        <time>2022-09-26T07:00:03Z</time>
      </trkpt>
      <trkpt lat="41.5504770" lon="2.0954660">
        <ele>113.8</ele>
        <time>2022-09-26T07:00:04Z</time>
      </trkpt>
      <trkpt lat="41.5504850" lon="2.0955390">
        <ele>113.8</ele>
        <time>2022-09-26T07:00:05Z</time>
      </trkpt>
      <trkpt lat="41.5504790" lon="2.0956160">
        <ele>113.6</ele>
        <time>2022-09-26T07:00:06Z</time>
      </trkpt>
      <trkpt lat="41.5504660" lon="2.0956980">
        <ele>113.4</ele>
        <time>2022-09-26T07:00:07Z</time>
      </trkpt>
      <trkpt lat="41.5504520" lon="2.0957870">
        <ele>113.0</ele>
        <time>2022-09-26T07:00:08Z</time>
      </trkpt>
      <trkpt lat="41.5504360" lon="2.0958820">
        <ele>112.6</ele>
        <time>2022-09-26T07:00:09Z</time>
      </trkpt>
      <trkpt lat="41.5504200" lon="2.0959800">
        <ele>112.2</ele>
        <time>2022-09-26T07:00:10Z</time>
      </trkpt>
      <trkpt lat="41.5504030" lon="2.0960830">
        <ele>111.8</ele>
        <time>2022-09-26T07:00:11Z</time>
      </trkpt>
      <trkpt lat="41.5503830" lon="2.0961900">
        <ele>111.0</ele>
        <time>2022-09-26T07:00:12Z</time>
      </trkpt>
      <trkpt lat="41.5503620" lon="2.0963010">
        <ele>109.8</ele>
        <time>2022-09-26T07:00:13Z</time>
      </trkpt>
      <trkpt lat="41.5503440" lon="2.0964170">
        <ele>109.4</ele>
        <time>2022-09-26T07:00:14Z</time>
      </trkpt>
      <trkpt lat="41.5503260" lon="2.0965340">
        <ele>108.8</ele>
        <time>2022-09-26T07:00:15Z</time>
      </trkpt>
      <trkpt lat="41.5503110" lon="2.0966530">
        <ele>108.4</ele>
        <time>2022-09-26T07:00:16Z</time>
      </trkpt>
      <trkpt lat="41.5502950" lon="2.0967750">
        <ele>108.0</ele>
        <time>2022-09-26T07:00:17Z</time>
      </trkpt>
      <trkpt lat="41.5502740" lon="2.0968990">
        <ele>107.2</ele>
        <time>2022-09-26T07:00:18Z</time>
      </trkpt>
      <trkpt lat="41.5502460" lon="2.0970250">
        <ele>106.6</ele>
        <time>2022-09-26T07:00:19Z</time>
      </trkpt>
      <trkpt lat="41.5502190" lon="2.0971530">
        <ele>105.8</ele>
        <time>2022-09-26T07:00:20Z</time>
      </trkpt>
      <trkpt lat="41.5501940" lon="2.0972780">
        <ele>104.8</ele>
        <time>2022-09-26T07:00:21Z</time>
      </trkpt>
      <trkpt lat="41.5501710" lon="2.0973960">
        <ele>104.2</ele>
        <time>2022-09-26T07:00:22Z</time>
      </trkpt>
      <trkpt lat="41.5501490" lon="2.0975100">
        <ele>103.8</ele>
        <time>2022-09-26T07:00:23Z</time>
      </trkpt>
      <trkpt lat="41.5501190" lon="2.0976100">
        <ele>103.4</ele>
        <time>2022-09-26T07:00:24Z</time>
      </trkpt>
      <trkpt lat="41.5500690" lon="2.0977010">
        <ele>102.6</ele>
        <time>2022-09-26T07:00:25Z</time>
      </trkpt>
      <trkpt lat="41.5500140" lon="2.0977840">
        <ele>102.2</ele>
        <time>2022-09-26T07:00:26Z</time>
      </trkpt>
      <trkpt lat="41.5499540" lon="2.0978620">
        <ele>102.0</ele>
        <time>2022-09-26T07:00:27Z</time>
      </trkpt>
      <trkpt lat="41.5498960" lon="2.0979450">
        <ele>101.8</ele>
        <time>2022-09-26T07:00:28Z</time>
      </trkpt>
      <trkpt lat="41.5498370" lon="2.0980310">
        <ele>101.6</ele>
        <time>2022-09-26T07:00:29Z</time>
      </trkpt>
      <trkpt lat="41.5497910" lon="2.0981220">
        <ele>101.2</ele>
        <time>2022-09-26T07:00:30Z</time>
      </trkpt>
      <trkpt lat="41.5497670" lon="2.0982270">
        <ele>101.0</ele>
        <time>2022-09-26T07:00:31Z</time>
      </trkpt>
      <trkpt lat="41.5497690" lon="2.0983360">
        <ele>100.8</ele>
        <time>2022-09-26T07:00:32Z</time>
      </trkpt>
      <trkpt lat="41.5497910" lon="2.0984330">
        <ele>100.6</ele>
        <time>2022-09-26T07:00:33Z</time>
      </trkpt>
      <trkpt lat="41.5498260" lon="2.0985180">
        <ele>100.2</ele>
        <time>2022-09-26T07:00:34Z</time>
      </trkpt>
      <trkpt lat="41.5498630" lon="2.0985830">
        <ele>100.2</ele>
        <time>2022-09-26T07:00:35Z</time>
      </trkpt>
      <trkpt lat="41.5499070" lon="2.0986330">
        <ele>100.2</ele>
        <time>2022-09-26T07:00:36Z</time>
      </trkpt>
      <trkpt lat="41.5499650" lon="2.0986760">
        <ele>100.6</ele>
        <time>2022-09-26T07:00:37Z</time>
      </trkpt>
      <trkpt lat="41.5500130" lon="2.0987160">
        <ele>100.8</ele>
        <time>2022-09-26T07:00:38Z</time>
      </trkpt>
      <trkpt lat="41.5500620" lon="2.0987680">
        <ele>101.0</ele>
        <time>2022-09-26T07:00:39Z</time>
      </trkpt>
      <trkpt lat="41.5500790" lon="2.0988460">
        <ele>101.2</ele>
        <time>2022-09-26T07:00:40Z</time>
      </trkpt>
      <trkpt lat="41.5501010" lon="2.0989250">
        <ele>101.4</ele>
        <time>2022-09-26T07:00:41Z</time>
      </trkpt>
      <trkpt lat="41.5501210" lon="2.0990020">
        <ele>101.4</ele>
        <time>2022-09-26T07:00:42Z</time>
      </trkpt>
      <trkpt lat="41.5501370" lon="2.0990810">
        <ele>101.6</ele>
        <time>2022-09-26T07:00:43Z</time>
      </trkpt>
      <trkpt lat="41.5501490" lon="2.0991580">
        <ele>101.6</ele>
        <time>2022-09-26T07:00:44Z</time>
      </trkpt>
      <trkpt lat="41.5501650" lon="2.0992360">
        <ele>101.8</ele>
        <time>2022-09-26T07:00:45Z</time>
      </trkpt>
      <trkpt lat="41.5501830" lon="2.0993180">
        <ele>101.8</ele>
        <time>2022-09-26T07:00:46Z</time>
      </trkpt>
      <trkpt lat="41.5501990" lon="2.0993930">
        <ele>101.8</ele>
        <time>2022-09-26T07:00:47Z</time>
      </trkpt>
      <trkpt lat="41.5502100" lon="2.0994720">
        <ele>101.4</ele>
        <time>2022-09-26T07:00:48Z</time>
      </trkpt>
      <trkpt lat="41.5502250" lon="2.0995540">
        <ele>101.6</ele>
        <time>2022-09-26T07:00:49Z</time>
      </trkpt>
      <trkpt lat="41.5502440" lon="2.0996350">
        <ele>101.6</ele>
        <time>2022-09-26T07:00:50Z</time>
      </trkpt>
      <trkpt lat="41.5502670" lon="2.0997140">
        <ele>101.8</ele>
        <time>2022-09-26T07:00:51Z</time>
      </trkpt>
      <trkpt lat="41.5502870" lon="2.0997960">
        <ele>101.8</ele>
        <time>2022-09-26T07:00:52Z</time>
      </trkpt>
      <trkpt lat="41.5503040" lon="2.0998720">
        <ele>102.2</ele>
        <time>2022-09-26T07:00:53Z</time>
      </trkpt>
      <trkpt lat="41.5503200" lon="2.0999450">
        <ele>102.4</ele>
        <time>2022-09-26T07:00:54Z</time>
      </trkpt>
      <trkpt lat="41.5503400" lon="2.1000200">
        <ele>102.4</ele>
        <time>2022-09-26T07:00:55Z</time>
      </trkpt>
      <trkpt lat="41.5503590" lon="2.1000980">
        <ele>102.4</ele>
        <time>2022-09-26T07:00:56Z</time>
      </trkpt>
      <trkpt lat="41.5503790" lon="2.1001780">
        <ele>102.4</ele>
        <time>2022-09-26T07:00:57Z</time>
      </trkpt>
      <trkpt lat="41.5504010" lon="2.1002570">
        <ele>102.6</ele>
        <time>2022-09-26T07:00:58Z</time>
      </trkpt>
      <trkpt lat="41.5504370" lon="2.1003360">
        <ele>102.6</ele>
        <time>2022-09-26T07:00:59Z</time>
      </trkpt>
      <trkpt lat="41.5504670" lon="2.1004150">
        <ele>102.8</ele>
        <time>2022-09-26T07:01:00Z</time>
      </trkpt>
      <trkpt lat="41.5504950" lon="2.1004940">
        <ele>103.0</ele>
        <time>2022-09-26T07:01:01Z</time>
      </trkpt>
      <trkpt lat="41.5505220" lon="2.1005630">
        <ele>103.2</ele>
        <time>2022-09-26T07:01:02Z</time>
      </trkpt>
      <trkpt lat="41.5505440" lon="2.1006370">
        <ele>103.2</ele>
        <time>2022-09-26T07:01:03Z</time>
      </trkpt>
      <trkpt lat="41.5505590" lon="2.1007080">
        <ele>103.2</ele>
        <time>2022-09-26T07:01:04Z</time>
      </trkpt>
      <trkpt lat="41.5505710" lon="2.1007740">
        <ele>103.4</ele>
        <time>2022-09-26T07:01:05Z</time>
      </trkpt>
      <trkpt lat="41.5505790" lon="2.1008350">
        <ele>103.6</ele>
        <time>2022-09-26T07:01:06Z</time>
      </trkpt>
      <trkpt lat="41.5505940" lon="2.1008950">
        <ele>103.8</ele>
        <time>2022-09-26T07:01:07Z</time>
      </trkpt>
      <trkpt lat="41.5506060" lon="2.1009480">
        <ele>103.8</ele>
        <time>2022-09-26T07:01:08Z</time>
      </trkpt>
      <trkpt lat="41.5506180" lon="2.1009910">
        <ele>103.8</ele>
        <time>2022-09-26T07:01:09Z</time>
      </trkpt>
      <trkpt lat="41.5506280" lon="2.1010180">
        <ele>104.0</ele>
        <time>2022-09-26T07:01:10Z</time>
      </trkpt>
      <trkpt lat="41.5506390" lon="2.1010330">
        <ele>104.2</ele>
        <time>2022-09-26T07:01:11Z</time>
      </trkpt>
      <trkpt lat="41.5506490" lon="2.1010280">
        <ele>104.2</ele>
        <time>2022-09-26T07:01:12Z</time>
      </trkpt>
      <trkpt lat="41.5506790" lon="2.1010200">
        <ele>104.4</ele>
        <time>2022-09-26T07:01:13Z</time>
      </trkpt>
      <trkpt lat="41.5506950" lon="2.1010880">
        <ele>104.0</ele>
        <time>2022-09-26T07:01:44Z</time>
      </trkpt>
      <trkpt lat="41.5507020" lon="2.1011110">
        <ele>104.0</ele>
        <time>2022-09-26T07:01:45Z</time>
      </trkpt>
      <trkpt lat="41.5507120" lon="2.1011400">
        <ele>104.0</ele>
        <time>2022-09-26T07:01:46Z</time>
      </trkpt>
      <trkpt lat="41.5507260" lon="2.1011790">
        <ele>104.0</ele>
        <time>2022-09-26T07:01:47Z</time>
      </trkpt>
      <trkpt lat="41.5507360" lon="2.1012290">
        <ele>104.0</ele>
        <time>2022-09-26T07:01:48Z</time>
      </trkpt>
      <trkpt lat="41.5507490" lon="2.1012890">
        <ele>103.8</ele>
        <time>2022-09-26T07:01:49Z</time>
      </trkpt>
      <trkpt lat="41.5507610" lon="2.1013490">
        <ele>103.8</ele>
        <time>2022-09-26T07:01:50Z</time>
      </trkpt>
      <trkpt lat="41.5507750" lon="2.1014100">
        <ele>103.8</ele>
        <time>2022-09-26T07:01:51Z</time>
      </trkpt>
      <trkpt lat="41.5507880" lon="2.1014680">
        <ele>103.8</ele>
        <time>2022-09-26T07:01:52Z</time>
      </trkpt>
      <trkpt lat="41.5508030" lon="2.1015320">
        <ele>103.8</ele>
        <time>2022-09-26T07:01:53Z</time>
      </trkpt>
      <trkpt lat="41.5508160" lon="2.1016000">
        <ele>103.6</ele>
        <time>2022-09-26T07:01:54Z</time>
      </trkpt>
      <trkpt lat="41.5508350" lon="2.1016670">
        <ele>103.6</ele>
        <time>2022-09-26T07:01:55Z</time>
      </trkpt>
      <trkpt lat="41.5508490" lon="2.1017350">
        <ele>103.6</ele>
        <time>2022-09-26T07:01:56Z</time>
      </trkpt>
      <trkpt lat="41.5508650" lon="2.1018060">
        <ele>103.8</ele>
        <time>2022-09-26T07:01:57Z</time>
      </trkpt>
      <trkpt lat="41.5508780" lon="2.1018740">
        <ele>103.8</ele>
        <time>2022-09-26T07:01:58Z</time>
      </trkpt>
      <trkpt lat="41.5508920" lon="2.1019380">
        <ele>103.8</ele>
        <time>2022-09-26T07:01:59Z</time>
      </trkpt>
      <trkpt lat="41.5508980" lon="2.1020010">
        <ele>103.8</ele>
        <time>2022-09-26T07:02:00Z</time>
      </trkpt>
      <trkpt lat="41.5509110" lon="2.1020680">
        <ele>103.8</ele>
        <time>2022-09-26T07:02:01Z</time>
      </trkpt>
      <trkpt lat="41.5509210" lon="2.1021310">
        <ele>104.0</ele>
        <time>2022-09-26T07:02:02Z</time>
      </trkpt>
      <trkpt lat="41.5509340" lon="2.1021830">
        <ele>104.2</ele>
        <time>2022-09-26T07:02:03Z</time>
      </trkpt>
      <trkpt lat="41.5509420" lon="2.1022370">
        <ele>104.2</ele>
        <time>2022-09-26T07:02:04Z</time>
      </trkpt>
      <trkpt lat="41.5509530" lon="2.1022940">
        <ele>104.4</ele>
        <time>2022-09-26T07:02:05Z</time>
      </trkpt>
      <trkpt lat="41.5509710" lon="2.1023560">
        <ele>104.2</ele>
        <time>2022-09-26T07:02:06Z</time>
      </trkpt>
      <trkpt lat="41.5509830" lon="2.1024190">
        <ele>104.2</ele>
        <time>2022-09-26T07:02:07Z</time>
      </trkpt>
      <trkpt lat="41.5510020" lon="2.1024830">
        <ele>104.2</ele>
        <time>2022-09-26T07:02:08Z</time>
      </trkpt>
      <trkpt lat="41.5510200" lon="2.1025580">
        <ele>104.2</ele>
        <time>2022-09-26T07:02:09Z</time>
      </trkpt>
      <trkpt lat="41.5510420" lon="2.1026320">
        <ele>104.0</ele>
        <time>2022-09-26T07:02:10Z</time>
      </trkpt>
      <trkpt lat="41.5510650" lon="2.1027060">
        <ele>104.0</ele>
        <time>2022-09-26T07:02:11Z</time>
      </trkpt>
      <trkpt lat="41.5510870" lon="2.1027810">
        <ele>104.0</ele>
        <time>2022-09-26T07:02:12Z</time>
      </trkpt>
      <trkpt lat="41.5511070" lon="2.1028560">
        <ele>103.8</ele>
        <time>2022-09-26T07:02:13Z</time>
      </trkpt>
      <trkpt lat="41.5511240" lon="2.1029290">
        <ele>104.0</ele>
        <time>2022-09-26T07:02:14Z</time>
      </trkpt>
      <trkpt lat="41.5511430" lon="2.1030050">
        <ele>104.0</ele>
        <time>2022-09-26T07:02:15Z</time>
      </trkpt>
      <trkpt lat="41.5511570" lon="2.1030890">
        <ele>104.0</ele>
        <time>2022-09-26T07:02:16Z</time>
      </trkpt>
      <trkpt lat="41.5511690" lon="2.1031740">
        <ele>104.2</ele>
        <time>2022-09-26T07:02:17Z</time>
      </trkpt>
      <trkpt lat="41.5511840" lon="2.1032640">
        <ele>104.2</ele>
        <time>2022-09-26T07:02:18Z</time>
      </trkpt>
      <trkpt lat="41.5512030" lon="2.1033560">
        <ele>104.2</ele>
        <time>2022-09-26T07:02:19Z</time>
      </trkpt>
      <trkpt lat="41.5512300" lon="2.1034530">
        <ele>104.2</ele>
        <time>2022-09-26T07:02:20Z</time>
      </trkpt>
      <trkpt lat="41.5512770" lon="2.1035440">
        <ele>104.2</ele>
        <time>2022-09-26T07:02:21Z</time>
      </trkpt>
      <trkpt lat="41.5512980" lon="2.1036300">
        <ele>104.2</ele>
        <time>2022-09-26T07:02:22Z</time>
      </trkpt>
      <trkpt lat="41.5513230" lon="2.1037250">
        <ele>104.2</ele>
        <time>2022-09-26T07:02:23Z</time>
      </trkpt>
      <trkpt lat="41.5513450" lon="2.1038230">
        <ele>104.2</ele>
        <time>2022-09-26T07:02:24Z</time>
      </trkpt>
      <trkpt lat="41.5513680" lon="2.1039230">
        <ele>104.2</ele>
        <time>2022-09-26T07:02:25Z</time>
      </trkpt>
      <trkpt lat="41.5513880" lon="2.1040190">
        <ele>104.4</ele>
        <time>2022-09-26T07:02:26Z</time>
      </trkpt>
      <trkpt lat="41.5514060" lon="2.1041130">
        <ele>104.4</ele>
        <time>2022-09-26T07:02:27Z</time>
      </trkpt>
      <trkpt lat="41.5514290" lon="2.1042070">
        <ele>104.4</ele>
        <time>2022-09-26T07:02:28Z</time>
      </trkpt>
      <trkpt lat="41.5514520" lon="2.1043030">
        <ele>104.6</ele>
        <time>2022-09-26T07:02:29Z</time>
      </trkpt>
      <trkpt lat="41.5514780" lon="2.1044010">
        <ele>104.6</ele>
        <time>2022-09-26T07:02:30Z</time>
      </trkpt>
      <trkpt lat="41.5515060" lon="2.1044950">
        <ele>104.4</ele>
        <time>2022-09-26T07:02:31Z</time>
      </trkpt>
      <trkpt lat="41.5515360" lon="2.1045870">
        <ele>104.4</ele>
        <time>2022-09-26T07:02:32Z</time>
      </trkpt>
      <trkpt lat="41.5515620" lon="2.1046810">
        <ele>104.6</ele>
        <time>2022-09-26T07:02:33Z</time>
      </trkpt>
      <trkpt lat="41.5515840" lon="2.1047770">
        <ele>104.6</ele>
        <time>2022-09-26T07:02:34Z</time>
      </trkpt>
      <trkpt lat="41.5516070" lon="2.1048710">
        <ele>104.8</ele>
        <time>2022-09-26T07:02:35Z</time>
      </trkpt>
      <trkpt lat="41.5516290" lon="2.1049580">
        <ele>104.8</ele>
        <time>2022-09-26T07:02:36Z</time>
      </trkpt>
      <trkpt lat="41.5516580" lon="2.1050460">
        <ele>104.8</ele>
        <time>2022-09-26T07:02:37Z</time>
      </trkpt>
      <trkpt lat="41.5516880" lon="2.1051380">
        <ele>104.8</ele>
        <time>2022-09-26T07:02:38Z</time>
      </trkpt>
      <trkpt lat="41.5517120" lon="2.1052290">
        <ele>105.0</ele>
        <time>2022-09-26T07:02:39Z</time>
      </trkpt>
      <trkpt lat="41.5517380" lon="2.1053160">
        <ele>105.2</ele>
        <time>2022-09-26T07:02:40Z</time>
      </trkpt>
      <trkpt lat="41.5517630" lon="2.1054050">
        <ele>105.4</ele>
        <time>2022-09-26T07:02:41Z</time>
      </trkpt>
      <trkpt lat="41.5517840" lon="2.1054910">
        <ele>105.2</ele>
        <time>2022-09-26T07:02:42Z</time>
      </trkpt>
      <trkpt lat="41.5517980" lon="2.1055700">
        <ele>105.4</ele>
        <time>2022-09-26T07:02:43Z</time>
      </trkpt>
      <trkpt lat="41.5518200" lon="2.1056450">
        <ele>105.4</ele>
        <time>2022-09-26T07:02:44Z</time>
      </trkpt>
      <trkpt lat="41.5518410" lon="2.1057150">
        <ele>105.6</ele>
        <time>2022-09-26T07:02:45Z</time>
      </trkpt>
      <trkpt lat="41.5518530" lon="2.1057760">
        <ele>105.8</ele>
        <time>2022-09-26T07:02:46Z</time>
      </trkpt>
      <trkpt lat="41.5518640" lon="2.1058380">
        <ele>106.2</ele>
        <time>2022-09-26T07:02:47Z</time>
      </trkpt>
      <trkpt lat="41.5518740" lon="2.1058930">
        <ele>106.4</ele>
        <time>2022-09-26T07:02:48Z</time>
      </trkpt>
      <trkpt lat="41.5518870" lon="2.1059440">
        <ele>106.4</ele>
        <time>2022-09-26T07:02:49Z</time>
      </trkpt>
      <trkpt lat="41.5519000" lon="2.1059860">
        <ele>106.6</ele>
        <time>2022-09-26T07:02:50Z</time>
      </trkpt>
      <trkpt lat="41.5519070" lon="2.1060270">
        <ele>106.8</ele>
        <time>2022-09-26T07:02:51Z</time>
      </trkpt>
      <trkpt lat="41.5519180" lon="2.1060540">
        <ele>107.0</ele>
        <time>2022-09-26T07:02:52Z</time>
      </trkpt>
      <trkpt lat="41.5519270" lon="2.1060660">
        <ele>107.2</ele>
        <time>2022-09-26T07:02:53Z</time>
      </trkpt>
      <trkpt lat="41.5519340" lon="2.1060720">
        <ele>107.4</ele>
        <time>2022-09-26T07:02:54Z</time>
      </trkpt>
      <trkpt lat="41.5519520" lon="2.1061380">
        <ele>107.4</ele>
        <time>2022-09-26T07:03:25Z</time>
      </trkpt>
      <trkpt lat="41.5519610" lon="2.1061710">
        <ele>107.2</ele>
        <time>2022-09-26T07:03:26Z</time>
      </trkpt>
      <trkpt lat="41.5519730" lon="2.1062080">
        <ele>107.0</ele>
        <time>2022-09-26T07:03:27Z</time>
      </trkpt>
      <trkpt lat="41.5519890" lon="2.1062510">
        <ele>107.0</ele>
        <time>2022-09-26T07:03:28Z</time>
      </trkpt>
      <trkpt lat="41.5520040" lon="2.1062950">
        <ele>107.0</ele>
        <time>2022-09-26T07:03:29Z</time>
      </trkpt>
      <trkpt lat="41.5520250" lon="2.1063430">
        <ele>107.0</ele>
        <time>2022-09-26T07:03:30Z</time>
      </trkpt>
      <trkpt lat="41.5520470" lon="2.1063960">
        <ele>107.2</ele>
        <time>2022-09-26T07:03:31Z</time>
      </trkpt>
      <trkpt lat="41.5520710" lon="2.1064510">
        <ele>107.2</ele>
        <time>2022-09-26T07:03:32Z</time>
      </trkpt>
      <trkpt lat="41.5520920" lon="2.1065100">
        <ele>107.4</ele>
        <time>2022-09-26T07:03:33Z</time>
      </trkpt>
      <trkpt lat="41.5521150" lon="2.1065700">
        <ele>107.2</ele>
        <time>2022-09-26T07:03:34Z</time>
      </trkpt>
      <trkpt lat="41.5521370" lon="2.1066310">
        <ele>107.2</ele>
        <time>2022-09-26T07:03:35Z</time>
      </trkpt>
      <trkpt lat="41.5521590" lon="2.1066910">
        <ele>107.2</ele>
        <time>2022-09-26T07:03:36Z</time>
      </trkpt>
      <trkpt lat="41.5521810" lon="2.1067620">
        <ele>107.4</ele>
        <time>2022-09-26T07:03:37Z</time>
      </trkpt>
      <trkpt lat="41.5522030" lon="2.1068320">
        <ele>107.4</ele>
        <time>2022-09-26T07:03:38Z</time>
      </trkpt>
      <trkpt lat="41.5522270" lon="2.1069040">
        <ele>107.4</ele>
        <time>2022-09-26T07:03:39Z</time>
      </trkpt>
      <trkpt lat="41.5522480" lon="2.1069780">
        <ele>107.4</ele>
        <time>2022-09-26T07:03:40Z</time>
      </trkpt>
      <trkpt lat="41.5522680" lon="2.1070520">
        <ele>107.6</ele>
        <time>2022-09-26T07:03:41Z</time>
      </trkpt>
      <trkpt lat="41.5522900" lon="2.1071290">
        <ele>107.8</ele>
        <time>2022-09-26T07:03:42Z</time>
      </trkpt>
      <trkpt lat="41.5523130" lon="2.1072040">
        <ele>108.0</ele>
        <time>2022-09-26T07:03:43Z</time>
      </trkpt>
      <trkpt lat="41.5523350" lon="2.1072770">
        <ele>108.0</ele>
        <time>2022-09-26T07:03:44Z</time>
      </trkpt>
      <trkpt lat="41.5523560" lon="2.1073490">
        <ele>108.2</ele>
        <time>2022-09-26T07:03:45Z</time>
      </trkpt>
      <trkpt lat="41.5523800" lon="2.1074220">
        <ele>108.4</ele>
        <time>2022-09-26T07:03:46Z</time>
      </trkpt>
      <trkpt lat="41.5524030" lon="2.1074930">
        <ele>108.6</ele>
        <time>2022-09-26T07:03:47Z</time>
      </trkpt>
      <trkpt lat="41.5524230" lon="2.1075650">
        <ele>108.8</ele>
        <time>2022-09-26T07:03:48Z</time>
      </trkpt>
      <trkpt lat="41.5524390" lon="2.1076380">
        <ele>109.0</ele>
        <time>2022-09-26T07:03:49Z</time>
      </trkpt>
      <trkpt lat="41.5524520" lon="2.1077090">
        <ele>109.2</ele>
        <time>2022-09-26T07:03:50Z</time>
      </trkpt>
      <trkpt lat="41.5524670" lon="2.1077800">
        <ele>109.2</ele>
        <time>2022-09-26T07:03:51Z</time>
      </trkpt>
      <trkpt lat="41.5524860" lon="2.1078520">
        <ele>109.2</ele>
        <time>2022-09-26T07:03:52Z</time>
      </trkpt>
      <trkpt lat="41.5525060" lon="2.1079290">
        <ele>109.2</ele>
        <time>2022-09-26T07:03:53Z</time>
      </trkpt>
      <trkpt lat="41.5525220" lon="2.1080020">
        <ele>109.2</ele>
        <time>2022-09-26T07:03:54Z</time>
      </trkpt>
      <trkpt lat="41.5525440" lon="2.1080770">
        <ele>109.2</ele>
        <time>2022-09-26T07:03:55Z</time>
      </trkpt>
      <trkpt lat="41.5525660" lon="2.1081550">
        <ele>109.2</ele>
        <time>2022-09-26T07:03:56Z</time>
      </trkpt>
      <trkpt lat="41.5525880" lon="2.1082340">
        <ele>109.4</ele>
        <time>2022-09-26T07:03:57Z</time>
      </trkpt>
      <trkpt lat="41.5526050" lon="2.1083090">
        <ele>109.4</ele>
        <time>2022-09-26T07:03:58Z</time>
      </trkpt>
      <trkpt lat="41.5526230" lon="2.1083780">
        <ele>109.2</ele>
        <time>2022-09-26T07:03:59Z</time>
      </trkpt>
      <trkpt lat="41.5526410" lon="2.1084460">
        <ele>109.4</ele>
        <time>2022-09-26T07:04:00Z</time>
      </trkpt>
      <trkpt lat="41.5526600" lon="2.1085210">
        <ele>109.4</ele>
        <time>2022-09-26T07:04:01Z</time>
      </trkpt>
      <trkpt lat="41.5526820" lon="2.1085890">
        <ele>109.6</ele>
        <time>2022-09-26T07:04:02Z</time>
      </trkpt>
      <trkpt lat="41.5527050" lon="2.1086540">
        <ele>109.6</ele>
        <time>2022-09-26T07:04:03Z</time>
      </trkpt>
      <trkpt lat="41.5527240" lon="2.1087210">
        <ele>109.8</ele>
        <time>2022-09-26T07:04:04Z</time>
      </trkpt>
      <trkpt lat="41.5527390" lon="2.1087910">
        <ele>109.8</ele>
        <time>2022-09-26T07:04:05Z</time>
      </trkpt>
      <trkpt lat="41.5527570" lon="2.1088630">
        <ele>109.8</ele>
        <time>2022-09-26T07:04:06Z</time>
      </trkpt>
      <trkpt lat="41.5527740" lon="2.1089400">
        <ele>110.0</ele>
        <time>2022-09-26T07:04:07Z</time>
      </trkpt>
      <trkpt lat="41.5527860" lon="2.1090140">
        <ele>110.0</ele>
        <time>2022-09-26T07:04:08Z</time>
      </trkpt>
      <trkpt lat="41.5527990" lon="2.1090920">
        <ele>109.8</ele>
        <time>2022-09-26T07:04:09Z</time>
      </trkpt>
      <trkpt lat="41.5528100" lon="2.1091660">
        <ele>109.8</ele>
        <time>2022-09-26T07:04:10Z</time>
      </trkpt>
      <trkpt lat="41.5528200" lon="2.1092360">
        <ele>109.8</ele>
        <time>2022-09-26T07:04:11Z</time>
      </trkpt>
      <trkpt lat="41.5528270" lon="2.1093060">
        <ele>109.8</ele>
        <time>2022-09-26T07:04:12Z</time>
      </trkpt>
      <trkpt lat="41.5528370" lon="2.1093740">
        <ele>109.6</ele>
        <time>2022-09-26T07:04:13Z</time>
      </trkpt>
      <trkpt lat="41.5528520" lon="2.1094480">
        <ele>109.8</ele>
        <time>2022-09-26T07:04:14Z</time>
      </trkpt>
      <trkpt lat="41.5528740" lon="2.1095240">
        <ele>110.0</ele>
        <time>2022-09-26T07:04:15Z</time>
      </trkpt>
      <trkpt lat="41.5528940" lon="2.1095930">
        <ele>110.0</ele>
        <time>2022-09-26T07:04:16Z</time>
      </trkpt>
      <trkpt lat="41.5529090" lon="2.1096630">
        <ele>110.2</ele>
        <time>2022-09-26T07:04:17Z</time>
      </trkpt>
      <trkpt lat="41.5529280" lon="2.1097320">
        <ele>110.2</ele>
        <time>2022-09-26T07:04:18Z</time>
      </trkpt>
      <trkpt lat="41.5529450" lon="2.1098020">
        <ele>110.4</ele>
        <time>2022-09-26T07:04:19Z</time>
      </trkpt>
      <trkpt lat="41.5529640" lon="2.1098750">
        <ele>110.4</ele>
        <time>2022-09-26T07:04:20Z</time>
      </trkpt>
      <trkpt lat="41.5529850" lon="2.1099470">
        <ele>110.6</ele>
        <time>2022-09-26T07:04:21Z</time>
      </trkpt>
      <trkpt lat="41.5530110" lon="2.1100240">
        <ele>110.8</ele>
        <time>2022-09-26T07:04:22Z</time>
      </trkpt>
      <trkpt lat="41.5530390" lon="2.1101020">
        <ele>110.8</ele>
        <time>2022-09-26T07:04:23Z</time>
      </trkpt>
      <trkpt lat="41.5530640" lon="2.1101760">
        <ele>110.8</ele>
        <time>2022-09-26T07:04:24Z</time>
      </trkpt>
      <trkpt lat="41.5530840" lon="2.1102480">
        <ele>110.6</ele>
        <time>2022-09-26T07:04:25Z</time>
      </trkpt>
      <trkpt lat="41.5531040" lon="2.1103210">
        <ele>110.6</ele>
        <time>2022-09-26T07:04:26Z</time>
      </trkpt>
      <trkpt lat="41.5531250" lon="2.1103950">
        <ele>110.8</ele>
        <time>2022-09-26T07:04:27Z</time>
      </trkpt>
      <trkpt lat="41.5531500" lon="2.1104670">
        <ele>110.8</ele>
        <time>2022-09-26T07:04:28Z</time>
      </trkpt>
      <trkpt lat="41.5531730" lon="2.1105430">
        <ele>110.8</ele>
        <time>2022-09-26T07:04:29Z</time>
      </trkpt>
      <trkpt lat="41.5531950" lon="2.1106120">
        <ele>110.8</ele>
        <time>2022-09-26T07:04:30Z</time>
      </trkpt>
      <trkpt lat="41.5532170" lon="2.1106750">
        <ele>110.8</ele>
        <time>2022-09-26T07:04:31Z</time>
      </trkpt>
      <trkpt lat="41.5532430" lon="2.1107370">
        <ele>111.0</ele>
        <time>2022-09-26T07:04:32Z</time>
      </trkpt>
      <trkpt lat="41.5532710" lon="2.1107950">
        <ele>111.0</ele>
        <time>2022-09-26T07:04:33Z</time>
      </trkpt>
      <trkpt lat="41.5532930" lon="2.1108550">
        <ele>111.2</ele>
        <time>2022-09-26T07:04:34Z</time>
      </trkpt>
      <trkpt lat="41.5533200" lon="2.1109120">
        <ele>111.2</ele>
        <time>2022-09-26T07:04:35Z</time>
      </trkpt>
      <trkpt lat="41.5533380" lon="2.1109570">
        <ele>111.2</ele>
        <time>2022-09-26T07:04:36Z</time>
      </trkpt>
      <trkpt lat="41.5533520" lon="2.1109900">
        <ele>111.2</ele>
        <time>2022-09-26T07:04:37Z</time>
      </trkpt>
      <trkpt lat="41.5533580" lon="2.1110120">
        <ele>111.4</ele>
        <time>2022-09-26T07:04:38Z</time>
      </trkpt>
      <trkpt lat="41.5533680" lon="2.1110250">
        <ele>111.4</ele>
        <time>2022-09-26T07:04:39Z</time>
      </trkpt>
      <trkpt lat="41.5533740" lon="2.1110310">
        <ele>111.4</ele>
        <time>2022-09-26T07:04:40Z</time>
      </trkpt>
      <trkpt lat="41.5533790" lon="2.1110320">
        <ele>111.6</ele>
        <time>2022-09-26T07:04:41Z</time>
      </trkpt>
      <trkpt lat="41.5534000" lon="2.1110870">
        <ele>111.8</ele>
        <time>2022-09-26T07:04:45Z</time>
      </trkpt>
      <trkpt lat="41.5534080" lon="2.1111180">
        <ele>111.8</ele>
        <time>2022-09-26T07:04:46Z</time>
      </trkpt>
      <trkpt lat="41.5534160" lon="2.1111500">
        <ele>111.6</ele>
        <time>2022-09-26T07:04:47Z</time>
      </trkpt>
      <trkpt lat="41.5534260" lon="2.1111850">
        <ele>111.6</ele>
        <time>2022-09-26T07:04:48Z</time>
      </trkpt>
      <trkpt lat="41.5534400" lon="2.1112290">
        <ele>111.6</ele>
        <time>2022-09-26T07:04:49Z</time>
      </trkpt>
      <trkpt lat="41.5534510" lon="2.1112760">
        <ele>111.6</ele>
        <time>2022-09-26T07:04:50Z</time>
      </trkpt>
      <trkpt lat="41.5534600" lon="2.1113150">
        <ele>111.6</ele>
        <time>2022-09-26T07:04:51Z</time>
      </trkpt>
      <trkpt lat="41.5534680" lon="2.1113480">
        <ele>111.8</ele>
        <time>2022-09-26T07:04:52Z</time>
      </trkpt>
      <trkpt lat="41.5534730" lon="2.1113720">
        <ele>111.8</ele>
        <time>2022-09-26T07:04:53Z</time>
      </trkpt>
      <trkpt lat="41.5534770" lon="2.1113880">
        <ele>111.8</ele>
        <time>2022-09-26T07:04:54Z</time>
      </trkpt>
      <trkpt lat="41.5534780" lon="2.1113980">
        <ele>111.6</ele>
        <time>2022-09-26T07:04:55Z</time>
      </trkpt>
      <trkpt lat="41.5534750" lon="2.1114050">
        <ele>111.8</ele>
        <time>2022-09-26T07:04:56Z</time>
      </trkpt>
      <trkpt lat="41.5534740" lon="2.1114090">
        <ele>111.8</ele>
        <time>2022-09-26T07:04:57Z</time>
      </trkpt>
      <trkpt lat="41.5534740" lon="2.1114150">
        <ele>111.8</ele>
        <time>2022-09-26T07:04:58Z</time>
      </trkpt>
      <trkpt lat="41.5534890" lon="2.1114850">
        <ele>112.0</ele>
        <time>2022-09-26T07:05:04Z</time>
      </trkpt>
      <trkpt lat="41.5534940" lon="2.1115220">
        <ele>111.8</ele>
        <time>2022-09-26T07:05:05Z</time>
      </trkpt>
      <trkpt lat="41.5535010" lon="2.1115630">
        <ele>111.8</ele>
        <time>2022-09-26T07:05:06Z</time>
      </trkpt>
      <trkpt lat="41.5535040" lon="2.1115960">
        <ele>111.6</ele>
        <time>2022-09-26T07:05:07Z</time>
      </trkpt>
      <trkpt lat="41.5535130" lon="2.1116310">
        <ele>111.6</ele>
        <time>2022-09-26T07:05:08Z</time>
      </trkpt>
      <trkpt lat="41.5535280" lon="2.1116680">
        <ele>111.6</ele>
        <time>2022-09-26T07:05:09Z</time>
      </trkpt>
      <trkpt lat="41.5535380" lon="2.1116990">
        <ele>111.4</ele>
        <time>2022-09-26T07:05:10Z</time>
      </trkpt>
      <trkpt lat="41.5535440" lon="2.1117270">
        <ele>111.4</ele>
        <time>2022-09-26T07:05:11Z</time>
      </trkpt>
      <trkpt lat="41.5535490" lon="2.1117540">
        <ele>111.2</ele>
        <time>2022-09-26T07:05:12Z</time>
      </trkpt>
      <trkpt lat="41.5535550" lon="2.1117870">
        <ele>111.2</ele>
        <time>2022-09-26T07:05:13Z</time>
      </trkpt>
      <trkpt lat="41.5535580" lon="2.1118190">
        <ele>111.2</ele>
        <time>2022-09-26T07:05:14Z</time>
      </trkpt>
      <trkpt lat="41.5535630" lon="2.1118510">
        <ele>111.2</ele>
        <time>2022-09-26T07:05:15Z</time>
      </trkpt>
      <trkpt lat="41.5535690" lon="2.1118840">
        <ele>111.0</ele>
        <time>2022-09-26T07:05:16Z</time>
      </trkpt>
      <trkpt lat="41.5535710" lon="2.1119070">
        <ele>111.0</ele>
        <time>2022-09-26T07:05:17Z</time>
      </trkpt>
      <trkpt lat="41.5535790" lon="2.1119320">
        <ele>111.0</ele>
        <time>2022-09-26T07:05:18Z</time>
      </trkpt>
      <trkpt lat="41.5535830" lon="2.1119560">
        <ele>111.0</ele>
        <time>2022-09-26T07:05:19Z</time>
      </trkpt>
      <trkpt lat="41.5535880" lon="2.1119780">
        <ele>111.0</ele>
        <time>2022-09-26T07:05:20Z</time>
      </trkpt>
      <trkpt lat="41.5535970" lon="2.1119840">
        <ele>111.0</ele>
        <time>2022-09-26T07:05:21Z</time>
      </trkpt>
      <trkpt lat="41.5536070" lon="2.1119900">
        <ele>111.0</ele>
        <time>2022-09-26T07:05:22Z</time>
      </trkpt>
      <trkpt lat="41.5536330" lon="2.1120490">
        <ele>110.6</ele>
        <time>2022-09-26T07:06:12Z</time>
      </trkpt>
      <trkpt lat="41.5536380" lon="2.1120810">
        <ele>110.6</ele>
        <time>2022-09-26T07:06:13Z</time>
      </trkpt>
      <trkpt lat="41.5536390" lon="2.1121240">
        <ele>110.6</ele>
        <time>2022-09-26T07:06:14Z</time>
      </trkpt>
      <trkpt lat="41.5536470" lon="2.1121810">
        <ele>110.4</ele>
        <time>2022-09-26T07:06:15Z</time>
      </trkpt>
      <trkpt lat="41.5536540" lon="2.1122450">
        <ele>110.4</ele>
        <time>2022-09-26T07:06:16Z</time>
      </trkpt>
      <trkpt lat="41.5536650" lon="2.1123160">
        <ele>110.4</ele>
        <time>2022-09-26T07:06:17Z</time>
      </trkpt>
      <trkpt lat="41.5536820" lon="2.1123820">
        <ele>110.4</ele>
        <time>2022-09-26T07:06:18Z</time>
      </trkpt>
      <trkpt lat="41.5536990" lon="2.1124370">
        <ele>110.0</ele>
        <time>2022-09-26T07:06:19Z</time>
      </trkpt>
      <trkpt lat="41.5537220" lon="2.1124860">
        <ele>110.0</ele>
        <time>2022-09-26T07:06:20Z</time>
      </trkpt>
      <trkpt lat="41.5537560" lon="2.1125330">
        <ele>110.0</ele>
        <time>2022-09-26T07:06:21Z</time>
      </trkpt>
      <trkpt lat="41.5537870" lon="2.1125900">
        <ele>109.8</ele>
        <time>2022-09-26T07:06:22Z</time>
      </trkpt>
      <trkpt lat="41.5538110" lon="2.1126600">
        <ele>109.8</ele>
        <time>2022-09-26T07:06:23Z</time>
      </trkpt>
      <trkpt lat="41.5538290" lon="2.1127320">
        <ele>109.6</ele>
        <time>2022-09-26T07:06:24Z</time>
      </trkpt>
      <trkpt lat="41.5538450" lon="2.1127980">
        <ele>109.2</ele>
        <time>2022-09-26T07:06:25Z</time>
      </trkpt>
      <trkpt lat="41.5538580" lon="2.1128480">
        <ele>108.8</ele>
        <time>2022-09-26T07:06:26Z</time>
      </trkpt>
      <trkpt lat="41.5538630" lon="2.1128850">
        <ele>108.4</ele>
        <time>2022-09-26T07:06:27Z</time>
      </trkpt>
      <trkpt lat="41.5538670" lon="2.1129080">
        <ele>108.0</ele>
        <time>2022-09-26T07:06:28Z</time>
      </trkpt>
      <trkpt lat="41.5538710" lon="2.1129210">
        <ele>107.8</ele>
        <time>2022-09-26T07:06:29Z</time>
      </trkpt>
      <trkpt lat="41.5538760" lon="2.1129280">
        <ele>107.8</ele>
        <time>2022-09-26T07:06:30Z</time>
      </trkpt>
      <trkpt lat="41.5538800" lon="2.1129330">
        <ele>107.8</ele>
        <time>2022-09-26T07:06:31Z</time>
      </trkpt>
      <trkpt lat="41.5538870" lon="2.1129490">
        <ele>107.8</ele>
        <time>2022-09-26T07:06:32Z</time>
      </trkpt>
      <trkpt lat="41.5538960" lon="2.1129730">
        <ele>107.8</ele>
        <time>2022-09-26T07:06:33Z</time>
      </trkpt>
      <trkpt lat="41.5539070" lon="2.1130120">
        <ele>107.6</ele>
        <time>2022-09-26T07:06:34Z</time>
      </trkpt>
      <trkpt lat="41.5539220" lon="2.1130530">
        <ele>107.6</ele>
        <time>2022-09-26T07:06:35Z</time>
      </trkpt>
      <trkpt lat="41.5539350" lon="2.1131030">
        <ele>107.4</ele>
        <time>2022-09-26T07:06:36Z</time>
      </trkpt>
      <trkpt lat="41.5539500" lon="2.1131520">
        <ele>107.0</ele>
        <time>2022-09-26T07:06:37Z</time>
      </trkpt>
      <trkpt lat="41.5539670" lon="2.1132040">
        <ele>106.6</ele>
        <time>2022-09-26T07:06:38Z</time>
      </trkpt>
      <trkpt lat="41.5539830" lon="2.1132610">
        <ele>106.2</ele>
        <time>2022-09-26T07:06:39Z</time>
      </trkpt>
      <trkpt lat="41.5539990" lon="2.1133210">
        <ele>106.0</ele>
        <time>2022-09-26T07:06:40Z</time>
      </trkpt>
      <trkpt lat="41.5540160" lon="2.1133840">
        <ele>105.8</ele>
        <time>2022-09-26T07:06:41Z</time>
      </trkpt>
      <trkpt lat="41.5540330" lon="2.1134500">
        <ele>105.6</ele>
        <time>2022-09-26T07:06:42Z</time>
      </trkpt>
      <trkpt lat="41.5540480" lon="2.1135230">
        <ele>105.4</ele>
        <time>2022-09-26T07:06:43Z</time>
      </trkpt>
      <trkpt lat="41.5540610" lon="2.1136070">
        <ele>105.0</ele>
        <time>2022-09-26T07:06:44Z</time>
      </trkpt>
      <trkpt lat="41.5540830" lon="2.1136970">
        <ele>104.2</ele>
        <time>2022-09-26T07:06:45Z</time>
      </trkpt>
      <trkpt lat="41.5541140" lon="2.1137900">
        <ele>103.6</ele>
        <time>2022-09-26T07:06:46Z</time>
      </trkpt>
      <trkpt lat="41.5541510" lon="2.1138810">
        <ele>103.0</ele>
        <time>2022-09-26T07:06:47Z</time>
      </trkpt>
      <trkpt lat="41.5541790" lon="2.1139810">
        <ele>101.8</ele>
        <time>2022-09-26T07:06:48Z</time>
      </trkpt>
      <trkpt lat="41.5541850" lon="2.1140890">
        <ele>101.0</ele>
        <time>2022-09-26T07:06:49Z</time>
      </trkpt>
      <trkpt lat="41.5541670" lon="2.1141920">
        <ele>100.4</ele>
        <time>2022-09-26T07:06:50Z</time>
      </trkpt>
      <trkpt lat="41.5541250" lon="2.1142840">
        <ele>99.2</ele>
        <time>2022-09-26T07:06:51Z</time>
      </trkpt>
      <trkpt lat="41.5540740" lon="2.1143750">
        <ele>98.6</ele>
        <time>2022-09-26T07:06:52Z</time>
      </trkpt>
      <trkpt lat="41.5540140" lon="2.1144650">
        <ele>97.8</ele>
        <time>2022-09-26T07:06:53Z</time>
      </trkpt>
      <trkpt lat="41.5539500" lon="2.1145500">
        <ele>97.2</ele>
        <time>2022-09-26T07:06:54Z</time>
      </trkpt>
      <trkpt lat="41.5538820" lon="2.1146320">
        <ele>96.8</ele>
        <time>2022-09-26T07:06:55Z</time>
      </trkpt>
      <trkpt lat="41.5538150" lon="2.1147180">
        <ele>96.6</ele>
        <time>2022-09-26T07:06:56Z</time>
      </trkpt>
      <trkpt lat="41.5537440" lon="2.1148040">
        <ele>96.4</ele>
        <time>2022-09-26T07:06:57Z</time>
      </trkpt>
      <trkpt lat="41.5536730" lon="2.1148930">
        <ele>95.8</ele>
        <time>2022-09-26T07:06:58Z</time>
      </trkpt>
      <trkpt lat="41.5536000" lon="2.1149840">
        <ele>94.8</ele>
        <time>2022-09-26T07:06:59Z</time>
      </trkpt>
      <trkpt lat="41.5535290" lon="2.1150750">
        <ele>94.2</ele>
        <time>2022-09-26T07:07:00Z</time>
      </trkpt>
      <trkpt lat="41.5534590" lon="2.1151620">
        <ele>93.6</ele>
        <time>2022-09-26T07:07:01Z</time>
      </trkpt>
      <trkpt lat="41.5533920" lon="2.1152480">
        <ele>93.2</ele>
        <time>2022-09-26T07:07:02Z</time>
      </trkpt>
      <trkpt lat="41.5533310" lon="2.1153300">
        <ele>92.8</ele>
        <time>2022-09-26T07:07:03Z</time>
      </trkpt>
      <trkpt lat="41.5532760" lon="2.1154150">
        <ele>92.4</ele>
        <time>2022-09-26T07:07:04Z</time>
      </trkpt>
      <trkpt lat="41.5532310" lon="2.1155050">
        <ele>92.0</ele>
        <time>2022-09-26T07:07:05Z</time>
      </trkpt>
      <trkpt lat="41.5532070" lon="2.1156040">
        <ele>91.6</ele>
        <time>2022-09-26T07:07:06Z</time>
      </trkpt>
      <trkpt lat="41.5532080" lon="2.1157020">
        <ele>91.0</ele>
        <time>2022-09-26T07:07:07Z</time>
      </trkpt>
      <trkpt lat="41.5532340" lon="2.1157930">
        <ele>90.6</ele>
        <time>2022-09-26T07:07:08Z</time>
      </trkpt>
      <trkpt lat="41.5532800" lon="2.1158750">
        <ele>90.0</ele>
        <time>2022-09-26T07:07:09Z</time>
      </trkpt>
      <trkpt lat="41.5533440" lon="2.1159350">
        <ele>89.6</ele>
        <time>2022-09-26T07:07:10Z</time>
      </trkpt>
      <trkpt lat="41.5534210" lon="2.1159620">
        <ele>89.2</ele>
        <time>2022-09-26T07:07:11Z</time>
      </trkpt>
      <trkpt lat="41.5535010" lon="2.1159540">
        <ele>88.8</ele>
        <time>2022-09-26T07:07:12Z</time>
      </trkpt>
      <trkpt lat="41.5535760" lon="2.1159140">
        <ele>88.2</ele>
        <time>2022-09-26T07:07:13Z</time>
      </trkpt>
      <trkpt lat="41.5536410" lon="2.1158470">
        <ele>87.4</ele>
        <time>2022-09-26T07:07:14Z</time>
      </trkpt>
      <trkpt lat="41.5537020" lon="2.1157630">
        <ele>87.0</ele>
        <time>2022-09-26T07:07:15Z</time>
      </trkpt>
      <trkpt lat="41.5537640" lon="2.1156780">
        <ele>86.6</ele>
        <time>2022-09-26T07:07:16Z</time>
      </trkpt>
      <trkpt lat="41.5538270" lon="2.1155910">
        <ele>85.8</ele>
        <time>2022-09-26T07:07:17Z</time>
      </trkpt>
      <trkpt lat="41.5538900" lon="2.1155060">
        <ele>85.4</ele>
        <time>2022-09-26T07:07:18Z</time>
      </trkpt>
      <trkpt lat="41.5539560" lon="2.1154280">
        <ele>84.6</ele>
        <time>2022-09-26T07:07:19Z</time>
      </trkpt>
      <trkpt lat="41.5540260" lon="2.1153680">
        <ele>84.0</ele>
        <time>2022-09-26T07:07:20Z</time>
      </trkpt>
      <trkpt lat="41.5540960" lon="2.1153250">
        <ele>83.6</ele>
        <time>2022-09-26T07:07:21Z</time>
      </trkpt>
      <trkpt lat="41.5541640" lon="2.1152990">
        <ele>82.6</ele>
        <time>2022-09-26T07:07:22Z</time>
      </trkpt>
      <trkpt lat="41.5542310" lon="2.1152910">
        <ele>82.2</ele>
        <time>2022-09-26T07:07:23Z</time>
      </trkpt>
      <trkpt lat="41.5542970" lon="2.1152980">
        <ele>81.4</ele>
        <time>2022-09-26T07:07:24Z</time>
      </trkpt>
      <trkpt lat="41.5543610" lon="2.1153130">
        <ele>81.2</ele>
        <time>2022-09-26T07:07:25Z</time>
      </trkpt>
      <trkpt lat="41.5544260" lon="2.1153370">
        <ele>80.6</ele>
        <time>2022-09-26T07:07:26Z</time>
      </trkpt>
      <trkpt lat="41.5544920" lon="2.1153690">
        <ele>80.4</ele>
        <time>2022-09-26T07:07:27Z</time>
      </trkpt>
      <trkpt lat="41.5545520" lon="2.1154150">
        <ele>79.8</ele>
        <time>2022-09-26T07:07:28Z</time>
      </trkpt>
      <trkpt lat="41.5546160" lon="2.1154670">
        <ele>79.0</ele>
        <time>2022-09-26T07:07:29Z</time>
      </trkpt>
      <trkpt lat="41.5546830" lon="2.1155230">
        <ele>78.6</ele>
        <time>2022-09-26T07:07:30Z</time>
      </trkpt>
      <trkpt lat="41.5547530" lon="2.1155820">
        <ele>77.8</ele>
        <time>2022-09-26T07:07:31Z</time>
      </trkpt>
      <trkpt lat="41.5548240" lon="2.1156410">
        <ele>77.2</ele>
        <time>2022-09-26T07:07:32Z</time>
      </trkpt>
      <trkpt lat="41.5549000" lon="2.1157000">
        <ele>76.8</ele>
        <time>2022-09-26T07:07:33Z</time>
      </trkpt>
      <trkpt lat="41.5549760" lon="2.1157610">
        <ele>76.4</ele>
        <time>2022-09-26T07:07:34Z</time>
      </trkpt>
      <trkpt lat="41.5550540" lon="2.1158240">
        <ele>76.0</ele>
        <time>2022-09-26T07:07:35Z</time>
      </trkpt>
      <trkpt lat="41.5551310" lon="2.1158910">
        <ele>75.4</ele>
        <time>2022-09-26T07:07:36Z</time>
      </trkpt>
      <trkpt lat="41.5552050" lon="2.1159520">
        <ele>75.0</ele>
        <time>2022-09-26T07:07:37Z</time>
      </trkpt>
      <trkpt lat="41.5552780" lon="2.1159990">
        <ele>74.2</ele>
        <time>2022-09-26T07:07:38Z</time>
      </trkpt>
      <trkpt lat="41.5553360" lon="2.1160280">
        <ele>73.6</ele>
        <time>2022-09-26T07:07:39Z</time>
      </trkpt>
      <trkpt lat="41.5553820" lon="2.1160250">
        <ele>73.2</ele>
        <time>2022-09-26T07:07:40Z</time>
      </trkpt>
      <trkpt lat="41.5554210" lon="2.1159920">
        <ele>72.8</ele>
        <time>2022-09-26T07:07:41Z</time>
      </trkpt>
      <trkpt lat="41.5554480" lon="2.1159400">
        <ele>72.6</ele>
        <time>2022-09-26T07:07:42Z</time>
      </trkpt>
      <trkpt lat="41.5554700" lon="2.1158830">
        <ele>72.4</ele>
        <time>2022-09-26T07:07:43Z</time>
      </trkpt>
      <trkpt lat="41.5554950" lon="2.1158330">
        <ele>72.4</ele>
        <time>2022-09-26T07:07:44Z</time>
      </trkpt>
      <trkpt lat="41.5555260" lon="2.1157660">
        <ele>72.4</ele>
        <time>2022-09-26T07:07:45Z</time>
      </trkpt>
      <trkpt lat="41.5555630" lon="2.1157070">
        <ele>72.2</ele>
        <time>2022-09-26T07:07:46Z</time>
      </trkpt>
      <trkpt lat="41.5556040" lon="2.1156610">
        <ele>72.2</ele>
        <time>2022-09-26T07:07:47Z</time>
      </trkpt>
      <trkpt lat="41.5556560" lon="2.1156250">
        <ele>72.0</ele>
        <time>2022-09-26T07:07:48Z</time>
      </trkpt>
      <trkpt lat="41.5557150" lon="2.1156000">
        <ele>71.6</ele>
        <time>2022-09-26T07:07:49Z</time>
      </trkpt>
      <trkpt lat="41.5557820" lon="2.1155940">
        <ele>71.0</ele>
        <time>2022-09-26T07:07:50Z</time>
      </trkpt>
      <trkpt lat="41.5558600" lon="2.1156050">
        <ele>70.2</ele>
        <time>2022-09-26T07:07:51Z</time>
      </trkpt>
      <trkpt lat="41.5559370" lon="2.1156270">
        <ele>69.2</ele>
        <time>2022-09-26T07:07:52Z</time>
      </trkpt>
      <trkpt lat="41.5560180" lon="2.1156590">
        <ele>68.4</ele>
        <time>2022-09-26T07:07:53Z</time>
      </trkpt>
      <trkpt lat="41.5560980" lon="2.1157060">
        <ele>67.4</ele>
        <time>2022-09-26T07:07:54Z</time>
      </trkpt>
      <trkpt lat="41.5561720" lon="2.1157630">
        <ele>66.4</ele>
        <time>2022-09-26T07:07:55Z</time>
      </trkpt>
      <trkpt lat="41.5562390" lon="2.1158050">
        <ele>65.4</ele>
        <time>2022-09-26T07:07:56Z</time>
      </trkpt>
      <trkpt lat="41.5563110" lon="2.1158340">
        <ele>63.6</ele>
        <time>2022-09-26T07:07:57Z</time>
      </trkpt>
      <trkpt lat="41.5563790" lon="2.1158450">
        <ele>62.6</ele>
        <time>2022-09-26T07:07:58Z</time>
      </trkpt>
      <trkpt lat="41.5564400" lon="2.1158600">
        <ele>61.8</ele>
        <time>2022-09-26T07:07:59Z</time>
      </trkpt>
      <trkpt lat="41.5564900" lon="2.1158830">
        <ele>60.8</ele>
        <time>2022-09-26T07:08:00Z</time>
      </trkpt>
      <trkpt lat="41.5565270" lon="2.1159200">
        <ele>60.2</ele>
        <time>2022-09-26T07:08:01Z</time>
      </trkpt>
      <trkpt lat="41.5565500" lon="2.1159680">
        <ele>59.0</ele>
        <time>2022-09-26T07:08:02Z</time>
      </trkpt>
      <trkpt lat="41.5565620" lon="2.1160220">
        <ele>58.2</ele>
        <time>2022-09-26T07:08:03Z</time>
      </trkpt>
      <trkpt lat="41.5565630" lon="2.1160790">
        <ele>57.4</ele>
        <time>2022-09-26T07:08:04Z</time>
      </trkpt>
      <trkpt lat="41.5565530" lon="2.1161330">
        <ele>56.4</ele>
        <time>2022-09-26T07:08:05Z</time>
      </trkpt>
      <trkpt lat="41.5565360" lon="2.1161840">
        <ele>56.2</ele>
        <time>2022-09-26T07:08:06Z</time>
      </trkpt>
      <trkpt lat="41.5565110" lon="2.1162330">
        <ele>56.0</ele>
        <time>2022-09-26T07:08:07Z</time>
      </trkpt>
      <trkpt lat="41.5564840" lon="2.1162810">
        <ele>55.8</ele>
        <time>2022-09-26T07:08:08Z</time>
      </trkpt>
      <trkpt lat="41.5564550" lon="2.1163280">
        <ele>55.6</ele>
        <time>2022-09-26T07:08:09Z</time>
      </trkpt>
      <trkpt lat="41.5564260" lon="2.1163790">
        <ele>55.4</ele>
        <time>2022-09-26T07:08:10Z</time>
      </trkpt>
      <trkpt lat="41.5563990" lon="2.1164290">
        <ele>55.2</ele>
        <time>2022-09-26T07:08:11Z</time>
      </trkpt>
      <trkpt lat="41.5563740" lon="2.1164740">
        <ele>55.0</ele>
        <time>2022-09-26T07:08:12Z</time>
      </trkpt>
      <trkpt lat="41.5563560" lon="2.1165110">
        <ele>55.0</ele>
        <time>2022-09-26T07:08:13Z</time>
      </trkpt>
      <trkpt lat="41.5563450" lon="2.1165350">
        <ele>55.0</ele>
        <time>2022-09-26T07:08:14Z</time>
      </trkpt>
      <trkpt lat="41.5563410" lon="2.1165420">
        <ele>55.2</ele>
        <time>2022-09-26T07:08:15Z</time>
      </trkpt>
      <trkpt lat="41.5563400" lon="2.1165430">
        <ele>55.4</ele>
        <time>2022-09-26T07:08:16Z</time>
      </trkpt>
      <trkpt lat="41.5563570" lon="2.1165570">
        <ele>55.0</ele>
        <time>2022-09-26T07:09:16Z</time>
      </trkpt>
      <trkpt lat="41.5563710" lon="2.1165360">
        <ele>55.0</ele>
        <time>2022-09-26T07:09:17Z</time>
      </trkpt>
      <trkpt lat="41.5563920" lon="2.1165040">
        <ele>54.6</ele>
        <time>2022-09-26T07:09:18Z</time>
      </trkpt>
      <trkpt lat="41.5564230" lon="2.1164610">
        <ele>54.6</ele>
        <time>2022-09-26T07:09:19Z</time>
      </trkpt>
      <trkpt lat="41.5564530" lon="2.1164180">
        <ele>54.4</ele>
        <time>2022-09-26T07:09:20Z</time>
      </trkpt>
      <trkpt lat="41.5564870" lon="2.1163790">
        <ele>54.0</ele>
        <time>2022-09-26T07:09:21Z</time>
      </trkpt>
      <trkpt lat="41.5565210" lon="2.1163380">
        <ele>53.8</ele>
        <time>2022-09-26T07:09:22Z</time>
      </trkpt>
      <trkpt lat="41.5565540" lon="2.1162920">
        <ele>53.8</ele>
        <time>2022-09-26T07:09:23Z</time>
      </trkpt>
      <trkpt lat="41.5565910" lon="2.1162440">
        <ele>53.6</ele>
        <time>2022-09-26T07:09:24Z</time>
      </trkpt>
      <trkpt lat="41.5566340" lon="2.1161930">
        <ele>53.2</ele>
        <time>2022-09-26T07:09:25Z</time>
      </trkpt>
      <trkpt lat="41.5566800" lon="2.1161360">
        <ele>53.0</ele>
        <time>2022-09-26T07:09:26Z</time>
      </trkpt>
      <trkpt lat="41.5567230" lon="2.1160790">
        <ele>52.6</ele>
        <time>2022-09-26T07:09:27Z</time>
      </trkpt>
      <trkpt lat="41.5567660" lon="2.1160170">
        <ele>52.4</ele>
        <time>2022-09-26T07:09:28Z</time>
      </trkpt>
      <trkpt lat="41.5568060" lon="2.1159510">
        <ele>52.2</ele>
        <time>2022-09-26T07:09:29Z</time>
      </trkpt>
      <trkpt lat="41.5568400" lon="2.1158900">
        <ele>52.0</ele>
        <time>2022-09-26T07:09:30Z</time>
      </trkpt>
      <trkpt lat="41.5568720" lon="2.1158370">
        <ele>51.8</ele>
        <time>2022-09-26T07:09:31Z</time>
      </trkpt>
      <trkpt lat="41.5569030" lon="2.1158030">
        <ele>51.6</ele>
        <time>2022-09-26T07:09:32Z</time>
      </trkpt>
      <trkpt lat="41.5569370" lon="2.1157950">
        <ele>51.6</ele>
        <time>2022-09-26T07:09:33Z</time>
      </trkpt>
      <trkpt lat="41.5569750" lon="2.1158090">
        <ele>51.6</ele>
        <time>2022-09-26T07:09:34Z</time>
      </trkpt>
      <trkpt lat="41.5570130" lon="2.1158310">
        <ele>51.4</ele>
        <time>2022-09-26T07:09:35Z</time>
      </trkpt>
      <trkpt lat="41.5570520" lon="2.1158560">
        <ele>51.4</ele>
        <time>2022-09-26T07:09:36Z</time>
      </trkpt>
      <trkpt lat="41.5570900" lon="2.1158800">
        <ele>51.4</ele>
        <time>2022-09-26T07:09:37Z</time>
      </trkpt>
      <trkpt lat="41.5571220" lon="2.1159020">
        <ele>51.6</ele>
        <time>2022-09-26T07:09:38Z</time>
      </trkpt>
      <trkpt lat="41.5571520" lon="2.1159200">
        <ele>51.8</ele>
        <time>2022-09-26T07:09:39Z</time>
      </trkpt>
      <trkpt lat="41.5571780" lon="2.1159340">
        <ele>52.0</ele>
        <time>2022-09-26T07:09:40Z</time>
      </trkpt>
      <trkpt lat="41.5572020" lon="2.1159470">
        <ele>52.0</ele>
        <time>2022-09-26T07:09:41Z</time>
      </trkpt>
      <trkpt lat="41.5572260" lon="2.1159610">
        <ele>52.2</ele>
        <time>2022-09-26T07:09:42Z</time>
      </trkpt>
      <trkpt lat="41.5572490" lon="2.1159750">
        <ele>52.2</ele>
        <time>2022-09-26T07:09:43Z</time>
      </trkpt>
      <trkpt lat="41.5572710" lon="2.1159890">
        <ele>52.4</ele>
        <time>2022-09-26T07:09:44Z</time>
      </trkpt>
      <trkpt lat="41.5572920" lon="2.1159980">
        <ele>52.6</ele>
        <time>2022-09-26T07:09:45Z</time>
      </trkpt>
      <trkpt lat="41.5573100" lon="2.1159990">
        <ele>52.6</ele>
        <time>2022-09-26T07:09:46Z</time>
      </trkpt>
      <trkpt lat="41.5573240" lon="2.1159870">
        <ele>52.8</ele>
        <time>2022-09-26T07:09:47Z</time>
      </trkpt>
      <trkpt lat="41.5573360" lon="2.1159600">
        <ele>52.8</ele>
        <time>2022-09-26T07:09:48Z</time>
      </trkpt>
      <trkpt lat="41.5573430" lon="2.1159270">
        <ele>53.0</ele>
        <time>2022-09-26T07:09:49Z</time>
      </trkpt>
      <trkpt lat="41.5573500" lon="2.1158920">
        <ele>53.4</ele>
        <time>2022-09-26T07:09:50Z</time>
      </trkpt>
      <trkpt lat="41.5573600" lon="2.1158590">
        <ele>53.4</ele>
        <time>2022-09-26T07:09:51Z</time>
      </trkpt>
      <trkpt lat="41.5573720" lon="2.1158290">
        <ele>53.4</ele>
        <time>2022-09-26T07:09:52Z</time>
      </trkpt>
      <trkpt lat="41.5573810" lon="2.1157970">
        <ele>53.8</ele>
        <time>2022-09-26T07:09:53Z</time>
      </trkpt>
      <trkpt lat="41.5573910" lon="2.1157660">
        <ele>54.0</ele>
        <time>2022-09-26T07:09:54Z</time>
      </trkpt>
      <trkpt lat="41.5574030" lon="2.1157340">
        <ele>54.2</ele>
        <time>2022-09-26T07:09:55Z</time>
      </trkpt>
      <trkpt lat="41.5574140" lon="2.1156960">
        <ele>54.4</ele>
        <time>2022-09-26T07:09:56Z</time>
      </trkpt>
      <trkpt lat="41.5574270" lon="2.1156570">
        <ele>54.6</ele>
        <time>2022-09-26T07:09:57Z</time>
      </trkpt>
      <trkpt lat="41.5574410" lon="2.1156150">
        <ele>54.8</ele>
        <time>2022-09-26T07:09:58Z</time>
      </trkpt>
      <trkpt lat="41.5574560" lon="2.1155750">
        <ele>54.8</ele>
        <time>2022-09-26T07:09:59Z</time>
      </trkpt>
      <trkpt lat="41.5574690" lon="2.1155380">
        <ele>54.8</ele>
        <time>2022-09-26T07:10:00Z</time>
      </trkpt>
      <trkpt lat="41.5574810" lon="2.1155030">
        <ele>54.8</ele>
        <time>2022-09-26T07:10:01Z</time>
      </trkpt>
      <trkpt lat="41.5574970" lon="2.1154710">
        <ele>54.8</ele>
        <time>2022-09-26T07:10:02Z</time>
      </trkpt>
      <trkpt lat="41.5575130" lon="2.1154380">
        <ele>55.0</ele>
        <time>2022-09-26T07:10:03Z</time>
      </trkpt>
      <trkpt lat="41.5575330" lon="2.1154030">
        <ele>55.0</ele>
        <time>2022-09-26T07:10:04Z</time>
      </trkpt>
      <trkpt lat="41.5575540" lon="2.1153660">
        <ele>55.0</ele>
        <time>2022-09-26T07:10:05Z</time>
      </trkpt>
      <trkpt lat="41.5575730" lon="2.1153270">
        <ele>55.0</ele>
        <time>2022-09-26T07:10:06Z</time>
      </trkpt>
      <trkpt lat="41.5575910" lon="2.1152890">
        <ele>55.2</ele>
        <time>2022-09-26T07:10:07Z</time>
      </trkpt>
      <trkpt lat="41.5576110" lon="2.1152520">
        <ele>55.2</ele>
        <time>2022-09-26T07:10:08Z</time>
      </trkpt>
      <trkpt lat="41.5576300" lon="2.1152190">
        <ele>55.2</ele>
        <time>2022-09-26T07:10:09Z</time>
      </trkpt>
      <trkpt lat="41.5576510" lon="2.1151850">
        <ele>55.4</ele>
        <time>2022-09-26T07:10:10Z</time>
      </trkpt>
      <trkpt lat="41.5576720" lon="2.1151510">
        <ele>55.4</ele>
        <time>2022-09-26T07:10:11Z</time>
      </trkpt>
      <trkpt lat="41.5576950" lon="2.1151160">
        <ele>55.4</ele>
        <time>2022-09-26T07:10:12Z</time>
      </trkpt>
      <trkpt lat="41.5577160" lon="2.1150820">
        <ele>55.4</ele>
        <time>2022-09-26T07:10:13Z</time>
      </trkpt>
      <trkpt lat="41.5577380" lon="2.1150510">
        <ele>55.4</ele>
        <time>2022-09-26T07:10:14Z</time>
      </trkpt>
      <trkpt lat="41.5577600" lon="2.1150190">
        <ele>55.4</ele>
        <time>2022-09-26T07:10:15Z</time>
      </trkpt>
      <trkpt lat="41.5577820" lon="2.1149870">
        <ele>55.2</ele>
        <time>2022-09-26T07:10:16Z</time>
      </trkpt>
      <trkpt lat="41.5578010" lon="2.1149580">
        <ele>55.4</ele>
        <time>2022-09-26T07:10:17Z</time>
      </trkpt>
      <trkpt lat="41.5578200" lon="2.1149290">
        <ele>55.4</ele>
        <time>2022-09-26T07:10:18Z</time>
      </trkpt>
      <trkpt lat="41.5578430" lon="2.1148980">
        <ele>55.6</ele>
        <time>2022-09-26T07:10:19Z</time>
      </trkpt>
      <trkpt lat="41.5578650" lon="2.1148700">
        <ele>55.6</ele>
        <time>2022-09-26T07:10:20Z</time>
      </trkpt>
      <trkpt lat="41.5578850" lon="2.1148410">
        <ele>55.8</ele>
        <time>2022-09-26T07:10:21Z</time>
      </trkpt>
      <trkpt lat="41.5579070" lon="2.1148130">
        <ele>55.6</ele>
        <time>2022-09-26T07:10:22Z</time>
      </trkpt>
      <trkpt lat="41.5579310" lon="2.1147850">
        <ele>55.6</ele>
        <time>2022-09-26T07:10:23Z</time>
      </trkpt>
      <trkpt lat="41.5579610" lon="2.1147570">
        <ele>55.6</ele>
        <time>2022-09-26T07:10:24Z</time>
      </trkpt>
      <trkpt lat="41.5579880" lon="2.1147250">
        <ele>55.6</ele>
        <time>2022-09-26T07:10:25Z</time>
      </trkpt>
      <trkpt lat="41.5580150" lon="2.1146870">
        <ele>55.8</ele>
        <time>2022-09-26T07:10:26Z</time>
      </trkpt>
      <trkpt lat="41.5580460" lon="2.1146550">
        <ele>55.8</ele>
        <time>2022-09-26T07:10:27Z</time>
      </trkpt>
      <trkpt lat="41.5580760" lon="2.1146240">
        <ele>55.8</ele>
        <time>2022-09-26T07:10:28Z</time>
      </trkpt>
      <trkpt lat="41.5581100" lon="2.1145800">
        <ele>55.8</ele>
        <time>2022-09-26T07:10:29Z</time>
      </trkpt>
      <trkpt lat="41.5581420" lon="2.1145460">
        <ele>56.0</ele>
        <time>2022-09-26T07:10:30Z</time>
      </trkpt>
      <trkpt lat="41.5581760" lon="2.1145160">
        <ele>55.8</ele>
        <time>2022-09-26T07:10:31Z</time>
      </trkpt>
      <trkpt lat="41.5582110" lon="2.1144870">
        <ele>56.0</ele>
        <time>2022-09-26T07:10:32Z</time>
      </trkpt>
      <trkpt lat="41.5582400" lon="2.1144510">
        <ele>56.0</ele>
        <time>2022-09-26T07:10:33Z</time>
      </trkpt>
      <trkpt lat="41.5582730" lon="2.1144160">
        <ele>56.2</ele>
        <time>2022-09-26T07:10:34Z</time>
      </trkpt>
      <trkpt lat="41.5583060" lon="2.1143900">
        <ele>56.2</ele>
        <time>2022-09-26T07:10:35Z</time>
      </trkpt>
      <trkpt lat="41.5583390" lon="2.1143580">
        <ele>56.4</ele>
        <time>2022-09-26T07:10:36Z</time>
      </trkpt>
      <trkpt lat="41.5583710" lon="2.1143260">
        <ele>56.4</ele>
        <time>2022-09-26T07:10:37Z</time>
      </trkpt>
      <trkpt lat="41.5584020" lon="2.1142900">
        <ele>56.4</ele>
        <time>2022-09-26T07:10:38Z</time>
      </trkpt>
      <trkpt lat="41.5584330" lon="2.1142560">
        <ele>56.6</ele>
        <time>2022-09-26T07:10:39Z</time>
      </trkpt>
      <trkpt lat="41.5584690" lon="2.1142270">
        <ele>56.4</ele>
        <time>2022-09-26T07:10:40Z</time>
      </trkpt>
      <trkpt lat="41.5585050" lon="2.1141950">
        <ele>56.2</ele>
        <time>2022-09-26T07:10:41Z</time>
      </trkpt>
      <trkpt lat="41.5585400" lon="2.1141660">
        <ele>56.2</ele>
        <time>2022-09-26T07:10:42Z</time>
      </trkpt>
      <trkpt lat="41.5585740" lon="2.1141380">
        <ele>56.4</ele>
        <time>2022-09-26T07:10:43Z</time>
      </trkpt>
      <trkpt lat="41.5586070" lon="2.1141060">
        <ele>56.4</ele>
        <time>2022-09-26T07:10:44Z</time>
      </trkpt>
      <trkpt lat="41.5586420" lon="2.1140750">
        <ele>56.4</ele>
        <time>2022-09-26T07:10:45Z</time>
      </trkpt>
      <trkpt lat="41.5586750" lon="2.1140480">
        <ele>56.4</ele>
        <time>2022-09-26T07:10:46Z</time>
      </trkpt>
      <trkpt lat="41.5587120" lon="2.1140240">
        <ele>56.4</ele>
        <time>2022-09-26T07:10:47Z</time>
      </trkpt>
      <trkpt lat="41.5587500" lon="2.1140010">
        <ele>56.6</ele>
        <time>2022-09-26T07:10:48Z</time>
      </trkpt>
      <trkpt lat="41.5587930" lon="2.1139840">
        <ele>56.6</ele>
        <time>2022-09-26T07:10:49Z</time>
      </trkpt>
      <trkpt lat="41.5588330" lon="2.1139690">
        <ele>56.6</ele>
        <time>2022-09-26T07:10:50Z</time>
      </trkpt>
      <trkpt lat="41.5588670" lon="2.1139520">
        <ele>56.6</ele>
        <time>2022-09-26T07:10:51Z</time>
      </trkpt>
      <trkpt lat="41.5588980" lon="2.1139350">
        <ele>56.6</ele>
        <time>2022-09-26T07:10:52Z</time>
      </trkpt>
      <trkpt lat="41.5589330" lon="2.1139240">
        <ele>56.6</ele>
        <time>2022-09-26T07:10:53Z</time>
      </trkpt>
      <trkpt lat="41.5589700" lon="2.1139150">
        <ele>56.8</ele>
        <time>2022-09-26T07:10:54Z</time>
      </trkpt>
      <trkpt lat="41.5590070" lon="2.1139070">
        <ele>56.8</ele>
        <time>2022-09-26T07:10:55Z</time>
      </trkpt>
      <trkpt lat="41.5590500" lon="2.1139020">
        <ele>56.8</ele>
        <time>2022-09-26T07:10:56Z</time>
      </trkpt>
      <trkpt lat="41.5590980" lon="2.1138870">
        <ele>56.8</ele>
        <time>2022-09-26T07:10:57Z</time>
      </trkpt>
      <trkpt lat="41.5591390" lon="2.1138680">
        <ele>56.8</ele>
        <time>2022-09-26T07:10:58Z</time>
      </trkpt>
      <trkpt lat="41.5591840" lon="2.1138560">
        <ele>56.8</ele>
        <time>2022-09-26T07:10:59Z</time>
      </trkpt>
      <trkpt lat="41.5592250" lon="2.1138430">
        <ele>56.8</ele>
        <time>2022-09-26T07:11:00Z</time>
      </trkpt>
      <trkpt lat="41.5592690" lon="2.1138310">
        <ele>57.0</ele>
        <time>2022-09-26T07:11:01Z</time>
      </trkpt>
      <trkpt lat="41.5593100" lon="2.1138120">
        <ele>57.0</ele>
        <time>2022-09-26T07:11:02Z</time>
      </trkpt>
      <trkpt lat="41.5593500" lon="2.1137960">
        <ele>57.0</ele>
        <time>2022-09-26T07:11:03Z</time>
      </trkpt>
      <trkpt lat="41.5593900" lon="2.1137780">
        <ele>57.0</ele>
        <time>2022-09-26T07:11:04Z</time>
      </trkpt>
      <trkpt lat="41.5594360" lon="2.1137610">
        <ele>57.2</ele>
        <time>2022-09-26T07:11:05Z</time>
      </trkpt>
      <trkpt lat="41.5594820" lon="2.1137470">
        <ele>57.0</ele>
        <time>2022-09-26T07:11:06Z</time>
      </trkpt>
      <trkpt lat="41.5595240" lon="2.1137350">
        <ele>57.0</ele>
        <time>2022-09-26T07:11:07Z</time>
      </trkpt>
      <trkpt lat="41.5595630" lon="2.1137240">
        <ele>57.0</ele>
        <time>2022-09-26T07:11:08Z</time>
      </trkpt>
      <trkpt lat="41.5595990" lon="2.1137070">
        <ele>57.2</ele>
        <time>2022-09-26T07:11:09Z</time>
      </trkpt>
      <trkpt lat="41.5596320" lon="2.1136920">
        <ele>57.2</ele>
        <time>2022-09-26T07:11:10Z</time>
      </trkpt>
      <trkpt lat="41.5596660" lon="2.1136870">
        <ele>57.2</ele>
        <time>2022-09-26T07:11:11Z</time>
      </trkpt>
      <trkpt lat="41.5597040" lon="2.1136860">
        <ele>57.4</ele>
        <time>2022-09-26T07:11:12Z</time>
      </trkpt>
      <trkpt lat="41.5597480" lon="2.1136850">
        <ele>57.4</ele>
        <time>2022-09-26T07:11:13Z</time>
      </trkpt>
      <trkpt lat="41.5597850" lon="2.1136690">
        <ele>57.4</ele>
        <time>2022-09-26T07:11:14Z</time>
      </trkpt>
      <trkpt lat="41.5598250" lon="2.1136450">
        <ele>57.6</ele>
        <time>2022-09-26T07:11:15Z</time>
      </trkpt>
      <trkpt lat="41.5598650" lon="2.1136140">
        <ele>57.6</ele>
        <time>2022-09-26T07:11:16Z</time>
      </trkpt>
      <trkpt lat="41.5599050" lon="2.1135800">
        <ele>57.6</ele>
        <time>2022-09-26T07:11:17Z</time>
      </trkpt>
      <trkpt lat="41.5599450" lon="2.1135570">
        <ele>57.6</ele>
        <time>2022-09-26T07:11:18Z</time>
      </trkpt>
      <trkpt lat="41.5599830" lon="2.1135490">
        <ele>57.4</ele>
        <time>2022-09-26T07:11:19Z</time>
      </trkpt>
      <trkpt lat="41.5600160" lon="2.1135230">
        <ele>57.6</ele>
        <time>2022-09-26T07:11:20Z</time>
      </trkpt>
      <trkpt lat="41.5600480" lon="2.1134930">
        <ele>57.6</ele>
        <time>2022-09-26T07:11:21Z</time>
      </trkpt>
      <trkpt lat="41.5600830" lon="2.1134620">
        <ele>57.6</ele>
        <time>2022-09-26T07:11:22Z</time>
      </trkpt>
      <trkpt lat="41.5601160" lon="2.1134310">
        <ele>57.6</ele>
        <time>2022-09-26T07:11:23Z</time>
      </trkpt>
      <trkpt lat="41.5601500" lon="2.1133990">
        <ele>57.6</ele>
        <time>2022-09-26T07:11:24Z</time>
      </trkpt>
      <trkpt lat="41.5601840" lon="2.1133620">
        <ele>57.6</ele>
        <time>2022-09-26T07:11:25Z</time>
      </trkpt>
      <trkpt lat="41.5602140" lon="2.1133120">
        <ele>57.8</ele>
        <time>2022-09-26T07:11:26Z</time>
      </trkpt>
      <trkpt lat="41.5602400" lon="2.1132570">
        <ele>57.8</ele>
        <time>2022-09-26T07:11:27Z</time>
      </trkpt>
      <trkpt lat="41.5602650" lon="2.1132080">
        <ele>58.0</ele>
        <time>2022-09-26T07:11:28Z</time>
      </trkpt>
      <trkpt lat="41.5602900" lon="2.1131540">
        <ele>58.0</ele>
        <time>2022-09-26T07:11:29Z</time>
      </trkpt>
      <trkpt lat="41.5603060" lon="2.1131090">
        <ele>58.0</ele>
        <time>2022-09-26T07:11:30Z</time>
      </trkpt>
      <trkpt lat="41.5603190" lon="2.1130660">
        <ele>58.2</ele>
        <time>2022-09-26T07:11:31Z</time>
      </trkpt>
      <trkpt lat="41.5603340" lon="2.1130230">
        <ele>58.2</ele>
        <time>2022-09-26T07:11:32Z</time>
      </trkpt>
      <trkpt lat="41.5603490" lon="2.1129590">
        <ele>58.0</ele>
        <time>2022-09-26T07:11:33Z</time>
      </trkpt>
      <trkpt lat="41.5603580" lon="2.1129020">
        <ele>58.2</ele>
        <time>2022-09-26T07:11:34Z</time>
      </trkpt>
      <trkpt lat="41.5603680" lon="2.1128550">
        <ele>58.2</ele>
        <time>2022-09-26T07:11:35Z</time>
      </trkpt>
      <trkpt lat="41.5603750" lon="2.1128080">
        <ele>58.2</ele>
        <time>2022-09-26T07:11:36Z</time>
      </trkpt>
      <trkpt lat="41.5603780" lon="2.1127590">
        <ele>58.2</ele>
        <time>2022-09-26T07:11:37Z</time>
      </trkpt>
      <trkpt lat="41.5603820" lon="2.1127080">
        <ele>58.2</ele>
        <time>2022-09-26T07:11:38Z</time>
      </trkpt>
      <trkpt lat="41.5603800" lon="2.1126590">
        <ele>58.4</ele>
        <time>2022-09-26T07:11:39Z</time>
      </trkpt>
      <trkpt lat="41.5603840" lon="2.1126030">
        <ele>58.4</ele>
        <time>2022-09-26T07:11:40Z</time>
      </trkpt>
      <trkpt lat="41.5603840" lon="2.1125510">
        <ele>58.4</ele>
        <time>2022-09-26T07:11:41Z</time>
      </trkpt>
      <trkpt lat="41.5603870" lon="2.1124990">
        <ele>58.4</ele>
        <time>2022-09-26T07:11:42Z</time>
      </trkpt>
      <trkpt lat="41.5603870" lon="2.1124420">
        <ele>58.6</ele>
        <time>2022-09-26T07:11:43Z</time>
      </trkpt>
      <trkpt lat="41.5603810" lon="2.1123900">
        <ele>58.6</ele>
        <time>2022-09-26T07:11:44Z</time>
      </trkpt>
      <trkpt lat="41.5603720" lon="2.1123320">
        <ele>58.8</ele>
        <time>2022-09-26T07:11:45Z</time>
      </trkpt>
      <trkpt lat="41.5603690" lon="2.1122510">
        <ele>58.8</ele>
        <time>2022-09-26T07:11:46Z</time>
      </trkpt>
      <trkpt lat="41.5603640" lon="2.1121720">
        <ele>58.8</ele>
        <time>2022-09-26T07:11:47Z</time>
      </trkpt>
      <trkpt lat="41.5603520" lon="2.1121120">
        <ele>59.0</ele>
        <time>2022-09-26T07:11:48Z</time>
      </trkpt>
      <trkpt lat="41.5603380" lon="2.1120560">
        <ele>59.0</ele>
        <time>2022-09-26T07:11:49Z</time>
      </trkpt>
      <trkpt lat="41.5603190" lon="2.1120020">
        <ele>59.0</ele>
        <time>2022-09-26T07:11:50Z</time>
      </trkpt>
      <trkpt lat="41.5603000" lon="2.1119530">
        <ele>59.0</ele>
        <time>2022-09-26T07:11:51Z</time>
      </trkpt>
      <trkpt lat="41.5602840" lon="2.1119100">
        <ele>59.0</ele>
        <time>2022-09-26T07:11:52Z</time>
      </trkpt>
      <trkpt lat="41.5602690" lon="2.1118640">
        <ele>59.0</ele>
        <time>2022-09-26T07:11:53Z</time>
      </trkpt>
      <trkpt lat="41.5602520" lon="2.1118200">
        <ele>59.2</ele>
        <time>2022-09-26T07:11:54Z</time>
      </trkpt>
      <trkpt lat="41.5602310" lon="2.1117780">
        <ele>59.2</ele>
        <time>2022-09-26T07:11:55Z</time>
      </trkpt>
      <trkpt lat="41.5602110" lon="2.1117370">
        <ele>59.2</ele>
        <time>2022-09-26T07:11:56Z</time>
      </trkpt>
      <trkpt lat="41.5601920" lon="2.1116910">
        <ele>59.2</ele>
        <time>2022-09-26T07:11:57Z</time>
      </trkpt>
      <trkpt lat="41.5601650" lon="2.1116470">
        <ele>59.4</ele>
        <time>2022-09-26T07:11:58Z</time>
      </trkpt>
      <trkpt lat="41.5601330" lon="2.1116040">
        <ele>59.4</ele>
        <time>2022-09-26T07:11:59Z</time>
      </trkpt>
      <trkpt lat="41.5601060" lon="2.1115570">
        <ele>59.6</ele>
        <time>2022-09-26T07:12:00Z</time>
      </trkpt>
      <trkpt lat="41.5600790" lon="2.1115160">
        <ele>59.6</ele>
        <time>2022-09-26T07:12:01Z</time>
      </trkpt>
      <trkpt lat="41.5600510" lon="2.1114790">
        <ele>59.6</ele>
        <time>2022-09-26T07:12:02Z</time>
      </trkpt>
      <trkpt lat="41.5600240" lon="2.1114390">
        <ele>59.8</ele>
        <time>2022-09-26T07:12:03Z</time>
      </trkpt>
      <trkpt lat="41.5600010" lon="2.1113950">
        <ele>59.8</ele>
        <time>2022-09-26T07:12:04Z</time>
      </trkpt>
      <trkpt lat="41.5599780" lon="2.1113530">
        <ele>59.8</ele>
        <time>2022-09-26T07:12:05Z</time>
      </trkpt>
      <trkpt lat="41.5599530" lon="2.1113150">
        <ele>59.8</ele>
        <time>2022-09-26T07:12:06Z</time>
      </trkpt>
      <trkpt lat="41.5599310" lon="2.1112760">
        <ele>60.0</ele>
        <time>2022-09-26T07:12:07Z</time>
      </trkpt>
      <trkpt lat="41.5599050" lon="2.1112330">
        <ele>60.0</ele>
        <time>2022-09-26T07:12:08Z</time>
      </trkpt>
      <trkpt lat="41.5598770" lon="2.1111890">
        <ele>60.2</ele>
        <time>2022-09-26T07:12:09Z</time>
      </trkpt>
      <trkpt lat="41.5598500" lon="2.1111440">
        <ele>60.2</ele>
        <time>2022-09-26T07:12:10Z</time>
      </trkpt>
      <trkpt lat="41.5598260" lon="2.1110980">
        <ele>60.2</ele>
        <time>2022-09-26T07:12:11Z</time>
      </trkpt>
      <trkpt lat="41.5598030" lon="2.1110510">
        <ele>60.4</ele>
        <time>2022-09-26T07:12:12Z</time>
      </trkpt>
      <trkpt lat="41.5597770" lon="2.1109990">
        <ele>60.4</ele>
        <time>2022-09-26T07:12:13Z</time>
      </trkpt>
      <trkpt lat="41.5597510" lon="2.1109510">
        <ele>60.4</ele>
        <time>2022-09-26T07:12:14Z</time>
      </trkpt>
      <trkpt lat="41.5597240" lon="2.1109060">
        <ele>60.4</ele>
        <time>2022-09-26T07:12:15Z</time>
      </trkpt>
      <trkpt lat="41.5596990" lon="2.1108630">
        <ele>60.6</ele>
        <time>2022-09-26T07:12:16Z</time>
      </trkpt>
      <trkpt lat="41.5596760" lon="2.1108210">
        <ele>60.6</ele>
        <time>2022-09-26T07:12:17Z</time>
      </trkpt>
      <trkpt lat="41.5596530" lon="2.1107740">
        <ele>60.6</ele>
        <time>2022-09-26T07:12:18Z</time>
      </trkpt>
      <trkpt lat="41.5596320" lon="2.1107280">
        <ele>60.8</ele>
        <time>2022-09-26T07:12:19Z</time>
      </trkpt>
      <trkpt lat="41.5596120" lon="2.1106830">
        <ele>60.8</ele>
        <time>2022-09-26T07:12:20Z</time>
      </trkpt>
      <trkpt lat="41.5595920" lon="2.1106350">
        <ele>60.6</ele>
        <time>2022-09-26T07:12:21Z</time>
      </trkpt>
      <trkpt lat="41.5595700" lon="2.1105860">
        <ele>60.6</ele>
        <time>2022-09-26T07:12:22Z</time>
      </trkpt>
      <trkpt lat="41.5595510" lon="2.1105380">
        <ele>60.6</ele>
        <time>2022-09-26T07:12:23Z</time>
      </trkpt>
      <trkpt lat="41.5595320" lon="2.1104880">
        <ele>60.6</ele>
        <time>2022-09-26T07:12:24Z</time>
      </trkpt>
      <trkpt lat="41.5595150" lon="2.1104360">
        <ele>60.8</ele>
        <time>2022-09-26T07:12:25Z</time>
      </trkpt>
      <trkpt lat="41.5595020" lon="2.1103860">
        <ele>61.0</ele>
        <time>2022-09-26T07:12:26Z</time>
      </trkpt>
      <trkpt lat="41.5594900" lon="2.1103370">
        <ele>61.0</ele>
        <time>2022-09-26T07:12:27Z</time>
      </trkpt>
      <trkpt lat="41.5594770" lon="2.1102860">
        <ele>61.0</ele>
        <time>2022-09-26T07:12:28Z</time>
      </trkpt>
      <trkpt lat="41.5594630" lon="2.1102360">
        <ele>61.2</ele>
        <time>2022-09-26T07:12:29Z</time>
      </trkpt>
      <trkpt lat="41.5594500" lon="2.1101870">
        <ele>61.2</ele>
        <time>2022-09-26T07:12:30Z</time>
      </trkpt>
      <trkpt lat="41.5594370" lon="2.1101360">
        <ele>61.4</ele>
        <time>2022-09-26T07:12:31Z</time>
      </trkpt>
      <trkpt lat="41.5594230" lon="2.1100830">
        <ele>61.4</ele>
        <time>2022-09-26T07:12:32Z</time>
      </trkpt>
      <trkpt lat="41.5594110" lon="2.1100310">
        <ele>61.4</ele>
        <time>2022-09-26T07:12:33Z</time>
      </trkpt>
      <trkpt lat="41.5594010" lon="2.1099770">
        <ele>61.4</ele>
        <time>2022-09-26T07:12:34Z</time>
      </trkpt>
      <trkpt lat="41.5593940" lon="2.1099220">
        <ele>61.4</ele>
        <time>2022-09-26T07:12:35Z</time>
      </trkpt>
      <trkpt lat="41.5593890" lon="2.1098650">
        <ele>61.4</ele>
        <time>2022-09-26T07:12:36Z</time>
      </trkpt>
      <trkpt lat="41.5593870" lon="2.1098080">
        <ele>61.4</ele>
        <time>2022-09-26T07:12:37Z</time>
      </trkpt>
      <trkpt lat="41.5593860" lon="2.1097550">
        <ele>61.4</ele>
        <time>2022-09-26T07:12:38Z</time>
      </trkpt>
      <trkpt lat="41.5593870" lon="2.1097000">
        <ele>61.4</ele>
        <time>2022-09-26T07:12:39Z</time>
      </trkpt>
      <trkpt lat="41.5593870" lon="2.1096460">
        <ele>61.6</ele>
        <time>2022-09-26T07:12:40Z</time>
      </trkpt>
      <trkpt lat="41.5593900" lon="2.1095930">
        <ele>61.6</ele>
        <time>2022-09-26T07:12:41Z</time>
      </trkpt>
      <trkpt lat="41.5593980" lon="2.1095440">
        <ele>61.6</ele>
        <time>2022-09-26T07:12:42Z</time>
      </trkpt>
      <trkpt lat="41.5594070" lon="2.1094980">
        <ele>61.6</ele>
        <time>2022-09-26T07:12:43Z</time>
      </trkpt>
      <trkpt lat="41.5594220" lon="2.1094550">
        <ele>61.6</ele>
        <time>2022-09-26T07:12:44Z</time>
      </trkpt>
      <trkpt lat="41.5594390" lon="2.1094170">
        <ele>61.8</ele>
        <time>2022-09-26T07:12:45Z</time>
      </trkpt>
      <trkpt lat="41.5594580" lon="2.1093760">
        <ele>61.8</ele>
        <time>2022-09-26T07:12:46Z</time>
      </trkpt>
      <trkpt lat="41.5594760" lon="2.1093310">
        <ele>61.8</ele>
        <time>2022-09-26T07:12:47Z</time>
      </trkpt>
      <trkpt lat="41.5594970" lon="2.1092880">
        <ele>61.8</ele>
        <time>2022-09-26T07:12:48Z</time>
      </trkpt>
      <trkpt lat="41.5595180" lon="2.1092470">
        <ele>61.8</ele>
        <time>2022-09-26T07:12:49Z</time>
      </trkpt>
      <trkpt lat="41.5595370" lon="2.1092060">
        <ele>62.0</ele>
        <time>2022-09-26T07:12:50Z</time>
      </trkpt>
      <trkpt lat="41.5595570" lon="2.1091600">
        <ele>62.0</ele>
        <time>2022-09-26T07:12:51Z</time>
      </trkpt>
      <trkpt lat="41.5595820" lon="2.1091200">
        <ele>62.0</ele>
        <time>2022-09-26T07:12:52Z</time>
      </trkpt>
      <trkpt lat="41.5596080" lon="2.1090780">
        <ele>62.0</ele>
        <time>2022-09-26T07:12:53Z</time>
      </trkpt>
      <trkpt lat="41.5596360" lon="2.1090400">
        <ele>61.8</ele>
        <time>2022-09-26T07:12:54Z</time>
      </trkpt>
      <trkpt lat="41.5596640" lon="2.1090010">
        <ele>62.0</ele>
        <time>2022-09-26T07:12:55Z</time>
      </trkpt>
      <trkpt lat="41.5596930" lon="2.1089680">
        <ele>62.0</ele>
        <time>2022-09-26T07:12:56Z</time>
      </trkpt>
      <trkpt lat="41.5597280" lon="2.1089420">
        <ele>62.0</ele>
        <time>2022-09-26T07:12:57Z</time>
      </trkpt>
      <trkpt lat="41.5597650" lon="2.1089190">
        <ele>62.2</ele>
        <time>2022-09-26T07:12:58Z</time>
      </trkpt>
      <trkpt lat="41.5598030" lon="2.1088990">
        <ele>62.2</ele>
        <time>2022-09-26T07:12:59Z</time>
      </trkpt>
      <trkpt lat="41.5598360" lon="2.1088850">
        <ele>62.4</ele>
        <time>2022-09-26T07:13:00Z</time>
      </trkpt>
      <trkpt lat="41.5598720" lon="2.1088690">
        <ele>62.4</ele>
        <time>2022-09-26T07:13:01Z</time>
      </trkpt>
      <trkpt lat="41.5599100" lon="2.1088530">
        <ele>62.4</ele>
        <time>2022-09-26T07:13:02Z</time>
      </trkpt>
      <trkpt lat="41.5599440" lon="2.1088460">
        <ele>62.4</ele>
        <time>2022-09-26T07:13:03Z</time>
      </trkpt>
      <trkpt lat="41.5599810" lon="2.1088370">
        <ele>62.4</ele>
        <time>2022-09-26T07:13:04Z</time>
      </trkpt>
      <trkpt lat="41.5600180" lon="2.1088310">
        <ele>62.6</ele>
        <time>2022-09-26T07:13:05Z</time>
      </trkpt>
      <trkpt lat="41.5600550" lon="2.1088280">
        <ele>62.6</ele>
        <time>2022-09-26T07:13:06Z</time>
      </trkpt>
      <trkpt lat="41.5600940" lon="2.1088250">
        <ele>62.6</ele>
        <time>2022-09-26T07:13:07Z</time>
      </trkpt>
      <trkpt lat="41.5601320" lon="2.1088230">
        <ele>62.6</ele>
        <time>2022-09-26T07:13:08Z</time>
      </trkpt>
      <trkpt lat="41.5601690" lon="2.1088290">
        <ele>62.6</ele>
        <time>2022-09-26T07:13:09Z</time>
      </trkpt>
      <trkpt lat="41.5602040" lon="2.1088380">
        <ele>62.6</ele>
        <time>2022-09-26T07:13:10Z</time>
      </trkpt>
      <trkpt lat="41.5602410" lon="2.1088450">
        <ele>62.8</ele>
        <time>2022-09-26T07:13:11Z</time>
      </trkpt>
      <trkpt lat="41.5602800" lon="2.1088500">
        <ele>62.8</ele>
        <time>2022-09-26T07:13:12Z</time>
      </trkpt>
      <trkpt lat="41.5603190" lon="2.1088540">
        <ele>63.0</ele>
        <time>2022-09-26T07:13:13Z</time>
      </trkpt>
      <trkpt lat="41.5603610" lon="2.1088600">
        <ele>63.2</ele>
        <time>2022-09-26T07:13:14Z</time>
      </trkpt>
      <trkpt lat="41.5604040" lon="2.1088660">
        <ele>63.2</ele>
        <time>2022-09-26T07:13:15Z</time>
      </trkpt>
      <trkpt lat="41.5604470" lon="2.1088710">
        <ele>63.2</ele>
        <time>2022-09-26T07:13:16Z</time>
      </trkpt>
      <trkpt lat="41.5604900" lon="2.1088770">
        <ele>63.2</ele>
        <time>2022-09-26T07:13:17Z</time>
      </trkpt>
      <trkpt lat="41.5605340" lon="2.1088850">
        <ele>63.2</ele>
        <time>2022-09-26T07:13:18Z</time>
      </trkpt>
      <trkpt lat="41.5605770" lon="2.1088940">
        <ele>63.2</ele>
        <time>2022-09-26T07:13:19Z</time>
      </trkpt>
      <trkpt lat="41.5606180" lon="2.1089040">
        <ele>63.0</ele>
        <time>2022-09-26T07:13:20Z</time>
      </trkpt>
      <trkpt lat="41.5606590" lon="2.1089190">
        <ele>63.0</ele>
        <time>2022-09-26T07:13:21Z</time>
      </trkpt>
      <trkpt lat="41.5606990" lon="2.1089340">
        <ele>63.0</ele>
        <time>2022-09-26T07:13:22Z</time>
      </trkpt>
      <trkpt lat="41.5607420" lon="2.1089470">
        <ele>63.0</ele>
        <time>2022-09-26T07:13:23Z</time>
      </trkpt>
      <trkpt lat="41.5607830" lon="2.1089610">
        <ele>63.0</ele>
        <time>2022-09-26T07:13:24Z</time>
      </trkpt>
      <trkpt lat="41.5608200" lon="2.1089780">
        <ele>62.8</ele>
        <time>2022-09-26T07:13:25Z</time>
      </trkpt>
      <trkpt lat="41.5608550" lon="2.1089940">
        <ele>62.8</ele>
        <time>2022-09-26T07:13:26Z</time>
      </trkpt>
      <trkpt lat="41.5608860" lon="2.1090140">
        <ele>62.8</ele>
        <time>2022-09-26T07:13:27Z</time>
      </trkpt>
      <trkpt lat="41.5609150" lon="2.1090190">
        <ele>62.8</ele>
        <time>2022-09-26T07:13:28Z</time>
      </trkpt>
      <trkpt lat="41.5609490" lon="2.1090290">
        <ele>62.6</ele>
        <time>2022-09-26T07:13:29Z</time>
      </trkpt>
      <trkpt lat="41.5609810" lon="2.1090400">
        <ele>62.6</ele>
        <time>2022-09-26T07:13:30Z</time>
      </trkpt>
      <trkpt lat="41.5610110" lon="2.1090550">
        <ele>62.6</ele>
        <time>2022-09-26T07:13:31Z</time>
      </trkpt>
      <trkpt lat="41.5610430" lon="2.1090730">
        <ele>62.6</ele>
        <time>2022-09-26T07:13:32Z</time>
      </trkpt>
      <trkpt lat="41.5610780" lon="2.1090940">
        <ele>62.6</ele>
        <time>2022-09-26T07:13:33Z</time>
      </trkpt>
      <trkpt lat="41.5611070" lon="2.1091170">
        <ele>62.6</ele>
        <time>2022-09-26T07:13:34Z</time>
      </trkpt>
      <trkpt lat="41.5611380" lon="2.1091310">
        <ele>62.6</ele>
        <time>2022-09-26T07:13:35Z</time>
      </trkpt>
      <trkpt lat="41.5611720" lon="2.1091370">
        <ele>62.6</ele>
        <time>2022-09-26T07:13:36Z</time>
      </trkpt>
      <trkpt lat="41.5612060" lon="2.1091460">
        <ele>62.6</ele>
        <time>2022-09-26T07:13:37Z</time>
      </trkpt>
      <trkpt lat="41.5612410" lon="2.1091580">
        <ele>62.8</ele>
        <time>2022-09-26T07:13:38Z</time>
      </trkpt>
      <trkpt lat="41.5612740" lon="2.1091640">
        <ele>62.8</ele>
        <time>2022-09-26T07:13:39Z</time>
      </trkpt>
      <trkpt lat="41.5613070" lon="2.1091570">
        <ele>62.6</ele>
        <time>2022-09-26T07:13:40Z</time>
      </trkpt>
      <trkpt lat="41.5613300" lon="2.1091320">
        <ele>62.6</ele>
        <time>2022-09-26T07:13:41Z</time>
      </trkpt>
      <trkpt lat="41.5613470" lon="2.1090950">
        <ele>62.8</ele>
        <time>2022-09-26T07:13:42Z</time>
      </trkpt>
      <trkpt lat="41.5613660" lon="2.1090510">
        <ele>62.8</ele>
        <time>2022-09-26T07:13:43Z</time>
      </trkpt>
      <trkpt lat="41.5613880" lon="2.1090020">
        <ele>62.6</ele>
        <time>2022-09-26T07:13:44Z</time>
      </trkpt>
      <trkpt lat="41.5614130" lon="2.1089480">
        <ele>62.6</ele>
        <time>2022-09-26T07:13:45Z</time>
      </trkpt>
      <trkpt lat="41.5614380" lon="2.1088880">
        <ele>62.2</ele>
        <time>2022-09-26T07:13:46Z</time>
      </trkpt>
      <trkpt lat="41.5614640" lon="2.1088250">
        <ele>61.6</ele>
        <time>2022-09-26T07:13:47Z</time>
      </trkpt>
      <trkpt lat="41.5614900" lon="2.1087580">
        <ele>61.2</ele>
        <time>2022-09-26T07:13:48Z</time>
      </trkpt>
      <trkpt lat="41.5615140" lon="2.1086910">
        <ele>61.0</ele>
        <time>2022-09-26T07:13:49Z</time>
      </trkpt>
      <trkpt lat="41.5615340" lon="2.1086310">
        <ele>61.0</ele>
        <time>2022-09-26T07:13:50Z</time>
      </trkpt>
      <trkpt lat="41.5615550" lon="2.1085820">
        <ele>61.0</ele>
        <time>2022-09-26T07:13:51Z</time>
      </trkpt>
      <trkpt lat="41.5615740" lon="2.1085400">
        <ele>61.2</ele>
        <time>2022-09-26T07:13:52Z</time>
      </trkpt>
      <trkpt lat="41.5615900" lon="2.1085000">
        <ele>61.4</ele>
        <time>2022-09-26T07:13:53Z</time>
      </trkpt>
      <trkpt lat="41.5616040" lon="2.1084640">
        <ele>61.6</ele>
        <time>2022-09-26T07:13:54Z</time>
      </trkpt>
      <trkpt lat="41.5616180" lon="2.1084270">
        <ele>61.8</ele>
        <time>2022-09-26T07:13:55Z</time>
      </trkpt>
      <trkpt lat="41.5616310" lon="2.1083940">
        <ele>62.0</ele>
        <time>2022-09-26T07:13:56Z</time>
      </trkpt>
      <trkpt lat="41.5616450" lon="2.1083600">
        <ele>62.4</ele>
        <time>2022-09-26T07:13:57Z</time>
      </trkpt>
      <trkpt lat="41.5616570" lon="2.1083290">
        <ele>62.8</ele>
        <time>2022-09-26T07:13:58Z</time>
      </trkpt>
      <trkpt lat="41.5616720" lon="2.1082970">
        <ele>63.0</ele>
        <time>2022-09-26T07:13:59Z</time>
      </trkpt>
      <trkpt lat="41.5616870" lon="2.1082660">
        <ele>63.4</ele>
        <time>2022-09-26T07:14:00Z</time>
      </trkpt>
      <trkpt lat="41.5617020" lon="2.1082380">
        <ele>63.6</ele>
        <time>2022-09-26T07:14:01Z</time>
      </trkpt>
      <trkpt lat="41.5617200" lon="2.1082170">
        <ele>64.0</ele>
        <time>2022-09-26T07:14:02Z</time>
      </trkpt>
      <trkpt lat="41.5617410" lon="2.1081980">
        <ele>64.2</ele>
        <time>2022-09-26T07:14:03Z</time>
      </trkpt>
      <trkpt lat="41.5617600" lon="2.1081850">
        <ele>64.6</ele>
        <time>2022-09-26T07:14:04Z</time>
      </trkpt>
      <trkpt lat="41.5617800" lon="2.1081740">
        <ele>65.0</ele>
        <time>2022-09-26T07:14:05Z</time>
      </trkpt>
      <trkpt lat="41.5618030" lon="2.1081610">
        <ele>65.2</ele>
        <time>2022-09-26T07:14:06Z</time>
      </trkpt>
      <trkpt lat="41.5618260" lon="2.1081570">
        <ele>65.2</ele>
        <time>2022-09-26T07:14:07Z</time>
      </trkpt>
      <trkpt lat="41.5618520" lon="2.1081530">
        <ele>65.4</ele>
        <time>2022-09-26T07:14:08Z</time>
      </trkpt>
      <trkpt lat="41.5618800" lon="2.1081520">
        <ele>65.6</ele>
        <time>2022-09-26T07:14:09Z</time>
      </trkpt>
      <trkpt lat="41.5619000" lon="2.1081520">
        <ele>65.8</ele>
        <time>2022-09-26T07:14:10Z</time>
      </trkpt>
      <trkpt lat="41.5619160" lon="2.1081580">
        <ele>66.0</ele>
        <time>2022-09-26T07:14:11Z</time>
      </trkpt>
      <trkpt lat="41.5619290" lon="2.1081790">
        <ele>66.0</ele>
        <time>2022-09-26T07:14:12Z</time>
      </trkpt>
      <trkpt lat="41.5619420" lon="2.1082020">
        <ele>66.2</ele>
        <time>2022-09-26T07:14:13Z</time>
      </trkpt>
      <trkpt lat="41.5619550" lon="2.1082250">
        <ele>66.4</ele>
        <time>2022-09-26T07:14:14Z</time>
      </trkpt>
      <trkpt lat="41.5619650" lon="2.1082510">
        <ele>66.2</ele>
        <time>2022-09-26T07:14:15Z</time>
      </trkpt>
      <trkpt lat="41.5619800" lon="2.1082730">
        <ele>66.4</ele>
        <time>2022-09-26T07:14:16Z</time>
      </trkpt>
      <trkpt lat="41.5619990" lon="2.1082970">
        <ele>66.6</ele>
        <time>2022-09-26T07:14:17Z</time>
      </trkpt>
      <trkpt lat="41.5620190" lon="2.1083120">
        <ele>66.6</ele>
        <time>2022-09-26T07:14:18Z</time>
      </trkpt>
      <trkpt lat="41.5620410" lon="2.1083320">
        <ele>66.6</ele>
        <time>2022-09-26T07:14:19Z</time>
      </trkpt>
      <trkpt lat="41.5620640" lon="2.1083490">
        <ele>66.8</ele>
        <time>2022-09-26T07:14:20Z</time>
      </trkpt>
      <trkpt lat="41.5620940" lon="2.1083680">
        <ele>66.8</ele>
        <time>2022-09-26T07:14:21Z</time>
      </trkpt>
      <trkpt lat="41.5621210" lon="2.1083860">
        <ele>66.8</ele>
        <time>2022-09-26T07:14:22Z</time>
      </trkpt>
      <trkpt lat="41.5621470" lon="2.1084040">
        <ele>66.8</ele>
        <time>2022-09-26T07:14:23Z</time>
      </trkpt>
      <trkpt lat="41.5621740" lon="2.1084220">
        <ele>66.8</ele>
        <time>2022-09-26T07:14:24Z</time>
      </trkpt>
      <trkpt lat="41.5622050" lon="2.1084300">
        <ele>66.8</ele>
        <time>2022-09-26T07:14:25Z</time>
      </trkpt>
      <trkpt lat="41.5622490" lon="2.1084390">
        <ele>66.8</ele>
        <time>2022-09-26T07:14:26Z</time>
      </trkpt>
      <trkpt lat="41.5622890" lon="2.1084470">
        <ele>66.8</ele>
        <time>2022-09-26T07:14:27Z</time>
      </trkpt>
      <trkpt lat="41.5623250" lon="2.1084550">
        <ele>66.8</ele>
        <time>2022-09-26T07:14:28Z</time>
      </trkpt>
      <trkpt lat="41.5623630" lon="2.1084640">
        <ele>66.6</ele>
        <time>2022-09-26T07:14:29Z</time>
      </trkpt>
      <trkpt lat="41.5624000" lon="2.1084810">
        <ele>66.6</ele>
        <time>2022-09-26T07:14:30Z</time>
      </trkpt>
      <trkpt lat="41.5624400" lon="2.1085030">
        <ele>66.6</ele>
        <time>2022-09-26T07:14:31Z</time>
      </trkpt>
      <trkpt lat="41.5624780" lon="2.1085200">
        <ele>66.8</ele>
        <time>2022-09-26T07:14:32Z</time>
      </trkpt>
      <trkpt lat="41.5625170" lon="2.1085430">
        <ele>66.8</ele>
        <time>2022-09-26T07:14:33Z</time>
      </trkpt>
      <trkpt lat="41.5625540" lon="2.1085630">
        <ele>66.8</ele>
        <time>2022-09-26T07:14:34Z</time>
      </trkpt>
      <trkpt lat="41.5625880" lon="2.1085850">
        <ele>67.0</ele>
        <time>2022-09-26T07:14:35Z</time>
      </trkpt>
      <trkpt lat="41.5626250" lon="2.1086050">
        <ele>67.0</ele>
        <time>2022-09-26T07:14:36Z</time>
      </trkpt>
      <trkpt lat="41.5626620" lon="2.1086260">
        <ele>67.2</ele>
        <time>2022-09-26T07:14:37Z</time>
      </trkpt>
      <trkpt lat="41.5626970" lon="2.1086450">
        <ele>67.2</ele>
        <time>2022-09-26T07:14:38Z</time>
      </trkpt>
      <trkpt lat="41.5627300" lon="2.1086640">
        <ele>67.2</ele>
        <time>2022-09-26T07:14:39Z</time>
      </trkpt>
      <trkpt lat="41.5627650" lon="2.1086800">
        <ele>67.2</ele>
        <time>2022-09-26T07:14:40Z</time>
      </trkpt>
      <trkpt lat="41.5628010" lon="2.1086950">
        <ele>67.4</ele>
        <time>2022-09-26T07:14:41Z</time>
      </trkpt>
      <trkpt lat="41.5628360" lon="2.1087100">
        <ele>67.4</ele>
        <time>2022-09-26T07:14:42Z</time>
      </trkpt>
      <trkpt lat="41.5628740" lon="2.1087220">
        <ele>67.4</ele>
        <time>2022-09-26T07:14:43Z</time>
      </trkpt>
      <trkpt lat="41.5629130" lon="2.1087320">
        <ele>67.4</ele>
        <time>2022-09-26T07:14:44Z</time>
      </trkpt>
      <trkpt lat="41.5629550" lon="2.1087420">
        <ele>67.6</ele>
        <time>2022-09-26T07:14:45Z</time>
      </trkpt>
      <trkpt lat="41.5629960" lon="2.1087530">
        <ele>67.6</ele>
        <time>2022-09-26T07:14:46Z</time>
      </trkpt>
      <trkpt lat="41.5630380" lon="2.1087640">
        <ele>67.8</ele>
        <time>2022-09-26T07:14:47Z</time>
      </trkpt>
      <trkpt lat="41.5630810" lon="2.1087770">
        <ele>67.8</ele>
        <time>2022-09-26T07:14:48Z</time>
      </trkpt>
      <trkpt lat="41.5631220" lon="2.1087920">
        <ele>67.8</ele>
        <time>2022-09-26T07:14:49Z</time>
      </trkpt>
      <trkpt lat="41.5631620" lon="2.1088090">
        <ele>67.8</ele>
        <time>2022-09-26T07:14:50Z</time>
      </trkpt>
      <trkpt lat="41.5632060" lon="2.1088280">
        <ele>67.8</ele>
        <time>2022-09-26T07:14:51Z</time>
      </trkpt>
      <trkpt lat="41.5632510" lon="2.1088440">
        <ele>68.0</ele>
        <time>2022-09-26T07:14:52Z</time>
      </trkpt>
      <trkpt lat="41.5632930" lon="2.1088590">
        <ele>68.0</ele>
        <time>2022-09-26T07:14:53Z</time>
      </trkpt>
      <trkpt lat="41.5633360" lon="2.1088770">
        <ele>68.0</ele>
        <time>2022-09-26T07:14:54Z</time>
      </trkpt>
      <trkpt lat="41.5633770" lon="2.1088980">
        <ele>67.8</ele>
        <time>2022-09-26T07:14:55Z</time>
      </trkpt>
      <trkpt lat="41.5634140" lon="2.1089170">
        <ele>68.0</ele>
        <time>2022-09-26T07:14:56Z</time>
      </trkpt>
      <trkpt lat="41.5634480" lon="2.1089350">
        <ele>67.8</ele>
        <time>2022-09-26T07:14:57Z</time>
      </trkpt>
      <trkpt lat="41.5634860" lon="2.1089480">
        <ele>67.8</ele>
        <time>2022-09-26T07:14:58Z</time>
      </trkpt>
      <trkpt lat="41.5635240" lon="2.1089630">
        <ele>67.8</ele>
        <time>2022-09-26T07:14:59Z</time>
      </trkpt>
      <trkpt lat="41.5635610" lon="2.1089780">
        <ele>67.8</ele>
        <time>2022-09-26T07:15:00Z</time>
      </trkpt>
      <trkpt lat="41.5636010" lon="2.1089940">
        <ele>67.8</ele>
        <time>2022-09-26T07:15:01Z</time>
      </trkpt>
      <trkpt lat="41.5636410" lon="2.1090100">
        <ele>68.0</ele>
        <time>2022-09-26T07:15:02Z</time>
      </trkpt>
      <trkpt lat="41.5636840" lon="2.1090280">
        <ele>68.0</ele>
        <time>2022-09-26T07:15:03Z</time>
      </trkpt>
      <trkpt lat="41.5637290" lon="2.1090480">
        <ele>68.0</ele>
        <time>2022-09-26T07:15:04Z</time>
      </trkpt>
      <trkpt lat="41.5637750" lon="2.1090710">
        <ele>68.0</ele>
        <time>2022-09-26T07:15:05Z</time>
      </trkpt>
      <trkpt lat="41.5638210" lon="2.1090910">
        <ele>68.0</ele>
        <time>2022-09-26T07:15:06Z</time>
      </trkpt>
      <trkpt lat="41.5638660" lon="2.1091140">
        <ele>68.0</ele>
        <time>2022-09-26T07:15:07Z</time>
      </trkpt>
      <trkpt lat="41.5639160" lon="2.1091380">
        <ele>67.8</ele>
        <time>2022-09-26T07:15:08Z</time>
      </trkpt>
      <trkpt lat="41.5639600" lon="2.1091610">
        <ele>67.8</ele>
        <time>2022-09-26T07:15:09Z</time>
      </trkpt>
      <trkpt lat="41.5640070" lon="2.1091850">
        <ele>67.8</ele>
        <time>2022-09-26T07:15:10Z</time>
      </trkpt>
      <trkpt lat="41.5640500" lon="2.1092070">
        <ele>68.0</ele>
        <time>2022-09-26T07:15:11Z</time>
      </trkpt>
      <trkpt lat="41.5640930" lon="2.1092300">
        <ele>68.0</ele>
        <time>2022-09-26T07:15:12Z</time>
      </trkpt>
      <trkpt lat="41.5641320" lon="2.1092590">
        <ele>68.2</ele>
        <time>2022-09-26T07:15:13Z</time>
      </trkpt>
      <trkpt lat="41.5641670" lon="2.1092860">
        <ele>68.4</ele>
        <time>2022-09-26T07:15:14Z</time>
      </trkpt>
      <trkpt lat="41.5642000" lon="2.1093090">
        <ele>68.6</ele>
        <time>2022-09-26T07:15:15Z</time>
      </trkpt>
      <trkpt lat="41.5642320" lon="2.1093280">
        <ele>68.8</ele>
        <time>2022-09-26T07:15:16Z</time>
      </trkpt>
      <trkpt lat="41.5642640" lon="2.1093440">
        <ele>69.2</ele>
        <time>2022-09-26T07:15:17Z</time>
      </trkpt>
      <trkpt lat="41.5642950" lon="2.1093580">
        <ele>69.4</ele>
        <time>2022-09-26T07:15:18Z</time>
      </trkpt>
      <trkpt lat="41.5643240" lon="2.1093700">
        <ele>69.6</ele>
        <time>2022-09-26T07:15:19Z</time>
      </trkpt>
      <trkpt lat="41.5643550" lon="2.1093790">
        <ele>69.8</ele>
        <time>2022-09-26T07:15:20Z</time>
      </trkpt>
      <trkpt lat="41.5643850" lon="2.1093890">
        <ele>70.0</ele>
        <time>2022-09-26T07:15:21Z</time>
      </trkpt>
      <trkpt lat="41.5644160" lon="2.1093990">
        <ele>70.4</ele>
        <time>2022-09-26T07:15:22Z</time>
      </trkpt>
      <trkpt lat="41.5644480" lon="2.1094090">
        <ele>70.6</ele>
        <time>2022-09-26T07:15:23Z</time>
      </trkpt>
      <trkpt lat="41.5644820" lon="2.1094200">
        <ele>70.8</ele>
        <time>2022-09-26T07:15:24Z</time>
      </trkpt>
      <trkpt lat="41.5645170" lon="2.1094310">
        <ele>71.0</ele>
        <time>2022-09-26T07:15:25Z</time>
      </trkpt>
      <trkpt lat="41.5645530" lon="2.1094410">
        <ele>71.2</ele>
        <time>2022-09-26T07:15:26Z</time>
      </trkpt>
      <trkpt lat="41.5645890" lon="2.1094480">
        <ele>71.2</ele>
        <time>2022-09-26T07:15:27Z</time>
      </trkpt>
      <trkpt lat="41.5646270" lon="2.1094520">
        <ele>71.0</ele>
        <time>2022-09-26T07:15:28Z</time>
      </trkpt>
      <trkpt lat="41.5646670" lon="2.1094550">
        <ele>71.2</ele>
        <time>2022-09-26T07:15:29Z</time>
      </trkpt>
      <trkpt lat="41.5647060" lon="2.1094570">
        <ele>71.2</ele>
        <time>2022-09-26T07:15:30Z</time>
      </trkpt>
      <trkpt lat="41.5647440" lon="2.1094560">
        <ele>71.4</ele>
        <time>2022-09-26T07:15:31Z</time>
      </trkpt>
      <trkpt lat="41.5647770" lon="2.1094510">
        <ele>71.4</ele>
        <time>2022-09-26T07:15:32Z</time>
      </trkpt>
      <trkpt lat="41.5648080" lon="2.1094450">
        <ele>71.8</ele>
        <time>2022-09-26T07:15:33Z</time>
      </trkpt>
      <trkpt lat="41.5648390" lon="2.1094390">
        <ele>72.0</ele>
        <time>2022-09-26T07:15:34Z</time>
      </trkpt>
      <trkpt lat="41.5648700" lon="2.1094280">
        <ele>72.2</ele>
        <time>2022-09-26T07:15:35Z</time>
      </trkpt>
      <trkpt lat="41.5648990" lon="2.1094120">
        <ele>72.4</ele>
        <time>2022-09-26T07:15:36Z</time>
      </trkpt>
      <trkpt lat="41.5649250" lon="2.1093920">
        <ele>72.4</ele>
        <time>2022-09-26T07:15:37Z</time>
      </trkpt>
      <trkpt lat="41.5649480" lon="2.1093690">
        <ele>72.6</ele>
        <time>2022-09-26T07:15:38Z</time>
      </trkpt>
      <trkpt lat="41.5649720" lon="2.1093510">
        <ele>72.6</ele>
        <time>2022-09-26T07:15:39Z</time>
      </trkpt>
      <trkpt lat="41.5649960" lon="2.1093400">
        <ele>72.8</ele>
        <time>2022-09-26T07:15:40Z</time>
      </trkpt>
      <trkpt lat="41.5650240" lon="2.1093320">
        <ele>72.8</ele>
        <time>2022-09-26T07:15:41Z</time>
      </trkpt>
      <trkpt lat="41.5650560" lon="2.1093210">
        <ele>72.8</ele>
        <time>2022-09-26T07:15:42Z</time>
      </trkpt>
      <trkpt lat="41.5650900" lon="2.1093090">
        <ele>72.8</ele>
        <time>2022-09-26T07:15:43Z</time>
      </trkpt>
      <trkpt lat="41.5651240" lon="2.1092940">
        <ele>72.8</ele>
        <time>2022-09-26T07:15:44Z</time>
      </trkpt>
      <trkpt lat="41.5651610" lon="2.1092810">
        <ele>72.8</ele>
        <time>2022-09-26T07:15:45Z</time>
      </trkpt>
      <trkpt lat="41.5651980" lon="2.1092700">
        <ele>72.8</ele>
        <time>2022-09-26T07:15:46Z</time>
      </trkpt>
      <trkpt lat="41.5652330" lon="2.1092610">
        <ele>72.8</ele>
        <time>2022-09-26T07:15:47Z</time>
      </trkpt>
      <trkpt lat="41.5652680" lon="2.1092510">
        <ele>72.8</ele>
        <time>2022-09-26T07:15:48Z</time>
      </trkpt>
      <trkpt lat="41.5653090" lon="2.1092430">
        <ele>72.8</ele>
        <time>2022-09-26T07:15:49Z</time>
      </trkpt>
      <trkpt lat="41.5653490" lon="2.1092390">
        <ele>72.8</ele>
        <time>2022-09-26T07:15:50Z</time>
      </trkpt>
      <trkpt lat="41.5653900" lon="2.1092330">
        <ele>72.6</ele>
        <time>2022-09-26T07:15:51Z</time>
      </trkpt>
      <trkpt lat="41.5654310" lon="2.1092290">
        <ele>72.6</ele>
        <time>2022-09-26T07:15:52Z</time>
      </trkpt>
      <trkpt lat="41.5654720" lon="2.1092260">
        <ele>72.4</ele>
        <time>2022-09-26T07:15:53Z</time>
      </trkpt>
      <trkpt lat="41.5655150" lon="2.1092270">
        <ele>72.4</ele>
        <time>2022-09-26T07:15:54Z</time>
      </trkpt>
      <trkpt lat="41.5655560" lon="2.1092310">
        <ele>72.4</ele>
        <time>2022-09-26T07:15:55Z</time>
      </trkpt>
      <trkpt lat="41.5655980" lon="2.1092400">
        <ele>72.4</ele>
        <time>2022-09-26T07:15:56Z</time>
      </trkpt>
      <trkpt lat="41.5656380" lon="2.1092520">
        <ele>72.4</ele>
        <time>2022-09-26T07:15:57Z</time>
      </trkpt>
      <trkpt lat="41.5656770" lon="2.1092670">
        <ele>72.4</ele>
        <time>2022-09-26T07:15:58Z</time>
      </trkpt>
      <trkpt lat="41.5657140" lon="2.1092850">
        <ele>72.2</ele>
        <time>2022-09-26T07:15:59Z</time>
      </trkpt>
      <trkpt lat="41.5657510" lon="2.1093060">
        <ele>72.2</ele>
        <time>2022-09-26T07:16:00Z</time>
      </trkpt>
      <trkpt lat="41.5657860" lon="2.1093300">
        <ele>72.0</ele>
        <time>2022-09-26T07:16:01Z</time>
      </trkpt>
      <trkpt lat="41.5658190" lon="2.1093550">
        <ele>72.0</ele>
        <time>2022-09-26T07:16:02Z</time>
      </trkpt>
      <trkpt lat="41.5658520" lon="2.1093780">
        <ele>72.0</ele>
        <time>2022-09-26T07:16:03Z</time>
      </trkpt>
      <trkpt lat="41.5658870" lon="2.1094010">
        <ele>72.0</ele>
        <time>2022-09-26T07:16:04Z</time>
      </trkpt>
      <trkpt lat="41.5659230" lon="2.1094260">
        <ele>72.0</ele>
        <time>2022-09-26T07:16:05Z</time>
      </trkpt>
      <trkpt lat="41.5659590" lon="2.1094550">
        <ele>71.8</ele>
        <time>2022-09-26T07:16:06Z</time>
      </trkpt>
      <trkpt lat="41.5659990" lon="2.1094860">
        <ele>71.6</ele>
        <time>2022-09-26T07:16:07Z</time>
      </trkpt>
      <trkpt lat="41.5660380" lon="2.1095190">
        <ele>71.2</ele>
        <time>2022-09-26T07:16:08Z</time>
      </trkpt>
      <trkpt lat="41.5660770" lon="2.1095510">
        <ele>71.2</ele>
        <time>2022-09-26T07:16:09Z</time>
      </trkpt>
      <trkpt lat="41.5661140" lon="2.1095830">
        <ele>71.0</ele>
        <time>2022-09-26T07:16:10Z</time>
      </trkpt>
      <trkpt lat="41.5661480" lon="2.1096110">
        <ele>71.0</ele>
        <time>2022-09-26T07:16:11Z</time>
      </trkpt>
      <trkpt lat="41.5661790" lon="2.1096330">
        <ele>71.0</ele>
        <time>2022-09-26T07:16:12Z</time>
      </trkpt>
      <trkpt lat="41.5662020" lon="2.1096380">
        <ele>71.4</ele>
        <time>2022-09-26T07:16:13Z</time>
      </trkpt>
      <trkpt lat="41.5662290" lon="2.1096330">
        <ele>71.6</ele>
        <time>2022-09-26T07:16:14Z</time>
      </trkpt>
      <trkpt lat="41.5662650" lon="2.1096300">
        <ele>71.8</ele>
        <time>2022-09-26T07:16:15Z</time>
      </trkpt>
      <trkpt lat="41.5662940" lon="2.1096230">
        <ele>72.0</ele>
        <time>2022-09-26T07:16:16Z</time>
      </trkpt>
      <trkpt lat="41.5663190" lon="2.1096120">
        <ele>72.0</ele>
        <time>2022-09-26T07:16:17Z</time>
      </trkpt>
      <trkpt lat="41.5663410" lon="2.1096000">
        <ele>72.2</ele>
        <time>2022-09-26T07:16:18Z</time>
      </trkpt>
      <trkpt lat="41.5663610" lon="2.1095900">
        <ele>72.4</ele>
        <time>2022-09-26T07:16:19Z</time>
      </trkpt>
      <trkpt lat="41.5663860" lon="2.1095780">
        <ele>72.6</ele>
        <time>2022-09-26T07:16:20Z</time>
      </trkpt>
      <trkpt lat="41.5664100" lon="2.1095670">
        <ele>72.8</ele>
        <time>2022-09-26T07:16:21Z</time>
      </trkpt>
      <trkpt lat="41.5664350" lon="2.1095550">
        <ele>73.0</ele>
        <time>2022-09-26T07:16:22Z</time>
      </trkpt>
      <trkpt lat="41.5664620" lon="2.1095420">
        <ele>73.0</ele>
        <time>2022-09-26T07:16:23Z</time>
      </trkpt>
      <trkpt lat="41.5664880" lon="2.1095270">
        <ele>73.2</ele>
        <time>2022-09-26T07:16:24Z</time>
      </trkpt>
      <trkpt lat="41.5665080" lon="2.1095150">
        <ele>73.4</ele>
        <time>2022-09-26T07:16:25Z</time>
      </trkpt>
      <trkpt lat="41.5665330" lon="2.1095050">
        <ele>73.4</ele>
        <time>2022-09-26T07:16:26Z</time>
      </trkpt>
      <trkpt lat="41.5665550" lon="2.1094880">
        <ele>73.4</ele>
        <time>2022-09-26T07:16:27Z</time>
      </trkpt>
      <trkpt lat="41.5665750" lon="2.1094690">
        <ele>73.6</ele>
        <time>2022-09-26T07:16:28Z</time>
      </trkpt>
      <trkpt lat="41.5665940" lon="2.1094490">
        <ele>73.6</ele>
        <time>2022-09-26T07:16:29Z</time>
      </trkpt>
      <trkpt lat="41.5666200" lon="2.1094320">
        <ele>73.8</ele>
        <time>2022-09-26T07:16:30Z</time>
      </trkpt>
      <trkpt lat="41.5666460" lon="2.1094070">
        <ele>74.2</ele>
        <time>2022-09-26T07:16:31Z</time>
      </trkpt>
      <trkpt lat="41.5666700" lon="2.1093870">
        <ele>74.2</ele>
        <time>2022-09-26T07:16:32Z</time>
      </trkpt>
      <trkpt lat="41.5666950" lon="2.1093670">
        <ele>74.4</ele>
        <time>2022-09-26T07:16:33Z</time>
      </trkpt>
      <trkpt lat="41.5667200" lon="2.1093460">
        <ele>74.6</ele>
        <time>2022-09-26T07:16:34Z</time>
      </trkpt>
      <trkpt lat="41.5667460" lon="2.1093240">
        <ele>74.8</ele>
        <time>2022-09-26T07:16:35Z</time>
      </trkpt>
      <trkpt lat="41.5667710" lon="2.1092990">
        <ele>74.8</ele>
        <time>2022-09-26T07:16:36Z</time>
      </trkpt>
      <trkpt lat="41.5667950" lon="2.1092790">
        <ele>75.2</ele>
        <time>2022-09-26T07:16:37Z</time>
      </trkpt>
      <trkpt lat="41.5668190" lon="2.1092570">
        <ele>75.4</ele>
        <time>2022-09-26T07:16:38Z</time>
      </trkpt>
      <trkpt lat="41.5668430" lon="2.1092380">
        <ele>75.4</ele>
        <time>2022-09-26T07:16:39Z</time>
      </trkpt>
      <trkpt lat="41.5668690" lon="2.1092160">
        <ele>75.6</ele>
        <time>2022-09-26T07:16:40Z</time>
      </trkpt>
      <trkpt lat="41.5668960" lon="2.1091950">
        <ele>75.6</ele>
        <time>2022-09-26T07:16:41Z</time>
      </trkpt>
      <trkpt lat="41.5669220" lon="2.1091740">
        <ele>75.8</ele>
        <time>2022-09-26T07:16:42Z</time>
      </trkpt>
      <trkpt lat="41.5669500" lon="2.1091500">
        <ele>76.0</ele>
        <time>2022-09-26T07:16:43Z</time>
      </trkpt>
      <trkpt lat="41.5669750" lon="2.1091300">
        <ele>76.2</ele>
        <time>2022-09-26T07:16:44Z</time>
      </trkpt>
      <trkpt lat="41.5669990" lon="2.1091120">
        <ele>76.4</ele>
        <time>2022-09-26T07:16:45Z</time>
      </trkpt>
      <trkpt lat="41.5670240" lon="2.1090950">
        <ele>76.6</ele>
        <time>2022-09-26T07:16:46Z</time>
      </trkpt>
      <trkpt lat="41.5670500" lon="2.1090720">
        <ele>76.4</ele>
        <time>2022-09-26T07:16:47Z</time>
      </trkpt>
      <trkpt lat="41.5670730" lon="2.1090550">
        <ele>76.6</ele>
        <time>2022-09-26T07:16:48Z</time>
      </trkpt>
      <trkpt lat="41.5670950" lon="2.1090330">
        <ele>76.8</ele>
        <time>2022-09-26T07:16:49Z</time>
      </trkpt>
      <trkpt lat="41.5671190" lon="2.1090130">
        <ele>77.0</ele>
        <time>2022-09-26T07:16:50Z</time>
      </trkpt>
      <trkpt lat="41.5671410" lon="2.1089940">
        <ele>77.0</ele>
        <time>2022-09-26T07:16:51Z</time>
      </trkpt>
      <trkpt lat="41.5671620" lon="2.1089740">
        <ele>77.2</ele>
        <time>2022-09-26T07:16:52Z</time>
      </trkpt>
      <trkpt lat="41.5671840" lon="2.1089510">
        <ele>77.4</ele>
        <time>2022-09-26T07:16:53Z</time>
      </trkpt>
      <trkpt lat="41.5672050" lon="2.1089310">
        <ele>77.4</ele>
        <time>2022-09-26T07:16:54Z</time>
      </trkpt>
      <trkpt lat="41.5672260" lon="2.1089140">
        <ele>77.6</ele>
        <time>2022-09-26T07:16:55Z</time>
      </trkpt>
      <trkpt lat="41.5672480" lon="2.1089010">
        <ele>77.8</ele>
        <time>2022-09-26T07:16:56Z</time>
      </trkpt>
      <trkpt lat="41.5672710" lon="2.1088820">
        <ele>78.0</ele>
        <time>2022-09-26T07:16:57Z</time>
      </trkpt>
      <trkpt lat="41.5672900" lon="2.1088690">
        <ele>78.2</ele>
        <time>2022-09-26T07:16:58Z</time>
      </trkpt>
      <trkpt lat="41.5673100" lon="2.1088560">
        <ele>78.2</ele>
        <time>2022-09-26T07:16:59Z</time>
      </trkpt>
      <trkpt lat="41.5673330" lon="2.1088320">
        <ele>78.4</ele>
        <time>2022-09-26T07:17:00Z</time>
      </trkpt>
      <trkpt lat="41.5673580" lon="2.1088070">
        <ele>78.8</ele>
        <time>2022-09-26T07:17:01Z</time>
      </trkpt>
      <trkpt lat="41.5673850" lon="2.1087780">
        <ele>78.6</ele>
        <time>2022-09-26T07:17:02Z</time>
      </trkpt>
      <trkpt lat="41.5674110" lon="2.1087550">
        <ele>78.8</ele>
        <time>2022-09-26T07:17:03Z</time>
      </trkpt>
      <trkpt lat="41.5674380" lon="2.1087350">
        <ele>79.0</ele>
        <time>2022-09-26T07:17:04Z</time>
      </trkpt>
      <trkpt lat="41.5674640" lon="2.1087220">
        <ele>79.2</ele>
        <time>2022-09-26T07:17:05Z</time>
      </trkpt>
      <trkpt lat="41.5674890" lon="2.1087080">
        <ele>79.4</ele>
        <time>2022-09-26T07:17:06Z</time>
      </trkpt>
      <trkpt lat="41.5675180" lon="2.1086810">
        <ele>79.4</ele>
        <time>2022-09-26T07:17:07Z</time>
      </trkpt>
      <trkpt lat="41.5675410" lon="2.1086640">
        <ele>79.6</ele>
        <time>2022-09-26T07:17:08Z</time>
      </trkpt>
      <trkpt lat="41.5675670" lon="2.1086450">
        <ele>79.6</ele>
        <time>2022-09-26T07:17:09Z</time>
      </trkpt>
      <trkpt lat="41.5675910" lon="2.1086290">
        <ele>79.6</ele>
        <time>2022-09-26T07:17:10Z</time>
      </trkpt>
      <trkpt lat="41.5676160" lon="2.1086170">
        <ele>79.8</ele>
        <time>2022-09-26T07:17:11Z</time>
      </trkpt>
      <trkpt lat="41.5676430" lon="2.1086070">
        <ele>80.0</ele>
        <time>2022-09-26T07:17:12Z</time>
      </trkpt>
      <trkpt lat="41.5676740" lon="2.1085870">
        <ele>80.2</ele>
        <time>2022-09-26T07:17:13Z</time>
      </trkpt>
      <trkpt lat="41.5677000" lon="2.1085720">
        <ele>80.4</ele>
        <time>2022-09-26T07:17:14Z</time>
      </trkpt>
      <trkpt lat="41.5677240" lon="2.1085620">
        <ele>80.4</ele>
        <time>2022-09-26T07:17:15Z</time>
      </trkpt>
      <trkpt lat="41.5677470" lon="2.1085500">
        <ele>80.6</ele>
        <time>2022-09-26T07:17:16Z</time>
      </trkpt>
      <trkpt lat="41.5677650" lon="2.1085380">
        <ele>80.8</ele>
        <time>2022-09-26T07:17:17Z</time>
      </trkpt>
      <trkpt lat="41.5677850" lon="2.1085340">
        <ele>80.8</ele>
        <time>2022-09-26T07:17:18Z</time>
      </trkpt>
      <trkpt lat="41.5678120" lon="2.1085260">
        <ele>81.0</ele>
        <time>2022-09-26T07:17:19Z</time>
      </trkpt>
      <trkpt lat="41.5678410" lon="2.1085240">
        <ele>81.2</ele>
        <time>2022-09-26T07:17:20Z</time>
      </trkpt>
      <trkpt lat="41.5678680" lon="2.1085190">
        <ele>81.2</ele>
        <time>2022-09-26T07:17:21Z</time>
      </trkpt>
      <trkpt lat="41.5678960" lon="2.1085240">
        <ele>81.4</ele>
        <time>2022-09-26T07:17:22Z</time>
      </trkpt>
      <trkpt lat="41.5679240" lon="2.1085240">
        <ele>81.6</ele>
        <time>2022-09-26T07:17:23Z</time>
      </trkpt>
      <trkpt lat="41.5679530" lon="2.1085260">
        <ele>81.8</ele>
        <time>2022-09-26T07:17:24Z</time>
      </trkpt>
      <trkpt lat="41.5679850" lon="2.1085140">
        <ele>81.8</ele>
        <time>2022-09-26T07:17:25Z</time>
      </trkpt>
      <trkpt lat="41.5680150" lon="2.1085090">
        <ele>82.0</ele>
        <time>2022-09-26T07:17:26Z</time>
      </trkpt>
      <trkpt lat="41.5680430" lon="2.1085110">
        <ele>82.2</ele>
        <time>2022-09-26T07:17:27Z</time>
      </trkpt>
      <trkpt lat="41.5680680" lon="2.1085140">
        <ele>82.2</ele>
        <time>2022-09-26T07:17:28Z</time>
      </trkpt>
      <trkpt lat="41.5680930" lon="2.1085170">
        <ele>82.6</ele>
        <time>2022-09-26T07:17:29Z</time>
      </trkpt>
      <trkpt lat="41.5681160" lon="2.1085170">
        <ele>82.8</ele>
        <time>2022-09-26T07:17:30Z</time>
      </trkpt>
      <trkpt lat="41.5681380" lon="2.1085170">
        <ele>82.8</ele>
        <time>2022-09-26T07:17:31Z</time>
      </trkpt>
      <trkpt lat="41.5681620" lon="2.1085140">
        <ele>83.2</ele>
        <time>2022-09-26T07:17:32Z</time>
      </trkpt>
      <trkpt lat="41.5681840" lon="2.1085100">
        <ele>83.4</ele>
        <time>2022-09-26T07:17:33Z</time>
      </trkpt>
      <trkpt lat="41.5682060" lon="2.1085100">
        <ele>83.6</ele>
        <time>2022-09-26T07:17:34Z</time>
      </trkpt>
      <trkpt lat="41.5682290" lon="2.1084990">
        <ele>84.0</ele>
        <time>2022-09-26T07:17:35Z</time>
      </trkpt>
      <trkpt lat="41.5682480" lon="2.1084910">
        <ele>84.0</ele>
        <time>2022-09-26T07:17:36Z</time>
      </trkpt>
      <trkpt lat="41.5682640" lon="2.1084790">
        <ele>84.4</ele>
        <time>2022-09-26T07:17:37Z</time>
      </trkpt>
      <trkpt lat="41.5682780" lon="2.1084620">
        <ele>84.6</ele>
        <time>2022-09-26T07:17:38Z</time>
      </trkpt>
      <trkpt lat="41.5682900" lon="2.1084430">
        <ele>85.0</ele>
        <time>2022-09-26T07:17:39Z</time>
      </trkpt>
      <trkpt lat="41.5683050" lon="2.1084060">
        <ele>85.2</ele>
        <time>2022-09-26T07:17:40Z</time>
      </trkpt>
      <trkpt lat="41.5683160" lon="2.1083790">
        <ele>85.4</ele>
        <time>2022-09-26T07:17:41Z</time>
      </trkpt>
      <trkpt lat="41.5683230" lon="2.1083550">
        <ele>85.8</ele>
        <time>2022-09-26T07:17:42Z</time>
      </trkpt>
      <trkpt lat="41.5683280" lon="2.1083260">
        <ele>86.0</ele>
        <time>2022-09-26T07:17:43Z</time>
      </trkpt>
      <trkpt lat="41.5683390" lon="2.1082610">
        <ele>86.2</ele>
        <time>2022-09-26T07:17:44Z</time>
      </trkpt>
      <trkpt lat="41.5683420" lon="2.1082140">
        <ele>86.4</ele>
        <time>2022-09-26T07:17:45Z</time>
      </trkpt>
      <trkpt lat="41.5683400" lon="2.1081670">
        <ele>86.8</ele>
        <time>2022-09-26T07:17:46Z</time>
      </trkpt>
      <trkpt lat="41.5683410" lon="2.1081230">
        <ele>87.2</ele>
        <time>2022-09-26T07:17:47Z</time>
      </trkpt>
      <trkpt lat="41.5683390" lon="2.1080920">
        <ele>87.4</ele>
        <time>2022-09-26T07:17:48Z</time>
      </trkpt>
      <trkpt lat="41.5683390" lon="2.1080640">
        <ele>87.6</ele>
        <time>2022-09-26T07:17:49Z</time>
      </trkpt>
      <trkpt lat="41.5683400" lon="2.1080280">
        <ele>87.8</ele>
        <time>2022-09-26T07:17:50Z</time>
      </trkpt>
      <trkpt lat="41.5683400" lon="2.1079940">
        <ele>87.8</ele>
        <time>2022-09-26T07:17:51Z</time>
      </trkpt>
      <trkpt lat="41.5683430" lon="2.1079570">
        <ele>88.0</ele>
        <time>2022-09-26T07:17:52Z</time>
      </trkpt>
      <trkpt lat="41.5683500" lon="2.1079230">
        <ele>88.2</ele>
        <time>2022-09-26T07:17:53Z</time>
      </trkpt>
      <trkpt lat="41.5683550" lon="2.1078880">
        <ele>88.2</ele>
        <time>2022-09-26T07:17:54Z</time>
      </trkpt>
      <trkpt lat="41.5683630" lon="2.1078560">
        <ele>88.4</ele>
        <time>2022-09-26T07:17:55Z</time>
      </trkpt>
      <trkpt lat="41.5683700" lon="2.1078290">
        <ele>88.6</ele>
        <time>2022-09-26T07:17:56Z</time>
      </trkpt>
      <trkpt lat="41.5683800" lon="2.1078040">
        <ele>88.8</ele>
        <time>2022-09-26T07:17:57Z</time>
      </trkpt>
      <trkpt lat="41.5683910" lon="2.1077790">
        <ele>89.0</ele>
        <time>2022-09-26T07:17:58Z</time>
      </trkpt>
      <trkpt lat="41.5684020" lon="2.1077530">
        <ele>89.2</ele>
        <time>2022-09-26T07:17:59Z</time>
      </trkpt>
      <trkpt lat="41.5684150" lon="2.1077290">
        <ele>89.4</ele>
        <time>2022-09-26T07:18:00Z</time>
      </trkpt>
      <trkpt lat="41.5684260" lon="2.1077070">
        <ele>89.6</ele>
        <time>2022-09-26T07:18:01Z</time>
      </trkpt>
      <trkpt lat="41.5684360" lon="2.1076840">
        <ele>89.8</ele>
        <time>2022-09-26T07:18:02Z</time>
      </trkpt>
      <trkpt lat="41.5684470" lon="2.1076680">
        <ele>90.0</ele>
        <time>2022-09-26T07:18:03Z</time>
      </trkpt>
      <trkpt lat="41.5684610" lon="2.1076520">
        <ele>90.4</ele>
        <time>2022-09-26T07:18:04Z</time>
      </trkpt>
      <trkpt lat="41.5684760" lon="2.1076350">
        <ele>90.6</ele>
        <time>2022-09-26T07:18:05Z</time>
      </trkpt>
      <trkpt lat="41.5684900" lon="2.1076200">
        <ele>90.8</ele>
        <time>2022-09-26T07:18:06Z</time>
      </trkpt>
      <trkpt lat="41.5685060" lon="2.1076040">
        <ele>91.0</ele>
        <time>2022-09-26T07:18:07Z</time>
      </trkpt>
      <trkpt lat="41.5685220" lon="2.1075920">
        <ele>91.2</ele>
        <time>2022-09-26T07:18:08Z</time>
      </trkpt>
      <trkpt lat="41.5685400" lon="2.1075800">
        <ele>91.4</ele>
        <time>2022-09-26T07:18:09Z</time>
      </trkpt>
      <trkpt lat="41.5685580" lon="2.1075690">
        <ele>91.6</ele>
        <time>2022-09-26T07:18:10Z</time>
      </trkpt>
      <trkpt lat="41.5685770" lon="2.1075640">
        <ele>91.8</ele>
        <time>2022-09-26T07:18:11Z</time>
      </trkpt>
      <trkpt lat="41.5685960" lon="2.1075590">
        <ele>91.8</ele>
        <time>2022-09-26T07:18:12Z</time>
      </trkpt>
      <trkpt lat="41.5686140" lon="2.1075550">
        <ele>92.2</ele>
        <time>2022-09-26T07:18:13Z</time>
      </trkpt>
      <trkpt lat="41.5686340" lon="2.1075490">
        <ele>92.4</ele>
        <time>2022-09-26T07:18:14Z</time>
      </trkpt>
      <trkpt lat="41.5686550" lon="2.1075480">
        <ele>92.6</ele>
        <time>2022-09-26T07:18:15Z</time>
      </trkpt>
      <trkpt lat="41.5686750" lon="2.1075440">
        <ele>92.6</ele>
        <time>2022-09-26T07:18:16Z</time>
      </trkpt>
      <trkpt lat="41.5686950" lon="2.1075390">
        <ele>92.8</ele>
        <time>2022-09-26T07:18:17Z</time>
      </trkpt>
      <trkpt lat="41.5687130" lon="2.1075280">
        <ele>93.0</ele>
        <time>2022-09-26T07:18:18Z</time>
      </trkpt>
      <trkpt lat="41.5687300" lon="2.1075090">
        <ele>93.0</ele>
        <time>2022-09-26T07:18:19Z</time>
      </trkpt>
      <trkpt lat="41.5687420" lon="2.1074840">
        <ele>93.2</ele>
        <time>2022-09-26T07:18:20Z</time>
      </trkpt>
      <trkpt lat="41.5687510" lon="2.1074530">
        <ele>93.4</ele>
        <time>2022-09-26T07:18:21Z</time>
      </trkpt>
      <trkpt lat="41.5687620" lon="2.1074240">
        <ele>93.6</ele>
        <time>2022-09-26T07:18:22Z</time>
      </trkpt>
      <trkpt lat="41.5687740" lon="2.1073980">
        <ele>93.8</ele>
        <time>2022-09-26T07:18:23Z</time>
      </trkpt>
      <trkpt lat="41.5687870" lon="2.1073710">
        <ele>93.8</ele>
        <time>2022-09-26T07:18:24Z</time>
      </trkpt>
      <trkpt lat="41.5688010" lon="2.1073430">
        <ele>94.0</ele>
        <time>2022-09-26T07:18:25Z</time>
      </trkpt>
      <trkpt lat="41.5688150" lon="2.1073150">
        <ele>94.2</ele>
        <time>2022-09-26T07:18:26Z</time>
      </trkpt>
      <trkpt lat="41.5688290" lon="2.1072910">
        <ele>94.2</ele>
        <time>2022-09-26T07:18:27Z</time>
      </trkpt>
      <trkpt lat="41.5688450" lon="2.1072680">
        <ele>94.2</ele>
        <time>2022-09-26T07:18:28Z</time>
      </trkpt>
      <trkpt lat="41.5688600" lon="2.1072430">
        <ele>94.2</ele>
        <time>2022-09-26T07:18:29Z</time>
      </trkpt>
      <trkpt lat="41.5688740" lon="2.1072200">
        <ele>94.4</ele>
        <time>2022-09-26T07:18:30Z</time>
      </trkpt>
      <trkpt lat="41.5688890" lon="2.1071940">
        <ele>94.4</ele>
        <time>2022-09-26T07:18:31Z</time>
      </trkpt>
      <trkpt lat="41.5689040" lon="2.1071690">
        <ele>94.4</ele>
        <time>2022-09-26T07:18:32Z</time>
      </trkpt>
      <trkpt lat="41.5689180" lon="2.1071470">
        <ele>94.6</ele>
        <time>2022-09-26T07:18:33Z</time>
      </trkpt>
      <trkpt lat="41.5689340" lon="2.1071210">
        <ele>94.6</ele>
        <time>2022-09-26T07:18:34Z</time>
      </trkpt>
      <trkpt lat="41.5689470" lon="2.1070960">
        <ele>94.8</ele>
        <time>2022-09-26T07:18:35Z</time>
      </trkpt>
      <trkpt lat="41.5689620" lon="2.1070710">
        <ele>94.8</ele>
        <time>2022-09-26T07:18:36Z</time>
      </trkpt>
      <trkpt lat="41.5689750" lon="2.1070430">
        <ele>95.0</ele>
        <time>2022-09-26T07:18:37Z</time>
      </trkpt>
      <trkpt lat="41.5689880" lon="2.1070190">
        <ele>95.2</ele>
        <time>2022-09-26T07:18:38Z</time>
      </trkpt>
      <trkpt lat="41.5690010" lon="2.1069960">
        <ele>95.4</ele>
        <time>2022-09-26T07:18:39Z</time>
      </trkpt>
      <trkpt lat="41.5690130" lon="2.1069730">
        <ele>95.6</ele>
        <time>2022-09-26T07:18:40Z</time>
      </trkpt>
      <trkpt lat="41.5690270" lon="2.1069540">
        <ele>95.8</ele>
        <time>2022-09-26T07:18:41Z</time>
      </trkpt>
      <trkpt lat="41.5690400" lon="2.1069340">
        <ele>96.0</ele>
        <time>2022-09-26T07:18:42Z</time>
      </trkpt>
      <trkpt lat="41.5690540" lon="2.1069120">
        <ele>96.2</ele>
        <time>2022-09-26T07:18:43Z</time>
      </trkpt>
      <trkpt lat="41.5690700" lon="2.1068920">
        <ele>96.4</ele>
        <time>2022-09-26T07:18:44Z</time>
      </trkpt>
      <trkpt lat="41.5690850" lon="2.1068740">
        <ele>96.8</ele>
        <time>2022-09-26T07:18:45Z</time>
      </trkpt>
      <trkpt lat="41.5690990" lon="2.1068520">
        <ele>97.2</ele>
        <time>2022-09-26T07:18:46Z</time>
      </trkpt>
      <trkpt lat="41.5691140" lon="2.1068330">
        <ele>97.4</ele>
        <time>2022-09-26T07:18:47Z</time>
      </trkpt>
      <trkpt lat="41.5691290" lon="2.1068160">
        <ele>97.6</ele>
        <time>2022-09-26T07:18:48Z</time>
      </trkpt>
      <trkpt lat="41.5691480" lon="2.1068010">
        <ele>97.8</ele>
        <time>2022-09-26T07:18:49Z</time>
      </trkpt>
      <trkpt lat="41.5691690" lon="2.1067860">
        <ele>98.0</ele>
        <time>2022-09-26T07:18:50Z</time>
      </trkpt>
      <trkpt lat="41.5691920" lon="2.1067760">
        <ele>97.8</ele>
        <time>2022-09-26T07:18:51Z</time>
      </trkpt>
      <trkpt lat="41.5692150" lon="2.1067650">
        <ele>98.0</ele>
        <time>2022-09-26T07:18:52Z</time>
      </trkpt>
      <trkpt lat="41.5692350" lon="2.1067550">
        <ele>98.0</ele>
        <time>2022-09-26T07:18:53Z</time>
      </trkpt>
      <trkpt lat="41.5692560" lon="2.1067450">
        <ele>98.2</ele>
        <time>2022-09-26T07:18:54Z</time>
      </trkpt>
      <trkpt lat="41.5692800" lon="2.1067350">
        <ele>98.4</ele>
        <time>2022-09-26T07:18:55Z</time>
      </trkpt>
      <trkpt lat="41.5693020" lon="2.1067190">
        <ele>98.4</ele>
        <time>2022-09-26T07:18:56Z</time>
      </trkpt>
      <trkpt lat="41.5693210" lon="2.1067020">
        <ele>98.6</ele>
        <time>2022-09-26T07:18:57Z</time>
      </trkpt>
      <trkpt lat="41.5693410" lon="2.1066890">
        <ele>98.8</ele>
        <time>2022-09-26T07:18:58Z</time>
      </trkpt>
      <trkpt lat="41.5693610" lon="2.1066770">
        <ele>98.8</ele>
        <time>2022-09-26T07:18:59Z</time>
      </trkpt>
      <trkpt lat="41.5693840" lon="2.1066680">
        <ele>98.8</ele>
        <time>2022-09-26T07:19:00Z</time>
      </trkpt>
      <trkpt lat="41.5694090" lon="2.1066640">
        <ele>99.0</ele>
        <time>2022-09-26T07:19:01Z</time>
      </trkpt>
      <trkpt lat="41.5694320" lon="2.1066630">
        <ele>99.2</ele>
        <time>2022-09-26T07:19:02Z</time>
      </trkpt>
      <trkpt lat="41.5694560" lon="2.1066650">
        <ele>99.2</ele>
        <time>2022-09-26T07:19:03Z</time>
      </trkpt>
      <trkpt lat="41.5694780" lon="2.1066700">
        <ele>99.4</ele>
        <time>2022-09-26T07:19:04Z</time>
      </trkpt>
      <trkpt lat="41.5694990" lon="2.1066780">
        <ele>99.6</ele>
        <time>2022-09-26T07:19:05Z</time>
      </trkpt>
      <trkpt lat="41.5695200" lon="2.1066860">
        <ele>99.6</ele>
        <time>2022-09-26T07:19:06Z</time>
      </trkpt>
      <trkpt lat="41.5695400" lon="2.1066920">
        <ele>99.6</ele>
        <time>2022-09-26T07:19:07Z</time>
      </trkpt>
      <trkpt lat="41.5695620" lon="2.1067040">
        <ele>99.8</ele>
        <time>2022-09-26T07:19:08Z</time>
      </trkpt>
      <trkpt lat="41.5695850" lon="2.1067160">
        <ele>99.8</ele>
        <time>2022-09-26T07:19:09Z</time>
      </trkpt>
      <trkpt lat="41.5696060" lon="2.1067280">
        <ele>100.0</ele>
        <time>2022-09-26T07:19:10Z</time>
      </trkpt>
      <trkpt lat="41.5696250" lon="2.1067420">
        <ele>100.2</ele>
        <time>2022-09-26T07:19:11Z</time>
      </trkpt>
      <trkpt lat="41.5696400" lon="2.1067560">
        <ele>100.4</ele>
        <time>2022-09-26T07:19:12Z</time>
      </trkpt>
      <trkpt lat="41.5696600" lon="2.1067740">
        <ele>100.4</ele>
        <time>2022-09-26T07:19:13Z</time>
      </trkpt>
      <trkpt lat="41.5696780" lon="2.1067910">
        <ele>100.6</ele>
        <time>2022-09-26T07:19:14Z</time>
      </trkpt>
      <trkpt lat="41.5696910" lon="2.1068060">
        <ele>100.8</ele>
        <time>2022-09-26T07:19:15Z</time>
      </trkpt>
      <trkpt lat="41.5697030" lon="2.1068180">
        <ele>101.0</ele>
        <time>2022-09-26T07:19:16Z</time>
      </trkpt>
      <trkpt lat="41.5697120" lon="2.1068260">
        <ele>101.2</ele>
        <time>2022-09-26T07:19:17Z</time>
      </trkpt>
      <trkpt lat="41.5697260" lon="2.1068370">
        <ele>101.4</ele>
        <time>2022-09-26T07:19:18Z</time>
      </trkpt>
      <trkpt lat="41.5697440" lon="2.1068510">
        <ele>101.4</ele>
        <time>2022-09-26T07:19:19Z</time>
      </trkpt>
      <trkpt lat="41.5697540" lon="2.1068660">
        <ele>101.6</ele>
        <time>2022-09-26T07:19:20Z</time>
      </trkpt>
      <trkpt lat="41.5697690" lon="2.1068830">
        <ele>101.6</ele>
        <time>2022-09-26T07:19:21Z</time>
      </trkpt>
      <trkpt lat="41.5697890" lon="2.1069030">
        <ele>101.8</ele>
        <time>2022-09-26T07:19:22Z</time>
      </trkpt>
      <trkpt lat="41.5698090" lon="2.1069220">
        <ele>101.8</ele>
        <time>2022-09-26T07:19:23Z</time>
      </trkpt>
      <trkpt lat="41.5698290" lon="2.1069410">
        <ele>102.2</ele>
        <time>2022-09-26T07:19:24Z</time>
      </trkpt>
      <trkpt lat="41.5698390" lon="2.1069530">
        <ele>102.0</ele>
        <time>2022-09-26T07:19:25Z</time>
      </trkpt>
      <trkpt lat="41.5698530" lon="2.1069670">
        <ele>102.4</ele>
        <time>2022-09-26T07:19:26Z</time>
      </trkpt>
      <trkpt lat="41.5698640" lon="2.1069820">
        <ele>102.6</ele>
        <time>2022-09-26T07:19:27Z</time>
      </trkpt>
      <trkpt lat="41.5698740" lon="2.1069980">
        <ele>102.8</ele>
        <time>2022-09-26T07:19:28Z</time>
      </trkpt>
      <trkpt lat="41.5698860" lon="2.1070120">
        <ele>103.0</ele>
        <time>2022-09-26T07:19:29Z</time>
      </trkpt>
      <trkpt lat="41.5699030" lon="2.1070260">
        <ele>103.2</ele>
        <time>2022-09-26T07:19:30Z</time>
      </trkpt>
      <trkpt lat="41.5699150" lon="2.1070400">
        <ele>103.4</ele>
        <time>2022-09-26T07:19:31Z</time>
      </trkpt>
      <trkpt lat="41.5699270" lon="2.1070510">
        <ele>103.6</ele>
        <time>2022-09-26T07:19:32Z</time>
      </trkpt>
      <trkpt lat="41.5699410" lon="2.1070600">
        <ele>103.8</ele>
        <time>2022-09-26T07:19:33Z</time>
      </trkpt>
      <trkpt lat="41.5699620" lon="2.1070720">
        <ele>103.8</ele>
        <time>2022-09-26T07:19:34Z</time>
      </trkpt>
      <trkpt lat="41.5699890" lon="2.1070800">
        <ele>104.0</ele>
        <time>2022-09-26T07:19:35Z</time>
      </trkpt>
      <trkpt lat="41.5700160" lon="2.1070800">
        <ele>104.2</ele>
        <time>2022-09-26T07:19:36Z</time>
      </trkpt>
      <trkpt lat="41.5700470" lon="2.1070780">
        <ele>104.2</ele>
        <time>2022-09-26T07:19:37Z</time>
      </trkpt>
      <trkpt lat="41.5700730" lon="2.1070700">
        <ele>104.4</ele>
        <time>2022-09-26T07:19:38Z</time>
      </trkpt>
      <trkpt lat="41.5701030" lon="2.1070660">
        <ele>104.6</ele>
        <time>2022-09-26T07:19:39Z</time>
      </trkpt>
      <trkpt lat="41.5701270" lon="2.1070630">
        <ele>105.0</ele>
        <time>2022-09-26T07:19:40Z</time>
      </trkpt>
      <trkpt lat="41.5701550" lon="2.1070590">
        <ele>105.2</ele>
        <time>2022-09-26T07:19:41Z</time>
      </trkpt>
      <trkpt lat="41.5701740" lon="2.1070540">
        <ele>105.4</ele>
        <time>2022-09-26T07:19:42Z</time>
      </trkpt>
      <trkpt lat="41.5701960" lon="2.1070460">
        <ele>105.4</ele>
        <time>2022-09-26T07:19:43Z</time>
      </trkpt>
      <trkpt lat="41.5702200" lon="2.1070280">
        <ele>105.6</ele>
        <time>2022-09-26T07:19:44Z</time>
      </trkpt>
      <trkpt lat="41.5702440" lon="2.1070120">
        <ele>105.6</ele>
        <time>2022-09-26T07:19:45Z</time>
      </trkpt>
      <trkpt lat="41.5702640" lon="2.1069980">
        <ele>105.8</ele>
        <time>2022-09-26T07:19:46Z</time>
      </trkpt>
      <trkpt lat="41.5702760" lon="2.1069850">
        <ele>106.0</ele>
        <time>2022-09-26T07:19:47Z</time>
      </trkpt>
      <trkpt lat="41.5702910" lon="2.1069800">
        <ele>106.0</ele>
        <time>2022-09-26T07:19:48Z</time>
      </trkpt>
      <trkpt lat="41.5703100" lon="2.1069570">
        <ele>106.4</ele>
        <time>2022-09-26T07:19:49Z</time>
      </trkpt>
      <trkpt lat="41.5703230" lon="2.1069380">
        <ele>106.2</ele>
        <time>2022-09-26T07:19:50Z</time>
      </trkpt>
      <trkpt lat="41.5703390" lon="2.1069170">
        <ele>106.4</ele>
        <time>2022-09-26T07:19:51Z</time>
      </trkpt>
      <trkpt lat="41.5703560" lon="2.1068970">
        <ele>106.6</ele>
        <time>2022-09-26T07:19:52Z</time>
      </trkpt>
      <trkpt lat="41.5703730" lon="2.1068790">
        <ele>106.8</ele>
        <time>2022-09-26T07:19:53Z</time>
      </trkpt>
      <trkpt lat="41.5703960" lon="2.1068570">
        <ele>106.8</ele>
        <time>2022-09-26T07:19:54Z</time>
      </trkpt>
      <trkpt lat="41.5704120" lon="2.1068390">
        <ele>107.0</ele>
        <time>2022-09-26T07:19:55Z</time>
      </trkpt>
      <trkpt lat="41.5704280" lon="2.1068260">
        <ele>107.2</ele>
        <time>2022-09-26T07:19:56Z</time>
      </trkpt>
      <trkpt lat="41.5704480" lon="2.1068120">
        <ele>107.4</ele>
        <time>2022-09-26T07:19:57Z</time>
      </trkpt>
      <trkpt lat="41.5704670" lon="2.1067910">
        <ele>107.4</ele>
        <time>2022-09-26T07:19:58Z</time>
      </trkpt>
      <trkpt lat="41.5704890" lon="2.1067720">
        <ele>107.6</ele>
        <time>2022-09-26T07:19:59Z</time>
      </trkpt>
      <trkpt lat="41.5705080" lon="2.1067540">
        <ele>107.8</ele>
        <time>2022-09-26T07:20:00Z</time>
      </trkpt>
      <trkpt lat="41.5705280" lon="2.1067330">
        <ele>108.0</ele>
        <time>2022-09-26T07:20:01Z</time>
      </trkpt>
      <trkpt lat="41.5705470" lon="2.1067100">
        <ele>108.2</ele>
        <time>2022-09-26T07:20:02Z</time>
      </trkpt>
      <trkpt lat="41.5705670" lon="2.1066900">
        <ele>108.2</ele>
        <time>2022-09-26T07:20:03Z</time>
      </trkpt>
      <trkpt lat="41.5705810" lon="2.1066600">
        <ele>108.2</ele>
        <time>2022-09-26T07:20:04Z</time>
      </trkpt>
      <trkpt lat="41.5705970" lon="2.1066390">
        <ele>108.4</ele>
        <time>2022-09-26T07:20:05Z</time>
      </trkpt>
      <trkpt lat="41.5706150" lon="2.1066220">
        <ele>108.6</ele>
        <time>2022-09-26T07:20:06Z</time>
      </trkpt>
      <trkpt lat="41.5706270" lon="2.1065980">
        <ele>108.6</ele>
        <time>2022-09-26T07:20:07Z</time>
      </trkpt>
      <trkpt lat="41.5706420" lon="2.1065710">
        <ele>108.6</ele>
        <time>2022-09-26T07:20:08Z</time>
      </trkpt>
      <trkpt lat="41.5706610" lon="2.1065480">
        <ele>108.8</ele>
        <time>2022-09-26T07:20:09Z</time>
      </trkpt>
      <trkpt lat="41.5706790" lon="2.1065290">
        <ele>108.8</ele>
        <time>2022-09-26T07:20:10Z</time>
      </trkpt>
      <trkpt lat="41.5706970" lon="2.1065100">
        <ele>109.0</ele>
        <time>2022-09-26T07:20:11Z</time>
      </trkpt>
      <trkpt lat="41.5707160" lon="2.1064920">
        <ele>109.2</ele>
        <time>2022-09-26T07:20:12Z</time>
      </trkpt>
      <trkpt lat="41.5707300" lon="2.1064550">
        <ele>109.4</ele>
        <time>2022-09-26T07:20:13Z</time>
      </trkpt>
      <trkpt lat="41.5707470" lon="2.1064380">
        <ele>109.4</ele>
        <time>2022-09-26T07:20:14Z</time>
      </trkpt>
      <trkpt lat="41.5707620" lon="2.1064170">
        <ele>109.6</ele>
        <time>2022-09-26T07:20:15Z</time>
      </trkpt>
      <trkpt lat="41.5707830" lon="2.1064040">
        <ele>109.6</ele>
        <time>2022-09-26T07:20:16Z</time>
      </trkpt>
      <trkpt lat="41.5708110" lon="2.1063850">
        <ele>109.8</ele>
        <time>2022-09-26T07:20:17Z</time>
      </trkpt>
      <trkpt lat="41.5708340" lon="2.1063760">
        <ele>110.0</ele>
        <time>2022-09-26T07:20:18Z</time>
      </trkpt>
      <trkpt lat="41.5708560" lon="2.1063600">
        <ele>110.2</ele>
        <time>2022-09-26T07:20:19Z</time>
      </trkpt>
      <trkpt lat="41.5708780" lon="2.1063520">
        <ele>110.4</ele>
        <time>2022-09-26T07:20:20Z</time>
      </trkpt>
      <trkpt lat="41.5709060" lon="2.1063340">
        <ele>110.6</ele>
        <time>2022-09-26T07:20:21Z</time>
      </trkpt>
      <trkpt lat="41.5709310" lon="2.1063350">
        <ele>110.8</ele>
        <time>2022-09-26T07:20:22Z</time>
      </trkpt>
      <trkpt lat="41.5709570" lon="2.1063370">
        <ele>111.0</ele>
        <time>2022-09-26T07:20:23Z</time>
      </trkpt>
      <trkpt lat="41.5709780" lon="2.1063380">
        <ele>111.0</ele>
        <time>2022-09-26T07:20:24Z</time>
      </trkpt>
      <trkpt lat="41.5709960" lon="2.1063380">
        <ele>111.2</ele>
        <time>2022-09-26T07:20:25Z</time>
      </trkpt>
      <trkpt lat="41.5710090" lon="2.1063560">
        <ele>111.2</ele>
        <time>2022-09-26T07:20:26Z</time>
      </trkpt>
      <trkpt lat="41.5710150" lon="2.1063730">
        <ele>111.4</ele>
        <time>2022-09-26T07:20:27Z</time>
      </trkpt>
      <trkpt lat="41.5710180" lon="2.1063850">
        <ele>111.8</ele>
        <time>2022-09-26T07:20:28Z</time>
      </trkpt>
      <trkpt lat="41.5710160" lon="2.1064000">
        <ele>112.0</ele>
        <time>2022-09-26T07:20:29Z</time>
      </trkpt>
      <trkpt lat="41.5710330" lon="2.1063990">
        <ele>112.2</ele>
        <time>2022-09-26T07:20:30Z</time>
      </trkpt>
      <trkpt lat="41.5710330" lon="2.1064130">
        <ele>112.4</ele>
        <time>2022-09-26T07:20:31Z</time>
      </trkpt>
      <trkpt lat="41.5710260" lon="2.1064320">
        <ele>112.4</ele>
        <time>2022-09-26T07:20:32Z</time>
      </trkpt>
      <trkpt lat="41.5710180" lon="2.1064520">
        <ele>112.6</ele>
        <time>2022-09-26T07:20:33Z</time>
      </trkpt>
      <trkpt lat="41.5710120" lon="2.1064690">
        <ele>112.6</ele>
        <time>2022-09-26T07:20:34Z</time>
      </trkpt>
      <trkpt lat="41.5710120" lon="2.1064830">
        <ele>112.8</ele>
        <time>2022-09-26T07:20:35Z</time>
      </trkpt>
      <trkpt lat="41.5710100" lon="2.1064920">
        <ele>113.0</ele>
        <time>2022-09-26T07:20:36Z</time>
      </trkpt>
      <trkpt lat="41.5710070" lon="2.1065070">
        <ele>113.2</ele>
        <time>2022-09-26T07:20:37Z</time>
      </trkpt>
      <trkpt lat="41.5710010" lon="2.1065270">
        <ele>113.2</ele>
        <time>2022-09-26T07:20:38Z</time>
      </trkpt>
      <trkpt lat="41.5709990" lon="2.1065470">
        <ele>113.4</ele>
        <time>2022-09-26T07:20:39Z</time>
      </trkpt>
      <trkpt lat="41.5709990" lon="2.1065720">
        <ele>113.8</ele>
        <time>2022-09-26T07:20:40Z</time>
      </trkpt>
      <trkpt lat="41.5709960" lon="2.1065910">
        <ele>113.8</ele>
        <time>2022-09-26T07:20:41Z</time>
      </trkpt>
      <trkpt lat="41.5709910" lon="2.1066090">
        <ele>114.0</ele>
        <time>2022-09-26T07:20:42Z</time>
      </trkpt>
      <trkpt lat="41.5709860" lon="2.1066280">
        <ele>114.2</ele>
        <time>2022-09-26T07:20:43Z</time>
      </trkpt>
      <trkpt lat="41.5709790" lon="2.1066470">
        <ele>114.4</ele>
        <time>2022-09-26T07:20:44Z</time>
      </trkpt>
      <trkpt lat="41.5709730" lon="2.1066730">
        <ele>114.6</ele>
        <time>2022-09-26T07:20:45Z</time>
      </trkpt>
      <trkpt lat="41.5709640" lon="2.1066970">
        <ele>114.8</ele>
        <time>2022-09-26T07:20:46Z</time>
      </trkpt>
      <trkpt lat="41.5709560" lon="2.1067190">
        <ele>115.0</ele>
        <time>2022-09-26T07:20:47Z</time>
      </trkpt>
      <trkpt lat="41.5709470" lon="2.1067370">
        <ele>115.2</ele>
        <time>2022-09-26T07:20:48Z</time>
      </trkpt>
      <trkpt lat="41.5709370" lon="2.1067550">
        <ele>115.6</ele>
        <time>2022-09-26T07:20:49Z</time>
      </trkpt>
      <trkpt lat="41.5709280" lon="2.1067740">
        <ele>115.8</ele>
        <time>2022-09-26T07:20:50Z</time>
      </trkpt>
      <trkpt lat="41.5709210" lon="2.1067950">
        <ele>116.0</ele>
        <time>2022-09-26T07:20:51Z</time>
      </trkpt>
      <trkpt lat="41.5709110" lon="2.1068220">
        <ele>116.0</ele>
        <time>2022-09-26T07:20:52Z</time>
      </trkpt>
      <trkpt lat="41.5708990" lon="2.1068460">
        <ele>116.2</ele>
        <time>2022-09-26T07:20:53Z</time>
      </trkpt>
      <trkpt lat="41.5708930" lon="2.1068640">
        <ele>116.2</ele>
        <time>2022-09-26T07:20:54Z</time>
      </trkpt>
      <trkpt lat="41.5708860" lon="2.1068860">
        <ele>116.4</ele>
        <time>2022-09-26T07:20:55Z</time>
      </trkpt>
      <trkpt lat="41.5708780" lon="2.1069030">
        <ele>116.4</ele>
        <time>2022-09-26T07:20:56Z</time>
      </trkpt>
      <trkpt lat="41.5708710" lon="2.1069240">
        <ele>116.6</ele>
        <time>2022-09-26T07:20:57Z</time>
      </trkpt>
      <trkpt lat="41.5708640" lon="2.1069450">
        <ele>116.8</ele>
        <time>2022-09-26T07:20:58Z</time>
      </trkpt>
      <trkpt lat="41.5708550" lon="2.1069670">
        <ele>117.0</ele>
        <time>2022-09-26T07:20:59Z</time>
      </trkpt>
      <trkpt lat="41.5708490" lon="2.1069860">
        <ele>117.2</ele>
        <time>2022-09-26T07:21:00Z</time>
      </trkpt>
      <trkpt lat="41.5708410" lon="2.1070070">
        <ele>117.4</ele>
        <time>2022-09-26T07:21:01Z</time>
      </trkpt>
      <trkpt lat="41.5708310" lon="2.1070290">
        <ele>117.8</ele>
        <time>2022-09-26T07:21:02Z</time>
      </trkpt>
      <trkpt lat="41.5708210" lon="2.1070520">
        <ele>117.8</ele>
        <time>2022-09-26T07:21:03Z</time>
      </trkpt>
      <trkpt lat="41.5708120" lon="2.1070750">
        <ele>118.0</ele>
        <time>2022-09-26T07:21:04Z</time>
      </trkpt>
      <trkpt lat="41.5708080" lon="2.1070980">
        <ele>118.2</ele>
        <time>2022-09-26T07:21:05Z</time>
      </trkpt>
      <trkpt lat="41.5708010" lon="2.1071220">
        <ele>118.2</ele>
        <time>2022-09-26T07:21:06Z</time>
      </trkpt>
      <trkpt lat="41.5707950" lon="2.1071480">
        <ele>118.4</ele>
        <time>2022-09-26T07:21:07Z</time>
      </trkpt>
      <trkpt lat="41.5707870" lon="2.1071770">
        <ele>118.8</ele>
        <time>2022-09-26T07:21:08Z</time>
      </trkpt>
      <trkpt lat="41.5707810" lon="2.1072060">
        <ele>119.0</ele>
        <time>2022-09-26T07:21:09Z</time>
      </trkpt>
      <trkpt lat="41.5707770" lon="2.1072320">
        <ele>119.2</ele>
        <time>2022-09-26T07:21:10Z</time>
      </trkpt>
      <trkpt lat="41.5707710" lon="2.1072570">
        <ele>119.4</ele>
        <time>2022-09-26T07:21:11Z</time>
      </trkpt>
      <trkpt lat="41.5707670" lon="2.1072810">
        <ele>119.4</ele>
        <time>2022-09-26T07:21:12Z</time>
      </trkpt>
      <trkpt lat="41.5707590" lon="2.1073090">
        <ele>119.6</ele>
        <time>2022-09-26T07:21:13Z</time>
      </trkpt>
      <trkpt lat="41.5707520" lon="2.1073350">
        <ele>119.8</ele>
        <time>2022-09-26T07:21:14Z</time>
      </trkpt>
      <trkpt lat="41.5707490" lon="2.1073610">
        <ele>119.8</ele>
        <time>2022-09-26T07:21:15Z</time>
      </trkpt>
      <trkpt lat="41.5707440" lon="2.1073900">
        <ele>120.0</ele>
        <time>2022-09-26T07:21:16Z</time>
      </trkpt>
      <trkpt lat="41.5707370" lon="2.1074200">
        <ele>120.2</ele>
        <time>2022-09-26T07:21:17Z</time>
      </trkpt>
      <trkpt lat="41.5707300" lon="2.1074510">
        <ele>120.4</ele>
        <time>2022-09-26T07:21:18Z</time>
      </trkpt>
      <trkpt lat="41.5707270" lon="2.1074810">
        <ele>120.6</ele>
        <time>2022-09-26T07:21:19Z</time>
      </trkpt>
      <trkpt lat="41.5707210" lon="2.1075100">
        <ele>120.8</ele>
        <time>2022-09-26T07:21:20Z</time>
      </trkpt>
      <trkpt lat="41.5707160" lon="2.1075390">
        <ele>121.0</ele>
        <time>2022-09-26T07:21:21Z</time>
      </trkpt>
      <trkpt lat="41.5707100" lon="2.1075690">
        <ele>121.2</ele>
        <time>2022-09-26T07:21:22Z</time>
      </trkpt>
      <trkpt lat="41.5707030" lon="2.1075950">
        <ele>121.4</ele>
        <time>2022-09-26T07:21:23Z</time>
      </trkpt>
      <trkpt lat="41.5706960" lon="2.1076220">
        <ele>121.4</ele>
        <time>2022-09-26T07:21:24Z</time>
      </trkpt>
      <trkpt lat="41.5706890" lon="2.1076500">
        <ele>121.6</ele>
        <time>2022-09-26T07:21:25Z</time>
      </trkpt>
      <trkpt lat="41.5706820" lon="2.1076740">
        <ele>121.6</ele>
        <time>2022-09-26T07:21:26Z</time>
      </trkpt>
      <trkpt lat="41.5706710" lon="2.1077000">
        <ele>122.0</ele>
        <time>2022-09-26T07:21:27Z</time>
      </trkpt>
      <trkpt lat="41.5706620" lon="2.1077280">
        <ele>122.4</ele>
        <time>2022-09-26T07:21:28Z</time>
      </trkpt>
      <trkpt lat="41.5706550" lon="2.1077530">
        <ele>122.4</ele>
        <time>2022-09-26T07:21:29Z</time>
      </trkpt>
      <trkpt lat="41.5706480" lon="2.1077810">
        <ele>122.6</ele>
        <time>2022-09-26T07:21:30Z</time>
      </trkpt>
      <trkpt lat="41.5706400" lon="2.1078070">
        <ele>122.8</ele>
        <time>2022-09-26T07:21:31Z</time>
      </trkpt>
      <trkpt lat="41.5706320" lon="2.1078320">
        <ele>123.0</ele>
        <time>2022-09-26T07:21:32Z</time>
      </trkpt>
      <trkpt lat="41.5706220" lon="2.1078600">
        <ele>123.2</ele>
        <time>2022-09-26T07:21:33Z</time>
      </trkpt>
      <trkpt lat="41.5706140" lon="2.1078880">
        <ele>123.2</ele>
        <time>2022-09-26T07:21:34Z</time>
      </trkpt>
      <trkpt lat="41.5706070" lon="2.1079170">
        <ele>123.4</ele>
        <time>2022-09-26T07:21:35Z</time>
      </trkpt>
      <trkpt lat="41.5706000" lon="2.1079430">
        <ele>123.6</ele>
        <time>2022-09-26T07:21:36Z</time>
      </trkpt>
      <trkpt lat="41.5705940" lon="2.1079670">
        <ele>123.8</ele>
        <time>2022-09-26T07:21:37Z</time>
      </trkpt>
      <trkpt lat="41.5705880" lon="2.1079870">
        <ele>124.0</ele>
        <time>2022-09-26T07:21:38Z</time>
      </trkpt>
      <trkpt lat="41.5705810" lon="2.1080100">
        <ele>124.2</ele>
        <time>2022-09-26T07:21:39Z</time>
      </trkpt>
      <trkpt lat="41.5705730" lon="2.1080330">
        <ele>124.4</ele>
        <time>2022-09-26T07:21:40Z</time>
      </trkpt>
      <trkpt lat="41.5705660" lon="2.1080550">
        <ele>124.6</ele>
        <time>2022-09-26T07:21:41Z</time>
      </trkpt>
      <trkpt lat="41.5705570" lon="2.1080750">
        <ele>124.8</ele>
        <time>2022-09-26T07:21:42Z</time>
      </trkpt>
      <trkpt lat="41.5705470" lon="2.1080860">
        <ele>125.0</ele>
        <time>2022-09-26T07:21:43Z</time>
      </trkpt>
      <trkpt lat="41.5705360" lon="2.1081030">
        <ele>125.2</ele>
        <time>2022-09-26T07:21:44Z</time>
      </trkpt>
      <trkpt lat="41.5705250" lon="2.1081240">
        <ele>125.2</ele>
        <time>2022-09-26T07:21:45Z</time>
      </trkpt>
      <trkpt lat="41.5705130" lon="2.1081430">
        <ele>125.4</ele>
        <time>2022-09-26T07:21:46Z</time>
      </trkpt>
      <trkpt lat="41.5705020" lon="2.1081620">
        <ele>125.8</ele>
        <time>2022-09-26T07:21:47Z</time>
      </trkpt>
      <trkpt lat="41.5704920" lon="2.1081850">
        <ele>126.0</ele>
        <time>2022-09-26T07:21:48Z</time>
      </trkpt>
      <trkpt lat="41.5704820" lon="2.1082080">
        <ele>126.2</ele>
        <time>2022-09-26T07:21:49Z</time>
      </trkpt>
      <trkpt lat="41.5704720" lon="2.1082330">
        <ele>126.2</ele>
        <time>2022-09-26T07:21:50Z</time>
      </trkpt>
      <trkpt lat="41.5704590" lon="2.1082580">
        <ele>126.4</ele>
        <time>2022-09-26T07:21:51Z</time>
      </trkpt>
      <trkpt lat="41.5704490" lon="2.1082820">
        <ele>126.4</ele>
        <time>2022-09-26T07:21:52Z</time>
      </trkpt>
      <trkpt lat="41.5704360" lon="2.1083090">
        <ele>126.8</ele>
        <time>2022-09-26T07:21:53Z</time>
      </trkpt>
      <trkpt lat="41.5704220" lon="2.1083350">
        <ele>127.0</ele>
        <time>2022-09-26T07:21:54Z</time>
      </trkpt>
      <trkpt lat="41.5704090" lon="2.1083670">
        <ele>127.0</ele>
        <time>2022-09-26T07:21:55Z</time>
      </trkpt>
      <trkpt lat="41.5703970" lon="2.1083940">
        <ele>127.2</ele>
        <time>2022-09-26T07:21:56Z</time>
      </trkpt>
      <trkpt lat="41.5703810" lon="2.1084200">
        <ele>127.4</ele>
        <time>2022-09-26T07:21:57Z</time>
      </trkpt>
      <trkpt lat="41.5703670" lon="2.1084420">
        <ele>127.6</ele>
        <time>2022-09-26T07:21:58Z</time>
      </trkpt>
      <trkpt lat="41.5703520" lon="2.1084630">
        <ele>127.6</ele>
        <time>2022-09-26T07:21:59Z</time>
      </trkpt>
      <trkpt lat="41.5703380" lon="2.1084820">
        <ele>127.8</ele>
        <time>2022-09-26T07:22:00Z</time>
      </trkpt>
      <trkpt lat="41.5703270" lon="2.1085080">
        <ele>128.0</ele>
        <time>2022-09-26T07:22:01Z</time>
      </trkpt>
      <trkpt lat="41.5703150" lon="2.1085360">
        <ele>128.0</ele>
        <time>2022-09-26T07:22:02Z</time>
      </trkpt>
      <trkpt lat="41.5703020" lon="2.1085640">
        <ele>128.2</ele>
        <time>2022-09-26T07:22:03Z</time>
      </trkpt>
      <trkpt lat="41.5702910" lon="2.1085910">
        <ele>128.4</ele>
        <time>2022-09-26T07:22:04Z</time>
      </trkpt>
      <trkpt lat="41.5702810" lon="2.1086150">
        <ele>128.6</ele>
        <time>2022-09-26T07:22:05Z</time>
      </trkpt>
      <trkpt lat="41.5702710" lon="2.1086370">
        <ele>128.8</ele>
        <time>2022-09-26T07:22:06Z</time>
      </trkpt>
      <trkpt lat="41.5702610" lon="2.1086610">
        <ele>128.8</ele>
        <time>2022-09-26T07:22:07Z</time>
      </trkpt>
      <trkpt lat="41.5702530" lon="2.1086870">
        <ele>129.0</ele>
        <time>2022-09-26T07:22:08Z</time>
      </trkpt>
      <trkpt lat="41.5702450" lon="2.1087160">
        <ele>129.2</ele>
        <time>2022-09-26T07:22:09Z</time>
      </trkpt>
      <trkpt lat="41.5702370" lon="2.1087400">
        <ele>129.4</ele>
        <time>2022-09-26T07:22:10Z</time>
      </trkpt>
      <trkpt lat="41.5702300" lon="2.1087690">
        <ele>129.6</ele>
        <time>2022-09-26T07:22:11Z</time>
      </trkpt>
      <trkpt lat="41.5702260" lon="2.1087960">
        <ele>129.6</ele>
        <time>2022-09-26T07:22:12Z</time>
      </trkpt>
      <trkpt lat="41.5702200" lon="2.1088220">
        <ele>129.8</ele>
        <time>2022-09-26T07:22:13Z</time>
      </trkpt>
      <trkpt lat="41.5702170" lon="2.1088500">
        <ele>130.0</ele>
        <time>2022-09-26T07:22:14Z</time>
      </trkpt>
      <trkpt lat="41.5702150" lon="2.1088820">
        <ele>130.2</ele>
        <time>2022-09-26T07:22:15Z</time>
      </trkpt>
      <trkpt lat="41.5702160" lon="2.1089090">
        <ele>130.4</ele>
        <time>2022-09-26T07:22:16Z</time>
      </trkpt>
      <trkpt lat="41.5702180" lon="2.1089380">
        <ele>130.4</ele>
        <time>2022-09-26T07:22:17Z</time>
      </trkpt>
      <trkpt lat="41.5702220" lon="2.1089680">
        <ele>130.4</ele>
        <time>2022-09-26T07:22:18Z</time>
      </trkpt>
      <trkpt lat="41.5702220" lon="2.1090000">
        <ele>130.6</ele>
        <time>2022-09-26T07:22:19Z</time>
      </trkpt>
      <trkpt lat="41.5702240" lon="2.1090400">
        <ele>130.8</ele>
        <time>2022-09-26T07:22:20Z</time>
      </trkpt>
      <trkpt lat="41.5702280" lon="2.1090710">
        <ele>131.2</ele>
        <time>2022-09-26T07:22:21Z</time>
      </trkpt>
      <trkpt lat="41.5702330" lon="2.1091060">
        <ele>131.4</ele>
        <time>2022-09-26T07:22:22Z</time>
      </trkpt>
      <trkpt lat="41.5702470" lon="2.1091300">
        <ele>131.6</ele>
        <time>2022-09-26T07:22:23Z</time>
      </trkpt>
      <trkpt lat="41.5702670" lon="2.1091520">
        <ele>131.6</ele>
        <time>2022-09-26T07:22:24Z</time>
      </trkpt>
      <trkpt lat="41.5702770" lon="2.1091650">
        <ele>131.8</ele>
        <time>2022-09-26T07:22:25Z</time>
      </trkpt>
      <trkpt lat="41.5702890" lon="2.1091730">
        <ele>131.8</ele>
        <time>2022-09-26T07:22:26Z</time>
      </trkpt>
      <trkpt lat="41.5703020" lon="2.1091750">
        <ele>132.0</ele>
        <time>2022-09-26T07:22:27Z</time>
      </trkpt>
      <trkpt lat="41.5703170" lon="2.1091710">
        <ele>132.0</ele>
        <time>2022-09-26T07:22:28Z</time>
      </trkpt>
      <trkpt lat="41.5703360" lon="2.1091650">
        <ele>132.0</ele>
        <time>2022-09-26T07:22:29Z</time>
      </trkpt>
      <trkpt lat="41.5703540" lon="2.1091610">
        <ele>132.2</ele>
        <time>2022-09-26T07:22:30Z</time>
      </trkpt>
      <trkpt lat="41.5703680" lon="2.1091560">
        <ele>132.2</ele>
        <time>2022-09-26T07:22:31Z</time>
      </trkpt>
      <trkpt lat="41.5703860" lon="2.1091470">
        <ele>132.6</ele>
        <time>2022-09-26T07:22:32Z</time>
      </trkpt>
      <trkpt lat="41.5704050" lon="2.1091340">
        <ele>132.6</ele>
        <time>2022-09-26T07:22:33Z</time>
      </trkpt>
      <trkpt lat="41.5704220" lon="2.1091220">
        <ele>132.8</ele>
        <time>2022-09-26T07:22:34Z</time>
      </trkpt>
      <trkpt lat="41.5704370" lon="2.1091070">
        <ele>132.8</ele>
        <time>2022-09-26T07:22:35Z</time>
      </trkpt>
      <trkpt lat="41.5704480" lon="2.1090930">
        <ele>133.0</ele>
        <time>2022-09-26T07:22:36Z</time>
      </trkpt>
      <trkpt lat="41.5704570" lon="2.1090790">
        <ele>133.0</ele>
        <time>2022-09-26T07:22:37Z</time>
      </trkpt>
      <trkpt lat="41.5704670" lon="2.1090660">
        <ele>133.2</ele>
        <time>2022-09-26T07:22:38Z</time>
      </trkpt>
      <trkpt lat="41.5704790" lon="2.1090540">
        <ele>133.4</ele>
        <time>2022-09-26T07:22:39Z</time>
      </trkpt>
      <trkpt lat="41.5704900" lon="2.1090490">
        <ele>133.6</ele>
        <time>2022-09-26T07:22:40Z</time>
      </trkpt>
      <trkpt lat="41.5705060" lon="2.1090360">
        <ele>133.6</ele>
        <time>2022-09-26T07:22:41Z</time>
      </trkpt>
      <trkpt lat="41.5705190" lon="2.1090220">
        <ele>133.8</ele>
        <time>2022-09-26T07:22:42Z</time>
      </trkpt>
      <trkpt lat="41.5705330" lon="2.1090100">
        <ele>134.0</ele>
        <time>2022-09-26T07:22:43Z</time>
      </trkpt>
      <trkpt lat="41.5705430" lon="2.1089910">
        <ele>134.0</ele>
        <time>2022-09-26T07:22:44Z</time>
      </trkpt>
      <trkpt lat="41.5705520" lon="2.1089750">
        <ele>134.2</ele>
        <time>2022-09-26T07:22:45Z</time>
      </trkpt>
      <trkpt lat="41.5705640" lon="2.1089570">
        <ele>134.2</ele>
        <time>2022-09-26T07:22:46Z</time>
      </trkpt>
      <trkpt lat="41.5705830" lon="2.1089390">
        <ele>134.2</ele>
        <time>2022-09-26T07:22:47Z</time>
      </trkpt>
      <trkpt lat="41.5706020" lon="2.1089210">
        <ele>134.4</ele>
        <time>2022-09-26T07:22:48Z</time>
      </trkpt>
      <trkpt lat="41.5706200" lon="2.1089010">
        <ele>134.4</ele>
        <time>2022-09-26T07:22:49Z</time>
      </trkpt>
      <trkpt lat="41.5706450" lon="2.1088670">
        <ele>134.6</ele>
        <time>2022-09-26T07:22:50Z</time>
      </trkpt>
      <trkpt lat="41.5706590" lon="2.1088340">
        <ele>134.6</ele>
        <time>2022-09-26T07:22:51Z</time>
      </trkpt>
      <trkpt lat="41.5706770" lon="2.1087990">
        <ele>134.6</ele>
        <time>2022-09-26T07:22:52Z</time>
      </trkpt>
      <trkpt lat="41.5706960" lon="2.1087690">
        <ele>134.6</ele>
        <time>2022-09-26T07:22:53Z</time>
      </trkpt>
      <trkpt lat="41.5707170" lon="2.1087370">
        <ele>134.6</ele>
        <time>2022-09-26T07:22:54Z</time>
      </trkpt>
      <trkpt lat="41.5707390" lon="2.1086990">
        <ele>134.6</ele>
        <time>2022-09-26T07:22:55Z</time>
      </trkpt>
      <trkpt lat="41.5707620" lon="2.1086630">
        <ele>134.6</ele>
        <time>2022-09-26T07:22:56Z</time>
      </trkpt>
      <trkpt lat="41.5707830" lon="2.1086360">
        <ele>134.6</ele>
        <time>2022-09-26T07:22:57Z</time>
      </trkpt>
      <trkpt lat="41.5708030" lon="2.1086000">
        <ele>134.6</ele>
        <time>2022-09-26T07:22:58Z</time>
      </trkpt>
      <trkpt lat="41.5708240" lon="2.1085640">
        <ele>134.8</ele>
        <time>2022-09-26T07:22:59Z</time>
      </trkpt>
      <trkpt lat="41.5708470" lon="2.1085250">
        <ele>134.8</ele>
        <time>2022-09-26T07:23:00Z</time>
      </trkpt>
      <trkpt lat="41.5708660" lon="2.1084840">
        <ele>134.8</ele>
        <time>2022-09-26T07:23:01Z</time>
      </trkpt>
      <trkpt lat="41.5708830" lon="2.1084470">
        <ele>134.8</ele>
        <time>2022-09-26T07:23:02Z</time>
      </trkpt>
      <trkpt lat="41.5708980" lon="2.1084090">
        <ele>135.0</ele>
        <time>2022-09-26T07:23:03Z</time>
      </trkpt>
      <trkpt lat="41.5709150" lon="2.1083770">
        <ele>135.0</ele>
        <time>2022-09-26T07:23:04Z</time>
      </trkpt>
      <trkpt lat="41.5709290" lon="2.1083510">
        <ele>135.0</ele>
        <time>2022-09-26T07:23:05Z</time>
      </trkpt>
      <trkpt lat="41.5709420" lon="2.1083300">
        <ele>135.2</ele>
        <time>2022-09-26T07:23:06Z</time>
      </trkpt>
      <trkpt lat="41.5709560" lon="2.1082990">
        <ele>135.2</ele>
        <time>2022-09-26T07:23:07Z</time>
      </trkpt>
      <trkpt lat="41.5709640" lon="2.1082710">
        <ele>135.4</ele>
        <time>2022-09-26T07:23:08Z</time>
      </trkpt>
      <trkpt lat="41.5709750" lon="2.1082190">
        <ele>135.4</ele>
        <time>2022-09-26T07:23:09Z</time>
      </trkpt>
      <trkpt lat="41.5709870" lon="2.1081820">
        <ele>135.4</ele>
        <time>2022-09-26T07:23:10Z</time>
      </trkpt>
      <trkpt lat="41.5709970" lon="2.1081470">
        <ele>135.4</ele>
        <time>2022-09-26T07:23:11Z</time>
      </trkpt>
      <trkpt lat="41.5710040" lon="2.1081120">
        <ele>135.4</ele>
        <time>2022-09-26T07:23:12Z</time>
      </trkpt>
      <trkpt lat="41.5710140" lon="2.1080770">
        <ele>135.4</ele>
        <time>2022-09-26T07:23:13Z</time>
      </trkpt>
      <trkpt lat="41.5710280" lon="2.1080430">
        <ele>135.6</ele>
        <time>2022-09-26T07:23:14Z</time>
      </trkpt>
      <trkpt lat="41.5710420" lon="2.1080050">
        <ele>135.6</ele>
        <time>2022-09-26T07:23:15Z</time>
      </trkpt>
      <trkpt lat="41.5710510" lon="2.1079750">
        <ele>135.6</ele>
        <time>2022-09-26T07:23:16Z</time>
      </trkpt>
      <trkpt lat="41.5710640" lon="2.1079490">
        <ele>135.8</ele>
        <time>2022-09-26T07:23:17Z</time>
      </trkpt>
      <trkpt lat="41.5710860" lon="2.1079140">
        <ele>135.8</ele>
        <time>2022-09-26T07:23:18Z</time>
      </trkpt>
      <trkpt lat="41.5710990" lon="2.1078890">
        <ele>135.8</ele>
        <time>2022-09-26T07:23:19Z</time>
      </trkpt>
      <trkpt lat="41.5711140" lon="2.1078630">
        <ele>135.8</ele>
        <time>2022-09-26T07:23:20Z</time>
      </trkpt>
      <trkpt lat="41.5711350" lon="2.1078290">
        <ele>136.0</ele>
        <time>2022-09-26T07:23:21Z</time>
      </trkpt>
      <trkpt lat="41.5711530" lon="2.1077970">
        <ele>136.0</ele>
        <time>2022-09-26T07:23:22Z</time>
      </trkpt>
      <trkpt lat="41.5711740" lon="2.1077530">
        <ele>136.0</ele>
        <time>2022-09-26T07:23:23Z</time>
      </trkpt>
      <trkpt lat="41.5711880" lon="2.1077190">
        <ele>136.2</ele>
        <time>2022-09-26T07:23:24Z</time>
      </trkpt>
      <trkpt lat="41.5712000" lon="2.1076690">
        <ele>136.4</ele>
        <time>2022-09-26T07:23:25Z</time>
      </trkpt>
      <trkpt lat="41.5712110" lon="2.1076330">
        <ele>136.6</ele>
        <time>2022-09-26T07:23:26Z</time>
      </trkpt>
      <trkpt lat="41.5712250" lon="2.1075930">
        <ele>136.6</ele>
        <time>2022-09-26T07:23:27Z</time>
      </trkpt>
      <trkpt lat="41.5712380" lon="2.1075610">
        <ele>136.6</ele>
        <time>2022-09-26T07:23:28Z</time>
      </trkpt>
      <trkpt lat="41.5712530" lon="2.1075270">
        <ele>136.6</ele>
        <time>2022-09-26T07:23:29Z</time>
      </trkpt>
      <trkpt lat="41.5712730" lon="2.1075000">
        <ele>136.8</ele>
        <time>2022-09-26T07:23:30Z</time>
      </trkpt>
      <trkpt lat="41.5712980" lon="2.1074650">
        <ele>136.8</ele>
        <time>2022-09-26T07:23:31Z</time>
      </trkpt>
      <trkpt lat="41.5713220" lon="2.1074330">
        <ele>137.0</ele>
        <time>2022-09-26T07:23:32Z</time>
      </trkpt>
      <trkpt lat="41.5713450" lon="2.1074020">
        <ele>137.0</ele>
        <time>2022-09-26T07:23:33Z</time>
      </trkpt>
      <trkpt lat="41.5713710" lon="2.1073660">
        <ele>137.2</ele>
        <time>2022-09-26T07:23:34Z</time>
      </trkpt>
      <trkpt lat="41.5713930" lon="2.1073390">
        <ele>137.4</ele>
        <time>2022-09-26T07:23:35Z</time>
      </trkpt>
      <trkpt lat="41.5714170" lon="2.1073190">
        <ele>137.4</ele>
        <time>2022-09-26T07:23:36Z</time>
      </trkpt>
      <trkpt lat="41.5714390" lon="2.1073020">
        <ele>137.4</ele>
        <time>2022-09-26T07:23:37Z</time>
      </trkpt>
      <trkpt lat="41.5714670" lon="2.1072750">
        <ele>137.4</ele>
        <time>2022-09-26T07:23:38Z</time>
      </trkpt>
      <trkpt lat="41.5714910" lon="2.1072610">
        <ele>137.6</ele>
        <time>2022-09-26T07:23:39Z</time>
      </trkpt>
      <trkpt lat="41.5715160" lon="2.1072360">
        <ele>137.6</ele>
        <time>2022-09-26T07:23:40Z</time>
      </trkpt>
      <trkpt lat="41.5715490" lon="2.1072200">
        <ele>137.8</ele>
        <time>2022-09-26T07:23:41Z</time>
      </trkpt>
      <trkpt lat="41.5715790" lon="2.1072120">
        <ele>137.8</ele>
        <time>2022-09-26T07:23:42Z</time>
      </trkpt>
      <trkpt lat="41.5716080" lon="2.1072030">
        <ele>137.8</ele>
        <time>2022-09-26T07:23:43Z</time>
      </trkpt>
      <trkpt lat="41.5716450" lon="2.1071780">
        <ele>138.0</ele>
        <time>2022-09-26T07:23:44Z</time>
      </trkpt>
      <trkpt lat="41.5716770" lon="2.1071680">
        <ele>138.0</ele>
        <time>2022-09-26T07:23:45Z</time>
      </trkpt>
      <trkpt lat="41.5717120" lon="2.1071510">
        <ele>138.0</ele>
        <time>2022-09-26T07:23:46Z</time>
      </trkpt>
      <trkpt lat="41.5717490" lon="2.1071300">
        <ele>138.2</ele>
        <time>2022-09-26T07:23:47Z</time>
      </trkpt>
      <trkpt lat="41.5717880" lon="2.1071120">
        <ele>138.4</ele>
        <time>2022-09-26T07:23:48Z</time>
      </trkpt>
      <trkpt lat="41.5718240" lon="2.1070950">
        <ele>138.6</ele>
        <time>2022-09-26T07:23:49Z</time>
      </trkpt>
      <trkpt lat="41.5718560" lon="2.1070760">
        <ele>138.6</ele>
        <time>2022-09-26T07:23:50Z</time>
      </trkpt>
      <trkpt lat="41.5718860" lon="2.1070530">
        <ele>138.8</ele>
        <time>2022-09-26T07:23:51Z</time>
      </trkpt>
      <trkpt lat="41.5719190" lon="2.1070250">
        <ele>138.8</ele>
        <time>2022-09-26T07:23:52Z</time>
      </trkpt>
      <trkpt lat="41.5719520" lon="2.1070070">
        <ele>139.0</ele>
        <time>2022-09-26T07:23:53Z</time>
      </trkpt>
      <trkpt lat="41.5719830" lon="2.1069860">
        <ele>139.0</ele>
        <time>2022-09-26T07:23:54Z</time>
      </trkpt>
      <trkpt lat="41.5720080" lon="2.1069140">
        <ele>139.0</ele>
        <time>2022-09-26T07:23:55Z</time>
      </trkpt>
      <trkpt lat="41.5720390" lon="2.1068940">
        <ele>139.2</ele>
        <time>2022-09-26T07:23:56Z</time>
      </trkpt>
      <trkpt lat="41.5720730" lon="2.1068390">
        <ele>139.2</ele>
        <time>2022-09-26T07:23:57Z</time>
      </trkpt>
      <trkpt lat="41.5721050" lon="2.1068210">
        <ele>139.2</ele>
        <time>2022-09-26T07:23:58Z</time>
      </trkpt>
      <trkpt lat="41.5721350" lon="2.1067520">
        <ele>139.4</ele>
        <time>2022-09-26T07:23:59Z</time>
      </trkpt>
      <trkpt lat="41.5721660" lon="2.1067320">
        <ele>139.4</ele>
        <time>2022-09-26T07:24:00Z</time>
      </trkpt>
      <trkpt lat="41.5722050" lon="2.1066910">
        <ele>139.4</ele>
        <time>2022-09-26T07:24:01Z</time>
      </trkpt>
      <trkpt lat="41.5722390" lon="2.1066590">
        <ele>139.6</ele>
        <time>2022-09-26T07:24:02Z</time>
      </trkpt>
      <trkpt lat="41.5722610" lon="2.1066340">
        <ele>139.8</ele>
        <time>2022-09-26T07:24:03Z</time>
      </trkpt>
      <trkpt lat="41.5722830" lon="2.1066080">
        <ele>139.8</ele>
        <time>2022-09-26T07:24:04Z</time>
      </trkpt>
      <trkpt lat="41.5723140" lon="2.1065950">
        <ele>140.0</ele>
        <time>2022-09-26T07:24:05Z</time>
      </trkpt>
      <trkpt lat="41.5723470" lon="2.1065800">
        <ele>140.0</ele>
        <time>2022-09-26T07:24:06Z</time>
      </trkpt>
      <trkpt lat="41.5723800" lon="2.1065640">
        <ele>140.2</ele>
        <time>2022-09-26T07:24:07Z</time>
      </trkpt>
      <trkpt lat="41.5724130" lon="2.1065320">
        <ele>140.2</ele>
        <time>2022-09-26T07:24:08Z</time>
      </trkpt>
      <trkpt lat="41.5724440" lon="2.1065140">
        <ele>140.4</ele>
        <time>2022-09-26T07:24:09Z</time>
      </trkpt>
      <trkpt lat="41.5724740" lon="2.1065010">
        <ele>140.4</ele>
        <time>2022-09-26T07:24:10Z</time>
      </trkpt>
      <trkpt lat="41.5725050" lon="2.1064870">
        <ele>140.6</ele>
        <time>2022-09-26T07:24:11Z</time>
      </trkpt>
      <trkpt lat="41.5725380" lon="2.1064700">
        <ele>140.6</ele>
        <time>2022-09-26T07:24:12Z</time>
      </trkpt>
      <trkpt lat="41.5725700" lon="2.1064550">
        <ele>140.8</ele>
        <time>2022-09-26T07:24:13Z</time>
      </trkpt>
      <trkpt lat="41.5726020" lon="2.1064420">
        <ele>140.8</ele>
        <time>2022-09-26T07:24:14Z</time>
      </trkpt>
      <trkpt lat="41.5726340" lon="2.1064280">
        <ele>140.8</ele>
        <time>2022-09-26T07:24:15Z</time>
      </trkpt>
      <trkpt lat="41.5726580" lon="2.1064200">
        <ele>140.8</ele>
        <time>2022-09-26T07:24:16Z</time>
      </trkpt>
      <trkpt lat="41.5726860" lon="2.1064060">
        <ele>141.0</ele>
        <time>2022-09-26T07:24:17Z</time>
      </trkpt>
      <trkpt lat="41.5727130" lon="2.1063900">
        <ele>141.0</ele>
        <time>2022-09-26T07:24:18Z</time>
      </trkpt>
      <trkpt lat="41.5727410" lon="2.1063730">
        <ele>141.0</ele>
        <time>2022-09-26T07:24:19Z</time>
      </trkpt>
      <trkpt lat="41.5727710" lon="2.1063570">
        <ele>141.2</ele>
        <time>2022-09-26T07:24:20Z</time>
      </trkpt>
      <trkpt lat="41.5728010" lon="2.1063430">
        <ele>141.4</ele>
        <time>2022-09-26T07:24:21Z</time>
      </trkpt>
      <trkpt lat="41.5728310" lon="2.1063290">
        <ele>141.6</ele>
        <time>2022-09-26T07:24:22Z</time>
      </trkpt>
      <trkpt lat="41.5728610" lon="2.1063110">
        <ele>141.6</ele>
        <time>2022-09-26T07:24:23Z</time>
      </trkpt>
      <trkpt lat="41.5728920" lon="2.1062940">
        <ele>141.8</ele>
        <time>2022-09-26T07:24:24Z</time>
      </trkpt>
      <trkpt lat="41.5729230" lon="2.1062790">
        <ele>141.8</ele>
        <time>2022-09-26T07:24:25Z</time>
      </trkpt>
      <trkpt lat="41.5729550" lon="2.1062640">
        <ele>142.0</ele>
        <time>2022-09-26T07:24:26Z</time>
      </trkpt>
      <trkpt lat="41.5729860" lon="2.1062480">
        <ele>142.0</ele>
        <time>2022-09-26T07:24:27Z</time>
      </trkpt>
      <trkpt lat="41.5730180" lon="2.1062190">
        <ele>142.2</ele>
        <time>2022-09-26T07:24:28Z</time>
      </trkpt>
      <trkpt lat="41.5730520" lon="2.1061990">
        <ele>142.4</ele>
        <time>2022-09-26T07:24:29Z</time>
      </trkpt>
      <trkpt lat="41.5730840" lon="2.1061810">
        <ele>142.6</ele>
        <time>2022-09-26T07:24:30Z</time>
      </trkpt>
      <trkpt lat="41.5731150" lon="2.1061600">
        <ele>142.8</ele>
        <time>2022-09-26T07:24:31Z</time>
      </trkpt>
      <trkpt lat="41.5731470" lon="2.1061390">
        <ele>142.8</ele>
        <time>2022-09-26T07:24:32Z</time>
      </trkpt>
      <trkpt lat="41.5731800" lon="2.1061180">
        <ele>143.0</ele>
        <time>2022-09-26T07:24:33Z</time>
      </trkpt>
      <trkpt lat="41.5732110" lon="2.1061030">
        <ele>143.0</ele>
        <time>2022-09-26T07:24:34Z</time>
      </trkpt>
      <trkpt lat="41.5732420" lon="2.1060840">
        <ele>143.2</ele>
        <time>2022-09-26T07:24:35Z</time>
      </trkpt>
      <trkpt lat="41.5732730" lon="2.1060650">
        <ele>143.4</ele>
        <time>2022-09-26T07:24:36Z</time>
      </trkpt>
      <trkpt lat="41.5733070" lon="2.1060440">
        <ele>143.4</ele>
        <time>2022-09-26T07:24:37Z</time>
      </trkpt>
      <trkpt lat="41.5733410" lon="2.1060180">
        <ele>143.6</ele>
        <time>2022-09-26T07:24:38Z</time>
      </trkpt>
      <trkpt lat="41.5733740" lon="2.1060000">
        <ele>143.6</ele>
        <time>2022-09-26T07:24:39Z</time>
      </trkpt>
      <trkpt lat="41.5734020" lon="2.1059820">
        <ele>143.8</ele>
        <time>2022-09-26T07:24:40Z</time>
      </trkpt>
      <trkpt lat="41.5734320" lon="2.1059620">
        <ele>143.8</ele>
        <time>2022-09-26T07:24:41Z</time>
      </trkpt>
      <trkpt lat="41.5734640" lon="2.1059430">
        <ele>144.0</ele>
        <time>2022-09-26T07:24:42Z</time>
      </trkpt>
      <trkpt lat="41.5734960" lon="2.1059220">
        <ele>144.0</ele>
        <time>2022-09-26T07:24:43Z</time>
      </trkpt>
      <trkpt lat="41.5735300" lon="2.1058910">
        <ele>144.2</ele>
        <time>2022-09-26T07:24:44Z</time>
      </trkpt>
      <trkpt lat="41.5735620" lon="2.1058650">
        <ele>144.2</ele>
        <time>2022-09-26T07:24:45Z</time>
      </trkpt>
      <trkpt lat="41.5735940" lon="2.1058400">
        <ele>144.4</ele>
        <time>2022-09-26T07:24:46Z</time>
      </trkpt>
      <trkpt lat="41.5736240" lon="2.1058180">
        <ele>144.4</ele>
        <time>2022-09-26T07:24:47Z</time>
      </trkpt>
      <trkpt lat="41.5736560" lon="2.1057960">
        <ele>144.2</ele>
        <time>2022-09-26T07:24:48Z</time>
      </trkpt>
      <trkpt lat="41.5736870" lon="2.1057700">
        <ele>144.2</ele>
        <time>2022-09-26T07:24:49Z</time>
      </trkpt>
      <trkpt lat="41.5737180" lon="2.1057480">
        <ele>144.2</ele>
        <time>2022-09-26T07:24:50Z</time>
      </trkpt>
      <trkpt lat="41.5737490" lon="2.1057230">
        <ele>144.2</ele>
        <time>2022-09-26T07:24:51Z</time>
      </trkpt>
      <trkpt lat="41.5737800" lon="2.1056990">
        <ele>144.4</ele>
        <time>2022-09-26T07:24:52Z</time>
      </trkpt>
      <trkpt lat="41.5738120" lon="2.1056750">
        <ele>144.6</ele>
        <time>2022-09-26T07:24:53Z</time>
      </trkpt>
      <trkpt lat="41.5738450" lon="2.1056530">
        <ele>144.6</ele>
        <time>2022-09-26T07:24:54Z</time>
      </trkpt>
      <trkpt lat="41.5738790" lon="2.1056270">
        <ele>144.6</ele>
        <time>2022-09-26T07:24:55Z</time>
      </trkpt>
      <trkpt lat="41.5739120" lon="2.1056010">
        <ele>144.8</ele>
        <time>2022-09-26T07:24:56Z</time>
      </trkpt>
      <trkpt lat="41.5739460" lon="2.1055750">
        <ele>144.8</ele>
        <time>2022-09-26T07:24:57Z</time>
      </trkpt>
      <trkpt lat="41.5739790" lon="2.1055440">
        <ele>144.8</ele>
        <time>2022-09-26T07:24:58Z</time>
      </trkpt>
      <trkpt lat="41.5740110" lon="2.1055220">
        <ele>145.0</ele>
        <time>2022-09-26T07:24:59Z</time>
      </trkpt>
      <trkpt lat="41.5740440" lon="2.1055010">
        <ele>145.0</ele>
        <time>2022-09-26T07:25:00Z</time>
      </trkpt>
      <trkpt lat="41.5740780" lon="2.1054780">
        <ele>145.2</ele>
        <time>2022-09-26T07:25:01Z</time>
      </trkpt>
      <trkpt lat="41.5741100" lon="2.1054580">
        <ele>145.2</ele>
        <time>2022-09-26T07:25:02Z</time>
      </trkpt>
      <trkpt lat="41.5741420" lon="2.1054370">
        <ele>145.4</ele>
        <time>2022-09-26T07:25:03Z</time>
      </trkpt>
      <trkpt lat="41.5741740" lon="2.1054110">
        <ele>145.4</ele>
        <time>2022-09-26T07:25:04Z</time>
      </trkpt>
      <trkpt lat="41.5742070" lon="2.1053850">
        <ele>145.6</ele>
        <time>2022-09-26T07:25:05Z</time>
      </trkpt>
      <trkpt lat="41.5742420" lon="2.1053650">
        <ele>145.4</ele>
        <time>2022-09-26T07:25:06Z</time>
      </trkpt>
      <trkpt lat="41.5742790" lon="2.1053500">
        <ele>145.4</ele>
        <time>2022-09-26T07:25:07Z</time>
      </trkpt>
      <trkpt lat="41.5743180" lon="2.1053340">
        <ele>145.6</ele>
        <time>2022-09-26T07:25:08Z</time>
      </trkpt>
      <trkpt lat="41.5743550" lon="2.1053130">
        <ele>145.8</ele>
        <time>2022-09-26T07:25:09Z</time>
      </trkpt>
      <trkpt lat="41.5743860" lon="2.1053010">
        <ele>146.0</ele>
        <time>2022-09-26T07:25:10Z</time>
      </trkpt>
      <trkpt lat="41.5744150" lon="2.1052860">
        <ele>146.0</ele>
        <time>2022-09-26T07:25:11Z</time>
      </trkpt>
      <trkpt lat="41.5744420" lon="2.1052710">
        <ele>146.2</ele>
        <time>2022-09-26T07:25:12Z</time>
      </trkpt>
      <trkpt lat="41.5744650" lon="2.1052600">
        <ele>146.2</ele>
        <time>2022-09-26T07:25:13Z</time>
      </trkpt>
      <trkpt lat="41.5744940" lon="2.1052480">
        <ele>146.4</ele>
        <time>2022-09-26T07:25:14Z</time>
      </trkpt>
      <trkpt lat="41.5745240" lon="2.1052390">
        <ele>146.4</ele>
        <time>2022-09-26T07:25:15Z</time>
      </trkpt>
      <trkpt lat="41.5745590" lon="2.1052210">
        <ele>146.6</ele>
        <time>2022-09-26T07:25:16Z</time>
      </trkpt>
      <trkpt lat="41.5745950" lon="2.1052030">
        <ele>146.4</ele>
        <time>2022-09-26T07:25:17Z</time>
      </trkpt>
      <trkpt lat="41.5746310" lon="2.1051850">
        <ele>146.4</ele>
        <time>2022-09-26T07:25:18Z</time>
      </trkpt>
      <trkpt lat="41.5746690" lon="2.1051650">
        <ele>146.4</ele>
        <time>2022-09-26T07:25:19Z</time>
      </trkpt>
      <trkpt lat="41.5747060" lon="2.1051480">
        <ele>146.4</ele>
        <time>2022-09-26T07:25:20Z</time>
      </trkpt>
      <trkpt lat="41.5747420" lon="2.1051300">
        <ele>146.4</ele>
        <time>2022-09-26T07:25:21Z</time>
      </trkpt>
      <trkpt lat="41.5747760" lon="2.1051100">
        <ele>146.4</ele>
        <time>2022-09-26T07:25:22Z</time>
      </trkpt>
      <trkpt lat="41.5748050" lon="2.1050890">
        <ele>146.4</ele>
        <time>2022-09-26T07:25:23Z</time>
      </trkpt>
      <trkpt lat="41.5748350" lon="2.1050690">
        <ele>146.4</ele>
        <time>2022-09-26T07:25:24Z</time>
      </trkpt>
      <trkpt lat="41.5748620" lon="2.1050470">
        <ele>146.4</ele>
        <time>2022-09-26T07:25:25Z</time>
      </trkpt>
      <trkpt lat="41.5748890" lon="2.1050260">
        <ele>146.4</ele>
        <time>2022-09-26T07:25:26Z</time>
      </trkpt>
      <trkpt lat="41.5749190" lon="2.1050020">
        <ele>146.6</ele>
        <time>2022-09-26T07:25:27Z</time>
      </trkpt>
      <trkpt lat="41.5749420" lon="2.1049830">
        <ele>146.6</ele>
        <time>2022-09-26T07:25:28Z</time>
      </trkpt>
      <trkpt lat="41.5749590" lon="2.1049310">
        <ele>146.8</ele>
        <time>2022-09-26T07:25:29Z</time>
      </trkpt>
      <trkpt lat="41.5749910" lon="2.1049100">
        <ele>147.0</ele>
        <time>2022-09-26T07:25:30Z</time>
      </trkpt>
      <trkpt lat="41.5750250" lon="2.1048900">
        <ele>147.0</ele>
        <time>2022-09-26T07:25:31Z</time>
      </trkpt>
      <trkpt lat="41.5750540" lon="2.1048760">
        <ele>147.2</ele>
        <time>2022-09-26T07:25:32Z</time>
      </trkpt>
      <trkpt lat="41.5750840" lon="2.1048560">
        <ele>147.4</ele>
        <time>2022-09-26T07:25:33Z</time>
      </trkpt>
      <trkpt lat="41.5751180" lon="2.1048370">
        <ele>147.6</ele>
        <time>2022-09-26T07:25:34Z</time>
      </trkpt>
      <trkpt lat="41.5751530" lon="2.1048200">
        <ele>147.6</ele>
        <time>2022-09-26T07:25:35Z</time>
      </trkpt>
      <trkpt lat="41.5751900" lon="2.1047950">
        <ele>147.8</ele>
        <time>2022-09-26T07:25:36Z</time>
      </trkpt>
      <trkpt lat="41.5752250" lon="2.1047730">
        <ele>147.8</ele>
        <time>2022-09-26T07:25:37Z</time>
      </trkpt>
      <trkpt lat="41.5752610" lon="2.1047430">
        <ele>148.0</ele>
        <time>2022-09-26T07:25:38Z</time>
      </trkpt>
      <trkpt lat="41.5752960" lon="2.1047150">
        <ele>148.0</ele>
        <time>2022-09-26T07:25:39Z</time>
      </trkpt>
      <trkpt lat="41.5753290" lon="2.1046840">
        <ele>148.0</ele>
        <time>2022-09-26T07:25:40Z</time>
      </trkpt>
      <trkpt lat="41.5753640" lon="2.1046480">
        <ele>148.0</ele>
        <time>2022-09-26T07:25:41Z</time>
      </trkpt>
      <trkpt lat="41.5754060" lon="2.1046100">
        <ele>147.8</ele>
        <time>2022-09-26T07:25:42Z</time>
      </trkpt>
      <trkpt lat="41.5754390" lon="2.1045770">
        <ele>147.8</ele>
        <time>2022-09-26T07:25:43Z</time>
      </trkpt>
      <trkpt lat="41.5754690" lon="2.1045470">
        <ele>147.8</ele>
        <time>2022-09-26T07:25:44Z</time>
      </trkpt>
      <trkpt lat="41.5754880" lon="2.1045100">
        <ele>147.8</ele>
        <time>2022-09-26T07:25:45Z</time>
      </trkpt>
      <trkpt lat="41.5755150" lon="2.1044770">
        <ele>147.8</ele>
        <time>2022-09-26T07:25:46Z</time>
      </trkpt>
      <trkpt lat="41.5755400" lon="2.1044430">
        <ele>147.8</ele>
        <time>2022-09-26T07:25:47Z</time>
      </trkpt>
      <trkpt lat="41.5755660" lon="2.1044200">
        <ele>147.8</ele>
        <time>2022-09-26T07:25:48Z</time>
      </trkpt>
      <trkpt lat="41.5755960" lon="2.1043890">
        <ele>147.8</ele>
        <time>2022-09-26T07:25:49Z</time>
      </trkpt>
      <trkpt lat="41.5756210" lon="2.1043600">
        <ele>148.0</ele>
        <time>2022-09-26T07:25:50Z</time>
      </trkpt>
      <trkpt lat="41.5756420" lon="2.1043380">
        <ele>148.0</ele>
        <time>2022-09-26T07:25:51Z</time>
      </trkpt>
      <trkpt lat="41.5756640" lon="2.1043120">
        <ele>148.0</ele>
        <time>2022-09-26T07:25:52Z</time>
      </trkpt>
      <trkpt lat="41.5756910" lon="2.1042870">
        <ele>148.2</ele>
        <time>2022-09-26T07:25:53Z</time>
      </trkpt>
      <trkpt lat="41.5757150" lon="2.1042710">
        <ele>148.2</ele>
        <time>2022-09-26T07:25:54Z</time>
      </trkpt>
      <trkpt lat="41.5757420" lon="2.1042510">
        <ele>148.2</ele>
        <time>2022-09-26T07:25:55Z</time>
      </trkpt>
      <trkpt lat="41.5757670" lon="2.1042250">
        <ele>148.2</ele>
        <time>2022-09-26T07:25:56Z</time>
      </trkpt>
      <trkpt lat="41.5757910" lon="2.1042060">
        <ele>148.4</ele>
        <time>2022-09-26T07:25:57Z</time>
      </trkpt>
      <trkpt lat="41.5758180" lon="2.1041800">
        <ele>148.4</ele>
        <time>2022-09-26T07:25:58Z</time>
      </trkpt>
      <trkpt lat="41.5758420" lon="2.1041540">
        <ele>148.6</ele>
        <time>2022-09-26T07:25:59Z</time>
      </trkpt>
      <trkpt lat="41.5758670" lon="2.1041190">
        <ele>148.6</ele>
        <time>2022-09-26T07:26:00Z</time>
      </trkpt>
      <trkpt lat="41.5758910" lon="2.1040900">
        <ele>148.6</ele>
        <time>2022-09-26T07:26:01Z</time>
      </trkpt>
      <trkpt lat="41.5759210" lon="2.1040520">
        <ele>148.8</ele>
        <time>2022-09-26T07:26:02Z</time>
      </trkpt>
      <trkpt lat="41.5759520" lon="2.1040260">
        <ele>148.8</ele>
        <time>2022-09-26T07:26:03Z</time>
      </trkpt>
      <trkpt lat="41.5759910" lon="2.1039870">
        <ele>149.0</ele>
        <time>2022-09-26T07:26:04Z</time>
      </trkpt>
      <trkpt lat="41.5760220" lon="2.1039450">
        <ele>149.0</ele>
        <time>2022-09-26T07:26:05Z</time>
      </trkpt>
      <trkpt lat="41.5760520" lon="2.1039090">
        <ele>149.0</ele>
        <time>2022-09-26T07:26:06Z</time>
      </trkpt>
      <trkpt lat="41.5760810" lon="2.1038700">
        <ele>148.8</ele>
        <time>2022-09-26T07:26:07Z</time>
      </trkpt>
      <trkpt lat="41.5761090" lon="2.1038330">
        <ele>149.0</ele>
        <time>2022-09-26T07:26:08Z</time>
      </trkpt>
      <trkpt lat="41.5761370" lon="2.1037900">
        <ele>149.0</ele>
        <time>2022-09-26T07:26:09Z</time>
      </trkpt>
      <trkpt lat="41.5761650" lon="2.1037520">
        <ele>149.2</ele>
        <time>2022-09-26T07:26:10Z</time>
      </trkpt>
      <trkpt lat="41.5761980" lon="2.1037160">
        <ele>149.2</ele>
        <time>2022-09-26T07:26:11Z</time>
      </trkpt>
      <trkpt lat="41.5762300" lon="2.1036710">
        <ele>149.4</ele>
        <time>2022-09-26T07:26:12Z</time>
      </trkpt>
      <trkpt lat="41.5762620" lon="2.1036370">
        <ele>149.6</ele>
        <time>2022-09-26T07:26:13Z</time>
      </trkpt>
      <trkpt lat="41.5762940" lon="2.1035990">
        <ele>149.6</ele>
        <time>2022-09-26T07:26:14Z</time>
      </trkpt>
      <trkpt lat="41.5763250" lon="2.1035610">
        <ele>149.6</ele>
        <time>2022-09-26T07:26:15Z</time>
      </trkpt>
      <trkpt lat="41.5763550" lon="2.1035230">
        <ele>149.8</ele>
        <time>2022-09-26T07:26:16Z</time>
      </trkpt>
      <trkpt lat="41.5763860" lon="2.1034720">
        <ele>149.8</ele>
        <time>2022-09-26T07:26:17Z</time>
      </trkpt>
      <trkpt lat="41.5764150" lon="2.1034350">
        <ele>150.0</ele>
        <time>2022-09-26T07:26:18Z</time>
      </trkpt>
      <trkpt lat="41.5764370" lon="2.1033830">
        <ele>150.0</ele>
        <time>2022-09-26T07:26:19Z</time>
      </trkpt>
      <trkpt lat="41.5764610" lon="2.1033310">
        <ele>150.2</ele>
        <time>2022-09-26T07:26:20Z</time>
      </trkpt>
      <trkpt lat="41.5764890" lon="2.1033010">
        <ele>150.4</ele>
        <time>2022-09-26T07:26:21Z</time>
      </trkpt>
      <trkpt lat="41.5765120" lon="2.1032750">
        <ele>150.4</ele>
        <time>2022-09-26T07:26:22Z</time>
      </trkpt>
      <trkpt lat="41.5765370" lon="2.1032510">
        <ele>150.6</ele>
        <time>2022-09-26T07:26:23Z</time>
      </trkpt>
      <trkpt lat="41.5765630" lon="2.1032080">
        <ele>150.6</ele>
        <time>2022-09-26T07:26:24Z</time>
      </trkpt>
      <trkpt lat="41.5765860" lon="2.1031600">
        <ele>150.6</ele>
        <time>2022-09-26T07:26:25Z</time>
      </trkpt>
      <trkpt lat="41.5766070" lon="2.1031160">
        <ele>150.6</ele>
        <time>2022-09-26T07:26:26Z</time>
      </trkpt>
      <trkpt lat="41.5766390" lon="2.1030790">
        <ele>150.6</ele>
        <time>2022-09-26T07:26:27Z</time>
      </trkpt>
      <trkpt lat="41.5766700" lon="2.1030450">
        <ele>150.8</ele>
        <time>2022-09-26T07:26:28Z</time>
      </trkpt>
      <trkpt lat="41.5766960" lon="2.1029960">
        <ele>150.8</ele>
        <time>2022-09-26T07:26:29Z</time>
      </trkpt>
      <trkpt lat="41.5767280" lon="2.1029630">
        <ele>150.8</ele>
        <time>2022-09-26T07:26:30Z</time>
      </trkpt>
      <trkpt lat="41.5767580" lon="2.1029280">
        <ele>151.0</ele>
        <time>2022-09-26T07:26:31Z</time>
      </trkpt>
      <trkpt lat="41.5767880" lon="2.1028940">
        <ele>151.0</ele>
        <time>2022-09-26T07:26:32Z</time>
      </trkpt>
      <trkpt lat="41.5768180" lon="2.1028610">
        <ele>151.2</ele>
        <time>2022-09-26T07:26:33Z</time>
      </trkpt>
      <trkpt lat="41.5768510" lon="2.1028310">
        <ele>151.2</ele>
        <time>2022-09-26T07:26:34Z</time>
      </trkpt>
      <trkpt lat="41.5768810" lon="2.1028000">
        <ele>151.2</ele>
        <time>2022-09-26T07:26:35Z</time>
      </trkpt>
      <trkpt lat="41.5769130" lon="2.1027700">
        <ele>151.4</ele>
        <time>2022-09-26T07:26:36Z</time>
      </trkpt>
      <trkpt lat="41.5769420" lon="2.1027390">
        <ele>151.6</ele>
        <time>2022-09-26T07:26:37Z</time>
      </trkpt>
      <trkpt lat="41.5769630" lon="2.1026910">
        <ele>151.8</ele>
        <time>2022-09-26T07:26:38Z</time>
      </trkpt>
      <trkpt lat="41.5769890" lon="2.1026470">
        <ele>151.6</ele>
        <time>2022-09-26T07:26:39Z</time>
      </trkpt>
      <trkpt lat="41.5770140" lon="2.1026020">
        <ele>151.8</ele>
        <time>2022-09-26T07:26:40Z</time>
      </trkpt>
      <trkpt lat="41.5770460" lon="2.1025720">
        <ele>151.8</ele>
        <time>2022-09-26T07:26:41Z</time>
      </trkpt>
      <trkpt lat="41.5770750" lon="2.1025350">
        <ele>151.8</ele>
        <time>2022-09-26T07:26:42Z</time>
      </trkpt>
      <trkpt lat="41.5771010" lon="2.1025010">
        <ele>151.8</ele>
        <time>2022-09-26T07:26:43Z</time>
      </trkpt>
      <trkpt lat="41.5771270" lon="2.1024660">
        <ele>151.8</ele>
        <time>2022-09-26T07:26:44Z</time>
      </trkpt>
      <trkpt lat="41.5771490" lon="2.1024300">
        <ele>152.0</ele>
        <time>2022-09-26T07:26:45Z</time>
      </trkpt>
      <trkpt lat="41.5771730" lon="2.1023930">
        <ele>152.0</ele>
        <time>2022-09-26T07:26:46Z</time>
      </trkpt>
      <trkpt lat="41.5771940" lon="2.1023480">
        <ele>152.0</ele>
        <time>2022-09-26T07:26:47Z</time>
      </trkpt>
      <trkpt lat="41.5772230" lon="2.1023140">
        <ele>152.2</ele>
        <time>2022-09-26T07:26:48Z</time>
      </trkpt>
      <trkpt lat="41.5772540" lon="2.1022910">
        <ele>152.2</ele>
        <time>2022-09-26T07:26:49Z</time>
      </trkpt>
      <trkpt lat="41.5772870" lon="2.1022670">
        <ele>152.4</ele>
        <time>2022-09-26T07:26:50Z</time>
      </trkpt>
      <trkpt lat="41.5773170" lon="2.1022370">
        <ele>152.4</ele>
        <time>2022-09-26T07:26:51Z</time>
      </trkpt>
      <trkpt lat="41.5773490" lon="2.1022100">
        <ele>152.6</ele>
        <time>2022-09-26T07:26:52Z</time>
      </trkpt>
      <trkpt lat="41.5773820" lon="2.1021890">
        <ele>152.8</ele>
        <time>2022-09-26T07:26:53Z</time>
      </trkpt>
      <trkpt lat="41.5774160" lon="2.1021770">
        <ele>153.0</ele>
        <time>2022-09-26T07:26:54Z</time>
      </trkpt>
      <trkpt lat="41.5774520" lon="2.1021660">
        <ele>153.2</ele>
        <time>2022-09-26T07:26:55Z</time>
      </trkpt>
      <trkpt lat="41.5774880" lon="2.1021570">
        <ele>153.2</ele>
        <time>2022-09-26T07:26:56Z</time>
      </trkpt>
      <trkpt lat="41.5775260" lon="2.1021420">
        <ele>153.4</ele>
        <time>2022-09-26T07:26:57Z</time>
      </trkpt>
      <trkpt lat="41.5775590" lon="2.1021200">
        <ele>153.4</ele>
        <time>2022-09-26T07:26:58Z</time>
      </trkpt>
      <trkpt lat="41.5775850" lon="2.1020930">
        <ele>153.6</ele>
        <time>2022-09-26T07:26:59Z</time>
      </trkpt>
      <trkpt lat="41.5776170" lon="2.1020820">
        <ele>153.6</ele>
        <time>2022-09-26T07:27:00Z</time>
      </trkpt>
      <trkpt lat="41.5776500" lon="2.1020710">
        <ele>153.6</ele>
        <time>2022-09-26T07:27:01Z</time>
      </trkpt>
      <trkpt lat="41.5776840" lon="2.1020600">
        <ele>153.8</ele>
        <time>2022-09-26T07:27:02Z</time>
      </trkpt>
      <trkpt lat="41.5777110" lon="2.1020370">
        <ele>153.8</ele>
        <time>2022-09-26T07:27:03Z</time>
      </trkpt>
      <trkpt lat="41.5777420" lon="2.1020310">
        <ele>154.0</ele>
        <time>2022-09-26T07:27:04Z</time>
      </trkpt>
      <trkpt lat="41.5777750" lon="2.1020200">
        <ele>154.0</ele>
        <time>2022-09-26T07:27:05Z</time>
      </trkpt>
      <trkpt lat="41.5777990" lon="2.1019960">
        <ele>154.2</ele>
        <time>2022-09-26T07:27:06Z</time>
      </trkpt>
      <trkpt lat="41.5778310" lon="2.1019860">
        <ele>154.4</ele>
        <time>2022-09-26T07:27:07Z</time>
      </trkpt>
      <trkpt lat="41.5778610" lon="2.1019670">
        <ele>154.6</ele>
        <time>2022-09-26T07:27:08Z</time>
      </trkpt>
      <trkpt lat="41.5778960" lon="2.1019590">
        <ele>154.8</ele>
        <time>2022-09-26T07:27:09Z</time>
      </trkpt>
      <trkpt lat="41.5779350" lon="2.1019550">
        <ele>154.8</ele>
        <time>2022-09-26T07:27:10Z</time>
      </trkpt>
      <trkpt lat="41.5779760" lon="2.1019560">
        <ele>154.8</ele>
        <time>2022-09-26T07:27:11Z</time>
      </trkpt>
      <trkpt lat="41.5780110" lon="2.1019490">
        <ele>154.8</ele>
        <time>2022-09-26T07:27:12Z</time>
      </trkpt>
      <trkpt lat="41.5780490" lon="2.1019630">
        <ele>154.8</ele>
        <time>2022-09-26T07:27:13Z</time>
      </trkpt>
      <trkpt lat="41.5780930" lon="2.1019730">
        <ele>154.6</ele>
        <time>2022-09-26T07:27:14Z</time>
      </trkpt>
      <trkpt lat="41.5781240" lon="2.1019880">
        <ele>154.6</ele>
        <time>2022-09-26T07:27:15Z</time>
      </trkpt>
      <trkpt lat="41.5781630" lon="2.1019780">
        <ele>154.8</ele>
        <time>2022-09-26T07:27:16Z</time>
      </trkpt>
      <trkpt lat="41.5782050" lon="2.1019870">
        <ele>154.8</ele>
        <time>2022-09-26T07:27:17Z</time>
      </trkpt>
      <trkpt lat="41.5782480" lon="2.1019940">
        <ele>154.8</ele>
        <time>2022-09-26T07:27:18Z</time>
      </trkpt>
      <trkpt lat="41.5782920" lon="2.1020000">
        <ele>154.8</ele>
        <time>2022-09-26T07:27:19Z</time>
      </trkpt>
      <trkpt lat="41.5783350" lon="2.1020080">
        <ele>154.8</ele>
        <time>2022-09-26T07:27:20Z</time>
      </trkpt>
      <trkpt lat="41.5783760" lon="2.1020120">
        <ele>154.8</ele>
        <time>2022-09-26T07:27:21Z</time>
      </trkpt>
      <trkpt lat="41.5784170" lon="2.1020160">
        <ele>154.8</ele>
        <time>2022-09-26T07:27:22Z</time>
      </trkpt>
      <trkpt lat="41.5784540" lon="2.1020220">
        <ele>154.8</ele>
        <time>2022-09-26T07:27:23Z</time>
      </trkpt>
      <trkpt lat="41.5784870" lon="2.1020220">
        <ele>154.8</ele>
        <time>2022-09-26T07:27:24Z</time>
      </trkpt>
      <trkpt lat="41.5785230" lon="2.1020150">
        <ele>155.0</ele>
        <time>2022-09-26T07:27:25Z</time>
      </trkpt>
      <trkpt lat="41.5785630" lon="2.1020220">
        <ele>155.0</ele>
        <time>2022-09-26T07:27:26Z</time>
      </trkpt>
      <trkpt lat="41.5786000" lon="2.1020280">
        <ele>155.0</ele>
        <time>2022-09-26T07:27:27Z</time>
      </trkpt>
      <trkpt lat="41.5786370" lon="2.1020250">
        <ele>155.2</ele>
        <time>2022-09-26T07:27:28Z</time>
      </trkpt>
      <trkpt lat="41.5786820" lon="2.1020330">
        <ele>155.2</ele>
        <time>2022-09-26T07:27:29Z</time>
      </trkpt>
      <trkpt lat="41.5787250" lon="2.1020390">
        <ele>155.2</ele>
        <time>2022-09-26T07:27:30Z</time>
      </trkpt>
      <trkpt lat="41.5787640" lon="2.1020460">
        <ele>155.2</ele>
        <time>2022-09-26T07:27:31Z</time>
      </trkpt>
      <trkpt lat="41.5787960" lon="2.1020380">
        <ele>155.2</ele>
        <time>2022-09-26T07:27:32Z</time>
      </trkpt>
      <trkpt lat="41.5788330" lon="2.1020410">
        <ele>155.4</ele>
        <time>2022-09-26T07:27:33Z</time>
      </trkpt>
      <trkpt lat="41.5788710" lon="2.1020440">
        <ele>155.2</ele>
        <time>2022-09-26T07:27:34Z</time>
      </trkpt>
      <trkpt lat="41.5789100" lon="2.1020390">
        <ele>155.2</ele>
        <time>2022-09-26T07:27:35Z</time>
      </trkpt>
      <trkpt lat="41.5789540" lon="2.1020360">
        <ele>155.2</ele>
        <time>2022-09-26T07:27:36Z</time>
      </trkpt>
      <trkpt lat="41.5789990" lon="2.1020340">
        <ele>155.2</ele>
        <time>2022-09-26T07:27:37Z</time>
      </trkpt>
      <trkpt lat="41.5790400" lon="2.1020320">
        <ele>155.4</ele>
        <time>2022-09-26T07:27:38Z</time>
      </trkpt>
      <trkpt lat="41.5790830" lon="2.1020300">
        <ele>155.4</ele>
        <time>2022-09-26T07:27:39Z</time>
      </trkpt>
      <trkpt lat="41.5791250" lon="2.1020310">
        <ele>155.4</ele>
        <time>2022-09-26T07:27:40Z</time>
      </trkpt>
      <trkpt lat="41.5791670" lon="2.1020420">
        <ele>155.6</ele>
        <time>2022-09-26T07:27:41Z</time>
      </trkpt>
      <trkpt lat="41.5792090" lon="2.1020540">
        <ele>155.6</ele>
        <time>2022-09-26T07:27:42Z</time>
      </trkpt>
      <trkpt lat="41.5792500" lon="2.1020660">
        <ele>155.6</ele>
        <time>2022-09-26T07:27:43Z</time>
      </trkpt>
      <trkpt lat="41.5792920" lon="2.1020760">
        <ele>155.6</ele>
        <time>2022-09-26T07:27:44Z</time>
      </trkpt>
      <trkpt lat="41.5793360" lon="2.1020760">
        <ele>155.8</ele>
        <time>2022-09-26T07:27:45Z</time>
      </trkpt>
      <trkpt lat="41.5793760" lon="2.1020700">
        <ele>155.6</ele>
        <time>2022-09-26T07:27:46Z</time>
      </trkpt>
      <trkpt lat="41.5794180" lon="2.1020810">
        <ele>155.6</ele>
        <time>2022-09-26T07:27:47Z</time>
      </trkpt>
      <trkpt lat="41.5794550" lon="2.1020770">
        <ele>155.6</ele>
        <time>2022-09-26T07:27:48Z</time>
      </trkpt>
      <trkpt lat="41.5794910" lon="2.1020750">
        <ele>155.8</ele>
        <time>2022-09-26T07:27:49Z</time>
      </trkpt>
      <trkpt lat="41.5795290" lon="2.1020720">
        <ele>155.8</ele>
        <time>2022-09-26T07:27:50Z</time>
      </trkpt>
      <trkpt lat="41.5795700" lon="2.1020740">
        <ele>156.0</ele>
        <time>2022-09-26T07:27:51Z</time>
      </trkpt>
      <trkpt lat="41.5796040" lon="2.1020670">
        <ele>156.0</ele>
        <time>2022-09-26T07:27:52Z</time>
      </trkpt>
      <trkpt lat="41.5796490" lon="2.1020620">
        <ele>156.0</ele>
        <time>2022-09-26T07:27:53Z</time>
      </trkpt>
      <trkpt lat="41.5796850" lon="2.1020550">
        <ele>156.0</ele>
        <time>2022-09-26T07:27:54Z</time>
      </trkpt>
      <trkpt lat="41.5797260" lon="2.1020480">
        <ele>156.2</ele>
        <time>2022-09-26T07:27:55Z</time>
      </trkpt>
      <trkpt lat="41.5797700" lon="2.1020410">
        <ele>156.2</ele>
        <time>2022-09-26T07:27:56Z</time>
      </trkpt>
      <trkpt lat="41.5798130" lon="2.1020300">
        <ele>156.2</ele>
        <time>2022-09-26T07:27:57Z</time>
      </trkpt>
      <trkpt lat="41.5798510" lon="2.1020210">
        <ele>156.4</ele>
        <time>2022-09-26T07:27:58Z</time>
      </trkpt>
      <trkpt lat="41.5799020" lon="2.1020070">
        <ele>156.4</ele>
        <time>2022-09-26T07:27:59Z</time>
      </trkpt>
      <trkpt lat="41.5799460" lon="2.1019980">
        <ele>156.4</ele>
        <time>2022-09-26T07:28:00Z</time>
      </trkpt>
      <trkpt lat="41.5799930" lon="2.1019890">
        <ele>156.4</ele>
        <time>2022-09-26T07:28:01Z</time>
      </trkpt>
      <trkpt lat="41.5800420" lon="2.1019860">
        <ele>156.4</ele>
        <time>2022-09-26T07:28:02Z</time>
      </trkpt>
      <trkpt lat="41.5800910" lon="2.1019880">
        <ele>156.2</ele>
        <time>2022-09-26T07:28:03Z</time>
      </trkpt>
      <trkpt lat="41.5801370" lon="2.1019940">
        <ele>156.4</ele>
        <time>2022-09-26T07:28:04Z</time>
      </trkpt>
      <trkpt lat="41.5801800" lon="2.1020070">
        <ele>156.4</ele>
        <time>2022-09-26T07:28:05Z</time>
      </trkpt>
      <trkpt lat="41.5802160" lon="2.1020240">
        <ele>156.4</ele>
        <time>2022-09-26T07:28:06Z</time>
      </trkpt>
      <trkpt lat="41.5802510" lon="2.1020440">
        <ele>156.6</ele>
        <time>2022-09-26T07:28:07Z</time>
      </trkpt>
      <trkpt lat="41.5802850" lon="2.1020620">
        <ele>156.8</ele>
        <time>2022-09-26T07:28:08Z</time>
      </trkpt>
      <trkpt lat="41.5803190" lon="2.1020780">
        <ele>157.0</ele>
        <time>2022-09-26T07:28:09Z</time>
      </trkpt>
      <trkpt lat="41.5803570" lon="2.1020930">
        <ele>157.2</ele>
        <time>2022-09-26T07:28:10Z</time>
      </trkpt>
      <trkpt lat="41.5803930" lon="2.1021090">
        <ele>157.4</ele>
        <time>2022-09-26T07:28:11Z</time>
      </trkpt>
      <trkpt lat="41.5804290" lon="2.1021220">
        <ele>157.8</ele>
        <time>2022-09-26T07:28:12Z</time>
      </trkpt>
      <trkpt lat="41.5804640" lon="2.1021280">
        <ele>158.0</ele>
        <time>2022-09-26T07:28:13Z</time>
      </trkpt>
      <trkpt lat="41.5805030" lon="2.1021280">
        <ele>157.8</ele>
        <time>2022-09-26T07:28:14Z</time>
      </trkpt>
      <trkpt lat="41.5805440" lon="2.1021240">
        <ele>158.0</ele>
        <time>2022-09-26T07:28:15Z</time>
      </trkpt>
      <trkpt lat="41.5805860" lon="2.1021160">
        <ele>158.0</ele>
        <time>2022-09-26T07:28:16Z</time>
      </trkpt>
      <trkpt lat="41.5806290" lon="2.1021080">
        <ele>158.4</ele>
        <time>2022-09-26T07:28:17Z</time>
      </trkpt>
      <trkpt lat="41.5806710" lon="2.1020980">
        <ele>158.6</ele>
        <time>2022-09-26T07:28:18Z</time>
      </trkpt>
      <trkpt lat="41.5807090" lon="2.1020890">
        <ele>158.8</ele>
        <time>2022-09-26T07:28:19Z</time>
      </trkpt>
      <trkpt lat="41.5807470" lon="2.1020770">
        <ele>158.8</ele>
        <time>2022-09-26T07:28:20Z</time>
      </trkpt>
      <trkpt lat="41.5807860" lon="2.1020650">
        <ele>159.0</ele>
        <time>2022-09-26T07:28:21Z</time>
      </trkpt>
      <trkpt lat="41.5808230" lon="2.1020540">
        <ele>159.2</ele>
        <time>2022-09-26T07:28:22Z</time>
      </trkpt>
      <trkpt lat="41.5808600" lon="2.1020460">
        <ele>159.2</ele>
        <time>2022-09-26T07:28:23Z</time>
      </trkpt>
      <trkpt lat="41.5808940" lon="2.1020390">
        <ele>159.2</ele>
        <time>2022-09-26T07:28:24Z</time>
      </trkpt>
      <trkpt lat="41.5809270" lon="2.1020370">
        <ele>159.2</ele>
        <time>2022-09-26T07:28:25Z</time>
      </trkpt>
      <trkpt lat="41.5809610" lon="2.1020370">
        <ele>159.4</ele>
        <time>2022-09-26T07:28:26Z</time>
      </trkpt>
      <trkpt lat="41.5809970" lon="2.1020390">
        <ele>159.4</ele>
        <time>2022-09-26T07:28:27Z</time>
      </trkpt>
      <trkpt lat="41.5810280" lon="2.1020470">
        <ele>159.6</ele>
        <time>2022-09-26T07:28:28Z</time>
      </trkpt>
      <trkpt lat="41.5810570" lon="2.1020550">
        <ele>159.8</ele>
        <time>2022-09-26T07:28:29Z</time>
      </trkpt>
      <trkpt lat="41.5810880" lon="2.1020620">
        <ele>159.8</ele>
        <time>2022-09-26T07:28:30Z</time>
      </trkpt>
      <trkpt lat="41.5811200" lon="2.1020650">
        <ele>160.0</ele>
        <time>2022-09-26T07:28:31Z</time>
      </trkpt>
      <trkpt lat="41.5811490" lon="2.1020680">
        <ele>160.0</ele>
        <time>2022-09-26T07:28:32Z</time>
      </trkpt>
      <trkpt lat="41.5811750" lon="2.1020690">
        <ele>160.2</ele>
        <time>2022-09-26T07:28:33Z</time>
      </trkpt>
      <trkpt lat="41.5812040" lon="2.1020690">
        <ele>160.2</ele>
        <time>2022-09-26T07:28:34Z</time>
      </trkpt>
      <trkpt lat="41.5812370" lon="2.1020680">
        <ele>160.4</ele>
        <time>2022-09-26T07:28:35Z</time>
      </trkpt>
      <trkpt lat="41.5812750" lon="2.1020630">
        <ele>160.4</ele>
        <time>2022-09-26T07:28:36Z</time>
      </trkpt>
      <trkpt lat="41.5813110" lon="2.1020490">
        <ele>160.6</ele>
        <time>2022-09-26T07:28:37Z</time>
      </trkpt>
      <trkpt lat="41.5813550" lon="2.1020350">
        <ele>160.8</ele>
        <time>2022-09-26T07:28:38Z</time>
      </trkpt>
      <trkpt lat="41.5813960" lon="2.1020180">
        <ele>160.8</ele>
        <time>2022-09-26T07:28:39Z</time>
      </trkpt>
      <trkpt lat="41.5814320" lon="2.1020000">
        <ele>161.0</ele>
        <time>2022-09-26T07:28:40Z</time>
      </trkpt>
      <trkpt lat="41.5814660" lon="2.1019810">
        <ele>161.0</ele>
        <time>2022-09-26T07:28:41Z</time>
      </trkpt>
      <trkpt lat="41.5815040" lon="2.1019640">
        <ele>161.2</ele>
        <time>2022-09-26T07:28:42Z</time>
      </trkpt>
      <trkpt lat="41.5815450" lon="2.1019520">
        <ele>161.2</ele>
        <time>2022-09-26T07:28:43Z</time>
      </trkpt>
      <trkpt lat="41.5815860" lon="2.1019430">
        <ele>161.4</ele>
        <time>2022-09-26T07:28:44Z</time>
      </trkpt>
      <trkpt lat="41.5816250" lon="2.1019340">
        <ele>161.6</ele>
        <time>2022-09-26T07:28:45Z</time>
      </trkpt>
      <trkpt lat="41.5816640" lon="2.1019280">
        <ele>161.6</ele>
        <time>2022-09-26T07:28:46Z</time>
      </trkpt>
      <trkpt lat="41.5817020" lon="2.1019230">
        <ele>161.6</ele>
        <time>2022-09-26T07:28:47Z</time>
      </trkpt>
      <trkpt lat="41.5817390" lon="2.1019200">
        <ele>161.8</ele>
        <time>2022-09-26T07:28:48Z</time>
      </trkpt>
      <trkpt lat="41.5817770" lon="2.1019200">
        <ele>161.8</ele>
        <time>2022-09-26T07:28:49Z</time>
      </trkpt>
      <trkpt lat="41.5818110" lon="2.1019200">
        <ele>162.0</ele>
        <time>2022-09-26T07:28:50Z</time>
      </trkpt>
      <trkpt lat="41.5818470" lon="2.1019200">
        <ele>162.0</ele>
        <time>2022-09-26T07:28:51Z</time>
      </trkpt>
      <trkpt lat="41.5818820" lon="2.1019230">
        <ele>162.4</ele>
        <time>2022-09-26T07:28:52Z</time>
      </trkpt>
      <trkpt lat="41.5819160" lon="2.1019270">
        <ele>162.6</ele>
        <time>2022-09-26T07:28:53Z</time>
      </trkpt>
      <trkpt lat="41.5819480" lon="2.1019310">
        <ele>162.8</ele>
        <time>2022-09-26T07:28:54Z</time>
      </trkpt>
      <trkpt lat="41.5819820" lon="2.1019360">
        <ele>163.0</ele>
        <time>2022-09-26T07:28:55Z</time>
      </trkpt>
      <trkpt lat="41.5820140" lon="2.1019430">
        <ele>163.2</ele>
        <time>2022-09-26T07:28:56Z</time>
      </trkpt>
      <trkpt lat="41.5820470" lon="2.1019490">
        <ele>163.4</ele>
        <time>2022-09-26T07:28:57Z</time>
      </trkpt>
      <trkpt lat="41.5820780" lon="2.1019530">
        <ele>163.6</ele>
        <time>2022-09-26T07:28:58Z</time>
      </trkpt>
      <trkpt lat="41.5821070" lon="2.1019560">
        <ele>163.8</ele>
        <time>2022-09-26T07:28:59Z</time>
      </trkpt>
      <trkpt lat="41.5821340" lon="2.1019570">
        <ele>164.0</ele>
        <time>2022-09-26T07:29:00Z</time>
      </trkpt>
      <trkpt lat="41.5821640" lon="2.1019580">
        <ele>164.2</ele>
        <time>2022-09-26T07:29:01Z</time>
      </trkpt>
      <trkpt lat="41.5821930" lon="2.1019580">
        <ele>164.2</ele>
        <time>2022-09-26T07:29:02Z</time>
      </trkpt>
      <trkpt lat="41.5822220" lon="2.1019580">
        <ele>164.4</ele>
        <time>2022-09-26T07:29:03Z</time>
      </trkpt>
      <trkpt lat="41.5822540" lon="2.1019640">
        <ele>164.4</ele>
        <time>2022-09-26T07:29:04Z</time>
      </trkpt>
      <trkpt lat="41.5822870" lon="2.1019740">
        <ele>164.6</ele>
        <time>2022-09-26T07:29:05Z</time>
      </trkpt>
      <trkpt lat="41.5823230" lon="2.1019860">
        <ele>164.6</ele>
        <time>2022-09-26T07:29:06Z</time>
      </trkpt>
      <trkpt lat="41.5823580" lon="2.1020000">
        <ele>164.8</ele>
        <time>2022-09-26T07:29:07Z</time>
      </trkpt>
      <trkpt lat="41.5823900" lon="2.1020120">
        <ele>165.0</ele>
        <time>2022-09-26T07:29:08Z</time>
      </trkpt>
      <trkpt lat="41.5824180" lon="2.1020230">
        <ele>165.4</ele>
        <time>2022-09-26T07:29:09Z</time>
      </trkpt>
      <trkpt lat="41.5824460" lon="2.1020310">
        <ele>165.6</ele>
        <time>2022-09-26T07:29:10Z</time>
      </trkpt>
      <trkpt lat="41.5824780" lon="2.1020390">
        <ele>165.8</ele>
        <time>2022-09-26T07:29:11Z</time>
      </trkpt>
      <trkpt lat="41.5825080" lon="2.1020450">
        <ele>165.8</ele>
        <time>2022-09-26T07:29:12Z</time>
      </trkpt>
      <trkpt lat="41.5825380" lon="2.1020530">
        <ele>165.8</ele>
        <time>2022-09-26T07:29:13Z</time>
      </trkpt>
      <trkpt lat="41.5825670" lon="2.1020620">
        <ele>166.0</ele>
        <time>2022-09-26T07:29:14Z</time>
      </trkpt>
      <trkpt lat="41.5825980" lon="2.1020720">
        <ele>166.2</ele>
        <time>2022-09-26T07:29:15Z</time>
      </trkpt>
      <trkpt lat="41.5826260" lon="2.1020810">
        <ele>166.2</ele>
        <time>2022-09-26T07:29:16Z</time>
      </trkpt>
      <trkpt lat="41.5826510" lon="2.1020870">
        <ele>166.6</ele>
        <time>2022-09-26T07:29:17Z</time>
      </trkpt>
      <trkpt lat="41.5826730" lon="2.1020900">
        <ele>166.8</ele>
        <time>2022-09-26T07:29:18Z</time>
      </trkpt>
      <trkpt lat="41.5826970" lon="2.1020940">
        <ele>167.0</ele>
        <time>2022-09-26T07:29:19Z</time>
      </trkpt>
      <trkpt lat="41.5827270" lon="2.1020990">
        <ele>167.0</ele>
        <time>2022-09-26T07:29:20Z</time>
      </trkpt>
      <trkpt lat="41.5827600" lon="2.1021050">
        <ele>167.2</ele>
        <time>2022-09-26T07:29:21Z</time>
      </trkpt>
      <trkpt lat="41.5827960" lon="2.1021110">
        <ele>167.4</ele>
        <time>2022-09-26T07:29:22Z</time>
      </trkpt>
      <trkpt lat="41.5828320" lon="2.1021160">
        <ele>167.6</ele>
        <time>2022-09-26T07:29:23Z</time>
      </trkpt>
      <trkpt lat="41.5828630" lon="2.1021230">
        <ele>167.8</ele>
        <time>2022-09-26T07:29:24Z</time>
      </trkpt>
      <trkpt lat="41.5828910" lon="2.1021290">
        <ele>168.0</ele>
        <time>2022-09-26T07:29:25Z</time>
      </trkpt>
      <trkpt lat="41.5829210" lon="2.1021350">
        <ele>168.2</ele>
        <time>2022-09-26T07:29:26Z</time>
      </trkpt>
      <trkpt lat="41.5829510" lon="2.1021430">
        <ele>168.0</ele>
        <time>2022-09-26T07:29:27Z</time>
      </trkpt>
      <trkpt lat="41.5829780" lon="2.1021500">
        <ele>168.2</ele>
        <time>2022-09-26T07:29:28Z</time>
      </trkpt>
      <trkpt lat="41.5830080" lon="2.1021520">
        <ele>168.4</ele>
        <time>2022-09-26T07:29:29Z</time>
      </trkpt>
      <trkpt lat="41.5830420" lon="2.1021540">
        <ele>168.6</ele>
        <time>2022-09-26T07:29:30Z</time>
      </trkpt>
      <trkpt lat="41.5830710" lon="2.1021550">
        <ele>168.6</ele>
        <time>2022-09-26T07:29:31Z</time>
      </trkpt>
      <trkpt lat="41.5831050" lon="2.1021540">
        <ele>168.8</ele>
        <time>2022-09-26T07:29:32Z</time>
      </trkpt>
      <trkpt lat="41.5831460" lon="2.1021560">
        <ele>169.2</ele>
        <time>2022-09-26T07:29:33Z</time>
      </trkpt>
      <trkpt lat="41.5831860" lon="2.1021580">
        <ele>169.2</ele>
        <time>2022-09-26T07:29:34Z</time>
      </trkpt>
      <trkpt lat="41.5832210" lon="2.1021520">
        <ele>169.4</ele>
        <time>2022-09-26T07:29:35Z</time>
      </trkpt>
      <trkpt lat="41.5832580" lon="2.1021500">
        <ele>169.6</ele>
        <time>2022-09-26T07:29:36Z</time>
      </trkpt>
      <trkpt lat="41.5832890" lon="2.1021470">
        <ele>169.6</ele>
        <time>2022-09-26T07:29:37Z</time>
      </trkpt>
      <trkpt lat="41.5833190" lon="2.1021410">
        <ele>169.8</ele>
        <time>2022-09-26T07:29:38Z</time>
      </trkpt>
      <trkpt lat="41.5833470" lon="2.1021340">
        <ele>170.0</ele>
        <time>2022-09-26T07:29:39Z</time>
      </trkpt>
      <trkpt lat="41.5833760" lon="2.1021280">
        <ele>170.2</ele>
        <time>2022-09-26T07:29:40Z</time>
      </trkpt>
      <trkpt lat="41.5834050" lon="2.1021240">
        <ele>170.6</ele>
        <time>2022-09-26T07:29:41Z</time>
      </trkpt>
      <trkpt lat="41.5834370" lon="2.1021220">
        <ele>171.0</ele>
        <time>2022-09-26T07:29:42Z</time>
      </trkpt>
      <trkpt lat="41.5834710" lon="2.1021200">
        <ele>171.2</ele>
        <time>2022-09-26T07:29:43Z</time>
      </trkpt>
      <trkpt lat="41.5835050" lon="2.1021180">
        <ele>171.2</ele>
        <time>2022-09-26T07:29:44Z</time>
      </trkpt>
      <trkpt lat="41.5835390" lon="2.1021170">
        <ele>171.4</ele>
        <time>2022-09-26T07:29:45Z</time>
      </trkpt>
      <trkpt lat="41.5835730" lon="2.1021170">
        <ele>171.4</ele>
        <time>2022-09-26T07:29:46Z</time>
      </trkpt>
      <trkpt lat="41.5836050" lon="2.1021180">
        <ele>171.4</ele>
        <time>2022-09-26T07:29:47Z</time>
      </trkpt>
      <trkpt lat="41.5836380" lon="2.1021190">
        <ele>171.4</ele>
        <time>2022-09-26T07:29:48Z</time>
      </trkpt>
      <trkpt lat="41.5836700" lon="2.1021180">
        <ele>171.4</ele>
        <time>2022-09-26T07:29:49Z</time>
      </trkpt>
      <trkpt lat="41.5837010" lon="2.1021160">
        <ele>171.6</ele>
        <time>2022-09-26T07:29:50Z</time>
      </trkpt>
      <trkpt lat="41.5837270" lon="2.1021140">
        <ele>171.6</ele>
        <time>2022-09-26T07:29:51Z</time>
      </trkpt>
      <trkpt lat="41.5837560" lon="2.1021100">
        <ele>171.8</ele>
        <time>2022-09-26T07:29:52Z</time>
      </trkpt>
      <trkpt lat="41.5837860" lon="2.1021040">
        <ele>171.8</ele>
        <time>2022-09-26T07:29:53Z</time>
      </trkpt>
      <trkpt lat="41.5838170" lon="2.1020940">
        <ele>172.0</ele>
        <time>2022-09-26T07:29:54Z</time>
      </trkpt>
      <trkpt lat="41.5838530" lon="2.1020840">
        <ele>172.2</ele>
        <time>2022-09-26T07:29:55Z</time>
      </trkpt>
      <trkpt lat="41.5838870" lon="2.1020760">
        <ele>172.4</ele>
        <time>2022-09-26T07:29:56Z</time>
      </trkpt>
      <trkpt lat="41.5839190" lon="2.1020680">
        <ele>172.8</ele>
        <time>2022-09-26T07:29:57Z</time>
      </trkpt>
      <trkpt lat="41.5839560" lon="2.1020590">
        <ele>172.8</ele>
        <time>2022-09-26T07:29:58Z</time>
      </trkpt>
      <trkpt lat="41.5839910" lon="2.1020480">
        <ele>173.0</ele>
        <time>2022-09-26T07:29:59Z</time>
      </trkpt>
      <trkpt lat="41.5840260" lon="2.1020370">
        <ele>173.0</ele>
        <time>2022-09-26T07:30:00Z</time>
      </trkpt>
      <trkpt lat="41.5840610" lon="2.1020270">
        <ele>173.2</ele>
        <time>2022-09-26T07:30:01Z</time>
      </trkpt>
      <trkpt lat="41.5840950" lon="2.1020190">
        <ele>173.2</ele>
        <time>2022-09-26T07:30:02Z</time>
      </trkpt>
      <trkpt lat="41.5841260" lon="2.1020110">
        <ele>173.0</ele>
        <time>2022-09-26T07:30:03Z</time>
      </trkpt>
      <trkpt lat="41.5841590" lon="2.1020060">
        <ele>173.0</ele>
        <time>2022-09-26T07:30:04Z</time>
      </trkpt>
      <trkpt lat="41.5841950" lon="2.1020010">
        <ele>173.2</ele>
        <time>2022-09-26T07:30:05Z</time>
      </trkpt>
      <trkpt lat="41.5842300" lon="2.1019950">
        <ele>173.2</ele>
        <time>2022-09-26T07:30:06Z</time>
      </trkpt>
      <trkpt lat="41.5842630" lon="2.1019910">
        <ele>173.4</ele>
        <time>2022-09-26T07:30:07Z</time>
      </trkpt>
      <trkpt lat="41.5842940" lon="2.1019840">
        <ele>173.4</ele>
        <time>2022-09-26T07:30:08Z</time>
      </trkpt>
      <trkpt lat="41.5843280" lon="2.1019750">
        <ele>173.6</ele>
        <time>2022-09-26T07:30:09Z</time>
      </trkpt>
      <trkpt lat="41.5843620" lon="2.1019650">
        <ele>173.6</ele>
        <time>2022-09-26T07:30:10Z</time>
      </trkpt>
      <trkpt lat="41.5843930" lon="2.1019570">
        <ele>173.6</ele>
        <time>2022-09-26T07:30:11Z</time>
      </trkpt>
      <trkpt lat="41.5844260" lon="2.1019520">
        <ele>173.8</ele>
        <time>2022-09-26T07:30:12Z</time>
      </trkpt>
      <trkpt lat="41.5844550" lon="2.1019470">
        <ele>173.6</ele>
        <time>2022-09-26T07:30:13Z</time>
      </trkpt>
      <trkpt lat="41.5844810" lon="2.1019420">
        <ele>173.6</ele>
        <time>2022-09-26T07:30:14Z</time>
      </trkpt>
      <trkpt lat="41.5845070" lon="2.1019330">
        <ele>173.6</ele>
        <time>2022-09-26T07:30:15Z</time>
      </trkpt>
      <trkpt lat="41.5845360" lon="2.1019240">
        <ele>173.6</ele>
        <time>2022-09-26T07:30:16Z</time>
      </trkpt>
      <trkpt lat="41.5845730" lon="2.1019210">
        <ele>173.8</ele>
        <time>2022-09-26T07:30:17Z</time>
      </trkpt>
      <trkpt lat="41.5846130" lon="2.1019220">
        <ele>173.8</ele>
        <time>2022-09-26T07:30:18Z</time>
      </trkpt>
      <trkpt lat="41.5846500" lon="2.1019180">
        <ele>174.0</ele>
        <time>2022-09-26T07:30:19Z</time>
      </trkpt>
      <trkpt lat="41.5846870" lon="2.1019170">
        <ele>174.0</ele>
        <time>2022-09-26T07:30:20Z</time>
      </trkpt>
      <trkpt lat="41.5847280" lon="2.1019150">
        <ele>174.4</ele>
        <time>2022-09-26T07:30:21Z</time>
      </trkpt>
      <trkpt lat="41.5847680" lon="2.1019120">
        <ele>174.4</ele>
        <time>2022-09-26T07:30:22Z</time>
      </trkpt>
      <trkpt lat="41.5848050" lon="2.1018970">
        <ele>174.4</ele>
        <time>2022-09-26T07:30:23Z</time>
      </trkpt>
      <trkpt lat="41.5848410" lon="2.1018860">
        <ele>174.6</ele>
        <time>2022-09-26T07:30:24Z</time>
      </trkpt>
      <trkpt lat="41.5848730" lon="2.1018740">
        <ele>174.6</ele>
        <time>2022-09-26T07:30:25Z</time>
      </trkpt>
      <trkpt lat="41.5849020" lon="2.1018650">
        <ele>174.6</ele>
        <time>2022-09-26T07:30:26Z</time>
      </trkpt>
      <trkpt lat="41.5849310" lon="2.1018600">
        <ele>174.8</ele>
        <time>2022-09-26T07:30:27Z</time>
      </trkpt>
      <trkpt lat="41.5849630" lon="2.1018550">
        <ele>174.8</ele>
        <time>2022-09-26T07:30:28Z</time>
      </trkpt>
      <trkpt lat="41.5849980" lon="2.1018490">
        <ele>175.0</ele>
        <time>2022-09-26T07:30:29Z</time>
      </trkpt>
      <trkpt lat="41.5850300" lon="2.1018450">
        <ele>174.8</ele>
        <time>2022-09-26T07:30:30Z</time>
      </trkpt>
      <trkpt lat="41.5850640" lon="2.1018410">
        <ele>175.0</ele>
        <time>2022-09-26T07:30:31Z</time>
      </trkpt>
      <trkpt lat="41.5850970" lon="2.1018300">
        <ele>175.0</ele>
        <time>2022-09-26T07:30:32Z</time>
      </trkpt>
      <trkpt lat="41.5851280" lon="2.1018200">
        <ele>175.2</ele>
        <time>2022-09-26T07:30:33Z</time>
      </trkpt>
      <trkpt lat="41.5851620" lon="2.1018080">
        <ele>175.2</ele>
        <time>2022-09-26T07:30:34Z</time>
      </trkpt>
      <trkpt lat="41.5851980" lon="2.1017940">
        <ele>175.2</ele>
        <time>2022-09-26T07:30:35Z</time>
      </trkpt>
      <trkpt lat="41.5852330" lon="2.1017800">
        <ele>175.2</ele>
        <time>2022-09-26T07:30:36Z</time>
      </trkpt>
      <trkpt lat="41.5852680" lon="2.1017610">
        <ele>175.2</ele>
        <time>2022-09-26T07:30:37Z</time>
      </trkpt>
      <trkpt lat="41.5853020" lon="2.1017380">
        <ele>175.2</ele>
        <time>2022-09-26T07:30:38Z</time>
      </trkpt>
      <trkpt lat="41.5853380" lon="2.1017110">
        <ele>175.2</ele>
        <time>2022-09-26T07:30:39Z</time>
      </trkpt>
      <trkpt lat="41.5853760" lon="2.1016810">
        <ele>175.4</ele>
        <time>2022-09-26T07:30:40Z</time>
      </trkpt>
      <trkpt lat="41.5854130" lon="2.1016490">
        <ele>175.4</ele>
        <time>2022-09-26T07:30:41Z</time>
      </trkpt>
      <trkpt lat="41.5854510" lon="2.1016180">
        <ele>175.4</ele>
        <time>2022-09-26T07:30:42Z</time>
      </trkpt>
      <trkpt lat="41.5854920" lon="2.1015920">
        <ele>175.2</ele>
        <time>2022-09-26T07:30:43Z</time>
      </trkpt>
      <trkpt lat="41.5855320" lon="2.1015690">
        <ele>175.2</ele>
        <time>2022-09-26T07:30:44Z</time>
      </trkpt>
      <trkpt lat="41.5855740" lon="2.1015480">
        <ele>175.2</ele>
        <time>2022-09-26T07:30:45Z</time>
      </trkpt>
      <trkpt lat="41.5856160" lon="2.1015250">
        <ele>175.2</ele>
        <time>2022-09-26T07:30:46Z</time>
      </trkpt>
      <trkpt lat="41.5856590" lon="2.1015000">
        <ele>175.2</ele>
        <time>2022-09-26T07:30:47Z</time>
      </trkpt>
      <trkpt lat="41.5856980" lon="2.1014790">
        <ele>175.2</ele>
        <time>2022-09-26T07:30:48Z</time>
      </trkpt>
      <trkpt lat="41.5857380" lon="2.1014570">
        <ele>175.2</ele>
        <time>2022-09-26T07:30:49Z</time>
      </trkpt>
      <trkpt lat="41.5857760" lon="2.1014360">
        <ele>175.2</ele>
        <time>2022-09-26T07:30:50Z</time>
      </trkpt>
      <trkpt lat="41.5858150" lon="2.1014110">
        <ele>175.2</ele>
        <time>2022-09-26T07:30:51Z</time>
      </trkpt>
      <trkpt lat="41.5858550" lon="2.1013890">
        <ele>175.0</ele>
        <time>2022-09-26T07:30:52Z</time>
      </trkpt>
      <trkpt lat="41.5858960" lon="2.1013630">
        <ele>175.0</ele>
        <time>2022-09-26T07:30:53Z</time>
      </trkpt>
      <trkpt lat="41.5859390" lon="2.1013370">
        <ele>175.0</ele>
        <time>2022-09-26T07:30:54Z</time>
      </trkpt>
      <trkpt lat="41.5859770" lon="2.1013040">
        <ele>175.0</ele>
        <time>2022-09-26T07:30:55Z</time>
      </trkpt>
      <trkpt lat="41.5860130" lon="2.1012710">
        <ele>175.0</ele>
        <time>2022-09-26T07:30:56Z</time>
      </trkpt>
      <trkpt lat="41.5860420" lon="2.1012330">
        <ele>174.8</ele>
        <time>2022-09-26T07:30:57Z</time>
      </trkpt>
      <trkpt lat="41.5860600" lon="2.1011830">
        <ele>174.8</ele>
        <time>2022-09-26T07:30:58Z</time>
      </trkpt>
      <trkpt lat="41.5860830" lon="2.1011400">
        <ele>174.8</ele>
        <time>2022-09-26T07:30:59Z</time>
      </trkpt>
      <trkpt lat="41.5861060" lon="2.1010990">
        <ele>174.8</ele>
        <time>2022-09-26T07:31:00Z</time>
      </trkpt>
      <trkpt lat="41.5861260" lon="2.1010520">
        <ele>174.8</ele>
        <time>2022-09-26T07:31:01Z</time>
      </trkpt>
      <trkpt lat="41.5861400" lon="2.1010020">
        <ele>174.8</ele>
        <time>2022-09-26T07:31:02Z</time>
      </trkpt>
      <trkpt lat="41.5861530" lon="2.1009420">
        <ele>174.8</ele>
        <time>2022-09-26T07:31:03Z</time>
      </trkpt>
      <trkpt lat="41.5861740" lon="2.1008900">
        <ele>174.8</ele>
        <time>2022-09-26T07:31:04Z</time>
      </trkpt>
      <trkpt lat="41.5862110" lon="2.1008600">
        <ele>174.8</ele>
        <time>2022-09-26T07:31:05Z</time>
      </trkpt>
      <trkpt lat="41.5862480" lon="2.1008390">
        <ele>174.8</ele>
        <time>2022-09-26T07:31:06Z</time>
      </trkpt>
      <trkpt lat="41.5862780" lon="2.1008090">
        <ele>174.8</ele>
        <time>2022-09-26T07:31:07Z</time>
      </trkpt>
      <trkpt lat="41.5863080" lon="2.1007780">
        <ele>174.8</ele>
        <time>2022-09-26T07:31:08Z</time>
      </trkpt>
      <trkpt lat="41.5863400" lon="2.1007550">
        <ele>175.0</ele>
        <time>2022-09-26T07:31:09Z</time>
      </trkpt>
      <trkpt lat="41.5863710" lon="2.1007290">
        <ele>175.0</ele>
        <time>2022-09-26T07:31:10Z</time>
      </trkpt>
      <trkpt lat="41.5864040" lon="2.1007040">
        <ele>175.2</ele>
        <time>2022-09-26T07:31:11Z</time>
      </trkpt>
      <trkpt lat="41.5864400" lon="2.1006830">
        <ele>175.2</ele>
        <time>2022-09-26T07:31:12Z</time>
      </trkpt>
      <trkpt lat="41.5864770" lon="2.1006610">
        <ele>175.2</ele>
        <time>2022-09-26T07:31:13Z</time>
      </trkpt>
      <trkpt lat="41.5865130" lon="2.1006390">
        <ele>175.2</ele>
        <time>2022-09-26T07:31:14Z</time>
      </trkpt>
      <trkpt lat="41.5865490" lon="2.1006180">
        <ele>175.0</ele>
        <time>2022-09-26T07:31:15Z</time>
      </trkpt>
      <trkpt lat="41.5865850" lon="2.1005940">
        <ele>175.2</ele>
        <time>2022-09-26T07:31:16Z</time>
      </trkpt>
      <trkpt lat="41.5866220" lon="2.1005730">
        <ele>175.2</ele>
        <time>2022-09-26T07:31:17Z</time>
      </trkpt>
      <trkpt lat="41.5866580" lon="2.1005500">
        <ele>175.2</ele>
        <time>2022-09-26T07:31:18Z</time>
      </trkpt>
      <trkpt lat="41.5866970" lon="2.1005290">
        <ele>175.2</ele>
        <time>2022-09-26T07:31:19Z</time>
      </trkpt>
      <trkpt lat="41.5867370" lon="2.1005110">
        <ele>175.2</ele>
        <time>2022-09-26T07:31:20Z</time>
      </trkpt>
      <trkpt lat="41.5867790" lon="2.1004960">
        <ele>175.2</ele>
        <time>2022-09-26T07:31:21Z</time>
      </trkpt>
      <trkpt lat="41.5868210" lon="2.1004840">
        <ele>175.2</ele>
        <time>2022-09-26T07:31:22Z</time>
      </trkpt>
      <trkpt lat="41.5868660" lon="2.1004720">
        <ele>174.8</ele>
        <time>2022-09-26T07:31:23Z</time>
      </trkpt>
      <trkpt lat="41.5869120" lon="2.1004570">
        <ele>174.6</ele>
        <time>2022-09-26T07:31:24Z</time>
      </trkpt>
      <trkpt lat="41.5869600" lon="2.1004410">
        <ele>174.4</ele>
        <time>2022-09-26T07:31:25Z</time>
      </trkpt>
      <trkpt lat="41.5870060" lon="2.1004290">
        <ele>174.0</ele>
        <time>2022-09-26T07:31:26Z</time>
      </trkpt>
      <trkpt lat="41.5870500" lon="2.1004290">
        <ele>174.0</ele>
        <time>2022-09-26T07:31:27Z</time>
      </trkpt>
      <trkpt lat="41.5870910" lon="2.1004380">
        <ele>173.8</ele>
        <time>2022-09-26T07:31:28Z</time>
      </trkpt>
      <trkpt lat="41.5871260" lon="2.1004560">
        <ele>173.8</ele>
        <time>2022-09-26T07:31:29Z</time>
      </trkpt>
      <trkpt lat="41.5871590" lon="2.1004750">
        <ele>173.8</ele>
        <time>2022-09-26T07:31:30Z</time>
      </trkpt>
      <trkpt lat="41.5871930" lon="2.1004920">
        <ele>173.8</ele>
        <time>2022-09-26T07:31:31Z</time>
      </trkpt>
      <trkpt lat="41.5872300" lon="2.1005040">
        <ele>173.8</ele>
        <time>2022-09-26T07:31:32Z</time>
      </trkpt>
      <trkpt lat="41.5872670" lon="2.1005100">
        <ele>174.0</ele>
        <time>2022-09-26T07:31:33Z</time>
      </trkpt>
      <trkpt lat="41.5873040" lon="2.1005080">
        <ele>174.0</ele>
        <time>2022-09-26T07:31:34Z</time>
      </trkpt>
      <trkpt lat="41.5873400" lon="2.1005000">
        <ele>174.0</ele>
        <time>2022-09-26T07:31:35Z</time>
      </trkpt>
      <trkpt lat="41.5873760" lon="2.1004870">
        <ele>174.0</ele>
        <time>2022-09-26T07:31:36Z</time>
      </trkpt>
      <trkpt lat="41.5874110" lon="2.1004710">
        <ele>174.2</ele>
        <time>2022-09-26T07:31:37Z</time>
      </trkpt>
      <trkpt lat="41.5874440" lon="2.1004520">
        <ele>174.4</ele>
        <time>2022-09-26T07:31:38Z</time>
      </trkpt>
      <trkpt lat="41.5874760" lon="2.1004320">
        <ele>174.4</ele>
        <time>2022-09-26T07:31:39Z</time>
      </trkpt>
      <trkpt lat="41.5875050" lon="2.1004120">
        <ele>174.4</ele>
        <time>2022-09-26T07:31:40Z</time>
      </trkpt>
      <trkpt lat="41.5875370" lon="2.1003940">
        <ele>174.4</ele>
        <time>2022-09-26T07:31:41Z</time>
      </trkpt>
      <trkpt lat="41.5875690" lon="2.1003760">
        <ele>174.6</ele>
        <time>2022-09-26T07:31:42Z</time>
      </trkpt>
      <trkpt lat="41.5876020" lon="2.1003590">
        <ele>174.6</ele>
        <time>2022-09-26T07:31:43Z</time>
      </trkpt>
      <trkpt lat="41.5876360" lon="2.1003490">
        <ele>174.6</ele>
        <time>2022-09-26T07:31:44Z</time>
      </trkpt>
      <trkpt lat="41.5876670" lon="2.1003430">
        <ele>174.6</ele>
        <time>2022-09-26T07:31:45Z</time>
      </trkpt>
      <trkpt lat="41.5876950" lon="2.1003420">
        <ele>174.8</ele>
        <time>2022-09-26T07:31:46Z</time>
      </trkpt>
      <trkpt lat="41.5877210" lon="2.1003440">
        <ele>175.0</ele>
        <time>2022-09-26T07:31:47Z</time>
      </trkpt>
      <trkpt lat="41.5877450" lon="2.1003470">
        <ele>175.2</ele>
        <time>2022-09-26T07:31:48Z</time>
      </trkpt>
      <trkpt lat="41.5877700" lon="2.1003500">
        <ele>175.6</ele>
        <time>2022-09-26T07:31:49Z</time>
      </trkpt>
      <trkpt lat="41.5877970" lon="2.1003510">
        <ele>175.8</ele>
        <time>2022-09-26T07:31:50Z</time>
      </trkpt>
      <trkpt lat="41.5878250" lon="2.1003480">
        <ele>175.8</ele>
        <time>2022-09-26T07:31:51Z</time>
      </trkpt>
      <trkpt lat="41.5878540" lon="2.1003420">
        <ele>176.0</ele>
        <time>2022-09-26T07:31:52Z</time>
      </trkpt>
      <trkpt lat="41.5878830" lon="2.1003300">
        <ele>176.0</ele>
        <time>2022-09-26T07:31:53Z</time>
      </trkpt>
      <trkpt lat="41.5879100" lon="2.1003180">
        <ele>176.2</ele>
        <time>2022-09-26T07:31:54Z</time>
      </trkpt>
      <trkpt lat="41.5879390" lon="2.1003080">
        <ele>176.2</ele>
        <time>2022-09-26T07:31:55Z</time>
      </trkpt>
      <trkpt lat="41.5879670" lon="2.1003010">
        <ele>176.2</ele>
        <time>2022-09-26T07:31:56Z</time>
      </trkpt>
      <trkpt lat="41.5879950" lon="2.1002940">
        <ele>176.2</ele>
        <time>2022-09-26T07:31:57Z</time>
      </trkpt>
      <trkpt lat="41.5880240" lon="2.1002900">
        <ele>176.4</ele>
        <time>2022-09-26T07:31:58Z</time>
      </trkpt>
      <trkpt lat="41.5880540" lon="2.1002890">
        <ele>176.6</ele>
        <time>2022-09-26T07:31:59Z</time>
      </trkpt>
      <trkpt lat="41.5880830" lon="2.1002960">
        <ele>176.6</ele>
        <time>2022-09-26T07:32:00Z</time>
      </trkpt>
      <trkpt lat="41.5881120" lon="2.1003060">
        <ele>176.8</ele>
        <time>2022-09-26T07:32:01Z</time>
      </trkpt>
      <trkpt lat="41.5881390" lon="2.1003160">
        <ele>177.0</ele>
        <time>2022-09-26T07:32:02Z</time>
      </trkpt>
      <trkpt lat="41.5881660" lon="2.1003240">
        <ele>177.2</ele>
        <time>2022-09-26T07:32:03Z</time>
      </trkpt>
      <trkpt lat="41.5881930" lon="2.1003350">
        <ele>177.6</ele>
        <time>2022-09-26T07:32:04Z</time>
      </trkpt>
      <trkpt lat="41.5882190" lon="2.1003470">
        <ele>178.0</ele>
        <time>2022-09-26T07:32:05Z</time>
      </trkpt>
      <trkpt lat="41.5882420" lon="2.1003590">
        <ele>178.2</ele>
        <time>2022-09-26T07:32:06Z</time>
      </trkpt>
      <trkpt lat="41.5882650" lon="2.1003680">
        <ele>178.4</ele>
        <time>2022-09-26T07:32:07Z</time>
      </trkpt>
      <trkpt lat="41.5882940" lon="2.1003750">
        <ele>178.4</ele>
        <time>2022-09-26T07:32:08Z</time>
      </trkpt>
      <trkpt lat="41.5883230" lon="2.1003760">
        <ele>178.6</ele>
        <time>2022-09-26T07:32:09Z</time>
      </trkpt>
      <trkpt lat="41.5883510" lon="2.1003770">
        <ele>178.8</ele>
        <time>2022-09-26T07:32:10Z</time>
      </trkpt>
      <trkpt lat="41.5883800" lon="2.1003790">
        <ele>179.0</ele>
        <time>2022-09-26T07:32:11Z</time>
      </trkpt>
      <trkpt lat="41.5884100" lon="2.1003800">
        <ele>179.0</ele>
        <time>2022-09-26T07:32:12Z</time>
      </trkpt>
      <trkpt lat="41.5884370" lon="2.1003820">
        <ele>179.4</ele>
        <time>2022-09-26T07:32:13Z</time>
      </trkpt>
      <trkpt lat="41.5884650" lon="2.1003860">
        <ele>179.6</ele>
        <time>2022-09-26T07:32:14Z</time>
      </trkpt>
      <trkpt lat="41.5884920" lon="2.1003890">
        <ele>179.6</ele>
        <time>2022-09-26T07:32:15Z</time>
      </trkpt>
      <trkpt lat="41.5885220" lon="2.1003910">
        <ele>179.8</ele>
        <time>2022-09-26T07:32:16Z</time>
      </trkpt>
      <trkpt lat="41.5885520" lon="2.1003940">
        <ele>180.0</ele>
        <time>2022-09-26T07:32:17Z</time>
      </trkpt>
      <trkpt lat="41.5885800" lon="2.1003970">
        <ele>180.0</ele>
        <time>2022-09-26T07:32:18Z</time>
      </trkpt>
      <trkpt lat="41.5886100" lon="2.1003990">
        <ele>180.2</ele>
        <time>2022-09-26T07:32:19Z</time>
      </trkpt>
      <trkpt lat="41.5886390" lon="2.1003990">
        <ele>180.2</ele>
        <time>2022-09-26T07:32:20Z</time>
      </trkpt>
      <trkpt lat="41.5886660" lon="2.1003980">
        <ele>180.6</ele>
        <time>2022-09-26T07:32:21Z</time>
      </trkpt>
      <trkpt lat="41.5886920" lon="2.1003940">
        <ele>180.8</ele>
        <time>2022-09-26T07:32:22Z</time>
      </trkpt>
      <trkpt lat="41.5887190" lon="2.1003890">
        <ele>180.8</ele>
        <time>2022-09-26T07:32:23Z</time>
      </trkpt>
      <trkpt lat="41.5887470" lon="2.1003830">
        <ele>180.8</ele>
        <time>2022-09-26T07:32:24Z</time>
      </trkpt>
      <trkpt lat="41.5887760" lon="2.1003780">
        <ele>181.0</ele>
        <time>2022-09-26T07:32:25Z</time>
      </trkpt>
      <trkpt lat="41.5888050" lon="2.1003720">
        <ele>181.4</ele>
        <time>2022-09-26T07:32:26Z</time>
      </trkpt>
      <trkpt lat="41.5888330" lon="2.1003640">
        <ele>181.4</ele>
        <time>2022-09-26T07:32:27Z</time>
      </trkpt>
      <trkpt lat="41.5888590" lon="2.1003590">
        <ele>181.6</ele>
        <time>2022-09-26T07:32:28Z</time>
      </trkpt>
      <trkpt lat="41.5888830" lon="2.1003580">
        <ele>181.8</ele>
        <time>2022-09-26T07:32:29Z</time>
      </trkpt>
      <trkpt lat="41.5889100" lon="2.1003580">
        <ele>181.8</ele>
        <time>2022-09-26T07:32:30Z</time>
      </trkpt>
      <trkpt lat="41.5889360" lon="2.1003570">
        <ele>182.0</ele>
        <time>2022-09-26T07:32:31Z</time>
      </trkpt>
      <trkpt lat="41.5889590" lon="2.1003560">
        <ele>182.0</ele>
        <time>2022-09-26T07:32:32Z</time>
      </trkpt>
      <trkpt lat="41.5889820" lon="2.1003550">
        <ele>182.0</ele>
        <time>2022-09-26T07:32:33Z</time>
      </trkpt>
      <trkpt lat="41.5890060" lon="2.1003540">
        <ele>182.2</ele>
        <time>2022-09-26T07:32:34Z</time>
      </trkpt>
      <trkpt lat="41.5890300" lon="2.1003530">
        <ele>182.4</ele>
        <time>2022-09-26T07:32:35Z</time>
      </trkpt>
      <trkpt lat="41.5890530" lon="2.1003540">
        <ele>182.4</ele>
        <time>2022-09-26T07:32:36Z</time>
      </trkpt>
      <trkpt lat="41.5890760" lon="2.1003570">
        <ele>182.6</ele>
        <time>2022-09-26T07:32:37Z</time>
      </trkpt>
      <trkpt lat="41.5891000" lon="2.1003590">
        <ele>182.6</ele>
        <time>2022-09-26T07:32:38Z</time>
      </trkpt>
      <trkpt lat="41.5891220" lon="2.1003620">
        <ele>182.6</ele>
        <time>2022-09-26T07:32:39Z</time>
      </trkpt>
      <trkpt lat="41.5891440" lon="2.1003680">
        <ele>183.0</ele>
        <time>2022-09-26T07:32:40Z</time>
      </trkpt>
      <trkpt lat="41.5891650" lon="2.1003740">
        <ele>183.2</ele>
        <time>2022-09-26T07:32:41Z</time>
      </trkpt>
      <trkpt lat="41.5891860" lon="2.1003800">
        <ele>183.4</ele>
        <time>2022-09-26T07:32:42Z</time>
      </trkpt>
      <trkpt lat="41.5892080" lon="2.1003860">
        <ele>183.6</ele>
        <time>2022-09-26T07:32:43Z</time>
      </trkpt>
      <trkpt lat="41.5892290" lon="2.1003890">
        <ele>184.0</ele>
        <time>2022-09-26T07:32:44Z</time>
      </trkpt>
      <trkpt lat="41.5892510" lon="2.1003970">
        <ele>184.2</ele>
        <time>2022-09-26T07:32:45Z</time>
      </trkpt>
      <trkpt lat="41.5892720" lon="2.1004070">
        <ele>184.4</ele>
        <time>2022-09-26T07:32:46Z</time>
      </trkpt>
      <trkpt lat="41.5892930" lon="2.1004140">
        <ele>184.6</ele>
        <time>2022-09-26T07:32:47Z</time>
      </trkpt>
      <trkpt lat="41.5893140" lon="2.1004180">
        <ele>185.0</ele>
        <time>2022-09-26T07:32:48Z</time>
      </trkpt>
      <trkpt lat="41.5893360" lon="2.1004220">
        <ele>185.2</ele>
        <time>2022-09-26T07:32:49Z</time>
      </trkpt>
      <trkpt lat="41.5893590" lon="2.1004280">
        <ele>185.4</ele>
        <time>2022-09-26T07:32:50Z</time>
      </trkpt>
      <trkpt lat="41.5893800" lon="2.1004350">
        <ele>185.6</ele>
        <time>2022-09-26T07:32:51Z</time>
      </trkpt>
      <trkpt lat="41.5894030" lon="2.1004410">
        <ele>185.8</ele>
        <time>2022-09-26T07:32:52Z</time>
      </trkpt>
      <trkpt lat="41.5894270" lon="2.1004450">
        <ele>186.0</ele>
        <time>2022-09-26T07:32:53Z</time>
      </trkpt>
      <trkpt lat="41.5894500" lon="2.1004530">
        <ele>186.0</ele>
        <time>2022-09-26T07:32:54Z</time>
      </trkpt>
      <trkpt lat="41.5894720" lon="2.1004640">
        <ele>186.2</ele>
        <time>2022-09-26T07:32:55Z</time>
      </trkpt>
      <trkpt lat="41.5894930" lon="2.1004750">
        <ele>186.4</ele>
        <time>2022-09-26T07:32:56Z</time>
      </trkpt>
      <trkpt lat="41.5895130" lon="2.1004870">
        <ele>186.6</ele>
        <time>2022-09-26T07:32:57Z</time>
      </trkpt>
      <trkpt lat="41.5895330" lon="2.1005020">
        <ele>186.6</ele>
        <time>2022-09-26T07:32:58Z</time>
      </trkpt>
      <trkpt lat="41.5895510" lon="2.1005190">
        <ele>186.8</ele>
        <time>2022-09-26T07:32:59Z</time>
      </trkpt>
      <trkpt lat="41.5895690" lon="2.1005360">
        <ele>187.0</ele>
        <time>2022-09-26T07:33:00Z</time>
      </trkpt>
      <trkpt lat="41.5895860" lon="2.1005530">
        <ele>187.0</ele>
        <time>2022-09-26T07:33:01Z</time>
      </trkpt>
      <trkpt lat="41.5896020" lon="2.1005720">
        <ele>187.2</ele>
        <time>2022-09-26T07:33:02Z</time>
      </trkpt>
      <trkpt lat="41.5896150" lon="2.1005920">
        <ele>187.6</ele>
        <time>2022-09-26T07:33:03Z</time>
      </trkpt>
      <trkpt lat="41.5896260" lon="2.1006140">
        <ele>187.8</ele>
        <time>2022-09-26T07:33:04Z</time>
      </trkpt>
      <trkpt lat="41.5896340" lon="2.1006380">
        <ele>188.2</ele>
        <time>2022-09-26T07:33:05Z</time>
      </trkpt>
      <trkpt lat="41.5896360" lon="2.1006600">
        <ele>188.4</ele>
        <time>2022-09-26T07:33:06Z</time>
      </trkpt>
      <trkpt lat="41.5896360" lon="2.1006820">
        <ele>188.6</ele>
        <time>2022-09-26T07:33:07Z</time>
      </trkpt>
      <trkpt lat="41.5896370" lon="2.1007040">
        <ele>188.8</ele>
        <time>2022-09-26T07:33:08Z</time>
      </trkpt>
      <trkpt lat="41.5896400" lon="2.1007270">
        <ele>189.0</ele>
        <time>2022-09-26T07:33:09Z</time>
      </trkpt>
      <trkpt lat="41.5896420" lon="2.1007520">
        <ele>189.2</ele>
        <time>2022-09-26T07:33:10Z</time>
      </trkpt>
      <trkpt lat="41.5896470" lon="2.1007780">
        <ele>189.4</ele>
        <time>2022-09-26T07:33:11Z</time>
      </trkpt>
      <trkpt lat="41.5896540" lon="2.1008040">
        <ele>189.6</ele>
        <time>2022-09-26T07:33:12Z</time>
      </trkpt>
      <trkpt lat="41.5896610" lon="2.1008280">
        <ele>190.0</ele>
        <time>2022-09-26T07:33:13Z</time>
      </trkpt>
      <trkpt lat="41.5896660" lon="2.1008520">
        <ele>190.2</ele>
        <time>2022-09-26T07:33:14Z</time>
      </trkpt>
      <trkpt lat="41.5896700" lon="2.1008750">
        <ele>190.4</ele>
        <time>2022-09-26T07:33:15Z</time>
      </trkpt>
      <trkpt lat="41.5896740" lon="2.1008990">
        <ele>190.6</ele>
        <time>2022-09-26T07:33:16Z</time>
      </trkpt>
      <trkpt lat="41.5896810" lon="2.1009220">
        <ele>191.0</ele>
        <time>2022-09-26T07:33:17Z</time>
      </trkpt>
      <trkpt lat="41.5896890" lon="2.1009420">
        <ele>191.2</ele>
        <time>2022-09-26T07:33:18Z</time>
      </trkpt>
      <trkpt lat="41.5897000" lon="2.1009610">
        <ele>191.4</ele>
        <time>2022-09-26T07:33:19Z</time>
      </trkpt>
      <trkpt lat="41.5897140" lon="2.1009810">
        <ele>191.8</ele>
        <time>2022-09-26T07:33:20Z</time>
      </trkpt>
      <trkpt lat="41.5897240" lon="2.1009990">
        <ele>192.0</ele>
        <time>2022-09-26T07:33:21Z</time>
      </trkpt>
      <trkpt lat="41.5897330" lon="2.1010170">
        <ele>192.4</ele>
        <time>2022-09-26T07:33:22Z</time>
      </trkpt>
      <trkpt lat="41.5897440" lon="2.1010370">
        <ele>192.6</ele>
        <time>2022-09-26T07:33:23Z</time>
      </trkpt>
      <trkpt lat="41.5897540" lon="2.1010570">
        <ele>192.8</ele>
        <time>2022-09-26T07:33:24Z</time>
      </trkpt>
      <trkpt lat="41.5897610" lon="2.1010780">
        <ele>192.8</ele>
        <time>2022-09-26T07:33:25Z</time>
      </trkpt>
      <trkpt lat="41.5897700" lon="2.1010990">
        <ele>193.0</ele>
        <time>2022-09-26T07:33:26Z</time>
      </trkpt>
      <trkpt lat="41.5897820" lon="2.1011180">
        <ele>193.2</ele>
        <time>2022-09-26T07:33:27Z</time>
      </trkpt>
      <trkpt lat="41.5897940" lon="2.1011360">
        <ele>193.4</ele>
        <time>2022-09-26T07:33:28Z</time>
      </trkpt>
      <trkpt lat="41.5898010" lon="2.1011510">
        <ele>193.8</ele>
        <time>2022-09-26T07:33:29Z</time>
      </trkpt>
      <trkpt lat="41.5898090" lon="2.1011680">
        <ele>194.0</ele>
        <time>2022-09-26T07:33:30Z</time>
      </trkpt>
      <trkpt lat="41.5898180" lon="2.1011890">
        <ele>194.2</ele>
        <time>2022-09-26T07:33:31Z</time>
      </trkpt>
      <trkpt lat="41.5898280" lon="2.1012060">
        <ele>194.4</ele>
        <time>2022-09-26T07:33:32Z</time>
      </trkpt>
      <trkpt lat="41.5898420" lon="2.1012170">
        <ele>194.8</ele>
        <time>2022-09-26T07:33:33Z</time>
      </trkpt>
      <trkpt lat="41.5898570" lon="2.1012260">
        <ele>195.2</ele>
        <time>2022-09-26T07:33:34Z</time>
      </trkpt>
      <trkpt lat="41.5898750" lon="2.1012330">
        <ele>195.4</ele>
        <time>2022-09-26T07:33:35Z</time>
      </trkpt>
      <trkpt lat="41.5898900" lon="2.1012400">
        <ele>195.6</ele>
        <time>2022-09-26T07:33:36Z</time>
      </trkpt>
      <trkpt lat="41.5899040" lon="2.1012500">
        <ele>195.8</ele>
        <time>2022-09-26T07:33:37Z</time>
      </trkpt>
      <trkpt lat="41.5899170" lon="2.1012600">
        <ele>196.0</ele>
        <time>2022-09-26T07:33:38Z</time>
      </trkpt>
      <trkpt lat="41.5899300" lon="2.1012730">
        <ele>196.2</ele>
        <time>2022-09-26T07:33:39Z</time>
      </trkpt>
      <trkpt lat="41.5899430" lon="2.1012850">
        <ele>196.4</ele>
        <time>2022-09-26T07:33:40Z</time>
      </trkpt>
      <trkpt lat="41.5899540" lon="2.1012970">
        <ele>196.4</ele>
        <time>2022-09-26T07:33:41Z</time>
      </trkpt>
      <trkpt lat="41.5899650" lon="2.1013080">
        <ele>196.6</ele>
        <time>2022-09-26T07:33:42Z</time>
      </trkpt>
      <trkpt lat="41.5899750" lon="2.1013180">
        <ele>196.8</ele>
        <time>2022-09-26T07:33:43Z</time>
      </trkpt>
      <trkpt lat="41.5899860" lon="2.1013290">
        <ele>197.0</ele>
        <time>2022-09-26T07:33:44Z</time>
      </trkpt>
      <trkpt lat="41.5899980" lon="2.1013380">
        <ele>197.2</ele>
        <time>2022-09-26T07:33:45Z</time>
      </trkpt>
      <trkpt lat="41.5900120" lon="2.1013470">
        <ele>197.2</ele>
        <time>2022-09-26T07:33:46Z</time>
      </trkpt>
      <trkpt lat="41.5900290" lon="2.1013580">
        <ele>197.4</ele>
        <time>2022-09-26T07:33:47Z</time>
      </trkpt>
      <trkpt lat="41.5900500" lon="2.1013620">
        <ele>197.4</ele>
        <time>2022-09-26T07:33:48Z</time>
      </trkpt>
      <trkpt lat="41.5900660" lon="2.1013670">
        <ele>197.6</ele>
        <time>2022-09-26T07:33:49Z</time>
      </trkpt>
      <trkpt lat="41.5900820" lon="2.1013750">
        <ele>197.8</ele>
        <time>2022-09-26T07:33:50Z</time>
      </trkpt>
      <trkpt lat="41.5901020" lon="2.1013890">
        <ele>198.0</ele>
        <time>2022-09-26T07:33:51Z</time>
      </trkpt>
      <trkpt lat="41.5901250" lon="2.1014020">
        <ele>198.2</ele>
        <time>2022-09-26T07:33:52Z</time>
      </trkpt>
      <trkpt lat="41.5901470" lon="2.1014130">
        <ele>198.2</ele>
        <time>2022-09-26T07:33:53Z</time>
      </trkpt>
      <trkpt lat="41.5901720" lon="2.1014280">
        <ele>198.6</ele>
        <time>2022-09-26T07:33:54Z</time>
      </trkpt>
      <trkpt lat="41.5901930" lon="2.1014450">
        <ele>198.8</ele>
        <time>2022-09-26T07:33:55Z</time>
      </trkpt>
      <trkpt lat="41.5902100" lon="2.1014620">
        <ele>199.0</ele>
        <time>2022-09-26T07:33:56Z</time>
      </trkpt>
      <trkpt lat="41.5902280" lon="2.1014840">
        <ele>199.0</ele>
        <time>2022-09-26T07:33:57Z</time>
      </trkpt>
      <trkpt lat="41.5902480" lon="2.1015050">
        <ele>199.0</ele>
        <time>2022-09-26T07:33:58Z</time>
      </trkpt>
      <trkpt lat="41.5902670" lon="2.1015240">
        <ele>199.2</ele>
        <time>2022-09-26T07:33:59Z</time>
      </trkpt>
      <trkpt lat="41.5902870" lon="2.1015400">
        <ele>199.2</ele>
        <time>2022-09-26T07:34:00Z</time>
      </trkpt>
      <trkpt lat="41.5903050" lon="2.1015560">
        <ele>199.4</ele>
        <time>2022-09-26T07:34:01Z</time>
      </trkpt>
      <trkpt lat="41.5903250" lon="2.1015730">
        <ele>199.6</ele>
        <time>2022-09-26T07:34:02Z</time>
      </trkpt>
      <trkpt lat="41.5903420" lon="2.1015900">
        <ele>199.6</ele>
        <time>2022-09-26T07:34:03Z</time>
      </trkpt>
      <trkpt lat="41.5903550" lon="2.1016110">
        <ele>200.0</ele>
        <time>2022-09-26T07:34:04Z</time>
      </trkpt>
      <trkpt lat="41.5903640" lon="2.1016310">
        <ele>200.2</ele>
        <time>2022-09-26T07:34:05Z</time>
      </trkpt>
      <trkpt lat="41.5903780" lon="2.1016520">
        <ele>200.4</ele>
        <time>2022-09-26T07:34:06Z</time>
      </trkpt>
      <trkpt lat="41.5903930" lon="2.1016720">
        <ele>200.6</ele>
        <time>2022-09-26T07:34:07Z</time>
      </trkpt>
      <trkpt lat="41.5904070" lon="2.1016930">
        <ele>200.8</ele>
        <time>2022-09-26T07:34:08Z</time>
      </trkpt>
      <trkpt lat="41.5904200" lon="2.1017190">
        <ele>201.0</ele>
        <time>2022-09-26T07:34:09Z</time>
      </trkpt>
      <trkpt lat="41.5904310" lon="2.1017420">
        <ele>201.0</ele>
        <time>2022-09-26T07:34:10Z</time>
      </trkpt>
      <trkpt lat="41.5904330" lon="2.1017630">
        <ele>201.2</ele>
        <time>2022-09-26T07:34:11Z</time>
      </trkpt>
      <trkpt lat="41.5904390" lon="2.1017820">
        <ele>201.2</ele>
        <time>2022-09-26T07:34:12Z</time>
      </trkpt>
      <trkpt lat="41.5904500" lon="2.1018000">
        <ele>201.4</ele>
        <time>2022-09-26T07:34:13Z</time>
      </trkpt>
      <trkpt lat="41.5904590" lon="2.1018210">
        <ele>201.4</ele>
        <time>2022-09-26T07:34:14Z</time>
      </trkpt>
      <trkpt lat="41.5904710" lon="2.1018380">
        <ele>201.6</ele>
        <time>2022-09-26T07:34:15Z</time>
      </trkpt>
      <trkpt lat="41.5904900" lon="2.1018550">
        <ele>201.6</ele>
        <time>2022-09-26T07:34:16Z</time>
      </trkpt>
      <trkpt lat="41.5905130" lon="2.1018770">
        <ele>201.6</ele>
        <time>2022-09-26T07:34:17Z</time>
      </trkpt>
      <trkpt lat="41.5905280" lon="2.1019020">
        <ele>201.4</ele>
        <time>2022-09-26T07:34:18Z</time>
      </trkpt>
      <trkpt lat="41.5905350" lon="2.1019270">
        <ele>201.4</ele>
        <time>2022-09-26T07:34:19Z</time>
      </trkpt>
      <trkpt lat="41.5905530" lon="2.1019520">
        <ele>201.4</ele>
        <time>2022-09-26T07:34:20Z</time>
      </trkpt>
      <trkpt lat="41.5905720" lon="2.1019820">
        <ele>201.4</ele>
        <time>2022-09-26T07:34:21Z</time>
      </trkpt>
      <trkpt lat="41.5905910" lon="2.1020140">
        <ele>201.4</ele>
        <time>2022-09-26T07:34:22Z</time>
      </trkpt>
      <trkpt lat="41.5906090" lon="2.1020490">
        <ele>201.6</ele>
        <time>2022-09-26T07:34:23Z</time>
      </trkpt>
      <trkpt lat="41.5906250" lon="2.1020820">
        <ele>201.6</ele>
        <time>2022-09-26T07:34:24Z</time>
      </trkpt>
      <trkpt lat="41.5906430" lon="2.1021170">
        <ele>201.8</ele>
        <time>2022-09-26T07:34:25Z</time>
      </trkpt>
      <trkpt lat="41.5906650" lon="2.1021510">
        <ele>201.8</ele>
        <time>2022-09-26T07:34:26Z</time>
      </trkpt>
      <trkpt lat="41.5906810" lon="2.1021870">
        <ele>201.8</ele>
        <time>2022-09-26T07:34:27Z</time>
      </trkpt>
      <trkpt lat="41.5906900" lon="2.1022200">
        <ele>201.8</ele>
        <time>2022-09-26T07:34:28Z</time>
      </trkpt>
      <trkpt lat="41.5907010" lon="2.1022480">
        <ele>201.8</ele>
        <time>2022-09-26T07:34:29Z</time>
      </trkpt>
      <trkpt lat="41.5907090" lon="2.1022740">
        <ele>202.0</ele>
        <time>2022-09-26T07:34:30Z</time>
      </trkpt>
      <trkpt lat="41.5907170" lon="2.1022990">
        <ele>202.0</ele>
        <time>2022-09-26T07:34:31Z</time>
      </trkpt>
      <trkpt lat="41.5907250" lon="2.1023240">
        <ele>202.2</ele>
        <time>2022-09-26T07:34:32Z</time>
      </trkpt>
      <trkpt lat="41.5907290" lon="2.1023580">
        <ele>202.2</ele>
        <time>2022-09-26T07:34:33Z</time>
      </trkpt>
      <trkpt lat="41.5907340" lon="2.1023890">
        <ele>202.2</ele>
        <time>2022-09-26T07:34:34Z</time>
      </trkpt>
      <trkpt lat="41.5907390" lon="2.1024310">
        <ele>202.2</ele>
        <time>2022-09-26T07:34:35Z</time>
      </trkpt>
      <trkpt lat="41.5907500" lon="2.1024750">
        <ele>202.2</ele>
        <time>2022-09-26T07:34:36Z</time>
      </trkpt>
      <trkpt lat="41.5907650" lon="2.1025160">
        <ele>202.0</ele>
        <time>2022-09-26T07:34:37Z</time>
      </trkpt>
      <trkpt lat="41.5907870" lon="2.1025430">
        <ele>201.8</ele>
        <time>2022-09-26T07:34:38Z</time>
      </trkpt>
      <trkpt lat="41.5908130" lon="2.1025600">
        <ele>201.4</ele>
        <time>2022-09-26T07:34:39Z</time>
      </trkpt>
      <trkpt lat="41.5908430" lon="2.1025780">
        <ele>201.0</ele>
        <time>2022-09-26T07:34:40Z</time>
      </trkpt>
      <trkpt lat="41.5908780" lon="2.1025980">
        <ele>200.8</ele>
        <time>2022-09-26T07:34:41Z</time>
      </trkpt>
      <trkpt lat="41.5909170" lon="2.1026250">
        <ele>200.6</ele>
        <time>2022-09-26T07:34:42Z</time>
      </trkpt>
      <trkpt lat="41.5909550" lon="2.1026570">
        <ele>200.6</ele>
        <time>2022-09-26T07:34:43Z</time>
      </trkpt>
      <trkpt lat="41.5909860" lon="2.1026870">
        <ele>200.6</ele>
        <time>2022-09-26T07:34:44Z</time>
      </trkpt>
      <trkpt lat="41.5910040" lon="2.1027160">
        <ele>200.6</ele>
        <time>2022-09-26T07:34:45Z</time>
      </trkpt>
      <trkpt lat="41.5910340" lon="2.1027460">
        <ele>200.6</ele>
        <time>2022-09-26T07:34:46Z</time>
      </trkpt>
      <trkpt lat="41.5910610" lon="2.1027770">
        <ele>200.8</ele>
        <time>2022-09-26T07:34:47Z</time>
      </trkpt>
      <trkpt lat="41.5910950" lon="2.1028070">
        <ele>200.8</ele>
        <time>2022-09-26T07:34:48Z</time>
      </trkpt>
      <trkpt lat="41.5911230" lon="2.1028290">
        <ele>200.8</ele>
        <time>2022-09-26T07:34:49Z</time>
      </trkpt>
      <trkpt lat="41.5911500" lon="2.1028500">
        <ele>201.0</ele>
        <time>2022-09-26T07:34:50Z</time>
      </trkpt>
      <trkpt lat="41.5911860" lon="2.1028720">
        <ele>201.2</ele>
        <time>2022-09-26T07:34:51Z</time>
      </trkpt>
      <trkpt lat="41.5912220" lon="2.1028890">
        <ele>201.2</ele>
        <time>2022-09-26T07:34:52Z</time>
      </trkpt>
      <trkpt lat="41.5912590" lon="2.1029020">
        <ele>201.2</ele>
        <time>2022-09-26T07:34:53Z</time>
      </trkpt>
      <trkpt lat="41.5912960" lon="2.1029180">
        <ele>201.4</ele>
        <time>2022-09-26T07:34:54Z</time>
      </trkpt>
      <trkpt lat="41.5913270" lon="2.1029340">
        <ele>201.4</ele>
        <time>2022-09-26T07:34:55Z</time>
      </trkpt>
      <trkpt lat="41.5913610" lon="2.1029490">
        <ele>201.2</ele>
        <time>2022-09-26T07:34:56Z</time>
      </trkpt>
      <trkpt lat="41.5913980" lon="2.1029580">
        <ele>201.2</ele>
        <time>2022-09-26T07:34:57Z</time>
      </trkpt>
      <trkpt lat="41.5914360" lon="2.1029730">
        <ele>201.4</ele>
        <time>2022-09-26T07:34:58Z</time>
      </trkpt>
      <trkpt lat="41.5914720" lon="2.1029880">
        <ele>201.4</ele>
        <time>2022-09-26T07:34:59Z</time>
      </trkpt>
      <trkpt lat="41.5915120" lon="2.1029950">
        <ele>201.4</ele>
        <time>2022-09-26T07:35:00Z</time>
      </trkpt>
      <trkpt lat="41.5915500" lon="2.1030010">
        <ele>201.4</ele>
        <time>2022-09-26T07:35:01Z</time>
      </trkpt>
      <trkpt lat="41.5915890" lon="2.1030060">
        <ele>201.4</ele>
        <time>2022-09-26T07:35:02Z</time>
      </trkpt>
      <trkpt lat="41.5916300" lon="2.1030070">
        <ele>201.6</ele>
        <time>2022-09-26T07:35:03Z</time>
      </trkpt>
      <trkpt lat="41.5916600" lon="2.1030030">
        <ele>201.6</ele>
        <time>2022-09-26T07:35:04Z</time>
      </trkpt>
      <trkpt lat="41.5916970" lon="2.1030030">
        <ele>201.6</ele>
        <time>2022-09-26T07:35:05Z</time>
      </trkpt>
      <trkpt lat="41.5917300" lon="2.1030010">
        <ele>201.6</ele>
        <time>2022-09-26T07:35:06Z</time>
      </trkpt>
      <trkpt lat="41.5917670" lon="2.1029970">
        <ele>201.8</ele>
        <time>2022-09-26T07:35:07Z</time>
      </trkpt>
      <trkpt lat="41.5918060" lon="2.1029890">
        <ele>201.8</ele>
        <time>2022-09-26T07:35:08Z</time>
      </trkpt>
      <trkpt lat="41.5918440" lon="2.1029770">
        <ele>201.8</ele>
        <time>2022-09-26T07:35:09Z</time>
      </trkpt>
      <trkpt lat="41.5918850" lon="2.1029650">
        <ele>201.8</ele>
        <time>2022-09-26T07:35:10Z</time>
      </trkpt>
      <trkpt lat="41.5919230" lon="2.1029520">
        <ele>201.8</ele>
        <time>2022-09-26T07:35:11Z</time>
      </trkpt>
      <trkpt lat="41.5919580" lon="2.1029390">
        <ele>202.0</ele>
        <time>2022-09-26T07:35:12Z</time>
      </trkpt>
      <trkpt lat="41.5919950" lon="2.1029250">
        <ele>202.0</ele>
        <time>2022-09-26T07:35:13Z</time>
      </trkpt>
      <trkpt lat="41.5920320" lon="2.1029160">
        <ele>202.0</ele>
        <time>2022-09-26T07:35:14Z</time>
      </trkpt>
      <trkpt lat="41.5920680" lon="2.1029040">
        <ele>201.8</ele>
        <time>2022-09-26T07:35:15Z</time>
      </trkpt>
      <trkpt lat="41.5921020" lon="2.1028910">
        <ele>201.8</ele>
        <time>2022-09-26T07:35:16Z</time>
      </trkpt>
      <trkpt lat="41.5921320" lon="2.1028770">
        <ele>202.0</ele>
        <time>2022-09-26T07:35:17Z</time>
      </trkpt>
      <trkpt lat="41.5921670" lon="2.1028680">
        <ele>202.0</ele>
        <time>2022-09-26T07:35:18Z</time>
      </trkpt>
      <trkpt lat="41.5922010" lon="2.1028610">
        <ele>202.2</ele>
        <time>2022-09-26T07:35:19Z</time>
      </trkpt>
      <trkpt lat="41.5922340" lon="2.1028480">
        <ele>202.2</ele>
        <time>2022-09-26T07:35:20Z</time>
      </trkpt>
      <trkpt lat="41.5922610" lon="2.1028380">
        <ele>202.4</ele>
        <time>2022-09-26T07:35:21Z</time>
      </trkpt>
      <trkpt lat="41.5922860" lon="2.1028310">
        <ele>202.6</ele>
        <time>2022-09-26T07:35:22Z</time>
      </trkpt>
      <trkpt lat="41.5923140" lon="2.1028250">
        <ele>202.8</ele>
        <time>2022-09-26T07:35:23Z</time>
      </trkpt>
      <trkpt lat="41.5923410" lon="2.1028180">
        <ele>202.8</ele>
        <time>2022-09-26T07:35:24Z</time>
      </trkpt>
      <trkpt lat="41.5923700" lon="2.1028130">
        <ele>202.8</ele>
        <time>2022-09-26T07:35:25Z</time>
      </trkpt>
      <trkpt lat="41.5924010" lon="2.1028140">
        <ele>203.0</ele>
        <time>2022-09-26T07:35:26Z</time>
      </trkpt>
      <trkpt lat="41.5924280" lon="2.1028140">
        <ele>203.0</ele>
        <time>2022-09-26T07:35:27Z</time>
      </trkpt>
      <trkpt lat="41.5924580" lon="2.1028100">
        <ele>203.2</ele>
        <time>2022-09-26T07:35:28Z</time>
      </trkpt>
      <trkpt lat="41.5924920" lon="2.1028040">
        <ele>203.2</ele>
        <time>2022-09-26T07:35:29Z</time>
      </trkpt>
      <trkpt lat="41.5925300" lon="2.1027950">
        <ele>203.4</ele>
        <time>2022-09-26T07:35:30Z</time>
      </trkpt>
      <trkpt lat="41.5925620" lon="2.1027790">
        <ele>203.6</ele>
        <time>2022-09-26T07:35:31Z</time>
      </trkpt>
      <trkpt lat="41.5925960" lon="2.1027590">
        <ele>203.6</ele>
        <time>2022-09-26T07:35:32Z</time>
      </trkpt>
      <trkpt lat="41.5926320" lon="2.1027390">
        <ele>203.6</ele>
        <time>2022-09-26T07:35:33Z</time>
      </trkpt>
      <trkpt lat="41.5926650" lon="2.1027180">
        <ele>203.8</ele>
        <time>2022-09-26T07:35:34Z</time>
      </trkpt>
      <trkpt lat="41.5926930" lon="2.1026990">
        <ele>203.6</ele>
        <time>2022-09-26T07:35:35Z</time>
      </trkpt>
      <trkpt lat="41.5927190" lon="2.1026810">
        <ele>203.8</ele>
        <time>2022-09-26T07:35:36Z</time>
      </trkpt>
      <trkpt lat="41.5927470" lon="2.1026690">
        <ele>203.8</ele>
        <time>2022-09-26T07:35:37Z</time>
      </trkpt>
      <trkpt lat="41.5927780" lon="2.1026580">
        <ele>204.0</ele>
        <time>2022-09-26T07:35:38Z</time>
      </trkpt>
      <trkpt lat="41.5928060" lon="2.1026450">
        <ele>204.0</ele>
        <time>2022-09-26T07:35:39Z</time>
      </trkpt>
      <trkpt lat="41.5928350" lon="2.1026320">
        <ele>204.2</ele>
        <time>2022-09-26T07:35:40Z</time>
      </trkpt>
      <trkpt lat="41.5928640" lon="2.1026180">
        <ele>204.4</ele>
        <time>2022-09-26T07:35:41Z</time>
      </trkpt>
      <trkpt lat="41.5928930" lon="2.1026060">
        <ele>204.6</ele>
        <time>2022-09-26T07:35:42Z</time>
      </trkpt>
      <trkpt lat="41.5929220" lon="2.1025950">
        <ele>204.8</ele>
        <time>2022-09-26T07:35:43Z</time>
      </trkpt>
      <trkpt lat="41.5929510" lon="2.1025820">
        <ele>204.8</ele>
        <time>2022-09-26T07:35:44Z</time>
      </trkpt>
      <trkpt lat="41.5929810" lon="2.1025740">
        <ele>205.0</ele>
        <time>2022-09-26T07:35:45Z</time>
      </trkpt>
      <trkpt lat="41.5930170" lon="2.1025720">
        <ele>205.2</ele>
        <time>2022-09-26T07:35:46Z</time>
      </trkpt>
      <trkpt lat="41.5930490" lon="2.1025650">
        <ele>205.2</ele>
        <time>2022-09-26T07:35:47Z</time>
      </trkpt>
      <trkpt lat="41.5930830" lon="2.1025600">
        <ele>205.2</ele>
        <time>2022-09-26T07:35:48Z</time>
      </trkpt>
      <trkpt lat="41.5931150" lon="2.1025530">
        <ele>205.4</ele>
        <time>2022-09-26T07:35:49Z</time>
      </trkpt>
      <trkpt lat="41.5931480" lon="2.1025500">
        <ele>205.4</ele>
        <time>2022-09-26T07:35:50Z</time>
      </trkpt>
      <trkpt lat="41.5931770" lon="2.1025490">
        <ele>205.6</ele>
        <time>2022-09-26T07:35:51Z</time>
      </trkpt>
      <trkpt lat="41.5932050" lon="2.1025440">
        <ele>205.6</ele>
        <time>2022-09-26T07:35:52Z</time>
      </trkpt>
      <trkpt lat="41.5932300" lon="2.1025430">
        <ele>206.0</ele>
        <time>2022-09-26T07:35:53Z</time>
      </trkpt>
      <trkpt lat="41.5932500" lon="2.1025440">
        <ele>206.2</ele>
        <time>2022-09-26T07:35:54Z</time>
      </trkpt>
      <trkpt lat="41.5932710" lon="2.1025480">
        <ele>206.4</ele>
        <time>2022-09-26T07:35:55Z</time>
      </trkpt>
      <trkpt lat="41.5932920" lon="2.1025580">
        <ele>206.6</ele>
        <time>2022-09-26T07:35:56Z</time>
      </trkpt>
      <trkpt lat="41.5933120" lon="2.1025700">
        <ele>207.0</ele>
        <time>2022-09-26T07:35:57Z</time>
      </trkpt>
      <trkpt lat="41.5933320" lon="2.1025860">
        <ele>207.4</ele>
        <time>2022-09-26T07:35:58Z</time>
      </trkpt>
      <trkpt lat="41.5933470" lon="2.1026030">
        <ele>207.6</ele>
        <time>2022-09-26T07:35:59Z</time>
      </trkpt>
      <trkpt lat="41.5933660" lon="2.1026230">
        <ele>207.8</ele>
        <time>2022-09-26T07:36:00Z</time>
      </trkpt>
      <trkpt lat="41.5933880" lon="2.1026430">
        <ele>208.2</ele>
        <time>2022-09-26T07:36:01Z</time>
      </trkpt>
      <trkpt lat="41.5934110" lon="2.1026630">
        <ele>208.4</ele>
        <time>2022-09-26T07:36:02Z</time>
      </trkpt>
      <trkpt lat="41.5934380" lon="2.1026810">
        <ele>208.4</ele>
        <time>2022-09-26T07:36:03Z</time>
      </trkpt>
      <trkpt lat="41.5934610" lon="2.1026960">
        <ele>208.6</ele>
        <time>2022-09-26T07:36:04Z</time>
      </trkpt>
      <trkpt lat="41.5934830" lon="2.1027080">
        <ele>208.6</ele>
        <time>2022-09-26T07:36:05Z</time>
      </trkpt>
      <trkpt lat="41.5935070" lon="2.1027160">
        <ele>208.8</ele>
        <time>2022-09-26T07:36:06Z</time>
      </trkpt>
      <trkpt lat="41.5935310" lon="2.1027180">
        <ele>208.6</ele>
        <time>2022-09-26T07:36:07Z</time>
      </trkpt>
      <trkpt lat="41.5935530" lon="2.1027220">
        <ele>208.8</ele>
        <time>2022-09-26T07:36:08Z</time>
      </trkpt>
      <trkpt lat="41.5935850" lon="2.1027250">
        <ele>209.2</ele>
        <time>2022-09-26T07:36:09Z</time>
      </trkpt>
      <trkpt lat="41.5936190" lon="2.1027230">
        <ele>209.4</ele>
        <time>2022-09-26T07:36:10Z</time>
      </trkpt>
      <trkpt lat="41.5936520" lon="2.1027190">
        <ele>209.6</ele>
        <time>2022-09-26T07:36:11Z</time>
      </trkpt>
      <trkpt lat="41.5936820" lon="2.1027140">
        <ele>210.0</ele>
        <time>2022-09-26T07:36:12Z</time>
      </trkpt>
      <trkpt lat="41.5937120" lon="2.1027100">
        <ele>210.4</ele>
        <time>2022-09-26T07:36:13Z</time>
      </trkpt>
      <trkpt lat="41.5937420" lon="2.1027030">
        <ele>210.8</ele>
        <time>2022-09-26T07:36:14Z</time>
      </trkpt>
      <trkpt lat="41.5937690" lon="2.1026950">
        <ele>211.0</ele>
        <time>2022-09-26T07:36:15Z</time>
      </trkpt>
      <trkpt lat="41.5937960" lon="2.1026890">
        <ele>211.2</ele>
        <time>2022-09-26T07:36:16Z</time>
      </trkpt>
      <trkpt lat="41.5938220" lon="2.1026810">
        <ele>211.4</ele>
        <time>2022-09-26T07:36:17Z</time>
      </trkpt>
      <trkpt lat="41.5938470" lon="2.1026680">
        <ele>211.6</ele>
        <time>2022-09-26T07:36:18Z</time>
      </trkpt>
      <trkpt lat="41.5938710" lon="2.1026590">
        <ele>211.8</ele>
        <time>2022-09-26T07:36:19Z</time>
      </trkpt>
      <trkpt lat="41.5938950" lon="2.1026480">
        <ele>211.8</ele>
        <time>2022-09-26T07:36:20Z</time>
      </trkpt>
      <trkpt lat="41.5939180" lon="2.1026360">
        <ele>212.0</ele>
        <time>2022-09-26T07:36:21Z</time>
      </trkpt>
      <trkpt lat="41.5939410" lon="2.1026240">
        <ele>212.2</ele>
        <time>2022-09-26T07:36:22Z</time>
      </trkpt>
      <trkpt lat="41.5939610" lon="2.1026120">
        <ele>212.6</ele>
        <time>2022-09-26T07:36:23Z</time>
      </trkpt>
      <trkpt lat="41.5939830" lon="2.1026000">
        <ele>213.0</ele>
        <time>2022-09-26T07:36:24Z</time>
      </trkpt>
      <trkpt lat="41.5940060" lon="2.1025890">
        <ele>213.2</ele>
        <time>2022-09-26T07:36:25Z</time>
      </trkpt>
      <trkpt lat="41.5940300" lon="2.1025750">
        <ele>213.4</ele>
        <time>2022-09-26T07:36:26Z</time>
      </trkpt>
      <trkpt lat="41.5940540" lon="2.1025590">
        <ele>213.4</ele>
        <time>2022-09-26T07:36:27Z</time>
      </trkpt>
      <trkpt lat="41.5940760" lon="2.1025400">
        <ele>213.6</ele>
        <time>2022-09-26T07:36:28Z</time>
      </trkpt>
      <trkpt lat="41.5940980" lon="2.1025210">
        <ele>213.6</ele>
        <time>2022-09-26T07:36:29Z</time>
      </trkpt>
      <trkpt lat="41.5941190" lon="2.1025040">
        <ele>213.6</ele>
        <time>2022-09-26T07:36:30Z</time>
      </trkpt>
      <trkpt lat="41.5941420" lon="2.1024880">
        <ele>213.6</ele>
        <time>2022-09-26T07:36:31Z</time>
      </trkpt>
      <trkpt lat="41.5941650" lon="2.1024720">
        <ele>213.6</ele>
        <time>2022-09-26T07:36:32Z</time>
      </trkpt>
      <trkpt lat="41.5941900" lon="2.1024570">
        <ele>213.8</ele>
        <time>2022-09-26T07:36:33Z</time>
      </trkpt>
      <trkpt lat="41.5942150" lon="2.1024440">
        <ele>213.8</ele>
        <time>2022-09-26T07:36:34Z</time>
      </trkpt>
      <trkpt lat="41.5942420" lon="2.1024330">
        <ele>214.0</ele>
        <time>2022-09-26T07:36:35Z</time>
      </trkpt>
      <trkpt lat="41.5942680" lon="2.1024240">
        <ele>214.2</ele>
        <time>2022-09-26T07:36:36Z</time>
      </trkpt>
      <trkpt lat="41.5942930" lon="2.1024160">
        <ele>214.6</ele>
        <time>2022-09-26T07:36:37Z</time>
      </trkpt>
      <trkpt lat="41.5943190" lon="2.1024080">
        <ele>214.8</ele>
        <time>2022-09-26T07:36:38Z</time>
      </trkpt>
      <trkpt lat="41.5943450" lon="2.1024010">
        <ele>214.8</ele>
        <time>2022-09-26T07:36:39Z</time>
      </trkpt>
      <trkpt lat="41.5943710" lon="2.1023950">
        <ele>214.8</ele>
        <time>2022-09-26T07:36:40Z</time>
      </trkpt>
      <trkpt lat="41.5943980" lon="2.1023900">
        <ele>215.0</ele>
        <time>2022-09-26T07:36:41Z</time>
      </trkpt>
      <trkpt lat="41.5944240" lon="2.1023850">
        <ele>215.2</ele>
        <time>2022-09-26T07:36:42Z</time>
      </trkpt>
      <trkpt lat="41.5944500" lon="2.1023780">
        <ele>215.2</ele>
        <time>2022-09-26T07:36:43Z</time>
      </trkpt>
      <trkpt lat="41.5944770" lon="2.1023670">
        <ele>215.4</ele>
        <time>2022-09-26T07:36:44Z</time>
      </trkpt>
      <trkpt lat="41.5945090" lon="2.1023570">
        <ele>215.2</ele>
        <time>2022-09-26T07:36:45Z</time>
      </trkpt>
      <trkpt lat="41.5945410" lon="2.1023470">
        <ele>215.2</ele>
        <time>2022-09-26T07:36:46Z</time>
      </trkpt>
      <trkpt lat="41.5945740" lon="2.1023370">
        <ele>215.0</ele>
        <time>2022-09-26T07:36:47Z</time>
      </trkpt>
      <trkpt lat="41.5946090" lon="2.1023240">
        <ele>215.0</ele>
        <time>2022-09-26T07:36:48Z</time>
      </trkpt>
      <trkpt lat="41.5946450" lon="2.1023100">
        <ele>215.0</ele>
        <time>2022-09-26T07:36:49Z</time>
      </trkpt>
      <trkpt lat="41.5946800" lon="2.1022940">
        <ele>214.8</ele>
        <time>2022-09-26T07:36:50Z</time>
      </trkpt>
      <trkpt lat="41.5947170" lon="2.1022780">
        <ele>214.8</ele>
        <time>2022-09-26T07:36:51Z</time>
      </trkpt>
      <trkpt lat="41.5947550" lon="2.1022630">
        <ele>214.6</ele>
        <time>2022-09-26T07:36:52Z</time>
      </trkpt>
      <trkpt lat="41.5947940" lon="2.1022510">
        <ele>214.4</ele>
        <time>2022-09-26T07:36:53Z</time>
      </trkpt>
      <trkpt lat="41.5948320" lon="2.1022420">
        <ele>214.4</ele>
        <time>2022-09-26T07:36:54Z</time>
      </trkpt>
      <trkpt lat="41.5948680" lon="2.1022330">
        <ele>214.2</ele>
        <time>2022-09-26T07:36:55Z</time>
      </trkpt>
      <trkpt lat="41.5949030" lon="2.1022210">
        <ele>214.2</ele>
        <time>2022-09-26T07:36:56Z</time>
      </trkpt>
      <trkpt lat="41.5949360" lon="2.1022060">
        <ele>214.2</ele>
        <time>2022-09-26T07:36:57Z</time>
      </trkpt>
      <trkpt lat="41.5949690" lon="2.1021940">
        <ele>214.2</ele>
        <time>2022-09-26T07:36:58Z</time>
      </trkpt>
      <trkpt lat="41.5950030" lon="2.1021830">
        <ele>214.0</ele>
        <time>2022-09-26T07:36:59Z</time>
      </trkpt>
      <trkpt lat="41.5950370" lon="2.1021700">
        <ele>214.2</ele>
        <time>2022-09-26T07:37:00Z</time>
      </trkpt>
      <trkpt lat="41.5950710" lon="2.1021580">
        <ele>214.2</ele>
        <time>2022-09-26T07:37:01Z</time>
      </trkpt>
      <trkpt lat="41.5951060" lon="2.1021470">
        <ele>214.2</ele>
        <time>2022-09-26T07:37:02Z</time>
      </trkpt>
      <trkpt lat="41.5951410" lon="2.1021370">
        <ele>214.4</ele>
        <time>2022-09-26T07:37:03Z</time>
      </trkpt>
      <trkpt lat="41.5951780" lon="2.1021280">
        <ele>214.4</ele>
        <time>2022-09-26T07:37:04Z</time>
      </trkpt>
      <trkpt lat="41.5952150" lon="2.1021180">
        <ele>214.2</ele>
        <time>2022-09-26T07:37:05Z</time>
      </trkpt>
      <trkpt lat="41.5952550" lon="2.1021060">
        <ele>214.2</ele>
        <time>2022-09-26T07:37:06Z</time>
      </trkpt>
      <trkpt lat="41.5952960" lon="2.1020950">
        <ele>214.2</ele>
        <time>2022-09-26T07:37:07Z</time>
      </trkpt>
      <trkpt lat="41.5953370" lon="2.1020870">
        <ele>214.0</ele>
        <time>2022-09-26T07:37:08Z</time>
      </trkpt>
      <trkpt lat="41.5953790" lon="2.1020770">
        <ele>213.8</ele>
        <time>2022-09-26T07:37:09Z</time>
      </trkpt>
      <trkpt lat="41.5954190" lon="2.1020630">
        <ele>213.6</ele>
        <time>2022-09-26T07:37:10Z</time>
      </trkpt>
      <trkpt lat="41.5954590" lon="2.1020470">
        <ele>213.6</ele>
        <time>2022-09-26T07:37:11Z</time>
      </trkpt>
      <trkpt lat="41.5955010" lon="2.1020290">
        <ele>213.4</ele>
        <time>2022-09-26T07:37:12Z</time>
      </trkpt>
      <trkpt lat="41.5955420" lon="2.1020120">
        <ele>213.4</ele>
        <time>2022-09-26T07:37:13Z</time>
      </trkpt>
      <trkpt lat="41.5955820" lon="2.1019940">
        <ele>213.2</ele>
        <time>2022-09-26T07:37:14Z</time>
      </trkpt>
      <trkpt lat="41.5956220" lon="2.1019780">
        <ele>213.2</ele>
        <time>2022-09-26T07:37:15Z</time>
      </trkpt>
      <trkpt lat="41.5956620" lon="2.1019610">
        <ele>213.0</ele>
        <time>2022-09-26T07:37:16Z</time>
      </trkpt>
      <trkpt lat="41.5957030" lon="2.1019430">
        <ele>213.0</ele>
        <time>2022-09-26T07:37:17Z</time>
      </trkpt>
      <trkpt lat="41.5957450" lon="2.1019250">
        <ele>213.0</ele>
        <time>2022-09-26T07:37:18Z</time>
      </trkpt>
      <trkpt lat="41.5957860" lon="2.1019070">
        <ele>212.8</ele>
        <time>2022-09-26T07:37:19Z</time>
      </trkpt>
      <trkpt lat="41.5958260" lon="2.1018890">
        <ele>212.8</ele>
        <time>2022-09-26T07:37:20Z</time>
      </trkpt>
      <trkpt lat="41.5958660" lon="2.1018690">
        <ele>212.8</ele>
        <time>2022-09-26T07:37:21Z</time>
      </trkpt>
      <trkpt lat="41.5959070" lon="2.1018480">
        <ele>212.8</ele>
        <time>2022-09-26T07:37:22Z</time>
      </trkpt>
      <trkpt lat="41.5959490" lon="2.1018280">
        <ele>212.6</ele>
        <time>2022-09-26T07:37:23Z</time>
      </trkpt>
      <trkpt lat="41.5959910" lon="2.1018070">
        <ele>212.6</ele>
        <time>2022-09-26T07:37:24Z</time>
      </trkpt>
      <trkpt lat="41.5960320" lon="2.1017860">
        <ele>212.6</ele>
        <time>2022-09-26T07:37:25Z</time>
      </trkpt>
      <trkpt lat="41.5960710" lon="2.1017620">
        <ele>212.6</ele>
        <time>2022-09-26T07:37:26Z</time>
      </trkpt>
      <trkpt lat="41.5961100" lon="2.1017410">
        <ele>212.4</ele>
        <time>2022-09-26T07:37:27Z</time>
      </trkpt>
      <trkpt lat="41.5961480" lon="2.1017200">
        <ele>212.4</ele>
        <time>2022-09-26T07:37:28Z</time>
      </trkpt>
      <trkpt lat="41.5961870" lon="2.1017000">
        <ele>212.4</ele>
        <time>2022-09-26T07:37:29Z</time>
      </trkpt>
      <trkpt lat="41.5962260" lon="2.1016810">
        <ele>212.6</ele>
        <time>2022-09-26T07:37:30Z</time>
      </trkpt>
      <trkpt lat="41.5962640" lon="2.1016610">
        <ele>212.6</ele>
        <time>2022-09-26T07:37:31Z</time>
      </trkpt>
      <trkpt lat="41.5963030" lon="2.1016420">
        <ele>212.8</ele>
        <time>2022-09-26T07:37:32Z</time>
      </trkpt>
      <trkpt lat="41.5963430" lon="2.1016230">
        <ele>212.8</ele>
        <time>2022-09-26T07:37:33Z</time>
      </trkpt>
      <trkpt lat="41.5963830" lon="2.1016060">
        <ele>213.0</ele>
        <time>2022-09-26T07:37:34Z</time>
      </trkpt>
      <trkpt lat="41.5964220" lon="2.1015880">
        <ele>213.0</ele>
        <time>2022-09-26T07:37:35Z</time>
      </trkpt>
      <trkpt lat="41.5964590" lon="2.1015680">
        <ele>213.0</ele>
        <time>2022-09-26T07:37:36Z</time>
      </trkpt>
      <trkpt lat="41.5964970" lon="2.1015470">
        <ele>213.2</ele>
        <time>2022-09-26T07:37:37Z</time>
      </trkpt>
      <trkpt lat="41.5965360" lon="2.1015290">
        <ele>213.2</ele>
        <time>2022-09-26T07:37:38Z</time>
      </trkpt>
      <trkpt lat="41.5965740" lon="2.1015120">
        <ele>213.2</ele>
        <time>2022-09-26T07:37:39Z</time>
      </trkpt>
      <trkpt lat="41.5966120" lon="2.1014930">
        <ele>213.2</ele>
        <time>2022-09-26T07:37:40Z</time>
      </trkpt>
      <trkpt lat="41.5966480" lon="2.1014730">
        <ele>213.4</ele>
        <time>2022-09-26T07:37:41Z</time>
      </trkpt>
      <trkpt lat="41.5966840" lon="2.1014530">
        <ele>213.6</ele>
        <time>2022-09-26T07:37:42Z</time>
      </trkpt>
      <trkpt lat="41.5967210" lon="2.1014320">
        <ele>213.8</ele>
        <time>2022-09-26T07:37:43Z</time>
      </trkpt>
      <trkpt lat="41.5967560" lon="2.1014080">
        <ele>213.6</ele>
        <time>2022-09-26T07:37:44Z</time>
      </trkpt>
      <trkpt lat="41.5967890" lon="2.1013820">
        <ele>213.6</ele>
        <time>2022-09-26T07:37:45Z</time>
      </trkpt>
      <trkpt lat="41.5968210" lon="2.1013570">
        <ele>213.8</ele>
        <time>2022-09-26T07:37:46Z</time>
      </trkpt>
      <trkpt lat="41.5968530" lon="2.1013320">
        <ele>214.0</ele>
        <time>2022-09-26T07:37:47Z</time>
      </trkpt>
      <trkpt lat="41.5968820" lon="2.1013090">
        <ele>214.0</ele>
        <time>2022-09-26T07:37:48Z</time>
      </trkpt>
      <trkpt lat="41.5969120" lon="2.1012870">
        <ele>214.2</ele>
        <time>2022-09-26T07:37:49Z</time>
      </trkpt>
      <trkpt lat="41.5969430" lon="2.1012660">
        <ele>214.4</ele>
        <time>2022-09-26T07:37:50Z</time>
      </trkpt>
      <trkpt lat="41.5969730" lon="2.1012460">
        <ele>214.6</ele>
        <time>2022-09-26T07:37:51Z</time>
      </trkpt>
      <trkpt lat="41.5970020" lon="2.1012250">
        <ele>214.8</ele>
        <time>2022-09-26T07:37:52Z</time>
      </trkpt>
      <trkpt lat="41.5970300" lon="2.1012040">
        <ele>215.0</ele>
        <time>2022-09-26T07:37:53Z</time>
      </trkpt>
      <trkpt lat="41.5970550" lon="2.1011850">
        <ele>215.0</ele>
        <time>2022-09-26T07:37:54Z</time>
      </trkpt>
      <trkpt lat="41.5970810" lon="2.1011670">
        <ele>215.2</ele>
        <time>2022-09-26T07:37:55Z</time>
      </trkpt>
      <trkpt lat="41.5971050" lon="2.1011530">
        <ele>215.2</ele>
        <time>2022-09-26T07:37:56Z</time>
      </trkpt>
      <trkpt lat="41.5971290" lon="2.1011380">
        <ele>215.6</ele>
        <time>2022-09-26T07:37:57Z</time>
      </trkpt>
      <trkpt lat="41.5971540" lon="2.1011240">
        <ele>215.8</ele>
        <time>2022-09-26T07:37:58Z</time>
      </trkpt>
      <trkpt lat="41.5971800" lon="2.1011090">
        <ele>216.0</ele>
        <time>2022-09-26T07:37:59Z</time>
      </trkpt>
      <trkpt lat="41.5972050" lon="2.1010910">
        <ele>216.2</ele>
        <time>2022-09-26T07:38:00Z</time>
      </trkpt>
      <trkpt lat="41.5972300" lon="2.1010750">
        <ele>216.4</ele>
        <time>2022-09-26T07:38:01Z</time>
      </trkpt>
      <trkpt lat="41.5972550" lon="2.1010570">
        <ele>216.4</ele>
        <time>2022-09-26T07:38:02Z</time>
      </trkpt>
      <trkpt lat="41.5972800" lon="2.1010360">
        <ele>216.6</ele>
        <time>2022-09-26T07:38:03Z</time>
      </trkpt>
      <trkpt lat="41.5973050" lon="2.1010140">
        <ele>216.8</ele>
        <time>2022-09-26T07:38:04Z</time>
      </trkpt>
      <trkpt lat="41.5973280" lon="2.1009930">
        <ele>217.0</ele>
        <time>2022-09-26T07:38:05Z</time>
      </trkpt>
      <trkpt lat="41.5973530" lon="2.1009720">
        <ele>217.2</ele>
        <time>2022-09-26T07:38:06Z</time>
      </trkpt>
      <trkpt lat="41.5973790" lon="2.1009550">
        <ele>217.4</ele>
        <time>2022-09-26T07:38:07Z</time>
      </trkpt>
      <trkpt lat="41.5974060" lon="2.1009420">
        <ele>217.6</ele>
        <time>2022-09-26T07:38:08Z</time>
      </trkpt>
      <trkpt lat="41.5974330" lon="2.1009350">
        <ele>217.8</ele>
        <time>2022-09-26T07:38:09Z</time>
      </trkpt>
      <trkpt lat="41.5974570" lon="2.1009300">
        <ele>218.0</ele>
        <time>2022-09-26T07:38:10Z</time>
      </trkpt>
      <trkpt lat="41.5974770" lon="2.1009290">
        <ele>218.2</ele>
        <time>2022-09-26T07:38:11Z</time>
      </trkpt>
      <trkpt lat="41.5974950" lon="2.1009300">
        <ele>218.4</ele>
        <time>2022-09-26T07:38:12Z</time>
      </trkpt>
      <trkpt lat="41.5975120" lon="2.1009350">
        <ele>218.8</ele>
        <time>2022-09-26T07:38:13Z</time>
      </trkpt>
      <trkpt lat="41.5975230" lon="2.1009400">
        <ele>219.2</ele>
        <time>2022-09-26T07:38:14Z</time>
      </trkpt>
      <trkpt lat="41.5975410" lon="2.1009460">
        <ele>219.6</ele>
        <time>2022-09-26T07:38:15Z</time>
      </trkpt>
      <trkpt lat="41.5975630" lon="2.1009500">
        <ele>219.8</ele>
        <time>2022-09-26T07:38:16Z</time>
      </trkpt>
      <trkpt lat="41.5975900" lon="2.1009560">
        <ele>220.0</ele>
        <time>2022-09-26T07:38:17Z</time>
      </trkpt>
      <trkpt lat="41.5976200" lon="2.1009610">
        <ele>220.2</ele>
        <time>2022-09-26T07:38:18Z</time>
      </trkpt>
      <trkpt lat="41.5976520" lon="2.1009640">
        <ele>220.2</ele>
        <time>2022-09-26T07:38:19Z</time>
      </trkpt>
      <trkpt lat="41.5976810" lon="2.1009630">
        <ele>220.4</ele>
        <time>2022-09-26T07:38:20Z</time>
      </trkpt>
      <trkpt lat="41.5977120" lon="2.1009600">
        <ele>220.4</ele>
        <time>2022-09-26T07:38:21Z</time>
      </trkpt>
      <trkpt lat="41.5977430" lon="2.1009540">
        <ele>220.6</ele>
        <time>2022-09-26T07:38:22Z</time>
      </trkpt>
      <trkpt lat="41.5977720" lon="2.1009450">
        <ele>220.8</ele>
        <time>2022-09-26T07:38:23Z</time>
      </trkpt>
      <trkpt lat="41.5978020" lon="2.1009370">
        <ele>220.8</ele>
        <time>2022-09-26T07:38:24Z</time>
      </trkpt>
      <trkpt lat="41.5978310" lon="2.1009260">
        <ele>221.0</ele>
        <time>2022-09-26T07:38:25Z</time>
      </trkpt>
      <trkpt lat="41.5978600" lon="2.1009150">
        <ele>221.2</ele>
        <time>2022-09-26T07:38:26Z</time>
      </trkpt>
      <trkpt lat="41.5978880" lon="2.1009030">
        <ele>221.4</ele>
        <time>2022-09-26T07:38:27Z</time>
      </trkpt>
      <trkpt lat="41.5979170" lon="2.1008920">
        <ele>221.6</ele>
        <time>2022-09-26T07:38:28Z</time>
      </trkpt>
      <trkpt lat="41.5979460" lon="2.1008790">
        <ele>221.8</ele>
        <time>2022-09-26T07:38:29Z</time>
      </trkpt>
      <trkpt lat="41.5979770" lon="2.1008670">
        <ele>222.0</ele>
        <time>2022-09-26T07:38:30Z</time>
      </trkpt>
      <trkpt lat="41.5980090" lon="2.1008550">
        <ele>222.0</ele>
        <time>2022-09-26T07:38:31Z</time>
      </trkpt>
      <trkpt lat="41.5980410" lon="2.1008440">
        <ele>222.0</ele>
        <time>2022-09-26T07:38:32Z</time>
      </trkpt>
      <trkpt lat="41.5980740" lon="2.1008320">
        <ele>222.0</ele>
        <time>2022-09-26T07:38:33Z</time>
      </trkpt>
      <trkpt lat="41.5981080" lon="2.1008200">
        <ele>222.2</ele>
        <time>2022-09-26T07:38:34Z</time>
      </trkpt>
      <trkpt lat="41.5981400" lon="2.1008080">
        <ele>222.0</ele>
        <time>2022-09-26T07:38:35Z</time>
      </trkpt>
      <trkpt lat="41.5981730" lon="2.1007970">
        <ele>222.0</ele>
        <time>2022-09-26T07:38:36Z</time>
      </trkpt>
      <trkpt lat="41.5982020" lon="2.1007870">
        <ele>222.0</ele>
        <time>2022-09-26T07:38:37Z</time>
      </trkpt>
      <trkpt lat="41.5982320" lon="2.1007790">
        <ele>222.0</ele>
        <time>2022-09-26T07:38:38Z</time>
      </trkpt>
      <trkpt lat="41.5982640" lon="2.1007680">
        <ele>222.0</ele>
        <time>2022-09-26T07:38:39Z</time>
      </trkpt>
      <trkpt lat="41.5982980" lon="2.1007580">
        <ele>221.8</ele>
        <time>2022-09-26T07:38:40Z</time>
      </trkpt>
      <trkpt lat="41.5983320" lon="2.1007510">
        <ele>221.8</ele>
        <time>2022-09-26T07:38:41Z</time>
      </trkpt>
      <trkpt lat="41.5983650" lon="2.1007460">
        <ele>221.8</ele>
        <time>2022-09-26T07:38:42Z</time>
      </trkpt>
      <trkpt lat="41.5983990" lon="2.1007380">
        <ele>221.8</ele>
        <time>2022-09-26T07:38:43Z</time>
      </trkpt>
      <trkpt lat="41.5984360" lon="2.1007310">
        <ele>221.8</ele>
        <time>2022-09-26T07:38:44Z</time>
      </trkpt>
      <trkpt lat="41.5984710" lon="2.1007230">
        <ele>221.8</ele>
        <time>2022-09-26T07:38:45Z</time>
      </trkpt>
      <trkpt lat="41.5985060" lon="2.1007160">
        <ele>221.8</ele>
        <time>2022-09-26T07:38:46Z</time>
      </trkpt>
      <trkpt lat="41.5985440" lon="2.1007040">
        <ele>221.8</ele>
        <time>2022-09-26T07:38:47Z</time>
      </trkpt>
      <trkpt lat="41.5985860" lon="2.1006900">
        <ele>221.6</ele>
        <time>2022-09-26T07:38:48Z</time>
      </trkpt>
      <trkpt lat="41.5986330" lon="2.1006760">
        <ele>221.6</ele>
        <time>2022-09-26T07:38:49Z</time>
      </trkpt>
      <trkpt lat="41.5986830" lon="2.1006650">
        <ele>221.4</ele>
        <time>2022-09-26T07:38:50Z</time>
      </trkpt>
      <trkpt lat="41.5987340" lon="2.1006580">
        <ele>221.2</ele>
        <time>2022-09-26T07:38:51Z</time>
      </trkpt>
      <trkpt lat="41.5987860" lon="2.1006530">
        <ele>220.6</ele>
        <time>2022-09-26T07:38:52Z</time>
      </trkpt>
      <trkpt lat="41.5988390" lon="2.1006480">
        <ele>219.8</ele>
        <time>2022-09-26T07:38:53Z</time>
      </trkpt>
      <trkpt lat="41.5988940" lon="2.1006430">
        <ele>219.4</ele>
        <time>2022-09-26T07:38:54Z</time>
      </trkpt>
      <trkpt lat="41.5989490" lon="2.1006380">
        <ele>219.0</ele>
        <time>2022-09-26T07:38:55Z</time>
      </trkpt>
      <trkpt lat="41.5990040" lon="2.1006320">
        <ele>218.4</ele>
        <time>2022-09-26T07:38:56Z</time>
      </trkpt>
      <trkpt lat="41.5990600" lon="2.1006260">
        <ele>218.0</ele>
        <time>2022-09-26T07:38:57Z</time>
      </trkpt>
      <trkpt lat="41.5991140" lon="2.1006200">
        <ele>217.6</ele>
        <time>2022-09-26T07:38:58Z</time>
      </trkpt>
      <trkpt lat="41.5991670" lon="2.1006070">
        <ele>217.4</ele>
        <time>2022-09-26T07:38:59Z</time>
      </trkpt>
      <trkpt lat="41.5992210" lon="2.1005930">
        <ele>217.2</ele>
        <time>2022-09-26T07:39:00Z</time>
      </trkpt>
      <trkpt lat="41.5992780" lon="2.1005800">
        <ele>216.6</ele>
        <time>2022-09-26T07:39:01Z</time>
      </trkpt>
      <trkpt lat="41.5993370" lon="2.1005650">
        <ele>215.8</ele>
        <time>2022-09-26T07:39:02Z</time>
      </trkpt>
      <trkpt lat="41.5994010" lon="2.1005440">
        <ele>215.2</ele>
        <time>2022-09-26T07:39:03Z</time>
      </trkpt>
      <trkpt lat="41.5994700" lon="2.1005180">
        <ele>214.4</ele>
        <time>2022-09-26T07:39:04Z</time>
      </trkpt>
      <trkpt lat="41.5995410" lon="2.1004900">
        <ele>213.6</ele>
        <time>2022-09-26T07:39:05Z</time>
      </trkpt>
      <trkpt lat="41.5996170" lon="2.1004590">
        <ele>212.8</ele>
        <time>2022-09-26T07:39:06Z</time>
      </trkpt>
      <trkpt lat="41.5996950" lon="2.1004260">
        <ele>212.0</ele>
        <time>2022-09-26T07:39:07Z</time>
      </trkpt>
      <trkpt lat="41.5997760" lon="2.1003880">
        <ele>211.2</ele>
        <time>2022-09-26T07:39:08Z</time>
      </trkpt>
      <trkpt lat="41.5998580" lon="2.1003490">
        <ele>210.2</ele>
        <time>2022-09-26T07:39:09Z</time>
      </trkpt>
      <trkpt lat="41.5999390" lon="2.1003080">
        <ele>209.6</ele>
        <time>2022-09-26T07:39:10Z</time>
      </trkpt>
      <trkpt lat="41.6000200" lon="2.1002620">
        <ele>209.0</ele>
        <time>2022-09-26T07:39:11Z</time>
      </trkpt>
      <trkpt lat="41.6001010" lon="2.1002130">
        <ele>208.8</ele>
        <time>2022-09-26T07:39:12Z</time>
      </trkpt>
      <trkpt lat="41.6001820" lon="2.1001690">
        <ele>208.4</ele>
        <time>2022-09-26T07:39:13Z</time>
      </trkpt>
      <trkpt lat="41.6002680" lon="2.1001420">
        <ele>208.0</ele>
        <time>2022-09-26T07:39:14Z</time>
      </trkpt>
      <trkpt lat="41.6003570" lon="2.1001250">
        <ele>207.8</ele>
        <time>2022-09-26T07:39:15Z</time>
      </trkpt>
      <trkpt lat="41.6004390" lon="2.1001090">
        <ele>207.2</ele>
        <time>2022-09-26T07:39:16Z</time>
      </trkpt>
      <trkpt lat="41.6005130" lon="2.1000930">
        <ele>206.8</ele>
        <time>2022-09-26T07:39:17Z</time>
      </trkpt>
      <trkpt lat="41.6005830" lon="2.1000770">
        <ele>206.6</ele>
        <time>2022-09-26T07:39:18Z</time>
      </trkpt>
      <trkpt lat="41.6006510" lon="2.1000620">
        <ele>206.6</ele>
        <time>2022-09-26T07:39:19Z</time>
      </trkpt>
      <trkpt lat="41.6007140" lon="2.1000460">
        <ele>206.6</ele>
        <time>2022-09-26T07:39:20Z</time>
      </trkpt>
      <trkpt lat="41.6007750" lon="2.1000270">
        <ele>206.8</ele>
        <time>2022-09-26T07:39:21Z</time>
      </trkpt>
      <trkpt lat="41.6008320" lon="2.1000040">
        <ele>206.8</ele>
        <time>2022-09-26T07:39:22Z</time>
      </trkpt>
      <trkpt lat="41.6008890" lon="2.0999800">
        <ele>207.0</ele>
        <time>2022-09-26T07:39:23Z</time>
      </trkpt>
      <trkpt lat="41.6009450" lon="2.0999560">
        <ele>207.2</ele>
        <time>2022-09-26T07:39:24Z</time>
      </trkpt>
      <trkpt lat="41.6009990" lon="2.0999340">
        <ele>207.2</ele>
        <time>2022-09-26T07:39:25Z</time>
      </trkpt>
      <trkpt lat="41.6010510" lon="2.0999110">
        <ele>207.2</ele>
        <time>2022-09-26T07:39:26Z</time>
      </trkpt>
      <trkpt lat="41.6011000" lon="2.0998880">
        <ele>207.4</ele>
        <time>2022-09-26T07:39:27Z</time>
      </trkpt>
      <trkpt lat="41.6011450" lon="2.0998620">
        <ele>207.4</ele>
        <time>2022-09-26T07:39:28Z</time>
      </trkpt>
      <trkpt lat="41.6011870" lon="2.0998340">
        <ele>207.8</ele>
        <time>2022-09-26T07:39:29Z</time>
      </trkpt>
      <trkpt lat="41.6012270" lon="2.0998030">
        <ele>208.2</ele>
        <time>2022-09-26T07:39:30Z</time>
      </trkpt>
      <trkpt lat="41.6012650" lon="2.0997720">
        <ele>208.4</ele>
        <time>2022-09-26T07:39:31Z</time>
      </trkpt>
      <trkpt lat="41.6013030" lon="2.0997430">
        <ele>208.6</ele>
        <time>2022-09-26T07:39:32Z</time>
      </trkpt>
      <trkpt lat="41.6013410" lon="2.0997160">
        <ele>208.8</ele>
        <time>2022-09-26T07:39:33Z</time>
      </trkpt>
      <trkpt lat="41.6013760" lon="2.0996900">
        <ele>208.8</ele>
        <time>2022-09-26T07:39:34Z</time>
      </trkpt>
      <trkpt lat="41.6014090" lon="2.0996620">
        <ele>208.8</ele>
        <time>2022-09-26T07:39:35Z</time>
      </trkpt>
      <trkpt lat="41.6014410" lon="2.0996340">
        <ele>209.0</ele>
        <time>2022-09-26T07:39:36Z</time>
      </trkpt>
      <trkpt lat="41.6014720" lon="2.0996050">
        <ele>209.0</ele>
        <time>2022-09-26T07:39:37Z</time>
      </trkpt>
      <trkpt lat="41.6015000" lon="2.0995770">
        <ele>209.2</ele>
        <time>2022-09-26T07:39:38Z</time>
      </trkpt>
      <trkpt lat="41.6015260" lon="2.0995480">
        <ele>209.4</ele>
        <time>2022-09-26T07:39:39Z</time>
      </trkpt>
      <trkpt lat="41.6015510" lon="2.0995210">
        <ele>209.8</ele>
        <time>2022-09-26T07:39:40Z</time>
      </trkpt>
      <trkpt lat="41.6015780" lon="2.0994970">
        <ele>210.0</ele>
        <time>2022-09-26T07:39:41Z</time>
      </trkpt>
      <trkpt lat="41.6016050" lon="2.0994720">
        <ele>210.2</ele>
        <time>2022-09-26T07:39:42Z</time>
      </trkpt>
      <trkpt lat="41.6016320" lon="2.0994480">
        <ele>210.4</ele>
        <time>2022-09-26T07:39:43Z</time>
      </trkpt>
      <trkpt lat="41.6016590" lon="2.0994260">
        <ele>210.6</ele>
        <time>2022-09-26T07:39:44Z</time>
      </trkpt>
      <trkpt lat="41.6016850" lon="2.0994050">
        <ele>210.8</ele>
        <time>2022-09-26T07:39:45Z</time>
      </trkpt>
      <trkpt lat="41.6017100" lon="2.0993840">
        <ele>211.0</ele>
        <time>2022-09-26T07:39:46Z</time>
      </trkpt>
      <trkpt lat="41.6017350" lon="2.0993640">
        <ele>211.2</ele>
        <time>2022-09-26T07:39:47Z</time>
      </trkpt>
      <trkpt lat="41.6017600" lon="2.0993450">
        <ele>211.4</ele>
        <time>2022-09-26T07:39:48Z</time>
      </trkpt>
      <trkpt lat="41.6017850" lon="2.0993260">
        <ele>211.6</ele>
        <time>2022-09-26T07:39:49Z</time>
      </trkpt>
      <trkpt lat="41.6018100" lon="2.0993090">
        <ele>211.8</ele>
        <time>2022-09-26T07:39:50Z</time>
      </trkpt>
      <trkpt lat="41.6018380" lon="2.0992930">
        <ele>212.0</ele>
        <time>2022-09-26T07:39:51Z</time>
      </trkpt>
      <trkpt lat="41.6018640" lon="2.0992770">
        <ele>212.2</ele>
        <time>2022-09-26T07:39:52Z</time>
      </trkpt>
      <trkpt lat="41.6018900" lon="2.0992600">
        <ele>212.4</ele>
        <time>2022-09-26T07:39:53Z</time>
      </trkpt>
      <trkpt lat="41.6019170" lon="2.0992440">
        <ele>212.6</ele>
        <time>2022-09-26T07:39:54Z</time>
      </trkpt>
      <trkpt lat="41.6019440" lon="2.0992270">
        <ele>212.6</ele>
        <time>2022-09-26T07:39:55Z</time>
      </trkpt>
      <trkpt lat="41.6019710" lon="2.0992090">
        <ele>212.8</ele>
        <time>2022-09-26T07:39:56Z</time>
      </trkpt>
      <trkpt lat="41.6019980" lon="2.0991910">
        <ele>213.0</ele>
        <time>2022-09-26T07:39:57Z</time>
      </trkpt>
      <trkpt lat="41.6020270" lon="2.0991720">
        <ele>213.2</ele>
        <time>2022-09-26T07:39:58Z</time>
      </trkpt>
      <trkpt lat="41.6020560" lon="2.0991530">
        <ele>213.2</ele>
        <time>2022-09-26T07:39:59Z</time>
      </trkpt>
      <trkpt lat="41.6020850" lon="2.0991340">
        <ele>213.4</ele>
        <time>2022-09-26T07:40:00Z</time>
      </trkpt>
      <trkpt lat="41.6021140" lon="2.0991160">
        <ele>213.4</ele>
        <time>2022-09-26T07:40:01Z</time>
      </trkpt>
      <trkpt lat="41.6021430" lon="2.0990960">
        <ele>213.6</ele>
        <time>2022-09-26T07:40:02Z</time>
      </trkpt>
      <trkpt lat="41.6021730" lon="2.0990770">
        <ele>213.4</ele>
        <time>2022-09-26T07:40:03Z</time>
      </trkpt>
      <trkpt lat="41.6022020" lon="2.0990570">
        <ele>213.6</ele>
        <time>2022-09-26T07:40:04Z</time>
      </trkpt>
      <trkpt lat="41.6022310" lon="2.0990390">
        <ele>213.6</ele>
        <time>2022-09-26T07:40:05Z</time>
      </trkpt>
      <trkpt lat="41.6022600" lon="2.0990220">
        <ele>213.8</ele>
        <time>2022-09-26T07:40:06Z</time>
      </trkpt>
      <trkpt lat="41.6022890" lon="2.0990050">
        <ele>213.8</ele>
        <time>2022-09-26T07:40:07Z</time>
      </trkpt>
      <trkpt lat="41.6023190" lon="2.0989890">
        <ele>213.8</ele>
        <time>2022-09-26T07:40:08Z</time>
      </trkpt>
      <trkpt lat="41.6023490" lon="2.0989740">
        <ele>214.0</ele>
        <time>2022-09-26T07:40:09Z</time>
      </trkpt>
      <trkpt lat="41.6023800" lon="2.0989600">
        <ele>214.0</ele>
        <time>2022-09-26T07:40:10Z</time>
      </trkpt>
      <trkpt lat="41.6024100" lon="2.0989500">
        <ele>214.2</ele>
        <time>2022-09-26T07:40:11Z</time>
      </trkpt>
      <trkpt lat="41.6024420" lon="2.0989420">
        <ele>214.2</ele>
        <time>2022-09-26T07:40:12Z</time>
      </trkpt>
      <trkpt lat="41.6024740" lon="2.0989370">
        <ele>214.4</ele>
        <time>2022-09-26T07:40:13Z</time>
      </trkpt>
      <trkpt lat="41.6025050" lon="2.0989370">
        <ele>214.6</ele>
        <time>2022-09-26T07:40:14Z</time>
      </trkpt>
      <trkpt lat="41.6025360" lon="2.0989410">
        <ele>214.6</ele>
        <time>2022-09-26T07:40:15Z</time>
      </trkpt>
      <trkpt lat="41.6025660" lon="2.0989470">
        <ele>214.4</ele>
        <time>2022-09-26T07:40:16Z</time>
      </trkpt>
      <trkpt lat="41.6025970" lon="2.0989570">
        <ele>214.4</ele>
        <time>2022-09-26T07:40:17Z</time>
      </trkpt>
      <trkpt lat="41.6026280" lon="2.0989680">
        <ele>214.4</ele>
        <time>2022-09-26T07:40:18Z</time>
      </trkpt>
      <trkpt lat="41.6026600" lon="2.0989810">
        <ele>214.6</ele>
        <time>2022-09-26T07:40:19Z</time>
      </trkpt>
      <trkpt lat="41.6026930" lon="2.0989940">
        <ele>214.6</ele>
        <time>2022-09-26T07:40:20Z</time>
      </trkpt>
      <trkpt lat="41.6027270" lon="2.0990070">
        <ele>214.6</ele>
        <time>2022-09-26T07:40:21Z</time>
      </trkpt>
      <trkpt lat="41.6027600" lon="2.0990190">
        <ele>214.8</ele>
        <time>2022-09-26T07:40:22Z</time>
      </trkpt>
      <trkpt lat="41.6027950" lon="2.0990310">
        <ele>214.8</ele>
        <time>2022-09-26T07:40:23Z</time>
      </trkpt>
      <trkpt lat="41.6028300" lon="2.0990420">
        <ele>215.0</ele>
        <time>2022-09-26T07:40:24Z</time>
      </trkpt>
      <trkpt lat="41.6028660" lon="2.0990510">
        <ele>215.0</ele>
        <time>2022-09-26T07:40:25Z</time>
      </trkpt>
      <trkpt lat="41.6029020" lon="2.0990590">
        <ele>215.0</ele>
        <time>2022-09-26T07:40:26Z</time>
      </trkpt>
      <trkpt lat="41.6029370" lon="2.0990660">
        <ele>215.0</ele>
        <time>2022-09-26T07:40:27Z</time>
      </trkpt>
      <trkpt lat="41.6029730" lon="2.0990730">
        <ele>215.2</ele>
        <time>2022-09-26T07:40:28Z</time>
      </trkpt>
      <trkpt lat="41.6030080" lon="2.0990770">
        <ele>215.4</ele>
        <time>2022-09-26T07:40:29Z</time>
      </trkpt>
      <trkpt lat="41.6030440" lon="2.0990810">
        <ele>215.4</ele>
        <time>2022-09-26T07:40:30Z</time>
      </trkpt>
      <trkpt lat="41.6030790" lon="2.0990850">
        <ele>215.2</ele>
        <time>2022-09-26T07:40:31Z</time>
      </trkpt>
      <trkpt lat="41.6031150" lon="2.0990870">
        <ele>215.2</ele>
        <time>2022-09-26T07:40:32Z</time>
      </trkpt>
      <trkpt lat="41.6031500" lon="2.0990890">
        <ele>215.2</ele>
        <time>2022-09-26T07:40:33Z</time>
      </trkpt>
      <trkpt lat="41.6031820" lon="2.0990930">
        <ele>215.4</ele>
        <time>2022-09-26T07:40:34Z</time>
      </trkpt>
      <trkpt lat="41.6032100" lon="2.0990980">
        <ele>215.4</ele>
        <time>2022-09-26T07:40:35Z</time>
      </trkpt>
      <trkpt lat="41.6032360" lon="2.0990980">
        <ele>215.4</ele>
        <time>2022-09-26T07:40:36Z</time>
      </trkpt>
      <trkpt lat="41.6032660" lon="2.0990910">
        <ele>215.6</ele>
        <time>2022-09-26T07:40:37Z</time>
      </trkpt>
      <trkpt lat="41.6033000" lon="2.0990780">
        <ele>215.6</ele>
        <time>2022-09-26T07:40:38Z</time>
      </trkpt>
      <trkpt lat="41.6033350" lon="2.0990570">
        <ele>215.4</ele>
        <time>2022-09-26T07:40:39Z</time>
      </trkpt>
      <trkpt lat="41.6033700" lon="2.0990340">
        <ele>215.4</ele>
        <time>2022-09-26T07:40:40Z</time>
      </trkpt>
      <trkpt lat="41.6034080" lon="2.0990110">
        <ele>215.2</ele>
        <time>2022-09-26T07:40:41Z</time>
      </trkpt>
      <trkpt lat="41.6034480" lon="2.0989900">
        <ele>215.2</ele>
        <time>2022-09-26T07:40:42Z</time>
      </trkpt>
      <trkpt lat="41.6034880" lon="2.0989670">
        <ele>214.8</ele>
        <time>2022-09-26T07:40:43Z</time>
      </trkpt>
      <trkpt lat="41.6035290" lon="2.0989430">
        <ele>214.6</ele>
        <time>2022-09-26T07:40:44Z</time>
      </trkpt>
      <trkpt lat="41.6035720" lon="2.0989160">
        <ele>214.4</ele>
        <time>2022-09-26T07:40:45Z</time>
      </trkpt>
      <trkpt lat="41.6036140" lon="2.0988870">
        <ele>214.2</ele>
        <time>2022-09-26T07:40:46Z</time>
      </trkpt>
      <trkpt lat="41.6036570" lon="2.0988560">
        <ele>214.2</ele>
        <time>2022-09-26T07:40:47Z</time>
      </trkpt>
      <trkpt lat="41.6036990" lon="2.0988240">
        <ele>214.0</ele>
        <time>2022-09-26T07:40:48Z</time>
      </trkpt>
      <trkpt lat="41.6037410" lon="2.0987930">
        <ele>213.8</ele>
        <time>2022-09-26T07:40:49Z</time>
      </trkpt>
      <trkpt lat="41.6037840" lon="2.0987650">
        <ele>213.8</ele>
        <time>2022-09-26T07:40:50Z</time>
      </trkpt>
      <trkpt lat="41.6038290" lon="2.0987400">
        <ele>213.8</ele>
        <time>2022-09-26T07:40:51Z</time>
      </trkpt>
      <trkpt lat="41.6038720" lon="2.0987120">
        <ele>213.8</ele>
        <time>2022-09-26T07:40:52Z</time>
      </trkpt>
      <trkpt lat="41.6039150" lon="2.0986800">
        <ele>213.6</ele>
        <time>2022-09-26T07:40:53Z</time>
      </trkpt>
      <trkpt lat="41.6039570" lon="2.0986490">
        <ele>213.4</ele>
        <time>2022-09-26T07:40:54Z</time>
      </trkpt>
      <trkpt lat="41.6039990" lon="2.0986190">
        <ele>213.4</ele>
        <time>2022-09-26T07:40:55Z</time>
      </trkpt>
      <trkpt lat="41.6040400" lon="2.0985870">
        <ele>213.2</ele>
        <time>2022-09-26T07:40:56Z</time>
      </trkpt>
      <trkpt lat="41.6040820" lon="2.0985560">
        <ele>213.2</ele>
        <time>2022-09-26T07:40:57Z</time>
      </trkpt>
      <trkpt lat="41.6041220" lon="2.0985220">
        <ele>213.2</ele>
        <time>2022-09-26T07:40:58Z</time>
      </trkpt>
      <trkpt lat="41.6041610" lon="2.0984850">
        <ele>213.2</ele>
        <time>2022-09-26T07:40:59Z</time>
      </trkpt>
      <trkpt lat="41.6041970" lon="2.0984440">
        <ele>213.0</ele>
        <time>2022-09-26T07:41:00Z</time>
      </trkpt>
      <trkpt lat="41.6042290" lon="2.0984090">
        <ele>212.8</ele>
        <time>2022-09-26T07:41:01Z</time>
      </trkpt>
      <trkpt lat="41.6042580" lon="2.0983910">
        <ele>212.8</ele>
        <time>2022-09-26T07:41:02Z</time>
      </trkpt>
      <trkpt lat="41.6042850" lon="2.0983940">
        <ele>212.6</ele>
        <time>2022-09-26T07:41:03Z</time>
      </trkpt>
      <trkpt lat="41.6043060" lon="2.0984120">
        <ele>212.4</ele>
        <time>2022-09-26T07:41:04Z</time>
      </trkpt>
      <trkpt lat="41.6043200" lon="2.0984350">
        <ele>212.4</ele>
        <time>2022-09-26T07:41:05Z</time>
      </trkpt>
      <trkpt lat="41.6043290" lon="2.0984610">
        <ele>212.6</ele>
        <time>2022-09-26T07:41:06Z</time>
      </trkpt>
      <trkpt lat="41.6043330" lon="2.0984920">
        <ele>212.6</ele>
        <time>2022-09-26T07:41:07Z</time>
      </trkpt>
      <trkpt lat="41.6043370" lon="2.0985240">
        <ele>212.8</ele>
        <time>2022-09-26T07:41:08Z</time>
      </trkpt>
      <trkpt lat="41.6043430" lon="2.0985560">
        <ele>213.0</ele>
        <time>2022-09-26T07:41:09Z</time>
      </trkpt>
      <trkpt lat="41.6043520" lon="2.0985880">
        <ele>213.2</ele>
        <time>2022-09-26T07:41:10Z</time>
      </trkpt>
      <trkpt lat="41.6043590" lon="2.0986190">
        <ele>213.4</ele>
        <time>2022-09-26T07:41:11Z</time>
      </trkpt>
      <trkpt lat="41.6043650" lon="2.0986500">
        <ele>213.6</ele>
        <time>2022-09-26T07:41:12Z</time>
      </trkpt>
      <trkpt lat="41.6043710" lon="2.0986790">
        <ele>213.8</ele>
        <time>2022-09-26T07:41:13Z</time>
      </trkpt>
      <trkpt lat="41.6043760" lon="2.0987080">
        <ele>214.2</ele>
        <time>2022-09-26T07:41:14Z</time>
      </trkpt>
      <trkpt lat="41.6043810" lon="2.0987390">
        <ele>214.4</ele>
        <time>2022-09-26T07:41:15Z</time>
      </trkpt>
      <trkpt lat="41.6043880" lon="2.0987680">
        <ele>214.6</ele>
        <time>2022-09-26T07:41:16Z</time>
      </trkpt>
      <trkpt lat="41.6043960" lon="2.0987980">
        <ele>215.0</ele>
        <time>2022-09-26T07:41:17Z</time>
      </trkpt>
      <trkpt lat="41.6044040" lon="2.0988270">
        <ele>215.4</ele>
        <time>2022-09-26T07:41:18Z</time>
      </trkpt>
      <trkpt lat="41.6044110" lon="2.0988550">
        <ele>215.6</ele>
        <time>2022-09-26T07:41:19Z</time>
      </trkpt>
      <trkpt lat="41.6044190" lon="2.0988810">
        <ele>215.8</ele>
        <time>2022-09-26T07:41:20Z</time>
      </trkpt>
      <trkpt lat="41.6044260" lon="2.0989070">
        <ele>216.2</ele>
        <time>2022-09-26T07:41:21Z</time>
      </trkpt>
      <trkpt lat="41.6044340" lon="2.0989320">
        <ele>216.4</ele>
        <time>2022-09-26T07:41:22Z</time>
      </trkpt>
      <trkpt lat="41.6044420" lon="2.0989570">
        <ele>216.6</ele>
        <time>2022-09-26T07:41:23Z</time>
      </trkpt>
      <trkpt lat="41.6044510" lon="2.0989820">
        <ele>216.8</ele>
        <time>2022-09-26T07:41:24Z</time>
      </trkpt>
      <trkpt lat="41.6044620" lon="2.0990040">
        <ele>217.0</ele>
        <time>2022-09-26T07:41:25Z</time>
      </trkpt>
      <trkpt lat="41.6044740" lon="2.0990240">
        <ele>217.2</ele>
        <time>2022-09-26T07:41:26Z</time>
      </trkpt>
      <trkpt lat="41.6044860" lon="2.0990440">
        <ele>217.4</ele>
        <time>2022-09-26T07:41:27Z</time>
      </trkpt>
      <trkpt lat="41.6044980" lon="2.0990660">
        <ele>217.8</ele>
        <time>2022-09-26T07:41:28Z</time>
      </trkpt>
      <trkpt lat="41.6045110" lon="2.0990870">
        <ele>217.8</ele>
        <time>2022-09-26T07:41:29Z</time>
      </trkpt>
      <trkpt lat="41.6045240" lon="2.0991090">
        <ele>218.2</ele>
        <time>2022-09-26T07:41:30Z</time>
      </trkpt>
      <trkpt lat="41.6045380" lon="2.0991290">
        <ele>218.4</ele>
        <time>2022-09-26T07:41:31Z</time>
      </trkpt>
      <trkpt lat="41.6045480" lon="2.0991510">
        <ele>218.8</ele>
        <time>2022-09-26T07:41:32Z</time>
      </trkpt>
      <trkpt lat="41.6045580" lon="2.0991750">
        <ele>219.4</ele>
        <time>2022-09-26T07:41:33Z</time>
      </trkpt>
      <trkpt lat="41.6045700" lon="2.0991980">
        <ele>219.6</ele>
        <time>2022-09-26T07:41:34Z</time>
      </trkpt>
      <trkpt lat="41.6045800" lon="2.0992210">
        <ele>219.8</ele>
        <time>2022-09-26T07:41:35Z</time>
      </trkpt>
      <trkpt lat="41.6045890" lon="2.0992460">
        <ele>220.2</ele>
        <time>2022-09-26T07:41:36Z</time>
      </trkpt>
      <trkpt lat="41.6045980" lon="2.0992720">
        <ele>220.6</ele>
        <time>2022-09-26T07:41:37Z</time>
      </trkpt>
      <trkpt lat="41.6046030" lon="2.0992990">
        <ele>220.8</ele>
        <time>2022-09-26T07:41:38Z</time>
      </trkpt>
      <trkpt lat="41.6046100" lon="2.0993260">
        <ele>221.2</ele>
        <time>2022-09-26T07:41:39Z</time>
      </trkpt>
      <trkpt lat="41.6046160" lon="2.0993540">
        <ele>221.4</ele>
        <time>2022-09-26T07:41:40Z</time>
      </trkpt>
      <trkpt lat="41.6046200" lon="2.0993800">
        <ele>221.8</ele>
        <time>2022-09-26T07:41:41Z</time>
      </trkpt>
      <trkpt lat="41.6046220" lon="2.0994050">
        <ele>221.8</ele>
        <time>2022-09-26T07:41:42Z</time>
      </trkpt>
      <trkpt lat="41.6046240" lon="2.0994330">
        <ele>222.4</ele>
        <time>2022-09-26T07:41:43Z</time>
      </trkpt>
      <trkpt lat="41.6046270" lon="2.0994600">
        <ele>222.8</ele>
        <time>2022-09-26T07:41:44Z</time>
      </trkpt>
      <trkpt lat="41.6046300" lon="2.0994850">
        <ele>223.2</ele>
        <time>2022-09-26T07:41:45Z</time>
      </trkpt>
      <trkpt lat="41.6046340" lon="2.0995120">
        <ele>223.6</ele>
        <time>2022-09-26T07:41:46Z</time>
      </trkpt>
      <trkpt lat="41.6046380" lon="2.0995410">
        <ele>224.0</ele>
        <time>2022-09-26T07:41:47Z</time>
      </trkpt>
      <trkpt lat="41.6046410" lon="2.0995680">
        <ele>224.4</ele>
        <time>2022-09-26T07:41:48Z</time>
      </trkpt>
      <trkpt lat="41.6046410" lon="2.0995950">
        <ele>224.6</ele>
        <time>2022-09-26T07:41:49Z</time>
      </trkpt>
      <trkpt lat="41.6046420" lon="2.0996210">
        <ele>224.8</ele>
        <time>2022-09-26T07:41:50Z</time>
      </trkpt>
      <trkpt lat="41.6046450" lon="2.0996490">
        <ele>225.2</ele>
        <time>2022-09-26T07:41:51Z</time>
      </trkpt>
      <trkpt lat="41.6046480" lon="2.0996780">
        <ele>225.4</ele>
        <time>2022-09-26T07:41:52Z</time>
      </trkpt>
      <trkpt lat="41.6046510" lon="2.0997060">
        <ele>225.8</ele>
        <time>2022-09-26T07:41:53Z</time>
      </trkpt>
      <trkpt lat="41.6046540" lon="2.0997330">
        <ele>226.0</ele>
        <time>2022-09-26T07:41:54Z</time>
      </trkpt>
      <trkpt lat="41.6046560" lon="2.0997610">
        <ele>226.2</ele>
        <time>2022-09-26T07:41:55Z</time>
      </trkpt>
      <trkpt lat="41.6046560" lon="2.0997870">
        <ele>226.6</ele>
        <time>2022-09-26T07:41:56Z</time>
      </trkpt>
      <trkpt lat="41.6046570" lon="2.0998120">
        <ele>227.0</ele>
        <time>2022-09-26T07:41:57Z</time>
      </trkpt>
      <trkpt lat="41.6046590" lon="2.0998360">
        <ele>227.4</ele>
        <time>2022-09-26T07:41:58Z</time>
      </trkpt>
      <trkpt lat="41.6046610" lon="2.0998610">
        <ele>227.6</ele>
        <time>2022-09-26T07:41:59Z</time>
      </trkpt>
      <trkpt lat="41.6046620" lon="2.0998870">
        <ele>228.0</ele>
        <time>2022-09-26T07:42:00Z</time>
      </trkpt>
      <trkpt lat="41.6046650" lon="2.0999110">
        <ele>228.2</ele>
        <time>2022-09-26T07:42:01Z</time>
      </trkpt>
      <trkpt lat="41.6046690" lon="2.0999340">
        <ele>228.2</ele>
        <time>2022-09-26T07:42:02Z</time>
      </trkpt>
      <trkpt lat="41.6046710" lon="2.0999560">
        <ele>228.6</ele>
        <time>2022-09-26T07:42:03Z</time>
      </trkpt>
      <trkpt lat="41.6046710" lon="2.0999780">
        <ele>228.8</ele>
        <time>2022-09-26T07:42:04Z</time>
      </trkpt>
      <trkpt lat="41.6046720" lon="2.1000010">
        <ele>229.0</ele>
        <time>2022-09-26T07:42:05Z</time>
      </trkpt>
      <trkpt lat="41.6046750" lon="2.1000270">
        <ele>229.2</ele>
        <time>2022-09-26T07:42:06Z</time>
      </trkpt>
      <trkpt lat="41.6046770" lon="2.1000520">
        <ele>229.6</ele>
        <time>2022-09-26T07:42:07Z</time>
      </trkpt>
      <trkpt lat="41.6046810" lon="2.1000750">
        <ele>229.8</ele>
        <time>2022-09-26T07:42:08Z</time>
      </trkpt>
      <trkpt lat="41.6046850" lon="2.1000980">
        <ele>230.0</ele>
        <time>2022-09-26T07:42:09Z</time>
      </trkpt>
      <trkpt lat="41.6046920" lon="2.1001210">
        <ele>230.2</ele>
        <time>2022-09-26T07:42:10Z</time>
      </trkpt>
      <trkpt lat="41.6047020" lon="2.1001410">
        <ele>230.4</ele>
        <time>2022-09-26T07:42:11Z</time>
      </trkpt>
      <trkpt lat="41.6047150" lon="2.1001570">
        <ele>230.4</ele>
        <time>2022-09-26T07:42:12Z</time>
      </trkpt>
      <trkpt lat="41.6047300" lon="2.1001700">
        <ele>230.6</ele>
        <time>2022-09-26T07:42:13Z</time>
      </trkpt>
      <trkpt lat="41.6047470" lon="2.1001800">
        <ele>230.8</ele>
        <time>2022-09-26T07:42:14Z</time>
      </trkpt>
      <trkpt lat="41.6047640" lon="2.1001890">
        <ele>230.8</ele>
        <time>2022-09-26T07:42:15Z</time>
      </trkpt>
      <trkpt lat="41.6047830" lon="2.1001940">
        <ele>231.0</ele>
        <time>2022-09-26T07:42:16Z</time>
      </trkpt>
      <trkpt lat="41.6048040" lon="2.1001940">
        <ele>231.2</ele>
        <time>2022-09-26T07:42:17Z</time>
      </trkpt>
      <trkpt lat="41.6048250" lon="2.1001930">
        <ele>231.2</ele>
        <time>2022-09-26T07:42:18Z</time>
      </trkpt>
      <trkpt lat="41.6048470" lon="2.1001930">
        <ele>231.2</ele>
        <time>2022-09-26T07:42:19Z</time>
      </trkpt>
      <trkpt lat="41.6048670" lon="2.1001910">
        <ele>231.4</ele>
        <time>2022-09-26T07:42:20Z</time>
      </trkpt>
      <trkpt lat="41.6048900" lon="2.1001900">
        <ele>231.6</ele>
        <time>2022-09-26T07:42:21Z</time>
      </trkpt>
      <trkpt lat="41.6049120" lon="2.1001890">
        <ele>231.6</ele>
        <time>2022-09-26T07:42:22Z</time>
      </trkpt>
      <trkpt lat="41.6049340" lon="2.1001880">
        <ele>231.8</ele>
        <time>2022-09-26T07:42:23Z</time>
      </trkpt>
      <trkpt lat="41.6049570" lon="2.1001870">
        <ele>231.8</ele>
        <time>2022-09-26T07:42:24Z</time>
      </trkpt>
      <trkpt lat="41.6049790" lon="2.1001830">
        <ele>232.0</ele>
        <time>2022-09-26T07:42:25Z</time>
      </trkpt>
      <trkpt lat="41.6050010" lon="2.1001770">
        <ele>232.0</ele>
        <time>2022-09-26T07:42:26Z</time>
      </trkpt>
      <trkpt lat="41.6050250" lon="2.1001750">
        <ele>232.0</ele>
        <time>2022-09-26T07:42:27Z</time>
      </trkpt>
      <trkpt lat="41.6050480" lon="2.1001740">
        <ele>232.0</ele>
        <time>2022-09-26T07:42:28Z</time>
      </trkpt>
      <trkpt lat="41.6050720" lon="2.1001730">
        <ele>232.2</ele>
        <time>2022-09-26T07:42:29Z</time>
      </trkpt>
      <trkpt lat="41.6050960" lon="2.1001730">
        <ele>232.4</ele>
        <time>2022-09-26T07:42:30Z</time>
      </trkpt>
      <trkpt lat="41.6051200" lon="2.1001730">
        <ele>232.4</ele>
        <time>2022-09-26T07:42:31Z</time>
      </trkpt>
      <trkpt lat="41.6051450" lon="2.1001720">
        <ele>232.6</ele>
        <time>2022-09-26T07:42:32Z</time>
      </trkpt>
      <trkpt lat="41.6051690" lon="2.1001720">
        <ele>232.8</ele>
        <time>2022-09-26T07:42:33Z</time>
      </trkpt>
      <trkpt lat="41.6051950" lon="2.1001730">
        <ele>232.8</ele>
        <time>2022-09-26T07:42:34Z</time>
      </trkpt>
      <trkpt lat="41.6052200" lon="2.1001720">
        <ele>233.0</ele>
        <time>2022-09-26T07:42:35Z</time>
      </trkpt>
      <trkpt lat="41.6052450" lon="2.1001720">
        <ele>233.0</ele>
        <time>2022-09-26T07:42:36Z</time>
      </trkpt>
      <trkpt lat="41.6052710" lon="2.1001710">
        <ele>233.0</ele>
        <time>2022-09-26T07:42:37Z</time>
      </trkpt>
      <trkpt lat="41.6052960" lon="2.1001720">
        <ele>233.0</ele>
        <time>2022-09-26T07:42:38Z</time>
      </trkpt>
      <trkpt lat="41.6053220" lon="2.1001730">
        <ele>233.0</ele>
        <time>2022-09-26T07:42:39Z</time>
      </trkpt>
      <trkpt lat="41.6053470" lon="2.1001740">
        <ele>233.0</ele>
        <time>2022-09-26T07:42:40Z</time>
      </trkpt>
      <trkpt lat="41.6053730" lon="2.1001770">
        <ele>233.2</ele>
        <time>2022-09-26T07:42:41Z</time>
      </trkpt>
      <trkpt lat="41.6053980" lon="2.1001800">
        <ele>233.2</ele>
        <time>2022-09-26T07:42:42Z</time>
      </trkpt>
      <trkpt lat="41.6054240" lon="2.1001850">
        <ele>233.4</ele>
        <time>2022-09-26T07:42:43Z</time>
      </trkpt>
      <trkpt lat="41.6054490" lon="2.1001890">
        <ele>233.4</ele>
        <time>2022-09-26T07:42:44Z</time>
      </trkpt>
      <trkpt lat="41.6054740" lon="2.1001950">
        <ele>233.6</ele>
        <time>2022-09-26T07:42:45Z</time>
      </trkpt>
      <trkpt lat="41.6054980" lon="2.1002030">
        <ele>233.8</ele>
        <time>2022-09-26T07:42:46Z</time>
      </trkpt>
      <trkpt lat="41.6055220" lon="2.1002130">
        <ele>234.0</ele>
        <time>2022-09-26T07:42:47Z</time>
      </trkpt>
      <trkpt lat="41.6055460" lon="2.1002240">
        <ele>234.2</ele>
        <time>2022-09-26T07:42:48Z</time>
      </trkpt>
      <trkpt lat="41.6055690" lon="2.1002360">
        <ele>234.4</ele>
        <time>2022-09-26T07:42:49Z</time>
      </trkpt>
      <trkpt lat="41.6055930" lon="2.1002480">
        <ele>234.4</ele>
        <time>2022-09-26T07:42:50Z</time>
      </trkpt>
      <trkpt lat="41.6056170" lon="2.1002600">
        <ele>234.6</ele>
        <time>2022-09-26T07:42:51Z</time>
      </trkpt>
      <trkpt lat="41.6056400" lon="2.1002710">
        <ele>234.8</ele>
        <time>2022-09-26T07:42:52Z</time>
      </trkpt>
      <trkpt lat="41.6056640" lon="2.1002790">
        <ele>234.8</ele>
        <time>2022-09-26T07:42:53Z</time>
      </trkpt>
      <trkpt lat="41.6056890" lon="2.1002860">
        <ele>235.0</ele>
        <time>2022-09-26T07:42:54Z</time>
      </trkpt>
      <trkpt lat="41.6057140" lon="2.1002930">
        <ele>235.0</ele>
        <time>2022-09-26T07:42:55Z</time>
      </trkpt>
      <trkpt lat="41.6057380" lon="2.1002990">
        <ele>235.4</ele>
        <time>2022-09-26T07:42:56Z</time>
      </trkpt>
      <trkpt lat="41.6057630" lon="2.1003050">
        <ele>235.6</ele>
        <time>2022-09-26T07:42:57Z</time>
      </trkpt>
      <trkpt lat="41.6057890" lon="2.1003090">
        <ele>235.8</ele>
        <time>2022-09-26T07:42:58Z</time>
      </trkpt>
      <trkpt lat="41.6058160" lon="2.1003130">
        <ele>236.0</ele>
        <time>2022-09-26T07:42:59Z</time>
      </trkpt>
      <trkpt lat="41.6058420" lon="2.1003180">
        <ele>236.2</ele>
        <time>2022-09-26T07:43:00Z</time>
      </trkpt>
      <trkpt lat="41.6058680" lon="2.1003230">
        <ele>236.4</ele>
        <time>2022-09-26T07:43:01Z</time>
      </trkpt>
      <trkpt lat="41.6058950" lon="2.1003260">
        <ele>236.8</ele>
        <time>2022-09-26T07:43:02Z</time>
      </trkpt>
      <trkpt lat="41.6059210" lon="2.1003260">
        <ele>236.8</ele>
        <time>2022-09-26T07:43:03Z</time>
      </trkpt>
      <trkpt lat="41.6059480" lon="2.1003250">
        <ele>237.0</ele>
        <time>2022-09-26T07:43:04Z</time>
      </trkpt>
      <trkpt lat="41.6059740" lon="2.1003230">
        <ele>237.0</ele>
        <time>2022-09-26T07:43:05Z</time>
      </trkpt>
      <trkpt lat="41.6060010" lon="2.1003200">
        <ele>237.2</ele>
        <time>2022-09-26T07:43:06Z</time>
      </trkpt>
      <trkpt lat="41.6060260" lon="2.1003180">
        <ele>237.4</ele>
        <time>2022-09-26T07:43:07Z</time>
      </trkpt>
      <trkpt lat="41.6060510" lon="2.1003170">
        <ele>237.4</ele>
        <time>2022-09-26T07:43:08Z</time>
      </trkpt>
      <trkpt lat="41.6060760" lon="2.1003170">
        <ele>237.6</ele>
        <time>2022-09-26T07:43:09Z</time>
      </trkpt>
      <trkpt lat="41.6061010" lon="2.1003190">
        <ele>237.8</ele>
        <time>2022-09-26T07:43:10Z</time>
      </trkpt>
      <trkpt lat="41.6061270" lon="2.1003220">
        <ele>238.0</ele>
        <time>2022-09-26T07:43:11Z</time>
      </trkpt>
      <trkpt lat="41.6061520" lon="2.1003250">
        <ele>238.0</ele>
        <time>2022-09-26T07:43:12Z</time>
      </trkpt>
      <trkpt lat="41.6061770" lon="2.1003260">
        <ele>238.2</ele>
        <time>2022-09-26T07:43:13Z</time>
      </trkpt>
      <trkpt lat="41.6062030" lon="2.1003290">
        <ele>238.4</ele>
        <time>2022-09-26T07:43:14Z</time>
      </trkpt>
      <trkpt lat="41.6062280" lon="2.1003330">
        <ele>238.6</ele>
        <time>2022-09-26T07:43:15Z</time>
      </trkpt>
      <trkpt lat="41.6062530" lon="2.1003380">
        <ele>238.6</ele>
        <time>2022-09-26T07:43:16Z</time>
      </trkpt>
      <trkpt lat="41.6062780" lon="2.1003430">
        <ele>238.8</ele>
        <time>2022-09-26T07:43:17Z</time>
      </trkpt>
      <trkpt lat="41.6063040" lon="2.1003480">
        <ele>238.8</ele>
        <time>2022-09-26T07:43:18Z</time>
      </trkpt>
      <trkpt lat="41.6063300" lon="2.1003510">
        <ele>238.6</ele>
        <time>2022-09-26T07:43:19Z</time>
      </trkpt>
      <trkpt lat="41.6063560" lon="2.1003530">
        <ele>238.8</ele>
        <time>2022-09-26T07:43:20Z</time>
      </trkpt>
      <trkpt lat="41.6063820" lon="2.1003560">
        <ele>238.8</ele>
        <time>2022-09-26T07:43:21Z</time>
      </trkpt>
      <trkpt lat="41.6064080" lon="2.1003580">
        <ele>239.0</ele>
        <time>2022-09-26T07:43:22Z</time>
      </trkpt>
      <trkpt lat="41.6064340" lon="2.1003590">
        <ele>239.0</ele>
        <time>2022-09-26T07:43:23Z</time>
      </trkpt>
      <trkpt lat="41.6064590" lon="2.1003600">
        <ele>239.2</ele>
        <time>2022-09-26T07:43:24Z</time>
      </trkpt>
      <trkpt lat="41.6064840" lon="2.1003620">
        <ele>239.6</ele>
        <time>2022-09-26T07:43:25Z</time>
      </trkpt>
      <trkpt lat="41.6065090" lon="2.1003620">
        <ele>239.6</ele>
        <time>2022-09-26T07:43:26Z</time>
      </trkpt>
      <trkpt lat="41.6065350" lon="2.1003590">
        <ele>239.8</ele>
        <time>2022-09-26T07:43:27Z</time>
      </trkpt>
      <trkpt lat="41.6065600" lon="2.1003560">
        <ele>239.8</ele>
        <time>2022-09-26T07:43:28Z</time>
      </trkpt>
      <trkpt lat="41.6065850" lon="2.1003550">
        <ele>240.0</ele>
        <time>2022-09-26T07:43:29Z</time>
      </trkpt>
      <trkpt lat="41.6066110" lon="2.1003550">
        <ele>240.0</ele>
        <time>2022-09-26T07:43:30Z</time>
      </trkpt>
      <trkpt lat="41.6066350" lon="2.1003540">
        <ele>240.2</ele>
        <time>2022-09-26T07:43:31Z</time>
      </trkpt>
      <trkpt lat="41.6066590" lon="2.1003530">
        <ele>240.2</ele>
        <time>2022-09-26T07:43:32Z</time>
      </trkpt>
      <trkpt lat="41.6066820" lon="2.1003530">
        <ele>240.4</ele>
        <time>2022-09-26T07:43:33Z</time>
      </trkpt>
      <trkpt lat="41.6067040" lon="2.1003530">
        <ele>240.6</ele>
        <time>2022-09-26T07:43:34Z</time>
      </trkpt>
      <trkpt lat="41.6067260" lon="2.1003560">
        <ele>240.8</ele>
        <time>2022-09-26T07:43:35Z</time>
      </trkpt>
      <trkpt lat="41.6067480" lon="2.1003590">
        <ele>241.0</ele>
        <time>2022-09-26T07:43:36Z</time>
      </trkpt>
      <trkpt lat="41.6067680" lon="2.1003600">
        <ele>241.2</ele>
        <time>2022-09-26T07:43:37Z</time>
      </trkpt>
      <trkpt lat="41.6067890" lon="2.1003620">
        <ele>241.4</ele>
        <time>2022-09-26T07:43:38Z</time>
      </trkpt>
      <trkpt lat="41.6068100" lon="2.1003640">
        <ele>241.4</ele>
        <time>2022-09-26T07:43:39Z</time>
      </trkpt>
      <trkpt lat="41.6068310" lon="2.1003690">
        <ele>241.6</ele>
        <time>2022-09-26T07:43:40Z</time>
      </trkpt>
      <trkpt lat="41.6068530" lon="2.1003750">
        <ele>242.0</ele>
        <time>2022-09-26T07:43:41Z</time>
      </trkpt>
      <trkpt lat="41.6068750" lon="2.1003800">
        <ele>242.0</ele>
        <time>2022-09-26T07:43:42Z</time>
      </trkpt>
      <trkpt lat="41.6068970" lon="2.1003850">
        <ele>242.2</ele>
        <time>2022-09-26T07:43:43Z</time>
      </trkpt>
      <trkpt lat="41.6069200" lon="2.1003920">
        <ele>242.4</ele>
        <time>2022-09-26T07:43:44Z</time>
      </trkpt>
      <trkpt lat="41.6069440" lon="2.1003970">
        <ele>242.8</ele>
        <time>2022-09-26T07:43:45Z</time>
      </trkpt>
      <trkpt lat="41.6069680" lon="2.1004030">
        <ele>243.0</ele>
        <time>2022-09-26T07:43:46Z</time>
      </trkpt>
      <trkpt lat="41.6069910" lon="2.1004070">
        <ele>243.0</ele>
        <time>2022-09-26T07:43:47Z</time>
      </trkpt>
      <trkpt lat="41.6070140" lon="2.1004110">
        <ele>243.2</ele>
        <time>2022-09-26T07:43:48Z</time>
      </trkpt>
      <trkpt lat="41.6070370" lon="2.1004140">
        <ele>243.4</ele>
        <time>2022-09-26T07:43:49Z</time>
      </trkpt>
      <trkpt lat="41.6070590" lon="2.1004180">
        <ele>243.6</ele>
        <time>2022-09-26T07:43:50Z</time>
      </trkpt>
      <trkpt lat="41.6070810" lon="2.1004210">
        <ele>243.8</ele>
        <time>2022-09-26T07:43:51Z</time>
      </trkpt>
      <trkpt lat="41.6071040" lon="2.1004260">
        <ele>244.0</ele>
        <time>2022-09-26T07:43:52Z</time>
      </trkpt>
      <trkpt lat="41.6071270" lon="2.1004300">
        <ele>244.2</ele>
        <time>2022-09-26T07:43:53Z</time>
      </trkpt>
      <trkpt lat="41.6071520" lon="2.1004320">
        <ele>244.6</ele>
        <time>2022-09-26T07:43:54Z</time>
      </trkpt>
      <trkpt lat="41.6071750" lon="2.1004350">
        <ele>244.8</ele>
        <time>2022-09-26T07:43:55Z</time>
      </trkpt>
      <trkpt lat="41.6071980" lon="2.1004350">
        <ele>244.8</ele>
        <time>2022-09-26T07:43:56Z</time>
      </trkpt>
      <trkpt lat="41.6072220" lon="2.1004330">
        <ele>244.8</ele>
        <time>2022-09-26T07:43:57Z</time>
      </trkpt>
      <trkpt lat="41.6072470" lon="2.1004320">
        <ele>245.0</ele>
        <time>2022-09-26T07:43:58Z</time>
      </trkpt>
      <trkpt lat="41.6072720" lon="2.1004310">
        <ele>245.0</ele>
        <time>2022-09-26T07:43:59Z</time>
      </trkpt>
      <trkpt lat="41.6072970" lon="2.1004280">
        <ele>245.0</ele>
        <time>2022-09-26T07:44:00Z</time>
      </trkpt>
      <trkpt lat="41.6073230" lon="2.1004240">
        <ele>245.0</ele>
        <time>2022-09-26T07:44:01Z</time>
      </trkpt>
      <trkpt lat="41.6073480" lon="2.1004190">
        <ele>245.0</ele>
        <time>2022-09-26T07:44:02Z</time>
      </trkpt>
      <trkpt lat="41.6073750" lon="2.1004140">
        <ele>245.0</ele>
        <time>2022-09-26T07:44:03Z</time>
      </trkpt>
      <trkpt lat="41.6074020" lon="2.1004080">
        <ele>245.2</ele>
        <time>2022-09-26T07:44:04Z</time>
      </trkpt>
      <trkpt lat="41.6074290" lon="2.1004000">
        <ele>245.4</ele>
        <time>2022-09-26T07:44:05Z</time>
      </trkpt>
      <trkpt lat="41.6074560" lon="2.1003920">
        <ele>245.6</ele>
        <time>2022-09-26T07:44:06Z</time>
      </trkpt>
      <trkpt lat="41.6074840" lon="2.1003850">
        <ele>245.8</ele>
        <time>2022-09-26T07:44:07Z</time>
      </trkpt>
      <trkpt lat="41.6075100" lon="2.1003770">
        <ele>246.0</ele>
        <time>2022-09-26T07:44:08Z</time>
      </trkpt>
      <trkpt lat="41.6075370" lon="2.1003690">
        <ele>246.0</ele>
        <time>2022-09-26T07:44:09Z</time>
      </trkpt>
      <trkpt lat="41.6075640" lon="2.1003610">
        <ele>246.2</ele>
        <time>2022-09-26T07:44:10Z</time>
      </trkpt>
      <trkpt lat="41.6075910" lon="2.1003520">
        <ele>246.2</ele>
        <time>2022-09-26T07:44:11Z</time>
      </trkpt>
      <trkpt lat="41.6076190" lon="2.1003440">
        <ele>246.4</ele>
        <time>2022-09-26T07:44:12Z</time>
      </trkpt>
      <trkpt lat="41.6076470" lon="2.1003340">
        <ele>246.6</ele>
        <time>2022-09-26T07:44:13Z</time>
      </trkpt>
      <trkpt lat="41.6076740" lon="2.1003250">
        <ele>246.8</ele>
        <time>2022-09-26T07:44:14Z</time>
      </trkpt>
      <trkpt lat="41.6077020" lon="2.1003180">
        <ele>246.8</ele>
        <time>2022-09-26T07:44:15Z</time>
      </trkpt>
      <trkpt lat="41.6077310" lon="2.1003110">
        <ele>246.8</ele>
        <time>2022-09-26T07:44:16Z</time>
      </trkpt>
      <trkpt lat="41.6077610" lon="2.1003060">
        <ele>246.8</ele>
        <time>2022-09-26T07:44:17Z</time>
      </trkpt>
      <trkpt lat="41.6077910" lon="2.1003000">
        <ele>247.0</ele>
        <time>2022-09-26T07:44:18Z</time>
      </trkpt>
      <trkpt lat="41.6078230" lon="2.1002950">
        <ele>246.8</ele>
        <time>2022-09-26T07:44:19Z</time>
      </trkpt>
      <trkpt lat="41.6078550" lon="2.1002930">
        <ele>246.8</ele>
        <time>2022-09-26T07:44:20Z</time>
      </trkpt>
      <trkpt lat="41.6078880" lon="2.1002940">
        <ele>246.8</ele>
        <time>2022-09-26T07:44:21Z</time>
      </trkpt>
      <trkpt lat="41.6079200" lon="2.1002990">
        <ele>246.8</ele>
        <time>2022-09-26T07:44:22Z</time>
      </trkpt>
      <trkpt lat="41.6079500" lon="2.1003070">
        <ele>246.8</ele>
        <time>2022-09-26T07:44:23Z</time>
      </trkpt>
      <trkpt lat="41.6079780" lon="2.1003200">
        <ele>246.8</ele>
        <time>2022-09-26T07:44:24Z</time>
      </trkpt>
      <trkpt lat="41.6080050" lon="2.1003360">
        <ele>246.8</ele>
        <time>2022-09-26T07:44:25Z</time>
      </trkpt>
      <trkpt lat="41.6080320" lon="2.1003510">
        <ele>246.8</ele>
        <time>2022-09-26T07:44:26Z</time>
      </trkpt>
      <trkpt lat="41.6080570" lon="2.1003650">
        <ele>247.0</ele>
        <time>2022-09-26T07:44:27Z</time>
      </trkpt>
      <trkpt lat="41.6080840" lon="2.1003820">
        <ele>247.0</ele>
        <time>2022-09-26T07:44:28Z</time>
      </trkpt>
      <trkpt lat="41.6081120" lon="2.1003990">
        <ele>247.0</ele>
        <time>2022-09-26T07:44:29Z</time>
      </trkpt>
      <trkpt lat="41.6081380" lon="2.1004150">
        <ele>247.2</ele>
        <time>2022-09-26T07:44:30Z</time>
      </trkpt>
      <trkpt lat="41.6081620" lon="2.1004320">
        <ele>247.4</ele>
        <time>2022-09-26T07:44:31Z</time>
      </trkpt>
      <trkpt lat="41.6081900" lon="2.1004470">
        <ele>247.2</ele>
        <time>2022-09-26T07:44:32Z</time>
      </trkpt>
      <trkpt lat="41.6082130" lon="2.1004580">
        <ele>247.4</ele>
        <time>2022-09-26T07:44:33Z</time>
      </trkpt>
      <trkpt lat="41.6082330" lon="2.1004650">
        <ele>247.6</ele>
        <time>2022-09-26T07:44:34Z</time>
      </trkpt>
      <trkpt lat="41.6082570" lon="2.1004720">
        <ele>247.6</ele>
        <time>2022-09-26T07:44:35Z</time>
      </trkpt>
      <trkpt lat="41.6082820" lon="2.1004790">
        <ele>247.8</ele>
        <time>2022-09-26T07:44:36Z</time>
      </trkpt>
      <trkpt lat="41.6083070" lon="2.1004860">
        <ele>247.8</ele>
        <time>2022-09-26T07:44:37Z</time>
      </trkpt>
      <trkpt lat="41.6083330" lon="2.1004910">
        <ele>248.0</ele>
        <time>2022-09-26T07:44:38Z</time>
      </trkpt>
      <trkpt lat="41.6083590" lon="2.1004940">
        <ele>248.0</ele>
        <time>2022-09-26T07:44:39Z</time>
      </trkpt>
      <trkpt lat="41.6083860" lon="2.1004970">
        <ele>248.2</ele>
        <time>2022-09-26T07:44:40Z</time>
      </trkpt>
      <trkpt lat="41.6084140" lon="2.1005010">
        <ele>248.4</ele>
        <time>2022-09-26T07:44:41Z</time>
      </trkpt>
      <trkpt lat="41.6084410" lon="2.1005040">
        <ele>248.6</ele>
        <time>2022-09-26T07:44:42Z</time>
      </trkpt>
      <trkpt lat="41.6084660" lon="2.1005090">
        <ele>248.8</ele>
        <time>2022-09-26T07:44:43Z</time>
      </trkpt>
      <trkpt lat="41.6084930" lon="2.1005130">
        <ele>249.2</ele>
        <time>2022-09-26T07:44:44Z</time>
      </trkpt>
      <trkpt lat="41.6085210" lon="2.1005170">
        <ele>249.4</ele>
        <time>2022-09-26T07:44:45Z</time>
      </trkpt>
      <trkpt lat="41.6085520" lon="2.1005200">
        <ele>249.6</ele>
        <time>2022-09-26T07:44:46Z</time>
      </trkpt>
      <trkpt lat="41.6085790" lon="2.1005190">
        <ele>250.0</ele>
        <time>2022-09-26T07:44:47Z</time>
      </trkpt>
      <trkpt lat="41.6086030" lon="2.1005190">
        <ele>250.4</ele>
        <time>2022-09-26T07:44:48Z</time>
      </trkpt>
      <trkpt lat="41.6086290" lon="2.1005210">
        <ele>250.8</ele>
        <time>2022-09-26T07:44:49Z</time>
      </trkpt>
      <trkpt lat="41.6086570" lon="2.1005250">
        <ele>251.0</ele>
        <time>2022-09-26T07:44:50Z</time>
      </trkpt>
      <trkpt lat="41.6086860" lon="2.1005280">
        <ele>251.2</ele>
        <time>2022-09-26T07:44:51Z</time>
      </trkpt>
      <trkpt lat="41.6087170" lon="2.1005310">
        <ele>251.2</ele>
        <time>2022-09-26T07:44:52Z</time>
      </trkpt>
      <trkpt lat="41.6087450" lon="2.1005330">
        <ele>251.4</ele>
        <time>2022-09-26T07:44:53Z</time>
      </trkpt>
      <trkpt lat="41.6087720" lon="2.1005340">
        <ele>251.4</ele>
        <time>2022-09-26T07:44:54Z</time>
      </trkpt>
      <trkpt lat="41.6087990" lon="2.1005380">
        <ele>251.4</ele>
        <time>2022-09-26T07:44:55Z</time>
      </trkpt>
      <trkpt lat="41.6088260" lon="2.1005420">
        <ele>251.6</ele>
        <time>2022-09-26T07:44:56Z</time>
      </trkpt>
      <trkpt lat="41.6088530" lon="2.1005470">
        <ele>251.8</ele>
        <time>2022-09-26T07:44:57Z</time>
      </trkpt>
      <trkpt lat="41.6088810" lon="2.1005530">
        <ele>252.2</ele>
        <time>2022-09-26T07:44:58Z</time>
      </trkpt>
      <trkpt lat="41.6089080" lon="2.1005600">
        <ele>252.4</ele>
        <time>2022-09-26T07:44:59Z</time>
      </trkpt>
      <trkpt lat="41.6089350" lon="2.1005670">
        <ele>252.6</ele>
        <time>2022-09-26T07:45:00Z</time>
      </trkpt>
      <trkpt lat="41.6089620" lon="2.1005750">
        <ele>252.6</ele>
        <time>2022-09-26T07:45:01Z</time>
      </trkpt>
      <trkpt lat="41.6089890" lon="2.1005840">
        <ele>252.6</ele>
        <time>2022-09-26T07:45:02Z</time>
      </trkpt>
      <trkpt lat="41.6090170" lon="2.1005920">
        <ele>252.8</ele>
        <time>2022-09-26T07:45:03Z</time>
      </trkpt>
      <trkpt lat="41.6090480" lon="2.1006020">
        <ele>252.6</ele>
        <time>2022-09-26T07:45:04Z</time>
      </trkpt>
      <trkpt lat="41.6090770" lon="2.1006110">
        <ele>252.6</ele>
        <time>2022-09-26T07:45:05Z</time>
      </trkpt>
      <trkpt lat="41.6091040" lon="2.1006180">
        <ele>252.6</ele>
        <time>2022-09-26T07:45:06Z</time>
      </trkpt>
      <trkpt lat="41.6091300" lon="2.1006250">
        <ele>252.6</ele>
        <time>2022-09-26T07:45:07Z</time>
      </trkpt>
      <trkpt lat="41.6091580" lon="2.1006310">
        <ele>252.6</ele>
        <time>2022-09-26T07:45:08Z</time>
      </trkpt>
      <trkpt lat="41.6091870" lon="2.1006350">
        <ele>252.4</ele>
        <time>2022-09-26T07:45:09Z</time>
      </trkpt>
      <trkpt lat="41.6092140" lon="2.1006400">
        <ele>252.4</ele>
        <time>2022-09-26T07:45:10Z</time>
      </trkpt>
      <trkpt lat="41.6092380" lon="2.1006460">
        <ele>252.4</ele>
        <time>2022-09-26T07:45:11Z</time>
      </trkpt>
      <trkpt lat="41.6092590" lon="2.1006510">
        <ele>252.6</ele>
        <time>2022-09-26T07:45:12Z</time>
      </trkpt>
      <trkpt lat="41.6092800" lon="2.1006560">
        <ele>252.6</ele>
        <time>2022-09-26T07:45:13Z</time>
      </trkpt>
      <trkpt lat="41.6093060" lon="2.1006590">
        <ele>252.6</ele>
        <time>2022-09-26T07:45:14Z</time>
      </trkpt>
      <trkpt lat="41.6093340" lon="2.1006620">
        <ele>252.8</ele>
        <time>2022-09-26T07:45:15Z</time>
      </trkpt>
      <trkpt lat="41.6093640" lon="2.1006620">
        <ele>253.0</ele>
        <time>2022-09-26T07:45:16Z</time>
      </trkpt>
      <trkpt lat="41.6093940" lon="2.1006630">
        <ele>253.2</ele>
        <time>2022-09-26T07:45:17Z</time>
      </trkpt>
      <trkpt lat="41.6094240" lon="2.1006660">
        <ele>253.4</ele>
        <time>2022-09-26T07:45:18Z</time>
      </trkpt>
      <trkpt lat="41.6094530" lon="2.1006680">
        <ele>253.6</ele>
        <time>2022-09-26T07:45:19Z</time>
      </trkpt>
      <trkpt lat="41.6094860" lon="2.1006690">
        <ele>253.6</ele>
        <time>2022-09-26T07:45:20Z</time>
      </trkpt>
      <trkpt lat="41.6095120" lon="2.1006720">
        <ele>253.6</ele>
        <time>2022-09-26T07:45:21Z</time>
      </trkpt>
      <trkpt lat="41.6095360" lon="2.1006750">
        <ele>253.4</ele>
        <time>2022-09-26T07:45:22Z</time>
      </trkpt>
      <trkpt lat="41.6095630" lon="2.1006810">
        <ele>253.4</ele>
        <time>2022-09-26T07:45:23Z</time>
      </trkpt>
      <trkpt lat="41.6096000" lon="2.1006920">
        <ele>253.2</ele>
        <time>2022-09-26T07:45:24Z</time>
      </trkpt>
      <trkpt lat="41.6096420" lon="2.1007110">
        <ele>253.2</ele>
        <time>2022-09-26T07:45:25Z</time>
      </trkpt>
      <trkpt lat="41.6096820" lon="2.1007360">
        <ele>253.0</ele>
        <time>2022-09-26T07:45:26Z</time>
      </trkpt>
      <trkpt lat="41.6097230" lon="2.1007670">
        <ele>252.8</ele>
        <time>2022-09-26T07:45:27Z</time>
      </trkpt>
      <trkpt lat="41.6097700" lon="2.1008010">
        <ele>252.6</ele>
        <time>2022-09-26T07:45:28Z</time>
      </trkpt>
      <trkpt lat="41.6098190" lon="2.1008350">
        <ele>252.4</ele>
        <time>2022-09-26T07:45:29Z</time>
      </trkpt>
      <trkpt lat="41.6098690" lon="2.1008700">
        <ele>252.4</ele>
        <time>2022-09-26T07:45:30Z</time>
      </trkpt>
      <trkpt lat="41.6099160" lon="2.1009000">
        <ele>252.0</ele>
        <time>2022-09-26T07:45:31Z</time>
      </trkpt>
      <trkpt lat="41.6099640" lon="2.1009220">
        <ele>252.0</ele>
        <time>2022-09-26T07:45:32Z</time>
      </trkpt>
      <trkpt lat="41.6100110" lon="2.1009390">
        <ele>251.8</ele>
        <time>2022-09-26T07:45:33Z</time>
      </trkpt>
      <trkpt lat="41.6100530" lon="2.1009500">
        <ele>251.8</ele>
        <time>2022-09-26T07:45:34Z</time>
      </trkpt>
      <trkpt lat="41.6100930" lon="2.1009520">
        <ele>251.8</ele>
        <time>2022-09-26T07:45:35Z</time>
      </trkpt>
      <trkpt lat="41.6101360" lon="2.1009490">
        <ele>251.8</ele>
        <time>2022-09-26T07:45:36Z</time>
      </trkpt>
      <trkpt lat="41.6101740" lon="2.1009360">
        <ele>252.0</ele>
        <time>2022-09-26T07:45:37Z</time>
      </trkpt>
      <trkpt lat="41.6102150" lon="2.1009230">
        <ele>252.0</ele>
        <time>2022-09-26T07:45:38Z</time>
      </trkpt>
      <trkpt lat="41.6102540" lon="2.1009120">
        <ele>252.0</ele>
        <time>2022-09-26T07:45:39Z</time>
      </trkpt>
      <trkpt lat="41.6102930" lon="2.1008990">
        <ele>252.2</ele>
        <time>2022-09-26T07:45:40Z</time>
      </trkpt>
      <trkpt lat="41.6103320" lon="2.1008860">
        <ele>252.4</ele>
        <time>2022-09-26T07:45:41Z</time>
      </trkpt>
      <trkpt lat="41.6103700" lon="2.1008750">
        <ele>252.6</ele>
        <time>2022-09-26T07:45:42Z</time>
      </trkpt>
      <trkpt lat="41.6104050" lon="2.1008660">
        <ele>252.8</ele>
        <time>2022-09-26T07:45:43Z</time>
      </trkpt>
      <trkpt lat="41.6104420" lon="2.1008600">
        <ele>253.0</ele>
        <time>2022-09-26T07:45:44Z</time>
      </trkpt>
      <trkpt lat="41.6104760" lon="2.1008550">
        <ele>253.2</ele>
        <time>2022-09-26T07:45:45Z</time>
      </trkpt>
      <trkpt lat="41.6105110" lon="2.1008520">
        <ele>253.4</ele>
        <time>2022-09-26T07:45:46Z</time>
      </trkpt>
      <trkpt lat="41.6105460" lon="2.1008420">
        <ele>253.6</ele>
        <time>2022-09-26T07:45:47Z</time>
      </trkpt>
      <trkpt lat="41.6105850" lon="2.1008290">
        <ele>254.0</ele>
        <time>2022-09-26T07:45:48Z</time>
      </trkpt>
      <trkpt lat="41.6106240" lon="2.1008140">
        <ele>254.2</ele>
        <time>2022-09-26T07:45:49Z</time>
      </trkpt>
      <trkpt lat="41.6106650" lon="2.1007980">
        <ele>254.4</ele>
        <time>2022-09-26T07:45:50Z</time>
      </trkpt>
      <trkpt lat="41.6107100" lon="2.1007800">
        <ele>254.6</ele>
        <time>2022-09-26T07:45:51Z</time>
      </trkpt>
      <trkpt lat="41.6107560" lon="2.1007650">
        <ele>255.0</ele>
        <time>2022-09-26T07:45:52Z</time>
      </trkpt>
      <trkpt lat="41.6108020" lon="2.1007510">
        <ele>255.4</ele>
        <time>2022-09-26T07:45:53Z</time>
      </trkpt>
      <trkpt lat="41.6108420" lon="2.1007380">
        <ele>256.0</ele>
        <time>2022-09-26T07:45:54Z</time>
      </trkpt>
      <trkpt lat="41.6108730" lon="2.1007270">
        <ele>256.4</ele>
        <time>2022-09-26T07:45:55Z</time>
      </trkpt>
      <trkpt lat="41.6109000" lon="2.1007210">
        <ele>257.0</ele>
        <time>2022-09-26T07:45:56Z</time>
      </trkpt>
      <trkpt lat="41.6109270" lon="2.1007120">
        <ele>257.8</ele>
        <time>2022-09-26T07:45:57Z</time>
      </trkpt>
      <trkpt lat="41.6109570" lon="2.1007080">
        <ele>258.2</ele>
        <time>2022-09-26T07:45:58Z</time>
      </trkpt>
      <trkpt lat="41.6109870" lon="2.1007020">
        <ele>258.4</ele>
        <time>2022-09-26T07:45:59Z</time>
      </trkpt>
      <trkpt lat="41.6110200" lon="2.1006940">
        <ele>258.6</ele>
        <time>2022-09-26T07:46:00Z</time>
      </trkpt>
      <trkpt lat="41.6110520" lon="2.1006880">
        <ele>258.8</ele>
        <time>2022-09-26T07:46:01Z</time>
      </trkpt>
      <trkpt lat="41.6110850" lon="2.1006810">
        <ele>258.8</ele>
        <time>2022-09-26T07:46:02Z</time>
      </trkpt>
      <trkpt lat="41.6111180" lon="2.1006760">
        <ele>258.8</ele>
        <time>2022-09-26T07:46:03Z</time>
      </trkpt>
      <trkpt lat="41.6111510" lon="2.1006710">
        <ele>258.8</ele>
        <time>2022-09-26T07:46:04Z</time>
      </trkpt>
      <trkpt lat="41.6111830" lon="2.1006650">
        <ele>259.0</ele>
        <time>2022-09-26T07:46:05Z</time>
      </trkpt>
      <trkpt lat="41.6112120" lon="2.1006540">
        <ele>259.0</ele>
        <time>2022-09-26T07:46:06Z</time>
      </trkpt>
      <trkpt lat="41.6112430" lon="2.1006440">
        <ele>259.2</ele>
        <time>2022-09-26T07:46:07Z</time>
      </trkpt>
      <trkpt lat="41.6112750" lon="2.1006360">
        <ele>259.0</ele>
        <time>2022-09-26T07:46:08Z</time>
      </trkpt>
      <trkpt lat="41.6113070" lon="2.1006280">
        <ele>259.0</ele>
        <time>2022-09-26T07:46:09Z</time>
      </trkpt>
      <trkpt lat="41.6113420" lon="2.1006200">
        <ele>259.2</ele>
        <time>2022-09-26T07:46:10Z</time>
      </trkpt>
      <trkpt lat="41.6113760" lon="2.1006090">
        <ele>259.4</ele>
        <time>2022-09-26T07:46:11Z</time>
      </trkpt>
      <trkpt lat="41.6114090" lon="2.1005990">
        <ele>259.4</ele>
        <time>2022-09-26T07:46:12Z</time>
      </trkpt>
      <trkpt lat="41.6114410" lon="2.1005880">
        <ele>259.6</ele>
        <time>2022-09-26T07:46:13Z</time>
      </trkpt>
      <trkpt lat="41.6114740" lon="2.1005790">
        <ele>259.8</ele>
        <time>2022-09-26T07:46:14Z</time>
      </trkpt>
      <trkpt lat="41.6115060" lon="2.1005690">
        <ele>260.0</ele>
        <time>2022-09-26T07:46:15Z</time>
      </trkpt>
      <trkpt lat="41.6115380" lon="2.1005590">
        <ele>260.4</ele>
        <time>2022-09-26T07:46:16Z</time>
      </trkpt>
      <trkpt lat="41.6115710" lon="2.1005470">
        <ele>260.4</ele>
        <time>2022-09-26T07:46:17Z</time>
      </trkpt>
      <trkpt lat="41.6116010" lon="2.1005340">
        <ele>260.8</ele>
        <time>2022-09-26T07:46:18Z</time>
      </trkpt>
      <trkpt lat="41.6116310" lon="2.1005220">
        <ele>260.8</ele>
        <time>2022-09-26T07:46:19Z</time>
      </trkpt>
      <trkpt lat="41.6116590" lon="2.1005110">
        <ele>260.8</ele>
        <time>2022-09-26T07:46:20Z</time>
      </trkpt>
      <trkpt lat="41.6116860" lon="2.1004980">
        <ele>260.8</ele>
        <time>2022-09-26T07:46:21Z</time>
      </trkpt>
      <trkpt lat="41.6117170" lon="2.1004850">
        <ele>261.0</ele>
        <time>2022-09-26T07:46:22Z</time>
      </trkpt>
      <trkpt lat="41.6117470" lon="2.1004730">
        <ele>261.2</ele>
        <time>2022-09-26T07:46:23Z</time>
      </trkpt>
      <trkpt lat="41.6117770" lon="2.1004610">
        <ele>261.2</ele>
        <time>2022-09-26T07:46:24Z</time>
      </trkpt>
      <trkpt lat="41.6118050" lon="2.1004510">
        <ele>261.4</ele>
        <time>2022-09-26T07:46:25Z</time>
      </trkpt>
      <trkpt lat="41.6118340" lon="2.1004410">
        <ele>261.6</ele>
        <time>2022-09-26T07:46:26Z</time>
      </trkpt>
      <trkpt lat="41.6118630" lon="2.1004310">
        <ele>261.6</ele>
        <time>2022-09-26T07:46:27Z</time>
      </trkpt>
      <trkpt lat="41.6118900" lon="2.1004180">
        <ele>261.6</ele>
        <time>2022-09-26T07:46:28Z</time>
      </trkpt>
      <trkpt lat="41.6119180" lon="2.1004100">
        <ele>261.8</ele>
        <time>2022-09-26T07:46:29Z</time>
      </trkpt>
      <trkpt lat="41.6119480" lon="2.1004040">
        <ele>262.0</ele>
        <time>2022-09-26T07:46:30Z</time>
      </trkpt>
      <trkpt lat="41.6119780" lon="2.1003990">
        <ele>262.0</ele>
        <time>2022-09-26T07:46:31Z</time>
      </trkpt>
      <trkpt lat="41.6120120" lon="2.1003930">
        <ele>262.0</ele>
        <time>2022-09-26T07:46:32Z</time>
      </trkpt>
      <trkpt lat="41.6120450" lon="2.1003870">
        <ele>262.0</ele>
        <time>2022-09-26T07:46:33Z</time>
      </trkpt>
      <trkpt lat="41.6120800" lon="2.1003810">
        <ele>261.8</ele>
        <time>2022-09-26T07:46:34Z</time>
      </trkpt>
      <trkpt lat="41.6121160" lon="2.1003740">
        <ele>261.6</ele>
        <time>2022-09-26T07:46:35Z</time>
      </trkpt>
      <trkpt lat="41.6121540" lon="2.1003670">
        <ele>261.4</ele>
        <time>2022-09-26T07:46:36Z</time>
      </trkpt>
      <trkpt lat="41.6121940" lon="2.1003610">
        <ele>261.4</ele>
        <time>2022-09-26T07:46:37Z</time>
      </trkpt>
      <trkpt lat="41.6122350" lon="2.1003520">
        <ele>261.2</ele>
        <time>2022-09-26T07:46:38Z</time>
      </trkpt>
      <trkpt lat="41.6122780" lon="2.1003450">
        <ele>261.2</ele>
        <time>2022-09-26T07:46:39Z</time>
      </trkpt>
      <trkpt lat="41.6123200" lon="2.1003390">
        <ele>261.2</ele>
        <time>2022-09-26T07:46:40Z</time>
      </trkpt>
      <trkpt lat="41.6123670" lon="2.1003320">
        <ele>261.0</ele>
        <time>2022-09-26T07:46:41Z</time>
      </trkpt>
      <trkpt lat="41.6124180" lon="2.1003230">
        <ele>260.6</ele>
        <time>2022-09-26T07:46:42Z</time>
      </trkpt>
      <trkpt lat="41.6124730" lon="2.1003130">
        <ele>260.0</ele>
        <time>2022-09-26T07:46:43Z</time>
      </trkpt>
      <trkpt lat="41.6125300" lon="2.1003010">
        <ele>259.6</ele>
        <time>2022-09-26T07:46:44Z</time>
      </trkpt>
      <trkpt lat="41.6125880" lon="2.1002860">
        <ele>259.0</ele>
        <time>2022-09-26T07:46:45Z</time>
      </trkpt>
      <trkpt lat="41.6126460" lon="2.1002710">
        <ele>258.8</ele>
        <time>2022-09-26T07:46:46Z</time>
      </trkpt>
      <trkpt lat="41.6127050" lon="2.1002570">
        <ele>258.6</ele>
        <time>2022-09-26T07:46:47Z</time>
      </trkpt>
      <trkpt lat="41.6127660" lon="2.1002450">
        <ele>258.6</ele>
        <time>2022-09-26T07:46:48Z</time>
      </trkpt>
      <trkpt lat="41.6128270" lon="2.1002320">
        <ele>258.4</ele>
        <time>2022-09-26T07:46:49Z</time>
      </trkpt>
      <trkpt lat="41.6128880" lon="2.1002190">
        <ele>258.2</ele>
        <time>2022-09-26T07:46:50Z</time>
      </trkpt>
      <trkpt lat="41.6129450" lon="2.1002060">
        <ele>258.0</ele>
        <time>2022-09-26T07:46:51Z</time>
      </trkpt>
      <trkpt lat="41.6130000" lon="2.1001970">
        <ele>258.0</ele>
        <time>2022-09-26T07:46:52Z</time>
      </trkpt>
      <trkpt lat="41.6130520" lon="2.1001900">
        <ele>258.0</ele>
        <time>2022-09-26T07:46:53Z</time>
      </trkpt>
      <trkpt lat="41.6131010" lon="2.1001820">
        <ele>258.0</ele>
        <time>2022-09-26T07:46:54Z</time>
      </trkpt>
      <trkpt lat="41.6131500" lon="2.1001740">
        <ele>258.0</ele>
        <time>2022-09-26T07:46:55Z</time>
      </trkpt>
      <trkpt lat="41.6131980" lon="2.1001680">
        <ele>258.0</ele>
        <time>2022-09-26T07:46:56Z</time>
      </trkpt>
      <trkpt lat="41.6132450" lon="2.1001620">
        <ele>258.0</ele>
        <time>2022-09-26T07:46:57Z</time>
      </trkpt>
      <trkpt lat="41.6132910" lon="2.1001540">
        <ele>258.0</ele>
        <time>2022-09-26T07:46:58Z</time>
      </trkpt>
      <trkpt lat="41.6133350" lon="2.1001490">
        <ele>257.8</ele>
        <time>2022-09-26T07:46:59Z</time>
      </trkpt>
      <trkpt lat="41.6133780" lon="2.1001450">
        <ele>257.8</ele>
        <time>2022-09-26T07:47:00Z</time>
      </trkpt>
      <trkpt lat="41.6134170" lon="2.1001430">
        <ele>257.8</ele>
        <time>2022-09-26T07:47:01Z</time>
      </trkpt>
      <trkpt lat="41.6134560" lon="2.1001420">
        <ele>258.0</ele>
        <time>2022-09-26T07:47:02Z</time>
      </trkpt>
      <trkpt lat="41.6134970" lon="2.1001440">
        <ele>258.0</ele>
        <time>2022-09-26T07:47:03Z</time>
      </trkpt>
      <trkpt lat="41.6135390" lon="2.1001470">
        <ele>258.4</ele>
        <time>2022-09-26T07:47:04Z</time>
      </trkpt>
      <trkpt lat="41.6135780" lon="2.1001510">
        <ele>258.6</ele>
        <time>2022-09-26T07:47:05Z</time>
      </trkpt>
      <trkpt lat="41.6136180" lon="2.1001580">
        <ele>258.6</ele>
        <time>2022-09-26T07:47:06Z</time>
      </trkpt>
      <trkpt lat="41.6136570" lon="2.1001670">
        <ele>258.8</ele>
        <time>2022-09-26T07:47:07Z</time>
      </trkpt>
      <trkpt lat="41.6136950" lon="2.1001780">
        <ele>258.8</ele>
        <time>2022-09-26T07:47:08Z</time>
      </trkpt>
      <trkpt lat="41.6137320" lon="2.1001900">
        <ele>259.0</ele>
        <time>2022-09-26T07:47:09Z</time>
      </trkpt>
      <trkpt lat="41.6137660" lon="2.1002010">
        <ele>259.2</ele>
        <time>2022-09-26T07:47:10Z</time>
      </trkpt>
      <trkpt lat="41.6138000" lon="2.1002140">
        <ele>259.4</ele>
        <time>2022-09-26T07:47:11Z</time>
      </trkpt>
      <trkpt lat="41.6138360" lon="2.1002270">
        <ele>259.6</ele>
        <time>2022-09-26T07:47:12Z</time>
      </trkpt>
      <trkpt lat="41.6138730" lon="2.1002400">
        <ele>259.6</ele>
        <time>2022-09-26T07:47:13Z</time>
      </trkpt>
      <trkpt lat="41.6139060" lon="2.1002500">
        <ele>259.8</ele>
        <time>2022-09-26T07:47:14Z</time>
      </trkpt>
      <trkpt lat="41.6139390" lon="2.1002570">
        <ele>260.0</ele>
        <time>2022-09-26T07:47:15Z</time>
      </trkpt>
      <trkpt lat="41.6139710" lon="2.1002660">
        <ele>260.2</ele>
        <time>2022-09-26T07:47:16Z</time>
      </trkpt>
      <trkpt lat="41.6140060" lon="2.1002760">
        <ele>260.6</ele>
        <time>2022-09-26T07:47:17Z</time>
      </trkpt>
      <trkpt lat="41.6140400" lon="2.1002870">
        <ele>260.8</ele>
        <time>2022-09-26T07:47:18Z</time>
      </trkpt>
      <trkpt lat="41.6140690" lon="2.1002970">
        <ele>261.0</ele>
        <time>2022-09-26T07:47:19Z</time>
      </trkpt>
      <trkpt lat="41.6140940" lon="2.1003050">
        <ele>261.4</ele>
        <time>2022-09-26T07:47:20Z</time>
      </trkpt>
      <trkpt lat="41.6141190" lon="2.1003130">
        <ele>261.4</ele>
        <time>2022-09-26T07:47:21Z</time>
      </trkpt>
      <trkpt lat="41.6141440" lon="2.1003230">
        <ele>261.6</ele>
        <time>2022-09-26T07:47:22Z</time>
      </trkpt>
      <trkpt lat="41.6141710" lon="2.1003330">
        <ele>261.6</ele>
        <time>2022-09-26T07:47:23Z</time>
      </trkpt>
      <trkpt lat="41.6141990" lon="2.1003450">
        <ele>262.0</ele>
        <time>2022-09-26T07:47:24Z</time>
      </trkpt>
      <trkpt lat="41.6142260" lon="2.1003580">
        <ele>262.2</ele>
        <time>2022-09-26T07:47:25Z</time>
      </trkpt>
      <trkpt lat="41.6142550" lon="2.1003720">
        <ele>262.6</ele>
        <time>2022-09-26T07:47:26Z</time>
      </trkpt>
      <trkpt lat="41.6142840" lon="2.1003830">
        <ele>263.0</ele>
        <time>2022-09-26T07:47:27Z</time>
      </trkpt>
      <trkpt lat="41.6143120" lon="2.1003920">
        <ele>263.4</ele>
        <time>2022-09-26T07:47:28Z</time>
      </trkpt>
      <trkpt lat="41.6143380" lon="2.1004030">
        <ele>263.8</ele>
        <time>2022-09-26T07:47:29Z</time>
      </trkpt>
      <trkpt lat="41.6143640" lon="2.1004120">
        <ele>264.0</ele>
        <time>2022-09-26T07:47:30Z</time>
      </trkpt>
      <trkpt lat="41.6143860" lon="2.1004200">
        <ele>264.4</ele>
        <time>2022-09-26T07:47:31Z</time>
      </trkpt>
      <trkpt lat="41.6144090" lon="2.1004280">
        <ele>264.6</ele>
        <time>2022-09-26T07:47:32Z</time>
      </trkpt>
      <trkpt lat="41.6144330" lon="2.1004370">
        <ele>265.4</ele>
        <time>2022-09-26T07:47:33Z</time>
      </trkpt>
      <trkpt lat="41.6144570" lon="2.1004450">
        <ele>265.8</ele>
        <time>2022-09-26T07:47:34Z</time>
      </trkpt>
      <trkpt lat="41.6144800" lon="2.1004530">
        <ele>266.0</ele>
        <time>2022-09-26T07:47:35Z</time>
      </trkpt>
      <trkpt lat="41.6145040" lon="2.1004590">
        <ele>266.4</ele>
        <time>2022-09-26T07:47:36Z</time>
      </trkpt>
      <trkpt lat="41.6145280" lon="2.1004640">
        <ele>266.8</ele>
        <time>2022-09-26T07:47:37Z</time>
      </trkpt>
      <trkpt lat="41.6145510" lon="2.1004680">
        <ele>266.8</ele>
        <time>2022-09-26T07:47:38Z</time>
      </trkpt>
      <trkpt lat="41.6145720" lon="2.1004710">
        <ele>267.0</ele>
        <time>2022-09-26T07:47:39Z</time>
      </trkpt>
      <trkpt lat="41.6145930" lon="2.1004770">
        <ele>267.2</ele>
        <time>2022-09-26T07:47:40Z</time>
      </trkpt>
      <trkpt lat="41.6146150" lon="2.1004830">
        <ele>267.4</ele>
        <time>2022-09-26T07:47:41Z</time>
      </trkpt>
      <trkpt lat="41.6146370" lon="2.1004890">
        <ele>267.8</ele>
        <time>2022-09-26T07:47:42Z</time>
      </trkpt>
      <trkpt lat="41.6146600" lon="2.1004960">
        <ele>268.2</ele>
        <time>2022-09-26T07:47:43Z</time>
      </trkpt>
      <trkpt lat="41.6146800" lon="2.1005020">
        <ele>268.6</ele>
        <time>2022-09-26T07:47:44Z</time>
      </trkpt>
      <trkpt lat="41.6147030" lon="2.1005070">
        <ele>268.8</ele>
        <time>2022-09-26T07:47:45Z</time>
      </trkpt>
      <trkpt lat="41.6147230" lon="2.1005090">
        <ele>269.0</ele>
        <time>2022-09-26T07:47:46Z</time>
      </trkpt>
      <trkpt lat="41.6147410" lon="2.1005100">
        <ele>269.2</ele>
        <time>2022-09-26T07:47:47Z</time>
      </trkpt>
      <trkpt lat="41.6147580" lon="2.1005110">
        <ele>269.4</ele>
        <time>2022-09-26T07:47:48Z</time>
      </trkpt>
      <trkpt lat="41.6147750" lon="2.1005120">
        <ele>269.6</ele>
        <time>2022-09-26T07:47:49Z</time>
      </trkpt>
      <trkpt lat="41.6147920" lon="2.1005170">
        <ele>269.8</ele>
        <time>2022-09-26T07:47:50Z</time>
      </trkpt>
      <trkpt lat="41.6148110" lon="2.1005220">
        <ele>270.0</ele>
        <time>2022-09-26T07:47:51Z</time>
      </trkpt>
      <trkpt lat="41.6148300" lon="2.1005240">
        <ele>270.2</ele>
        <time>2022-09-26T07:47:52Z</time>
      </trkpt>
      <trkpt lat="41.6148480" lon="2.1005300">
        <ele>270.4</ele>
        <time>2022-09-26T07:47:53Z</time>
      </trkpt>
      <trkpt lat="41.6148690" lon="2.1005370">
        <ele>270.4</ele>
        <time>2022-09-26T07:47:54Z</time>
      </trkpt>
      <trkpt lat="41.6148900" lon="2.1005400">
        <ele>270.4</ele>
        <time>2022-09-26T07:47:55Z</time>
      </trkpt>
      <trkpt lat="41.6149100" lon="2.1005450">
        <ele>270.6</ele>
        <time>2022-09-26T07:47:56Z</time>
      </trkpt>
      <trkpt lat="41.6149300" lon="2.1005500">
        <ele>270.8</ele>
        <time>2022-09-26T07:47:57Z</time>
      </trkpt>
      <trkpt lat="41.6149480" lon="2.1005540">
        <ele>271.2</ele>
        <time>2022-09-26T07:47:58Z</time>
      </trkpt>
      <trkpt lat="41.6149680" lon="2.1005590">
        <ele>271.4</ele>
        <time>2022-09-26T07:47:59Z</time>
      </trkpt>
      <trkpt lat="41.6149890" lon="2.1005620">
        <ele>271.6</ele>
        <time>2022-09-26T07:48:00Z</time>
      </trkpt>
      <trkpt lat="41.6150080" lon="2.1005670">
        <ele>272.0</ele>
        <time>2022-09-26T07:48:01Z</time>
      </trkpt>
      <trkpt lat="41.6150250" lon="2.1005720">
        <ele>272.4</ele>
        <time>2022-09-26T07:48:02Z</time>
      </trkpt>
      <trkpt lat="41.6150430" lon="2.1005770">
        <ele>272.6</ele>
        <time>2022-09-26T07:48:03Z</time>
      </trkpt>
      <trkpt lat="41.6150600" lon="2.1005810">
        <ele>272.8</ele>
        <time>2022-09-26T07:48:04Z</time>
      </trkpt>
      <trkpt lat="41.6150750" lon="2.1005850">
        <ele>273.4</ele>
        <time>2022-09-26T07:48:05Z</time>
      </trkpt>
      <trkpt lat="41.6150930" lon="2.1005910">
        <ele>273.6</ele>
        <time>2022-09-26T07:48:06Z</time>
      </trkpt>
      <trkpt lat="41.6151140" lon="2.1005950">
        <ele>273.6</ele>
        <time>2022-09-26T07:48:07Z</time>
      </trkpt>
      <trkpt lat="41.6151340" lon="2.1006000">
        <ele>273.8</ele>
        <time>2022-09-26T07:48:08Z</time>
      </trkpt>
      <trkpt lat="41.6151530" lon="2.1006060">
        <ele>273.8</ele>
        <time>2022-09-26T07:48:09Z</time>
      </trkpt>
      <trkpt lat="41.6151700" lon="2.1006100">
        <ele>274.0</ele>
        <time>2022-09-26T07:48:10Z</time>
      </trkpt>
      <trkpt lat="41.6151830" lon="2.1006110">
        <ele>274.2</ele>
        <time>2022-09-26T07:48:11Z</time>
      </trkpt>
      <trkpt lat="41.6151930" lon="2.1006130">
        <ele>274.2</ele>
        <time>2022-09-26T07:48:12Z</time>
      </trkpt>
      <trkpt lat="41.6152080" lon="2.1006140">
        <ele>274.4</ele>
        <time>2022-09-26T07:48:13Z</time>
      </trkpt>
      <trkpt lat="41.6152270" lon="2.1006190">
        <ele>274.6</ele>
        <time>2022-09-26T07:48:14Z</time>
      </trkpt>
      <trkpt lat="41.6152440" lon="2.1006220">
        <ele>274.8</ele>
        <time>2022-09-26T07:48:15Z</time>
      </trkpt>
      <trkpt lat="41.6152570" lon="2.1006250">
        <ele>275.0</ele>
        <time>2022-09-26T07:48:16Z</time>
      </trkpt>
      <trkpt lat="41.6152780" lon="2.1006290">
        <ele>275.6</ele>
        <time>2022-09-26T07:48:17Z</time>
      </trkpt>
      <trkpt lat="41.6152970" lon="2.1006340">
        <ele>276.0</ele>
        <time>2022-09-26T07:48:18Z</time>
      </trkpt>
      <trkpt lat="41.6153170" lon="2.1006400">
        <ele>276.0</ele>
        <time>2022-09-26T07:48:19Z</time>
      </trkpt>
      <trkpt lat="41.6153350" lon="2.1006480">
        <ele>276.2</ele>
        <time>2022-09-26T07:48:20Z</time>
      </trkpt>
      <trkpt lat="41.6153530" lon="2.1006550">
        <ele>276.4</ele>
        <time>2022-09-26T07:48:21Z</time>
      </trkpt>
      <trkpt lat="41.6153710" lon="2.1006620">
        <ele>276.6</ele>
        <time>2022-09-26T07:48:22Z</time>
      </trkpt>
      <trkpt lat="41.6153860" lon="2.1006700">
        <ele>276.6</ele>
        <time>2022-09-26T07:48:23Z</time>
      </trkpt>
      <trkpt lat="41.6154070" lon="2.1006810">
        <ele>276.8</ele>
        <time>2022-09-26T07:48:24Z</time>
      </trkpt>
      <trkpt lat="41.6154270" lon="2.1006900">
        <ele>277.0</ele>
        <time>2022-09-26T07:48:25Z</time>
      </trkpt>
      <trkpt lat="41.6154480" lon="2.1006990">
        <ele>277.2</ele>
        <time>2022-09-26T07:48:26Z</time>
      </trkpt>
      <trkpt lat="41.6154720" lon="2.1007070">
        <ele>277.4</ele>
        <time>2022-09-26T07:48:27Z</time>
      </trkpt>
      <trkpt lat="41.6154950" lon="2.1007150">
        <ele>277.8</ele>
        <time>2022-09-26T07:48:28Z</time>
      </trkpt>
      <trkpt lat="41.6155160" lon="2.1007230">
        <ele>278.0</ele>
        <time>2022-09-26T07:48:29Z</time>
      </trkpt>
      <trkpt lat="41.6155350" lon="2.1007290">
        <ele>278.4</ele>
        <time>2022-09-26T07:48:30Z</time>
      </trkpt>
      <trkpt lat="41.6155550" lon="2.1007360">
        <ele>278.6</ele>
        <time>2022-09-26T07:48:31Z</time>
      </trkpt>
      <trkpt lat="41.6155700" lon="2.1007430">
        <ele>279.0</ele>
        <time>2022-09-26T07:48:32Z</time>
      </trkpt>
      <trkpt lat="41.6155800" lon="2.1007490">
        <ele>279.2</ele>
        <time>2022-09-26T07:48:33Z</time>
      </trkpt>
      <trkpt lat="41.6155990" lon="2.1007520">
        <ele>279.2</ele>
        <time>2022-09-26T07:48:34Z</time>
      </trkpt>
      <trkpt lat="41.6156210" lon="2.1007590">
        <ele>279.4</ele>
        <time>2022-09-26T07:48:35Z</time>
      </trkpt>
      <trkpt lat="41.6156400" lon="2.1007630">
        <ele>279.6</ele>
        <time>2022-09-26T07:48:36Z</time>
      </trkpt>
      <trkpt lat="41.6156600" lon="2.1007670">
        <ele>279.8</ele>
        <time>2022-09-26T07:48:37Z</time>
      </trkpt>
      <trkpt lat="41.6156820" lon="2.1007670">
        <ele>280.0</ele>
        <time>2022-09-26T07:48:38Z</time>
      </trkpt>
      <trkpt lat="41.6157000" lon="2.1007660">
        <ele>280.4</ele>
        <time>2022-09-26T07:48:39Z</time>
      </trkpt>
      <trkpt lat="41.6157200" lon="2.1007690">
        <ele>280.8</ele>
        <time>2022-09-26T07:48:40Z</time>
      </trkpt>
      <trkpt lat="41.6157420" lon="2.1007710">
        <ele>281.0</ele>
        <time>2022-09-26T07:48:41Z</time>
      </trkpt>
      <trkpt lat="41.6157630" lon="2.1007700">
        <ele>281.4</ele>
        <time>2022-09-26T07:48:42Z</time>
      </trkpt>
      <trkpt lat="41.6157790" lon="2.1007670">
        <ele>281.6</ele>
        <time>2022-09-26T07:48:43Z</time>
      </trkpt>
      <trkpt lat="41.6157990" lon="2.1007660">
        <ele>281.6</ele>
        <time>2022-09-26T07:48:44Z</time>
      </trkpt>
      <trkpt lat="41.6158180" lon="2.1007640">
        <ele>281.8</ele>
        <time>2022-09-26T07:48:45Z</time>
      </trkpt>
      <trkpt lat="41.6158370" lon="2.1007620">
        <ele>282.0</ele>
        <time>2022-09-26T07:48:46Z</time>
      </trkpt>
      <trkpt lat="41.6158550" lon="2.1007610">
        <ele>282.2</ele>
        <time>2022-09-26T07:48:47Z</time>
      </trkpt>
      <trkpt lat="41.6158780" lon="2.1007620">
        <ele>282.2</ele>
        <time>2022-09-26T07:48:48Z</time>
      </trkpt>
      <trkpt lat="41.6158980" lon="2.1007630">
        <ele>282.4</ele>
        <time>2022-09-26T07:48:49Z</time>
      </trkpt>
      <trkpt lat="41.6159200" lon="2.1007630">
        <ele>282.6</ele>
        <time>2022-09-26T07:48:50Z</time>
      </trkpt>
      <trkpt lat="41.6159420" lon="2.1007630">
        <ele>282.8</ele>
        <time>2022-09-26T07:48:51Z</time>
      </trkpt>
      <trkpt lat="41.6159610" lon="2.1007640">
        <ele>282.8</ele>
        <time>2022-09-26T07:48:52Z</time>
      </trkpt>
      <trkpt lat="41.6159810" lon="2.1007630">
        <ele>283.0</ele>
        <time>2022-09-26T07:48:53Z</time>
      </trkpt>
      <trkpt lat="41.6159980" lon="2.1007600">
        <ele>283.2</ele>
        <time>2022-09-26T07:48:54Z</time>
      </trkpt>
      <trkpt lat="41.6160190" lon="2.1007570">
        <ele>283.4</ele>
        <time>2022-09-26T07:48:55Z</time>
      </trkpt>
      <trkpt lat="41.6160360" lon="2.1007560">
        <ele>283.4</ele>
        <time>2022-09-26T07:48:56Z</time>
      </trkpt>
      <trkpt lat="41.6160530" lon="2.1007570">
        <ele>283.6</ele>
        <time>2022-09-26T07:48:57Z</time>
      </trkpt>
      <trkpt lat="41.6160700" lon="2.1007620">
        <ele>283.6</ele>
        <time>2022-09-26T07:48:58Z</time>
      </trkpt>
      <trkpt lat="41.6160900" lon="2.1007680">
        <ele>283.8</ele>
        <time>2022-09-26T07:48:59Z</time>
      </trkpt>
      <trkpt lat="41.6161110" lon="2.1007770">
        <ele>284.0</ele>
        <time>2022-09-26T07:49:00Z</time>
      </trkpt>
      <trkpt lat="41.6161310" lon="2.1007860">
        <ele>284.0</ele>
        <time>2022-09-26T07:49:01Z</time>
      </trkpt>
      <trkpt lat="41.6161500" lon="2.1007950">
        <ele>284.2</ele>
        <time>2022-09-26T07:49:02Z</time>
      </trkpt>
      <trkpt lat="41.6161710" lon="2.1008030">
        <ele>284.2</ele>
        <time>2022-09-26T07:49:03Z</time>
      </trkpt>
      <trkpt lat="41.6161970" lon="2.1008120">
        <ele>284.4</ele>
        <time>2022-09-26T07:49:04Z</time>
      </trkpt>
      <trkpt lat="41.6162250" lon="2.1008170">
        <ele>284.2</ele>
        <time>2022-09-26T07:49:05Z</time>
      </trkpt>
      <trkpt lat="41.6162560" lon="2.1008220">
        <ele>284.2</ele>
        <time>2022-09-26T07:49:06Z</time>
      </trkpt>
      <trkpt lat="41.6162850" lon="2.1008300">
        <ele>284.2</ele>
        <time>2022-09-26T07:49:07Z</time>
      </trkpt>
      <trkpt lat="41.6163190" lon="2.1008420">
        <ele>284.2</ele>
        <time>2022-09-26T07:49:08Z</time>
      </trkpt>
      <trkpt lat="41.6163490" lon="2.1008580">
        <ele>284.2</ele>
        <time>2022-09-26T07:49:09Z</time>
      </trkpt>
      <trkpt lat="41.6163790" lon="2.1008810">
        <ele>284.2</ele>
        <time>2022-09-26T07:49:10Z</time>
      </trkpt>
      <trkpt lat="41.6164120" lon="2.1009080">
        <ele>284.0</ele>
        <time>2022-09-26T07:49:11Z</time>
      </trkpt>
      <trkpt lat="41.6164460" lon="2.1009390">
        <ele>283.6</ele>
        <time>2022-09-26T07:49:12Z</time>
      </trkpt>
      <trkpt lat="41.6164850" lon="2.1009720">
        <ele>283.4</ele>
        <time>2022-09-26T07:49:13Z</time>
      </trkpt>
      <trkpt lat="41.6165280" lon="2.1010030">
        <ele>283.2</ele>
        <time>2022-09-26T07:49:14Z</time>
      </trkpt>
      <trkpt lat="41.6165710" lon="2.1010320">
        <ele>283.2</ele>
        <time>2022-09-26T07:49:15Z</time>
      </trkpt>
      <trkpt lat="41.6166170" lon="2.1010610">
        <ele>283.2</ele>
        <time>2022-09-26T07:49:16Z</time>
      </trkpt>
      <trkpt lat="41.6166650" lon="2.1010870">
        <ele>283.0</ele>
        <time>2022-09-26T07:49:17Z</time>
      </trkpt>
      <trkpt lat="41.6167150" lon="2.1011130">
        <ele>283.0</ele>
        <time>2022-09-26T07:49:18Z</time>
      </trkpt>
      <trkpt lat="41.6167660" lon="2.1011430">
        <ele>282.8</ele>
        <time>2022-09-26T07:49:19Z</time>
      </trkpt>
      <trkpt lat="41.6168190" lon="2.1011840">
        <ele>282.8</ele>
        <time>2022-09-26T07:49:20Z</time>
      </trkpt>
      <trkpt lat="41.6168660" lon="2.1012410">
        <ele>282.6</ele>
        <time>2022-09-26T07:49:21Z</time>
      </trkpt>
      <trkpt lat="41.6169030" lon="2.1013120">
        <ele>282.4</ele>
        <time>2022-09-26T07:49:22Z</time>
      </trkpt>
      <trkpt lat="41.6169310" lon="2.1013910">
        <ele>282.2</ele>
        <time>2022-09-26T07:49:23Z</time>
      </trkpt>
      <trkpt lat="41.6169550" lon="2.1014710">
        <ele>281.2</ele>
        <time>2022-09-26T07:49:24Z</time>
      </trkpt>
      <trkpt lat="41.6169890" lon="2.1015420">
        <ele>280.2</ele>
        <time>2022-09-26T07:49:25Z</time>
      </trkpt>
      <trkpt lat="41.6170360" lon="2.1015910">
        <ele>279.0</ele>
        <time>2022-09-26T07:49:26Z</time>
      </trkpt>
      <trkpt lat="41.6170930" lon="2.1016180">
        <ele>278.4</ele>
        <time>2022-09-26T07:49:27Z</time>
      </trkpt>
      <trkpt lat="41.6171600" lon="2.1016200">
        <ele>277.8</ele>
        <time>2022-09-26T07:49:28Z</time>
      </trkpt>
      <trkpt lat="41.6172220" lon="2.1015940">
        <ele>277.4</ele>
        <time>2022-09-26T07:49:29Z</time>
      </trkpt>
      <trkpt lat="41.6172770" lon="2.1015450">
        <ele>277.2</ele>
        <time>2022-09-26T07:49:30Z</time>
      </trkpt>
      <trkpt lat="41.6173240" lon="2.1014810">
        <ele>276.8</ele>
        <time>2022-09-26T07:49:31Z</time>
      </trkpt>
      <trkpt lat="41.6173650" lon="2.1014090">
        <ele>276.4</ele>
        <time>2022-09-26T07:49:32Z</time>
      </trkpt>
      <trkpt lat="41.6174020" lon="2.1013310">
        <ele>276.0</ele>
        <time>2022-09-26T07:49:33Z</time>
      </trkpt>
      <trkpt lat="41.6174400" lon="2.1012510">
        <ele>275.2</ele>
        <time>2022-09-26T07:49:34Z</time>
      </trkpt>
      <trkpt lat="41.6174790" lon="2.1011700">
        <ele>274.8</ele>
        <time>2022-09-26T07:49:35Z</time>
      </trkpt>
      <trkpt lat="41.6175190" lon="2.1010880">
        <ele>274.2</ele>
        <time>2022-09-26T07:49:36Z</time>
      </trkpt>
      <trkpt lat="41.6175580" lon="2.1010050">
        <ele>273.6</ele>
        <time>2022-09-26T07:49:37Z</time>
      </trkpt>
      <trkpt lat="41.6175980" lon="2.1009200">
        <ele>273.0</ele>
        <time>2022-09-26T07:49:38Z</time>
      </trkpt>
      <trkpt lat="41.6176380" lon="2.1008330">
        <ele>272.6</ele>
        <time>2022-09-26T07:49:39Z</time>
      </trkpt>
      <trkpt lat="41.6176790" lon="2.1007450">
        <ele>271.8</ele>
        <time>2022-09-26T07:49:40Z</time>
      </trkpt>
      <trkpt lat="41.6177210" lon="2.1006610">
        <ele>271.4</ele>
        <time>2022-09-26T07:49:41Z</time>
      </trkpt>
      <trkpt lat="41.6177610" lon="2.1005720">
        <ele>270.6</ele>
        <time>2022-09-26T07:49:42Z</time>
      </trkpt>
      <trkpt lat="41.6177960" lon="2.1004740">
        <ele>270.0</ele>
        <time>2022-09-26T07:49:43Z</time>
      </trkpt>
      <trkpt lat="41.6178260" lon="2.1003690">
        <ele>269.4</ele>
        <time>2022-09-26T07:49:44Z</time>
      </trkpt>
      <trkpt lat="41.6178520" lon="2.1002620">
        <ele>268.8</ele>
        <time>2022-09-26T07:49:45Z</time>
      </trkpt>
      <trkpt lat="41.6178760" lon="2.1001500">
        <ele>268.4</ele>
        <time>2022-09-26T07:49:46Z</time>
      </trkpt>
      <trkpt lat="41.6178940" lon="2.1000360">
        <ele>268.2</ele>
        <time>2022-09-26T07:49:47Z</time>
      </trkpt>
      <trkpt lat="41.6179070" lon="2.0999180">
        <ele>267.4</ele>
        <time>2022-09-26T07:49:48Z</time>
      </trkpt>
      <trkpt lat="41.6179230" lon="2.0997990">
        <ele>266.8</ele>
        <time>2022-09-26T07:49:49Z</time>
      </trkpt>
      <trkpt lat="41.6179370" lon="2.0996780">
        <ele>265.6</ele>
        <time>2022-09-26T07:49:50Z</time>
      </trkpt>
      <trkpt lat="41.6179460" lon="2.0995550">
        <ele>264.8</ele>
        <time>2022-09-26T07:49:51Z</time>
      </trkpt>
      <trkpt lat="41.6179490" lon="2.0994300">
        <ele>264.0</ele>
        <time>2022-09-26T07:49:52Z</time>
      </trkpt>
      <trkpt lat="41.6179420" lon="2.0993040">
        <ele>263.4</ele>
        <time>2022-09-26T07:49:53Z</time>
      </trkpt>
      <trkpt lat="41.6179260" lon="2.0991800">
        <ele>262.8</ele>
        <time>2022-09-26T07:49:54Z</time>
      </trkpt>
      <trkpt lat="41.6179070" lon="2.0990570">
        <ele>262.4</ele>
        <time>2022-09-26T07:49:55Z</time>
      </trkpt>
      <trkpt lat="41.6178860" lon="2.0989310">
        <ele>262.0</ele>
        <time>2022-09-26T07:49:56Z</time>
      </trkpt>
      <trkpt lat="41.6178660" lon="2.0988040">
        <ele>261.4</ele>
        <time>2022-09-26T07:49:57Z</time>
      </trkpt>
      <trkpt lat="41.6178560" lon="2.0986780">
        <ele>260.4</ele>
        <time>2022-09-26T07:49:58Z</time>
      </trkpt>
      <trkpt lat="41.6178600" lon="2.0985480">
        <ele>259.8</ele>
        <time>2022-09-26T07:49:59Z</time>
      </trkpt>
      <trkpt lat="41.6178810" lon="2.0984170">
        <ele>258.8</ele>
        <time>2022-09-26T07:50:00Z</time>
      </trkpt>
      <trkpt lat="41.6179090" lon="2.0982840">
        <ele>258.0</ele>
        <time>2022-09-26T07:50:01Z</time>
      </trkpt>
      <trkpt lat="41.6179360" lon="2.0981550">
        <ele>257.6</ele>
        <time>2022-09-26T07:50:02Z</time>
      </trkpt>
      <trkpt lat="41.6179600" lon="2.0980350">
        <ele>257.2</ele>
        <time>2022-09-26T07:50:03Z</time>
      </trkpt>
      <trkpt lat="41.6179860" lon="2.0979260">
        <ele>256.6</ele>
        <time>2022-09-26T07:50:04Z</time>
      </trkpt>
      <trkpt lat="41.6180180" lon="2.0978270">
        <ele>256.0</ele>
        <time>2022-09-26T07:50:05Z</time>
      </trkpt>
      <trkpt lat="41.6180610" lon="2.0977380">
        <ele>255.2</ele>
        <time>2022-09-26T07:50:06Z</time>
      </trkpt>
      <trkpt lat="41.6181200" lon="2.0976640">
        <ele>254.6</ele>
        <time>2022-09-26T07:50:07Z</time>
      </trkpt>
      <trkpt lat="41.6181920" lon="2.0976120">
        <ele>254.0</ele>
        <time>2022-09-26T07:50:08Z</time>
      </trkpt>
      <trkpt lat="41.6182670" lon="2.0975720">
        <ele>253.2</ele>
        <time>2022-09-26T07:50:09Z</time>
      </trkpt>
      <trkpt lat="41.6183350" lon="2.0975160">
        <ele>252.6</ele>
        <time>2022-09-26T07:50:10Z</time>
      </trkpt>
      <trkpt lat="41.6183860" lon="2.0974330">
        <ele>252.4</ele>
        <time>2022-09-26T07:50:11Z</time>
      </trkpt>
      <trkpt lat="41.6184230" lon="2.0973280">
        <ele>252.0</ele>
        <time>2022-09-26T07:50:12Z</time>
      </trkpt>
      <trkpt lat="41.6184460" lon="2.0972140">
        <ele>251.8</ele>
        <time>2022-09-26T07:50:13Z</time>
      </trkpt>
      <trkpt lat="41.6184670" lon="2.0970950">
        <ele>251.8</ele>
        <time>2022-09-26T07:50:14Z</time>
      </trkpt>
      <trkpt lat="41.6184940" lon="2.0969830">
        <ele>251.8</ele>
        <time>2022-09-26T07:50:15Z</time>
      </trkpt>
      <trkpt lat="41.6185270" lon="2.0968910">
        <ele>251.8</ele>
        <time>2022-09-26T07:50:16Z</time>
      </trkpt>
      <trkpt lat="41.6185610" lon="2.0968250">
        <ele>251.8</ele>
        <time>2022-09-26T07:50:17Z</time>
      </trkpt>
      <trkpt lat="41.6185900" lon="2.0967780">
        <ele>252.6</ele>
        <time>2022-09-26T07:50:18Z</time>
      </trkpt>
      <trkpt lat="41.6186140" lon="2.0967460">
        <ele>253.8</ele>
        <time>2022-09-26T07:50:19Z</time>
      </trkpt>
      <trkpt lat="41.6186330" lon="2.0967230">
        <ele>254.6</ele>
        <time>2022-09-26T07:50:20Z</time>
      </trkpt>
      <trkpt lat="41.6186490" lon="2.0967020">
        <ele>255.2</ele>
        <time>2022-09-26T07:50:21Z</time>
      </trkpt>
      <trkpt lat="41.6186620" lon="2.0966800">
        <ele>256.0</ele>
        <time>2022-09-26T07:50:22Z</time>
      </trkpt>
      <trkpt lat="41.6186760" lon="2.0966570">
        <ele>256.8</ele>
        <time>2022-09-26T07:50:23Z</time>
      </trkpt>
      <trkpt lat="41.6186880" lon="2.0966360">
        <ele>257.4</ele>
        <time>2022-09-26T07:50:24Z</time>
      </trkpt>
      <trkpt lat="41.6187010" lon="2.0966150">
        <ele>258.0</ele>
        <time>2022-09-26T07:50:25Z</time>
      </trkpt>
      <trkpt lat="41.6187140" lon="2.0965950">
        <ele>258.2</ele>
        <time>2022-09-26T07:50:26Z</time>
      </trkpt>
      <trkpt lat="41.6187280" lon="2.0965760">
        <ele>258.4</ele>
        <time>2022-09-26T07:50:27Z</time>
      </trkpt>
      <trkpt lat="41.6187420" lon="2.0965540">
        <ele>258.8</ele>
        <time>2022-09-26T07:50:28Z</time>
      </trkpt>
      <trkpt lat="41.6187540" lon="2.0965320">
        <ele>259.2</ele>
        <time>2022-09-26T07:50:29Z</time>
      </trkpt>
      <trkpt lat="41.6187670" lon="2.0965100">
        <ele>259.6</ele>
        <time>2022-09-26T07:50:30Z</time>
      </trkpt>
      <trkpt lat="41.6187800" lon="2.0964900">
        <ele>259.8</ele>
        <time>2022-09-26T07:50:31Z</time>
      </trkpt>
      <trkpt lat="41.6187940" lon="2.0964680">
        <ele>260.0</ele>
        <time>2022-09-26T07:50:32Z</time>
      </trkpt>
      <trkpt lat="41.6188070" lon="2.0964450">
        <ele>260.2</ele>
        <time>2022-09-26T07:50:33Z</time>
      </trkpt>
      <trkpt lat="41.6188210" lon="2.0964210">
        <ele>260.4</ele>
        <time>2022-09-26T07:50:34Z</time>
      </trkpt>
      <trkpt lat="41.6188340" lon="2.0964010">
        <ele>260.6</ele>
        <time>2022-09-26T07:50:35Z</time>
      </trkpt>
      <trkpt lat="41.6188470" lon="2.0963780">
        <ele>260.8</ele>
        <time>2022-09-26T07:50:36Z</time>
      </trkpt>
      <trkpt lat="41.6188600" lon="2.0963570">
        <ele>261.0</ele>
        <time>2022-09-26T07:50:37Z</time>
      </trkpt>
      <trkpt lat="41.6188740" lon="2.0963320">
        <ele>261.2</ele>
        <time>2022-09-26T07:50:38Z</time>
      </trkpt>
      <trkpt lat="41.6188900" lon="2.0963060">
        <ele>261.2</ele>
        <time>2022-09-26T07:50:39Z</time>
      </trkpt>
      <trkpt lat="41.6189050" lon="2.0962820">
        <ele>261.4</ele>
        <time>2022-09-26T07:50:40Z</time>
      </trkpt>
      <trkpt lat="41.6189200" lon="2.0962560">
        <ele>261.6</ele>
        <time>2022-09-26T07:50:41Z</time>
      </trkpt>
      <trkpt lat="41.6189360" lon="2.0962290">
        <ele>261.8</ele>
        <time>2022-09-26T07:50:42Z</time>
      </trkpt>
      <trkpt lat="41.6189500" lon="2.0962010">
        <ele>262.2</ele>
        <time>2022-09-26T07:50:43Z</time>
      </trkpt>
      <trkpt lat="41.6189640" lon="2.0961730">
        <ele>262.6</ele>
        <time>2022-09-26T07:50:44Z</time>
      </trkpt>
      <trkpt lat="41.6189770" lon="2.0961460">
        <ele>263.4</ele>
        <time>2022-09-26T07:50:45Z</time>
      </trkpt>
      <trkpt lat="41.6189890" lon="2.0961160">
        <ele>263.8</ele>
        <time>2022-09-26T07:50:46Z</time>
      </trkpt>
      <trkpt lat="41.6190030" lon="2.0960870">
        <ele>264.0</ele>
        <time>2022-09-26T07:50:47Z</time>
      </trkpt>
      <trkpt lat="41.6190180" lon="2.0960590">
        <ele>264.2</ele>
        <time>2022-09-26T07:50:48Z</time>
      </trkpt>
      <trkpt lat="41.6190330" lon="2.0960300">
        <ele>264.4</ele>
        <time>2022-09-26T07:50:49Z</time>
      </trkpt>
      <trkpt lat="41.6190440" lon="2.0960000">
        <ele>264.4</ele>
        <time>2022-09-26T07:50:50Z</time>
      </trkpt>
      <trkpt lat="41.6190550" lon="2.0959670">
        <ele>264.4</ele>
        <time>2022-09-26T07:50:51Z</time>
      </trkpt>
      <trkpt lat="41.6190710" lon="2.0959370">
        <ele>264.6</ele>
        <time>2022-09-26T07:50:52Z</time>
      </trkpt>
      <trkpt lat="41.6190890" lon="2.0959070">
        <ele>264.6</ele>
        <time>2022-09-26T07:50:53Z</time>
      </trkpt>
      <trkpt lat="41.6191060" lon="2.0958730">
        <ele>264.6</ele>
        <time>2022-09-26T07:50:54Z</time>
      </trkpt>
      <trkpt lat="41.6191230" lon="2.0958380">
        <ele>264.8</ele>
        <time>2022-09-26T07:50:55Z</time>
      </trkpt>
      <trkpt lat="41.6191410" lon="2.0958040">
        <ele>265.0</ele>
        <time>2022-09-26T07:50:56Z</time>
      </trkpt>
      <trkpt lat="41.6191600" lon="2.0957690">
        <ele>265.2</ele>
        <time>2022-09-26T07:50:57Z</time>
      </trkpt>
      <trkpt lat="41.6191800" lon="2.0957340">
        <ele>265.4</ele>
        <time>2022-09-26T07:50:58Z</time>
      </trkpt>
      <trkpt lat="41.6192000" lon="2.0957020">
        <ele>265.4</ele>
        <time>2022-09-26T07:50:59Z</time>
      </trkpt>
      <trkpt lat="41.6192190" lon="2.0956690">
        <ele>265.4</ele>
        <time>2022-09-26T07:51:00Z</time>
      </trkpt>
      <trkpt lat="41.6192380" lon="2.0956340">
        <ele>265.4</ele>
        <time>2022-09-26T07:51:01Z</time>
      </trkpt>
      <trkpt lat="41.6192560" lon="2.0955990">
        <ele>265.4</ele>
        <time>2022-09-26T07:51:02Z</time>
      </trkpt>
      <trkpt lat="41.6192710" lon="2.0955620">
        <ele>265.2</ele>
        <time>2022-09-26T07:51:03Z</time>
      </trkpt>
      <trkpt lat="41.6192880" lon="2.0955280">
        <ele>265.2</ele>
        <time>2022-09-26T07:51:04Z</time>
      </trkpt>
      <trkpt lat="41.6193060" lon="2.0954960">
        <ele>265.0</ele>
        <time>2022-09-26T07:51:05Z</time>
      </trkpt>
      <trkpt lat="41.6193220" lon="2.0954630">
        <ele>264.8</ele>
        <time>2022-09-26T07:51:06Z</time>
      </trkpt>
      <trkpt lat="41.6193390" lon="2.0954320">
        <ele>264.8</ele>
        <time>2022-09-26T07:51:07Z</time>
      </trkpt>
      <trkpt lat="41.6193540" lon="2.0954000">
        <ele>264.8</ele>
        <time>2022-09-26T07:51:08Z</time>
      </trkpt>
      <trkpt lat="41.6193690" lon="2.0953680">
        <ele>264.8</ele>
        <time>2022-09-26T07:51:09Z</time>
      </trkpt>
      <trkpt lat="41.6193830" lon="2.0953370">
        <ele>265.0</ele>
        <time>2022-09-26T07:51:10Z</time>
      </trkpt>
      <trkpt lat="41.6193990" lon="2.0953070">
        <ele>265.2</ele>
        <time>2022-09-26T07:51:11Z</time>
      </trkpt>
      <trkpt lat="41.6194140" lon="2.0952770">
        <ele>265.4</ele>
        <time>2022-09-26T07:51:12Z</time>
      </trkpt>
      <trkpt lat="41.6194290" lon="2.0952470">
        <ele>265.6</ele>
        <time>2022-09-26T07:51:13Z</time>
      </trkpt>
      <trkpt lat="41.6194430" lon="2.0952160">
        <ele>265.8</ele>
        <time>2022-09-26T07:51:14Z</time>
      </trkpt>
      <trkpt lat="41.6194570" lon="2.0951870">
        <ele>266.0</ele>
        <time>2022-09-26T07:51:15Z</time>
      </trkpt>
      <trkpt lat="41.6194700" lon="2.0951610">
        <ele>266.0</ele>
        <time>2022-09-26T07:51:16Z</time>
      </trkpt>
      <trkpt lat="41.6194840" lon="2.0951350">
        <ele>266.2</ele>
        <time>2022-09-26T07:51:17Z</time>
      </trkpt>
      <trkpt lat="41.6194970" lon="2.0951110">
        <ele>266.2</ele>
        <time>2022-09-26T07:51:18Z</time>
      </trkpt>
      <trkpt lat="41.6195100" lon="2.0950840">
        <ele>266.4</ele>
        <time>2022-09-26T07:51:19Z</time>
      </trkpt>
      <trkpt lat="41.6195230" lon="2.0950560">
        <ele>266.6</ele>
        <time>2022-09-26T07:51:20Z</time>
      </trkpt>
      <trkpt lat="41.6195340" lon="2.0950300">
        <ele>266.8</ele>
        <time>2022-09-26T07:51:21Z</time>
      </trkpt>
      <trkpt lat="41.6195460" lon="2.0950040">
        <ele>267.0</ele>
        <time>2022-09-26T07:51:22Z</time>
      </trkpt>
      <trkpt lat="41.6195570" lon="2.0949770">
        <ele>267.2</ele>
        <time>2022-09-26T07:51:23Z</time>
      </trkpt>
      <trkpt lat="41.6195650" lon="2.0949520">
        <ele>267.4</ele>
        <time>2022-09-26T07:51:24Z</time>
      </trkpt>
      <trkpt lat="41.6195740" lon="2.0949310">
        <ele>267.6</ele>
        <time>2022-09-26T07:51:25Z</time>
      </trkpt>
      <trkpt lat="41.6195840" lon="2.0949070">
        <ele>267.8</ele>
        <time>2022-09-26T07:51:26Z</time>
      </trkpt>
      <trkpt lat="41.6195960" lon="2.0948840">
        <ele>268.0</ele>
        <time>2022-09-26T07:51:27Z</time>
      </trkpt>
      <trkpt lat="41.6196070" lon="2.0948470">
        <ele>268.0</ele>
        <time>2022-09-26T07:51:28Z</time>
      </trkpt>
      <trkpt lat="41.6196180" lon="2.0948140">
        <ele>268.2</ele>
        <time>2022-09-26T07:51:29Z</time>
      </trkpt>
      <trkpt lat="41.6196280" lon="2.0947810">
        <ele>268.4</ele>
        <time>2022-09-26T07:51:30Z</time>
      </trkpt>
      <trkpt lat="41.6196400" lon="2.0947450">
        <ele>268.4</ele>
        <time>2022-09-26T07:51:31Z</time>
      </trkpt>
      <trkpt lat="41.6196520" lon="2.0947060">
        <ele>268.4</ele>
        <time>2022-09-26T07:51:32Z</time>
      </trkpt>
      <trkpt lat="41.6196680" lon="2.0946650">
        <ele>268.4</ele>
        <time>2022-09-26T07:51:33Z</time>
      </trkpt>
      <trkpt lat="41.6196800" lon="2.0946250">
        <ele>268.6</ele>
        <time>2022-09-26T07:51:34Z</time>
      </trkpt>
      <trkpt lat="41.6196940" lon="2.0945880">
        <ele>268.8</ele>
        <time>2022-09-26T07:51:35Z</time>
      </trkpt>
      <trkpt lat="41.6197070" lon="2.0945500">
        <ele>269.0</ele>
        <time>2022-09-26T07:51:36Z</time>
      </trkpt>
      <trkpt lat="41.6197190" lon="2.0945120">
        <ele>268.8</ele>
        <time>2022-09-26T07:51:37Z</time>
      </trkpt>
      <trkpt lat="41.6197310" lon="2.0944770">
        <ele>269.4</ele>
        <time>2022-09-26T07:51:38Z</time>
      </trkpt>
      <trkpt lat="41.6197440" lon="2.0944460">
        <ele>269.6</ele>
        <time>2022-09-26T07:51:39Z</time>
      </trkpt>
      <trkpt lat="41.6197560" lon="2.0944120">
        <ele>269.8</ele>
        <time>2022-09-26T07:51:40Z</time>
      </trkpt>
      <trkpt lat="41.6197670" lon="2.0943790">
        <ele>270.2</ele>
        <time>2022-09-26T07:51:41Z</time>
      </trkpt>
      <trkpt lat="41.6197770" lon="2.0943450">
        <ele>270.6</ele>
        <time>2022-09-26T07:51:42Z</time>
      </trkpt>
      <trkpt lat="41.6197880" lon="2.0943120">
        <ele>271.0</ele>
        <time>2022-09-26T07:51:43Z</time>
      </trkpt>
      <trkpt lat="41.6197980" lon="2.0942830">
        <ele>271.2</ele>
        <time>2022-09-26T07:51:44Z</time>
      </trkpt>
      <trkpt lat="41.6198050" lon="2.0942560">
        <ele>271.4</ele>
        <time>2022-09-26T07:51:45Z</time>
      </trkpt>
      <trkpt lat="41.6198150" lon="2.0942310">
        <ele>271.4</ele>
        <time>2022-09-26T07:51:46Z</time>
      </trkpt>
      <trkpt lat="41.6198250" lon="2.0942020">
        <ele>271.6</ele>
        <time>2022-09-26T07:51:47Z</time>
      </trkpt>
      <trkpt lat="41.6198320" lon="2.0941760">
        <ele>271.6</ele>
        <time>2022-09-26T07:51:48Z</time>
      </trkpt>
      <trkpt lat="41.6198430" lon="2.0941430">
        <ele>271.8</ele>
        <time>2022-09-26T07:51:49Z</time>
      </trkpt>
      <trkpt lat="41.6198510" lon="2.0941140">
        <ele>271.8</ele>
        <time>2022-09-26T07:51:50Z</time>
      </trkpt>
      <trkpt lat="41.6198590" lon="2.0940860">
        <ele>272.0</ele>
        <time>2022-09-26T07:51:51Z</time>
      </trkpt>
      <trkpt lat="41.6198700" lon="2.0940490">
        <ele>272.2</ele>
        <time>2022-09-26T07:51:52Z</time>
      </trkpt>
      <trkpt lat="41.6198750" lon="2.0940290">
        <ele>272.4</ele>
        <time>2022-09-26T07:51:53Z</time>
      </trkpt>
      <trkpt lat="41.6198830" lon="2.0940020">
        <ele>272.4</ele>
        <time>2022-09-26T07:51:54Z</time>
      </trkpt>
      <trkpt lat="41.6198930" lon="2.0939690">
        <ele>272.6</ele>
        <time>2022-09-26T07:51:55Z</time>
      </trkpt>
      <trkpt lat="41.6199050" lon="2.0939330">
        <ele>272.8</ele>
        <time>2022-09-26T07:51:56Z</time>
      </trkpt>
      <trkpt lat="41.6199170" lon="2.0938960">
        <ele>273.0</ele>
        <time>2022-09-26T07:51:57Z</time>
      </trkpt>
      <trkpt lat="41.6199280" lon="2.0938570">
        <ele>273.2</ele>
        <time>2022-09-26T07:51:58Z</time>
      </trkpt>
      <trkpt lat="41.6199380" lon="2.0938200">
        <ele>273.4</ele>
        <time>2022-09-26T07:51:59Z</time>
      </trkpt>
      <trkpt lat="41.6199500" lon="2.0937770">
        <ele>273.8</ele>
        <time>2022-09-26T07:52:00Z</time>
      </trkpt>
      <trkpt lat="41.6199580" lon="2.0937430">
        <ele>274.0</ele>
        <time>2022-09-26T07:52:01Z</time>
      </trkpt>
      <trkpt lat="41.6199670" lon="2.0937060">
        <ele>274.2</ele>
        <time>2022-09-26T07:52:02Z</time>
      </trkpt>
      <trkpt lat="41.6199710" lon="2.0936700">
        <ele>274.4</ele>
        <time>2022-09-26T07:52:03Z</time>
      </trkpt>
      <trkpt lat="41.6199760" lon="2.0936350">
        <ele>274.4</ele>
        <time>2022-09-26T07:52:04Z</time>
      </trkpt>
      <trkpt lat="41.6199820" lon="2.0936040">
        <ele>274.6</ele>
        <time>2022-09-26T07:52:05Z</time>
      </trkpt>
      <trkpt lat="41.6199880" lon="2.0935720">
        <ele>274.8</ele>
        <time>2022-09-26T07:52:06Z</time>
      </trkpt>
      <trkpt lat="41.6199920" lon="2.0935380">
        <ele>275.2</ele>
        <time>2022-09-26T07:52:07Z</time>
      </trkpt>
      <trkpt lat="41.6199930" lon="2.0935080">
        <ele>275.2</ele>
        <time>2022-09-26T07:52:08Z</time>
      </trkpt>
      <trkpt lat="41.6199950" lon="2.0934780">
        <ele>275.6</ele>
        <time>2022-09-26T07:52:09Z</time>
      </trkpt>
      <trkpt lat="41.6200020" lon="2.0934420">
        <ele>275.8</ele>
        <time>2022-09-26T07:52:10Z</time>
      </trkpt>
      <trkpt lat="41.6200070" lon="2.0934100">
        <ele>276.0</ele>
        <time>2022-09-26T07:52:11Z</time>
      </trkpt>
      <trkpt lat="41.6200120" lon="2.0933780">
        <ele>276.2</ele>
        <time>2022-09-26T07:52:12Z</time>
      </trkpt>
      <trkpt lat="41.6200180" lon="2.0933440">
        <ele>276.2</ele>
        <time>2022-09-26T07:52:13Z</time>
      </trkpt>
      <trkpt lat="41.6200220" lon="2.0933100">
        <ele>276.4</ele>
        <time>2022-09-26T07:52:14Z</time>
      </trkpt>
      <trkpt lat="41.6200280" lon="2.0932770">
        <ele>276.6</ele>
        <time>2022-09-26T07:52:15Z</time>
      </trkpt>
      <trkpt lat="41.6200360" lon="2.0932420">
        <ele>277.0</ele>
        <time>2022-09-26T07:52:16Z</time>
      </trkpt>
      <trkpt lat="41.6200410" lon="2.0932090">
        <ele>277.0</ele>
        <time>2022-09-26T07:52:17Z</time>
      </trkpt>
      <trkpt lat="41.6200460" lon="2.0931770">
        <ele>277.4</ele>
        <time>2022-09-26T07:52:18Z</time>
      </trkpt>
      <trkpt lat="41.6200500" lon="2.0931460">
        <ele>277.6</ele>
        <time>2022-09-26T07:52:19Z</time>
      </trkpt>
      <trkpt lat="41.6200510" lon="2.0931140">
        <ele>277.8</ele>
        <time>2022-09-26T07:52:20Z</time>
      </trkpt>
      <trkpt lat="41.6200540" lon="2.0930780">
        <ele>278.0</ele>
        <time>2022-09-26T07:52:21Z</time>
      </trkpt>
      <trkpt lat="41.6200550" lon="2.0930440">
        <ele>278.2</ele>
        <time>2022-09-26T07:52:22Z</time>
      </trkpt>
      <trkpt lat="41.6200590" lon="2.0930070">
        <ele>278.6</ele>
        <time>2022-09-26T07:52:23Z</time>
      </trkpt>
      <trkpt lat="41.6200600" lon="2.0929710">
        <ele>278.8</ele>
        <time>2022-09-26T07:52:24Z</time>
      </trkpt>
      <trkpt lat="41.6200610" lon="2.0929370">
        <ele>279.0</ele>
        <time>2022-09-26T07:52:25Z</time>
      </trkpt>
      <trkpt lat="41.6200590" lon="2.0929070">
        <ele>279.2</ele>
        <time>2022-09-26T07:52:26Z</time>
      </trkpt>
      <trkpt lat="41.6200560" lon="2.0928780">
        <ele>279.4</ele>
        <time>2022-09-26T07:52:27Z</time>
      </trkpt>
      <trkpt lat="41.6200540" lon="2.0928490">
        <ele>279.6</ele>
        <time>2022-09-26T07:52:28Z</time>
      </trkpt>
      <trkpt lat="41.6200540" lon="2.0928140">
        <ele>279.8</ele>
        <time>2022-09-26T07:52:29Z</time>
      </trkpt>
      <trkpt lat="41.6200520" lon="2.0927750">
        <ele>280.0</ele>
        <time>2022-09-26T07:52:30Z</time>
      </trkpt>
      <trkpt lat="41.6200520" lon="2.0927350">
        <ele>280.2</ele>
        <time>2022-09-26T07:52:31Z</time>
      </trkpt>
      <trkpt lat="41.6200530" lon="2.0926940">
        <ele>280.2</ele>
        <time>2022-09-26T07:52:32Z</time>
      </trkpt>
      <trkpt lat="41.6200520" lon="2.0926560">
        <ele>280.4</ele>
        <time>2022-09-26T07:52:33Z</time>
      </trkpt>
      <trkpt lat="41.6200510" lon="2.0926170">
        <ele>280.4</ele>
        <time>2022-09-26T07:52:34Z</time>
      </trkpt>
      <trkpt lat="41.6200490" lon="2.0925820">
        <ele>280.6</ele>
        <time>2022-09-26T07:52:35Z</time>
      </trkpt>
      <trkpt lat="41.6200460" lon="2.0925450">
        <ele>280.8</ele>
        <time>2022-09-26T07:52:36Z</time>
      </trkpt>
      <trkpt lat="41.6200440" lon="2.0925050">
        <ele>281.0</ele>
        <time>2022-09-26T07:52:37Z</time>
      </trkpt>
      <trkpt lat="41.6200430" lon="2.0924640">
        <ele>281.2</ele>
        <time>2022-09-26T07:52:38Z</time>
      </trkpt>
      <trkpt lat="41.6200420" lon="2.0924230">
        <ele>281.4</ele>
        <time>2022-09-26T07:52:39Z</time>
      </trkpt>
      <trkpt lat="41.6200410" lon="2.0923800">
        <ele>281.6</ele>
        <time>2022-09-26T07:52:40Z</time>
      </trkpt>
      <trkpt lat="41.6200430" lon="2.0923390">
        <ele>281.6</ele>
        <time>2022-09-26T07:52:41Z</time>
      </trkpt>
      <trkpt lat="41.6200440" lon="2.0923020">
        <ele>281.6</ele>
        <time>2022-09-26T07:52:42Z</time>
      </trkpt>
      <trkpt lat="41.6200460" lon="2.0922660">
        <ele>281.4</ele>
        <time>2022-09-26T07:52:43Z</time>
      </trkpt>
      <trkpt lat="41.6200490" lon="2.0922250">
        <ele>281.4</ele>
        <time>2022-09-26T07:52:44Z</time>
      </trkpt>
      <trkpt lat="41.6200530" lon="2.0921860">
        <ele>281.4</ele>
        <time>2022-09-26T07:52:45Z</time>
      </trkpt>
      <trkpt lat="41.6200580" lon="2.0921450">
        <ele>281.6</ele>
        <time>2022-09-26T07:52:46Z</time>
      </trkpt>
      <trkpt lat="41.6200640" lon="2.0921040">
        <ele>281.8</ele>
        <time>2022-09-26T07:52:47Z</time>
      </trkpt>
      <trkpt lat="41.6200660" lon="2.0920660">
        <ele>281.8</ele>
        <time>2022-09-26T07:52:48Z</time>
      </trkpt>
      <trkpt lat="41.6200710" lon="2.0920230">
        <ele>282.0</ele>
        <time>2022-09-26T07:52:49Z</time>
      </trkpt>
      <trkpt lat="41.6200750" lon="2.0919880">
        <ele>282.0</ele>
        <time>2022-09-26T07:52:50Z</time>
      </trkpt>
      <trkpt lat="41.6200840" lon="2.0919490">
        <ele>282.0</ele>
        <time>2022-09-26T07:52:51Z</time>
      </trkpt>
      <trkpt lat="41.6200970" lon="2.0919040">
        <ele>282.0</ele>
        <time>2022-09-26T07:52:52Z</time>
      </trkpt>
      <trkpt lat="41.6201130" lon="2.0918600">
        <ele>282.0</ele>
        <time>2022-09-26T07:52:53Z</time>
      </trkpt>
      <trkpt lat="41.6201290" lon="2.0918190">
        <ele>282.0</ele>
        <time>2022-09-26T07:52:54Z</time>
      </trkpt>
      <trkpt lat="41.6201470" lon="2.0917810">
        <ele>282.0</ele>
        <time>2022-09-26T07:52:55Z</time>
      </trkpt>
      <trkpt lat="41.6201630" lon="2.0917450">
        <ele>282.0</ele>
        <time>2022-09-26T07:52:56Z</time>
      </trkpt>
      <trkpt lat="41.6201810" lon="2.0917060">
        <ele>282.0</ele>
        <time>2022-09-26T07:52:57Z</time>
      </trkpt>
      <trkpt lat="41.6201980" lon="2.0916690">
        <ele>282.0</ele>
        <time>2022-09-26T07:52:58Z</time>
      </trkpt>
      <trkpt lat="41.6202150" lon="2.0916320">
        <ele>282.0</ele>
        <time>2022-09-26T07:52:59Z</time>
      </trkpt>
      <trkpt lat="41.6202290" lon="2.0915930">
        <ele>282.0</ele>
        <time>2022-09-26T07:53:00Z</time>
      </trkpt>
      <trkpt lat="41.6202370" lon="2.0915510">
        <ele>282.0</ele>
        <time>2022-09-26T07:53:01Z</time>
      </trkpt>
      <trkpt lat="41.6202390" lon="2.0915090">
        <ele>282.0</ele>
        <time>2022-09-26T07:53:02Z</time>
      </trkpt>
      <trkpt lat="41.6202300" lon="2.0914660">
        <ele>282.2</ele>
        <time>2022-09-26T07:53:03Z</time>
      </trkpt>
      <trkpt lat="41.6202110" lon="2.0914280">
        <ele>282.2</ele>
        <time>2022-09-26T07:53:04Z</time>
      </trkpt>
      <trkpt lat="41.6201860" lon="2.0913890">
        <ele>282.0</ele>
        <time>2022-09-26T07:53:05Z</time>
      </trkpt>
      <trkpt lat="41.6201590" lon="2.0913440">
        <ele>282.0</ele>
        <time>2022-09-26T07:53:06Z</time>
      </trkpt>
      <trkpt lat="41.6201310" lon="2.0912920">
        <ele>281.8</ele>
        <time>2022-09-26T07:53:07Z</time>
      </trkpt>
      <trkpt lat="41.6201010" lon="2.0912370">
        <ele>281.6</ele>
        <time>2022-09-26T07:53:08Z</time>
      </trkpt>
      <trkpt lat="41.6200680" lon="2.0911790">
        <ele>281.4</ele>
        <time>2022-09-26T07:53:09Z</time>
      </trkpt>
      <trkpt lat="41.6200330" lon="2.0911220">
        <ele>281.0</ele>
        <time>2022-09-26T07:53:10Z</time>
      </trkpt>
      <trkpt lat="41.6199980" lon="2.0910640">
        <ele>280.6</ele>
        <time>2022-09-26T07:53:11Z</time>
      </trkpt>
      <trkpt lat="41.6199640" lon="2.0910060">
        <ele>280.4</ele>
        <time>2022-09-26T07:53:12Z</time>
      </trkpt>
      <trkpt lat="41.6199290" lon="2.0909490">
        <ele>280.2</ele>
        <time>2022-09-26T07:53:13Z</time>
      </trkpt>
      <trkpt lat="41.6198930" lon="2.0908920">
        <ele>280.2</ele>
        <time>2022-09-26T07:53:14Z</time>
      </trkpt>
      <trkpt lat="41.6198560" lon="2.0908340">
        <ele>280.0</ele>
        <time>2022-09-26T07:53:15Z</time>
      </trkpt>
      <trkpt lat="41.6198200" lon="2.0907740">
        <ele>280.0</ele>
        <time>2022-09-26T07:53:16Z</time>
      </trkpt>
      <trkpt lat="41.6197840" lon="2.0907140">
        <ele>280.0</ele>
        <time>2022-09-26T07:53:17Z</time>
      </trkpt>
      <trkpt lat="41.6197470" lon="2.0906590">
        <ele>279.8</ele>
        <time>2022-09-26T07:53:18Z</time>
      </trkpt>
      <trkpt lat="41.6197130" lon="2.0906100">
        <ele>279.6</ele>
        <time>2022-09-26T07:53:19Z</time>
      </trkpt>
      <trkpt lat="41.6196930" lon="2.0905640">
        <ele>279.4</ele>
        <time>2022-09-26T07:53:20Z</time>
      </trkpt>
      <trkpt lat="41.6196910" lon="2.0905170">
        <ele>279.4</ele>
        <time>2022-09-26T07:53:21Z</time>
      </trkpt>
      <trkpt lat="41.6197100" lon="2.0904710">
        <ele>279.2</ele>
        <time>2022-09-26T07:53:22Z</time>
      </trkpt>
      <trkpt lat="41.6197370" lon="2.0904260">
        <ele>278.8</ele>
        <time>2022-09-26T07:53:23Z</time>
      </trkpt>
      <trkpt lat="41.6197670" lon="2.0903790">
        <ele>278.2</ele>
        <time>2022-09-26T07:53:24Z</time>
      </trkpt>
      <trkpt lat="41.6198000" lon="2.0903280">
        <ele>277.6</ele>
        <time>2022-09-26T07:53:25Z</time>
      </trkpt>
      <trkpt lat="41.6198410" lon="2.0902750">
        <ele>277.0</ele>
        <time>2022-09-26T07:53:26Z</time>
      </trkpt>
      <trkpt lat="41.6198910" lon="2.0902230">
        <ele>276.8</ele>
        <time>2022-09-26T07:53:27Z</time>
      </trkpt>
      <trkpt lat="41.6199490" lon="2.0901730">
        <ele>276.2</ele>
        <time>2022-09-26T07:53:28Z</time>
      </trkpt>
      <trkpt lat="41.6200140" lon="2.0901270">
        <ele>275.6</ele>
        <time>2022-09-26T07:53:29Z</time>
      </trkpt>
      <trkpt lat="41.6200860" lon="2.0900870">
        <ele>274.6</ele>
        <time>2022-09-26T07:53:30Z</time>
      </trkpt>
      <trkpt lat="41.6201570" lon="2.0900450">
        <ele>273.2</ele>
        <time>2022-09-26T07:53:31Z</time>
      </trkpt>
      <trkpt lat="41.6202240" lon="2.0899960">
        <ele>272.0</ele>
        <time>2022-09-26T07:53:32Z</time>
      </trkpt>
      <trkpt lat="41.6202830" lon="2.0899350">
        <ele>271.4</ele>
        <time>2022-09-26T07:53:33Z</time>
      </trkpt>
      <trkpt lat="41.6203280" lon="2.0898610">
        <ele>270.2</ele>
        <time>2022-09-26T07:53:34Z</time>
      </trkpt>
      <trkpt lat="41.6203550" lon="2.0897800">
        <ele>269.4</ele>
        <time>2022-09-26T07:53:35Z</time>
      </trkpt>
      <trkpt lat="41.6203650" lon="2.0897060">
        <ele>268.0</ele>
        <time>2022-09-26T07:53:36Z</time>
      </trkpt>
      <trkpt lat="41.6203700" lon="2.0896490">
        <ele>266.8</ele>
        <time>2022-09-26T07:53:37Z</time>
      </trkpt>
      <trkpt lat="41.6203830" lon="2.0896110">
        <ele>266.2</ele>
        <time>2022-09-26T07:53:38Z</time>
      </trkpt>
      <trkpt lat="41.6204070" lon="2.0895930">
        <ele>265.8</ele>
        <time>2022-09-26T07:53:39Z</time>
      </trkpt>
      <trkpt lat="41.6204350" lon="2.0895990">
        <ele>265.2</ele>
        <time>2022-09-26T07:53:40Z</time>
      </trkpt>
      <trkpt lat="41.6204650" lon="2.0896290">
        <ele>264.8</ele>
        <time>2022-09-26T07:53:41Z</time>
      </trkpt>
      <trkpt lat="41.6204950" lon="2.0896690">
        <ele>264.2</ele>
        <time>2022-09-26T07:53:42Z</time>
      </trkpt>
      <trkpt lat="41.6205250" lon="2.0897130">
        <ele>263.6</ele>
        <time>2022-09-26T07:53:43Z</time>
      </trkpt>
      <trkpt lat="41.6205590" lon="2.0897600">
        <ele>263.4</ele>
        <time>2022-09-26T07:53:44Z</time>
      </trkpt>
      <trkpt lat="41.6205930" lon="2.0898070">
        <ele>262.8</ele>
        <time>2022-09-26T07:53:45Z</time>
      </trkpt>
      <trkpt lat="41.6206280" lon="2.0898600">
        <ele>262.2</ele>
        <time>2022-09-26T07:53:46Z</time>
      </trkpt>
      <trkpt lat="41.6206640" lon="2.0899150">
        <ele>261.6</ele>
        <time>2022-09-26T07:53:47Z</time>
      </trkpt>
      <trkpt lat="41.6207090" lon="2.0899670">
        <ele>261.4</ele>
        <time>2022-09-26T07:53:48Z</time>
      </trkpt>
      <trkpt lat="41.6207590" lon="2.0900110">
        <ele>261.2</ele>
        <time>2022-09-26T07:53:49Z</time>
      </trkpt>
      <trkpt lat="41.6208120" lon="2.0900460">
        <ele>261.0</ele>
        <time>2022-09-26T07:53:50Z</time>
      </trkpt>
      <trkpt lat="41.6208700" lon="2.0900730">
        <ele>260.8</ele>
        <time>2022-09-26T07:53:51Z</time>
      </trkpt>
      <trkpt lat="41.6209280" lon="2.0900860">
        <ele>260.8</ele>
        <time>2022-09-26T07:53:52Z</time>
      </trkpt>
      <trkpt lat="41.6209840" lon="2.0900810">
        <ele>260.8</ele>
        <time>2022-09-26T07:53:53Z</time>
      </trkpt>
      <trkpt lat="41.6210340" lon="2.0900550">
        <ele>260.8</ele>
        <time>2022-09-26T07:53:54Z</time>
      </trkpt>
      <trkpt lat="41.6210730" lon="2.0900110">
        <ele>260.8</ele>
        <time>2022-09-26T07:53:55Z</time>
      </trkpt>
      <trkpt lat="41.6210990" lon="2.0899560">
        <ele>260.6</ele>
        <time>2022-09-26T07:53:56Z</time>
      </trkpt>
      <trkpt lat="41.6211160" lon="2.0898950">
        <ele>260.8</ele>
        <time>2022-09-26T07:53:57Z</time>
      </trkpt>
      <trkpt lat="41.6211280" lon="2.0898340">
        <ele>260.8</ele>
        <time>2022-09-26T07:53:58Z</time>
      </trkpt>
      <trkpt lat="41.6211430" lon="2.0897750">
        <ele>261.0</ele>
        <time>2022-09-26T07:53:59Z</time>
      </trkpt>
      <trkpt lat="41.6211640" lon="2.0897200">
        <ele>261.0</ele>
        <time>2022-09-26T07:54:00Z</time>
      </trkpt>
      <trkpt lat="41.6211900" lon="2.0896700">
        <ele>261.0</ele>
        <time>2022-09-26T07:54:01Z</time>
      </trkpt>
      <trkpt lat="41.6212180" lon="2.0896240">
        <ele>261.2</ele>
        <time>2022-09-26T07:54:02Z</time>
      </trkpt>
      <trkpt lat="41.6212470" lon="2.0895790">
        <ele>261.0</ele>
        <time>2022-09-26T07:54:03Z</time>
      </trkpt>
      <trkpt lat="41.6212780" lon="2.0895380">
        <ele>261.0</ele>
        <time>2022-09-26T07:54:04Z</time>
      </trkpt>
      <trkpt lat="41.6213100" lon="2.0895020">
        <ele>261.0</ele>
        <time>2022-09-26T07:54:05Z</time>
      </trkpt>
      <trkpt lat="41.6213420" lon="2.0894700">
        <ele>261.0</ele>
        <time>2022-09-26T07:54:06Z</time>
      </trkpt>
      <trkpt lat="41.6213730" lon="2.0894420">
        <ele>261.0</ele>
        <time>2022-09-26T07:54:07Z</time>
      </trkpt>
      <trkpt lat="41.6214010" lon="2.0894150">
        <ele>261.0</ele>
        <time>2022-09-26T07:54:08Z</time>
      </trkpt>
      <trkpt lat="41.6214270" lon="2.0893880">
        <ele>261.0</ele>
        <time>2022-09-26T07:54:09Z</time>
      </trkpt>
      <trkpt lat="41.6214530" lon="2.0893640">
        <ele>261.2</ele>
        <time>2022-09-26T07:54:10Z</time>
      </trkpt>
      <trkpt lat="41.6214780" lon="2.0893400">
        <ele>261.2</ele>
        <time>2022-09-26T07:54:11Z</time>
      </trkpt>
      <trkpt lat="41.6215040" lon="2.0893150">
        <ele>261.2</ele>
        <time>2022-09-26T07:54:12Z</time>
      </trkpt>
      <trkpt lat="41.6215300" lon="2.0892910">
        <ele>261.4</ele>
        <time>2022-09-26T07:54:13Z</time>
      </trkpt>
      <trkpt lat="41.6215560" lon="2.0892670">
        <ele>261.4</ele>
        <time>2022-09-26T07:54:14Z</time>
      </trkpt>
      <trkpt lat="41.6215820" lon="2.0892430">
        <ele>261.6</ele>
        <time>2022-09-26T07:54:15Z</time>
      </trkpt>
      <trkpt lat="41.6216090" lon="2.0892170">
        <ele>261.6</ele>
        <time>2022-09-26T07:54:16Z</time>
      </trkpt>
      <trkpt lat="41.6216370" lon="2.0891900">
        <ele>261.6</ele>
        <time>2022-09-26T07:54:17Z</time>
      </trkpt>
      <trkpt lat="41.6216650" lon="2.0891610">
        <ele>261.6</ele>
        <time>2022-09-26T07:54:18Z</time>
      </trkpt>
      <trkpt lat="41.6216940" lon="2.0891330">
        <ele>261.8</ele>
        <time>2022-09-26T07:54:19Z</time>
      </trkpt>
      <trkpt lat="41.6217240" lon="2.0891050">
        <ele>261.8</ele>
        <time>2022-09-26T07:54:20Z</time>
      </trkpt>
      <trkpt lat="41.6217560" lon="2.0890750">
        <ele>261.8</ele>
        <time>2022-09-26T07:54:21Z</time>
      </trkpt>
      <trkpt lat="41.6217890" lon="2.0890470">
        <ele>261.6</ele>
        <time>2022-09-26T07:54:22Z</time>
      </trkpt>
      <trkpt lat="41.6218200" lon="2.0890170">
        <ele>261.6</ele>
        <time>2022-09-26T07:54:23Z</time>
      </trkpt>
      <trkpt lat="41.6218510" lon="2.0889830">
        <ele>261.4</ele>
        <time>2022-09-26T07:54:24Z</time>
      </trkpt>
      <trkpt lat="41.6218830" lon="2.0889500">
        <ele>261.0</ele>
        <time>2022-09-26T07:54:25Z</time>
      </trkpt>
      <trkpt lat="41.6219170" lon="2.0889160">
        <ele>261.0</ele>
        <time>2022-09-26T07:54:26Z</time>
      </trkpt>
      <trkpt lat="41.6219530" lon="2.0888820">
        <ele>261.0</ele>
        <time>2022-09-26T07:54:27Z</time>
      </trkpt>
      <trkpt lat="41.6219890" lon="2.0888450">
        <ele>260.8</ele>
        <time>2022-09-26T07:54:28Z</time>
      </trkpt>
      <trkpt lat="41.6220270" lon="2.0888070">
        <ele>260.6</ele>
        <time>2022-09-26T07:54:29Z</time>
      </trkpt>
      <trkpt lat="41.6220650" lon="2.0887720">
        <ele>260.2</ele>
        <time>2022-09-26T07:54:30Z</time>
      </trkpt>
      <trkpt lat="41.6221040" lon="2.0887410">
        <ele>260.0</ele>
        <time>2022-09-26T07:54:31Z</time>
      </trkpt>
      <trkpt lat="41.6221420" lon="2.0887080">
        <ele>260.0</ele>
        <time>2022-09-26T07:54:32Z</time>
      </trkpt>
      <trkpt lat="41.6221780" lon="2.0886710">
        <ele>260.2</ele>
        <time>2022-09-26T07:54:33Z</time>
      </trkpt>
      <trkpt lat="41.6222120" lon="2.0886320">
        <ele>260.6</ele>
        <time>2022-09-26T07:54:34Z</time>
      </trkpt>
      <trkpt lat="41.6222470" lon="2.0885930">
        <ele>260.8</ele>
        <time>2022-09-26T07:54:35Z</time>
      </trkpt>
      <trkpt lat="41.6222830" lon="2.0885550">
        <ele>261.0</ele>
        <time>2022-09-26T07:54:36Z</time>
      </trkpt>
      <trkpt lat="41.6223190" lon="2.0885200">
        <ele>261.0</ele>
        <time>2022-09-26T07:54:37Z</time>
      </trkpt>
      <trkpt lat="41.6223550" lon="2.0884880">
        <ele>261.0</ele>
        <time>2022-09-26T07:54:38Z</time>
      </trkpt>
      <trkpt lat="41.6223910" lon="2.0884570">
        <ele>260.8</ele>
        <time>2022-09-26T07:54:39Z</time>
      </trkpt>
      <trkpt lat="41.6224260" lon="2.0884280">
        <ele>260.8</ele>
        <time>2022-09-26T07:54:40Z</time>
      </trkpt>
      <trkpt lat="41.6224600" lon="2.0883990">
        <ele>260.8</ele>
        <time>2022-09-26T07:54:41Z</time>
      </trkpt>
      <trkpt lat="41.6224940" lon="2.0883700">
        <ele>260.6</ele>
        <time>2022-09-26T07:54:42Z</time>
      </trkpt>
      <trkpt lat="41.6225270" lon="2.0883390">
        <ele>260.8</ele>
        <time>2022-09-26T07:54:43Z</time>
      </trkpt>
      <trkpt lat="41.6225610" lon="2.0883090">
        <ele>260.8</ele>
        <time>2022-09-26T07:54:44Z</time>
      </trkpt>
      <trkpt lat="41.6225970" lon="2.0882810">
        <ele>261.0</ele>
        <time>2022-09-26T07:54:45Z</time>
      </trkpt>
      <trkpt lat="41.6226360" lon="2.0882570">
        <ele>261.2</ele>
        <time>2022-09-26T07:54:46Z</time>
      </trkpt>
      <trkpt lat="41.6226770" lon="2.0882350">
        <ele>261.2</ele>
        <time>2022-09-26T07:54:47Z</time>
      </trkpt>
      <trkpt lat="41.6227190" lon="2.0882160">
        <ele>261.2</ele>
        <time>2022-09-26T07:54:48Z</time>
      </trkpt>
      <trkpt lat="41.6227600" lon="2.0881990">
        <ele>261.0</ele>
        <time>2022-09-26T07:54:49Z</time>
      </trkpt>
      <trkpt lat="41.6227980" lon="2.0881830">
        <ele>260.6</ele>
        <time>2022-09-26T07:54:50Z</time>
      </trkpt>
      <trkpt lat="41.6228350" lon="2.0881720">
        <ele>260.4</ele>
        <time>2022-09-26T07:54:51Z</time>
      </trkpt>
      <trkpt lat="41.6228710" lon="2.0881640">
        <ele>260.4</ele>
        <time>2022-09-26T07:54:52Z</time>
      </trkpt>
      <trkpt lat="41.6229060" lon="2.0881580">
        <ele>260.6</ele>
        <time>2022-09-26T07:54:53Z</time>
      </trkpt>
      <trkpt lat="41.6229400" lon="2.0881550">
        <ele>261.0</ele>
        <time>2022-09-26T07:54:54Z</time>
      </trkpt>
      <trkpt lat="41.6229730" lon="2.0881550">
        <ele>261.2</ele>
        <time>2022-09-26T07:54:55Z</time>
      </trkpt>
      <trkpt lat="41.6230050" lon="2.0881580">
        <ele>261.4</ele>
        <time>2022-09-26T07:54:56Z</time>
      </trkpt>
      <trkpt lat="41.6230350" lon="2.0881650">
        <ele>261.4</ele>
        <time>2022-09-26T07:54:57Z</time>
      </trkpt>
      <trkpt lat="41.6230650" lon="2.0881740">
        <ele>261.6</ele>
        <time>2022-09-26T07:54:58Z</time>
      </trkpt>
      <trkpt lat="41.6230930" lon="2.0881830">
        <ele>261.6</ele>
        <time>2022-09-26T07:54:59Z</time>
      </trkpt>
      <trkpt lat="41.6231200" lon="2.0881900">
        <ele>261.8</ele>
        <time>2022-09-26T07:55:00Z</time>
      </trkpt>
      <trkpt lat="41.6231460" lon="2.0881960">
        <ele>262.0</ele>
        <time>2022-09-26T07:55:01Z</time>
      </trkpt>
      <trkpt lat="41.6231710" lon="2.0882020">
        <ele>262.4</ele>
        <time>2022-09-26T07:55:02Z</time>
      </trkpt>
      <trkpt lat="41.6231960" lon="2.0882080">
        <ele>262.6</ele>
        <time>2022-09-26T07:55:03Z</time>
      </trkpt>
      <trkpt lat="41.6232220" lon="2.0882140">
        <ele>262.6</ele>
        <time>2022-09-26T07:55:04Z</time>
      </trkpt>
      <trkpt lat="41.6232470" lon="2.0882180">
        <ele>262.8</ele>
        <time>2022-09-26T07:55:05Z</time>
      </trkpt>
      <trkpt lat="41.6232720" lon="2.0882210">
        <ele>262.8</ele>
        <time>2022-09-26T07:55:06Z</time>
      </trkpt>
      <trkpt lat="41.6232970" lon="2.0882240">
        <ele>263.0</ele>
        <time>2022-09-26T07:55:07Z</time>
      </trkpt>
      <trkpt lat="41.6233210" lon="2.0882280">
        <ele>263.2</ele>
        <time>2022-09-26T07:55:08Z</time>
      </trkpt>
      <trkpt lat="41.6233440" lon="2.0882340">
        <ele>263.4</ele>
        <time>2022-09-26T07:55:09Z</time>
      </trkpt>
      <trkpt lat="41.6233680" lon="2.0882400">
        <ele>263.4</ele>
        <time>2022-09-26T07:55:10Z</time>
      </trkpt>
      <trkpt lat="41.6233920" lon="2.0882450">
        <ele>263.6</ele>
        <time>2022-09-26T07:55:11Z</time>
      </trkpt>
      <trkpt lat="41.6234140" lon="2.0882500">
        <ele>264.0</ele>
        <time>2022-09-26T07:55:12Z</time>
      </trkpt>
      <trkpt lat="41.6234360" lon="2.0882560">
        <ele>264.2</ele>
        <time>2022-09-26T07:55:13Z</time>
      </trkpt>
      <trkpt lat="41.6234580" lon="2.0882630">
        <ele>264.4</ele>
        <time>2022-09-26T07:55:14Z</time>
      </trkpt>
      <trkpt lat="41.6234810" lon="2.0882690">
        <ele>264.6</ele>
        <time>2022-09-26T07:55:15Z</time>
      </trkpt>
      <trkpt lat="41.6235030" lon="2.0882740">
        <ele>264.8</ele>
        <time>2022-09-26T07:55:16Z</time>
      </trkpt>
      <trkpt lat="41.6235230" lon="2.0882770">
        <ele>265.0</ele>
        <time>2022-09-26T07:55:17Z</time>
      </trkpt>
      <trkpt lat="41.6235420" lon="2.0882820">
        <ele>265.2</ele>
        <time>2022-09-26T07:55:18Z</time>
      </trkpt>
      <trkpt lat="41.6235610" lon="2.0882870">
        <ele>265.4</ele>
        <time>2022-09-26T07:55:19Z</time>
      </trkpt>
      <trkpt lat="41.6235820" lon="2.0882900">
        <ele>265.6</ele>
        <time>2022-09-26T07:55:20Z</time>
      </trkpt>
      <trkpt lat="41.6236040" lon="2.0882920">
        <ele>265.8</ele>
        <time>2022-09-26T07:55:21Z</time>
      </trkpt>
      <trkpt lat="41.6236280" lon="2.0882960">
        <ele>266.0</ele>
        <time>2022-09-26T07:55:22Z</time>
      </trkpt>
      <trkpt lat="41.6236520" lon="2.0883020">
        <ele>266.2</ele>
        <time>2022-09-26T07:55:23Z</time>
      </trkpt>
      <trkpt lat="41.6236760" lon="2.0883090">
        <ele>266.6</ele>
        <time>2022-09-26T07:55:24Z</time>
      </trkpt>
      <trkpt lat="41.6236990" lon="2.0883180">
        <ele>266.8</ele>
        <time>2022-09-26T07:55:25Z</time>
      </trkpt>
      <trkpt lat="41.6237240" lon="2.0883280">
        <ele>267.0</ele>
        <time>2022-09-26T07:55:26Z</time>
      </trkpt>
      <trkpt lat="41.6237500" lon="2.0883400">
        <ele>267.0</ele>
        <time>2022-09-26T07:55:27Z</time>
      </trkpt>
      <trkpt lat="41.6237770" lon="2.0883530">
        <ele>266.8</ele>
        <time>2022-09-26T07:55:28Z</time>
      </trkpt>
      <trkpt lat="41.6238040" lon="2.0883670">
        <ele>267.0</ele>
        <time>2022-09-26T07:55:29Z</time>
      </trkpt>
      <trkpt lat="41.6238300" lon="2.0883780">
        <ele>266.8</ele>
        <time>2022-09-26T07:55:30Z</time>
      </trkpt>
      <trkpt lat="41.6238560" lon="2.0883880">
        <ele>267.0</ele>
        <time>2022-09-26T07:55:31Z</time>
      </trkpt>
      <trkpt lat="41.6238810" lon="2.0883990">
        <ele>267.0</ele>
        <time>2022-09-26T07:55:32Z</time>
      </trkpt>
      <trkpt lat="41.6239070" lon="2.0884080">
        <ele>267.2</ele>
        <time>2022-09-26T07:55:33Z</time>
      </trkpt>
      <trkpt lat="41.6239350" lon="2.0884160">
        <ele>267.2</ele>
        <time>2022-09-26T07:55:34Z</time>
      </trkpt>
      <trkpt lat="41.6239620" lon="2.0884230">
        <ele>267.2</ele>
        <time>2022-09-26T07:55:35Z</time>
      </trkpt>
      <trkpt lat="41.6239890" lon="2.0884290">
        <ele>267.2</ele>
        <time>2022-09-26T07:55:36Z</time>
      </trkpt>
      <trkpt lat="41.6240160" lon="2.0884360">
        <ele>267.2</ele>
        <time>2022-09-26T07:55:37Z</time>
      </trkpt>
      <trkpt lat="41.6240460" lon="2.0884430">
        <ele>267.4</ele>
        <time>2022-09-26T07:55:38Z</time>
      </trkpt>
      <trkpt lat="41.6240740" lon="2.0884480">
        <ele>267.4</ele>
        <time>2022-09-26T07:55:39Z</time>
      </trkpt>
      <trkpt lat="41.6241020" lon="2.0884520">
        <ele>267.4</ele>
        <time>2022-09-26T07:55:40Z</time>
      </trkpt>
      <trkpt lat="41.6241330" lon="2.0884560">
        <ele>267.4</ele>
        <time>2022-09-26T07:55:41Z</time>
      </trkpt>
      <trkpt lat="41.6241640" lon="2.0884600">
        <ele>267.4</ele>
        <time>2022-09-26T07:55:42Z</time>
      </trkpt>
      <trkpt lat="41.6241950" lon="2.0884700">
        <ele>267.4</ele>
        <time>2022-09-26T07:55:43Z</time>
      </trkpt>
      <trkpt lat="41.6242260" lon="2.0884850">
        <ele>267.2</ele>
        <time>2022-09-26T07:55:44Z</time>
      </trkpt>
      <trkpt lat="41.6242580" lon="2.0884980">
        <ele>267.2</ele>
        <time>2022-09-26T07:55:45Z</time>
      </trkpt>
      <trkpt lat="41.6242890" lon="2.0885100">
        <ele>267.2</ele>
        <time>2022-09-26T07:55:46Z</time>
      </trkpt>
      <trkpt lat="41.6243190" lon="2.0885230">
        <ele>267.2</ele>
        <time>2022-09-26T07:55:47Z</time>
      </trkpt>
      <trkpt lat="41.6243510" lon="2.0885380">
        <ele>267.0</ele>
        <time>2022-09-26T07:55:48Z</time>
      </trkpt>
      <trkpt lat="41.6243790" lon="2.0885490">
        <ele>267.0</ele>
        <time>2022-09-26T07:55:49Z</time>
      </trkpt>
      <trkpt lat="41.6244070" lon="2.0885640">
        <ele>267.0</ele>
        <time>2022-09-26T07:55:50Z</time>
      </trkpt>
      <trkpt lat="41.6244400" lon="2.0885820">
        <ele>267.2</ele>
        <time>2022-09-26T07:55:51Z</time>
      </trkpt>
      <trkpt lat="41.6244720" lon="2.0886010">
        <ele>267.2</ele>
        <time>2022-09-26T07:55:52Z</time>
      </trkpt>
      <trkpt lat="41.6245040" lon="2.0886190">
        <ele>267.2</ele>
        <time>2022-09-26T07:55:53Z</time>
      </trkpt>
      <trkpt lat="41.6245380" lon="2.0886400">
        <ele>267.2</ele>
        <time>2022-09-26T07:55:54Z</time>
      </trkpt>
      <trkpt lat="41.6245710" lon="2.0886630">
        <ele>267.2</ele>
        <time>2022-09-26T07:55:55Z</time>
      </trkpt>
      <trkpt lat="41.6246060" lon="2.0886850">
        <ele>267.2</ele>
        <time>2022-09-26T07:55:56Z</time>
      </trkpt>
      <trkpt lat="41.6246360" lon="2.0887080">
        <ele>267.2</ele>
        <time>2022-09-26T07:55:57Z</time>
      </trkpt>
      <trkpt lat="41.6246640" lon="2.0887340">
        <ele>266.8</ele>
        <time>2022-09-26T07:55:58Z</time>
      </trkpt>
      <trkpt lat="41.6246980" lon="2.0887580">
        <ele>266.8</ele>
        <time>2022-09-26T07:55:59Z</time>
      </trkpt>
      <trkpt lat="41.6247340" lon="2.0887770">
        <ele>266.6</ele>
        <time>2022-09-26T07:56:00Z</time>
      </trkpt>
      <trkpt lat="41.6247700" lon="2.0887940">
        <ele>266.6</ele>
        <time>2022-09-26T07:56:01Z</time>
      </trkpt>
      <trkpt lat="41.6248040" lon="2.0888130">
        <ele>266.6</ele>
        <time>2022-09-26T07:56:02Z</time>
      </trkpt>
      <trkpt lat="41.6248400" lon="2.0888350">
        <ele>266.6</ele>
        <time>2022-09-26T07:56:03Z</time>
      </trkpt>
      <trkpt lat="41.6248790" lon="2.0888580">
        <ele>266.6</ele>
        <time>2022-09-26T07:56:04Z</time>
      </trkpt>
      <trkpt lat="41.6249170" lon="2.0888800">
        <ele>266.8</ele>
        <time>2022-09-26T07:56:05Z</time>
      </trkpt>
      <trkpt lat="41.6249550" lon="2.0889030">
        <ele>266.8</ele>
        <time>2022-09-26T07:56:06Z</time>
      </trkpt>
      <trkpt lat="41.6249920" lon="2.0889260">
        <ele>266.8</ele>
        <time>2022-09-26T07:56:07Z</time>
      </trkpt>
      <trkpt lat="41.6250300" lon="2.0889480">
        <ele>266.8</ele>
        <time>2022-09-26T07:56:08Z</time>
      </trkpt>
      <trkpt lat="41.6250670" lon="2.0889710">
        <ele>266.8</ele>
        <time>2022-09-26T07:56:09Z</time>
      </trkpt>
      <trkpt lat="41.6251050" lon="2.0889900">
        <ele>267.0</ele>
        <time>2022-09-26T07:56:10Z</time>
      </trkpt>
      <trkpt lat="41.6251400" lon="2.0890090">
        <ele>267.0</ele>
        <time>2022-09-26T07:56:11Z</time>
      </trkpt>
      <trkpt lat="41.6251730" lon="2.0890320">
        <ele>267.2</ele>
        <time>2022-09-26T07:56:12Z</time>
      </trkpt>
      <trkpt lat="41.6252040" lon="2.0890540">
        <ele>267.2</ele>
        <time>2022-09-26T07:56:13Z</time>
      </trkpt>
      <trkpt lat="41.6252350" lon="2.0890730">
        <ele>267.4</ele>
        <time>2022-09-26T07:56:14Z</time>
      </trkpt>
      <trkpt lat="41.6252660" lon="2.0890920">
        <ele>267.4</ele>
        <time>2022-09-26T07:56:15Z</time>
      </trkpt>
      <trkpt lat="41.6252970" lon="2.0891070">
        <ele>267.6</ele>
        <time>2022-09-26T07:56:16Z</time>
      </trkpt>
      <trkpt lat="41.6253240" lon="2.0891170">
        <ele>267.6</ele>
        <time>2022-09-26T07:56:17Z</time>
      </trkpt>
      <trkpt lat="41.6253510" lon="2.0891290">
        <ele>267.8</ele>
        <time>2022-09-26T07:56:18Z</time>
      </trkpt>
      <trkpt lat="41.6253790" lon="2.0891430">
        <ele>268.0</ele>
        <time>2022-09-26T07:56:19Z</time>
      </trkpt>
      <trkpt lat="41.6254090" lon="2.0891590">
        <ele>268.0</ele>
        <time>2022-09-26T07:56:20Z</time>
      </trkpt>
      <trkpt lat="41.6254430" lon="2.0891790">
        <ele>268.2</ele>
        <time>2022-09-26T07:56:21Z</time>
      </trkpt>
      <trkpt lat="41.6254750" lon="2.0891990">
        <ele>268.4</ele>
        <time>2022-09-26T07:56:22Z</time>
      </trkpt>
      <trkpt lat="41.6255050" lon="2.0892170">
        <ele>268.4</ele>
        <time>2022-09-26T07:56:23Z</time>
      </trkpt>
      <trkpt lat="41.6255360" lon="2.0892380">
        <ele>268.4</ele>
        <time>2022-09-26T07:56:24Z</time>
      </trkpt>
      <trkpt lat="41.6255690" lon="2.0892580">
        <ele>268.6</ele>
        <time>2022-09-26T07:56:25Z</time>
      </trkpt>
      <trkpt lat="41.6256000" lon="2.0892720">
        <ele>268.6</ele>
        <time>2022-09-26T07:56:26Z</time>
      </trkpt>
      <trkpt lat="41.6256310" lon="2.0892870">
        <ele>268.6</ele>
        <time>2022-09-26T07:56:27Z</time>
      </trkpt>
      <trkpt lat="41.6256590" lon="2.0893080">
        <ele>268.6</ele>
        <time>2022-09-26T07:56:28Z</time>
      </trkpt>
      <trkpt lat="41.6256870" lon="2.0893230">
        <ele>268.8</ele>
        <time>2022-09-26T07:56:29Z</time>
      </trkpt>
      <trkpt lat="41.6257170" lon="2.0893400">
        <ele>268.8</ele>
        <time>2022-09-26T07:56:30Z</time>
      </trkpt>
      <trkpt lat="41.6257440" lon="2.0893550">
        <ele>269.0</ele>
        <time>2022-09-26T07:56:31Z</time>
      </trkpt>
      <trkpt lat="41.6257710" lon="2.0893700">
        <ele>269.0</ele>
        <time>2022-09-26T07:56:32Z</time>
      </trkpt>
      <trkpt lat="41.6258020" lon="2.0893880">
        <ele>269.2</ele>
        <time>2022-09-26T07:56:33Z</time>
      </trkpt>
      <trkpt lat="41.6258360" lon="2.0894070">
        <ele>269.4</ele>
        <time>2022-09-26T07:56:34Z</time>
      </trkpt>
      <trkpt lat="41.6258680" lon="2.0894310">
        <ele>269.4</ele>
        <time>2022-09-26T07:56:35Z</time>
      </trkpt>
      <trkpt lat="41.6258980" lon="2.0894530">
        <ele>269.6</ele>
        <time>2022-09-26T07:56:36Z</time>
      </trkpt>
      <trkpt lat="41.6259270" lon="2.0894700">
        <ele>269.6</ele>
        <time>2022-09-26T07:56:37Z</time>
      </trkpt>
      <trkpt lat="41.6259570" lon="2.0894880">
        <ele>269.8</ele>
        <time>2022-09-26T07:56:38Z</time>
      </trkpt>
      <trkpt lat="41.6259840" lon="2.0895070">
        <ele>269.8</ele>
        <time>2022-09-26T07:56:39Z</time>
      </trkpt>
      <trkpt lat="41.6260100" lon="2.0895250">
        <ele>270.0</ele>
        <time>2022-09-26T07:56:40Z</time>
      </trkpt>
      <trkpt lat="41.6260380" lon="2.0895440">
        <ele>270.2</ele>
        <time>2022-09-26T07:56:41Z</time>
      </trkpt>
      <trkpt lat="41.6260640" lon="2.0895600">
        <ele>270.4</ele>
        <time>2022-09-26T07:56:42Z</time>
      </trkpt>
      <trkpt lat="41.6260890" lon="2.0895740">
        <ele>270.6</ele>
        <time>2022-09-26T07:56:43Z</time>
      </trkpt>
      <trkpt lat="41.6261130" lon="2.0895850">
        <ele>270.8</ele>
        <time>2022-09-26T07:56:44Z</time>
      </trkpt>
      <trkpt lat="41.6261370" lon="2.0895980">
        <ele>271.0</ele>
        <time>2022-09-26T07:56:45Z</time>
      </trkpt>
      <trkpt lat="41.6261600" lon="2.0896130">
        <ele>271.4</ele>
        <time>2022-09-26T07:56:46Z</time>
      </trkpt>
      <trkpt lat="41.6261810" lon="2.0896270">
        <ele>271.6</ele>
        <time>2022-09-26T07:56:47Z</time>
      </trkpt>
      <trkpt lat="41.6262030" lon="2.0896420">
        <ele>271.8</ele>
        <time>2022-09-26T07:56:48Z</time>
      </trkpt>
      <trkpt lat="41.6262270" lon="2.0896570">
        <ele>272.0</ele>
        <time>2022-09-26T07:56:49Z</time>
      </trkpt>
      <trkpt lat="41.6262490" lon="2.0896700">
        <ele>272.2</ele>
        <time>2022-09-26T07:56:50Z</time>
      </trkpt>
      <trkpt lat="41.6262720" lon="2.0896840">
        <ele>272.6</ele>
        <time>2022-09-26T07:56:51Z</time>
      </trkpt>
      <trkpt lat="41.6262950" lon="2.0896980">
        <ele>272.8</ele>
        <time>2022-09-26T07:56:52Z</time>
      </trkpt>
      <trkpt lat="41.6263190" lon="2.0897090">
        <ele>273.2</ele>
        <time>2022-09-26T07:56:53Z</time>
      </trkpt>
      <trkpt lat="41.6263420" lon="2.0897190">
        <ele>273.4</ele>
        <time>2022-09-26T07:56:54Z</time>
      </trkpt>
      <trkpt lat="41.6263670" lon="2.0897330">
        <ele>273.6</ele>
        <time>2022-09-26T07:56:55Z</time>
      </trkpt>
      <trkpt lat="41.6263920" lon="2.0897470">
        <ele>273.8</ele>
        <time>2022-09-26T07:56:56Z</time>
      </trkpt>
      <trkpt lat="41.6264190" lon="2.0897600">
        <ele>274.0</ele>
        <time>2022-09-26T07:56:57Z</time>
      </trkpt>
      <trkpt lat="41.6264430" lon="2.0897660">
        <ele>274.2</ele>
        <time>2022-09-26T07:56:58Z</time>
      </trkpt>
      <trkpt lat="41.6264700" lon="2.0897720">
        <ele>274.4</ele>
        <time>2022-09-26T07:56:59Z</time>
      </trkpt>
      <trkpt lat="41.6264970" lon="2.0897760">
        <ele>274.4</ele>
        <time>2022-09-26T07:57:00Z</time>
      </trkpt>
      <trkpt lat="41.6265230" lon="2.0897750">
        <ele>274.6</ele>
        <time>2022-09-26T07:57:01Z</time>
      </trkpt>
      <trkpt lat="41.6265500" lon="2.0897680">
        <ele>274.8</ele>
        <time>2022-09-26T07:57:02Z</time>
      </trkpt>
      <trkpt lat="41.6265750" lon="2.0897570">
        <ele>275.0</ele>
        <time>2022-09-26T07:57:03Z</time>
      </trkpt>
      <trkpt lat="41.6266000" lon="2.0897460">
        <ele>275.2</ele>
        <time>2022-09-26T07:57:04Z</time>
      </trkpt>
      <trkpt lat="41.6266250" lon="2.0897350">
        <ele>275.4</ele>
        <time>2022-09-26T07:57:05Z</time>
      </trkpt>
      <trkpt lat="41.6266500" lon="2.0897230">
        <ele>275.6</ele>
        <time>2022-09-26T07:57:06Z</time>
      </trkpt>
      <trkpt lat="41.6266740" lon="2.0897100">
        <ele>275.8</ele>
        <time>2022-09-26T07:57:07Z</time>
      </trkpt>
      <trkpt lat="41.6266980" lon="2.0896970">
        <ele>275.8</ele>
        <time>2022-09-26T07:57:08Z</time>
      </trkpt>
      <trkpt lat="41.6267210" lon="2.0896860">
        <ele>276.0</ele>
        <time>2022-09-26T07:57:09Z</time>
      </trkpt>
      <trkpt lat="41.6267420" lon="2.0896730">
        <ele>276.2</ele>
        <time>2022-09-26T07:57:10Z</time>
      </trkpt>
      <trkpt lat="41.6267650" lon="2.0896640">
        <ele>276.2</ele>
        <time>2022-09-26T07:57:11Z</time>
      </trkpt>
      <trkpt lat="41.6267880" lon="2.0896580">
        <ele>276.4</ele>
        <time>2022-09-26T07:57:12Z</time>
      </trkpt>
      <trkpt lat="41.6268120" lon="2.0896500">
        <ele>276.6</ele>
        <time>2022-09-26T07:57:13Z</time>
      </trkpt>
      <trkpt lat="41.6268350" lon="2.0896450">
        <ele>276.8</ele>
        <time>2022-09-26T07:57:14Z</time>
      </trkpt>
      <trkpt lat="41.6268580" lon="2.0896430">
        <ele>277.0</ele>
        <time>2022-09-26T07:57:15Z</time>
      </trkpt>
      <trkpt lat="41.6268810" lon="2.0896390">
        <ele>277.0</ele>
        <time>2022-09-26T07:57:16Z</time>
      </trkpt>
      <trkpt lat="41.6269030" lon="2.0896390">
        <ele>277.2</ele>
        <time>2022-09-26T07:57:17Z</time>
      </trkpt>
      <trkpt lat="41.6269270" lon="2.0896400">
        <ele>277.2</ele>
        <time>2022-09-26T07:57:18Z</time>
      </trkpt>
      <trkpt lat="41.6269480" lon="2.0896350">
        <ele>277.4</ele>
        <time>2022-09-26T07:57:19Z</time>
      </trkpt>
      <trkpt lat="41.6269690" lon="2.0896400">
        <ele>277.6</ele>
        <time>2022-09-26T07:57:20Z</time>
      </trkpt>
      <trkpt lat="41.6269900" lon="2.0896420">
        <ele>277.8</ele>
        <time>2022-09-26T07:57:21Z</time>
      </trkpt>
      <trkpt lat="41.6270110" lon="2.0896380">
        <ele>278.2</ele>
        <time>2022-09-26T07:57:22Z</time>
      </trkpt>
      <trkpt lat="41.6270300" lon="2.0896360">
        <ele>278.4</ele>
        <time>2022-09-26T07:57:23Z</time>
      </trkpt>
      <trkpt lat="41.6270470" lon="2.0896220">
        <ele>278.8</ele>
        <time>2022-09-26T07:57:24Z</time>
      </trkpt>
      <trkpt lat="41.6270720" lon="2.0896230">
        <ele>279.0</ele>
        <time>2022-09-26T07:57:25Z</time>
      </trkpt>
      <trkpt lat="41.6270950" lon="2.0896250">
        <ele>279.4</ele>
        <time>2022-09-26T07:57:26Z</time>
      </trkpt>
      <trkpt lat="41.6271170" lon="2.0896270">
        <ele>279.4</ele>
        <time>2022-09-26T07:57:27Z</time>
      </trkpt>
      <trkpt lat="41.6271410" lon="2.0896290">
        <ele>279.4</ele>
        <time>2022-09-26T07:57:28Z</time>
      </trkpt>
      <trkpt lat="41.6271650" lon="2.0896370">
        <ele>279.4</ele>
        <time>2022-09-26T07:57:29Z</time>
      </trkpt>
      <trkpt lat="41.6271870" lon="2.0896500">
        <ele>279.4</ele>
        <time>2022-09-26T07:57:30Z</time>
      </trkpt>
      <trkpt lat="41.6272090" lon="2.0896590">
        <ele>279.4</ele>
        <time>2022-09-26T07:57:31Z</time>
      </trkpt>
      <trkpt lat="41.6272320" lon="2.0896690">
        <ele>279.2</ele>
        <time>2022-09-26T07:57:32Z</time>
      </trkpt>
      <trkpt lat="41.6272550" lon="2.0896810">
        <ele>279.4</ele>
        <time>2022-09-26T07:57:33Z</time>
      </trkpt>
      <trkpt lat="41.6272790" lon="2.0896930">
        <ele>279.6</ele>
        <time>2022-09-26T07:57:34Z</time>
      </trkpt>
      <trkpt lat="41.6273030" lon="2.0897050">
        <ele>279.8</ele>
        <time>2022-09-26T07:57:35Z</time>
      </trkpt>
      <trkpt lat="41.6273270" lon="2.0897160">
        <ele>279.8</ele>
        <time>2022-09-26T07:57:36Z</time>
      </trkpt>
      <trkpt lat="41.6273500" lon="2.0897260">
        <ele>280.0</ele>
        <time>2022-09-26T07:57:37Z</time>
      </trkpt>
      <trkpt lat="41.6273730" lon="2.0897370">
        <ele>280.2</ele>
        <time>2022-09-26T07:57:38Z</time>
      </trkpt>
      <trkpt lat="41.6273940" lon="2.0897470">
        <ele>280.4</ele>
        <time>2022-09-26T07:57:39Z</time>
      </trkpt>
      <trkpt lat="41.6274150" lon="2.0897550">
        <ele>280.4</ele>
        <time>2022-09-26T07:57:40Z</time>
      </trkpt>
      <trkpt lat="41.6274340" lon="2.0897660">
        <ele>280.6</ele>
        <time>2022-09-26T07:57:41Z</time>
      </trkpt>
      <trkpt lat="41.6274540" lon="2.0897750">
        <ele>281.0</ele>
        <time>2022-09-26T07:57:42Z</time>
      </trkpt>
      <trkpt lat="41.6274750" lon="2.0897830">
        <ele>281.4</ele>
        <time>2022-09-26T07:57:43Z</time>
      </trkpt>
      <trkpt lat="41.6274980" lon="2.0897910">
        <ele>281.6</ele>
        <time>2022-09-26T07:57:44Z</time>
      </trkpt>
      <trkpt lat="41.6275200" lon="2.0897990">
        <ele>281.8</ele>
        <time>2022-09-26T07:57:45Z</time>
      </trkpt>
      <trkpt lat="41.6275410" lon="2.0898060">
        <ele>281.8</ele>
        <time>2022-09-26T07:57:46Z</time>
      </trkpt>
      <trkpt lat="41.6275610" lon="2.0898130">
        <ele>282.0</ele>
        <time>2022-09-26T07:57:47Z</time>
      </trkpt>
      <trkpt lat="41.6275840" lon="2.0898200">
        <ele>282.4</ele>
        <time>2022-09-26T07:57:48Z</time>
      </trkpt>
      <trkpt lat="41.6276050" lon="2.0898260">
        <ele>282.6</ele>
        <time>2022-09-26T07:57:49Z</time>
      </trkpt>
      <trkpt lat="41.6276270" lon="2.0898370">
        <ele>282.8</ele>
        <time>2022-09-26T07:57:50Z</time>
      </trkpt>
      <trkpt lat="41.6276500" lon="2.0898480">
        <ele>283.0</ele>
        <time>2022-09-26T07:57:51Z</time>
      </trkpt>
      <trkpt lat="41.6276720" lon="2.0898610">
        <ele>283.2</ele>
        <time>2022-09-26T07:57:52Z</time>
      </trkpt>
      <trkpt lat="41.6276930" lon="2.0898740">
        <ele>283.2</ele>
        <time>2022-09-26T07:57:53Z</time>
      </trkpt>
      <trkpt lat="41.6277170" lon="2.0898820">
        <ele>283.2</ele>
        <time>2022-09-26T07:57:54Z</time>
      </trkpt>
      <trkpt lat="41.6277420" lon="2.0898860">
        <ele>283.4</ele>
        <time>2022-09-26T07:57:55Z</time>
      </trkpt>
      <trkpt lat="41.6277630" lon="2.0898920">
        <ele>283.6</ele>
        <time>2022-09-26T07:57:56Z</time>
      </trkpt>
      <trkpt lat="41.6277780" lon="2.0898970">
        <ele>283.8</ele>
        <time>2022-09-26T07:57:57Z</time>
      </trkpt>
      <trkpt lat="41.6277940" lon="2.0899030">
        <ele>284.0</ele>
        <time>2022-09-26T07:57:58Z</time>
      </trkpt>
      <trkpt lat="41.6278110" lon="2.0899110">
        <ele>284.2</ele>
        <time>2022-09-26T07:57:59Z</time>
      </trkpt>
      <trkpt lat="41.6278250" lon="2.0899190">
        <ele>284.4</ele>
        <time>2022-09-26T07:58:00Z</time>
      </trkpt>
      <trkpt lat="41.6278390" lon="2.0899260">
        <ele>284.4</ele>
        <time>2022-09-26T07:58:01Z</time>
      </trkpt>
      <trkpt lat="41.6278540" lon="2.0899340">
        <ele>284.6</ele>
        <time>2022-09-26T07:58:02Z</time>
      </trkpt>
      <trkpt lat="41.6278730" lon="2.0899450">
        <ele>284.6</ele>
        <time>2022-09-26T07:58:03Z</time>
      </trkpt>
      <trkpt lat="41.6278910" lon="2.0899530">
        <ele>284.6</ele>
        <time>2022-09-26T07:58:04Z</time>
      </trkpt>
      <trkpt lat="41.6279100" lon="2.0899590">
        <ele>284.8</ele>
        <time>2022-09-26T07:58:05Z</time>
      </trkpt>
      <trkpt lat="41.6279250" lon="2.0899640">
        <ele>285.0</ele>
        <time>2022-09-26T07:58:06Z</time>
      </trkpt>
      <trkpt lat="41.6279450" lon="2.0899740">
        <ele>285.2</ele>
        <time>2022-09-26T07:58:07Z</time>
      </trkpt>
      <trkpt lat="41.6279610" lon="2.0899820">
        <ele>285.0</ele>
        <time>2022-09-26T07:58:08Z</time>
      </trkpt>
      <trkpt lat="41.6279750" lon="2.0899890">
        <ele>285.4</ele>
        <time>2022-09-26T07:58:09Z</time>
      </trkpt>
      <trkpt lat="41.6279910" lon="2.0899930">
        <ele>285.6</ele>
        <time>2022-09-26T07:58:10Z</time>
      </trkpt>
      <trkpt lat="41.6280060" lon="2.0899960">
        <ele>285.8</ele>
        <time>2022-09-26T07:58:11Z</time>
      </trkpt>
      <trkpt lat="41.6280230" lon="2.0900060">
        <ele>285.8</ele>
        <time>2022-09-26T07:58:12Z</time>
      </trkpt>
      <trkpt lat="41.6280410" lon="2.0900170">
        <ele>286.0</ele>
        <time>2022-09-26T07:58:13Z</time>
      </trkpt>
      <trkpt lat="41.6280570" lon="2.0900220">
        <ele>286.2</ele>
        <time>2022-09-26T07:58:14Z</time>
      </trkpt>
      <trkpt lat="41.6280750" lon="2.0900300">
        <ele>286.6</ele>
        <time>2022-09-26T07:58:15Z</time>
      </trkpt>
      <trkpt lat="41.6280950" lon="2.0900380">
        <ele>286.6</ele>
        <time>2022-09-26T07:58:16Z</time>
      </trkpt>
      <trkpt lat="41.6281130" lon="2.0900460">
        <ele>286.8</ele>
        <time>2022-09-26T07:58:17Z</time>
      </trkpt>
      <trkpt lat="41.6281280" lon="2.0900510">
        <ele>287.0</ele>
        <time>2022-09-26T07:58:18Z</time>
      </trkpt>
      <trkpt lat="41.6281410" lon="2.0900520">
        <ele>287.2</ele>
        <time>2022-09-26T07:58:19Z</time>
      </trkpt>
      <trkpt lat="41.6281600" lon="2.0900600">
        <ele>287.4</ele>
        <time>2022-09-26T07:58:20Z</time>
      </trkpt>
      <trkpt lat="41.6281810" lon="2.0900630">
        <ele>287.6</ele>
        <time>2022-09-26T07:58:21Z</time>
      </trkpt>
      <trkpt lat="41.6282020" lon="2.0900670">
        <ele>288.0</ele>
        <time>2022-09-26T07:58:22Z</time>
      </trkpt>
      <trkpt lat="41.6282220" lon="2.0900700">
        <ele>288.0</ele>
        <time>2022-09-26T07:58:23Z</time>
      </trkpt>
      <trkpt lat="41.6282460" lon="2.0900740">
        <ele>288.2</ele>
        <time>2022-09-26T07:58:24Z</time>
      </trkpt>
      <trkpt lat="41.6282730" lon="2.0900750">
        <ele>288.2</ele>
        <time>2022-09-26T07:58:25Z</time>
      </trkpt>
      <trkpt lat="41.6283000" lon="2.0900730">
        <ele>288.2</ele>
        <time>2022-09-26T07:58:26Z</time>
      </trkpt>
      <trkpt lat="41.6283280" lon="2.0900690">
        <ele>288.4</ele>
        <time>2022-09-26T07:58:27Z</time>
      </trkpt>
      <trkpt lat="41.6283530" lon="2.0900640">
        <ele>288.4</ele>
        <time>2022-09-26T07:58:28Z</time>
      </trkpt>
      <trkpt lat="41.6283790" lon="2.0900610">
        <ele>288.4</ele>
        <time>2022-09-26T07:58:29Z</time>
      </trkpt>
      <trkpt lat="41.6284040" lon="2.0900560">
        <ele>288.6</ele>
        <time>2022-09-26T07:58:30Z</time>
      </trkpt>
      <trkpt lat="41.6284280" lon="2.0900500">
        <ele>288.4</ele>
        <time>2022-09-26T07:58:31Z</time>
      </trkpt>
      <trkpt lat="41.6284510" lon="2.0900440">
        <ele>288.6</ele>
        <time>2022-09-26T07:58:32Z</time>
      </trkpt>
      <trkpt lat="41.6284730" lon="2.0900400">
        <ele>288.8</ele>
        <time>2022-09-26T07:58:33Z</time>
      </trkpt>
      <trkpt lat="41.6284990" lon="2.0900330">
        <ele>288.8</ele>
        <time>2022-09-26T07:58:34Z</time>
      </trkpt>
      <trkpt lat="41.6285260" lon="2.0900270">
        <ele>289.0</ele>
        <time>2022-09-26T07:58:35Z</time>
      </trkpt>
      <trkpt lat="41.6285510" lon="2.0900210">
        <ele>289.0</ele>
        <time>2022-09-26T07:58:36Z</time>
      </trkpt>
      <trkpt lat="41.6285750" lon="2.0900130">
        <ele>289.2</ele>
        <time>2022-09-26T07:58:37Z</time>
      </trkpt>
      <trkpt lat="41.6285980" lon="2.0900030">
        <ele>289.4</ele>
        <time>2022-09-26T07:58:38Z</time>
      </trkpt>
      <trkpt lat="41.6286200" lon="2.0899940">
        <ele>289.6</ele>
        <time>2022-09-26T07:58:39Z</time>
      </trkpt>
      <trkpt lat="41.6286420" lon="2.0899860">
        <ele>289.6</ele>
        <time>2022-09-26T07:58:40Z</time>
      </trkpt>
      <trkpt lat="41.6286660" lon="2.0899750">
        <ele>289.8</ele>
        <time>2022-09-26T07:58:41Z</time>
      </trkpt>
      <trkpt lat="41.6286900" lon="2.0899670">
        <ele>289.8</ele>
        <time>2022-09-26T07:58:42Z</time>
      </trkpt>
      <trkpt lat="41.6287150" lon="2.0899560">
        <ele>289.8</ele>
        <time>2022-09-26T07:58:43Z</time>
      </trkpt>
      <trkpt lat="41.6287390" lon="2.0899460">
        <ele>290.0</ele>
        <time>2022-09-26T07:58:44Z</time>
      </trkpt>
      <trkpt lat="41.6287620" lon="2.0899370">
        <ele>290.0</ele>
        <time>2022-09-26T07:58:45Z</time>
      </trkpt>
      <trkpt lat="41.6287860" lon="2.0899280">
        <ele>290.2</ele>
        <time>2022-09-26T07:58:46Z</time>
      </trkpt>
      <trkpt lat="41.6288090" lon="2.0899180">
        <ele>290.2</ele>
        <time>2022-09-26T07:58:47Z</time>
      </trkpt>
      <trkpt lat="41.6288310" lon="2.0899110">
        <ele>290.4</ele>
        <time>2022-09-26T07:58:48Z</time>
      </trkpt>
      <trkpt lat="41.6288510" lon="2.0899030">
        <ele>290.6</ele>
        <time>2022-09-26T07:58:49Z</time>
      </trkpt>
      <trkpt lat="41.6288730" lon="2.0898950">
        <ele>290.8</ele>
        <time>2022-09-26T07:58:50Z</time>
      </trkpt>
      <trkpt lat="41.6288940" lon="2.0898810">
        <ele>290.8</ele>
        <time>2022-09-26T07:58:51Z</time>
      </trkpt>
      <trkpt lat="41.6289170" lon="2.0898660">
        <ele>291.0</ele>
        <time>2022-09-26T07:58:52Z</time>
      </trkpt>
      <trkpt lat="41.6289390" lon="2.0898530">
        <ele>291.0</ele>
        <time>2022-09-26T07:58:53Z</time>
      </trkpt>
      <trkpt lat="41.6289610" lon="2.0898380">
        <ele>291.2</ele>
        <time>2022-09-26T07:58:54Z</time>
      </trkpt>
      <trkpt lat="41.6289850" lon="2.0898220">
        <ele>291.2</ele>
        <time>2022-09-26T07:58:55Z</time>
      </trkpt>
      <trkpt lat="41.6290080" lon="2.0898080">
        <ele>291.4</ele>
        <time>2022-09-26T07:58:56Z</time>
      </trkpt>
      <trkpt lat="41.6290320" lon="2.0897940">
        <ele>291.6</ele>
        <time>2022-09-26T07:58:57Z</time>
      </trkpt>
      <trkpt lat="41.6290550" lon="2.0897800">
        <ele>291.8</ele>
        <time>2022-09-26T07:58:58Z</time>
      </trkpt>
      <trkpt lat="41.6290760" lon="2.0897660">
        <ele>291.8</ele>
        <time>2022-09-26T07:58:59Z</time>
      </trkpt>
      <trkpt lat="41.6290970" lon="2.0897550">
        <ele>291.8</ele>
        <time>2022-09-26T07:59:00Z</time>
      </trkpt>
      <trkpt lat="41.6291190" lon="2.0897390">
        <ele>292.0</ele>
        <time>2022-09-26T07:59:01Z</time>
      </trkpt>
      <trkpt lat="41.6291400" lon="2.0897280">
        <ele>292.2</ele>
        <time>2022-09-26T07:59:02Z</time>
      </trkpt>
      <trkpt lat="41.6291610" lon="2.0897170">
        <ele>292.2</ele>
        <time>2022-09-26T07:59:03Z</time>
      </trkpt>
      <trkpt lat="41.6291830" lon="2.0897050">
        <ele>292.4</ele>
        <time>2022-09-26T07:59:04Z</time>
      </trkpt>
      <trkpt lat="41.6292030" lon="2.0896960">
        <ele>292.6</ele>
        <time>2022-09-26T07:59:05Z</time>
      </trkpt>
      <trkpt lat="41.6292250" lon="2.0896900">
        <ele>292.8</ele>
        <time>2022-09-26T07:59:06Z</time>
      </trkpt>
      <trkpt lat="41.6292470" lon="2.0896840">
        <ele>293.0</ele>
        <time>2022-09-26T07:59:07Z</time>
      </trkpt>
      <trkpt lat="41.6292680" lon="2.0896810">
        <ele>293.0</ele>
        <time>2022-09-26T07:59:08Z</time>
      </trkpt>
      <trkpt lat="41.6292910" lon="2.0896790">
        <ele>293.2</ele>
        <time>2022-09-26T07:59:09Z</time>
      </trkpt>
      <trkpt lat="41.6293140" lon="2.0896770">
        <ele>293.4</ele>
        <time>2022-09-26T07:59:10Z</time>
      </trkpt>
      <trkpt lat="41.6293350" lon="2.0896740">
        <ele>293.8</ele>
        <time>2022-09-26T07:59:11Z</time>
      </trkpt>
      <trkpt lat="41.6293550" lon="2.0896720">
        <ele>294.0</ele>
        <time>2022-09-26T07:59:12Z</time>
      </trkpt>
      <trkpt lat="41.6293750" lon="2.0896680">
        <ele>294.2</ele>
        <time>2022-09-26T07:59:13Z</time>
      </trkpt>
      <trkpt lat="41.6293940" lon="2.0896680">
        <ele>294.4</ele>
        <time>2022-09-26T07:59:14Z</time>
      </trkpt>
      <trkpt lat="41.6294080" lon="2.0896700">
        <ele>294.6</ele>
        <time>2022-09-26T07:59:15Z</time>
      </trkpt>
      <trkpt lat="41.6294250" lon="2.0896770">
        <ele>295.0</ele>
        <time>2022-09-26T07:59:16Z</time>
      </trkpt>
      <trkpt lat="41.6294420" lon="2.0896860">
        <ele>295.0</ele>
        <time>2022-09-26T07:59:17Z</time>
      </trkpt>
      <trkpt lat="41.6294600" lon="2.0896950">
        <ele>295.2</ele>
        <time>2022-09-26T07:59:18Z</time>
      </trkpt>
      <trkpt lat="41.6294770" lon="2.0897050">
        <ele>295.2</ele>
        <time>2022-09-26T07:59:19Z</time>
      </trkpt>
      <trkpt lat="41.6294930" lon="2.0897190">
        <ele>295.2</ele>
        <time>2022-09-26T07:59:20Z</time>
      </trkpt>
      <trkpt lat="41.6295070" lon="2.0897290">
        <ele>295.4</ele>
        <time>2022-09-26T07:59:21Z</time>
      </trkpt>
      <trkpt lat="41.6295210" lon="2.0897420">
        <ele>295.6</ele>
        <time>2022-09-26T07:59:22Z</time>
      </trkpt>
      <trkpt lat="41.6295310" lon="2.0897560">
        <ele>295.8</ele>
        <time>2022-09-26T07:59:23Z</time>
      </trkpt>
      <trkpt lat="41.6295400" lon="2.0897740">
        <ele>295.8</ele>
        <time>2022-09-26T07:59:24Z</time>
      </trkpt>
      <trkpt lat="41.6295520" lon="2.0897920">
        <ele>296.0</ele>
        <time>2022-09-26T07:59:25Z</time>
      </trkpt>
      <trkpt lat="41.6295660" lon="2.0898090">
        <ele>296.4</ele>
        <time>2022-09-26T07:59:26Z</time>
      </trkpt>
      <trkpt lat="41.6295790" lon="2.0898290">
        <ele>296.6</ele>
        <time>2022-09-26T07:59:27Z</time>
      </trkpt>
      <trkpt lat="41.6295890" lon="2.0898490">
        <ele>297.0</ele>
        <time>2022-09-26T07:59:28Z</time>
      </trkpt>
      <trkpt lat="41.6296010" lon="2.0898700">
        <ele>297.0</ele>
        <time>2022-09-26T07:59:29Z</time>
      </trkpt>
      <trkpt lat="41.6296160" lon="2.0898910">
        <ele>297.4</ele>
        <time>2022-09-26T07:59:30Z</time>
      </trkpt>
      <trkpt lat="41.6296280" lon="2.0899100">
        <ele>297.6</ele>
        <time>2022-09-26T07:59:31Z</time>
      </trkpt>
      <trkpt lat="41.6296400" lon="2.0899310">
        <ele>297.8</ele>
        <time>2022-09-26T07:59:32Z</time>
      </trkpt>
      <trkpt lat="41.6296490" lon="2.0899540">
        <ele>298.0</ele>
        <time>2022-09-26T07:59:33Z</time>
      </trkpt>
      <trkpt lat="41.6296600" lon="2.0899770">
        <ele>298.4</ele>
        <time>2022-09-26T07:59:34Z</time>
      </trkpt>
      <trkpt lat="41.6296730" lon="2.0900010">
        <ele>298.6</ele>
        <time>2022-09-26T07:59:35Z</time>
      </trkpt>
      <trkpt lat="41.6296860" lon="2.0900230">
        <ele>298.8</ele>
        <time>2022-09-26T07:59:36Z</time>
      </trkpt>
      <trkpt lat="41.6297000" lon="2.0900430">
        <ele>298.8</ele>
        <time>2022-09-26T07:59:37Z</time>
      </trkpt>
      <trkpt lat="41.6297140" lon="2.0900650">
        <ele>299.0</ele>
        <time>2022-09-26T07:59:38Z</time>
      </trkpt>
      <trkpt lat="41.6297270" lon="2.0900880">
        <ele>299.2</ele>
        <time>2022-09-26T07:59:39Z</time>
      </trkpt>
      <trkpt lat="41.6297440" lon="2.0901080">
        <ele>299.2</ele>
        <time>2022-09-26T07:59:40Z</time>
      </trkpt>
      <trkpt lat="41.6297620" lon="2.0901230">
        <ele>299.2</ele>
        <time>2022-09-26T07:59:41Z</time>
      </trkpt>
      <trkpt lat="41.6297810" lon="2.0901340">
        <ele>299.4</ele>
        <time>2022-09-26T07:59:42Z</time>
      </trkpt>
      <trkpt lat="41.6297980" lon="2.0901400">
        <ele>299.6</ele>
        <time>2022-09-26T07:59:43Z</time>
      </trkpt>
      <trkpt lat="41.6298210" lon="2.0901430">
        <ele>299.8</ele>
        <time>2022-09-26T07:59:44Z</time>
      </trkpt>
      <trkpt lat="41.6298470" lon="2.0901440">
        <ele>299.8</ele>
        <time>2022-09-26T07:59:45Z</time>
      </trkpt>
      <trkpt lat="41.6298730" lon="2.0901410">
        <ele>300.0</ele>
        <time>2022-09-26T07:59:46Z</time>
      </trkpt>
      <trkpt lat="41.6298980" lon="2.0901330">
        <ele>300.2</ele>
        <time>2022-09-26T07:59:47Z</time>
      </trkpt>
      <trkpt lat="41.6299180" lon="2.0901210">
        <ele>300.4</ele>
        <time>2022-09-26T07:59:48Z</time>
      </trkpt>
      <trkpt lat="41.6299380" lon="2.0901100">
        <ele>300.6</ele>
        <time>2022-09-26T07:59:49Z</time>
      </trkpt>
      <trkpt lat="41.6299580" lon="2.0900990">
        <ele>301.0</ele>
        <time>2022-09-26T07:59:50Z</time>
      </trkpt>
      <trkpt lat="41.6299790" lon="2.0900890">
        <ele>301.0</ele>
        <time>2022-09-26T07:59:51Z</time>
      </trkpt>
      <trkpt lat="41.6299970" lon="2.0900820">
        <ele>301.2</ele>
        <time>2022-09-26T07:59:52Z</time>
      </trkpt>
      <trkpt lat="41.6300140" lon="2.0900760">
        <ele>301.4</ele>
        <time>2022-09-26T07:59:53Z</time>
      </trkpt>
      <trkpt lat="41.6300340" lon="2.0900710">
        <ele>301.6</ele>
        <time>2022-09-26T07:59:54Z</time>
      </trkpt>
      <trkpt lat="41.6300550" lon="2.0900670">
        <ele>301.6</ele>
        <time>2022-09-26T07:59:55Z</time>
      </trkpt>
      <trkpt lat="41.6300750" lon="2.0900650">
        <ele>301.8</ele>
        <time>2022-09-26T07:59:56Z</time>
      </trkpt>
      <trkpt lat="41.6300930" lon="2.0900580">
        <ele>302.0</ele>
        <time>2022-09-26T07:59:57Z</time>
      </trkpt>
      <trkpt lat="41.6301100" lon="2.0900450">
        <ele>302.2</ele>
        <time>2022-09-26T07:59:58Z</time>
      </trkpt>
      <trkpt lat="41.6301290" lon="2.0900400">
        <ele>302.4</ele>
        <time>2022-09-26T07:59:59Z</time>
      </trkpt>
      <trkpt lat="41.6301470" lon="2.0900380">
        <ele>302.6</ele>
        <time>2022-09-26T08:00:00Z</time>
      </trkpt>
      <trkpt lat="41.6301660" lon="2.0900330">
        <ele>302.8</ele>
        <time>2022-09-26T08:00:01Z</time>
      </trkpt>
      <trkpt lat="41.6301850" lon="2.0900260">
        <ele>303.0</ele>
        <time>2022-09-26T08:00:02Z</time>
      </trkpt>
      <trkpt lat="41.6302040" lon="2.0900240">
        <ele>303.2</ele>
        <time>2022-09-26T08:00:03Z</time>
      </trkpt>
      <trkpt lat="41.6302230" lon="2.0900170">
        <ele>303.4</ele>
        <time>2022-09-26T08:00:04Z</time>
      </trkpt>
      <trkpt lat="41.6302400" lon="2.0900110">
        <ele>303.6</ele>
        <time>2022-09-26T08:00:05Z</time>
      </trkpt>
      <trkpt lat="41.6302580" lon="2.0900050">
        <ele>304.0</ele>
        <time>2022-09-26T08:00:06Z</time>
      </trkpt>
      <trkpt lat="41.6302770" lon="2.0900010">
        <ele>304.2</ele>
        <time>2022-09-26T08:00:07Z</time>
      </trkpt>
      <trkpt lat="41.6302960" lon="2.0899920">
        <ele>304.4</ele>
        <time>2022-09-26T08:00:08Z</time>
      </trkpt>
      <trkpt lat="41.6303130" lon="2.0899890">
        <ele>304.6</ele>
        <time>2022-09-26T08:00:09Z</time>
      </trkpt>
      <trkpt lat="41.6303310" lon="2.0899840">
        <ele>304.8</ele>
        <time>2022-09-26T08:00:10Z</time>
      </trkpt>
      <trkpt lat="41.6303500" lon="2.0899750">
        <ele>305.0</ele>
        <time>2022-09-26T08:00:11Z</time>
      </trkpt>
      <trkpt lat="41.6303700" lon="2.0899670">
        <ele>305.2</ele>
        <time>2022-09-26T08:00:12Z</time>
      </trkpt>
      <trkpt lat="41.6303920" lon="2.0899620">
        <ele>305.4</ele>
        <time>2022-09-26T08:00:13Z</time>
      </trkpt>
      <trkpt lat="41.6304140" lon="2.0899570">
        <ele>305.6</ele>
        <time>2022-09-26T08:00:14Z</time>
      </trkpt>
      <trkpt lat="41.6304360" lon="2.0899500">
        <ele>305.6</ele>
        <time>2022-09-26T08:00:15Z</time>
      </trkpt>
      <trkpt lat="41.6304580" lon="2.0899430">
        <ele>305.8</ele>
        <time>2022-09-26T08:00:16Z</time>
      </trkpt>
      <trkpt lat="41.6304820" lon="2.0899360">
        <ele>305.8</ele>
        <time>2022-09-26T08:00:17Z</time>
      </trkpt>
      <trkpt lat="41.6305060" lon="2.0899270">
        <ele>306.0</ele>
        <time>2022-09-26T08:00:18Z</time>
      </trkpt>
      <trkpt lat="41.6305290" lon="2.0899220">
        <ele>306.2</ele>
        <time>2022-09-26T08:00:19Z</time>
      </trkpt>
      <trkpt lat="41.6305510" lon="2.0899150">
        <ele>306.2</ele>
        <time>2022-09-26T08:00:20Z</time>
      </trkpt>
      <trkpt lat="41.6305730" lon="2.0899080">
        <ele>306.2</ele>
        <time>2022-09-26T08:00:21Z</time>
      </trkpt>
      <trkpt lat="41.6305940" lon="2.0899010">
        <ele>306.4</ele>
        <time>2022-09-26T08:00:22Z</time>
      </trkpt>
      <trkpt lat="41.6306170" lon="2.0898950">
        <ele>306.4</ele>
        <time>2022-09-26T08:00:23Z</time>
      </trkpt>
      <trkpt lat="41.6306400" lon="2.0898870">
        <ele>306.6</ele>
        <time>2022-09-26T08:00:24Z</time>
      </trkpt>
      <trkpt lat="41.6306620" lon="2.0898800">
        <ele>306.6</ele>
        <time>2022-09-26T08:00:25Z</time>
      </trkpt>
      <trkpt lat="41.6306830" lon="2.0898740">
        <ele>306.8</ele>
        <time>2022-09-26T08:00:26Z</time>
      </trkpt>
      <trkpt lat="41.6307040" lon="2.0898690">
        <ele>307.0</ele>
        <time>2022-09-26T08:00:27Z</time>
      </trkpt>
      <trkpt lat="41.6307250" lon="2.0898620">
        <ele>307.2</ele>
        <time>2022-09-26T08:00:28Z</time>
      </trkpt>
      <trkpt lat="41.6307460" lon="2.0898520">
        <ele>307.4</ele>
        <time>2022-09-26T08:00:29Z</time>
      </trkpt>
      <trkpt lat="41.6307650" lon="2.0898410">
        <ele>307.4</ele>
        <time>2022-09-26T08:00:30Z</time>
      </trkpt>
      <trkpt lat="41.6307840" lon="2.0898280">
        <ele>307.6</ele>
        <time>2022-09-26T08:00:31Z</time>
      </trkpt>
      <trkpt lat="41.6308030" lon="2.0898180">
        <ele>307.8</ele>
        <time>2022-09-26T08:00:32Z</time>
      </trkpt>
      <trkpt lat="41.6308220" lon="2.0898050">
        <ele>308.2</ele>
        <time>2022-09-26T08:00:33Z</time>
      </trkpt>
      <trkpt lat="41.6308410" lon="2.0897940">
        <ele>308.4</ele>
        <time>2022-09-26T08:00:34Z</time>
      </trkpt>
      <trkpt lat="41.6308590" lon="2.0897820">
        <ele>308.4</ele>
        <time>2022-09-26T08:00:35Z</time>
      </trkpt>
      <trkpt lat="41.6308780" lon="2.0897690">
        <ele>308.8</ele>
        <time>2022-09-26T08:00:36Z</time>
      </trkpt>
      <trkpt lat="41.6308950" lon="2.0897550">
        <ele>308.8</ele>
        <time>2022-09-26T08:00:37Z</time>
      </trkpt>
      <trkpt lat="41.6309120" lon="2.0897400">
        <ele>309.0</ele>
        <time>2022-09-26T08:00:38Z</time>
      </trkpt>
      <trkpt lat="41.6309290" lon="2.0897270">
        <ele>309.2</ele>
        <time>2022-09-26T08:00:39Z</time>
      </trkpt>
      <trkpt lat="41.6309470" lon="2.0897130">
        <ele>309.4</ele>
        <time>2022-09-26T08:00:40Z</time>
      </trkpt>
      <trkpt lat="41.6309660" lon="2.0897000">
        <ele>309.6</ele>
        <time>2022-09-26T08:00:41Z</time>
      </trkpt>
      <trkpt lat="41.6309840" lon="2.0896870">
        <ele>309.8</ele>
        <time>2022-09-26T08:00:42Z</time>
      </trkpt>
      <trkpt lat="41.6310040" lon="2.0896770">
        <ele>310.0</ele>
        <time>2022-09-26T08:00:43Z</time>
      </trkpt>
      <trkpt lat="41.6310220" lon="2.0896650">
        <ele>310.2</ele>
        <time>2022-09-26T08:00:44Z</time>
      </trkpt>
      <trkpt lat="41.6310410" lon="2.0896520">
        <ele>310.6</ele>
        <time>2022-09-26T08:00:45Z</time>
      </trkpt>
      <trkpt lat="41.6310590" lon="2.0896390">
        <ele>310.8</ele>
        <time>2022-09-26T08:00:46Z</time>
      </trkpt>
      <trkpt lat="41.6310770" lon="2.0896270">
        <ele>311.0</ele>
        <time>2022-09-26T08:00:47Z</time>
      </trkpt>
      <trkpt lat="41.6310960" lon="2.0896160">
        <ele>311.2</ele>
        <time>2022-09-26T08:00:48Z</time>
      </trkpt>
      <trkpt lat="41.6311150" lon="2.0896050">
        <ele>311.2</ele>
        <time>2022-09-26T08:00:49Z</time>
      </trkpt>
      <trkpt lat="41.6311340" lon="2.0895960">
        <ele>311.4</ele>
        <time>2022-09-26T08:00:50Z</time>
      </trkpt>
      <trkpt lat="41.6311530" lon="2.0895870">
        <ele>311.4</ele>
        <time>2022-09-26T08:00:51Z</time>
      </trkpt>
      <trkpt lat="41.6311700" lon="2.0895750">
        <ele>311.6</ele>
        <time>2022-09-26T08:00:52Z</time>
      </trkpt>
      <trkpt lat="41.6311880" lon="2.0895660">
        <ele>311.8</ele>
        <time>2022-09-26T08:00:53Z</time>
      </trkpt>
      <trkpt lat="41.6312080" lon="2.0895590">
        <ele>312.0</ele>
        <time>2022-09-26T08:00:54Z</time>
      </trkpt>
      <trkpt lat="41.6312280" lon="2.0895500">
        <ele>312.2</ele>
        <time>2022-09-26T08:00:55Z</time>
      </trkpt>
      <trkpt lat="41.6312470" lon="2.0895390">
        <ele>312.4</ele>
        <time>2022-09-26T08:00:56Z</time>
      </trkpt>
      <trkpt lat="41.6312660" lon="2.0895290">
        <ele>312.4</ele>
        <time>2022-09-26T08:00:57Z</time>
      </trkpt>
      <trkpt lat="41.6312850" lon="2.0895190">
        <ele>312.6</ele>
        <time>2022-09-26T08:00:58Z</time>
      </trkpt>
      <trkpt lat="41.6313080" lon="2.0895110">
        <ele>312.8</ele>
        <time>2022-09-26T08:00:59Z</time>
      </trkpt>
      <trkpt lat="41.6313290" lon="2.0895050">
        <ele>312.8</ele>
        <time>2022-09-26T08:01:00Z</time>
      </trkpt>
      <trkpt lat="41.6313480" lon="2.0894950">
        <ele>313.0</ele>
        <time>2022-09-26T08:01:01Z</time>
      </trkpt>
      <trkpt lat="41.6313690" lon="2.0894870">
        <ele>313.0</ele>
        <time>2022-09-26T08:01:02Z</time>
      </trkpt>
      <trkpt lat="41.6313890" lon="2.0894790">
        <ele>313.2</ele>
        <time>2022-09-26T08:01:03Z</time>
      </trkpt>
      <trkpt lat="41.6314090" lon="2.0894710">
        <ele>313.4</ele>
        <time>2022-09-26T08:01:04Z</time>
      </trkpt>
      <trkpt lat="41.6314300" lon="2.0894630">
        <ele>313.6</ele>
        <time>2022-09-26T08:01:05Z</time>
      </trkpt>
      <trkpt lat="41.6314520" lon="2.0894560">
        <ele>313.8</ele>
        <time>2022-09-26T08:01:06Z</time>
      </trkpt>
      <trkpt lat="41.6314730" lon="2.0894460">
        <ele>314.0</ele>
        <time>2022-09-26T08:01:07Z</time>
      </trkpt>
      <trkpt lat="41.6314960" lon="2.0894390">
        <ele>314.2</ele>
        <time>2022-09-26T08:01:08Z</time>
      </trkpt>
      <trkpt lat="41.6315180" lon="2.0894310">
        <ele>314.4</ele>
        <time>2022-09-26T08:01:09Z</time>
      </trkpt>
      <trkpt lat="41.6315400" lon="2.0894230">
        <ele>314.6</ele>
        <time>2022-09-26T08:01:10Z</time>
      </trkpt>
      <trkpt lat="41.6315600" lon="2.0894160">
        <ele>314.6</ele>
        <time>2022-09-26T08:01:11Z</time>
      </trkpt>
      <trkpt lat="41.6315810" lon="2.0894100">
        <ele>314.8</ele>
        <time>2022-09-26T08:01:12Z</time>
      </trkpt>
      <trkpt lat="41.6316020" lon="2.0894100">
        <ele>314.8</ele>
        <time>2022-09-26T08:01:13Z</time>
      </trkpt>
      <trkpt lat="41.6316230" lon="2.0894080">
        <ele>315.0</ele>
        <time>2022-09-26T08:01:14Z</time>
      </trkpt>
      <trkpt lat="41.6316430" lon="2.0894110">
        <ele>315.2</ele>
        <time>2022-09-26T08:01:15Z</time>
      </trkpt>
      <trkpt lat="41.6316680" lon="2.0894210">
        <ele>315.4</ele>
        <time>2022-09-26T08:01:16Z</time>
      </trkpt>
      <trkpt lat="41.6316890" lon="2.0894340">
        <ele>315.4</ele>
        <time>2022-09-26T08:01:17Z</time>
      </trkpt>
      <trkpt lat="41.6317100" lon="2.0894480">
        <ele>315.6</ele>
        <time>2022-09-26T08:01:18Z</time>
      </trkpt>
      <trkpt lat="41.6317290" lon="2.0894630">
        <ele>315.6</ele>
        <time>2022-09-26T08:01:19Z</time>
      </trkpt>
      <trkpt lat="41.6317490" lon="2.0894760">
        <ele>315.8</ele>
        <time>2022-09-26T08:01:20Z</time>
      </trkpt>
      <trkpt lat="41.6317670" lon="2.0894910">
        <ele>315.8</ele>
        <time>2022-09-26T08:01:21Z</time>
      </trkpt>
      <trkpt lat="41.6317820" lon="2.0895070">
        <ele>316.0</ele>
        <time>2022-09-26T08:01:22Z</time>
      </trkpt>
      <trkpt lat="41.6317950" lon="2.0895230">
        <ele>316.2</ele>
        <time>2022-09-26T08:01:23Z</time>
      </trkpt>
      <trkpt lat="41.6318080" lon="2.0895390">
        <ele>316.2</ele>
        <time>2022-09-26T08:01:24Z</time>
      </trkpt>
      <trkpt lat="41.6318210" lon="2.0895590">
        <ele>316.4</ele>
        <time>2022-09-26T08:01:25Z</time>
      </trkpt>
      <trkpt lat="41.6318330" lon="2.0895810">
        <ele>316.6</ele>
        <time>2022-09-26T08:01:26Z</time>
      </trkpt>
      <trkpt lat="41.6318450" lon="2.0896050">
        <ele>316.6</ele>
        <time>2022-09-26T08:01:27Z</time>
      </trkpt>
      <trkpt lat="41.6318580" lon="2.0896280">
        <ele>316.8</ele>
        <time>2022-09-26T08:01:28Z</time>
      </trkpt>
      <trkpt lat="41.6318700" lon="2.0896530">
        <ele>316.8</ele>
        <time>2022-09-26T08:01:29Z</time>
      </trkpt>
      <trkpt lat="41.6318790" lon="2.0896780">
        <ele>317.0</ele>
        <time>2022-09-26T08:01:30Z</time>
      </trkpt>
      <trkpt lat="41.6318890" lon="2.0897050">
        <ele>317.0</ele>
        <time>2022-09-26T08:01:31Z</time>
      </trkpt>
      <trkpt lat="41.6319000" lon="2.0897290">
        <ele>317.2</ele>
        <time>2022-09-26T08:01:32Z</time>
      </trkpt>
      <trkpt lat="41.6319130" lon="2.0897520">
        <ele>317.4</ele>
        <time>2022-09-26T08:01:33Z</time>
      </trkpt>
      <trkpt lat="41.6319250" lon="2.0897750">
        <ele>317.6</ele>
        <time>2022-09-26T08:01:34Z</time>
      </trkpt>
      <trkpt lat="41.6319370" lon="2.0897970">
        <ele>317.8</ele>
        <time>2022-09-26T08:01:35Z</time>
      </trkpt>
      <trkpt lat="41.6319500" lon="2.0898170">
        <ele>318.0</ele>
        <time>2022-09-26T08:01:36Z</time>
      </trkpt>
      <trkpt lat="41.6319630" lon="2.0898380">
        <ele>318.2</ele>
        <time>2022-09-26T08:01:37Z</time>
      </trkpt>
      <trkpt lat="41.6319770" lon="2.0898600">
        <ele>318.4</ele>
        <time>2022-09-26T08:01:38Z</time>
      </trkpt>
      <trkpt lat="41.6319910" lon="2.0898800">
        <ele>318.6</ele>
        <time>2022-09-26T08:01:39Z</time>
      </trkpt>
      <trkpt lat="41.6320080" lon="2.0898990">
        <ele>318.8</ele>
        <time>2022-09-26T08:01:40Z</time>
      </trkpt>
      <trkpt lat="41.6320270" lon="2.0899160">
        <ele>318.8</ele>
        <time>2022-09-26T08:01:41Z</time>
      </trkpt>
      <trkpt lat="41.6320480" lon="2.0899310">
        <ele>319.0</ele>
        <time>2022-09-26T08:01:42Z</time>
      </trkpt>
      <trkpt lat="41.6320700" lon="2.0899420">
        <ele>319.0</ele>
        <time>2022-09-26T08:01:43Z</time>
      </trkpt>
      <trkpt lat="41.6320950" lon="2.0899490">
        <ele>319.2</ele>
        <time>2022-09-26T08:01:44Z</time>
      </trkpt>
      <trkpt lat="41.6321190" lon="2.0899510">
        <ele>319.4</ele>
        <time>2022-09-26T08:01:45Z</time>
      </trkpt>
      <trkpt lat="41.6321440" lon="2.0899500">
        <ele>319.4</ele>
        <time>2022-09-26T08:01:46Z</time>
      </trkpt>
      <trkpt lat="41.6321680" lon="2.0899470">
        <ele>319.6</ele>
        <time>2022-09-26T08:01:47Z</time>
      </trkpt>
      <trkpt lat="41.6321920" lon="2.0899420">
        <ele>319.6</ele>
        <time>2022-09-26T08:01:48Z</time>
      </trkpt>
      <trkpt lat="41.6322140" lon="2.0899360">
        <ele>319.8</ele>
        <time>2022-09-26T08:01:49Z</time>
      </trkpt>
      <trkpt lat="41.6322350" lon="2.0899300">
        <ele>320.0</ele>
        <time>2022-09-26T08:01:50Z</time>
      </trkpt>
      <trkpt lat="41.6322520" lon="2.0899250">
        <ele>320.2</ele>
        <time>2022-09-26T08:01:51Z</time>
      </trkpt>
      <trkpt lat="41.6322700" lon="2.0899190">
        <ele>320.4</ele>
        <time>2022-09-26T08:01:52Z</time>
      </trkpt>
      <trkpt lat="41.6322850" lon="2.0899140">
        <ele>320.4</ele>
        <time>2022-09-26T08:01:53Z</time>
      </trkpt>
      <trkpt lat="41.6323030" lon="2.0899060">
        <ele>320.6</ele>
        <time>2022-09-26T08:01:54Z</time>
      </trkpt>
      <trkpt lat="41.6323210" lon="2.0898990">
        <ele>320.8</ele>
        <time>2022-09-26T08:01:55Z</time>
      </trkpt>
      <trkpt lat="41.6323380" lon="2.0898930">
        <ele>320.8</ele>
        <time>2022-09-26T08:01:56Z</time>
      </trkpt>
      <trkpt lat="41.6323540" lon="2.0898870">
        <ele>321.0</ele>
        <time>2022-09-26T08:01:57Z</time>
      </trkpt>
      <trkpt lat="41.6323730" lon="2.0898830">
        <ele>321.4</ele>
        <time>2022-09-26T08:01:58Z</time>
      </trkpt>
      <trkpt lat="41.6323910" lon="2.0898800">
        <ele>321.8</ele>
        <time>2022-09-26T08:01:59Z</time>
      </trkpt>
      <trkpt lat="41.6324090" lon="2.0898770">
        <ele>322.0</ele>
        <time>2022-09-26T08:02:00Z</time>
      </trkpt>
      <trkpt lat="41.6324250" lon="2.0898790">
        <ele>322.2</ele>
        <time>2022-09-26T08:02:01Z</time>
      </trkpt>
      <trkpt lat="41.6324430" lon="2.0898840">
        <ele>322.2</ele>
        <time>2022-09-26T08:02:02Z</time>
      </trkpt>
      <trkpt lat="41.6324610" lon="2.0898880">
        <ele>322.4</ele>
        <time>2022-09-26T08:02:03Z</time>
      </trkpt>
      <trkpt lat="41.6324770" lon="2.0898930">
        <ele>322.6</ele>
        <time>2022-09-26T08:02:04Z</time>
      </trkpt>
      <trkpt lat="41.6324940" lon="2.0898980">
        <ele>322.8</ele>
        <time>2022-09-26T08:02:05Z</time>
      </trkpt>
      <trkpt lat="41.6325130" lon="2.0899000">
        <ele>323.2</ele>
        <time>2022-09-26T08:02:06Z</time>
      </trkpt>
      <trkpt lat="41.6325310" lon="2.0899050">
        <ele>323.4</ele>
        <time>2022-09-26T08:02:07Z</time>
      </trkpt>
      <trkpt lat="41.6325500" lon="2.0899090">
        <ele>323.6</ele>
        <time>2022-09-26T08:02:08Z</time>
      </trkpt>
      <trkpt lat="41.6325680" lon="2.0899110">
        <ele>323.8</ele>
        <time>2022-09-26T08:02:09Z</time>
      </trkpt>
      <trkpt lat="41.6325840" lon="2.0899150">
        <ele>324.0</ele>
        <time>2022-09-26T08:02:10Z</time>
      </trkpt>
      <trkpt lat="41.6326010" lon="2.0899190">
        <ele>324.2</ele>
        <time>2022-09-26T08:02:11Z</time>
      </trkpt>
      <trkpt lat="41.6326170" lon="2.0899270">
        <ele>324.4</ele>
        <time>2022-09-26T08:02:12Z</time>
      </trkpt>
      <trkpt lat="41.6326350" lon="2.0899320">
        <ele>324.6</ele>
        <time>2022-09-26T08:02:13Z</time>
      </trkpt>
      <trkpt lat="41.6326540" lon="2.0899340">
        <ele>324.8</ele>
        <time>2022-09-26T08:02:14Z</time>
      </trkpt>
      <trkpt lat="41.6326740" lon="2.0899400">
        <ele>325.0</ele>
        <time>2022-09-26T08:02:15Z</time>
      </trkpt>
      <trkpt lat="41.6326950" lon="2.0899410">
        <ele>325.0</ele>
        <time>2022-09-26T08:02:16Z</time>
      </trkpt>
      <trkpt lat="41.6327130" lon="2.0899470">
        <ele>325.2</ele>
        <time>2022-09-26T08:02:17Z</time>
      </trkpt>
      <trkpt lat="41.6327300" lon="2.0899510">
        <ele>325.2</ele>
        <time>2022-09-26T08:02:18Z</time>
      </trkpt>
      <trkpt lat="41.6327480" lon="2.0899560">
        <ele>325.0</ele>
        <time>2022-09-26T08:02:19Z</time>
      </trkpt>
      <trkpt lat="41.6327640" lon="2.0899640">
        <ele>325.4</ele>
        <time>2022-09-26T08:02:20Z</time>
      </trkpt>
      <trkpt lat="41.6327830" lon="2.0899700">
        <ele>325.6</ele>
        <time>2022-09-26T08:02:21Z</time>
      </trkpt>
      <trkpt lat="41.6328030" lon="2.0899760">
        <ele>326.0</ele>
        <time>2022-09-26T08:02:22Z</time>
      </trkpt>
      <trkpt lat="41.6328230" lon="2.0899820">
        <ele>326.2</ele>
        <time>2022-09-26T08:02:23Z</time>
      </trkpt>
      <trkpt lat="41.6328430" lon="2.0899880">
        <ele>326.6</ele>
        <time>2022-09-26T08:02:24Z</time>
      </trkpt>
      <trkpt lat="41.6328630" lon="2.0899930">
        <ele>326.8</ele>
        <time>2022-09-26T08:02:25Z</time>
      </trkpt>
      <trkpt lat="41.6328830" lon="2.0899980">
        <ele>326.8</ele>
        <time>2022-09-26T08:02:26Z</time>
      </trkpt>
      <trkpt lat="41.6329010" lon="2.0900020">
        <ele>327.0</ele>
        <time>2022-09-26T08:02:27Z</time>
      </trkpt>
      <trkpt lat="41.6329190" lon="2.0900070">
        <ele>327.2</ele>
        <time>2022-09-26T08:02:28Z</time>
      </trkpt>
      <trkpt lat="41.6329370" lon="2.0900130">
        <ele>327.4</ele>
        <time>2022-09-26T08:02:29Z</time>
      </trkpt>
      <trkpt lat="41.6329580" lon="2.0900220">
        <ele>327.6</ele>
        <time>2022-09-26T08:02:30Z</time>
      </trkpt>
      <trkpt lat="41.6329780" lon="2.0900290">
        <ele>328.0</ele>
        <time>2022-09-26T08:02:31Z</time>
      </trkpt>
      <trkpt lat="41.6329990" lon="2.0900370">
        <ele>328.0</ele>
        <time>2022-09-26T08:02:32Z</time>
      </trkpt>
      <trkpt lat="41.6330190" lon="2.0900460">
        <ele>328.2</ele>
        <time>2022-09-26T08:02:33Z</time>
      </trkpt>
      <trkpt lat="41.6330380" lon="2.0900550">
        <ele>328.4</ele>
        <time>2022-09-26T08:02:34Z</time>
      </trkpt>
      <trkpt lat="41.6330560" lon="2.0900630">
        <ele>328.4</ele>
        <time>2022-09-26T08:02:35Z</time>
      </trkpt>
      <trkpt lat="41.6330730" lon="2.0900690">
        <ele>328.6</ele>
        <time>2022-09-26T08:02:36Z</time>
      </trkpt>
      <trkpt lat="41.6330890" lon="2.0900690">
        <ele>328.8</ele>
        <time>2022-09-26T08:02:37Z</time>
      </trkpt>
      <trkpt lat="41.6331080" lon="2.0900750">
        <ele>329.2</ele>
        <time>2022-09-26T08:02:38Z</time>
      </trkpt>
      <trkpt lat="41.6331280" lon="2.0900840">
        <ele>329.6</ele>
        <time>2022-09-26T08:02:39Z</time>
      </trkpt>
      <trkpt lat="41.6331460" lon="2.0900900">
        <ele>330.0</ele>
        <time>2022-09-26T08:02:40Z</time>
      </trkpt>
      <trkpt lat="41.6331640" lon="2.0900980">
        <ele>330.2</ele>
        <time>2022-09-26T08:02:41Z</time>
      </trkpt>
      <trkpt lat="41.6331830" lon="2.0901070">
        <ele>330.4</ele>
        <time>2022-09-26T08:02:42Z</time>
      </trkpt>
      <trkpt lat="41.6332020" lon="2.0901140">
        <ele>330.4</ele>
        <time>2022-09-26T08:02:43Z</time>
      </trkpt>
      <trkpt lat="41.6332210" lon="2.0901210">
        <ele>330.4</ele>
        <time>2022-09-26T08:02:44Z</time>
      </trkpt>
      <trkpt lat="41.6332420" lon="2.0901310">
        <ele>330.4</ele>
        <time>2022-09-26T08:02:45Z</time>
      </trkpt>
      <trkpt lat="41.6332630" lon="2.0901410">
        <ele>330.6</ele>
        <time>2022-09-26T08:02:46Z</time>
      </trkpt>
      <trkpt lat="41.6332830" lon="2.0901520">
        <ele>330.6</ele>
        <time>2022-09-26T08:02:47Z</time>
      </trkpt>
      <trkpt lat="41.6333020" lon="2.0901620">
        <ele>330.6</ele>
        <time>2022-09-26T08:02:48Z</time>
      </trkpt>
      <trkpt lat="41.6333210" lon="2.0901730">
        <ele>330.8</ele>
        <time>2022-09-26T08:02:49Z</time>
      </trkpt>
      <trkpt lat="41.6333420" lon="2.0901850">
        <ele>331.0</ele>
        <time>2022-09-26T08:02:50Z</time>
      </trkpt>
      <trkpt lat="41.6333630" lon="2.0901940">
        <ele>331.0</ele>
        <time>2022-09-26T08:02:51Z</time>
      </trkpt>
      <trkpt lat="41.6333850" lon="2.0902050">
        <ele>331.2</ele>
        <time>2022-09-26T08:02:52Z</time>
      </trkpt>
      <trkpt lat="41.6334080" lon="2.0902110">
        <ele>331.2</ele>
        <time>2022-09-26T08:02:53Z</time>
      </trkpt>
      <trkpt lat="41.6334310" lon="2.0902180">
        <ele>331.4</ele>
        <time>2022-09-26T08:02:54Z</time>
      </trkpt>
      <trkpt lat="41.6334550" lon="2.0902290">
        <ele>331.6</ele>
        <time>2022-09-26T08:02:55Z</time>
      </trkpt>
      <trkpt lat="41.6334770" lon="2.0902350">
        <ele>331.8</ele>
        <time>2022-09-26T08:02:56Z</time>
      </trkpt>
      <trkpt lat="41.6334980" lon="2.0902340">
        <ele>332.0</ele>
        <time>2022-09-26T08:02:57Z</time>
      </trkpt>
      <trkpt lat="41.6335180" lon="2.0902360">
        <ele>332.0</ele>
        <time>2022-09-26T08:02:58Z</time>
      </trkpt>
      <trkpt lat="41.6335390" lon="2.0902370">
        <ele>332.0</ele>
        <time>2022-09-26T08:02:59Z</time>
      </trkpt>
      <trkpt lat="41.6335600" lon="2.0902400">
        <ele>332.4</ele>
        <time>2022-09-26T08:03:00Z</time>
      </trkpt>
      <trkpt lat="41.6335770" lon="2.0902450">
        <ele>332.6</ele>
        <time>2022-09-26T08:03:01Z</time>
      </trkpt>
      <trkpt lat="41.6335940" lon="2.0902550">
        <ele>332.8</ele>
        <time>2022-09-26T08:03:02Z</time>
      </trkpt>
      <trkpt lat="41.6336120" lon="2.0902650">
        <ele>333.0</ele>
        <time>2022-09-26T08:03:03Z</time>
      </trkpt>
      <trkpt lat="41.6336290" lon="2.0902770">
        <ele>333.4</ele>
        <time>2022-09-26T08:03:04Z</time>
      </trkpt>
      <trkpt lat="41.6336440" lon="2.0902960">
        <ele>333.6</ele>
        <time>2022-09-26T08:03:05Z</time>
      </trkpt>
      <trkpt lat="41.6336580" lon="2.0903150">
        <ele>333.6</ele>
        <time>2022-09-26T08:03:06Z</time>
      </trkpt>
      <trkpt lat="41.6336700" lon="2.0903360">
        <ele>333.8</ele>
        <time>2022-09-26T08:03:07Z</time>
      </trkpt>
      <trkpt lat="41.6336830" lon="2.0903610">
        <ele>334.0</ele>
        <time>2022-09-26T08:03:08Z</time>
      </trkpt>
      <trkpt lat="41.6336980" lon="2.0903880">
        <ele>334.2</ele>
        <time>2022-09-26T08:03:09Z</time>
      </trkpt>
      <trkpt lat="41.6337110" lon="2.0904130">
        <ele>334.2</ele>
        <time>2022-09-26T08:03:10Z</time>
      </trkpt>
      <trkpt lat="41.6337230" lon="2.0904370">
        <ele>334.4</ele>
        <time>2022-09-26T08:03:11Z</time>
      </trkpt>
      <trkpt lat="41.6337360" lon="2.0904580">
        <ele>334.4</ele>
        <time>2022-09-26T08:03:12Z</time>
      </trkpt>
      <trkpt lat="41.6337510" lon="2.0904770">
        <ele>334.4</ele>
        <time>2022-09-26T08:03:13Z</time>
      </trkpt>
      <trkpt lat="41.6337680" lon="2.0904940">
        <ele>334.6</ele>
        <time>2022-09-26T08:03:14Z</time>
      </trkpt>
      <trkpt lat="41.6337850" lon="2.0905110">
        <ele>334.8</ele>
        <time>2022-09-26T08:03:15Z</time>
      </trkpt>
      <trkpt lat="41.6338010" lon="2.0905270">
        <ele>335.0</ele>
        <time>2022-09-26T08:03:16Z</time>
      </trkpt>
      <trkpt lat="41.6338180" lon="2.0905370">
        <ele>335.0</ele>
        <time>2022-09-26T08:03:17Z</time>
      </trkpt>
      <trkpt lat="41.6338340" lon="2.0905480">
        <ele>335.2</ele>
        <time>2022-09-26T08:03:18Z</time>
      </trkpt>
      <trkpt lat="41.6338490" lon="2.0905580">
        <ele>335.4</ele>
        <time>2022-09-26T08:03:19Z</time>
      </trkpt>
      <trkpt lat="41.6338660" lon="2.0905680">
        <ele>335.6</ele>
        <time>2022-09-26T08:03:20Z</time>
      </trkpt>
      <trkpt lat="41.6338840" lon="2.0905750">
        <ele>336.0</ele>
        <time>2022-09-26T08:03:21Z</time>
      </trkpt>
      <trkpt lat="41.6339030" lon="2.0905840">
        <ele>336.2</ele>
        <time>2022-09-26T08:03:22Z</time>
      </trkpt>
      <trkpt lat="41.6339190" lon="2.0905930">
        <ele>336.6</ele>
        <time>2022-09-26T08:03:23Z</time>
      </trkpt>
      <trkpt lat="41.6339380" lon="2.0906050">
        <ele>336.8</ele>
        <time>2022-09-26T08:03:24Z</time>
      </trkpt>
      <trkpt lat="41.6339590" lon="2.0906200">
        <ele>336.8</ele>
        <time>2022-09-26T08:03:25Z</time>
      </trkpt>
      <trkpt lat="41.6339800" lon="2.0906360">
        <ele>337.0</ele>
        <time>2022-09-26T08:03:26Z</time>
      </trkpt>
      <trkpt lat="41.6340010" lon="2.0906580">
        <ele>337.2</ele>
        <time>2022-09-26T08:03:27Z</time>
      </trkpt>
      <trkpt lat="41.6340190" lon="2.0906820">
        <ele>337.4</ele>
        <time>2022-09-26T08:03:28Z</time>
      </trkpt>
      <trkpt lat="41.6340370" lon="2.0907050">
        <ele>337.6</ele>
        <time>2022-09-26T08:03:29Z</time>
      </trkpt>
      <trkpt lat="41.6340550" lon="2.0907260">
        <ele>337.6</ele>
        <time>2022-09-26T08:03:30Z</time>
      </trkpt>
      <trkpt lat="41.6340720" lon="2.0907500">
        <ele>337.8</ele>
        <time>2022-09-26T08:03:31Z</time>
      </trkpt>
      <trkpt lat="41.6340880" lon="2.0907760">
        <ele>337.8</ele>
        <time>2022-09-26T08:03:32Z</time>
      </trkpt>
      <trkpt lat="41.6341040" lon="2.0908030">
        <ele>337.8</ele>
        <time>2022-09-26T08:03:33Z</time>
      </trkpt>
      <trkpt lat="41.6341210" lon="2.0908270">
        <ele>337.8</ele>
        <time>2022-09-26T08:03:34Z</time>
      </trkpt>
      <trkpt lat="41.6341400" lon="2.0908460">
        <ele>337.8</ele>
        <time>2022-09-26T08:03:35Z</time>
      </trkpt>
      <trkpt lat="41.6341650" lon="2.0908630">
        <ele>337.6</ele>
        <time>2022-09-26T08:03:36Z</time>
      </trkpt>
      <trkpt lat="41.6341920" lon="2.0908770">
        <ele>337.6</ele>
        <time>2022-09-26T08:03:37Z</time>
      </trkpt>
      <trkpt lat="41.6342190" lon="2.0908810">
        <ele>337.8</ele>
        <time>2022-09-26T08:03:38Z</time>
      </trkpt>
      <trkpt lat="41.6342470" lon="2.0908810">
        <ele>337.8</ele>
        <time>2022-09-26T08:03:39Z</time>
      </trkpt>
      <trkpt lat="41.6342760" lon="2.0908720">
        <ele>337.8</ele>
        <time>2022-09-26T08:03:40Z</time>
      </trkpt>
      <trkpt lat="41.6343030" lon="2.0908630">
        <ele>338.0</ele>
        <time>2022-09-26T08:03:41Z</time>
      </trkpt>
      <trkpt lat="41.6343280" lon="2.0908500">
        <ele>338.2</ele>
        <time>2022-09-26T08:03:42Z</time>
      </trkpt>
      <trkpt lat="41.6343520" lon="2.0908380">
        <ele>338.4</ele>
        <time>2022-09-26T08:03:43Z</time>
      </trkpt>
      <trkpt lat="41.6343750" lon="2.0908250">
        <ele>338.6</ele>
        <time>2022-09-26T08:03:44Z</time>
      </trkpt>
      <trkpt lat="41.6343960" lon="2.0908110">
        <ele>338.8</ele>
        <time>2022-09-26T08:03:45Z</time>
      </trkpt>
      <trkpt lat="41.6344160" lon="2.0907970">
        <ele>338.8</ele>
        <time>2022-09-26T08:03:46Z</time>
      </trkpt>
      <trkpt lat="41.6344360" lon="2.0907840">
        <ele>339.0</ele>
        <time>2022-09-26T08:03:47Z</time>
      </trkpt>
      <trkpt lat="41.6344560" lon="2.0907710">
        <ele>339.2</ele>
        <time>2022-09-26T08:03:48Z</time>
      </trkpt>
      <trkpt lat="41.6344790" lon="2.0907590">
        <ele>339.4</ele>
        <time>2022-09-26T08:03:49Z</time>
      </trkpt>
      <trkpt lat="41.6345040" lon="2.0907450">
        <ele>339.6</ele>
        <time>2022-09-26T08:03:50Z</time>
      </trkpt>
      <trkpt lat="41.6345280" lon="2.0907290">
        <ele>339.6</ele>
        <time>2022-09-26T08:03:51Z</time>
      </trkpt>
      <trkpt lat="41.6345490" lon="2.0907210">
        <ele>339.6</ele>
        <time>2022-09-26T08:03:52Z</time>
      </trkpt>
      <trkpt lat="41.6345680" lon="2.0907190">
        <ele>339.8</ele>
        <time>2022-09-26T08:03:53Z</time>
      </trkpt>
      <trkpt lat="41.6345860" lon="2.0907210">
        <ele>340.0</ele>
        <time>2022-09-26T08:03:54Z</time>
      </trkpt>
      <trkpt lat="41.6346050" lon="2.0907210">
        <ele>340.2</ele>
        <time>2022-09-26T08:03:55Z</time>
      </trkpt>
      <trkpt lat="41.6346240" lon="2.0907180">
        <ele>340.6</ele>
        <time>2022-09-26T08:03:56Z</time>
      </trkpt>
      <trkpt lat="41.6346430" lon="2.0907160">
        <ele>340.8</ele>
        <time>2022-09-26T08:03:57Z</time>
      </trkpt>
      <trkpt lat="41.6346630" lon="2.0907150">
        <ele>341.0</ele>
        <time>2022-09-26T08:03:58Z</time>
      </trkpt>
      <trkpt lat="41.6346820" lon="2.0907140">
        <ele>341.2</ele>
        <time>2022-09-26T08:03:59Z</time>
      </trkpt>
      <trkpt lat="41.6346980" lon="2.0907160">
        <ele>341.4</ele>
        <time>2022-09-26T08:04:00Z</time>
      </trkpt>
      <trkpt lat="41.6347140" lon="2.0907160">
        <ele>341.6</ele>
        <time>2022-09-26T08:04:01Z</time>
      </trkpt>
      <trkpt lat="41.6347320" lon="2.0907160">
        <ele>341.8</ele>
        <time>2022-09-26T08:04:02Z</time>
      </trkpt>
      <trkpt lat="41.6347500" lon="2.0907180">
        <ele>342.0</ele>
        <time>2022-09-26T08:04:03Z</time>
      </trkpt>
      <trkpt lat="41.6347690" lon="2.0907220">
        <ele>342.0</ele>
        <time>2022-09-26T08:04:04Z</time>
      </trkpt>
      <trkpt lat="41.6347890" lon="2.0907270">
        <ele>342.2</ele>
        <time>2022-09-26T08:04:05Z</time>
      </trkpt>
      <trkpt lat="41.6348090" lon="2.0907300">
        <ele>342.6</ele>
        <time>2022-09-26T08:04:06Z</time>
      </trkpt>
      <trkpt lat="41.6348310" lon="2.0907290">
        <ele>342.8</ele>
        <time>2022-09-26T08:04:07Z</time>
      </trkpt>
      <trkpt lat="41.6348530" lon="2.0907300">
        <ele>342.8</ele>
        <time>2022-09-26T08:04:08Z</time>
      </trkpt>
      <trkpt lat="41.6348750" lon="2.0907290">
        <ele>342.8</ele>
        <time>2022-09-26T08:04:09Z</time>
      </trkpt>
      <trkpt lat="41.6348940" lon="2.0907290">
        <ele>342.8</ele>
        <time>2022-09-26T08:04:10Z</time>
      </trkpt>
      <trkpt lat="41.6349130" lon="2.0907340">
        <ele>343.0</ele>
        <time>2022-09-26T08:04:11Z</time>
      </trkpt>
      <trkpt lat="41.6349330" lon="2.0907350">
        <ele>343.2</ele>
        <time>2022-09-26T08:04:12Z</time>
      </trkpt>
      <trkpt lat="41.6349530" lon="2.0907340">
        <ele>343.6</ele>
        <time>2022-09-26T08:04:13Z</time>
      </trkpt>
      <trkpt lat="41.6349730" lon="2.0907310">
        <ele>343.8</ele>
        <time>2022-09-26T08:04:14Z</time>
      </trkpt>
      <trkpt lat="41.6349930" lon="2.0907290">
        <ele>344.0</ele>
        <time>2022-09-26T08:04:15Z</time>
      </trkpt>
      <trkpt lat="41.6350120" lon="2.0907270">
        <ele>344.4</ele>
        <time>2022-09-26T08:04:16Z</time>
      </trkpt>
      <trkpt lat="41.6350310" lon="2.0907270">
        <ele>344.8</ele>
        <time>2022-09-26T08:04:17Z</time>
      </trkpt>
      <trkpt lat="41.6350500" lon="2.0907270">
        <ele>345.0</ele>
        <time>2022-09-26T08:04:18Z</time>
      </trkpt>
      <trkpt lat="41.6350700" lon="2.0907250">
        <ele>345.2</ele>
        <time>2022-09-26T08:04:19Z</time>
      </trkpt>
      <trkpt lat="41.6350890" lon="2.0907240">
        <ele>345.4</ele>
        <time>2022-09-26T08:04:20Z</time>
      </trkpt>
      <trkpt lat="41.6351090" lon="2.0907220">
        <ele>345.6</ele>
        <time>2022-09-26T08:04:21Z</time>
      </trkpt>
      <trkpt lat="41.6351280" lon="2.0907240">
        <ele>346.0</ele>
        <time>2022-09-26T08:04:22Z</time>
      </trkpt>
      <trkpt lat="41.6351490" lon="2.0907180">
        <ele>346.0</ele>
        <time>2022-09-26T08:04:23Z</time>
      </trkpt>
      <trkpt lat="41.6351690" lon="2.0907150">
        <ele>346.4</ele>
        <time>2022-09-26T08:04:24Z</time>
      </trkpt>
      <trkpt lat="41.6351890" lon="2.0907120">
        <ele>346.6</ele>
        <time>2022-09-26T08:04:25Z</time>
      </trkpt>
      <trkpt lat="41.6352090" lon="2.0907070">
        <ele>346.8</ele>
        <time>2022-09-26T08:04:26Z</time>
      </trkpt>
      <trkpt lat="41.6352280" lon="2.0907010">
        <ele>347.0</ele>
        <time>2022-09-26T08:04:27Z</time>
      </trkpt>
      <trkpt lat="41.6352470" lon="2.0906980">
        <ele>347.2</ele>
        <time>2022-09-26T08:04:28Z</time>
      </trkpt>
      <trkpt lat="41.6352660" lon="2.0906930">
        <ele>347.4</ele>
        <time>2022-09-26T08:04:29Z</time>
      </trkpt>
      <trkpt lat="41.6352870" lon="2.0906910">
        <ele>347.4</ele>
        <time>2022-09-26T08:04:30Z</time>
      </trkpt>
      <trkpt lat="41.6353080" lon="2.0906850">
        <ele>347.4</ele>
        <time>2022-09-26T08:04:31Z</time>
      </trkpt>
      <trkpt lat="41.6353270" lon="2.0906840">
        <ele>347.6</ele>
        <time>2022-09-26T08:04:32Z</time>
      </trkpt>
      <trkpt lat="41.6353460" lon="2.0906830">
        <ele>347.6</ele>
        <time>2022-09-26T08:04:33Z</time>
      </trkpt>
      <trkpt lat="41.6353650" lon="2.0906780">
        <ele>347.8</ele>
        <time>2022-09-26T08:04:34Z</time>
      </trkpt>
      <trkpt lat="41.6353830" lon="2.0906740">
        <ele>348.0</ele>
        <time>2022-09-26T08:04:35Z</time>
      </trkpt>
      <trkpt lat="41.6354020" lon="2.0906700">
        <ele>348.2</ele>
        <time>2022-09-26T08:04:36Z</time>
      </trkpt>
      <trkpt lat="41.6354210" lon="2.0906640">
        <ele>348.4</ele>
        <time>2022-09-26T08:04:37Z</time>
      </trkpt>
      <trkpt lat="41.6354410" lon="2.0906600">
        <ele>348.6</ele>
        <time>2022-09-26T08:04:38Z</time>
      </trkpt>
      <trkpt lat="41.6354600" lon="2.0906550">
        <ele>348.8</ele>
        <time>2022-09-26T08:04:39Z</time>
      </trkpt>
      <trkpt lat="41.6354810" lon="2.0906530">
        <ele>348.8</ele>
        <time>2022-09-26T08:04:40Z</time>
      </trkpt>
      <trkpt lat="41.6355020" lon="2.0906520">
        <ele>349.0</ele>
        <time>2022-09-26T08:04:41Z</time>
      </trkpt>
      <trkpt lat="41.6355230" lon="2.0906490">
        <ele>349.2</ele>
        <time>2022-09-26T08:04:42Z</time>
      </trkpt>
      <trkpt lat="41.6355430" lon="2.0906500">
        <ele>349.4</ele>
        <time>2022-09-26T08:04:43Z</time>
      </trkpt>
      <trkpt lat="41.6355620" lon="2.0906530">
        <ele>349.6</ele>
        <time>2022-09-26T08:04:44Z</time>
      </trkpt>
      <trkpt lat="41.6355820" lon="2.0906550">
        <ele>350.0</ele>
        <time>2022-09-26T08:04:45Z</time>
      </trkpt>
      <trkpt lat="41.6356010" lon="2.0906570">
        <ele>350.2</ele>
        <time>2022-09-26T08:04:46Z</time>
      </trkpt>
      <trkpt lat="41.6356210" lon="2.0906590">
        <ele>350.4</ele>
        <time>2022-09-26T08:04:47Z</time>
      </trkpt>
      <trkpt lat="41.6356410" lon="2.0906620">
        <ele>350.4</ele>
        <time>2022-09-26T08:04:48Z</time>
      </trkpt>
      <trkpt lat="41.6356600" lon="2.0906640">
        <ele>350.6</ele>
        <time>2022-09-26T08:04:49Z</time>
      </trkpt>
      <trkpt lat="41.6356790" lon="2.0906670">
        <ele>350.8</ele>
        <time>2022-09-26T08:04:50Z</time>
      </trkpt>
      <trkpt lat="41.6357000" lon="2.0906710">
        <ele>350.8</ele>
        <time>2022-09-26T08:04:51Z</time>
      </trkpt>
      <trkpt lat="41.6357200" lon="2.0906730">
        <ele>351.0</ele>
        <time>2022-09-26T08:04:52Z</time>
      </trkpt>
      <trkpt lat="41.6357400" lon="2.0906770">
        <ele>351.2</ele>
        <time>2022-09-26T08:04:53Z</time>
      </trkpt>
      <trkpt lat="41.6357580" lon="2.0906840">
        <ele>351.4</ele>
        <time>2022-09-26T08:04:54Z</time>
      </trkpt>
      <trkpt lat="41.6357770" lon="2.0906910">
        <ele>351.4</ele>
        <time>2022-09-26T08:04:55Z</time>
      </trkpt>
      <trkpt lat="41.6357950" lon="2.0907000">
        <ele>351.6</ele>
        <time>2022-09-26T08:04:56Z</time>
      </trkpt>
      <trkpt lat="41.6358150" lon="2.0907070">
        <ele>351.8</ele>
        <time>2022-09-26T08:04:57Z</time>
      </trkpt>
      <trkpt lat="41.6358340" lon="2.0907120">
        <ele>351.8</ele>
        <time>2022-09-26T08:04:58Z</time>
      </trkpt>
      <trkpt lat="41.6358540" lon="2.0907160">
        <ele>352.2</ele>
        <time>2022-09-26T08:04:59Z</time>
      </trkpt>
      <trkpt lat="41.6358720" lon="2.0907230">
        <ele>352.4</ele>
        <time>2022-09-26T08:05:00Z</time>
      </trkpt>
      <trkpt lat="41.6358900" lon="2.0907310">
        <ele>352.6</ele>
        <time>2022-09-26T08:05:01Z</time>
      </trkpt>
      <trkpt lat="41.6359090" lon="2.0907420">
        <ele>353.0</ele>
        <time>2022-09-26T08:05:02Z</time>
      </trkpt>
      <trkpt lat="41.6359270" lon="2.0907510">
        <ele>353.0</ele>
        <time>2022-09-26T08:05:03Z</time>
      </trkpt>
      <trkpt lat="41.6359470" lon="2.0907590">
        <ele>353.2</ele>
        <time>2022-09-26T08:05:04Z</time>
      </trkpt>
      <trkpt lat="41.6359690" lon="2.0907620">
        <ele>353.2</ele>
        <time>2022-09-26T08:05:05Z</time>
      </trkpt>
      <trkpt lat="41.6359900" lon="2.0907650">
        <ele>353.4</ele>
        <time>2022-09-26T08:05:06Z</time>
      </trkpt>
      <trkpt lat="41.6360110" lon="2.0907680">
        <ele>353.6</ele>
        <time>2022-09-26T08:05:07Z</time>
      </trkpt>
      <trkpt lat="41.6360310" lon="2.0907690">
        <ele>353.6</ele>
        <time>2022-09-26T08:05:08Z</time>
      </trkpt>
      <trkpt lat="41.6360530" lon="2.0907700">
        <ele>353.8</ele>
        <time>2022-09-26T08:05:09Z</time>
      </trkpt>
      <trkpt lat="41.6360740" lon="2.0907680">
        <ele>353.8</ele>
        <time>2022-09-26T08:05:10Z</time>
      </trkpt>
      <trkpt lat="41.6360920" lon="2.0907700">
        <ele>354.0</ele>
        <time>2022-09-26T08:05:11Z</time>
      </trkpt>
      <trkpt lat="41.6361090" lon="2.0907670">
        <ele>354.0</ele>
        <time>2022-09-26T08:05:12Z</time>
      </trkpt>
      <trkpt lat="41.6361300" lon="2.0907600">
        <ele>354.2</ele>
        <time>2022-09-26T08:05:13Z</time>
      </trkpt>
      <trkpt lat="41.6361510" lon="2.0907470">
        <ele>354.2</ele>
        <time>2022-09-26T08:05:14Z</time>
      </trkpt>
      <trkpt lat="41.6361710" lon="2.0907310">
        <ele>354.4</ele>
        <time>2022-09-26T08:05:15Z</time>
      </trkpt>
      <trkpt lat="41.6361890" lon="2.0907170">
        <ele>354.6</ele>
        <time>2022-09-26T08:05:16Z</time>
      </trkpt>
      <trkpt lat="41.6362060" lon="2.0907030">
        <ele>354.6</ele>
        <time>2022-09-26T08:05:17Z</time>
      </trkpt>
      <trkpt lat="41.6362230" lon="2.0906870">
        <ele>355.0</ele>
        <time>2022-09-26T08:05:18Z</time>
      </trkpt>
      <trkpt lat="41.6362380" lon="2.0906690">
        <ele>355.0</ele>
        <time>2022-09-26T08:05:19Z</time>
      </trkpt>
      <trkpt lat="41.6362530" lon="2.0906520">
        <ele>355.2</ele>
        <time>2022-09-26T08:05:20Z</time>
      </trkpt>
      <trkpt lat="41.6362680" lon="2.0906400">
        <ele>355.4</ele>
        <time>2022-09-26T08:05:21Z</time>
      </trkpt>
      <trkpt lat="41.6362820" lon="2.0906220">
        <ele>355.6</ele>
        <time>2022-09-26T08:05:22Z</time>
      </trkpt>
      <trkpt lat="41.6362980" lon="2.0906020">
        <ele>355.8</ele>
        <time>2022-09-26T08:05:23Z</time>
      </trkpt>
      <trkpt lat="41.6363090" lon="2.0905800">
        <ele>356.0</ele>
        <time>2022-09-26T08:05:24Z</time>
      </trkpt>
      <trkpt lat="41.6363230" lon="2.0905600">
        <ele>356.0</ele>
        <time>2022-09-26T08:05:25Z</time>
      </trkpt>
      <trkpt lat="41.6363370" lon="2.0905410">
        <ele>356.4</ele>
        <time>2022-09-26T08:05:26Z</time>
      </trkpt>
      <trkpt lat="41.6363530" lon="2.0905220">
        <ele>356.6</ele>
        <time>2022-09-26T08:05:27Z</time>
      </trkpt>
      <trkpt lat="41.6363690" lon="2.0905070">
        <ele>356.8</ele>
        <time>2022-09-26T08:05:28Z</time>
      </trkpt>
      <trkpt lat="41.6363860" lon="2.0904920">
        <ele>357.0</ele>
        <time>2022-09-26T08:05:29Z</time>
      </trkpt>
      <trkpt lat="41.6364030" lon="2.0904780">
        <ele>357.2</ele>
        <time>2022-09-26T08:05:30Z</time>
      </trkpt>
      <trkpt lat="41.6364180" lon="2.0904610">
        <ele>357.2</ele>
        <time>2022-09-26T08:05:31Z</time>
      </trkpt>
      <trkpt lat="41.6364330" lon="2.0904410">
        <ele>357.4</ele>
        <time>2022-09-26T08:05:32Z</time>
      </trkpt>
      <trkpt lat="41.6364460" lon="2.0904210">
        <ele>357.4</ele>
        <time>2022-09-26T08:05:33Z</time>
      </trkpt>
      <trkpt lat="41.6364580" lon="2.0904010">
        <ele>357.6</ele>
        <time>2022-09-26T08:05:34Z</time>
      </trkpt>
      <trkpt lat="41.6364710" lon="2.0903800">
        <ele>357.8</ele>
        <time>2022-09-26T08:05:35Z</time>
      </trkpt>
      <trkpt lat="41.6364870" lon="2.0903610">
        <ele>358.0</ele>
        <time>2022-09-26T08:05:36Z</time>
      </trkpt>
      <trkpt lat="41.6364990" lon="2.0903430">
        <ele>358.2</ele>
        <time>2022-09-26T08:05:37Z</time>
      </trkpt>
      <trkpt lat="41.6365100" lon="2.0903260">
        <ele>358.2</ele>
        <time>2022-09-26T08:05:38Z</time>
      </trkpt>
      <trkpt lat="41.6365220" lon="2.0903100">
        <ele>358.4</ele>
        <time>2022-09-26T08:05:39Z</time>
      </trkpt>
      <trkpt lat="41.6365340" lon="2.0902920">
        <ele>358.6</ele>
        <time>2022-09-26T08:05:40Z</time>
      </trkpt>
      <trkpt lat="41.6365460" lon="2.0902730">
        <ele>358.8</ele>
        <time>2022-09-26T08:05:41Z</time>
      </trkpt>
      <trkpt lat="41.6365570" lon="2.0902540">
        <ele>359.0</ele>
        <time>2022-09-26T08:05:42Z</time>
      </trkpt>
      <trkpt lat="41.6365710" lon="2.0902350">
        <ele>359.0</ele>
        <time>2022-09-26T08:05:43Z</time>
      </trkpt>
      <trkpt lat="41.6365850" lon="2.0902190">
        <ele>359.2</ele>
        <time>2022-09-26T08:05:44Z</time>
      </trkpt>
      <trkpt lat="41.6365970" lon="2.0902030">
        <ele>359.6</ele>
        <time>2022-09-26T08:05:45Z</time>
      </trkpt>
      <trkpt lat="41.6366090" lon="2.0901870">
        <ele>359.6</ele>
        <time>2022-09-26T08:05:46Z</time>
      </trkpt>
      <trkpt lat="41.6366260" lon="2.0901660">
        <ele>359.8</ele>
        <time>2022-09-26T08:05:47Z</time>
      </trkpt>
      <trkpt lat="41.6366460" lon="2.0901440">
        <ele>360.0</ele>
        <time>2022-09-26T08:05:48Z</time>
      </trkpt>
      <trkpt lat="41.6366670" lon="2.0901220">
        <ele>360.0</ele>
        <time>2022-09-26T08:05:49Z</time>
      </trkpt>
      <trkpt lat="41.6366840" lon="2.0901040">
        <ele>360.2</ele>
        <time>2022-09-26T08:05:50Z</time>
      </trkpt>
      <trkpt lat="41.6366960" lon="2.0900880">
        <ele>360.2</ele>
        <time>2022-09-26T08:05:51Z</time>
      </trkpt>
      <trkpt lat="41.6367100" lon="2.0900720">
        <ele>360.2</ele>
        <time>2022-09-26T08:05:52Z</time>
      </trkpt>
      <trkpt lat="41.6367280" lon="2.0900620">
        <ele>360.4</ele>
        <time>2022-09-26T08:05:53Z</time>
      </trkpt>
      <trkpt lat="41.6367430" lon="2.0900510">
        <ele>360.4</ele>
        <time>2022-09-26T08:05:54Z</time>
      </trkpt>
      <trkpt lat="41.6367580" lon="2.0900420">
        <ele>360.6</ele>
        <time>2022-09-26T08:05:55Z</time>
      </trkpt>
      <trkpt lat="41.6367730" lon="2.0900380">
        <ele>360.8</ele>
        <time>2022-09-26T08:05:56Z</time>
      </trkpt>
      <trkpt lat="41.6367890" lon="2.0900300">
        <ele>361.2</ele>
        <time>2022-09-26T08:05:57Z</time>
      </trkpt>
      <trkpt lat="41.6368070" lon="2.0900280">
        <ele>361.6</ele>
        <time>2022-09-26T08:05:58Z</time>
      </trkpt>
      <trkpt lat="41.6368190" lon="2.0900130">
        <ele>361.8</ele>
        <time>2022-09-26T08:05:59Z</time>
      </trkpt>
      <trkpt lat="41.6368380" lon="2.0900110">
        <ele>362.0</ele>
        <time>2022-09-26T08:06:00Z</time>
      </trkpt>
      <trkpt lat="41.6368570" lon="2.0900040">
        <ele>362.4</ele>
        <time>2022-09-26T08:06:01Z</time>
      </trkpt>
      <trkpt lat="41.6368760" lon="2.0900010">
        <ele>362.6</ele>
        <time>2022-09-26T08:06:02Z</time>
      </trkpt>
      <trkpt lat="41.6368950" lon="2.0900030">
        <ele>362.6</ele>
        <time>2022-09-26T08:06:03Z</time>
      </trkpt>
      <trkpt lat="41.6369120" lon="2.0900050">
        <ele>362.8</ele>
        <time>2022-09-26T08:06:04Z</time>
      </trkpt>
      <trkpt lat="41.6369310" lon="2.0900100">
        <ele>362.8</ele>
        <time>2022-09-26T08:06:05Z</time>
      </trkpt>
      <trkpt lat="41.6369500" lon="2.0900130">
        <ele>363.2</ele>
        <time>2022-09-26T08:06:06Z</time>
      </trkpt>
      <trkpt lat="41.6369700" lon="2.0900150">
        <ele>363.4</ele>
        <time>2022-09-26T08:06:07Z</time>
      </trkpt>
      <trkpt lat="41.6369900" lon="2.0900160">
        <ele>363.6</ele>
        <time>2022-09-26T08:06:08Z</time>
      </trkpt>
      <trkpt lat="41.6370080" lon="2.0900150">
        <ele>363.8</ele>
        <time>2022-09-26T08:06:09Z</time>
      </trkpt>
      <trkpt lat="41.6370240" lon="2.0900140">
        <ele>363.8</ele>
        <time>2022-09-26T08:06:10Z</time>
      </trkpt>
      <trkpt lat="41.6370390" lon="2.0900110">
        <ele>364.2</ele>
        <time>2022-09-26T08:06:11Z</time>
      </trkpt>
      <trkpt lat="41.6370530" lon="2.0900080">
        <ele>364.4</ele>
        <time>2022-09-26T08:06:12Z</time>
      </trkpt>
      <trkpt lat="41.6370660" lon="2.0900060">
        <ele>364.6</ele>
        <time>2022-09-26T08:06:13Z</time>
      </trkpt>
      <trkpt lat="41.6370840" lon="2.0900100">
        <ele>364.8</ele>
        <time>2022-09-26T08:06:14Z</time>
      </trkpt>
      <trkpt lat="41.6371060" lon="2.0900150">
        <ele>365.0</ele>
        <time>2022-09-26T08:06:15Z</time>
      </trkpt>
      <trkpt lat="41.6371250" lon="2.0900200">
        <ele>365.0</ele>
        <time>2022-09-26T08:06:16Z</time>
      </trkpt>
      <trkpt lat="41.6371410" lon="2.0900240">
        <ele>365.2</ele>
        <time>2022-09-26T08:06:17Z</time>
      </trkpt>
      <trkpt lat="41.6371580" lon="2.0900310">
        <ele>365.0</ele>
        <time>2022-09-26T08:06:18Z</time>
      </trkpt>
      <trkpt lat="41.6371760" lon="2.0900370">
        <ele>365.2</ele>
        <time>2022-09-26T08:06:19Z</time>
      </trkpt>
      <trkpt lat="41.6371930" lon="2.0900440">
        <ele>365.2</ele>
        <time>2022-09-26T08:06:20Z</time>
      </trkpt>
      <trkpt lat="41.6372110" lon="2.0900510">
        <ele>365.2</ele>
        <time>2022-09-26T08:06:21Z</time>
      </trkpt>
      <trkpt lat="41.6372270" lon="2.0900590">
        <ele>365.4</ele>
        <time>2022-09-26T08:06:22Z</time>
      </trkpt>
      <trkpt lat="41.6372440" lon="2.0900690">
        <ele>365.4</ele>
        <time>2022-09-26T08:06:23Z</time>
      </trkpt>
      <trkpt lat="41.6372620" lon="2.0900790">
        <ele>365.6</ele>
        <time>2022-09-26T08:06:24Z</time>
      </trkpt>
      <trkpt lat="41.6372790" lon="2.0900880">
        <ele>365.8</ele>
        <time>2022-09-26T08:06:25Z</time>
      </trkpt>
      <trkpt lat="41.6372940" lon="2.0901010">
        <ele>366.0</ele>
        <time>2022-09-26T08:06:26Z</time>
      </trkpt>
      <trkpt lat="41.6373080" lon="2.0901150">
        <ele>366.2</ele>
        <time>2022-09-26T08:06:27Z</time>
      </trkpt>
      <trkpt lat="41.6373230" lon="2.0901290">
        <ele>366.4</ele>
        <time>2022-09-26T08:06:28Z</time>
      </trkpt>
      <trkpt lat="41.6373390" lon="2.0901460">
        <ele>366.6</ele>
        <time>2022-09-26T08:06:29Z</time>
      </trkpt>
      <trkpt lat="41.6373540" lon="2.0901600">
        <ele>367.0</ele>
        <time>2022-09-26T08:06:30Z</time>
      </trkpt>
      <trkpt lat="41.6373680" lon="2.0901780">
        <ele>367.0</ele>
        <time>2022-09-26T08:06:31Z</time>
      </trkpt>
      <trkpt lat="41.6373800" lon="2.0901970">
        <ele>367.2</ele>
        <time>2022-09-26T08:06:32Z</time>
      </trkpt>
      <trkpt lat="41.6373890" lon="2.0902190">
        <ele>367.4</ele>
        <time>2022-09-26T08:06:33Z</time>
      </trkpt>
      <trkpt lat="41.6373980" lon="2.0902410">
        <ele>367.6</ele>
        <time>2022-09-26T08:06:34Z</time>
      </trkpt>
      <trkpt lat="41.6374070" lon="2.0902600">
        <ele>367.6</ele>
        <time>2022-09-26T08:06:35Z</time>
      </trkpt>
      <trkpt lat="41.6374140" lon="2.0902800">
        <ele>367.8</ele>
        <time>2022-09-26T08:06:36Z</time>
      </trkpt>
      <trkpt lat="41.6374190" lon="2.0903030">
        <ele>368.0</ele>
        <time>2022-09-26T08:06:37Z</time>
      </trkpt>
      <trkpt lat="41.6374230" lon="2.0903290">
        <ele>368.4</ele>
        <time>2022-09-26T08:06:38Z</time>
      </trkpt>
      <trkpt lat="41.6374240" lon="2.0903540">
        <ele>368.4</ele>
        <time>2022-09-26T08:06:39Z</time>
      </trkpt>
      <trkpt lat="41.6374240" lon="2.0903820">
        <ele>368.6</ele>
        <time>2022-09-26T08:06:40Z</time>
      </trkpt>
      <trkpt lat="41.6374220" lon="2.0904110">
        <ele>368.8</ele>
        <time>2022-09-26T08:06:41Z</time>
      </trkpt>
      <trkpt lat="41.6374200" lon="2.0904420">
        <ele>368.8</ele>
        <time>2022-09-26T08:06:42Z</time>
      </trkpt>
      <trkpt lat="41.6374200" lon="2.0904720">
        <ele>369.0</ele>
        <time>2022-09-26T08:06:43Z</time>
      </trkpt>
      <trkpt lat="41.6374190" lon="2.0905000">
        <ele>369.2</ele>
        <time>2022-09-26T08:06:44Z</time>
      </trkpt>
      <trkpt lat="41.6374190" lon="2.0905300">
        <ele>369.4</ele>
        <time>2022-09-26T08:06:45Z</time>
      </trkpt>
      <trkpt lat="41.6374190" lon="2.0905620">
        <ele>369.2</ele>
        <time>2022-09-26T08:06:46Z</time>
      </trkpt>
      <trkpt lat="41.6374170" lon="2.0905960">
        <ele>369.2</ele>
        <time>2022-09-26T08:06:47Z</time>
      </trkpt>
      <trkpt lat="41.6374210" lon="2.0906320">
        <ele>369.2</ele>
        <time>2022-09-26T08:06:48Z</time>
      </trkpt>
      <trkpt lat="41.6374280" lon="2.0906670">
        <ele>369.2</ele>
        <time>2022-09-26T08:06:49Z</time>
      </trkpt>
      <trkpt lat="41.6374390" lon="2.0907020">
        <ele>369.2</ele>
        <time>2022-09-26T08:06:50Z</time>
      </trkpt>
      <trkpt lat="41.6374540" lon="2.0907350">
        <ele>369.2</ele>
        <time>2022-09-26T08:06:51Z</time>
      </trkpt>
      <trkpt lat="41.6374720" lon="2.0907640">
        <ele>369.2</ele>
        <time>2022-09-26T08:06:52Z</time>
      </trkpt>
      <trkpt lat="41.6374930" lon="2.0907890">
        <ele>369.4</ele>
        <time>2022-09-26T08:06:53Z</time>
      </trkpt>
      <trkpt lat="41.6375190" lon="2.0908020">
        <ele>369.4</ele>
        <time>2022-09-26T08:06:54Z</time>
      </trkpt>
      <trkpt lat="41.6375450" lon="2.0908080">
        <ele>369.6</ele>
        <time>2022-09-26T08:06:55Z</time>
      </trkpt>
      <trkpt lat="41.6375710" lon="2.0908070">
        <ele>369.6</ele>
        <time>2022-09-26T08:06:56Z</time>
      </trkpt>
      <trkpt lat="41.6375950" lon="2.0908030">
        <ele>369.8</ele>
        <time>2022-09-26T08:06:57Z</time>
      </trkpt>
      <trkpt lat="41.6376150" lon="2.0907960">
        <ele>369.8</ele>
        <time>2022-09-26T08:06:58Z</time>
      </trkpt>
      <trkpt lat="41.6376360" lon="2.0907860">
        <ele>369.8</ele>
        <time>2022-09-26T08:06:59Z</time>
      </trkpt>
      <trkpt lat="41.6376570" lon="2.0907800">
        <ele>370.0</ele>
        <time>2022-09-26T08:07:00Z</time>
      </trkpt>
      <trkpt lat="41.6376760" lon="2.0907740">
        <ele>370.2</ele>
        <time>2022-09-26T08:07:01Z</time>
      </trkpt>
      <trkpt lat="41.6376960" lon="2.0907670">
        <ele>370.4</ele>
        <time>2022-09-26T08:07:02Z</time>
      </trkpt>
      <trkpt lat="41.6377140" lon="2.0907620">
        <ele>370.6</ele>
        <time>2022-09-26T08:07:03Z</time>
      </trkpt>
      <trkpt lat="41.6377300" lon="2.0907620">
        <ele>370.8</ele>
        <time>2022-09-26T08:07:04Z</time>
      </trkpt>
      <trkpt lat="41.6377460" lon="2.0907620">
        <ele>371.0</ele>
        <time>2022-09-26T08:07:05Z</time>
      </trkpt>
      <trkpt lat="41.6377620" lon="2.0907630">
        <ele>371.2</ele>
        <time>2022-09-26T08:07:06Z</time>
      </trkpt>
      <trkpt lat="41.6377790" lon="2.0907690">
        <ele>371.4</ele>
        <time>2022-09-26T08:07:07Z</time>
      </trkpt>
      <trkpt lat="41.6377950" lon="2.0907740">
        <ele>371.6</ele>
        <time>2022-09-26T08:07:08Z</time>
      </trkpt>
      <trkpt lat="41.6378120" lon="2.0907790">
        <ele>371.8</ele>
        <time>2022-09-26T08:07:09Z</time>
      </trkpt>
      <trkpt lat="41.6378300" lon="2.0907830">
        <ele>372.0</ele>
        <time>2022-09-26T08:07:10Z</time>
      </trkpt>
      <trkpt lat="41.6378480" lon="2.0907890">
        <ele>372.2</ele>
        <time>2022-09-26T08:07:11Z</time>
      </trkpt>
      <trkpt lat="41.6378670" lon="2.0907960">
        <ele>372.6</ele>
        <time>2022-09-26T08:07:12Z</time>
      </trkpt>
      <trkpt lat="41.6378870" lon="2.0908000">
        <ele>372.8</ele>
        <time>2022-09-26T08:07:13Z</time>
      </trkpt>
      <trkpt lat="41.6379060" lon="2.0908030">
        <ele>372.8</ele>
        <time>2022-09-26T08:07:14Z</time>
      </trkpt>
      <trkpt lat="41.6379220" lon="2.0908030">
        <ele>372.8</ele>
        <time>2022-09-26T08:07:15Z</time>
      </trkpt>
      <trkpt lat="41.6379400" lon="2.0908040">
        <ele>373.0</ele>
        <time>2022-09-26T08:07:16Z</time>
      </trkpt>
      <trkpt lat="41.6379580" lon="2.0908060">
        <ele>373.0</ele>
        <time>2022-09-26T08:07:17Z</time>
      </trkpt>
      <trkpt lat="41.6379750" lon="2.0908080">
        <ele>373.4</ele>
        <time>2022-09-26T08:07:18Z</time>
      </trkpt>
      <trkpt lat="41.6379910" lon="2.0908110">
        <ele>373.6</ele>
        <time>2022-09-26T08:07:19Z</time>
      </trkpt>
      <trkpt lat="41.6380070" lon="2.0908150">
        <ele>373.8</ele>
        <time>2022-09-26T08:07:20Z</time>
      </trkpt>
      <trkpt lat="41.6380240" lon="2.0908190">
        <ele>374.0</ele>
        <time>2022-09-26T08:07:21Z</time>
      </trkpt>
      <trkpt lat="41.6380420" lon="2.0908240">
        <ele>374.2</ele>
        <time>2022-09-26T08:07:22Z</time>
      </trkpt>
      <trkpt lat="41.6380580" lon="2.0908300">
        <ele>374.4</ele>
        <time>2022-09-26T08:07:23Z</time>
      </trkpt>
      <trkpt lat="41.6380750" lon="2.0908320">
        <ele>374.6</ele>
        <time>2022-09-26T08:07:24Z</time>
      </trkpt>
      <trkpt lat="41.6380920" lon="2.0908370">
        <ele>374.8</ele>
        <time>2022-09-26T08:07:25Z</time>
      </trkpt>
      <trkpt lat="41.6381110" lon="2.0908360">
        <ele>375.0</ele>
        <time>2022-09-26T08:07:26Z</time>
      </trkpt>
      <trkpt lat="41.6381300" lon="2.0908340">
        <ele>375.2</ele>
        <time>2022-09-26T08:07:27Z</time>
      </trkpt>
      <trkpt lat="41.6381490" lon="2.0908310">
        <ele>375.2</ele>
        <time>2022-09-26T08:07:28Z</time>
      </trkpt>
      <trkpt lat="41.6381670" lon="2.0908300">
        <ele>375.4</ele>
        <time>2022-09-26T08:07:29Z</time>
      </trkpt>
      <trkpt lat="41.6381840" lon="2.0908280">
        <ele>375.4</ele>
        <time>2022-09-26T08:07:30Z</time>
      </trkpt>
      <trkpt lat="41.6382020" lon="2.0908250">
        <ele>375.6</ele>
        <time>2022-09-26T08:07:31Z</time>
      </trkpt>
      <trkpt lat="41.6382200" lon="2.0908190">
        <ele>375.8</ele>
        <time>2022-09-26T08:07:32Z</time>
      </trkpt>
      <trkpt lat="41.6382350" lon="2.0908160">
        <ele>375.8</ele>
        <time>2022-09-26T08:07:33Z</time>
      </trkpt>
      <trkpt lat="41.6382510" lon="2.0908150">
        <ele>376.2</ele>
        <time>2022-09-26T08:07:34Z</time>
      </trkpt>
      <trkpt lat="41.6382670" lon="2.0908110">
        <ele>376.2</ele>
        <time>2022-09-26T08:07:35Z</time>
      </trkpt>
      <trkpt lat="41.6382850" lon="2.0908050">
        <ele>376.4</ele>
        <time>2022-09-26T08:07:36Z</time>
      </trkpt>
      <trkpt lat="41.6383040" lon="2.0908000">
        <ele>376.6</ele>
        <time>2022-09-26T08:07:37Z</time>
      </trkpt>
      <trkpt lat="41.6383240" lon="2.0907950">
        <ele>376.8</ele>
        <time>2022-09-26T08:07:38Z</time>
      </trkpt>
      <trkpt lat="41.6383440" lon="2.0907850">
        <ele>377.0</ele>
        <time>2022-09-26T08:07:39Z</time>
      </trkpt>
      <trkpt lat="41.6383620" lon="2.0907810">
        <ele>377.2</ele>
        <time>2022-09-26T08:07:40Z</time>
      </trkpt>
      <trkpt lat="41.6383800" lon="2.0907720">
        <ele>377.6</ele>
        <time>2022-09-26T08:07:41Z</time>
      </trkpt>
      <trkpt lat="41.6383990" lon="2.0907630">
        <ele>377.8</ele>
        <time>2022-09-26T08:07:42Z</time>
      </trkpt>
      <trkpt lat="41.6384180" lon="2.0907550">
        <ele>378.0</ele>
        <time>2022-09-26T08:07:43Z</time>
      </trkpt>
      <trkpt lat="41.6384360" lon="2.0907480">
        <ele>378.0</ele>
        <time>2022-09-26T08:07:44Z</time>
      </trkpt>
      <trkpt lat="41.6384540" lon="2.0907430">
        <ele>378.2</ele>
        <time>2022-09-26T08:07:45Z</time>
      </trkpt>
      <trkpt lat="41.6384720" lon="2.0907370">
        <ele>378.2</ele>
        <time>2022-09-26T08:07:46Z</time>
      </trkpt>
      <trkpt lat="41.6384870" lon="2.0907310">
        <ele>378.4</ele>
        <time>2022-09-26T08:07:47Z</time>
      </trkpt>
      <trkpt lat="41.6385030" lon="2.0907260">
        <ele>378.6</ele>
        <time>2022-09-26T08:07:48Z</time>
      </trkpt>
      <trkpt lat="41.6385210" lon="2.0907220">
        <ele>378.8</ele>
        <time>2022-09-26T08:07:49Z</time>
      </trkpt>
      <trkpt lat="41.6385400" lon="2.0907210">
        <ele>379.0</ele>
        <time>2022-09-26T08:07:50Z</time>
      </trkpt>
      <trkpt lat="41.6385590" lon="2.0907190">
        <ele>379.0</ele>
        <time>2022-09-26T08:07:51Z</time>
      </trkpt>
      <trkpt lat="41.6385790" lon="2.0907170">
        <ele>379.2</ele>
        <time>2022-09-26T08:07:52Z</time>
      </trkpt>
      <trkpt lat="41.6385980" lon="2.0907140">
        <ele>379.4</ele>
        <time>2022-09-26T08:07:53Z</time>
      </trkpt>
      <trkpt lat="41.6386130" lon="2.0907110">
        <ele>379.6</ele>
        <time>2022-09-26T08:07:54Z</time>
      </trkpt>
      <trkpt lat="41.6386270" lon="2.0907150">
        <ele>380.0</ele>
        <time>2022-09-26T08:07:55Z</time>
      </trkpt>
      <trkpt lat="41.6386410" lon="2.0907220">
        <ele>380.2</ele>
        <time>2022-09-26T08:07:56Z</time>
      </trkpt>
      <trkpt lat="41.6386540" lon="2.0907300">
        <ele>380.4</ele>
        <time>2022-09-26T08:07:57Z</time>
      </trkpt>
      <trkpt lat="41.6386670" lon="2.0907380">
        <ele>380.8</ele>
        <time>2022-09-26T08:07:58Z</time>
      </trkpt>
      <trkpt lat="41.6386790" lon="2.0907450">
        <ele>381.0</ele>
        <time>2022-09-26T08:07:59Z</time>
      </trkpt>
      <trkpt lat="41.6386900" lon="2.0907510">
        <ele>381.2</ele>
        <time>2022-09-26T08:08:00Z</time>
      </trkpt>
      <trkpt lat="41.6387070" lon="2.0907600">
        <ele>381.4</ele>
        <time>2022-09-26T08:08:01Z</time>
      </trkpt>
      <trkpt lat="41.6387260" lon="2.0907650">
        <ele>381.6</ele>
        <time>2022-09-26T08:08:02Z</time>
      </trkpt>
      <trkpt lat="41.6387450" lon="2.0907670">
        <ele>381.8</ele>
        <time>2022-09-26T08:08:03Z</time>
      </trkpt>
      <trkpt lat="41.6387630" lon="2.0907670">
        <ele>382.0</ele>
        <time>2022-09-26T08:08:04Z</time>
      </trkpt>
      <trkpt lat="41.6387820" lon="2.0907640">
        <ele>382.2</ele>
        <time>2022-09-26T08:08:05Z</time>
      </trkpt>
      <trkpt lat="41.6388000" lon="2.0907630">
        <ele>382.6</ele>
        <time>2022-09-26T08:08:06Z</time>
      </trkpt>
      <trkpt lat="41.6388190" lon="2.0907620">
        <ele>382.8</ele>
        <time>2022-09-26T08:08:07Z</time>
      </trkpt>
      <trkpt lat="41.6388380" lon="2.0907580">
        <ele>383.0</ele>
        <time>2022-09-26T08:08:08Z</time>
      </trkpt>
      <trkpt lat="41.6388570" lon="2.0907490">
        <ele>383.0</ele>
        <time>2022-09-26T08:08:09Z</time>
      </trkpt>
      <trkpt lat="41.6388750" lon="2.0907370">
        <ele>383.2</ele>
        <time>2022-09-26T08:08:10Z</time>
      </trkpt>
      <trkpt lat="41.6388920" lon="2.0907270">
        <ele>383.2</ele>
        <time>2022-09-26T08:08:11Z</time>
      </trkpt>
      <trkpt lat="41.6389100" lon="2.0907150">
        <ele>383.2</ele>
        <time>2022-09-26T08:08:12Z</time>
      </trkpt>
      <trkpt lat="41.6389270" lon="2.0906950">
        <ele>383.4</ele>
        <time>2022-09-26T08:08:13Z</time>
      </trkpt>
      <trkpt lat="41.6389390" lon="2.0906780">
        <ele>383.4</ele>
        <time>2022-09-26T08:08:14Z</time>
      </trkpt>
      <trkpt lat="41.6389480" lon="2.0906490">
        <ele>383.6</ele>
        <time>2022-09-26T08:08:15Z</time>
      </trkpt>
      <trkpt lat="41.6389580" lon="2.0906190">
        <ele>383.8</ele>
        <time>2022-09-26T08:08:16Z</time>
      </trkpt>
      <trkpt lat="41.6389670" lon="2.0905960">
        <ele>383.8</ele>
        <time>2022-09-26T08:08:17Z</time>
      </trkpt>
      <trkpt lat="41.6389750" lon="2.0905640">
        <ele>384.0</ele>
        <time>2022-09-26T08:08:18Z</time>
      </trkpt>
      <trkpt lat="41.6389850" lon="2.0905370">
        <ele>384.0</ele>
        <time>2022-09-26T08:08:19Z</time>
      </trkpt>
      <trkpt lat="41.6389980" lon="2.0905120">
        <ele>384.0</ele>
        <time>2022-09-26T08:08:20Z</time>
      </trkpt>
      <trkpt lat="41.6390130" lon="2.0904950">
        <ele>384.0</ele>
        <time>2022-09-26T08:08:21Z</time>
      </trkpt>
      <trkpt lat="41.6390310" lon="2.0904800">
        <ele>384.0</ele>
        <time>2022-09-26T08:08:22Z</time>
      </trkpt>
      <trkpt lat="41.6390530" lon="2.0904660">
        <ele>384.0</ele>
        <time>2022-09-26T08:08:23Z</time>
      </trkpt>
      <trkpt lat="41.6390730" lon="2.0904530">
        <ele>384.0</ele>
        <time>2022-09-26T08:08:24Z</time>
      </trkpt>
      <trkpt lat="41.6390910" lon="2.0904480">
        <ele>384.2</ele>
        <time>2022-09-26T08:08:25Z</time>
      </trkpt>
      <trkpt lat="41.6391120" lon="2.0904430">
        <ele>384.4</ele>
        <time>2022-09-26T08:08:26Z</time>
      </trkpt>
      <trkpt lat="41.6391340" lon="2.0904380">
        <ele>384.8</ele>
        <time>2022-09-26T08:08:27Z</time>
      </trkpt>
      <trkpt lat="41.6391520" lon="2.0904330">
        <ele>385.0</ele>
        <time>2022-09-26T08:08:28Z</time>
      </trkpt>
      <trkpt lat="41.6391720" lon="2.0904280">
        <ele>385.0</ele>
        <time>2022-09-26T08:08:29Z</time>
      </trkpt>
      <trkpt lat="41.6391950" lon="2.0904210">
        <ele>385.2</ele>
        <time>2022-09-26T08:08:30Z</time>
      </trkpt>
      <trkpt lat="41.6392180" lon="2.0904130">
        <ele>385.4</ele>
        <time>2022-09-26T08:08:31Z</time>
      </trkpt>
      <trkpt lat="41.6392390" lon="2.0904030">
        <ele>385.4</ele>
        <time>2022-09-26T08:08:32Z</time>
      </trkpt>
      <trkpt lat="41.6392590" lon="2.0903960">
        <ele>385.6</ele>
        <time>2022-09-26T08:08:33Z</time>
      </trkpt>
      <trkpt lat="41.6392790" lon="2.0903860">
        <ele>385.6</ele>
        <time>2022-09-26T08:08:34Z</time>
      </trkpt>
      <trkpt lat="41.6392980" lon="2.0903750">
        <ele>385.8</ele>
        <time>2022-09-26T08:08:35Z</time>
      </trkpt>
      <trkpt lat="41.6393180" lon="2.0903660">
        <ele>386.0</ele>
        <time>2022-09-26T08:08:36Z</time>
      </trkpt>
      <trkpt lat="41.6393370" lon="2.0903620">
        <ele>386.0</ele>
        <time>2022-09-26T08:08:37Z</time>
      </trkpt>
      <trkpt lat="41.6393580" lon="2.0903560">
        <ele>386.2</ele>
        <time>2022-09-26T08:08:38Z</time>
      </trkpt>
      <trkpt lat="41.6393790" lon="2.0903470">
        <ele>386.4</ele>
        <time>2022-09-26T08:08:39Z</time>
      </trkpt>
      <trkpt lat="41.6394010" lon="2.0903390">
        <ele>386.4</ele>
        <time>2022-09-26T08:08:40Z</time>
      </trkpt>
      <trkpt lat="41.6394220" lon="2.0903290">
        <ele>386.4</ele>
        <time>2022-09-26T08:08:41Z</time>
      </trkpt>
      <trkpt lat="41.6394400" lon="2.0903200">
        <ele>386.8</ele>
        <time>2022-09-26T08:08:42Z</time>
      </trkpt>
      <trkpt lat="41.6394590" lon="2.0903090">
        <ele>387.0</ele>
        <time>2022-09-26T08:08:43Z</time>
      </trkpt>
      <trkpt lat="41.6394790" lon="2.0902940">
        <ele>387.2</ele>
        <time>2022-09-26T08:08:44Z</time>
      </trkpt>
      <trkpt lat="41.6394960" lon="2.0902800">
        <ele>387.4</ele>
        <time>2022-09-26T08:08:45Z</time>
      </trkpt>
      <trkpt lat="41.6395140" lon="2.0902710">
        <ele>387.6</ele>
        <time>2022-09-26T08:08:46Z</time>
      </trkpt>
      <trkpt lat="41.6395330" lon="2.0902590">
        <ele>387.8</ele>
        <time>2022-09-26T08:08:47Z</time>
      </trkpt>
      <trkpt lat="41.6395510" lon="2.0902450">
        <ele>388.0</ele>
        <time>2022-09-26T08:08:48Z</time>
      </trkpt>
      <trkpt lat="41.6395690" lon="2.0902300">
        <ele>388.2</ele>
        <time>2022-09-26T08:08:49Z</time>
      </trkpt>
      <trkpt lat="41.6395850" lon="2.0902130">
        <ele>388.2</ele>
        <time>2022-09-26T08:08:50Z</time>
      </trkpt>
      <trkpt lat="41.6396010" lon="2.0901960">
        <ele>388.4</ele>
        <time>2022-09-26T08:08:51Z</time>
      </trkpt>
      <trkpt lat="41.6396160" lon="2.0901810">
        <ele>388.6</ele>
        <time>2022-09-26T08:08:52Z</time>
      </trkpt>
      <trkpt lat="41.6396280" lon="2.0901660">
        <ele>388.6</ele>
        <time>2022-09-26T08:08:53Z</time>
      </trkpt>
      <trkpt lat="41.6396430" lon="2.0901460">
        <ele>389.0</ele>
        <time>2022-09-26T08:08:54Z</time>
      </trkpt>
      <trkpt lat="41.6396590" lon="2.0901300">
        <ele>388.8</ele>
        <time>2022-09-26T08:08:55Z</time>
      </trkpt>
      <trkpt lat="41.6396760" lon="2.0901130">
        <ele>389.0</ele>
        <time>2022-09-26T08:08:56Z</time>
      </trkpt>
      <trkpt lat="41.6396940" lon="2.0900980">
        <ele>389.2</ele>
        <time>2022-09-26T08:08:57Z</time>
      </trkpt>
      <trkpt lat="41.6397120" lon="2.0900800">
        <ele>389.2</ele>
        <time>2022-09-26T08:08:58Z</time>
      </trkpt>
      <trkpt lat="41.6397310" lon="2.0900570">
        <ele>389.4</ele>
        <time>2022-09-26T08:08:59Z</time>
      </trkpt>
      <trkpt lat="41.6397480" lon="2.0900380">
        <ele>389.4</ele>
        <time>2022-09-26T08:09:00Z</time>
      </trkpt>
      <trkpt lat="41.6397660" lon="2.0900200">
        <ele>389.6</ele>
        <time>2022-09-26T08:09:01Z</time>
      </trkpt>
      <trkpt lat="41.6397870" lon="2.0900020">
        <ele>389.6</ele>
        <time>2022-09-26T08:09:02Z</time>
      </trkpt>
      <trkpt lat="41.6398070" lon="2.0899880">
        <ele>389.8</ele>
        <time>2022-09-26T08:09:03Z</time>
      </trkpt>
      <trkpt lat="41.6398280" lon="2.0899740">
        <ele>389.8</ele>
        <time>2022-09-26T08:09:04Z</time>
      </trkpt>
      <trkpt lat="41.6398500" lon="2.0899580">
        <ele>390.0</ele>
        <time>2022-09-26T08:09:05Z</time>
      </trkpt>
      <trkpt lat="41.6398710" lon="2.0899470">
        <ele>390.0</ele>
        <time>2022-09-26T08:09:06Z</time>
      </trkpt>
      <trkpt lat="41.6398870" lon="2.0899380">
        <ele>390.0</ele>
        <time>2022-09-26T08:09:07Z</time>
      </trkpt>
      <trkpt lat="41.6399040" lon="2.0899280">
        <ele>390.2</ele>
        <time>2022-09-26T08:09:08Z</time>
      </trkpt>
      <trkpt lat="41.6399230" lon="2.0899300">
        <ele>390.4</ele>
        <time>2022-09-26T08:09:09Z</time>
      </trkpt>
      <trkpt lat="41.6399410" lon="2.0899300">
        <ele>390.6</ele>
        <time>2022-09-26T08:09:10Z</time>
      </trkpt>
      <trkpt lat="41.6399590" lon="2.0899340">
        <ele>390.8</ele>
        <time>2022-09-26T08:09:11Z</time>
      </trkpt>
      <trkpt lat="41.6399750" lon="2.0899340">
        <ele>391.2</ele>
        <time>2022-09-26T08:09:12Z</time>
      </trkpt>
      <trkpt lat="41.6399910" lon="2.0899280">
        <ele>391.2</ele>
        <time>2022-09-26T08:09:13Z</time>
      </trkpt>
      <trkpt lat="41.6400110" lon="2.0899320">
        <ele>391.4</ele>
        <time>2022-09-26T08:09:14Z</time>
      </trkpt>
      <trkpt lat="41.6400330" lon="2.0899370">
        <ele>391.4</ele>
        <time>2022-09-26T08:09:15Z</time>
      </trkpt>
      <trkpt lat="41.6400550" lon="2.0899350">
        <ele>391.4</ele>
        <time>2022-09-26T08:09:16Z</time>
      </trkpt>
      <trkpt lat="41.6400760" lon="2.0899360">
        <ele>391.6</ele>
        <time>2022-09-26T08:09:17Z</time>
      </trkpt>
      <trkpt lat="41.6400980" lon="2.0899350">
        <ele>391.6</ele>
        <time>2022-09-26T08:09:18Z</time>
      </trkpt>
      <trkpt lat="41.6401200" lon="2.0899340">
        <ele>391.6</ele>
        <time>2022-09-26T08:09:19Z</time>
      </trkpt>
      <trkpt lat="41.6401420" lon="2.0899330">
        <ele>391.8</ele>
        <time>2022-09-26T08:09:20Z</time>
      </trkpt>
      <trkpt lat="41.6401670" lon="2.0899320">
        <ele>391.8</ele>
        <time>2022-09-26T08:09:21Z</time>
      </trkpt>
      <trkpt lat="41.6401910" lon="2.0899290">
        <ele>392.0</ele>
        <time>2022-09-26T08:09:22Z</time>
      </trkpt>
      <trkpt lat="41.6402170" lon="2.0899240">
        <ele>392.0</ele>
        <time>2022-09-26T08:09:23Z</time>
      </trkpt>
      <trkpt lat="41.6402410" lon="2.0899210">
        <ele>392.2</ele>
        <time>2022-09-26T08:09:24Z</time>
      </trkpt>
      <trkpt lat="41.6402660" lon="2.0899180">
        <ele>392.4</ele>
        <time>2022-09-26T08:09:25Z</time>
      </trkpt>
      <trkpt lat="41.6402900" lon="2.0899160">
        <ele>392.6</ele>
        <time>2022-09-26T08:09:26Z</time>
      </trkpt>
      <trkpt lat="41.6403140" lon="2.0899130">
        <ele>392.6</ele>
        <time>2022-09-26T08:09:27Z</time>
      </trkpt>
      <trkpt lat="41.6403370" lon="2.0899100">
        <ele>393.0</ele>
        <time>2022-09-26T08:09:28Z</time>
      </trkpt>
      <trkpt lat="41.6403570" lon="2.0899080">
        <ele>393.2</ele>
        <time>2022-09-26T08:09:29Z</time>
      </trkpt>
      <trkpt lat="41.6403780" lon="2.0899070">
        <ele>393.4</ele>
        <time>2022-09-26T08:09:30Z</time>
      </trkpt>
      <trkpt lat="41.6404000" lon="2.0899100">
        <ele>393.4</ele>
        <time>2022-09-26T08:09:31Z</time>
      </trkpt>
      <trkpt lat="41.6404230" lon="2.0899140">
        <ele>393.4</ele>
        <time>2022-09-26T08:09:32Z</time>
      </trkpt>
      <trkpt lat="41.6404460" lon="2.0899170">
        <ele>393.4</ele>
        <time>2022-09-26T08:09:33Z</time>
      </trkpt>
      <trkpt lat="41.6404680" lon="2.0899250">
        <ele>393.6</ele>
        <time>2022-09-26T08:09:34Z</time>
      </trkpt>
      <trkpt lat="41.6404920" lon="2.0899260">
        <ele>393.6</ele>
        <time>2022-09-26T08:09:35Z</time>
      </trkpt>
      <trkpt lat="41.6405170" lon="2.0899300">
        <ele>393.6</ele>
        <time>2022-09-26T08:09:36Z</time>
      </trkpt>
      <trkpt lat="41.6405410" lon="2.0899340">
        <ele>393.8</ele>
        <time>2022-09-26T08:09:37Z</time>
      </trkpt>
      <trkpt lat="41.6405660" lon="2.0899400">
        <ele>393.8</ele>
        <time>2022-09-26T08:09:38Z</time>
      </trkpt>
      <trkpt lat="41.6405900" lon="2.0899480">
        <ele>394.0</ele>
        <time>2022-09-26T08:09:39Z</time>
      </trkpt>
      <trkpt lat="41.6406120" lon="2.0899550">
        <ele>394.4</ele>
        <time>2022-09-26T08:09:40Z</time>
      </trkpt>
      <trkpt lat="41.6406340" lon="2.0899610">
        <ele>394.6</ele>
        <time>2022-09-26T08:09:41Z</time>
      </trkpt>
      <trkpt lat="41.6406530" lon="2.0899680">
        <ele>394.8</ele>
        <time>2022-09-26T08:09:42Z</time>
      </trkpt>
      <trkpt lat="41.6406730" lon="2.0899760">
        <ele>395.0</ele>
        <time>2022-09-26T08:09:43Z</time>
      </trkpt>
      <trkpt lat="41.6406920" lon="2.0899810">
        <ele>395.2</ele>
        <time>2022-09-26T08:09:44Z</time>
      </trkpt>
      <trkpt lat="41.6407120" lon="2.0899860">
        <ele>395.4</ele>
        <time>2022-09-26T08:09:45Z</time>
      </trkpt>
      <trkpt lat="41.6407330" lon="2.0899890">
        <ele>395.4</ele>
        <time>2022-09-26T08:09:46Z</time>
      </trkpt>
      <trkpt lat="41.6407550" lon="2.0899970">
        <ele>395.6</ele>
        <time>2022-09-26T08:09:47Z</time>
      </trkpt>
      <trkpt lat="41.6407770" lon="2.0900030">
        <ele>395.6</ele>
        <time>2022-09-26T08:09:48Z</time>
      </trkpt>
      <trkpt lat="41.6407990" lon="2.0900080">
        <ele>395.8</ele>
        <time>2022-09-26T08:09:49Z</time>
      </trkpt>
      <trkpt lat="41.6408190" lon="2.0900120">
        <ele>395.8</ele>
        <time>2022-09-26T08:09:50Z</time>
      </trkpt>
      <trkpt lat="41.6408410" lon="2.0900150">
        <ele>396.0</ele>
        <time>2022-09-26T08:09:51Z</time>
      </trkpt>
      <trkpt lat="41.6408630" lon="2.0900190">
        <ele>396.2</ele>
        <time>2022-09-26T08:09:52Z</time>
      </trkpt>
      <trkpt lat="41.6408830" lon="2.0900240">
        <ele>396.4</ele>
        <time>2022-09-26T08:09:53Z</time>
      </trkpt>
      <trkpt lat="41.6409020" lon="2.0900340">
        <ele>396.6</ele>
        <time>2022-09-26T08:09:54Z</time>
      </trkpt>
      <trkpt lat="41.6409210" lon="2.0900440">
        <ele>396.8</ele>
        <time>2022-09-26T08:09:55Z</time>
      </trkpt>
      <trkpt lat="41.6409390" lon="2.0900540">
        <ele>396.8</ele>
        <time>2022-09-26T08:09:56Z</time>
      </trkpt>
      <trkpt lat="41.6409560" lon="2.0900610">
        <ele>397.0</ele>
        <time>2022-09-26T08:09:57Z</time>
      </trkpt>
      <trkpt lat="41.6409730" lon="2.0900670">
        <ele>397.2</ele>
        <time>2022-09-26T08:09:58Z</time>
      </trkpt>
      <trkpt lat="41.6409890" lon="2.0900750">
        <ele>397.4</ele>
        <time>2022-09-26T08:09:59Z</time>
      </trkpt>
      <trkpt lat="41.6410030" lon="2.0900830">
        <ele>397.6</ele>
        <time>2022-09-26T08:10:00Z</time>
      </trkpt>
      <trkpt lat="41.6410180" lon="2.0900930">
        <ele>397.8</ele>
        <time>2022-09-26T08:10:01Z</time>
      </trkpt>
      <trkpt lat="41.6410360" lon="2.0901020">
        <ele>397.8</ele>
        <time>2022-09-26T08:10:02Z</time>
      </trkpt>
      <trkpt lat="41.6410550" lon="2.0901110">
        <ele>397.8</ele>
        <time>2022-09-26T08:10:03Z</time>
      </trkpt>
      <trkpt lat="41.6410770" lon="2.0901210">
        <ele>398.0</ele>
        <time>2022-09-26T08:10:04Z</time>
      </trkpt>
      <trkpt lat="41.6410980" lon="2.0901300">
        <ele>398.0</ele>
        <time>2022-09-26T08:10:05Z</time>
      </trkpt>
      <trkpt lat="41.6411180" lon="2.0901360">
        <ele>398.4</ele>
        <time>2022-09-26T08:10:06Z</time>
      </trkpt>
      <trkpt lat="41.6411380" lon="2.0901420">
        <ele>398.4</ele>
        <time>2022-09-26T08:10:07Z</time>
      </trkpt>
      <trkpt lat="41.6411580" lon="2.0901480">
        <ele>398.6</ele>
        <time>2022-09-26T08:10:08Z</time>
      </trkpt>
      <trkpt lat="41.6411780" lon="2.0901510">
        <ele>399.0</ele>
        <time>2022-09-26T08:10:09Z</time>
      </trkpt>
      <trkpt lat="41.6411990" lon="2.0901540">
        <ele>399.2</ele>
        <time>2022-09-26T08:10:10Z</time>
      </trkpt>
      <trkpt lat="41.6412190" lon="2.0901540">
        <ele>399.4</ele>
        <time>2022-09-26T08:10:11Z</time>
      </trkpt>
      <trkpt lat="41.6412400" lon="2.0901520">
        <ele>399.6</ele>
        <time>2022-09-26T08:10:12Z</time>
      </trkpt>
      <trkpt lat="41.6412600" lon="2.0901460">
        <ele>399.8</ele>
        <time>2022-09-26T08:10:13Z</time>
      </trkpt>
      <trkpt lat="41.6412800" lon="2.0901410">
        <ele>399.8</ele>
        <time>2022-09-26T08:10:14Z</time>
      </trkpt>
      <trkpt lat="41.6413020" lon="2.0901360">
        <ele>399.8</ele>
        <time>2022-09-26T08:10:15Z</time>
      </trkpt>
      <trkpt lat="41.6413260" lon="2.0901340">
        <ele>399.8</ele>
        <time>2022-09-26T08:10:16Z</time>
      </trkpt>
      <trkpt lat="41.6413480" lon="2.0901350">
        <ele>399.8</ele>
        <time>2022-09-26T08:10:17Z</time>
      </trkpt>
      <trkpt lat="41.6413690" lon="2.0901400">
        <ele>400.0</ele>
        <time>2022-09-26T08:10:18Z</time>
      </trkpt>
      <trkpt lat="41.6413900" lon="2.0901420">
        <ele>400.4</ele>
        <time>2022-09-26T08:10:19Z</time>
      </trkpt>
      <trkpt lat="41.6414100" lon="2.0901400">
        <ele>400.4</ele>
        <time>2022-09-26T08:10:20Z</time>
      </trkpt>
      <trkpt lat="41.6414310" lon="2.0901400">
        <ele>400.6</ele>
        <time>2022-09-26T08:10:21Z</time>
      </trkpt>
      <trkpt lat="41.6414510" lon="2.0901440">
        <ele>400.8</ele>
        <time>2022-09-26T08:10:22Z</time>
      </trkpt>
      <trkpt lat="41.6414730" lon="2.0901520">
        <ele>401.0</ele>
        <time>2022-09-26T08:10:23Z</time>
      </trkpt>
      <trkpt lat="41.6414960" lon="2.0901590">
        <ele>401.0</ele>
        <time>2022-09-26T08:10:24Z</time>
      </trkpt>
      <trkpt lat="41.6415180" lon="2.0901650">
        <ele>401.2</ele>
        <time>2022-09-26T08:10:25Z</time>
      </trkpt>
      <trkpt lat="41.6415400" lon="2.0901740">
        <ele>401.4</ele>
        <time>2022-09-26T08:10:26Z</time>
      </trkpt>
      <trkpt lat="41.6415610" lon="2.0901830">
        <ele>401.4</ele>
        <time>2022-09-26T08:10:27Z</time>
      </trkpt>
      <trkpt lat="41.6415800" lon="2.0901930">
        <ele>401.6</ele>
        <time>2022-09-26T08:10:28Z</time>
      </trkpt>
      <trkpt lat="41.6415990" lon="2.0902070">
        <ele>401.8</ele>
        <time>2022-09-26T08:10:29Z</time>
      </trkpt>
      <trkpt lat="41.6416160" lon="2.0902210">
        <ele>401.8</ele>
        <time>2022-09-26T08:10:30Z</time>
      </trkpt>
      <trkpt lat="41.6416350" lon="2.0902360">
        <ele>402.0</ele>
        <time>2022-09-26T08:10:31Z</time>
      </trkpt>
      <trkpt lat="41.6416520" lon="2.0902530">
        <ele>402.2</ele>
        <time>2022-09-26T08:10:32Z</time>
      </trkpt>
      <trkpt lat="41.6416680" lon="2.0902710">
        <ele>402.4</ele>
        <time>2022-09-26T08:10:33Z</time>
      </trkpt>
      <trkpt lat="41.6416830" lon="2.0902900">
        <ele>402.6</ele>
        <time>2022-09-26T08:10:34Z</time>
      </trkpt>
      <trkpt lat="41.6416960" lon="2.0903110">
        <ele>402.8</ele>
        <time>2022-09-26T08:10:35Z</time>
      </trkpt>
      <trkpt lat="41.6417080" lon="2.0903330">
        <ele>403.0</ele>
        <time>2022-09-26T08:10:36Z</time>
      </trkpt>
      <trkpt lat="41.6417190" lon="2.0903540">
        <ele>403.2</ele>
        <time>2022-09-26T08:10:37Z</time>
      </trkpt>
      <trkpt lat="41.6417300" lon="2.0903760">
        <ele>403.2</ele>
        <time>2022-09-26T08:10:38Z</time>
      </trkpt>
      <trkpt lat="41.6417410" lon="2.0903990">
        <ele>403.4</ele>
        <time>2022-09-26T08:10:39Z</time>
      </trkpt>
      <trkpt lat="41.6417500" lon="2.0904230">
        <ele>403.4</ele>
        <time>2022-09-26T08:10:40Z</time>
      </trkpt>
      <trkpt lat="41.6417580" lon="2.0904490">
        <ele>403.6</ele>
        <time>2022-09-26T08:10:41Z</time>
      </trkpt>
      <trkpt lat="41.6417630" lon="2.0904740">
        <ele>403.6</ele>
        <time>2022-09-26T08:10:42Z</time>
      </trkpt>
      <trkpt lat="41.6417660" lon="2.0904990">
        <ele>403.6</ele>
        <time>2022-09-26T08:10:43Z</time>
      </trkpt>
      <trkpt lat="41.6417700" lon="2.0905230">
        <ele>403.8</ele>
        <time>2022-09-26T08:10:44Z</time>
      </trkpt>
      <trkpt lat="41.6417750" lon="2.0905490">
        <ele>404.0</ele>
        <time>2022-09-26T08:10:45Z</time>
      </trkpt>
      <trkpt lat="41.6417790" lon="2.0905750">
        <ele>404.4</ele>
        <time>2022-09-26T08:10:46Z</time>
      </trkpt>
      <trkpt lat="41.6417790" lon="2.0906010">
        <ele>404.6</ele>
        <time>2022-09-26T08:10:47Z</time>
      </trkpt>
      <trkpt lat="41.6417820" lon="2.0906270">
        <ele>405.0</ele>
        <time>2022-09-26T08:10:48Z</time>
      </trkpt>
      <trkpt lat="41.6417860" lon="2.0906520">
        <ele>405.2</ele>
        <time>2022-09-26T08:10:49Z</time>
      </trkpt>
      <trkpt lat="41.6417900" lon="2.0906770">
        <ele>405.4</ele>
        <time>2022-09-26T08:10:50Z</time>
      </trkpt>
      <trkpt lat="41.6417960" lon="2.0907020">
        <ele>405.4</ele>
        <time>2022-09-26T08:10:51Z</time>
      </trkpt>
      <trkpt lat="41.6418020" lon="2.0907280">
        <ele>405.6</ele>
        <time>2022-09-26T08:10:52Z</time>
      </trkpt>
      <trkpt lat="41.6418080" lon="2.0907540">
        <ele>405.6</ele>
        <time>2022-09-26T08:10:53Z</time>
      </trkpt>
      <trkpt lat="41.6418170" lon="2.0907790">
        <ele>405.8</ele>
        <time>2022-09-26T08:10:54Z</time>
      </trkpt>
      <trkpt lat="41.6418280" lon="2.0908010">
        <ele>406.0</ele>
        <time>2022-09-26T08:10:55Z</time>
      </trkpt>
      <trkpt lat="41.6418450" lon="2.0908190">
        <ele>406.0</ele>
        <time>2022-09-26T08:10:56Z</time>
      </trkpt>
      <trkpt lat="41.6418650" lon="2.0908290">
        <ele>406.0</ele>
        <time>2022-09-26T08:10:57Z</time>
      </trkpt>
      <trkpt lat="41.6418860" lon="2.0908350">
        <ele>406.2</ele>
        <time>2022-09-26T08:10:58Z</time>
      </trkpt>
      <trkpt lat="41.6419060" lon="2.0908380">
        <ele>406.4</ele>
        <time>2022-09-26T08:10:59Z</time>
      </trkpt>
      <trkpt lat="41.6419270" lon="2.0908370">
        <ele>406.8</ele>
        <time>2022-09-26T08:11:00Z</time>
      </trkpt>
      <trkpt lat="41.6419480" lon="2.0908330">
        <ele>407.0</ele>
        <time>2022-09-26T08:11:01Z</time>
      </trkpt>
      <trkpt lat="41.6419680" lon="2.0908250">
        <ele>407.4</ele>
        <time>2022-09-26T08:11:02Z</time>
      </trkpt>
      <trkpt lat="41.6419860" lon="2.0908140">
        <ele>407.6</ele>
        <time>2022-09-26T08:11:03Z</time>
      </trkpt>
      <trkpt lat="41.6420030" lon="2.0907980">
        <ele>407.6</ele>
        <time>2022-09-26T08:11:04Z</time>
      </trkpt>
      <trkpt lat="41.6420210" lon="2.0907800">
        <ele>407.8</ele>
        <time>2022-09-26T08:11:05Z</time>
      </trkpt>
      <trkpt lat="41.6420390" lon="2.0907610">
        <ele>407.8</ele>
        <time>2022-09-26T08:11:06Z</time>
      </trkpt>
      <trkpt lat="41.6420590" lon="2.0907430">
        <ele>408.0</ele>
        <time>2022-09-26T08:11:07Z</time>
      </trkpt>
      <trkpt lat="41.6420780" lon="2.0907260">
        <ele>408.0</ele>
        <time>2022-09-26T08:11:08Z</time>
      </trkpt>
      <trkpt lat="41.6420980" lon="2.0907100">
        <ele>408.2</ele>
        <time>2022-09-26T08:11:09Z</time>
      </trkpt>
      <trkpt lat="41.6421170" lon="2.0906940">
        <ele>408.2</ele>
        <time>2022-09-26T08:11:10Z</time>
      </trkpt>
      <trkpt lat="41.6421370" lon="2.0906770">
        <ele>408.4</ele>
        <time>2022-09-26T08:11:11Z</time>
      </trkpt>
      <trkpt lat="41.6421580" lon="2.0906630">
        <ele>408.4</ele>
        <time>2022-09-26T08:11:12Z</time>
      </trkpt>
      <trkpt lat="41.6421790" lon="2.0906480">
        <ele>408.6</ele>
        <time>2022-09-26T08:11:13Z</time>
      </trkpt>
      <trkpt lat="41.6421990" lon="2.0906330">
        <ele>408.6</ele>
        <time>2022-09-26T08:11:14Z</time>
      </trkpt>
      <trkpt lat="41.6422200" lon="2.0906250">
        <ele>408.8</ele>
        <time>2022-09-26T08:11:15Z</time>
      </trkpt>
      <trkpt lat="41.6422410" lon="2.0906200">
        <ele>408.8</ele>
        <time>2022-09-26T08:11:16Z</time>
      </trkpt>
      <trkpt lat="41.6422590" lon="2.0906160">
        <ele>408.8</ele>
        <time>2022-09-26T08:11:17Z</time>
      </trkpt>
      <trkpt lat="41.6422770" lon="2.0906130">
        <ele>409.0</ele>
        <time>2022-09-26T08:11:18Z</time>
      </trkpt>
      <trkpt lat="41.6422960" lon="2.0906120">
        <ele>409.0</ele>
        <time>2022-09-26T08:11:19Z</time>
      </trkpt>
      <trkpt lat="41.6423160" lon="2.0906150">
        <ele>409.0</ele>
        <time>2022-09-26T08:11:20Z</time>
      </trkpt>
      <trkpt lat="41.6423350" lon="2.0906240">
        <ele>409.0</ele>
        <time>2022-09-26T08:11:21Z</time>
      </trkpt>
      <trkpt lat="41.6423570" lon="2.0906280">
        <ele>409.0</ele>
        <time>2022-09-26T08:11:22Z</time>
      </trkpt>
      <trkpt lat="41.6423760" lon="2.0906330">
        <ele>409.0</ele>
        <time>2022-09-26T08:11:23Z</time>
      </trkpt>
      <trkpt lat="41.6423950" lon="2.0906450">
        <ele>409.2</ele>
        <time>2022-09-26T08:11:24Z</time>
      </trkpt>
      <trkpt lat="41.6424110" lon="2.0906600">
        <ele>409.2</ele>
        <time>2022-09-26T08:11:25Z</time>
      </trkpt>
      <trkpt lat="41.6424270" lon="2.0906790">
        <ele>409.6</ele>
        <time>2022-09-26T08:11:26Z</time>
      </trkpt>
      <trkpt lat="41.6424430" lon="2.0906980">
        <ele>409.6</ele>
        <time>2022-09-26T08:11:27Z</time>
      </trkpt>
      <trkpt lat="41.6424570" lon="2.0907180">
        <ele>409.8</ele>
        <time>2022-09-26T08:11:28Z</time>
      </trkpt>
      <trkpt lat="41.6424710" lon="2.0907370">
        <ele>410.0</ele>
        <time>2022-09-26T08:11:29Z</time>
      </trkpt>
      <trkpt lat="41.6424850" lon="2.0907580">
        <ele>410.0</ele>
        <time>2022-09-26T08:11:30Z</time>
      </trkpt>
      <trkpt lat="41.6424950" lon="2.0907820">
        <ele>410.4</ele>
        <time>2022-09-26T08:11:31Z</time>
      </trkpt>
      <trkpt lat="41.6425030" lon="2.0908040">
        <ele>410.6</ele>
        <time>2022-09-26T08:11:32Z</time>
      </trkpt>
      <trkpt lat="41.6425080" lon="2.0908270">
        <ele>410.8</ele>
        <time>2022-09-26T08:11:33Z</time>
      </trkpt>
      <trkpt lat="41.6425090" lon="2.0908490">
        <ele>411.0</ele>
        <time>2022-09-26T08:11:34Z</time>
      </trkpt>
      <trkpt lat="41.6425080" lon="2.0908710">
        <ele>411.0</ele>
        <time>2022-09-26T08:11:35Z</time>
      </trkpt>
      <trkpt lat="41.6425020" lon="2.0908930">
        <ele>411.2</ele>
        <time>2022-09-26T08:11:36Z</time>
      </trkpt>
      <trkpt lat="41.6424970" lon="2.0909170">
        <ele>411.2</ele>
        <time>2022-09-26T08:11:37Z</time>
      </trkpt>
      <trkpt lat="41.6424920" lon="2.0909430">
        <ele>411.4</ele>
        <time>2022-09-26T08:11:38Z</time>
      </trkpt>
      <trkpt lat="41.6424900" lon="2.0909710">
        <ele>411.6</ele>
        <time>2022-09-26T08:11:39Z</time>
      </trkpt>
      <trkpt lat="41.6424870" lon="2.0910000">
        <ele>411.6</ele>
        <time>2022-09-26T08:11:40Z</time>
      </trkpt>
      <trkpt lat="41.6424840" lon="2.0910250">
        <ele>412.0</ele>
        <time>2022-09-26T08:11:41Z</time>
      </trkpt>
      <trkpt lat="41.6424800" lon="2.0910500">
        <ele>412.2</ele>
        <time>2022-09-26T08:11:42Z</time>
      </trkpt>
      <trkpt lat="41.6424790" lon="2.0910750">
        <ele>412.6</ele>
        <time>2022-09-26T08:11:43Z</time>
      </trkpt>
      <trkpt lat="41.6424830" lon="2.0910990">
        <ele>412.8</ele>
        <time>2022-09-26T08:11:44Z</time>
      </trkpt>
      <trkpt lat="41.6424870" lon="2.0911220">
        <ele>412.8</ele>
        <time>2022-09-26T08:11:45Z</time>
      </trkpt>
      <trkpt lat="41.6424920" lon="2.0911460">
        <ele>413.0</ele>
        <time>2022-09-26T08:11:46Z</time>
      </trkpt>
      <trkpt lat="41.6425010" lon="2.0911720">
        <ele>413.0</ele>
        <time>2022-09-26T08:11:47Z</time>
      </trkpt>
      <trkpt lat="41.6425150" lon="2.0911980">
        <ele>413.0</ele>
        <time>2022-09-26T08:11:48Z</time>
      </trkpt>
      <trkpt lat="41.6425350" lon="2.0912140">
        <ele>413.0</ele>
        <time>2022-09-26T08:11:49Z</time>
      </trkpt>
      <trkpt lat="41.6425560" lon="2.0912240">
        <ele>413.0</ele>
        <time>2022-09-26T08:11:50Z</time>
      </trkpt>
      <trkpt lat="41.6425790" lon="2.0912310">
        <ele>413.0</ele>
        <time>2022-09-26T08:11:51Z</time>
      </trkpt>
      <trkpt lat="41.6426030" lon="2.0912340">
        <ele>413.0</ele>
        <time>2022-09-26T08:11:52Z</time>
      </trkpt>
      <trkpt lat="41.6426260" lon="2.0912370">
        <ele>413.2</ele>
        <time>2022-09-26T08:11:53Z</time>
      </trkpt>
      <trkpt lat="41.6426470" lon="2.0912390">
        <ele>413.4</ele>
        <time>2022-09-26T08:11:54Z</time>
      </trkpt>
      <trkpt lat="41.6426680" lon="2.0912420">
        <ele>413.8</ele>
        <time>2022-09-26T08:11:55Z</time>
      </trkpt>
      <trkpt lat="41.6426880" lon="2.0912430">
        <ele>414.2</ele>
        <time>2022-09-26T08:11:56Z</time>
      </trkpt>
      <trkpt lat="41.6427070" lon="2.0912480">
        <ele>414.4</ele>
        <time>2022-09-26T08:11:57Z</time>
      </trkpt>
      <trkpt lat="41.6427270" lon="2.0912550">
        <ele>414.6</ele>
        <time>2022-09-26T08:11:58Z</time>
      </trkpt>
      <trkpt lat="41.6427450" lon="2.0912620">
        <ele>414.8</ele>
        <time>2022-09-26T08:11:59Z</time>
      </trkpt>
      <trkpt lat="41.6427620" lon="2.0912700">
        <ele>415.0</ele>
        <time>2022-09-26T08:12:00Z</time>
      </trkpt>
      <trkpt lat="41.6427790" lon="2.0912790">
        <ele>415.2</ele>
        <time>2022-09-26T08:12:01Z</time>
      </trkpt>
      <trkpt lat="41.6427950" lon="2.0912860">
        <ele>415.4</ele>
        <time>2022-09-26T08:12:02Z</time>
      </trkpt>
      <trkpt lat="41.6428110" lon="2.0912940">
        <ele>415.6</ele>
        <time>2022-09-26T08:12:03Z</time>
      </trkpt>
      <trkpt lat="41.6428280" lon="2.0913030">
        <ele>415.8</ele>
        <time>2022-09-26T08:12:04Z</time>
      </trkpt>
      <trkpt lat="41.6428430" lon="2.0913130">
        <ele>416.0</ele>
        <time>2022-09-26T08:12:05Z</time>
      </trkpt>
      <trkpt lat="41.6428580" lon="2.0913250">
        <ele>416.0</ele>
        <time>2022-09-26T08:12:06Z</time>
      </trkpt>
      <trkpt lat="41.6428750" lon="2.0913390">
        <ele>416.0</ele>
        <time>2022-09-26T08:12:07Z</time>
      </trkpt>
      <trkpt lat="41.6428920" lon="2.0913520">
        <ele>416.4</ele>
        <time>2022-09-26T08:12:08Z</time>
      </trkpt>
      <trkpt lat="41.6429060" lon="2.0913690">
        <ele>416.6</ele>
        <time>2022-09-26T08:12:09Z</time>
      </trkpt>
      <trkpt lat="41.6429180" lon="2.0913860">
        <ele>417.0</ele>
        <time>2022-09-26T08:12:10Z</time>
      </trkpt>
      <trkpt lat="41.6429300" lon="2.0914050">
        <ele>417.2</ele>
        <time>2022-09-26T08:12:11Z</time>
      </trkpt>
      <trkpt lat="41.6429420" lon="2.0914230">
        <ele>417.2</ele>
        <time>2022-09-26T08:12:12Z</time>
      </trkpt>
      <trkpt lat="41.6429550" lon="2.0914430">
        <ele>417.4</ele>
        <time>2022-09-26T08:12:13Z</time>
      </trkpt>
      <trkpt lat="41.6429650" lon="2.0914650">
        <ele>417.8</ele>
        <time>2022-09-26T08:12:14Z</time>
      </trkpt>
      <trkpt lat="41.6429730" lon="2.0914870">
        <ele>417.8</ele>
        <time>2022-09-26T08:12:15Z</time>
      </trkpt>
      <trkpt lat="41.6429800" lon="2.0915110">
        <ele>418.0</ele>
        <time>2022-09-26T08:12:16Z</time>
      </trkpt>
      <trkpt lat="41.6429850" lon="2.0915320">
        <ele>418.2</ele>
        <time>2022-09-26T08:12:17Z</time>
      </trkpt>
      <trkpt lat="41.6429890" lon="2.0915510">
        <ele>418.4</ele>
        <time>2022-09-26T08:12:18Z</time>
      </trkpt>
      <trkpt lat="41.6429930" lon="2.0915700">
        <ele>418.4</ele>
        <time>2022-09-26T08:12:19Z</time>
      </trkpt>
      <trkpt lat="41.6429940" lon="2.0915870">
        <ele>418.8</ele>
        <time>2022-09-26T08:12:20Z</time>
      </trkpt>
      <trkpt lat="41.6429950" lon="2.0916070">
        <ele>419.0</ele>
        <time>2022-09-26T08:12:21Z</time>
      </trkpt>
      <trkpt lat="41.6429950" lon="2.0916270">
        <ele>419.2</ele>
        <time>2022-09-26T08:12:22Z</time>
      </trkpt>
      <trkpt lat="41.6429930" lon="2.0916470">
        <ele>419.2</ele>
        <time>2022-09-26T08:12:23Z</time>
      </trkpt>
      <trkpt lat="41.6429950" lon="2.0916690">
        <ele>419.6</ele>
        <time>2022-09-26T08:12:24Z</time>
      </trkpt>
      <trkpt lat="41.6429970" lon="2.0916910">
        <ele>419.8</ele>
        <time>2022-09-26T08:12:25Z</time>
      </trkpt>
      <trkpt lat="41.6429970" lon="2.0917150">
        <ele>420.0</ele>
        <time>2022-09-26T08:12:26Z</time>
      </trkpt>
      <trkpt lat="41.6429970" lon="2.0917400">
        <ele>420.2</ele>
        <time>2022-09-26T08:12:27Z</time>
      </trkpt>
      <trkpt lat="41.6429960" lon="2.0917620">
        <ele>420.4</ele>
        <time>2022-09-26T08:12:28Z</time>
      </trkpt>
      <trkpt lat="41.6429950" lon="2.0917840">
        <ele>420.8</ele>
        <time>2022-09-26T08:12:29Z</time>
      </trkpt>
      <trkpt lat="41.6429940" lon="2.0918040">
        <ele>420.8</ele>
        <time>2022-09-26T08:12:30Z</time>
      </trkpt>
      <trkpt lat="41.6429960" lon="2.0918230">
        <ele>421.2</ele>
        <time>2022-09-26T08:12:31Z</time>
      </trkpt>
      <trkpt lat="41.6429960" lon="2.0918410">
        <ele>421.4</ele>
        <time>2022-09-26T08:12:32Z</time>
      </trkpt>
      <trkpt lat="41.6429970" lon="2.0918590">
        <ele>421.4</ele>
        <time>2022-09-26T08:12:33Z</time>
      </trkpt>
      <trkpt lat="41.6429990" lon="2.0918800">
        <ele>421.6</ele>
        <time>2022-09-26T08:12:34Z</time>
      </trkpt>
      <trkpt lat="41.6430050" lon="2.0919030">
        <ele>421.6</ele>
        <time>2022-09-26T08:12:35Z</time>
      </trkpt>
      <trkpt lat="41.6430130" lon="2.0919250">
        <ele>421.6</ele>
        <time>2022-09-26T08:12:36Z</time>
      </trkpt>
      <trkpt lat="41.6430260" lon="2.0919450">
        <ele>421.8</ele>
        <time>2022-09-26T08:12:37Z</time>
      </trkpt>
      <trkpt lat="41.6430390" lon="2.0919660">
        <ele>422.0</ele>
        <time>2022-09-26T08:12:38Z</time>
      </trkpt>
      <trkpt lat="41.6430500" lon="2.0919840">
        <ele>422.2</ele>
        <time>2022-09-26T08:12:39Z</time>
      </trkpt>
      <trkpt lat="41.6430630" lon="2.0920020">
        <ele>422.4</ele>
        <time>2022-09-26T08:12:40Z</time>
      </trkpt>
      <trkpt lat="41.6430760" lon="2.0920200">
        <ele>422.6</ele>
        <time>2022-09-26T08:12:41Z</time>
      </trkpt>
      <trkpt lat="41.6430900" lon="2.0920360">
        <ele>422.8</ele>
        <time>2022-09-26T08:12:42Z</time>
      </trkpt>
      <trkpt lat="41.6431040" lon="2.0920520">
        <ele>423.0</ele>
        <time>2022-09-26T08:12:43Z</time>
      </trkpt>
      <trkpt lat="41.6431190" lon="2.0920690">
        <ele>423.2</ele>
        <time>2022-09-26T08:12:44Z</time>
      </trkpt>
      <trkpt lat="41.6431320" lon="2.0920890">
        <ele>423.4</ele>
        <time>2022-09-26T08:12:45Z</time>
      </trkpt>
      <trkpt lat="41.6431410" lon="2.0921090">
        <ele>423.6</ele>
        <time>2022-09-26T08:12:46Z</time>
      </trkpt>
      <trkpt lat="41.6431500" lon="2.0921310">
        <ele>423.8</ele>
        <time>2022-09-26T08:12:47Z</time>
      </trkpt>
      <trkpt lat="41.6431610" lon="2.0921530">
        <ele>424.0</ele>
        <time>2022-09-26T08:12:48Z</time>
      </trkpt>
      <trkpt lat="41.6431710" lon="2.0921770">
        <ele>424.2</ele>
        <time>2022-09-26T08:12:49Z</time>
      </trkpt>
      <trkpt lat="41.6431780" lon="2.0922020">
        <ele>424.4</ele>
        <time>2022-09-26T08:12:50Z</time>
      </trkpt>
      <trkpt lat="41.6431860" lon="2.0922250">
        <ele>424.6</ele>
        <time>2022-09-26T08:12:51Z</time>
      </trkpt>
      <trkpt lat="41.6431940" lon="2.0922480">
        <ele>424.6</ele>
        <time>2022-09-26T08:12:52Z</time>
      </trkpt>
      <trkpt lat="41.6432010" lon="2.0922690">
        <ele>424.8</ele>
        <time>2022-09-26T08:12:53Z</time>
      </trkpt>
      <trkpt lat="41.6432070" lon="2.0922920">
        <ele>424.8</ele>
        <time>2022-09-26T08:12:54Z</time>
      </trkpt>
      <trkpt lat="41.6432150" lon="2.0923160">
        <ele>425.0</ele>
        <time>2022-09-26T08:12:55Z</time>
      </trkpt>
      <trkpt lat="41.6432210" lon="2.0923380">
        <ele>425.0</ele>
        <time>2022-09-26T08:12:56Z</time>
      </trkpt>
      <trkpt lat="41.6432250" lon="2.0923590">
        <ele>425.2</ele>
        <time>2022-09-26T08:12:57Z</time>
      </trkpt>
      <trkpt lat="41.6432260" lon="2.0923820">
        <ele>425.4</ele>
        <time>2022-09-26T08:12:58Z</time>
      </trkpt>
      <trkpt lat="41.6432250" lon="2.0924020">
        <ele>425.4</ele>
        <time>2022-09-26T08:12:59Z</time>
      </trkpt>
      <trkpt lat="41.6432210" lon="2.0924180">
        <ele>425.6</ele>
        <time>2022-09-26T08:13:00Z</time>
      </trkpt>
      <trkpt lat="41.6432140" lon="2.0924350">
        <ele>426.0</ele>
        <time>2022-09-26T08:13:01Z</time>
      </trkpt>
      <trkpt lat="41.6432090" lon="2.0924520">
        <ele>426.4</ele>
        <time>2022-09-26T08:13:02Z</time>
      </trkpt>
      <trkpt lat="41.6432070" lon="2.0924730">
        <ele>426.6</ele>
        <time>2022-09-26T08:13:03Z</time>
      </trkpt>
      <trkpt lat="41.6432010" lon="2.0924940">
        <ele>426.8</ele>
        <time>2022-09-26T08:13:04Z</time>
      </trkpt>
      <trkpt lat="41.6431920" lon="2.0925120">
        <ele>427.0</ele>
        <time>2022-09-26T08:13:05Z</time>
      </trkpt>
      <trkpt lat="41.6431860" lon="2.0925310">
        <ele>427.2</ele>
        <time>2022-09-26T08:13:06Z</time>
      </trkpt>
      <trkpt lat="41.6431810" lon="2.0925530">
        <ele>427.4</ele>
        <time>2022-09-26T08:13:07Z</time>
      </trkpt>
      <trkpt lat="41.6431760" lon="2.0925740">
        <ele>427.6</ele>
        <time>2022-09-26T08:13:08Z</time>
      </trkpt>
      <trkpt lat="41.6431680" lon="2.0925910">
        <ele>427.8</ele>
        <time>2022-09-26T08:13:09Z</time>
      </trkpt>
      <trkpt lat="41.6431570" lon="2.0926090">
        <ele>428.0</ele>
        <time>2022-09-26T08:13:10Z</time>
      </trkpt>
      <trkpt lat="41.6431470" lon="2.0926270">
        <ele>428.2</ele>
        <time>2022-09-26T08:13:11Z</time>
      </trkpt>
      <trkpt lat="41.6431390" lon="2.0926450">
        <ele>428.2</ele>
        <time>2022-09-26T08:13:12Z</time>
      </trkpt>
      <trkpt lat="41.6431280" lon="2.0926590">
        <ele>428.4</ele>
        <time>2022-09-26T08:13:13Z</time>
      </trkpt>
      <trkpt lat="41.6431150" lon="2.0926750">
        <ele>428.6</ele>
        <time>2022-09-26T08:13:14Z</time>
      </trkpt>
      <trkpt lat="41.6431070" lon="2.0926970">
        <ele>428.6</ele>
        <time>2022-09-26T08:13:15Z</time>
      </trkpt>
      <trkpt lat="41.6430970" lon="2.0927180">
        <ele>428.8</ele>
        <time>2022-09-26T08:13:16Z</time>
      </trkpt>
      <trkpt lat="41.6430900" lon="2.0927420">
        <ele>429.0</ele>
        <time>2022-09-26T08:13:17Z</time>
      </trkpt>
      <trkpt lat="41.6430780" lon="2.0927570">
        <ele>429.4</ele>
        <time>2022-09-26T08:13:18Z</time>
      </trkpt>
      <trkpt lat="41.6430760" lon="2.0927690">
        <ele>429.6</ele>
        <time>2022-09-26T08:13:19Z</time>
      </trkpt>
      <trkpt lat="41.6430750" lon="2.0927780">
        <ele>429.6</ele>
        <time>2022-09-26T08:13:20Z</time>
      </trkpt>
      <trkpt lat="41.6430810" lon="2.0927970">
        <ele>429.8</ele>
        <time>2022-09-26T08:13:21Z</time>
      </trkpt>
      <trkpt lat="41.6430900" lon="2.0928180">
        <ele>430.0</ele>
        <time>2022-09-26T08:13:22Z</time>
      </trkpt>
      <trkpt lat="41.6431040" lon="2.0928380">
        <ele>430.2</ele>
        <time>2022-09-26T08:13:23Z</time>
      </trkpt>
      <trkpt lat="41.6431200" lon="2.0928510">
        <ele>430.4</ele>
        <time>2022-09-26T08:13:24Z</time>
      </trkpt>
      <trkpt lat="41.6431390" lon="2.0928650">
        <ele>430.6</ele>
        <time>2022-09-26T08:13:25Z</time>
      </trkpt>
      <trkpt lat="41.6431560" lon="2.0928730">
        <ele>431.2</ele>
        <time>2022-09-26T08:13:26Z</time>
      </trkpt>
      <trkpt lat="41.6431760" lon="2.0928860">
        <ele>431.6</ele>
        <time>2022-09-26T08:13:27Z</time>
      </trkpt>
      <trkpt lat="41.6431940" lon="2.0928960">
        <ele>431.8</ele>
        <time>2022-09-26T08:13:28Z</time>
      </trkpt>
      <trkpt lat="41.6432140" lon="2.0929070">
        <ele>432.0</ele>
        <time>2022-09-26T08:13:29Z</time>
      </trkpt>
      <trkpt lat="41.6432310" lon="2.0929110">
        <ele>432.4</ele>
        <time>2022-09-26T08:13:30Z</time>
      </trkpt>
      <trkpt lat="41.6432470" lon="2.0929160">
        <ele>432.4</ele>
        <time>2022-09-26T08:13:31Z</time>
      </trkpt>
      <trkpt lat="41.6432630" lon="2.0929250">
        <ele>432.6</ele>
        <time>2022-09-26T08:13:32Z</time>
      </trkpt>
      <trkpt lat="41.6432790" lon="2.0929320">
        <ele>432.8</ele>
        <time>2022-09-26T08:13:33Z</time>
      </trkpt>
      <trkpt lat="41.6432950" lon="2.0929400">
        <ele>433.2</ele>
        <time>2022-09-26T08:13:34Z</time>
      </trkpt>
      <trkpt lat="41.6433070" lon="2.0929500">
        <ele>433.4</ele>
        <time>2022-09-26T08:13:35Z</time>
      </trkpt>
      <trkpt lat="41.6433200" lon="2.0929620">
        <ele>433.6</ele>
        <time>2022-09-26T08:13:36Z</time>
      </trkpt>
      <trkpt lat="41.6433310" lon="2.0929750">
        <ele>433.8</ele>
        <time>2022-09-26T08:13:37Z</time>
      </trkpt>
      <trkpt lat="41.6433390" lon="2.0929920">
        <ele>434.0</ele>
        <time>2022-09-26T08:13:38Z</time>
      </trkpt>
      <trkpt lat="41.6433460" lon="2.0930100">
        <ele>434.0</ele>
        <time>2022-09-26T08:13:39Z</time>
      </trkpt>
      <trkpt lat="41.6433510" lon="2.0930300">
        <ele>434.2</ele>
        <time>2022-09-26T08:13:40Z</time>
      </trkpt>
      <trkpt lat="41.6433570" lon="2.0930490">
        <ele>434.2</ele>
        <time>2022-09-26T08:13:41Z</time>
      </trkpt>
      <trkpt lat="41.6433660" lon="2.0930700">
        <ele>434.4</ele>
        <time>2022-09-26T08:13:42Z</time>
      </trkpt>
      <trkpt lat="41.6433720" lon="2.0930880">
        <ele>434.6</ele>
        <time>2022-09-26T08:13:43Z</time>
      </trkpt>
      <trkpt lat="41.6433780" lon="2.0931040">
        <ele>434.8</ele>
        <time>2022-09-26T08:13:44Z</time>
      </trkpt>
      <trkpt lat="41.6433820" lon="2.0931220">
        <ele>434.8</ele>
        <time>2022-09-26T08:13:45Z</time>
      </trkpt>
      <trkpt lat="41.6433890" lon="2.0931420">
        <ele>434.8</ele>
        <time>2022-09-26T08:13:46Z</time>
      </trkpt>
      <trkpt lat="41.6433970" lon="2.0931600">
        <ele>435.0</ele>
        <time>2022-09-26T08:13:47Z</time>
      </trkpt>
      <trkpt lat="41.6434010" lon="2.0931760">
        <ele>435.2</ele>
        <time>2022-09-26T08:13:48Z</time>
      </trkpt>
      <trkpt lat="41.6434060" lon="2.0931940">
        <ele>435.2</ele>
        <time>2022-09-26T08:13:49Z</time>
      </trkpt>
      <trkpt lat="41.6434090" lon="2.0932110">
        <ele>435.6</ele>
        <time>2022-09-26T08:13:50Z</time>
      </trkpt>
      <trkpt lat="41.6434120" lon="2.0932270">
        <ele>435.8</ele>
        <time>2022-09-26T08:13:51Z</time>
      </trkpt>
      <trkpt lat="41.6434170" lon="2.0932480">
        <ele>435.8</ele>
        <time>2022-09-26T08:13:52Z</time>
      </trkpt>
      <trkpt lat="41.6434200" lon="2.0932650">
        <ele>436.0</ele>
        <time>2022-09-26T08:13:53Z</time>
      </trkpt>
      <trkpt lat="41.6434200" lon="2.0932810">
        <ele>436.0</ele>
        <time>2022-09-26T08:13:54Z</time>
      </trkpt>
      <trkpt lat="41.6434200" lon="2.0932970">
        <ele>436.2</ele>
        <time>2022-09-26T08:13:55Z</time>
      </trkpt>
      <trkpt lat="41.6434220" lon="2.0933180">
        <ele>436.4</ele>
        <time>2022-09-26T08:13:56Z</time>
      </trkpt>
      <trkpt lat="41.6434250" lon="2.0933360">
        <ele>436.6</ele>
        <time>2022-09-26T08:13:57Z</time>
      </trkpt>
      <trkpt lat="41.6434320" lon="2.0933550">
        <ele>436.8</ele>
        <time>2022-09-26T08:13:58Z</time>
      </trkpt>
      <trkpt lat="41.6434350" lon="2.0933740">
        <ele>436.8</ele>
        <time>2022-09-26T08:13:59Z</time>
      </trkpt>
      <trkpt lat="41.6434350" lon="2.0933940">
        <ele>437.0</ele>
        <time>2022-09-26T08:14:00Z</time>
      </trkpt>
      <trkpt lat="41.6434370" lon="2.0934150">
        <ele>437.4</ele>
        <time>2022-09-26T08:14:01Z</time>
      </trkpt>
      <trkpt lat="41.6434420" lon="2.0934390">
        <ele>437.6</ele>
        <time>2022-09-26T08:14:02Z</time>
      </trkpt>
      <trkpt lat="41.6434450" lon="2.0934580">
        <ele>437.8</ele>
        <time>2022-09-26T08:14:03Z</time>
      </trkpt>
      <trkpt lat="41.6434470" lon="2.0934750">
        <ele>437.8</ele>
        <time>2022-09-26T08:14:04Z</time>
      </trkpt>
      <trkpt lat="41.6434470" lon="2.0934890">
        <ele>438.2</ele>
        <time>2022-09-26T08:14:05Z</time>
      </trkpt>
      <trkpt lat="41.6434480" lon="2.0935110">
        <ele>438.6</ele>
        <time>2022-09-26T08:14:06Z</time>
      </trkpt>
      <trkpt lat="41.6434470" lon="2.0935330">
        <ele>438.8</ele>
        <time>2022-09-26T08:14:07Z</time>
      </trkpt>
      <trkpt lat="41.6434430" lon="2.0935520">
        <ele>439.0</ele>
        <time>2022-09-26T08:14:08Z</time>
      </trkpt>
      <trkpt lat="41.6434400" lon="2.0935710">
        <ele>439.0</ele>
        <time>2022-09-26T08:14:09Z</time>
      </trkpt>
      <trkpt lat="41.6434440" lon="2.0935920">
        <ele>439.2</ele>
        <time>2022-09-26T08:14:10Z</time>
      </trkpt>
      <trkpt lat="41.6434490" lon="2.0936140">
        <ele>439.4</ele>
        <time>2022-09-26T08:14:11Z</time>
      </trkpt>
      <trkpt lat="41.6434480" lon="2.0936320">
        <ele>439.8</ele>
        <time>2022-09-26T08:14:12Z</time>
      </trkpt>
      <trkpt lat="41.6434460" lon="2.0936560">
        <ele>440.2</ele>
        <time>2022-09-26T08:14:13Z</time>
      </trkpt>
      <trkpt lat="41.6434510" lon="2.0936770">
        <ele>440.6</ele>
        <time>2022-09-26T08:14:14Z</time>
      </trkpt>
      <trkpt lat="41.6434560" lon="2.0936980">
        <ele>441.0</ele>
        <time>2022-09-26T08:14:15Z</time>
      </trkpt>
      <trkpt lat="41.6434560" lon="2.0937190">
        <ele>441.2</ele>
        <time>2022-09-26T08:14:16Z</time>
      </trkpt>
      <trkpt lat="41.6434640" lon="2.0937440">
        <ele>441.4</ele>
        <time>2022-09-26T08:14:17Z</time>
      </trkpt>
      <trkpt lat="41.6434760" lon="2.0937650">
        <ele>441.6</ele>
        <time>2022-09-26T08:14:18Z</time>
      </trkpt>
      <trkpt lat="41.6434870" lon="2.0937830">
        <ele>441.8</ele>
        <time>2022-09-26T08:14:19Z</time>
      </trkpt>
      <trkpt lat="41.6435000" lon="2.0938010">
        <ele>441.8</ele>
        <time>2022-09-26T08:14:20Z</time>
      </trkpt>
      <trkpt lat="41.6435130" lon="2.0938170">
        <ele>442.0</ele>
        <time>2022-09-26T08:14:21Z</time>
      </trkpt>
      <trkpt lat="41.6435320" lon="2.0938310">
        <ele>442.2</ele>
        <time>2022-09-26T08:14:22Z</time>
      </trkpt>
      <trkpt lat="41.6435490" lon="2.0938380">
        <ele>442.4</ele>
        <time>2022-09-26T08:14:23Z</time>
      </trkpt>
      <trkpt lat="41.6435690" lon="2.0938430">
        <ele>442.6</ele>
        <time>2022-09-26T08:14:24Z</time>
      </trkpt>
      <trkpt lat="41.6435890" lon="2.0938480">
        <ele>442.8</ele>
        <time>2022-09-26T08:14:25Z</time>
      </trkpt>
      <trkpt lat="41.6436080" lon="2.0938520">
        <ele>443.0</ele>
        <time>2022-09-26T08:14:26Z</time>
      </trkpt>
      <trkpt lat="41.6436270" lon="2.0938510">
        <ele>443.2</ele>
        <time>2022-09-26T08:14:27Z</time>
      </trkpt>
      <trkpt lat="41.6436440" lon="2.0938500">
        <ele>443.4</ele>
        <time>2022-09-26T08:14:28Z</time>
      </trkpt>
      <trkpt lat="41.6436600" lon="2.0938470">
        <ele>443.6</ele>
        <time>2022-09-26T08:14:29Z</time>
      </trkpt>
      <trkpt lat="41.6436770" lon="2.0938430">
        <ele>443.8</ele>
        <time>2022-09-26T08:14:30Z</time>
      </trkpt>
      <trkpt lat="41.6436940" lon="2.0938390">
        <ele>444.0</ele>
        <time>2022-09-26T08:14:31Z</time>
      </trkpt>
      <trkpt lat="41.6437090" lon="2.0938370">
        <ele>444.0</ele>
        <time>2022-09-26T08:14:32Z</time>
      </trkpt>
      <trkpt lat="41.6437220" lon="2.0938340">
        <ele>444.2</ele>
        <time>2022-09-26T08:14:33Z</time>
      </trkpt>
      <trkpt lat="41.6437380" lon="2.0938340">
        <ele>444.4</ele>
        <time>2022-09-26T08:14:34Z</time>
      </trkpt>
      <trkpt lat="41.6437560" lon="2.0938370">
        <ele>444.4</ele>
        <time>2022-09-26T08:14:35Z</time>
      </trkpt>
      <trkpt lat="41.6437720" lon="2.0938440">
        <ele>444.6</ele>
        <time>2022-09-26T08:14:36Z</time>
      </trkpt>
      <trkpt lat="41.6437850" lon="2.0938490">
        <ele>444.8</ele>
        <time>2022-09-26T08:14:37Z</time>
      </trkpt>
      <trkpt lat="41.6437950" lon="2.0938560">
        <ele>444.8</ele>
        <time>2022-09-26T08:14:38Z</time>
      </trkpt>
      <trkpt lat="41.6438050" lon="2.0938660">
        <ele>445.0</ele>
        <time>2022-09-26T08:14:39Z</time>
      </trkpt>
      <trkpt lat="41.6438170" lon="2.0938750">
        <ele>445.0</ele>
        <time>2022-09-26T08:14:40Z</time>
      </trkpt>
      <trkpt lat="41.6438280" lon="2.0938870">
        <ele>445.2</ele>
        <time>2022-09-26T08:14:41Z</time>
      </trkpt>
      <trkpt lat="41.6438370" lon="2.0938990">
        <ele>445.4</ele>
        <time>2022-09-26T08:14:42Z</time>
      </trkpt>
      <trkpt lat="41.6438470" lon="2.0939100">
        <ele>445.6</ele>
        <time>2022-09-26T08:14:43Z</time>
      </trkpt>
      <trkpt lat="41.6438600" lon="2.0939250">
        <ele>445.8</ele>
        <time>2022-09-26T08:14:44Z</time>
      </trkpt>
      <trkpt lat="41.6438710" lon="2.0939370">
        <ele>446.0</ele>
        <time>2022-09-26T08:14:45Z</time>
      </trkpt>
      <trkpt lat="41.6438850" lon="2.0939520">
        <ele>446.0</ele>
        <time>2022-09-26T08:14:46Z</time>
      </trkpt>
      <trkpt lat="41.6438990" lon="2.0939680">
        <ele>446.2</ele>
        <time>2022-09-26T08:14:47Z</time>
      </trkpt>
      <trkpt lat="41.6439110" lon="2.0939840">
        <ele>446.4</ele>
        <time>2022-09-26T08:14:48Z</time>
      </trkpt>
      <trkpt lat="41.6439220" lon="2.0939980">
        <ele>446.4</ele>
        <time>2022-09-26T08:14:49Z</time>
      </trkpt>
      <trkpt lat="41.6439310" lon="2.0940150">
        <ele>446.4</ele>
        <time>2022-09-26T08:14:50Z</time>
      </trkpt>
      <trkpt lat="41.6439400" lon="2.0940300">
        <ele>446.4</ele>
        <time>2022-09-26T08:14:51Z</time>
      </trkpt>
      <trkpt lat="41.6439500" lon="2.0940420">
        <ele>446.6</ele>
        <time>2022-09-26T08:14:52Z</time>
      </trkpt>
      <trkpt lat="41.6439580" lon="2.0940550">
        <ele>447.0</ele>
        <time>2022-09-26T08:14:53Z</time>
      </trkpt>
      <trkpt lat="41.6439630" lon="2.0940670">
        <ele>447.2</ele>
        <time>2022-09-26T08:14:54Z</time>
      </trkpt>
      <trkpt lat="41.6439720" lon="2.0940860">
        <ele>447.4</ele>
        <time>2022-09-26T08:14:55Z</time>
      </trkpt>
      <trkpt lat="41.6439800" lon="2.0941010">
        <ele>447.8</ele>
        <time>2022-09-26T08:14:56Z</time>
      </trkpt>
      <trkpt lat="41.6439890" lon="2.0941150">
        <ele>448.0</ele>
        <time>2022-09-26T08:14:57Z</time>
      </trkpt>
      <trkpt lat="41.6439940" lon="2.0941320">
        <ele>448.2</ele>
        <time>2022-09-26T08:14:58Z</time>
      </trkpt>
      <trkpt lat="41.6439980" lon="2.0941490">
        <ele>448.2</ele>
        <time>2022-09-26T08:14:59Z</time>
      </trkpt>
      <trkpt lat="41.6440020" lon="2.0941660">
        <ele>448.4</ele>
        <time>2022-09-26T08:15:00Z</time>
      </trkpt>
      <trkpt lat="41.6440060" lon="2.0941850">
        <ele>448.6</ele>
        <time>2022-09-26T08:15:01Z</time>
      </trkpt>
      <trkpt lat="41.6440090" lon="2.0942030">
        <ele>448.8</ele>
        <time>2022-09-26T08:15:02Z</time>
      </trkpt>
      <trkpt lat="41.6440140" lon="2.0942200">
        <ele>448.8</ele>
        <time>2022-09-26T08:15:03Z</time>
      </trkpt>
      <trkpt lat="41.6440190" lon="2.0942370">
        <ele>449.0</ele>
        <time>2022-09-26T08:15:04Z</time>
      </trkpt>
      <trkpt lat="41.6440270" lon="2.0942520">
        <ele>449.2</ele>
        <time>2022-09-26T08:15:05Z</time>
      </trkpt>
      <trkpt lat="41.6440340" lon="2.0942670">
        <ele>449.2</ele>
        <time>2022-09-26T08:15:06Z</time>
      </trkpt>
      <trkpt lat="41.6440410" lon="2.0942840">
        <ele>449.4</ele>
        <time>2022-09-26T08:15:07Z</time>
      </trkpt>
      <trkpt lat="41.6440460" lon="2.0943010">
        <ele>449.6</ele>
        <time>2022-09-26T08:15:08Z</time>
      </trkpt>
      <trkpt lat="41.6440510" lon="2.0943190">
        <ele>449.8</ele>
        <time>2022-09-26T08:15:09Z</time>
      </trkpt>
      <trkpt lat="41.6440520" lon="2.0943390">
        <ele>450.0</ele>
        <time>2022-09-26T08:15:10Z</time>
      </trkpt>
      <trkpt lat="41.6440510" lon="2.0943560">
        <ele>450.2</ele>
        <time>2022-09-26T08:15:11Z</time>
      </trkpt>
      <trkpt lat="41.6440550" lon="2.0943740">
        <ele>450.4</ele>
        <time>2022-09-26T08:15:12Z</time>
      </trkpt>
      <trkpt lat="41.6440570" lon="2.0943910">
        <ele>450.8</ele>
        <time>2022-09-26T08:15:13Z</time>
      </trkpt>
      <trkpt lat="41.6440560" lon="2.0944080">
        <ele>450.8</ele>
        <time>2022-09-26T08:15:14Z</time>
      </trkpt>
      <trkpt lat="41.6440590" lon="2.0944260">
        <ele>451.0</ele>
        <time>2022-09-26T08:15:15Z</time>
      </trkpt>
      <trkpt lat="41.6440640" lon="2.0944420">
        <ele>451.2</ele>
        <time>2022-09-26T08:15:16Z</time>
      </trkpt>
      <trkpt lat="41.6440700" lon="2.0944570">
        <ele>451.6</ele>
        <time>2022-09-26T08:15:17Z</time>
      </trkpt>
      <trkpt lat="41.6440740" lon="2.0944730">
        <ele>452.0</ele>
        <time>2022-09-26T08:15:18Z</time>
      </trkpt>
      <trkpt lat="41.6440770" lon="2.0944900">
        <ele>452.2</ele>
        <time>2022-09-26T08:15:19Z</time>
      </trkpt>
      <trkpt lat="41.6440820" lon="2.0945090">
        <ele>452.4</ele>
        <time>2022-09-26T08:15:20Z</time>
      </trkpt>
      <trkpt lat="41.6440860" lon="2.0945260">
        <ele>452.6</ele>
        <time>2022-09-26T08:15:21Z</time>
      </trkpt>
      <trkpt lat="41.6440890" lon="2.0945450">
        <ele>453.0</ele>
        <time>2022-09-26T08:15:22Z</time>
      </trkpt>
      <trkpt lat="41.6440890" lon="2.0945620">
        <ele>453.0</ele>
        <time>2022-09-26T08:15:23Z</time>
      </trkpt>
      <trkpt lat="41.6440900" lon="2.0945790">
        <ele>453.2</ele>
        <time>2022-09-26T08:15:24Z</time>
      </trkpt>
      <trkpt lat="41.6440910" lon="2.0945960">
        <ele>453.4</ele>
        <time>2022-09-26T08:15:25Z</time>
      </trkpt>
      <trkpt lat="41.6440950" lon="2.0946140">
        <ele>453.6</ele>
        <time>2022-09-26T08:15:26Z</time>
      </trkpt>
      <trkpt lat="41.6440970" lon="2.0946310">
        <ele>454.0</ele>
        <time>2022-09-26T08:15:27Z</time>
      </trkpt>
      <trkpt lat="41.6440960" lon="2.0946470">
        <ele>454.2</ele>
        <time>2022-09-26T08:15:28Z</time>
      </trkpt>
      <trkpt lat="41.6440950" lon="2.0946600">
        <ele>454.4</ele>
        <time>2022-09-26T08:15:29Z</time>
      </trkpt>
      <trkpt lat="41.6440930" lon="2.0946760">
        <ele>454.4</ele>
        <time>2022-09-26T08:15:30Z</time>
      </trkpt>
      <trkpt lat="41.6440900" lon="2.0946940">
        <ele>454.6</ele>
        <time>2022-09-26T08:15:31Z</time>
      </trkpt>
      <trkpt lat="41.6440900" lon="2.0947180">
        <ele>454.8</ele>
        <time>2022-09-26T08:15:32Z</time>
      </trkpt>
      <trkpt lat="41.6440930" lon="2.0947440">
        <ele>455.0</ele>
        <time>2022-09-26T08:15:33Z</time>
      </trkpt>
      <trkpt lat="41.6440920" lon="2.0947650">
        <ele>455.2</ele>
        <time>2022-09-26T08:15:34Z</time>
      </trkpt>
      <trkpt lat="41.6440900" lon="2.0947870">
        <ele>455.4</ele>
        <time>2022-09-26T08:15:35Z</time>
      </trkpt>
      <trkpt lat="41.6440890" lon="2.0948050">
        <ele>455.6</ele>
        <time>2022-09-26T08:15:36Z</time>
      </trkpt>
      <trkpt lat="41.6440880" lon="2.0948210">
        <ele>455.6</ele>
        <time>2022-09-26T08:15:37Z</time>
      </trkpt>
      <trkpt lat="41.6440910" lon="2.0948400">
        <ele>455.8</ele>
        <time>2022-09-26T08:15:38Z</time>
      </trkpt>
      <trkpt lat="41.6440940" lon="2.0948570">
        <ele>455.8</ele>
        <time>2022-09-26T08:15:39Z</time>
      </trkpt>
      <trkpt lat="41.6440920" lon="2.0948770">
        <ele>456.2</ele>
        <time>2022-09-26T08:15:40Z</time>
      </trkpt>
      <trkpt lat="41.6440980" lon="2.0949000">
        <ele>456.4</ele>
        <time>2022-09-26T08:15:41Z</time>
      </trkpt>
      <trkpt lat="41.6441060" lon="2.0949200">
        <ele>456.6</ele>
        <time>2022-09-26T08:15:42Z</time>
      </trkpt>
      <trkpt lat="41.6441140" lon="2.0949420">
        <ele>456.6</ele>
        <time>2022-09-26T08:15:43Z</time>
      </trkpt>
      <trkpt lat="41.6441240" lon="2.0949630">
        <ele>456.8</ele>
        <time>2022-09-26T08:15:44Z</time>
      </trkpt>
      <trkpt lat="41.6441330" lon="2.0949830">
        <ele>457.0</ele>
        <time>2022-09-26T08:15:45Z</time>
      </trkpt>
      <trkpt lat="41.6441400" lon="2.0950040">
        <ele>457.0</ele>
        <time>2022-09-26T08:15:46Z</time>
      </trkpt>
      <trkpt lat="41.6441510" lon="2.0950280">
        <ele>457.4</ele>
        <time>2022-09-26T08:15:47Z</time>
      </trkpt>
      <trkpt lat="41.6441590" lon="2.0950470">
        <ele>457.6</ele>
        <time>2022-09-26T08:15:48Z</time>
      </trkpt>
      <trkpt lat="41.6441660" lon="2.0950650">
        <ele>457.8</ele>
        <time>2022-09-26T08:15:49Z</time>
      </trkpt>
      <trkpt lat="41.6441750" lon="2.0950840">
        <ele>458.2</ele>
        <time>2022-09-26T08:15:50Z</time>
      </trkpt>
      <trkpt lat="41.6441830" lon="2.0951020">
        <ele>458.4</ele>
        <time>2022-09-26T08:15:51Z</time>
      </trkpt>
      <trkpt lat="41.6441910" lon="2.0951220">
        <ele>458.8</ele>
        <time>2022-09-26T08:15:52Z</time>
      </trkpt>
      <trkpt lat="41.6441990" lon="2.0951400">
        <ele>459.0</ele>
        <time>2022-09-26T08:15:53Z</time>
      </trkpt>
      <trkpt lat="41.6442060" lon="2.0951600">
        <ele>459.2</ele>
        <time>2022-09-26T08:15:54Z</time>
      </trkpt>
      <trkpt lat="41.6442100" lon="2.0951800">
        <ele>459.4</ele>
        <time>2022-09-26T08:15:55Z</time>
      </trkpt>
      <trkpt lat="41.6442150" lon="2.0952000">
        <ele>459.6</ele>
        <time>2022-09-26T08:15:56Z</time>
      </trkpt>
      <trkpt lat="41.6442210" lon="2.0952180">
        <ele>459.8</ele>
        <time>2022-09-26T08:15:57Z</time>
      </trkpt>
      <trkpt lat="41.6442260" lon="2.0952370">
        <ele>460.4</ele>
        <time>2022-09-26T08:15:58Z</time>
      </trkpt>
      <trkpt lat="41.6442320" lon="2.0952570">
        <ele>460.6</ele>
        <time>2022-09-26T08:15:59Z</time>
      </trkpt>
      <trkpt lat="41.6442410" lon="2.0952750">
        <ele>460.8</ele>
        <time>2022-09-26T08:16:00Z</time>
      </trkpt>
      <trkpt lat="41.6442500" lon="2.0952930">
        <ele>461.0</ele>
        <time>2022-09-26T08:16:01Z</time>
      </trkpt>
      <trkpt lat="41.6442610" lon="2.0953110">
        <ele>461.2</ele>
        <time>2022-09-26T08:16:02Z</time>
      </trkpt>
      <trkpt lat="41.6442730" lon="2.0953280">
        <ele>461.6</ele>
        <time>2022-09-26T08:16:03Z</time>
      </trkpt>
      <trkpt lat="41.6442880" lon="2.0953440">
        <ele>461.6</ele>
        <time>2022-09-26T08:16:04Z</time>
      </trkpt>
      <trkpt lat="41.6443030" lon="2.0953570">
        <ele>461.8</ele>
        <time>2022-09-26T08:16:05Z</time>
      </trkpt>
      <trkpt lat="41.6443190" lon="2.0953650">
        <ele>462.0</ele>
        <time>2022-09-26T08:16:06Z</time>
      </trkpt>
      <trkpt lat="41.6443400" lon="2.0953650">
        <ele>462.2</ele>
        <time>2022-09-26T08:16:07Z</time>
      </trkpt>
      <trkpt lat="41.6443590" lon="2.0953620">
        <ele>462.6</ele>
        <time>2022-09-26T08:16:08Z</time>
      </trkpt>
      <trkpt lat="41.6443770" lon="2.0953550">
        <ele>462.6</ele>
        <time>2022-09-26T08:16:09Z</time>
      </trkpt>
      <trkpt lat="41.6443930" lon="2.0953450">
        <ele>462.8</ele>
        <time>2022-09-26T08:16:10Z</time>
      </trkpt>
      <trkpt lat="41.6444100" lon="2.0953340">
        <ele>463.0</ele>
        <time>2022-09-26T08:16:11Z</time>
      </trkpt>
      <trkpt lat="41.6444250" lon="2.0953210">
        <ele>463.0</ele>
        <time>2022-09-26T08:16:12Z</time>
      </trkpt>
      <trkpt lat="41.6444400" lon="2.0953070">
        <ele>463.4</ele>
        <time>2022-09-26T08:16:13Z</time>
      </trkpt>
      <trkpt lat="41.6444540" lon="2.0952930">
        <ele>463.6</ele>
        <time>2022-09-26T08:16:14Z</time>
      </trkpt>
      <trkpt lat="41.6444680" lon="2.0952780">
        <ele>463.6</ele>
        <time>2022-09-26T08:16:15Z</time>
      </trkpt>
      <trkpt lat="41.6444830" lon="2.0952640">
        <ele>463.8</ele>
        <time>2022-09-26T08:16:16Z</time>
      </trkpt>
      <trkpt lat="41.6444980" lon="2.0952500">
        <ele>464.0</ele>
        <time>2022-09-26T08:16:17Z</time>
      </trkpt>
      <trkpt lat="41.6445100" lon="2.0952340">
        <ele>464.0</ele>
        <time>2022-09-26T08:16:18Z</time>
      </trkpt>
      <trkpt lat="41.6445230" lon="2.0952150">
        <ele>464.0</ele>
        <time>2022-09-26T08:16:19Z</time>
      </trkpt>
      <trkpt lat="41.6445360" lon="2.0951980">
        <ele>464.2</ele>
        <time>2022-09-26T08:16:20Z</time>
      </trkpt>
      <trkpt lat="41.6445500" lon="2.0951830">
        <ele>464.2</ele>
        <time>2022-09-26T08:16:21Z</time>
      </trkpt>
      <trkpt lat="41.6445640" lon="2.0951670">
        <ele>464.6</ele>
        <time>2022-09-26T08:16:22Z</time>
      </trkpt>
      <trkpt lat="41.6445770" lon="2.0951520">
        <ele>464.8</ele>
        <time>2022-09-26T08:16:23Z</time>
      </trkpt>
      <trkpt lat="41.6445900" lon="2.0951370">
        <ele>464.8</ele>
        <time>2022-09-26T08:16:24Z</time>
      </trkpt>
      <trkpt lat="41.6446030" lon="2.0951200">
        <ele>465.0</ele>
        <time>2022-09-26T08:16:25Z</time>
      </trkpt>
      <trkpt lat="41.6446170" lon="2.0951060">
        <ele>465.0</ele>
        <time>2022-09-26T08:16:26Z</time>
      </trkpt>
      <trkpt lat="41.6446300" lon="2.0950930">
        <ele>465.2</ele>
        <time>2022-09-26T08:16:27Z</time>
      </trkpt>
      <trkpt lat="41.6446410" lon="2.0950780">
        <ele>465.4</ele>
        <time>2022-09-26T08:16:28Z</time>
      </trkpt>
      <trkpt lat="41.6446540" lon="2.0950620">
        <ele>465.6</ele>
        <time>2022-09-26T08:16:29Z</time>
      </trkpt>
      <trkpt lat="41.6446650" lon="2.0950450">
        <ele>465.8</ele>
        <time>2022-09-26T08:16:30Z</time>
      </trkpt>
      <trkpt lat="41.6446780" lon="2.0950320">
        <ele>466.0</ele>
        <time>2022-09-26T08:16:31Z</time>
      </trkpt>
      <trkpt lat="41.6446910" lon="2.0950180">
        <ele>466.0</ele>
        <time>2022-09-26T08:16:32Z</time>
      </trkpt>
      <trkpt lat="41.6447030" lon="2.0950030">
        <ele>466.2</ele>
        <time>2022-09-26T08:16:33Z</time>
      </trkpt>
      <trkpt lat="41.6447180" lon="2.0949930">
        <ele>466.4</ele>
        <time>2022-09-26T08:16:34Z</time>
      </trkpt>
      <trkpt lat="41.6447320" lon="2.0949820">
        <ele>466.6</ele>
        <time>2022-09-26T08:16:35Z</time>
      </trkpt>
      <trkpt lat="41.6447450" lon="2.0949710">
        <ele>466.6</ele>
        <time>2022-09-26T08:16:36Z</time>
      </trkpt>
      <trkpt lat="41.6447570" lon="2.0949600">
        <ele>466.8</ele>
        <time>2022-09-26T08:16:37Z</time>
      </trkpt>
      <trkpt lat="41.6447700" lon="2.0949520">
        <ele>467.0</ele>
        <time>2022-09-26T08:16:38Z</time>
      </trkpt>
      <trkpt lat="41.6447840" lon="2.0949430">
        <ele>467.2</ele>
        <time>2022-09-26T08:16:39Z</time>
      </trkpt>
      <trkpt lat="41.6447990" lon="2.0949320">
        <ele>467.4</ele>
        <time>2022-09-26T08:16:40Z</time>
      </trkpt>
      <trkpt lat="41.6448140" lon="2.0949210">
        <ele>467.4</ele>
        <time>2022-09-26T08:16:41Z</time>
      </trkpt>
      <trkpt lat="41.6448290" lon="2.0949140">
        <ele>467.6</ele>
        <time>2022-09-26T08:16:42Z</time>
      </trkpt>
      <trkpt lat="41.6448440" lon="2.0949070">
        <ele>467.6</ele>
        <time>2022-09-26T08:16:43Z</time>
      </trkpt>
      <trkpt lat="41.6448610" lon="2.0948960">
        <ele>467.8</ele>
        <time>2022-09-26T08:16:44Z</time>
      </trkpt>
      <trkpt lat="41.6448750" lon="2.0948820">
        <ele>467.8</ele>
        <time>2022-09-26T08:16:45Z</time>
      </trkpt>
      <trkpt lat="41.6448900" lon="2.0948690">
        <ele>468.0</ele>
        <time>2022-09-26T08:16:46Z</time>
      </trkpt>
      <trkpt lat="41.6449040" lon="2.0948580">
        <ele>468.0</ele>
        <time>2022-09-26T08:16:47Z</time>
      </trkpt>
      <trkpt lat="41.6449170" lon="2.0948450">
        <ele>468.2</ele>
        <time>2022-09-26T08:16:48Z</time>
      </trkpt>
      <trkpt lat="41.6449300" lon="2.0948280">
        <ele>468.4</ele>
        <time>2022-09-26T08:16:49Z</time>
      </trkpt>
      <trkpt lat="41.6449430" lon="2.0948120">
        <ele>468.4</ele>
        <time>2022-09-26T08:16:50Z</time>
      </trkpt>
      <trkpt lat="41.6449540" lon="2.0947960">
        <ele>468.6</ele>
        <time>2022-09-26T08:16:51Z</time>
      </trkpt>
      <trkpt lat="41.6449650" lon="2.0947770">
        <ele>468.8</ele>
        <time>2022-09-26T08:16:52Z</time>
      </trkpt>
      <trkpt lat="41.6449730" lon="2.0947570">
        <ele>468.8</ele>
        <time>2022-09-26T08:16:53Z</time>
      </trkpt>
      <trkpt lat="41.6449820" lon="2.0947390">
        <ele>469.0</ele>
        <time>2022-09-26T08:16:54Z</time>
      </trkpt>
      <trkpt lat="41.6449910" lon="2.0947200">
        <ele>469.2</ele>
        <time>2022-09-26T08:16:55Z</time>
      </trkpt>
      <trkpt lat="41.6449990" lon="2.0947010">
        <ele>469.4</ele>
        <time>2022-09-26T08:16:56Z</time>
      </trkpt>
      <trkpt lat="41.6450080" lon="2.0946820">
        <ele>469.6</ele>
        <time>2022-09-26T08:16:57Z</time>
      </trkpt>
      <trkpt lat="41.6450170" lon="2.0946630">
        <ele>469.6</ele>
        <time>2022-09-26T08:16:58Z</time>
      </trkpt>
      <trkpt lat="41.6450290" lon="2.0946450">
        <ele>470.0</ele>
        <time>2022-09-26T08:16:59Z</time>
      </trkpt>
      <trkpt lat="41.6450430" lon="2.0946320">
        <ele>470.2</ele>
        <time>2022-09-26T08:17:00Z</time>
      </trkpt>
      <trkpt lat="41.6450580" lon="2.0946220">
        <ele>470.4</ele>
        <time>2022-09-26T08:17:01Z</time>
      </trkpt>
      <trkpt lat="41.6450740" lon="2.0946130">
        <ele>470.4</ele>
        <time>2022-09-26T08:17:02Z</time>
      </trkpt>
      <trkpt lat="41.6450900" lon="2.0946090">
        <ele>470.4</ele>
        <time>2022-09-26T08:17:03Z</time>
      </trkpt>
      <trkpt lat="41.6451040" lon="2.0946110">
        <ele>470.4</ele>
        <time>2022-09-26T08:17:04Z</time>
      </trkpt>
      <trkpt lat="41.6451150" lon="2.0946160">
        <ele>470.6</ele>
        <time>2022-09-26T08:17:05Z</time>
      </trkpt>
      <trkpt lat="41.6451230" lon="2.0946210">
        <ele>470.6</ele>
        <time>2022-09-26T08:17:06Z</time>
      </trkpt>
      <trkpt lat="41.6451290" lon="2.0946290">
        <ele>470.6</ele>
        <time>2022-09-26T08:17:07Z</time>
      </trkpt>
      <trkpt lat="41.6451340" lon="2.0946440">
        <ele>470.8</ele>
        <time>2022-09-26T08:17:08Z</time>
      </trkpt>
      <trkpt lat="41.6451440" lon="2.0946640">
        <ele>470.8</ele>
        <time>2022-09-26T08:17:09Z</time>
      </trkpt>
      <trkpt lat="41.6451540" lon="2.0946820">
        <ele>470.8</ele>
        <time>2022-09-26T08:17:10Z</time>
      </trkpt>
      <trkpt lat="41.6451630" lon="2.0947000">
        <ele>471.0</ele>
        <time>2022-09-26T08:17:11Z</time>
      </trkpt>
      <trkpt lat="41.6451690" lon="2.0947200">
        <ele>471.0</ele>
        <time>2022-09-26T08:17:12Z</time>
      </trkpt>
      <trkpt lat="41.6451760" lon="2.0947430">
        <ele>471.2</ele>
        <time>2022-09-26T08:17:13Z</time>
      </trkpt>
      <trkpt lat="41.6451850" lon="2.0947680">
        <ele>471.4</ele>
        <time>2022-09-26T08:17:14Z</time>
      </trkpt>
      <trkpt lat="41.6451930" lon="2.0947900">
        <ele>471.2</ele>
        <time>2022-09-26T08:17:15Z</time>
      </trkpt>
      <trkpt lat="41.6451980" lon="2.0948120">
        <ele>471.4</ele>
        <time>2022-09-26T08:17:16Z</time>
      </trkpt>
      <trkpt lat="41.6452020" lon="2.0948350">
        <ele>471.4</ele>
        <time>2022-09-26T08:17:17Z</time>
      </trkpt>
      <trkpt lat="41.6452080" lon="2.0948570">
        <ele>471.4</ele>
        <time>2022-09-26T08:17:18Z</time>
      </trkpt>
      <trkpt lat="41.6452140" lon="2.0948790">
        <ele>471.4</ele>
        <time>2022-09-26T08:17:19Z</time>
      </trkpt>
      <trkpt lat="41.6452190" lon="2.0949030">
        <ele>471.2</ele>
        <time>2022-09-26T08:17:20Z</time>
      </trkpt>
      <trkpt lat="41.6452220" lon="2.0949310">
        <ele>471.2</ele>
        <time>2022-09-26T08:17:21Z</time>
      </trkpt>
      <trkpt lat="41.6452240" lon="2.0949600">
        <ele>471.2</ele>
        <time>2022-09-26T08:17:22Z</time>
      </trkpt>
      <trkpt lat="41.6452250" lon="2.0949910">
        <ele>471.0</ele>
        <time>2022-09-26T08:17:23Z</time>
      </trkpt>
      <trkpt lat="41.6452260" lon="2.0950200">
        <ele>471.0</ele>
        <time>2022-09-26T08:17:24Z</time>
      </trkpt>
      <trkpt lat="41.6452290" lon="2.0950490">
        <ele>471.0</ele>
        <time>2022-09-26T08:17:25Z</time>
      </trkpt>
      <trkpt lat="41.6452350" lon="2.0950770">
        <ele>471.2</ele>
        <time>2022-09-26T08:17:26Z</time>
      </trkpt>
      <trkpt lat="41.6452390" lon="2.0951040">
        <ele>471.2</ele>
        <time>2022-09-26T08:17:27Z</time>
      </trkpt>
      <trkpt lat="41.6452420" lon="2.0951320">
        <ele>471.2</ele>
        <time>2022-09-26T08:17:28Z</time>
      </trkpt>
      <trkpt lat="41.6452450" lon="2.0951640">
        <ele>471.2</ele>
        <time>2022-09-26T08:17:29Z</time>
      </trkpt>
      <trkpt lat="41.6452490" lon="2.0952000">
        <ele>471.2</ele>
        <time>2022-09-26T08:17:30Z</time>
      </trkpt>
      <trkpt lat="41.6452560" lon="2.0952380">
        <ele>471.0</ele>
        <time>2022-09-26T08:17:31Z</time>
      </trkpt>
      <trkpt lat="41.6452560" lon="2.0952710">
        <ele>471.0</ele>
        <time>2022-09-26T08:17:32Z</time>
      </trkpt>
      <trkpt lat="41.6452580" lon="2.0953040">
        <ele>471.0</ele>
        <time>2022-09-26T08:17:33Z</time>
      </trkpt>
      <trkpt lat="41.6452680" lon="2.0953380">
        <ele>471.2</ele>
        <time>2022-09-26T08:17:34Z</time>
      </trkpt>
      <trkpt lat="41.6452800" lon="2.0953640">
        <ele>471.2</ele>
        <time>2022-09-26T08:17:35Z</time>
      </trkpt>
      <trkpt lat="41.6452940" lon="2.0953890">
        <ele>471.2</ele>
        <time>2022-09-26T08:17:36Z</time>
      </trkpt>
      <trkpt lat="41.6453080" lon="2.0954170">
        <ele>471.2</ele>
        <time>2022-09-26T08:17:37Z</time>
      </trkpt>
      <trkpt lat="41.6453230" lon="2.0954440">
        <ele>471.2</ele>
        <time>2022-09-26T08:17:38Z</time>
      </trkpt>
      <trkpt lat="41.6453430" lon="2.0954690">
        <ele>471.2</ele>
        <time>2022-09-26T08:17:39Z</time>
      </trkpt>
      <trkpt lat="41.6453640" lon="2.0954920">
        <ele>471.2</ele>
        <time>2022-09-26T08:17:40Z</time>
      </trkpt>
      <trkpt lat="41.6453860" lon="2.0955100">
        <ele>471.2</ele>
        <time>2022-09-26T08:17:41Z</time>
      </trkpt>
      <trkpt lat="41.6454100" lon="2.0955260">
        <ele>471.2</ele>
        <time>2022-09-26T08:17:42Z</time>
      </trkpt>
      <trkpt lat="41.6454400" lon="2.0955360">
        <ele>471.0</ele>
        <time>2022-09-26T08:17:43Z</time>
      </trkpt>
      <trkpt lat="41.6454710" lon="2.0955410">
        <ele>471.0</ele>
        <time>2022-09-26T08:17:44Z</time>
      </trkpt>
      <trkpt lat="41.6455040" lon="2.0955390">
        <ele>470.8</ele>
        <time>2022-09-26T08:17:45Z</time>
      </trkpt>
      <trkpt lat="41.6455360" lon="2.0955330">
        <ele>470.6</ele>
        <time>2022-09-26T08:17:46Z</time>
      </trkpt>
      <trkpt lat="41.6455670" lon="2.0955290">
        <ele>470.6</ele>
        <time>2022-09-26T08:17:47Z</time>
      </trkpt>
      <trkpt lat="41.6455940" lon="2.0955200">
        <ele>470.6</ele>
        <time>2022-09-26T08:17:48Z</time>
      </trkpt>
      <trkpt lat="41.6456200" lon="2.0955140">
        <ele>470.8</ele>
        <time>2022-09-26T08:17:49Z</time>
      </trkpt>
      <trkpt lat="41.6456450" lon="2.0955070">
        <ele>470.8</ele>
        <time>2022-09-26T08:17:50Z</time>
      </trkpt>
      <trkpt lat="41.6456700" lon="2.0955030">
        <ele>471.0</ele>
        <time>2022-09-26T08:17:51Z</time>
      </trkpt>
      <trkpt lat="41.6456940" lon="2.0955030">
        <ele>471.2</ele>
        <time>2022-09-26T08:17:52Z</time>
      </trkpt>
      <trkpt lat="41.6457160" lon="2.0955040">
        <ele>471.4</ele>
        <time>2022-09-26T08:17:53Z</time>
      </trkpt>
      <trkpt lat="41.6457390" lon="2.0955000">
        <ele>471.6</ele>
        <time>2022-09-26T08:17:54Z</time>
      </trkpt>
      <trkpt lat="41.6457640" lon="2.0954930">
        <ele>472.0</ele>
        <time>2022-09-26T08:17:55Z</time>
      </trkpt>
      <trkpt lat="41.6457850" lon="2.0954860">
        <ele>472.2</ele>
        <time>2022-09-26T08:17:56Z</time>
      </trkpt>
      <trkpt lat="41.6458050" lon="2.0954790">
        <ele>472.2</ele>
        <time>2022-09-26T08:17:57Z</time>
      </trkpt>
      <trkpt lat="41.6458250" lon="2.0954740">
        <ele>472.4</ele>
        <time>2022-09-26T08:17:58Z</time>
      </trkpt>
      <trkpt lat="41.6458450" lon="2.0954660">
        <ele>472.6</ele>
        <time>2022-09-26T08:17:59Z</time>
      </trkpt>
      <trkpt lat="41.6458650" lon="2.0954570">
        <ele>472.8</ele>
        <time>2022-09-26T08:18:00Z</time>
      </trkpt>
      <trkpt lat="41.6458820" lon="2.0954480">
        <ele>473.2</ele>
        <time>2022-09-26T08:18:01Z</time>
      </trkpt>
      <trkpt lat="41.6458990" lon="2.0954390">
        <ele>473.4</ele>
        <time>2022-09-26T08:18:02Z</time>
      </trkpt>
      <trkpt lat="41.6459160" lon="2.0954310">
        <ele>473.6</ele>
        <time>2022-09-26T08:18:03Z</time>
      </trkpt>
      <trkpt lat="41.6459330" lon="2.0954230">
        <ele>474.0</ele>
        <time>2022-09-26T08:18:04Z</time>
      </trkpt>
      <trkpt lat="41.6459520" lon="2.0954190">
        <ele>474.0</ele>
        <time>2022-09-26T08:18:05Z</time>
      </trkpt>
      <trkpt lat="41.6459680" lon="2.0954140">
        <ele>474.2</ele>
        <time>2022-09-26T08:18:06Z</time>
      </trkpt>
      <trkpt lat="41.6459870" lon="2.0954080">
        <ele>474.4</ele>
        <time>2022-09-26T08:18:07Z</time>
      </trkpt>
      <trkpt lat="41.6460060" lon="2.0953950">
        <ele>474.6</ele>
        <time>2022-09-26T08:18:08Z</time>
      </trkpt>
      <trkpt lat="41.6460240" lon="2.0953840">
        <ele>474.6</ele>
        <time>2022-09-26T08:18:09Z</time>
      </trkpt>
      <trkpt lat="41.6460440" lon="2.0953730">
        <ele>474.8</ele>
        <time>2022-09-26T08:18:10Z</time>
      </trkpt>
      <trkpt lat="41.6460620" lon="2.0953650">
        <ele>475.0</ele>
        <time>2022-09-26T08:18:11Z</time>
      </trkpt>
      <trkpt lat="41.6460790" lon="2.0953550">
        <ele>475.4</ele>
        <time>2022-09-26T08:18:12Z</time>
      </trkpt>
      <trkpt lat="41.6460960" lon="2.0953470">
        <ele>475.6</ele>
        <time>2022-09-26T08:18:13Z</time>
      </trkpt>
      <trkpt lat="41.6461120" lon="2.0953350">
        <ele>476.0</ele>
        <time>2022-09-26T08:18:14Z</time>
      </trkpt>
      <trkpt lat="41.6461290" lon="2.0953220">
        <ele>476.0</ele>
        <time>2022-09-26T08:18:15Z</time>
      </trkpt>
      <trkpt lat="41.6461480" lon="2.0953060">
        <ele>476.0</ele>
        <time>2022-09-26T08:18:16Z</time>
      </trkpt>
      <trkpt lat="41.6461640" lon="2.0952940">
        <ele>476.2</ele>
        <time>2022-09-26T08:18:17Z</time>
      </trkpt>
      <trkpt lat="41.6461810" lon="2.0952790">
        <ele>476.2</ele>
        <time>2022-09-26T08:18:18Z</time>
      </trkpt>
      <trkpt lat="41.6461990" lon="2.0952610">
        <ele>476.4</ele>
        <time>2022-09-26T08:18:19Z</time>
      </trkpt>
      <trkpt lat="41.6462160" lon="2.0952430">
        <ele>476.6</ele>
        <time>2022-09-26T08:18:20Z</time>
      </trkpt>
      <trkpt lat="41.6462330" lon="2.0952240">
        <ele>476.8</ele>
        <time>2022-09-26T08:18:21Z</time>
      </trkpt>
      <trkpt lat="41.6462530" lon="2.0952060">
        <ele>477.0</ele>
        <time>2022-09-26T08:18:22Z</time>
      </trkpt>
      <trkpt lat="41.6462690" lon="2.0951890">
        <ele>477.2</ele>
        <time>2022-09-26T08:18:23Z</time>
      </trkpt>
      <trkpt lat="41.6462860" lon="2.0951700">
        <ele>477.4</ele>
        <time>2022-09-26T08:18:24Z</time>
      </trkpt>
      <trkpt lat="41.6463070" lon="2.0951490">
        <ele>477.4</ele>
        <time>2022-09-26T08:18:25Z</time>
      </trkpt>
      <trkpt lat="41.6463260" lon="2.0951270">
        <ele>477.6</ele>
        <time>2022-09-26T08:18:26Z</time>
      </trkpt>
      <trkpt lat="41.6463430" lon="2.0951010">
        <ele>477.8</ele>
        <time>2022-09-26T08:18:27Z</time>
      </trkpt>
      <trkpt lat="41.6463590" lon="2.0950750">
        <ele>478.0</ele>
        <time>2022-09-26T08:18:28Z</time>
      </trkpt>
      <trkpt lat="41.6463740" lon="2.0950540">
        <ele>478.0</ele>
        <time>2022-09-26T08:18:29Z</time>
      </trkpt>
      <trkpt lat="41.6463880" lon="2.0950360">
        <ele>478.2</ele>
        <time>2022-09-26T08:18:30Z</time>
      </trkpt>
      <trkpt lat="41.6464020" lon="2.0950180">
        <ele>478.4</ele>
        <time>2022-09-26T08:18:31Z</time>
      </trkpt>
      <trkpt lat="41.6464170" lon="2.0950020">
        <ele>478.6</ele>
        <time>2022-09-26T08:18:32Z</time>
      </trkpt>
      <trkpt lat="41.6464320" lon="2.0949860">
        <ele>479.0</ele>
        <time>2022-09-26T08:18:33Z</time>
      </trkpt>
      <trkpt lat="41.6464480" lon="2.0949740">
        <ele>479.4</ele>
        <time>2022-09-26T08:18:34Z</time>
      </trkpt>
      <trkpt lat="41.6464640" lon="2.0949630">
        <ele>479.6</ele>
        <time>2022-09-26T08:18:35Z</time>
      </trkpt>
      <trkpt lat="41.6464810" lon="2.0949520">
        <ele>479.8</ele>
        <time>2022-09-26T08:18:36Z</time>
      </trkpt>
      <trkpt lat="41.6464970" lon="2.0949420">
        <ele>480.0</ele>
        <time>2022-09-26T08:18:37Z</time>
      </trkpt>
      <trkpt lat="41.6465140" lon="2.0949340">
        <ele>480.4</ele>
        <time>2022-09-26T08:18:38Z</time>
      </trkpt>
      <trkpt lat="41.6465310" lon="2.0949310">
        <ele>480.6</ele>
        <time>2022-09-26T08:18:39Z</time>
      </trkpt>
      <trkpt lat="41.6465470" lon="2.0949330">
        <ele>480.6</ele>
        <time>2022-09-26T08:18:40Z</time>
      </trkpt>
      <trkpt lat="41.6465660" lon="2.0949330">
        <ele>480.6</ele>
        <time>2022-09-26T08:18:41Z</time>
      </trkpt>
      <trkpt lat="41.6465870" lon="2.0949370">
        <ele>480.6</ele>
        <time>2022-09-26T08:18:42Z</time>
      </trkpt>
      <trkpt lat="41.6466120" lon="2.0949470">
        <ele>480.6</ele>
        <time>2022-09-26T08:18:43Z</time>
      </trkpt>
      <trkpt lat="41.6466390" lon="2.0949560">
        <ele>480.4</ele>
        <time>2022-09-26T08:18:44Z</time>
      </trkpt>
      <trkpt lat="41.6466680" lon="2.0949630">
        <ele>480.4</ele>
        <time>2022-09-26T08:18:45Z</time>
      </trkpt>
      <trkpt lat="41.6466970" lon="2.0949690">
        <ele>480.2</ele>
        <time>2022-09-26T08:18:46Z</time>
      </trkpt>
      <trkpt lat="41.6467270" lon="2.0949760">
        <ele>480.0</ele>
        <time>2022-09-26T08:18:47Z</time>
      </trkpt>
      <trkpt lat="41.6467590" lon="2.0949830">
        <ele>480.0</ele>
        <time>2022-09-26T08:18:48Z</time>
      </trkpt>
      <trkpt lat="41.6467920" lon="2.0949890">
        <ele>479.8</ele>
        <time>2022-09-26T08:18:49Z</time>
      </trkpt>
      <trkpt lat="41.6468260" lon="2.0949920">
        <ele>479.8</ele>
        <time>2022-09-26T08:18:50Z</time>
      </trkpt>
      <trkpt lat="41.6468620" lon="2.0949960">
        <ele>479.6</ele>
        <time>2022-09-26T08:18:51Z</time>
      </trkpt>
      <trkpt lat="41.6469020" lon="2.0949960">
        <ele>479.6</ele>
        <time>2022-09-26T08:18:52Z</time>
      </trkpt>
      <trkpt lat="41.6469430" lon="2.0949930">
        <ele>479.6</ele>
        <time>2022-09-26T08:18:53Z</time>
      </trkpt>
      <trkpt lat="41.6469840" lon="2.0949840">
        <ele>479.4</ele>
        <time>2022-09-26T08:18:54Z</time>
      </trkpt>
      <trkpt lat="41.6470260" lon="2.0949680">
        <ele>479.0</ele>
        <time>2022-09-26T08:18:55Z</time>
      </trkpt>
      <trkpt lat="41.6470700" lon="2.0949490">
        <ele>478.8</ele>
        <time>2022-09-26T08:18:56Z</time>
      </trkpt>
      <trkpt lat="41.6471150" lon="2.0949250">
        <ele>478.4</ele>
        <time>2022-09-26T08:18:57Z</time>
      </trkpt>
      <trkpt lat="41.6471590" lon="2.0948980">
        <ele>478.2</ele>
        <time>2022-09-26T08:18:58Z</time>
      </trkpt>
      <trkpt lat="41.6471990" lon="2.0948650">
        <ele>478.2</ele>
        <time>2022-09-26T08:18:59Z</time>
      </trkpt>
      <trkpt lat="41.6472350" lon="2.0948290">
        <ele>478.0</ele>
        <time>2022-09-26T08:19:00Z</time>
      </trkpt>
      <trkpt lat="41.6472720" lon="2.0947950">
        <ele>478.0</ele>
        <time>2022-09-26T08:19:01Z</time>
      </trkpt>
      <trkpt lat="41.6473100" lon="2.0947600">
        <ele>477.8</ele>
        <time>2022-09-26T08:19:02Z</time>
      </trkpt>
      <trkpt lat="41.6473530" lon="2.0947250">
        <ele>477.8</ele>
        <time>2022-09-26T08:19:03Z</time>
      </trkpt>
      <trkpt lat="41.6474010" lon="2.0946930">
        <ele>477.6</ele>
        <time>2022-09-26T08:19:04Z</time>
      </trkpt>
      <trkpt lat="41.6474530" lon="2.0946600">
        <ele>477.4</ele>
        <time>2022-09-26T08:19:05Z</time>
      </trkpt>
      <trkpt lat="41.6475070" lon="2.0946270">
        <ele>477.2</ele>
        <time>2022-09-26T08:19:06Z</time>
      </trkpt>
      <trkpt lat="41.6475620" lon="2.0945890">
        <ele>476.6</ele>
        <time>2022-09-26T08:19:07Z</time>
      </trkpt>
      <trkpt lat="41.6476140" lon="2.0945420">
        <ele>476.0</ele>
        <time>2022-09-26T08:19:08Z</time>
      </trkpt>
      <trkpt lat="41.6476630" lon="2.0944860">
        <ele>475.4</ele>
        <time>2022-09-26T08:19:09Z</time>
      </trkpt>
      <trkpt lat="41.6477070" lon="2.0944240">
        <ele>475.0</ele>
        <time>2022-09-26T08:19:10Z</time>
      </trkpt>
      <trkpt lat="41.6477480" lon="2.0943620">
        <ele>474.6</ele>
        <time>2022-09-26T08:19:11Z</time>
      </trkpt>
      <trkpt lat="41.6477870" lon="2.0942970">
        <ele>474.4</ele>
        <time>2022-09-26T08:19:12Z</time>
      </trkpt>
      <trkpt lat="41.6478170" lon="2.0942290">
        <ele>474.4</ele>
        <time>2022-09-26T08:19:13Z</time>
      </trkpt>
      <trkpt lat="41.6478370" lon="2.0941630">
        <ele>474.4</ele>
        <time>2022-09-26T08:19:14Z</time>
      </trkpt>
      <trkpt lat="41.6478530" lon="2.0941010">
        <ele>474.6</ele>
        <time>2022-09-26T08:19:15Z</time>
      </trkpt>
      <trkpt lat="41.6478670" lon="2.0940430">
        <ele>475.0</ele>
        <time>2022-09-26T08:19:16Z</time>
      </trkpt>
      <trkpt lat="41.6478810" lon="2.0939870">
        <ele>475.2</ele>
        <time>2022-09-26T08:19:17Z</time>
      </trkpt>
      <trkpt lat="41.6478920" lon="2.0939340">
        <ele>475.4</ele>
        <time>2022-09-26T08:19:18Z</time>
      </trkpt>
      <trkpt lat="41.6479020" lon="2.0938850">
        <ele>475.8</ele>
        <time>2022-09-26T08:19:19Z</time>
      </trkpt>
      <trkpt lat="41.6479110" lon="2.0938410">
        <ele>476.0</ele>
        <time>2022-09-26T08:19:20Z</time>
      </trkpt>
      <trkpt lat="41.6479180" lon="2.0938040">
        <ele>476.4</ele>
        <time>2022-09-26T08:19:21Z</time>
      </trkpt>
      <trkpt lat="41.6479230" lon="2.0937720">
        <ele>476.8</ele>
        <time>2022-09-26T08:19:22Z</time>
      </trkpt>
      <trkpt lat="41.6479270" lon="2.0937470">
        <ele>477.2</ele>
        <time>2022-09-26T08:19:23Z</time>
      </trkpt>
      <trkpt lat="41.6479300" lon="2.0937240">
        <ele>477.4</ele>
        <time>2022-09-26T08:19:24Z</time>
      </trkpt>
      <trkpt lat="41.6479340" lon="2.0937000">
        <ele>478.0</ele>
        <time>2022-09-26T08:19:25Z</time>
      </trkpt>
      <trkpt lat="41.6479400" lon="2.0936780">
        <ele>478.4</ele>
        <time>2022-09-26T08:19:26Z</time>
      </trkpt>
      <trkpt lat="41.6479460" lon="2.0936540">
        <ele>479.0</ele>
        <time>2022-09-26T08:19:27Z</time>
      </trkpt>
      <trkpt lat="41.6479510" lon="2.0936300">
        <ele>479.2</ele>
        <time>2022-09-26T08:19:28Z</time>
      </trkpt>
      <trkpt lat="41.6479570" lon="2.0936020">
        <ele>479.4</ele>
        <time>2022-09-26T08:19:29Z</time>
      </trkpt>
      <trkpt lat="41.6479600" lon="2.0935700">
        <ele>479.8</ele>
        <time>2022-09-26T08:19:30Z</time>
      </trkpt>
      <trkpt lat="41.6479630" lon="2.0935380">
        <ele>480.0</ele>
        <time>2022-09-26T08:19:31Z</time>
      </trkpt>
      <trkpt lat="41.6479660" lon="2.0935050">
        <ele>480.0</ele>
        <time>2022-09-26T08:19:32Z</time>
      </trkpt>
      <trkpt lat="41.6479690" lon="2.0934750">
        <ele>480.2</ele>
        <time>2022-09-26T08:19:33Z</time>
      </trkpt>
      <trkpt lat="41.6479730" lon="2.0934460">
        <ele>480.2</ele>
        <time>2022-09-26T08:19:34Z</time>
      </trkpt>
      <trkpt lat="41.6479770" lon="2.0934170">
        <ele>480.2</ele>
        <time>2022-09-26T08:19:35Z</time>
      </trkpt>
      <trkpt lat="41.6479810" lon="2.0933880">
        <ele>480.4</ele>
        <time>2022-09-26T08:19:36Z</time>
      </trkpt>
      <trkpt lat="41.6479870" lon="2.0933600">
        <ele>480.6</ele>
        <time>2022-09-26T08:19:37Z</time>
      </trkpt>
      <trkpt lat="41.6479920" lon="2.0933320">
        <ele>481.0</ele>
        <time>2022-09-26T08:19:38Z</time>
      </trkpt>
      <trkpt lat="41.6479980" lon="2.0933050">
        <ele>481.2</ele>
        <time>2022-09-26T08:19:39Z</time>
      </trkpt>
      <trkpt lat="41.6480040" lon="2.0932790">
        <ele>481.6</ele>
        <time>2022-09-26T08:19:40Z</time>
      </trkpt>
      <trkpt lat="41.6480090" lon="2.0932520">
        <ele>481.8</ele>
        <time>2022-09-26T08:19:41Z</time>
      </trkpt>
      <trkpt lat="41.6480130" lon="2.0932240">
        <ele>482.0</ele>
        <time>2022-09-26T08:19:42Z</time>
      </trkpt>
      <trkpt lat="41.6480160" lon="2.0931980">
        <ele>481.8</ele>
        <time>2022-09-26T08:19:43Z</time>
      </trkpt>
      <trkpt lat="41.6480200" lon="2.0931720">
        <ele>482.2</ele>
        <time>2022-09-26T08:19:44Z</time>
      </trkpt>
      <trkpt lat="41.6480240" lon="2.0931460">
        <ele>482.2</ele>
        <time>2022-09-26T08:19:45Z</time>
      </trkpt>
      <trkpt lat="41.6480290" lon="2.0931210">
        <ele>482.2</ele>
        <time>2022-09-26T08:19:46Z</time>
      </trkpt>
      <trkpt lat="41.6480350" lon="2.0930960">
        <ele>482.4</ele>
        <time>2022-09-26T08:19:47Z</time>
      </trkpt>
      <trkpt lat="41.6480380" lon="2.0930700">
        <ele>482.6</ele>
        <time>2022-09-26T08:19:48Z</time>
      </trkpt>
      <trkpt lat="41.6480420" lon="2.0930440">
        <ele>483.0</ele>
        <time>2022-09-26T08:19:49Z</time>
      </trkpt>
      <trkpt lat="41.6480490" lon="2.0930170">
        <ele>483.2</ele>
        <time>2022-09-26T08:19:50Z</time>
      </trkpt>
      <trkpt lat="41.6480560" lon="2.0929920">
        <ele>483.8</ele>
        <time>2022-09-26T08:19:51Z</time>
      </trkpt>
      <trkpt lat="41.6480620" lon="2.0929670">
        <ele>484.2</ele>
        <time>2022-09-26T08:19:52Z</time>
      </trkpt>
      <trkpt lat="41.6480700" lon="2.0929410">
        <ele>484.6</ele>
        <time>2022-09-26T08:19:53Z</time>
      </trkpt>
      <trkpt lat="41.6480780" lon="2.0929160">
        <ele>484.8</ele>
        <time>2022-09-26T08:19:54Z</time>
      </trkpt>
      <trkpt lat="41.6480850" lon="2.0928910">
        <ele>484.8</ele>
        <time>2022-09-26T08:19:55Z</time>
      </trkpt>
      <trkpt lat="41.6480910" lon="2.0928670">
        <ele>485.0</ele>
        <time>2022-09-26T08:19:56Z</time>
      </trkpt>
      <trkpt lat="41.6480990" lon="2.0928410">
        <ele>485.2</ele>
        <time>2022-09-26T08:19:57Z</time>
      </trkpt>
      <trkpt lat="41.6481060" lon="2.0928170">
        <ele>485.4</ele>
        <time>2022-09-26T08:19:58Z</time>
      </trkpt>
      <trkpt lat="41.6481150" lon="2.0927930">
        <ele>485.6</ele>
        <time>2022-09-26T08:19:59Z</time>
      </trkpt>
      <trkpt lat="41.6481230" lon="2.0927690">
        <ele>485.8</ele>
        <time>2022-09-26T08:20:00Z</time>
      </trkpt>
      <trkpt lat="41.6481300" lon="2.0927440">
        <ele>485.8</ele>
        <time>2022-09-26T08:20:01Z</time>
      </trkpt>
      <trkpt lat="41.6481380" lon="2.0927190">
        <ele>486.2</ele>
        <time>2022-09-26T08:20:02Z</time>
      </trkpt>
      <trkpt lat="41.6481470" lon="2.0926940">
        <ele>486.4</ele>
        <time>2022-09-26T08:20:03Z</time>
      </trkpt>
      <trkpt lat="41.6481550" lon="2.0926700">
        <ele>486.8</ele>
        <time>2022-09-26T08:20:04Z</time>
      </trkpt>
      <trkpt lat="41.6481640" lon="2.0926470">
        <ele>487.0</ele>
        <time>2022-09-26T08:20:05Z</time>
      </trkpt>
      <trkpt lat="41.6481730" lon="2.0926260">
        <ele>487.2</ele>
        <time>2022-09-26T08:20:06Z</time>
      </trkpt>
      <trkpt lat="41.6481830" lon="2.0926060">
        <ele>487.4</ele>
        <time>2022-09-26T08:20:07Z</time>
      </trkpt>
      <trkpt lat="41.6481930" lon="2.0925880">
        <ele>487.6</ele>
        <time>2022-09-26T08:20:08Z</time>
      </trkpt>
      <trkpt lat="41.6482040" lon="2.0925690">
        <ele>487.8</ele>
        <time>2022-09-26T08:20:09Z</time>
      </trkpt>
      <trkpt lat="41.6482130" lon="2.0925490">
        <ele>488.2</ele>
        <time>2022-09-26T08:20:10Z</time>
      </trkpt>
      <trkpt lat="41.6482180" lon="2.0925310">
        <ele>488.4</ele>
        <time>2022-09-26T08:20:11Z</time>
      </trkpt>
      <trkpt lat="41.6482230" lon="2.0925160">
        <ele>488.6</ele>
        <time>2022-09-26T08:20:12Z</time>
      </trkpt>
      <trkpt lat="41.6482330" lon="2.0925020">
        <ele>488.6</ele>
        <time>2022-09-26T08:20:13Z</time>
      </trkpt>
      <trkpt lat="41.6482400" lon="2.0924870">
        <ele>489.0</ele>
        <time>2022-09-26T08:20:14Z</time>
      </trkpt>
      <trkpt lat="41.6482460" lon="2.0924700">
        <ele>489.6</ele>
        <time>2022-09-26T08:20:15Z</time>
      </trkpt>
      <trkpt lat="41.6482530" lon="2.0924540">
        <ele>490.0</ele>
        <time>2022-09-26T08:20:16Z</time>
      </trkpt>
      <trkpt lat="41.6482630" lon="2.0924370">
        <ele>490.4</ele>
        <time>2022-09-26T08:20:17Z</time>
      </trkpt>
      <trkpt lat="41.6482730" lon="2.0924190">
        <ele>490.6</ele>
        <time>2022-09-26T08:20:18Z</time>
      </trkpt>
      <trkpt lat="41.6482830" lon="2.0924020">
        <ele>491.0</ele>
        <time>2022-09-26T08:20:19Z</time>
      </trkpt>
      <trkpt lat="41.6482920" lon="2.0923830">
        <ele>491.0</ele>
        <time>2022-09-26T08:20:20Z</time>
      </trkpt>
      <trkpt lat="41.6483010" lon="2.0923630">
        <ele>491.2</ele>
        <time>2022-09-26T08:20:21Z</time>
      </trkpt>
      <trkpt lat="41.6483110" lon="2.0923450">
        <ele>491.6</ele>
        <time>2022-09-26T08:20:22Z</time>
      </trkpt>
      <trkpt lat="41.6483180" lon="2.0923280">
        <ele>491.8</ele>
        <time>2022-09-26T08:20:23Z</time>
      </trkpt>
      <trkpt lat="41.6483240" lon="2.0923100">
        <ele>492.2</ele>
        <time>2022-09-26T08:20:24Z</time>
      </trkpt>
      <trkpt lat="41.6483290" lon="2.0922890">
        <ele>492.4</ele>
        <time>2022-09-26T08:20:25Z</time>
      </trkpt>
      <trkpt lat="41.6483350" lon="2.0922670">
        <ele>492.6</ele>
        <time>2022-09-26T08:20:26Z</time>
      </trkpt>
      <trkpt lat="41.6483430" lon="2.0922450">
        <ele>493.0</ele>
        <time>2022-09-26T08:20:27Z</time>
      </trkpt>
      <trkpt lat="41.6483500" lon="2.0922210">
        <ele>493.4</ele>
        <time>2022-09-26T08:20:28Z</time>
      </trkpt>
      <trkpt lat="41.6483560" lon="2.0921980">
        <ele>493.6</ele>
        <time>2022-09-26T08:20:29Z</time>
      </trkpt>
      <trkpt lat="41.6483620" lon="2.0921770">
        <ele>493.8</ele>
        <time>2022-09-26T08:20:30Z</time>
      </trkpt>
      <trkpt lat="41.6483680" lon="2.0921540">
        <ele>494.0</ele>
        <time>2022-09-26T08:20:31Z</time>
      </trkpt>
      <trkpt lat="41.6483730" lon="2.0921320">
        <ele>494.4</ele>
        <time>2022-09-26T08:20:32Z</time>
      </trkpt>
      <trkpt lat="41.6483780" lon="2.0921100">
        <ele>494.6</ele>
        <time>2022-09-26T08:20:33Z</time>
      </trkpt>
      <trkpt lat="41.6483820" lon="2.0920890">
        <ele>494.8</ele>
        <time>2022-09-26T08:20:34Z</time>
      </trkpt>
      <trkpt lat="41.6483840" lon="2.0920690">
        <ele>495.0</ele>
        <time>2022-09-26T08:20:35Z</time>
      </trkpt>
      <trkpt lat="41.6483870" lon="2.0920500">
        <ele>495.2</ele>
        <time>2022-09-26T08:20:36Z</time>
      </trkpt>
      <trkpt lat="41.6483910" lon="2.0920320">
        <ele>495.2</ele>
        <time>2022-09-26T08:20:37Z</time>
      </trkpt>
      <trkpt lat="41.6483950" lon="2.0920170">
        <ele>495.4</ele>
        <time>2022-09-26T08:20:38Z</time>
      </trkpt>
      <trkpt lat="41.6483980" lon="2.0920030">
        <ele>495.6</ele>
        <time>2022-09-26T08:20:39Z</time>
      </trkpt>
      <trkpt lat="41.6484010" lon="2.0919860">
        <ele>496.0</ele>
        <time>2022-09-26T08:20:40Z</time>
      </trkpt>
      <trkpt lat="41.6484070" lon="2.0919680">
        <ele>496.4</ele>
        <time>2022-09-26T08:20:41Z</time>
      </trkpt>
      <trkpt lat="41.6484110" lon="2.0919480">
        <ele>496.6</ele>
        <time>2022-09-26T08:20:42Z</time>
      </trkpt>
      <trkpt lat="41.6484150" lon="2.0919270">
        <ele>497.0</ele>
        <time>2022-09-26T08:20:43Z</time>
      </trkpt>
      <trkpt lat="41.6484190" lon="2.0919070">
        <ele>497.4</ele>
        <time>2022-09-26T08:20:44Z</time>
      </trkpt>
      <trkpt lat="41.6484230" lon="2.0918860">
        <ele>497.8</ele>
        <time>2022-09-26T08:20:45Z</time>
      </trkpt>
      <trkpt lat="41.6484260" lon="2.0918660">
        <ele>498.0</ele>
        <time>2022-09-26T08:20:46Z</time>
      </trkpt>
      <trkpt lat="41.6484310" lon="2.0918480">
        <ele>498.4</ele>
        <time>2022-09-26T08:20:47Z</time>
      </trkpt>
      <trkpt lat="41.6484360" lon="2.0918300">
        <ele>498.6</ele>
        <time>2022-09-26T08:20:48Z</time>
      </trkpt>
      <trkpt lat="41.6484410" lon="2.0918100">
        <ele>498.8</ele>
        <time>2022-09-26T08:20:49Z</time>
      </trkpt>
      <trkpt lat="41.6484470" lon="2.0917910">
        <ele>499.2</ele>
        <time>2022-09-26T08:20:50Z</time>
      </trkpt>
      <trkpt lat="41.6484520" lon="2.0917730">
        <ele>499.4</ele>
        <time>2022-09-26T08:20:51Z</time>
      </trkpt>
      <trkpt lat="41.6484580" lon="2.0917550">
        <ele>499.8</ele>
        <time>2022-09-26T08:20:52Z</time>
      </trkpt>
      <trkpt lat="41.6484640" lon="2.0917370">
        <ele>499.8</ele>
        <time>2022-09-26T08:20:53Z</time>
      </trkpt>
      <trkpt lat="41.6484700" lon="2.0917190">
        <ele>500.0</ele>
        <time>2022-09-26T08:20:54Z</time>
      </trkpt>
      <trkpt lat="41.6484760" lon="2.0916980">
        <ele>500.2</ele>
        <time>2022-09-26T08:20:55Z</time>
      </trkpt>
      <trkpt lat="41.6484850" lon="2.0916750">
        <ele>500.4</ele>
        <time>2022-09-26T08:20:56Z</time>
      </trkpt>
      <trkpt lat="41.6484940" lon="2.0916480">
        <ele>500.4</ele>
        <time>2022-09-26T08:20:57Z</time>
      </trkpt>
      <trkpt lat="41.6485030" lon="2.0916230">
        <ele>500.6</ele>
        <time>2022-09-26T08:20:58Z</time>
      </trkpt>
      <trkpt lat="41.6485130" lon="2.0916010">
        <ele>500.6</ele>
        <time>2022-09-26T08:20:59Z</time>
      </trkpt>
      <trkpt lat="41.6485220" lon="2.0915780">
        <ele>500.6</ele>
        <time>2022-09-26T08:21:00Z</time>
      </trkpt>
      <trkpt lat="41.6485300" lon="2.0915560">
        <ele>500.8</ele>
        <time>2022-09-26T08:21:01Z</time>
      </trkpt>
      <trkpt lat="41.6485390" lon="2.0915330">
        <ele>501.0</ele>
        <time>2022-09-26T08:21:02Z</time>
      </trkpt>
      <trkpt lat="41.6485480" lon="2.0915110">
        <ele>501.2</ele>
        <time>2022-09-26T08:21:03Z</time>
      </trkpt>
      <trkpt lat="41.6485580" lon="2.0914890">
        <ele>501.4</ele>
        <time>2022-09-26T08:21:04Z</time>
      </trkpt>
      <trkpt lat="41.6485680" lon="2.0914680">
        <ele>501.4</ele>
        <time>2022-09-26T08:21:05Z</time>
      </trkpt>
      <trkpt lat="41.6485780" lon="2.0914480">
        <ele>501.8</ele>
        <time>2022-09-26T08:21:06Z</time>
      </trkpt>
      <trkpt lat="41.6485840" lon="2.0914300">
        <ele>502.2</ele>
        <time>2022-09-26T08:21:07Z</time>
      </trkpt>
      <trkpt lat="41.6485900" lon="2.0914130">
        <ele>502.4</ele>
        <time>2022-09-26T08:21:08Z</time>
      </trkpt>
      <trkpt lat="41.6485940" lon="2.0913950">
        <ele>502.6</ele>
        <time>2022-09-26T08:21:09Z</time>
      </trkpt>
      <trkpt lat="41.6486010" lon="2.0913790">
        <ele>502.8</ele>
        <time>2022-09-26T08:21:10Z</time>
      </trkpt>
      <trkpt lat="41.6486080" lon="2.0913630">
        <ele>503.0</ele>
        <time>2022-09-26T08:21:11Z</time>
      </trkpt>
      <trkpt lat="41.6486150" lon="2.0913450">
        <ele>503.0</ele>
        <time>2022-09-26T08:21:12Z</time>
      </trkpt>
      <trkpt lat="41.6486210" lon="2.0913240">
        <ele>503.2</ele>
        <time>2022-09-26T08:21:13Z</time>
      </trkpt>
      <trkpt lat="41.6486270" lon="2.0913030">
        <ele>503.2</ele>
        <time>2022-09-26T08:21:14Z</time>
      </trkpt>
      <trkpt lat="41.6486350" lon="2.0912800">
        <ele>503.4</ele>
        <time>2022-09-26T08:21:15Z</time>
      </trkpt>
      <trkpt lat="41.6486440" lon="2.0912590">
        <ele>503.4</ele>
        <time>2022-09-26T08:21:16Z</time>
      </trkpt>
      <trkpt lat="41.6486520" lon="2.0912340">
        <ele>503.4</ele>
        <time>2022-09-26T08:21:17Z</time>
      </trkpt>
      <trkpt lat="41.6486620" lon="2.0912080">
        <ele>503.6</ele>
        <time>2022-09-26T08:21:18Z</time>
      </trkpt>
      <trkpt lat="41.6486770" lon="2.0911850">
        <ele>503.6</ele>
        <time>2022-09-26T08:21:19Z</time>
      </trkpt>
      <trkpt lat="41.6486920" lon="2.0911610">
        <ele>503.8</ele>
        <time>2022-09-26T08:21:20Z</time>
      </trkpt>
      <trkpt lat="41.6487070" lon="2.0911390">
        <ele>503.8</ele>
        <time>2022-09-26T08:21:21Z</time>
      </trkpt>
      <trkpt lat="41.6487220" lon="2.0911200">
        <ele>503.8</ele>
        <time>2022-09-26T08:21:22Z</time>
      </trkpt>
      <trkpt lat="41.6487390" lon="2.0910960">
        <ele>503.8</ele>
        <time>2022-09-26T08:21:23Z</time>
      </trkpt>
      <trkpt lat="41.6487560" lon="2.0910720">
        <ele>503.6</ele>
        <time>2022-09-26T08:21:24Z</time>
      </trkpt>
      <trkpt lat="41.6487710" lon="2.0910470">
        <ele>503.6</ele>
        <time>2022-09-26T08:21:25Z</time>
      </trkpt>
      <trkpt lat="41.6487830" lon="2.0910170">
        <ele>503.6</ele>
        <time>2022-09-26T08:21:26Z</time>
      </trkpt>
      <trkpt lat="41.6487930" lon="2.0909860">
        <ele>503.6</ele>
        <time>2022-09-26T08:21:27Z</time>
      </trkpt>
      <trkpt lat="41.6487980" lon="2.0909560">
        <ele>504.0</ele>
        <time>2022-09-26T08:21:28Z</time>
      </trkpt>
      <trkpt lat="41.6488020" lon="2.0909310">
        <ele>504.2</ele>
        <time>2022-09-26T08:21:29Z</time>
      </trkpt>
      <trkpt lat="41.6488030" lon="2.0909090">
        <ele>504.6</ele>
        <time>2022-09-26T08:21:30Z</time>
      </trkpt>
      <trkpt lat="41.6488040" lon="2.0908880">
        <ele>504.8</ele>
        <time>2022-09-26T08:21:31Z</time>
      </trkpt>
      <trkpt lat="41.6488050" lon="2.0908650">
        <ele>505.2</ele>
        <time>2022-09-26T08:21:32Z</time>
      </trkpt>
      <trkpt lat="41.6488030" lon="2.0908390">
        <ele>505.2</ele>
        <time>2022-09-26T08:21:33Z</time>
      </trkpt>
      <trkpt lat="41.6488000" lon="2.0908130">
        <ele>505.4</ele>
        <time>2022-09-26T08:21:34Z</time>
      </trkpt>
      <trkpt lat="41.6488000" lon="2.0907860">
        <ele>505.6</ele>
        <time>2022-09-26T08:21:35Z</time>
      </trkpt>
      <trkpt lat="41.6488010" lon="2.0907580">
        <ele>505.8</ele>
        <time>2022-09-26T08:21:36Z</time>
      </trkpt>
      <trkpt lat="41.6488000" lon="2.0907290">
        <ele>505.8</ele>
        <time>2022-09-26T08:21:37Z</time>
      </trkpt>
      <trkpt lat="41.6488000" lon="2.0907000">
        <ele>505.8</ele>
        <time>2022-09-26T08:21:38Z</time>
      </trkpt>
      <trkpt lat="41.6488020" lon="2.0906690">
        <ele>505.8</ele>
        <time>2022-09-26T08:21:39Z</time>
      </trkpt>
      <trkpt lat="41.6488000" lon="2.0906380">
        <ele>505.8</ele>
        <time>2022-09-26T08:21:40Z</time>
      </trkpt>
      <trkpt lat="41.6487970" lon="2.0906100">
        <ele>505.8</ele>
        <time>2022-09-26T08:21:41Z</time>
      </trkpt>
      <trkpt lat="41.6487950" lon="2.0905830">
        <ele>505.8</ele>
        <time>2022-09-26T08:21:42Z</time>
      </trkpt>
      <trkpt lat="41.6487940" lon="2.0905590">
        <ele>506.0</ele>
        <time>2022-09-26T08:21:43Z</time>
      </trkpt>
      <trkpt lat="41.6487920" lon="2.0905330">
        <ele>506.4</ele>
        <time>2022-09-26T08:21:44Z</time>
      </trkpt>
      <trkpt lat="41.6487900" lon="2.0905070">
        <ele>506.8</ele>
        <time>2022-09-26T08:21:45Z</time>
      </trkpt>
      <trkpt lat="41.6487860" lon="2.0904830">
        <ele>507.0</ele>
        <time>2022-09-26T08:21:46Z</time>
      </trkpt>
      <trkpt lat="41.6487790" lon="2.0904580">
        <ele>507.0</ele>
        <time>2022-09-26T08:21:47Z</time>
      </trkpt>
      <trkpt lat="41.6487690" lon="2.0904310">
        <ele>507.4</ele>
        <time>2022-09-26T08:21:48Z</time>
      </trkpt>
      <trkpt lat="41.6487590" lon="2.0904070">
        <ele>507.6</ele>
        <time>2022-09-26T08:21:49Z</time>
      </trkpt>
      <trkpt lat="41.6487460" lon="2.0903860">
        <ele>507.6</ele>
        <time>2022-09-26T08:21:50Z</time>
      </trkpt>
      <trkpt lat="41.6487330" lon="2.0903670">
        <ele>508.0</ele>
        <time>2022-09-26T08:21:51Z</time>
      </trkpt>
      <trkpt lat="41.6487190" lon="2.0903480">
        <ele>508.0</ele>
        <time>2022-09-26T08:21:52Z</time>
      </trkpt>
      <trkpt lat="41.6487060" lon="2.0903290">
        <ele>508.0</ele>
        <time>2022-09-26T08:21:53Z</time>
      </trkpt>
      <trkpt lat="41.6486940" lon="2.0903100">
        <ele>508.2</ele>
        <time>2022-09-26T08:21:54Z</time>
      </trkpt>
      <trkpt lat="41.6486820" lon="2.0902890">
        <ele>508.0</ele>
        <time>2022-09-26T08:21:55Z</time>
      </trkpt>
      <trkpt lat="41.6486700" lon="2.0902640">
        <ele>508.2</ele>
        <time>2022-09-26T08:21:56Z</time>
      </trkpt>
      <trkpt lat="41.6486580" lon="2.0902410">
        <ele>508.4</ele>
        <time>2022-09-26T08:21:57Z</time>
      </trkpt>
      <trkpt lat="41.6486480" lon="2.0902210">
        <ele>508.6</ele>
        <time>2022-09-26T08:21:58Z</time>
      </trkpt>
      <trkpt lat="41.6486330" lon="2.0902020">
        <ele>508.6</ele>
        <time>2022-09-26T08:21:59Z</time>
      </trkpt>
      <trkpt lat="41.6486190" lon="2.0901870">
        <ele>508.8</ele>
        <time>2022-09-26T08:22:00Z</time>
      </trkpt>
      <trkpt lat="41.6486060" lon="2.0901690">
        <ele>509.0</ele>
        <time>2022-09-26T08:22:01Z</time>
      </trkpt>
      <trkpt lat="41.6485960" lon="2.0901460">
        <ele>509.0</ele>
        <time>2022-09-26T08:22:02Z</time>
      </trkpt>
      <trkpt lat="41.6485910" lon="2.0901220">
        <ele>509.2</ele>
        <time>2022-09-26T08:22:03Z</time>
      </trkpt>
      <trkpt lat="41.6485860" lon="2.0901010">
        <ele>509.2</ele>
        <time>2022-09-26T08:22:04Z</time>
      </trkpt>
      <trkpt lat="41.6485830" lon="2.0900800">
        <ele>509.4</ele>
        <time>2022-09-26T08:22:05Z</time>
      </trkpt>
      <trkpt lat="41.6485850" lon="2.0900560">
        <ele>509.6</ele>
        <time>2022-09-26T08:22:06Z</time>
      </trkpt>
      <trkpt lat="41.6485880" lon="2.0900340">
        <ele>509.8</ele>
        <time>2022-09-26T08:22:07Z</time>
      </trkpt>
      <trkpt lat="41.6485950" lon="2.0900120">
        <ele>510.0</ele>
        <time>2022-09-26T08:22:08Z</time>
      </trkpt>
      <trkpt lat="41.6486050" lon="2.0899930">
        <ele>510.2</ele>
        <time>2022-09-26T08:22:09Z</time>
      </trkpt>
      <trkpt lat="41.6486170" lon="2.0899720">
        <ele>510.2</ele>
        <time>2022-09-26T08:22:10Z</time>
      </trkpt>
      <trkpt lat="41.6486300" lon="2.0899520">
        <ele>510.4</ele>
        <time>2022-09-26T08:22:11Z</time>
      </trkpt>
      <trkpt lat="41.6486440" lon="2.0899360">
        <ele>510.8</ele>
        <time>2022-09-26T08:22:12Z</time>
      </trkpt>
      <trkpt lat="41.6486600" lon="2.0899220">
        <ele>511.0</ele>
        <time>2022-09-26T08:22:13Z</time>
      </trkpt>
      <trkpt lat="41.6486760" lon="2.0899090">
        <ele>511.2</ele>
        <time>2022-09-26T08:22:14Z</time>
      </trkpt>
      <trkpt lat="41.6486910" lon="2.0898930">
        <ele>511.2</ele>
        <time>2022-09-26T08:22:15Z</time>
      </trkpt>
      <trkpt lat="41.6487050" lon="2.0898760">
        <ele>511.4</ele>
        <time>2022-09-26T08:22:16Z</time>
      </trkpt>
      <trkpt lat="41.6487180" lon="2.0898600">
        <ele>511.6</ele>
        <time>2022-09-26T08:22:17Z</time>
      </trkpt>
      <trkpt lat="41.6487320" lon="2.0898440">
        <ele>511.6</ele>
        <time>2022-09-26T08:22:18Z</time>
      </trkpt>
      <trkpt lat="41.6487440" lon="2.0898230">
        <ele>511.8</ele>
        <time>2022-09-26T08:22:19Z</time>
      </trkpt>
      <trkpt lat="41.6487550" lon="2.0898010">
        <ele>511.8</ele>
        <time>2022-09-26T08:22:20Z</time>
      </trkpt>
      <trkpt lat="41.6487640" lon="2.0897770">
        <ele>512.0</ele>
        <time>2022-09-26T08:22:21Z</time>
      </trkpt>
      <trkpt lat="41.6487740" lon="2.0897520">
        <ele>512.2</ele>
        <time>2022-09-26T08:22:22Z</time>
      </trkpt>
      <trkpt lat="41.6487830" lon="2.0897240">
        <ele>512.4</ele>
        <time>2022-09-26T08:22:23Z</time>
      </trkpt>
      <trkpt lat="41.6487880" lon="2.0896970">
        <ele>512.4</ele>
        <time>2022-09-26T08:22:24Z</time>
      </trkpt>
      <trkpt lat="41.6487920" lon="2.0896710">
        <ele>512.6</ele>
        <time>2022-09-26T08:22:25Z</time>
      </trkpt>
      <trkpt lat="41.6487960" lon="2.0896470">
        <ele>512.8</ele>
        <time>2022-09-26T08:22:26Z</time>
      </trkpt>
      <trkpt lat="41.6487990" lon="2.0896180">
        <ele>512.8</ele>
        <time>2022-09-26T08:22:27Z</time>
      </trkpt>
      <trkpt lat="41.6488000" lon="2.0895880">
        <ele>513.0</ele>
        <time>2022-09-26T08:22:28Z</time>
      </trkpt>
      <trkpt lat="41.6488000" lon="2.0895590">
        <ele>513.0</ele>
        <time>2022-09-26T08:22:29Z</time>
      </trkpt>
      <trkpt lat="41.6487990" lon="2.0895260">
        <ele>513.0</ele>
        <time>2022-09-26T08:22:30Z</time>
      </trkpt>
      <trkpt lat="41.6487980" lon="2.0894930">
        <ele>513.0</ele>
        <time>2022-09-26T08:22:31Z</time>
      </trkpt>
      <trkpt lat="41.6487970" lon="2.0894630">
        <ele>513.0</ele>
        <time>2022-09-26T08:22:32Z</time>
      </trkpt>
      <trkpt lat="41.6487990" lon="2.0894330">
        <ele>513.0</ele>
        <time>2022-09-26T08:22:33Z</time>
      </trkpt>
      <trkpt lat="41.6488010" lon="2.0894020">
        <ele>513.2</ele>
        <time>2022-09-26T08:22:34Z</time>
      </trkpt>
      <trkpt lat="41.6488010" lon="2.0893730">
        <ele>513.2</ele>
        <time>2022-09-26T08:22:35Z</time>
      </trkpt>
      <trkpt lat="41.6488060" lon="2.0893440">
        <ele>513.4</ele>
        <time>2022-09-26T08:22:36Z</time>
      </trkpt>
      <trkpt lat="41.6488160" lon="2.0893150">
        <ele>513.4</ele>
        <time>2022-09-26T08:22:37Z</time>
      </trkpt>
      <trkpt lat="41.6488310" lon="2.0892870">
        <ele>513.6</ele>
        <time>2022-09-26T08:22:38Z</time>
      </trkpt>
      <trkpt lat="41.6488490" lon="2.0892640">
        <ele>513.6</ele>
        <time>2022-09-26T08:22:39Z</time>
      </trkpt>
      <trkpt lat="41.6488700" lon="2.0892420">
        <ele>513.6</ele>
        <time>2022-09-26T08:22:40Z</time>
      </trkpt>
      <trkpt lat="41.6488930" lon="2.0892240">
        <ele>513.6</ele>
        <time>2022-09-26T08:22:41Z</time>
      </trkpt>
      <trkpt lat="41.6489160" lon="2.0892060">
        <ele>513.6</ele>
        <time>2022-09-26T08:22:42Z</time>
      </trkpt>
      <trkpt lat="41.6489400" lon="2.0891910">
        <ele>513.6</ele>
        <time>2022-09-26T08:22:43Z</time>
      </trkpt>
      <trkpt lat="41.6489650" lon="2.0891770">
        <ele>513.8</ele>
        <time>2022-09-26T08:22:44Z</time>
      </trkpt>
      <trkpt lat="41.6489910" lon="2.0891660">
        <ele>513.8</ele>
        <time>2022-09-26T08:22:45Z</time>
      </trkpt>
      <trkpt lat="41.6490170" lon="2.0891600">
        <ele>513.6</ele>
        <time>2022-09-26T08:22:46Z</time>
      </trkpt>
      <trkpt lat="41.6490420" lon="2.0891540">
        <ele>513.6</ele>
        <time>2022-09-26T08:22:47Z</time>
      </trkpt>
      <trkpt lat="41.6490660" lon="2.0891440">
        <ele>513.6</ele>
        <time>2022-09-26T08:22:48Z</time>
      </trkpt>
      <trkpt lat="41.6490910" lon="2.0891350">
        <ele>513.8</ele>
        <time>2022-09-26T08:22:49Z</time>
      </trkpt>
      <trkpt lat="41.6491190" lon="2.0891240">
        <ele>513.8</ele>
        <time>2022-09-26T08:22:50Z</time>
      </trkpt>
      <trkpt lat="41.6491470" lon="2.0891130">
        <ele>513.8</ele>
        <time>2022-09-26T08:22:51Z</time>
      </trkpt>
      <trkpt lat="41.6491740" lon="2.0891020">
        <ele>513.8</ele>
        <time>2022-09-26T08:22:52Z</time>
      </trkpt>
      <trkpt lat="41.6492030" lon="2.0890970">
        <ele>514.0</ele>
        <time>2022-09-26T08:22:53Z</time>
      </trkpt>
      <trkpt lat="41.6492280" lon="2.0890930">
        <ele>514.2</ele>
        <time>2022-09-26T08:22:54Z</time>
      </trkpt>
      <trkpt lat="41.6492540" lon="2.0890900">
        <ele>514.4</ele>
        <time>2022-09-26T08:22:55Z</time>
      </trkpt>
      <trkpt lat="41.6492810" lon="2.0890910">
        <ele>514.4</ele>
        <time>2022-09-26T08:22:56Z</time>
      </trkpt>
      <trkpt lat="41.6493100" lon="2.0890980">
        <ele>514.4</ele>
        <time>2022-09-26T08:22:57Z</time>
      </trkpt>
      <trkpt lat="41.6493390" lon="2.0891060">
        <ele>514.4</ele>
        <time>2022-09-26T08:22:58Z</time>
      </trkpt>
      <trkpt lat="41.6493710" lon="2.0891130">
        <ele>514.4</ele>
        <time>2022-09-26T08:22:59Z</time>
      </trkpt>
      <trkpt lat="41.6494020" lon="2.0891170">
        <ele>514.2</ele>
        <time>2022-09-26T08:23:00Z</time>
      </trkpt>
      <trkpt lat="41.6494350" lon="2.0891190">
        <ele>514.2</ele>
        <time>2022-09-26T08:23:01Z</time>
      </trkpt>
      <trkpt lat="41.6494650" lon="2.0891200">
        <ele>514.2</ele>
        <time>2022-09-26T08:23:02Z</time>
      </trkpt>
      <trkpt lat="41.6494940" lon="2.0891240">
        <ele>514.2</ele>
        <time>2022-09-26T08:23:03Z</time>
      </trkpt>
      <trkpt lat="41.6495240" lon="2.0891260">
        <ele>514.2</ele>
        <time>2022-09-26T08:23:04Z</time>
      </trkpt>
      <trkpt lat="41.6495530" lon="2.0891310">
        <ele>514.2</ele>
        <time>2022-09-26T08:23:05Z</time>
      </trkpt>
      <trkpt lat="41.6495810" lon="2.0891370">
        <ele>514.2</ele>
        <time>2022-09-26T08:23:06Z</time>
      </trkpt>
      <trkpt lat="41.6496090" lon="2.0891440">
        <ele>514.4</ele>
        <time>2022-09-26T08:23:07Z</time>
      </trkpt>
      <trkpt lat="41.6496390" lon="2.0891540">
        <ele>514.4</ele>
        <time>2022-09-26T08:23:08Z</time>
      </trkpt>
      <trkpt lat="41.6496700" lon="2.0891660">
        <ele>514.4</ele>
        <time>2022-09-26T08:23:09Z</time>
      </trkpt>
      <trkpt lat="41.6497010" lon="2.0891750">
        <ele>514.6</ele>
        <time>2022-09-26T08:23:10Z</time>
      </trkpt>
      <trkpt lat="41.6497330" lon="2.0891840">
        <ele>514.6</ele>
        <time>2022-09-26T08:23:11Z</time>
      </trkpt>
      <trkpt lat="41.6497650" lon="2.0891890">
        <ele>514.6</ele>
        <time>2022-09-26T08:23:12Z</time>
      </trkpt>
      <trkpt lat="41.6497960" lon="2.0891910">
        <ele>514.6</ele>
        <time>2022-09-26T08:23:13Z</time>
      </trkpt>
      <trkpt lat="41.6498270" lon="2.0891900">
        <ele>514.6</ele>
        <time>2022-09-26T08:23:14Z</time>
      </trkpt>
      <trkpt lat="41.6498560" lon="2.0891830">
        <ele>514.6</ele>
        <time>2022-09-26T08:23:15Z</time>
      </trkpt>
      <trkpt lat="41.6498830" lon="2.0891730">
        <ele>514.6</ele>
        <time>2022-09-26T08:23:16Z</time>
      </trkpt>
      <trkpt lat="41.6499070" lon="2.0891660">
        <ele>514.6</ele>
        <time>2022-09-26T08:23:17Z</time>
      </trkpt>
      <trkpt lat="41.6499330" lon="2.0891560">
        <ele>514.6</ele>
        <time>2022-09-26T08:23:18Z</time>
      </trkpt>
      <trkpt lat="41.6499590" lon="2.0891510">
        <ele>514.4</ele>
        <time>2022-09-26T08:23:19Z</time>
      </trkpt>
      <trkpt lat="41.6499860" lon="2.0891430">
        <ele>514.4</ele>
        <time>2022-09-26T08:23:20Z</time>
      </trkpt>
      <trkpt lat="41.6500120" lon="2.0891380">
        <ele>514.4</ele>
        <time>2022-09-26T08:23:21Z</time>
      </trkpt>
      <trkpt lat="41.6500360" lon="2.0891340">
        <ele>514.2</ele>
        <time>2022-09-26T08:23:22Z</time>
      </trkpt>
      <trkpt lat="41.6500630" lon="2.0891320">
        <ele>514.0</ele>
        <time>2022-09-26T08:23:23Z</time>
      </trkpt>
      <trkpt lat="41.6500950" lon="2.0891310">
        <ele>514.0</ele>
        <time>2022-09-26T08:23:24Z</time>
      </trkpt>
      <trkpt lat="41.6501290" lon="2.0891290">
        <ele>513.8</ele>
        <time>2022-09-26T08:23:25Z</time>
      </trkpt>
      <trkpt lat="41.6501630" lon="2.0891340">
        <ele>513.8</ele>
        <time>2022-09-26T08:23:26Z</time>
      </trkpt>
      <trkpt lat="41.6502010" lon="2.0891380">
        <ele>513.8</ele>
        <time>2022-09-26T08:23:27Z</time>
      </trkpt>
      <trkpt lat="41.6502360" lon="2.0891410">
        <ele>513.8</ele>
        <time>2022-09-26T08:23:28Z</time>
      </trkpt>
      <trkpt lat="41.6502700" lon="2.0891500">
        <ele>513.8</ele>
        <time>2022-09-26T08:23:29Z</time>
      </trkpt>
      <trkpt lat="41.6503030" lon="2.0891570">
        <ele>513.8</ele>
        <time>2022-09-26T08:23:30Z</time>
      </trkpt>
      <trkpt lat="41.6503400" lon="2.0891680">
        <ele>513.8</ele>
        <time>2022-09-26T08:23:31Z</time>
      </trkpt>
      <trkpt lat="41.6503740" lon="2.0891790">
        <ele>513.6</ele>
        <time>2022-09-26T08:23:32Z</time>
      </trkpt>
      <trkpt lat="41.6504110" lon="2.0891860">
        <ele>513.4</ele>
        <time>2022-09-26T08:23:33Z</time>
      </trkpt>
      <trkpt lat="41.6504550" lon="2.0891930">
        <ele>513.0</ele>
        <time>2022-09-26T08:23:34Z</time>
      </trkpt>
      <trkpt lat="41.6505050" lon="2.0891920">
        <ele>512.8</ele>
        <time>2022-09-26T08:23:35Z</time>
      </trkpt>
      <trkpt lat="41.6505550" lon="2.0891810">
        <ele>512.6</ele>
        <time>2022-09-26T08:23:36Z</time>
      </trkpt>
      <trkpt lat="41.6506050" lon="2.0891600">
        <ele>512.4</ele>
        <time>2022-09-26T08:23:37Z</time>
      </trkpt>
      <trkpt lat="41.6506540" lon="2.0891320">
        <ele>512.0</ele>
        <time>2022-09-26T08:23:38Z</time>
      </trkpt>
      <trkpt lat="41.6507020" lon="2.0890960">
        <ele>511.8</ele>
        <time>2022-09-26T08:23:39Z</time>
      </trkpt>
      <trkpt lat="41.6507490" lon="2.0890650">
        <ele>511.6</ele>
        <time>2022-09-26T08:23:40Z</time>
      </trkpt>
      <trkpt lat="41.6507990" lon="2.0890450">
        <ele>511.4</ele>
        <time>2022-09-26T08:23:41Z</time>
      </trkpt>
      <trkpt lat="41.6508500" lon="2.0890260">
        <ele>511.0</ele>
        <time>2022-09-26T08:23:42Z</time>
      </trkpt>
      <trkpt lat="41.6509080" lon="2.0890150">
        <ele>510.8</ele>
        <time>2022-09-26T08:23:43Z</time>
      </trkpt>
      <trkpt lat="41.6509670" lon="2.0890070">
        <ele>510.6</ele>
        <time>2022-09-26T08:23:44Z</time>
      </trkpt>
      <trkpt lat="41.6510240" lon="2.0890040">
        <ele>510.2</ele>
        <time>2022-09-26T08:23:45Z</time>
      </trkpt>
      <trkpt lat="41.6510800" lon="2.0890040">
        <ele>510.0</ele>
        <time>2022-09-26T08:23:46Z</time>
      </trkpt>
      <trkpt lat="41.6511330" lon="2.0889980">
        <ele>509.8</ele>
        <time>2022-09-26T08:23:47Z</time>
      </trkpt>
      <trkpt lat="41.6511910" lon="2.0889880">
        <ele>509.4</ele>
        <time>2022-09-26T08:23:48Z</time>
      </trkpt>
      <trkpt lat="41.6512490" lon="2.0889750">
        <ele>509.0</ele>
        <time>2022-09-26T08:23:49Z</time>
      </trkpt>
      <trkpt lat="41.6513090" lon="2.0889540">
        <ele>508.4</ele>
        <time>2022-09-26T08:23:50Z</time>
      </trkpt>
      <trkpt lat="41.6513620" lon="2.0889200">
        <ele>508.2</ele>
        <time>2022-09-26T08:23:51Z</time>
      </trkpt>
      <trkpt lat="41.6514060" lon="2.0888760">
        <ele>507.8</ele>
        <time>2022-09-26T08:23:52Z</time>
      </trkpt>
      <trkpt lat="41.6514420" lon="2.0888170">
        <ele>507.6</ele>
        <time>2022-09-26T08:23:53Z</time>
      </trkpt>
      <trkpt lat="41.6514640" lon="2.0887470">
        <ele>507.2</ele>
        <time>2022-09-26T08:23:54Z</time>
      </trkpt>
      <trkpt lat="41.6514710" lon="2.0886740">
        <ele>506.8</ele>
        <time>2022-09-26T08:23:55Z</time>
      </trkpt>
      <trkpt lat="41.6514660" lon="2.0886000">
        <ele>506.4</ele>
        <time>2022-09-26T08:23:56Z</time>
      </trkpt>
      <trkpt lat="41.6514530" lon="2.0885290">
        <ele>506.2</ele>
        <time>2022-09-26T08:23:57Z</time>
      </trkpt>
      <trkpt lat="41.6514380" lon="2.0884570">
        <ele>506.0</ele>
        <time>2022-09-26T08:23:58Z</time>
      </trkpt>
      <trkpt lat="41.6514250" lon="2.0883880">
        <ele>505.8</ele>
        <time>2022-09-26T08:23:59Z</time>
      </trkpt>
      <trkpt lat="41.6514200" lon="2.0883170">
        <ele>505.8</ele>
        <time>2022-09-26T08:24:00Z</time>
      </trkpt>
      <trkpt lat="41.6514220" lon="2.0882480">
        <ele>505.8</ele>
        <time>2022-09-26T08:24:01Z</time>
      </trkpt>
      <trkpt lat="41.6514290" lon="2.0881790">
        <ele>506.0</ele>
        <time>2022-09-26T08:24:02Z</time>
      </trkpt>
      <trkpt lat="41.6514370" lon="2.0881140">
        <ele>506.0</ele>
        <time>2022-09-26T08:24:03Z</time>
      </trkpt>
      <trkpt lat="41.6514470" lon="2.0880550">
        <ele>506.0</ele>
        <time>2022-09-26T08:24:04Z</time>
      </trkpt>
      <trkpt lat="41.6514590" lon="2.0879940">
        <ele>506.2</ele>
        <time>2022-09-26T08:24:05Z</time>
      </trkpt>
      <trkpt lat="41.6514700" lon="2.0879340">
        <ele>506.2</ele>
        <time>2022-09-26T08:24:06Z</time>
      </trkpt>
      <trkpt lat="41.6514780" lon="2.0878770">
        <ele>506.2</ele>
        <time>2022-09-26T08:24:07Z</time>
      </trkpt>
      <trkpt lat="41.6514930" lon="2.0878190">
        <ele>506.2</ele>
        <time>2022-09-26T08:24:08Z</time>
      </trkpt>
      <trkpt lat="41.6515080" lon="2.0877680">
        <ele>506.2</ele>
        <time>2022-09-26T08:24:09Z</time>
      </trkpt>
      <trkpt lat="41.6515250" lon="2.0877220">
        <ele>506.2</ele>
        <time>2022-09-26T08:24:10Z</time>
      </trkpt>
      <trkpt lat="41.6515460" lon="2.0876770">
        <ele>506.2</ele>
        <time>2022-09-26T08:24:11Z</time>
      </trkpt>
      <trkpt lat="41.6515700" lon="2.0876320">
        <ele>506.4</ele>
        <time>2022-09-26T08:24:12Z</time>
      </trkpt>
      <trkpt lat="41.6515980" lon="2.0875850">
        <ele>506.2</ele>
        <time>2022-09-26T08:24:13Z</time>
      </trkpt>
      <trkpt lat="41.6516270" lon="2.0875410">
        <ele>506.0</ele>
        <time>2022-09-26T08:24:14Z</time>
      </trkpt>
      <trkpt lat="41.6516590" lon="2.0874950">
        <ele>505.8</ele>
        <time>2022-09-26T08:24:15Z</time>
      </trkpt>
      <trkpt lat="41.6516930" lon="2.0874480">
        <ele>505.8</ele>
        <time>2022-09-26T08:24:16Z</time>
      </trkpt>
      <trkpt lat="41.6517280" lon="2.0874050">
        <ele>505.6</ele>
        <time>2022-09-26T08:24:17Z</time>
      </trkpt>
      <trkpt lat="41.6517630" lon="2.0873640">
        <ele>505.6</ele>
        <time>2022-09-26T08:24:18Z</time>
      </trkpt>
      <trkpt lat="41.6517950" lon="2.0873240">
        <ele>505.6</ele>
        <time>2022-09-26T08:24:19Z</time>
      </trkpt>
      <trkpt lat="41.6518280" lon="2.0872880">
        <ele>505.6</ele>
        <time>2022-09-26T08:24:20Z</time>
      </trkpt>
      <trkpt lat="41.6518610" lon="2.0872520">
        <ele>505.6</ele>
        <time>2022-09-26T08:24:21Z</time>
      </trkpt>
      <trkpt lat="41.6518920" lon="2.0872210">
        <ele>505.6</ele>
        <time>2022-09-26T08:24:22Z</time>
      </trkpt>
      <trkpt lat="41.6519240" lon="2.0871920">
        <ele>505.8</ele>
        <time>2022-09-26T08:24:23Z</time>
      </trkpt>
      <trkpt lat="41.6519550" lon="2.0871630">
        <ele>505.8</ele>
        <time>2022-09-26T08:24:24Z</time>
      </trkpt>
      <trkpt lat="41.6519860" lon="2.0871370">
        <ele>505.8</ele>
        <time>2022-09-26T08:24:25Z</time>
      </trkpt>
      <trkpt lat="41.6520190" lon="2.0871130">
        <ele>505.6</ele>
        <time>2022-09-26T08:24:26Z</time>
      </trkpt>
      <trkpt lat="41.6520500" lon="2.0870910">
        <ele>505.8</ele>
        <time>2022-09-26T08:24:27Z</time>
      </trkpt>
      <trkpt lat="41.6520810" lon="2.0870680">
        <ele>506.0</ele>
        <time>2022-09-26T08:24:28Z</time>
      </trkpt>
      <trkpt lat="41.6521130" lon="2.0870440">
        <ele>506.4</ele>
        <time>2022-09-26T08:24:29Z</time>
      </trkpt>
      <trkpt lat="41.6521440" lon="2.0870210">
        <ele>506.6</ele>
        <time>2022-09-26T08:24:30Z</time>
      </trkpt>
      <trkpt lat="41.6521740" lon="2.0870000">
        <ele>506.8</ele>
        <time>2022-09-26T08:24:31Z</time>
      </trkpt>
      <trkpt lat="41.6522020" lon="2.0869800">
        <ele>506.8</ele>
        <time>2022-09-26T08:24:32Z</time>
      </trkpt>
      <trkpt lat="41.6522310" lon="2.0869630">
        <ele>507.0</ele>
        <time>2022-09-26T08:24:33Z</time>
      </trkpt>
      <trkpt lat="41.6522610" lon="2.0869470">
        <ele>507.2</ele>
        <time>2022-09-26T08:24:34Z</time>
      </trkpt>
      <trkpt lat="41.6522900" lon="2.0869260">
        <ele>507.6</ele>
        <time>2022-09-26T08:24:35Z</time>
      </trkpt>
      <trkpt lat="41.6523190" lon="2.0869060">
        <ele>507.8</ele>
        <time>2022-09-26T08:24:36Z</time>
      </trkpt>
      <trkpt lat="41.6523480" lon="2.0868880">
        <ele>508.2</ele>
        <time>2022-09-26T08:24:37Z</time>
      </trkpt>
      <trkpt lat="41.6523790" lon="2.0868700">
        <ele>508.4</ele>
        <time>2022-09-26T08:24:38Z</time>
      </trkpt>
      <trkpt lat="41.6524130" lon="2.0868500">
        <ele>508.4</ele>
        <time>2022-09-26T08:24:39Z</time>
      </trkpt>
      <trkpt lat="41.6524460" lon="2.0868300">
        <ele>508.4</ele>
        <time>2022-09-26T08:24:40Z</time>
      </trkpt>
      <trkpt lat="41.6524780" lon="2.0868100">
        <ele>508.4</ele>
        <time>2022-09-26T08:24:41Z</time>
      </trkpt>
      <trkpt lat="41.6525100" lon="2.0867900">
        <ele>508.4</ele>
        <time>2022-09-26T08:24:42Z</time>
      </trkpt>
      <trkpt lat="41.6525400" lon="2.0867680">
        <ele>508.2</ele>
        <time>2022-09-26T08:24:43Z</time>
      </trkpt>
      <trkpt lat="41.6525720" lon="2.0867470">
        <ele>508.2</ele>
        <time>2022-09-26T08:24:44Z</time>
      </trkpt>
      <trkpt lat="41.6526020" lon="2.0867230">
        <ele>508.4</ele>
        <time>2022-09-26T08:24:45Z</time>
      </trkpt>
      <trkpt lat="41.6526320" lon="2.0866990">
        <ele>508.4</ele>
        <time>2022-09-26T08:24:46Z</time>
      </trkpt>
      <trkpt lat="41.6526610" lon="2.0866730">
        <ele>508.4</ele>
        <time>2022-09-26T08:24:47Z</time>
      </trkpt>
      <trkpt lat="41.6526890" lon="2.0866470">
        <ele>508.6</ele>
        <time>2022-09-26T08:24:48Z</time>
      </trkpt>
      <trkpt lat="41.6527160" lon="2.0866220">
        <ele>508.8</ele>
        <time>2022-09-26T08:24:49Z</time>
      </trkpt>
      <trkpt lat="41.6527410" lon="2.0865990">
        <ele>509.0</ele>
        <time>2022-09-26T08:24:50Z</time>
      </trkpt>
      <trkpt lat="41.6527660" lon="2.0865770">
        <ele>509.2</ele>
        <time>2022-09-26T08:24:51Z</time>
      </trkpt>
      <trkpt lat="41.6527890" lon="2.0865570">
        <ele>509.4</ele>
        <time>2022-09-26T08:24:52Z</time>
      </trkpt>
      <trkpt lat="41.6528140" lon="2.0865360">
        <ele>509.6</ele>
        <time>2022-09-26T08:24:53Z</time>
      </trkpt>
      <trkpt lat="41.6528420" lon="2.0865120">
        <ele>509.8</ele>
        <time>2022-09-26T08:24:54Z</time>
      </trkpt>
      <trkpt lat="41.6528740" lon="2.0864880">
        <ele>509.8</ele>
        <time>2022-09-26T08:24:55Z</time>
      </trkpt>
      <trkpt lat="41.6529070" lon="2.0864660">
        <ele>509.8</ele>
        <time>2022-09-26T08:24:56Z</time>
      </trkpt>
      <trkpt lat="41.6529410" lon="2.0864440">
        <ele>509.6</ele>
        <time>2022-09-26T08:24:57Z</time>
      </trkpt>
      <trkpt lat="41.6529770" lon="2.0864230">
        <ele>509.6</ele>
        <time>2022-09-26T08:24:58Z</time>
      </trkpt>
      <trkpt lat="41.6530120" lon="2.0863990">
        <ele>509.6</ele>
        <time>2022-09-26T08:24:59Z</time>
      </trkpt>
      <trkpt lat="41.6530470" lon="2.0863740">
        <ele>509.4</ele>
        <time>2022-09-26T08:25:00Z</time>
      </trkpt>
      <trkpt lat="41.6530840" lon="2.0863490">
        <ele>509.4</ele>
        <time>2022-09-26T08:25:01Z</time>
      </trkpt>
      <trkpt lat="41.6531210" lon="2.0863280">
        <ele>509.4</ele>
        <time>2022-09-26T08:25:02Z</time>
      </trkpt>
      <trkpt lat="41.6531600" lon="2.0863120">
        <ele>509.2</ele>
        <time>2022-09-26T08:25:03Z</time>
      </trkpt>
      <trkpt lat="41.6532000" lon="2.0863010">
        <ele>509.0</ele>
        <time>2022-09-26T08:25:04Z</time>
      </trkpt>
      <trkpt lat="41.6532400" lon="2.0862980">
        <ele>509.0</ele>
        <time>2022-09-26T08:25:05Z</time>
      </trkpt>
      <trkpt lat="41.6532800" lon="2.0863030">
        <ele>508.8</ele>
        <time>2022-09-26T08:25:06Z</time>
      </trkpt>
      <trkpt lat="41.6533200" lon="2.0863110">
        <ele>508.8</ele>
        <time>2022-09-26T08:25:07Z</time>
      </trkpt>
      <trkpt lat="41.6533600" lon="2.0863240">
        <ele>508.8</ele>
        <time>2022-09-26T08:25:08Z</time>
      </trkpt>
      <trkpt lat="41.6533990" lon="2.0863420">
        <ele>508.8</ele>
        <time>2022-09-26T08:25:09Z</time>
      </trkpt>
      <trkpt lat="41.6534330" lon="2.0863600">
        <ele>508.8</ele>
        <time>2022-09-26T08:25:10Z</time>
      </trkpt>
      <trkpt lat="41.6534660" lon="2.0863800">
        <ele>508.8</ele>
        <time>2022-09-26T08:25:11Z</time>
      </trkpt>
      <trkpt lat="41.6534970" lon="2.0864030">
        <ele>508.8</ele>
        <time>2022-09-26T08:25:12Z</time>
      </trkpt>
      <trkpt lat="41.6535280" lon="2.0864260">
        <ele>508.8</ele>
        <time>2022-09-26T08:25:13Z</time>
      </trkpt>
      <trkpt lat="41.6535590" lon="2.0864500">
        <ele>508.8</ele>
        <time>2022-09-26T08:25:14Z</time>
      </trkpt>
      <trkpt lat="41.6535910" lon="2.0864770">
        <ele>508.8</ele>
        <time>2022-09-26T08:25:15Z</time>
      </trkpt>
      <trkpt lat="41.6536220" lon="2.0865080">
        <ele>508.8</ele>
        <time>2022-09-26T08:25:16Z</time>
      </trkpt>
      <trkpt lat="41.6536520" lon="2.0865410">
        <ele>508.8</ele>
        <time>2022-09-26T08:25:17Z</time>
      </trkpt>
      <trkpt lat="41.6536810" lon="2.0865750">
        <ele>508.8</ele>
        <time>2022-09-26T08:25:18Z</time>
      </trkpt>
      <trkpt lat="41.6537120" lon="2.0866070">
        <ele>508.8</ele>
        <time>2022-09-26T08:25:19Z</time>
      </trkpt>
      <trkpt lat="41.6537440" lon="2.0866390">
        <ele>508.8</ele>
        <time>2022-09-26T08:25:20Z</time>
      </trkpt>
      <trkpt lat="41.6537770" lon="2.0866740">
        <ele>508.8</ele>
        <time>2022-09-26T08:25:21Z</time>
      </trkpt>
      <trkpt lat="41.6538120" lon="2.0867070">
        <ele>508.8</ele>
        <time>2022-09-26T08:25:22Z</time>
      </trkpt>
      <trkpt lat="41.6538450" lon="2.0867390">
        <ele>508.8</ele>
        <time>2022-09-26T08:25:23Z</time>
      </trkpt>
      <trkpt lat="41.6538800" lon="2.0867760">
        <ele>508.8</ele>
        <time>2022-09-26T08:25:24Z</time>
      </trkpt>
      <trkpt lat="41.6539140" lon="2.0868110">
        <ele>508.8</ele>
        <time>2022-09-26T08:25:25Z</time>
      </trkpt>
      <trkpt lat="41.6539500" lon="2.0868470">
        <ele>508.6</ele>
        <time>2022-09-26T08:25:26Z</time>
      </trkpt>
      <trkpt lat="41.6539870" lon="2.0868840">
        <ele>508.2</ele>
        <time>2022-09-26T08:25:27Z</time>
      </trkpt>
      <trkpt lat="41.6540280" lon="2.0869240">
        <ele>508.0</ele>
        <time>2022-09-26T08:25:28Z</time>
      </trkpt>
      <trkpt lat="41.6540680" lon="2.0869670">
        <ele>507.4</ele>
        <time>2022-09-26T08:25:29Z</time>
      </trkpt>
      <trkpt lat="41.6541080" lon="2.0870120">
        <ele>507.0</ele>
        <time>2022-09-26T08:25:30Z</time>
      </trkpt>
      <trkpt lat="41.6541520" lon="2.0870590">
        <ele>506.8</ele>
        <time>2022-09-26T08:25:31Z</time>
      </trkpt>
      <trkpt lat="41.6541950" lon="2.0871060">
        <ele>506.4</ele>
        <time>2022-09-26T08:25:32Z</time>
      </trkpt>
      <trkpt lat="41.6542360" lon="2.0871570">
        <ele>505.4</ele>
        <time>2022-09-26T08:25:33Z</time>
      </trkpt>
      <trkpt lat="41.6542820" lon="2.0872080">
        <ele>505.0</ele>
        <time>2022-09-26T08:25:34Z</time>
      </trkpt>
      <trkpt lat="41.6543320" lon="2.0872540">
        <ele>504.6</ele>
        <time>2022-09-26T08:25:35Z</time>
      </trkpt>
      <trkpt lat="41.6543890" lon="2.0872900">
        <ele>504.2</ele>
        <time>2022-09-26T08:25:36Z</time>
      </trkpt>
      <trkpt lat="41.6544470" lon="2.0873180">
        <ele>503.8</ele>
        <time>2022-09-26T08:25:37Z</time>
      </trkpt>
      <trkpt lat="41.6545170" lon="2.0873360">
        <ele>503.4</ele>
        <time>2022-09-26T08:25:38Z</time>
      </trkpt>
      <trkpt lat="41.6545930" lon="2.0873460">
        <ele>502.8</ele>
        <time>2022-09-26T08:25:39Z</time>
      </trkpt>
      <trkpt lat="41.6546740" lon="2.0873460">
        <ele>502.0</ele>
        <time>2022-09-26T08:25:40Z</time>
      </trkpt>
      <trkpt lat="41.6547570" lon="2.0873400">
        <ele>501.0</ele>
        <time>2022-09-26T08:25:41Z</time>
      </trkpt>
      <trkpt lat="41.6548370" lon="2.0873340">
        <ele>500.6</ele>
        <time>2022-09-26T08:25:42Z</time>
      </trkpt>
      <trkpt lat="41.6549200" lon="2.0873250">
        <ele>500.2</ele>
        <time>2022-09-26T08:25:43Z</time>
      </trkpt>
      <trkpt lat="41.6549990" lon="2.0873170">
        <ele>500.0</ele>
        <time>2022-09-26T08:25:44Z</time>
      </trkpt>
      <trkpt lat="41.6550770" lon="2.0873100">
        <ele>499.8</ele>
        <time>2022-09-26T08:25:45Z</time>
      </trkpt>
      <trkpt lat="41.6551560" lon="2.0873050">
        <ele>499.6</ele>
        <time>2022-09-26T08:25:46Z</time>
      </trkpt>
      <trkpt lat="41.6552290" lon="2.0873050">
        <ele>499.4</ele>
        <time>2022-09-26T08:25:47Z</time>
      </trkpt>
      <trkpt lat="41.6553020" lon="2.0873070">
        <ele>499.2</ele>
        <time>2022-09-26T08:25:48Z</time>
      </trkpt>
      <trkpt lat="41.6553770" lon="2.0873170">
        <ele>499.0</ele>
        <time>2022-09-26T08:25:49Z</time>
      </trkpt>
      <trkpt lat="41.6554500" lon="2.0873360">
        <ele>498.4</ele>
        <time>2022-09-26T08:25:50Z</time>
      </trkpt>
      <trkpt lat="41.6555230" lon="2.0873630">
        <ele>498.0</ele>
        <time>2022-09-26T08:25:51Z</time>
      </trkpt>
      <trkpt lat="41.6555970" lon="2.0873940">
        <ele>497.8</ele>
        <time>2022-09-26T08:25:52Z</time>
      </trkpt>
      <trkpt lat="41.6556730" lon="2.0874270">
        <ele>497.6</ele>
        <time>2022-09-26T08:25:53Z</time>
      </trkpt>
      <trkpt lat="41.6557500" lon="2.0874580">
        <ele>497.4</ele>
        <time>2022-09-26T08:25:54Z</time>
      </trkpt>
      <trkpt lat="41.6558290" lon="2.0874900">
        <ele>496.8</ele>
        <time>2022-09-26T08:25:55Z</time>
      </trkpt>
      <trkpt lat="41.6559080" lon="2.0875240">
        <ele>496.2</ele>
        <time>2022-09-26T08:25:56Z</time>
      </trkpt>
      <trkpt lat="41.6559760" lon="2.0875550">
        <ele>495.0</ele>
        <time>2022-09-26T08:25:57Z</time>
      </trkpt>
      <trkpt lat="41.6560280" lon="2.0875870">
        <ele>494.6</ele>
        <time>2022-09-26T08:25:58Z</time>
      </trkpt>
      <trkpt lat="41.6560660" lon="2.0876300">
        <ele>494.2</ele>
        <time>2022-09-26T08:25:59Z</time>
      </trkpt>
      <trkpt lat="41.6560910" lon="2.0876870">
        <ele>494.0</ele>
        <time>2022-09-26T08:26:00Z</time>
      </trkpt>
      <trkpt lat="41.6561010" lon="2.0877580">
        <ele>493.8</ele>
        <time>2022-09-26T08:26:01Z</time>
      </trkpt>
      <trkpt lat="41.6561060" lon="2.0878310">
        <ele>493.6</ele>
        <time>2022-09-26T08:26:02Z</time>
      </trkpt>
      <trkpt lat="41.6561160" lon="2.0879010">
        <ele>493.2</ele>
        <time>2022-09-26T08:26:03Z</time>
      </trkpt>
      <trkpt lat="41.6561370" lon="2.0879650">
        <ele>493.0</ele>
        <time>2022-09-26T08:26:04Z</time>
      </trkpt>
      <trkpt lat="41.6561680" lon="2.0880220">
        <ele>492.8</ele>
        <time>2022-09-26T08:26:05Z</time>
      </trkpt>
      <trkpt lat="41.6562040" lon="2.0880750">
        <ele>492.6</ele>
        <time>2022-09-26T08:26:06Z</time>
      </trkpt>
      <trkpt lat="41.6562420" lon="2.0881280">
        <ele>492.4</ele>
        <time>2022-09-26T08:26:07Z</time>
      </trkpt>
      <trkpt lat="41.6562830" lon="2.0881780">
        <ele>492.2</ele>
        <time>2022-09-26T08:26:08Z</time>
      </trkpt>
      <trkpt lat="41.6563270" lon="2.0882240">
        <ele>492.0</ele>
        <time>2022-09-26T08:26:09Z</time>
      </trkpt>
      <trkpt lat="41.6563740" lon="2.0882630">
        <ele>492.0</ele>
        <time>2022-09-26T08:26:10Z</time>
      </trkpt>
      <trkpt lat="41.6564240" lon="2.0882960">
        <ele>491.8</ele>
        <time>2022-09-26T08:26:11Z</time>
      </trkpt>
      <trkpt lat="41.6564740" lon="2.0883220">
        <ele>491.6</ele>
        <time>2022-09-26T08:26:12Z</time>
      </trkpt>
      <trkpt lat="41.6565250" lon="2.0883470">
        <ele>491.6</ele>
        <time>2022-09-26T08:26:13Z</time>
      </trkpt>
      <trkpt lat="41.6565750" lon="2.0883760">
        <ele>491.6</ele>
        <time>2022-09-26T08:26:14Z</time>
      </trkpt>
      <trkpt lat="41.6566240" lon="2.0884090">
        <ele>491.6</ele>
        <time>2022-09-26T08:26:15Z</time>
      </trkpt>
      <trkpt lat="41.6566740" lon="2.0884510">
        <ele>491.6</ele>
        <time>2022-09-26T08:26:16Z</time>
      </trkpt>
      <trkpt lat="41.6567230" lon="2.0884960">
        <ele>491.6</ele>
        <time>2022-09-26T08:26:17Z</time>
      </trkpt>
      <trkpt lat="41.6567720" lon="2.0885400">
        <ele>491.4</ele>
        <time>2022-09-26T08:26:18Z</time>
      </trkpt>
      <trkpt lat="41.6568220" lon="2.0885810">
        <ele>491.4</ele>
        <time>2022-09-26T08:26:19Z</time>
      </trkpt>
      <trkpt lat="41.6568710" lon="2.0886210">
        <ele>491.2</ele>
        <time>2022-09-26T08:26:20Z</time>
      </trkpt>
      <trkpt lat="41.6569170" lon="2.0886620">
        <ele>491.0</ele>
        <time>2022-09-26T08:26:21Z</time>
      </trkpt>
      <trkpt lat="41.6569620" lon="2.0887090">
        <ele>490.6</ele>
        <time>2022-09-26T08:26:22Z</time>
      </trkpt>
      <trkpt lat="41.6570040" lon="2.0887600">
        <ele>490.6</ele>
        <time>2022-09-26T08:26:23Z</time>
      </trkpt>
      <trkpt lat="41.6570460" lon="2.0888110">
        <ele>490.6</ele>
        <time>2022-09-26T08:26:24Z</time>
      </trkpt>
      <trkpt lat="41.6570870" lon="2.0888590">
        <ele>490.6</ele>
        <time>2022-09-26T08:26:25Z</time>
      </trkpt>
      <trkpt lat="41.6571350" lon="2.0888950">
        <ele>490.6</ele>
        <time>2022-09-26T08:26:26Z</time>
      </trkpt>
      <trkpt lat="41.6571910" lon="2.0889130">
        <ele>490.6</ele>
        <time>2022-09-26T08:26:27Z</time>
      </trkpt>
      <trkpt lat="41.6572540" lon="2.0889080">
        <ele>490.4</ele>
        <time>2022-09-26T08:26:28Z</time>
      </trkpt>
      <trkpt lat="41.6573160" lon="2.0888890">
        <ele>490.0</ele>
        <time>2022-09-26T08:26:29Z</time>
      </trkpt>
      <trkpt lat="41.6573730" lon="2.0888590">
        <ele>489.8</ele>
        <time>2022-09-26T08:26:30Z</time>
      </trkpt>
      <trkpt lat="41.6574290" lon="2.0888220">
        <ele>489.6</ele>
        <time>2022-09-26T08:26:31Z</time>
      </trkpt>
      <trkpt lat="41.6574870" lon="2.0887770">
        <ele>489.4</ele>
        <time>2022-09-26T08:26:32Z</time>
      </trkpt>
      <trkpt lat="41.6575470" lon="2.0887280">
        <ele>489.2</ele>
        <time>2022-09-26T08:26:33Z</time>
      </trkpt>
      <trkpt lat="41.6576060" lon="2.0886690">
        <ele>489.0</ele>
        <time>2022-09-26T08:26:34Z</time>
      </trkpt>
      <trkpt lat="41.6576650" lon="2.0886060">
        <ele>488.6</ele>
        <time>2022-09-26T08:26:35Z</time>
      </trkpt>
      <trkpt lat="41.6577230" lon="2.0885370">
        <ele>488.4</ele>
        <time>2022-09-26T08:26:36Z</time>
      </trkpt>
      <trkpt lat="41.6577770" lon="2.0884650">
        <ele>487.8</ele>
        <time>2022-09-26T08:26:37Z</time>
      </trkpt>
      <trkpt lat="41.6578330" lon="2.0883950">
        <ele>487.2</ele>
        <time>2022-09-26T08:26:38Z</time>
      </trkpt>
      <trkpt lat="41.6578940" lon="2.0883310">
        <ele>486.8</ele>
        <time>2022-09-26T08:26:39Z</time>
      </trkpt>
      <trkpt lat="41.6579560" lon="2.0882770">
        <ele>486.4</ele>
        <time>2022-09-26T08:26:40Z</time>
      </trkpt>
      <trkpt lat="41.6580200" lon="2.0882320">
        <ele>486.0</ele>
        <time>2022-09-26T08:26:41Z</time>
      </trkpt>
      <trkpt lat="41.6580840" lon="2.0882060">
        <ele>485.4</ele>
        <time>2022-09-26T08:26:42Z</time>
      </trkpt>
      <trkpt lat="41.6581510" lon="2.0881960">
        <ele>485.0</ele>
        <time>2022-09-26T08:26:43Z</time>
      </trkpt>
      <trkpt lat="41.6582190" lon="2.0881770">
        <ele>484.6</ele>
        <time>2022-09-26T08:26:44Z</time>
      </trkpt>
      <trkpt lat="41.6582860" lon="2.0881410">
        <ele>484.2</ele>
        <time>2022-09-26T08:26:45Z</time>
      </trkpt>
      <trkpt lat="41.6583500" lon="2.0881000">
        <ele>484.0</ele>
        <time>2022-09-26T08:26:46Z</time>
      </trkpt>
      <trkpt lat="41.6584140" lon="2.0880590">
        <ele>483.8</ele>
        <time>2022-09-26T08:26:47Z</time>
      </trkpt>
      <trkpt lat="41.6584770" lon="2.0880180">
        <ele>483.6</ele>
        <time>2022-09-26T08:26:48Z</time>
      </trkpt>
      <trkpt lat="41.6585350" lon="2.0879770">
        <ele>483.2</ele>
        <time>2022-09-26T08:26:49Z</time>
      </trkpt>
      <trkpt lat="41.6585930" lon="2.0879390">
        <ele>483.2</ele>
        <time>2022-09-26T08:26:50Z</time>
      </trkpt>
      <trkpt lat="41.6586510" lon="2.0879080">
        <ele>483.0</ele>
        <time>2022-09-26T08:26:51Z</time>
      </trkpt>
      <trkpt lat="41.6587110" lon="2.0878790">
        <ele>483.0</ele>
        <time>2022-09-26T08:26:52Z</time>
      </trkpt>
      <trkpt lat="41.6587690" lon="2.0878520">
        <ele>483.0</ele>
        <time>2022-09-26T08:26:53Z</time>
      </trkpt>
      <trkpt lat="41.6588260" lon="2.0878220">
        <ele>483.2</ele>
        <time>2022-09-26T08:26:54Z</time>
      </trkpt>
      <trkpt lat="41.6588810" lon="2.0877850">
        <ele>483.2</ele>
        <time>2022-09-26T08:26:55Z</time>
      </trkpt>
      <trkpt lat="41.6589350" lon="2.0877490">
        <ele>483.2</ele>
        <time>2022-09-26T08:26:56Z</time>
      </trkpt>
      <trkpt lat="41.6589870" lon="2.0877210">
        <ele>483.2</ele>
        <time>2022-09-26T08:26:57Z</time>
      </trkpt>
      <trkpt lat="41.6590390" lon="2.0877040">
        <ele>483.4</ele>
        <time>2022-09-26T08:26:58Z</time>
      </trkpt>
      <trkpt lat="41.6590910" lon="2.0877010">
        <ele>483.4</ele>
        <time>2022-09-26T08:26:59Z</time>
      </trkpt>
      <trkpt lat="41.6591400" lon="2.0877090">
        <ele>483.4</ele>
        <time>2022-09-26T08:27:00Z</time>
      </trkpt>
      <trkpt lat="41.6591830" lon="2.0877280">
        <ele>483.2</ele>
        <time>2022-09-26T08:27:01Z</time>
      </trkpt>
      <trkpt lat="41.6592240" lon="2.0877590">
        <ele>483.0</ele>
        <time>2022-09-26T08:27:02Z</time>
      </trkpt>
      <trkpt lat="41.6592680" lon="2.0877970">
        <ele>483.0</ele>
        <time>2022-09-26T08:27:03Z</time>
      </trkpt>
      <trkpt lat="41.6593150" lon="2.0878350">
        <ele>483.0</ele>
        <time>2022-09-26T08:27:04Z</time>
      </trkpt>
      <trkpt lat="41.6593690" lon="2.0878680">
        <ele>483.0</ele>
        <time>2022-09-26T08:27:05Z</time>
      </trkpt>
      <trkpt lat="41.6594240" lon="2.0878950">
        <ele>483.0</ele>
        <time>2022-09-26T08:27:06Z</time>
      </trkpt>
      <trkpt lat="41.6594820" lon="2.0879080">
        <ele>483.0</ele>
        <time>2022-09-26T08:27:07Z</time>
      </trkpt>
      <trkpt lat="41.6595430" lon="2.0879070">
        <ele>483.0</ele>
        <time>2022-09-26T08:27:08Z</time>
      </trkpt>
      <trkpt lat="41.6596010" lon="2.0879010">
        <ele>483.0</ele>
        <time>2022-09-26T08:27:09Z</time>
      </trkpt>
      <trkpt lat="41.6596580" lon="2.0878840">
        <ele>482.8</ele>
        <time>2022-09-26T08:27:10Z</time>
      </trkpt>
      <trkpt lat="41.6597080" lon="2.0878580">
        <ele>482.8</ele>
        <time>2022-09-26T08:27:11Z</time>
      </trkpt>
      <trkpt lat="41.6597610" lon="2.0878210">
        <ele>482.6</ele>
        <time>2022-09-26T08:27:12Z</time>
      </trkpt>
      <trkpt lat="41.6598140" lon="2.0877840">
        <ele>482.4</ele>
        <time>2022-09-26T08:27:13Z</time>
      </trkpt>
      <trkpt lat="41.6598630" lon="2.0877370">
        <ele>482.2</ele>
        <time>2022-09-26T08:27:14Z</time>
      </trkpt>
      <trkpt lat="41.6599050" lon="2.0876750">
        <ele>482.0</ele>
        <time>2022-09-26T08:27:15Z</time>
      </trkpt>
      <trkpt lat="41.6599440" lon="2.0876050">
        <ele>481.6</ele>
        <time>2022-09-26T08:27:16Z</time>
      </trkpt>
      <trkpt lat="41.6599830" lon="2.0875270">
        <ele>481.2</ele>
        <time>2022-09-26T08:27:17Z</time>
      </trkpt>
      <trkpt lat="41.6600300" lon="2.0874520">
        <ele>481.0</ele>
        <time>2022-09-26T08:27:18Z</time>
      </trkpt>
      <trkpt lat="41.6600790" lon="2.0874020">
        <ele>480.8</ele>
        <time>2022-09-26T08:27:19Z</time>
      </trkpt>
      <trkpt lat="41.6601310" lon="2.0873730">
        <ele>480.8</ele>
        <time>2022-09-26T08:27:20Z</time>
      </trkpt>
      <trkpt lat="41.6601820" lon="2.0873650">
        <ele>480.6</ele>
        <time>2022-09-26T08:27:21Z</time>
      </trkpt>
      <trkpt lat="41.6602310" lon="2.0873730">
        <ele>480.8</ele>
        <time>2022-09-26T08:27:22Z</time>
      </trkpt>
      <trkpt lat="41.6602760" lon="2.0873910">
        <ele>481.0</ele>
        <time>2022-09-26T08:27:23Z</time>
      </trkpt>
      <trkpt lat="41.6603180" lon="2.0874120">
        <ele>481.0</ele>
        <time>2022-09-26T08:27:24Z</time>
      </trkpt>
      <trkpt lat="41.6603590" lon="2.0874350">
        <ele>481.2</ele>
        <time>2022-09-26T08:27:25Z</time>
      </trkpt>
      <trkpt lat="41.6603980" lon="2.0874570">
        <ele>481.6</ele>
        <time>2022-09-26T08:27:26Z</time>
      </trkpt>
      <trkpt lat="41.6604390" lon="2.0874780">
        <ele>481.8</ele>
        <time>2022-09-26T08:27:27Z</time>
      </trkpt>
      <trkpt lat="41.6604830" lon="2.0874940">
        <ele>482.0</ele>
        <time>2022-09-26T08:27:28Z</time>
      </trkpt>
      <trkpt lat="41.6605300" lon="2.0875010">
        <ele>482.2</ele>
        <time>2022-09-26T08:27:29Z</time>
      </trkpt>
      <trkpt lat="41.6605780" lon="2.0874980">
        <ele>482.2</ele>
        <time>2022-09-26T08:27:30Z</time>
      </trkpt>
      <trkpt lat="41.6606260" lon="2.0874890">
        <ele>482.2</ele>
        <time>2022-09-26T08:27:31Z</time>
      </trkpt>
      <trkpt lat="41.6606760" lon="2.0874770">
        <ele>482.0</ele>
        <time>2022-09-26T08:27:32Z</time>
      </trkpt>
      <trkpt lat="41.6607290" lon="2.0874600">
        <ele>481.8</ele>
        <time>2022-09-26T08:27:33Z</time>
      </trkpt>
      <trkpt lat="41.6607820" lon="2.0874420">
        <ele>481.4</ele>
        <time>2022-09-26T08:27:34Z</time>
      </trkpt>
      <trkpt lat="41.6608390" lon="2.0874230">
        <ele>481.2</ele>
        <time>2022-09-26T08:27:35Z</time>
      </trkpt>
      <trkpt lat="41.6608960" lon="2.0874050">
        <ele>480.8</ele>
        <time>2022-09-26T08:27:36Z</time>
      </trkpt>
      <trkpt lat="41.6609560" lon="2.0873900">
        <ele>480.4</ele>
        <time>2022-09-26T08:27:37Z</time>
      </trkpt>
      <trkpt lat="41.6610150" lon="2.0873790">
        <ele>480.0</ele>
        <time>2022-09-26T08:27:38Z</time>
      </trkpt>
      <trkpt lat="41.6610750" lon="2.0873740">
        <ele>479.6</ele>
        <time>2022-09-26T08:27:39Z</time>
      </trkpt>
      <trkpt lat="41.6611330" lon="2.0873720">
        <ele>479.4</ele>
        <time>2022-09-26T08:27:40Z</time>
      </trkpt>
      <trkpt lat="41.6611860" lon="2.0873740">
        <ele>479.2</ele>
        <time>2022-09-26T08:27:41Z</time>
      </trkpt>
      <trkpt lat="41.6612350" lon="2.0873880">
        <ele>479.0</ele>
        <time>2022-09-26T08:27:42Z</time>
      </trkpt>
      <trkpt lat="41.6612830" lon="2.0874150">
        <ele>479.0</ele>
        <time>2022-09-26T08:27:43Z</time>
      </trkpt>
      <trkpt lat="41.6613280" lon="2.0874500">
        <ele>479.0</ele>
        <time>2022-09-26T08:27:44Z</time>
      </trkpt>
      <trkpt lat="41.6613710" lon="2.0874930">
        <ele>479.0</ele>
        <time>2022-09-26T08:27:45Z</time>
      </trkpt>
      <trkpt lat="41.6614130" lon="2.0875420">
        <ele>478.8</ele>
        <time>2022-09-26T08:27:46Z</time>
      </trkpt>
      <trkpt lat="41.6614530" lon="2.0875920">
        <ele>478.6</ele>
        <time>2022-09-26T08:27:47Z</time>
      </trkpt>
      <trkpt lat="41.6614920" lon="2.0876450">
        <ele>478.6</ele>
        <time>2022-09-26T08:27:48Z</time>
      </trkpt>
      <trkpt lat="41.6615290" lon="2.0877030">
        <ele>478.6</ele>
        <time>2022-09-26T08:27:49Z</time>
      </trkpt>
      <trkpt lat="41.6615620" lon="2.0877660">
        <ele>478.4</ele>
        <time>2022-09-26T08:27:50Z</time>
      </trkpt>
      <trkpt lat="41.6616050" lon="2.0878180">
        <ele>478.4</ele>
        <time>2022-09-26T08:27:51Z</time>
      </trkpt>
      <trkpt lat="41.6616600" lon="2.0878520">
        <ele>478.2</ele>
        <time>2022-09-26T08:27:52Z</time>
      </trkpt>
      <trkpt lat="41.6617240" lon="2.0878710">
        <ele>478.0</ele>
        <time>2022-09-26T08:27:53Z</time>
      </trkpt>
      <trkpt lat="41.6617950" lon="2.0878740">
        <ele>477.4</ele>
        <time>2022-09-26T08:27:54Z</time>
      </trkpt>
      <trkpt lat="41.6618690" lon="2.0878630">
        <ele>476.8</ele>
        <time>2022-09-26T08:27:55Z</time>
      </trkpt>
      <trkpt lat="41.6619440" lon="2.0878420">
        <ele>476.2</ele>
        <time>2022-09-26T08:27:56Z</time>
      </trkpt>
      <trkpt lat="41.6620920" lon="2.0877570">
        <ele>474.6</ele>
        <time>2022-09-26T08:27:58Z</time>
      </trkpt>
      <trkpt lat="41.6621620" lon="2.0877100">
        <ele>474.2</ele>
        <time>2022-09-26T08:27:59Z</time>
      </trkpt>
      <trkpt lat="41.6622240" lon="2.0876800">
        <ele>474.0</ele>
        <time>2022-09-26T08:28:00Z</time>
      </trkpt>
      <trkpt lat="41.6622800" lon="2.0876750">
        <ele>473.8</ele>
        <time>2022-09-26T08:28:01Z</time>
      </trkpt>
      <trkpt lat="41.6623310" lon="2.0876940">
        <ele>473.6</ele>
        <time>2022-09-26T08:28:02Z</time>
      </trkpt>
      <trkpt lat="41.6623730" lon="2.0877400">
        <ele>473.4</ele>
        <time>2022-09-26T08:28:03Z</time>
      </trkpt>
      <trkpt lat="41.6624060" lon="2.0877990">
        <ele>473.4</ele>
        <time>2022-09-26T08:28:04Z</time>
      </trkpt>
      <trkpt lat="41.6624350" lon="2.0878610">
        <ele>473.2</ele>
        <time>2022-09-26T08:28:05Z</time>
      </trkpt>
      <trkpt lat="41.6624690" lon="2.0879200">
        <ele>473.2</ele>
        <time>2022-09-26T08:28:06Z</time>
      </trkpt>
      <trkpt lat="41.6625110" lon="2.0879710">
        <ele>473.0</ele>
        <time>2022-09-26T08:28:07Z</time>
      </trkpt>
      <trkpt lat="41.6625590" lon="2.0880090">
        <ele>473.0</ele>
        <time>2022-09-26T08:28:08Z</time>
      </trkpt>
      <trkpt lat="41.6626120" lon="2.0880310">
        <ele>472.8</ele>
        <time>2022-09-26T08:28:09Z</time>
      </trkpt>
      <trkpt lat="41.6626660" lon="2.0880360">
        <ele>472.8</ele>
        <time>2022-09-26T08:28:10Z</time>
      </trkpt>
      <trkpt lat="41.6627200" lon="2.0880190">
        <ele>472.6</ele>
        <time>2022-09-26T08:28:11Z</time>
      </trkpt>
      <trkpt lat="41.6627640" lon="2.0879770">
        <ele>472.2</ele>
        <time>2022-09-26T08:28:12Z</time>
      </trkpt>
      <trkpt lat="41.6627940" lon="2.0879190">
        <ele>472.2</ele>
        <time>2022-09-26T08:28:13Z</time>
      </trkpt>
      <trkpt lat="41.6628080" lon="2.0878610">
        <ele>472.0</ele>
        <time>2022-09-26T08:28:14Z</time>
      </trkpt>
      <trkpt lat="41.6628170" lon="2.0877940">
        <ele>471.8</ele>
        <time>2022-09-26T08:28:15Z</time>
      </trkpt>
      <trkpt lat="41.6628290" lon="2.0877240">
        <ele>471.8</ele>
        <time>2022-09-26T08:28:16Z</time>
      </trkpt>
      <trkpt lat="41.6628480" lon="2.0876530">
        <ele>471.6</ele>
        <time>2022-09-26T08:28:17Z</time>
      </trkpt>
      <trkpt lat="41.6628730" lon="2.0875890">
        <ele>471.4</ele>
        <time>2022-09-26T08:28:18Z</time>
      </trkpt>
      <trkpt lat="41.6629100" lon="2.0875300">
        <ele>471.2</ele>
        <time>2022-09-26T08:28:19Z</time>
      </trkpt>
      <trkpt lat="41.6629570" lon="2.0874790">
        <ele>471.2</ele>
        <time>2022-09-26T08:28:20Z</time>
      </trkpt>
      <trkpt lat="41.6630050" lon="2.0874370">
        <ele>471.0</ele>
        <time>2022-09-26T08:28:21Z</time>
      </trkpt>
      <trkpt lat="41.6630570" lon="2.0873950">
        <ele>470.4</ele>
        <time>2022-09-26T08:28:22Z</time>
      </trkpt>
      <trkpt lat="41.6631100" lon="2.0873490">
        <ele>470.0</ele>
        <time>2022-09-26T08:28:23Z</time>
      </trkpt>
      <trkpt lat="41.6631610" lon="2.0873010">
        <ele>469.8</ele>
        <time>2022-09-26T08:28:24Z</time>
      </trkpt>
      <trkpt lat="41.6632150" lon="2.0872410">
        <ele>469.6</ele>
        <time>2022-09-26T08:28:25Z</time>
      </trkpt>
      <trkpt lat="41.6632660" lon="2.0871820">
        <ele>469.4</ele>
        <time>2022-09-26T08:28:26Z</time>
      </trkpt>
      <trkpt lat="41.6633190" lon="2.0871290">
        <ele>469.2</ele>
        <time>2022-09-26T08:28:27Z</time>
      </trkpt>
      <trkpt lat="41.6633760" lon="2.0870800">
        <ele>468.8</ele>
        <time>2022-09-26T08:28:28Z</time>
      </trkpt>
      <trkpt lat="41.6634340" lon="2.0870340">
        <ele>468.6</ele>
        <time>2022-09-26T08:28:29Z</time>
      </trkpt>
      <trkpt lat="41.6634920" lon="2.0869900">
        <ele>468.4</ele>
        <time>2022-09-26T08:28:30Z</time>
      </trkpt>
      <trkpt lat="41.6635500" lon="2.0869490">
        <ele>468.2</ele>
        <time>2022-09-26T08:28:31Z</time>
      </trkpt>
      <trkpt lat="41.6636100" lon="2.0869050">
        <ele>467.8</ele>
        <time>2022-09-26T08:28:32Z</time>
      </trkpt>
      <trkpt lat="41.6636660" lon="2.0868510">
        <ele>467.4</ele>
        <time>2022-09-26T08:28:33Z</time>
      </trkpt>
      <trkpt lat="41.6637150" lon="2.0867860">
        <ele>467.0</ele>
        <time>2022-09-26T08:28:34Z</time>
      </trkpt>
      <trkpt lat="41.6637540" lon="2.0867230">
        <ele>466.8</ele>
        <time>2022-09-26T08:28:35Z</time>
      </trkpt>
      <trkpt lat="41.6637860" lon="2.0866460">
        <ele>466.6</ele>
        <time>2022-09-26T08:28:36Z</time>
      </trkpt>
      <trkpt lat="41.6638070" lon="2.0865610">
        <ele>466.4</ele>
        <time>2022-09-26T08:28:37Z</time>
      </trkpt>
      <trkpt lat="41.6638180" lon="2.0864710">
        <ele>466.2</ele>
        <time>2022-09-26T08:28:38Z</time>
      </trkpt>
      <trkpt lat="41.6638180" lon="2.0863740">
        <ele>465.8</ele>
        <time>2022-09-26T08:28:39Z</time>
      </trkpt>
      <trkpt lat="41.6638030" lon="2.0862760">
        <ele>465.0</ele>
        <time>2022-09-26T08:28:40Z</time>
      </trkpt>
      <trkpt lat="41.6637770" lon="2.0861840">
        <ele>464.4</ele>
        <time>2022-09-26T08:28:41Z</time>
      </trkpt>
      <trkpt lat="41.6637460" lon="2.0860880">
        <ele>464.0</ele>
        <time>2022-09-26T08:28:42Z</time>
      </trkpt>
      <trkpt lat="41.6637150" lon="2.0859880">
        <ele>463.6</ele>
        <time>2022-09-26T08:28:43Z</time>
      </trkpt>
      <trkpt lat="41.6636820" lon="2.0858830">
        <ele>462.8</ele>
        <time>2022-09-26T08:28:44Z</time>
      </trkpt>
      <trkpt lat="41.6636470" lon="2.0857790">
        <ele>461.8</ele>
        <time>2022-09-26T08:28:45Z</time>
      </trkpt>
      <trkpt lat="41.6636030" lon="2.0856760">
        <ele>461.2</ele>
        <time>2022-09-26T08:28:46Z</time>
      </trkpt>
      <trkpt lat="41.6635530" lon="2.0855740">
        <ele>460.4</ele>
        <time>2022-09-26T08:28:47Z</time>
      </trkpt>
      <trkpt lat="41.6635040" lon="2.0854730">
        <ele>459.8</ele>
        <time>2022-09-26T08:28:48Z</time>
      </trkpt>
      <trkpt lat="41.6634550" lon="2.0853760">
        <ele>459.4</ele>
        <time>2022-09-26T08:28:49Z</time>
      </trkpt>
      <trkpt lat="41.6634130" lon="2.0852770">
        <ele>459.2</ele>
        <time>2022-09-26T08:28:50Z</time>
      </trkpt>
      <trkpt lat="41.6633840" lon="2.0851740">
        <ele>459.2</ele>
        <time>2022-09-26T08:28:51Z</time>
      </trkpt>
      <trkpt lat="41.6633680" lon="2.0850740">
        <ele>459.2</ele>
        <time>2022-09-26T08:28:52Z</time>
      </trkpt>
      <trkpt lat="41.6633610" lon="2.0849810">
        <ele>459.2</ele>
        <time>2022-09-26T08:28:53Z</time>
      </trkpt>
      <trkpt lat="41.6633680" lon="2.0848960">
        <ele>459.4</ele>
        <time>2022-09-26T08:28:54Z</time>
      </trkpt>
      <trkpt lat="41.6633860" lon="2.0848240">
        <ele>459.8</ele>
        <time>2022-09-26T08:28:55Z</time>
      </trkpt>
      <trkpt lat="41.6634180" lon="2.0847670">
        <ele>459.8</ele>
        <time>2022-09-26T08:28:56Z</time>
      </trkpt>
      <trkpt lat="41.6634600" lon="2.0847240">
        <ele>460.0</ele>
        <time>2022-09-26T08:28:57Z</time>
      </trkpt>
      <trkpt lat="41.6635120" lon="2.0846950">
        <ele>460.0</ele>
        <time>2022-09-26T08:28:58Z</time>
      </trkpt>
      <trkpt lat="41.6635680" lon="2.0846780">
        <ele>459.8</ele>
        <time>2022-09-26T08:28:59Z</time>
      </trkpt>
      <trkpt lat="41.6636260" lon="2.0846700">
        <ele>459.6</ele>
        <time>2022-09-26T08:29:00Z</time>
      </trkpt>
      <trkpt lat="41.6636880" lon="2.0846730">
        <ele>459.2</ele>
        <time>2022-09-26T08:29:01Z</time>
      </trkpt>
      <trkpt lat="41.6637500" lon="2.0846820">
        <ele>458.8</ele>
        <time>2022-09-26T08:29:02Z</time>
      </trkpt>
      <trkpt lat="41.6638090" lon="2.0847000">
        <ele>458.4</ele>
        <time>2022-09-26T08:29:03Z</time>
      </trkpt>
      <trkpt lat="41.6638660" lon="2.0847200">
        <ele>458.4</ele>
        <time>2022-09-26T08:29:04Z</time>
      </trkpt>
      <trkpt lat="41.6639230" lon="2.0847460">
        <ele>458.0</ele>
        <time>2022-09-26T08:29:05Z</time>
      </trkpt>
      <trkpt lat="41.6639820" lon="2.0847770">
        <ele>457.8</ele>
        <time>2022-09-26T08:29:06Z</time>
      </trkpt>
      <trkpt lat="41.6640420" lon="2.0848130">
        <ele>457.4</ele>
        <time>2022-09-26T08:29:07Z</time>
      </trkpt>
      <trkpt lat="41.6641020" lon="2.0848440">
        <ele>457.0</ele>
        <time>2022-09-26T08:29:08Z</time>
      </trkpt>
      <trkpt lat="41.6641670" lon="2.0848630">
        <ele>456.8</ele>
        <time>2022-09-26T08:29:09Z</time>
      </trkpt>
      <trkpt lat="41.6642350" lon="2.0848630">
        <ele>456.6</ele>
        <time>2022-09-26T08:29:10Z</time>
      </trkpt>
      <trkpt lat="41.6642990" lon="2.0848420">
        <ele>456.4</ele>
        <time>2022-09-26T08:29:11Z</time>
      </trkpt>
      <trkpt lat="41.6643560" lon="2.0848020">
        <ele>456.4</ele>
        <time>2022-09-26T08:29:12Z</time>
      </trkpt>
      <trkpt lat="41.6644040" lon="2.0847500">
        <ele>456.2</ele>
        <time>2022-09-26T08:29:13Z</time>
      </trkpt>
      <trkpt lat="41.6644460" lon="2.0846960">
        <ele>456.2</ele>
        <time>2022-09-26T08:29:14Z</time>
      </trkpt>
      <trkpt lat="41.6644920" lon="2.0846490">
        <ele>456.2</ele>
        <time>2022-09-26T08:29:15Z</time>
      </trkpt>
      <trkpt lat="41.6645380" lon="2.0846180">
        <ele>456.2</ele>
        <time>2022-09-26T08:29:16Z</time>
      </trkpt>
      <trkpt lat="41.6645810" lon="2.0846090">
        <ele>456.4</ele>
        <time>2022-09-26T08:29:17Z</time>
      </trkpt>
      <trkpt lat="41.6646260" lon="2.0846170">
        <ele>456.2</ele>
        <time>2022-09-26T08:29:18Z</time>
      </trkpt>
      <trkpt lat="41.6646700" lon="2.0846390">
        <ele>456.2</ele>
        <time>2022-09-26T08:29:19Z</time>
      </trkpt>
      <trkpt lat="41.6647150" lon="2.0846700">
        <ele>455.8</ele>
        <time>2022-09-26T08:29:20Z</time>
      </trkpt>
      <trkpt lat="41.6647610" lon="2.0847050">
        <ele>455.6</ele>
        <time>2022-09-26T08:29:21Z</time>
      </trkpt>
      <trkpt lat="41.6648140" lon="2.0847420">
        <ele>455.0</ele>
        <time>2022-09-26T08:29:22Z</time>
      </trkpt>
      <trkpt lat="41.6648760" lon="2.0847670">
        <ele>454.4</ele>
        <time>2022-09-26T08:29:23Z</time>
      </trkpt>
      <trkpt lat="41.6649460" lon="2.0847630">
        <ele>453.8</ele>
        <time>2022-09-26T08:29:24Z</time>
      </trkpt>
      <trkpt lat="41.6650140" lon="2.0847370">
        <ele>453.2</ele>
        <time>2022-09-26T08:29:25Z</time>
      </trkpt>
      <trkpt lat="41.6650520" lon="2.0846760">
        <ele>452.0</ele>
        <time>2022-09-26T08:29:26Z</time>
      </trkpt>
      <trkpt lat="41.6650760" lon="2.0845980">
        <ele>451.2</ele>
        <time>2022-09-26T08:29:27Z</time>
      </trkpt>
      <trkpt lat="41.6650880" lon="2.0845140">
        <ele>451.0</ele>
        <time>2022-09-26T08:29:28Z</time>
      </trkpt>
      <trkpt lat="41.6650910" lon="2.0844340">
        <ele>450.8</ele>
        <time>2022-09-26T08:29:29Z</time>
      </trkpt>
      <trkpt lat="41.6650870" lon="2.0843550">
        <ele>450.8</ele>
        <time>2022-09-26T08:29:30Z</time>
      </trkpt>
      <trkpt lat="41.6650800" lon="2.0842790">
        <ele>451.0</ele>
        <time>2022-09-26T08:29:31Z</time>
      </trkpt>
      <trkpt lat="41.6650740" lon="2.0842060">
        <ele>451.0</ele>
        <time>2022-09-26T08:29:32Z</time>
      </trkpt>
      <trkpt lat="41.6650700" lon="2.0841400">
        <ele>451.4</ele>
        <time>2022-09-26T08:29:33Z</time>
      </trkpt>
      <trkpt lat="41.6650700" lon="2.0840790">
        <ele>451.8</ele>
        <time>2022-09-26T08:29:34Z</time>
      </trkpt>
      <trkpt lat="41.6650720" lon="2.0840240">
        <ele>452.2</ele>
        <time>2022-09-26T08:29:35Z</time>
      </trkpt>
      <trkpt lat="41.6650740" lon="2.0839750">
        <ele>452.4</ele>
        <time>2022-09-26T08:29:36Z</time>
      </trkpt>
      <trkpt lat="41.6650740" lon="2.0839260">
        <ele>453.0</ele>
        <time>2022-09-26T08:29:37Z</time>
      </trkpt>
      <trkpt lat="41.6650750" lon="2.0838820">
        <ele>453.2</ele>
        <time>2022-09-26T08:29:38Z</time>
      </trkpt>
      <trkpt lat="41.6650800" lon="2.0838380">
        <ele>453.6</ele>
        <time>2022-09-26T08:29:39Z</time>
      </trkpt>
      <trkpt lat="41.6650860" lon="2.0837960">
        <ele>453.8</ele>
        <time>2022-09-26T08:29:40Z</time>
      </trkpt>
      <trkpt lat="41.6650940" lon="2.0837530">
        <ele>453.8</ele>
        <time>2022-09-26T08:29:41Z</time>
      </trkpt>
      <trkpt lat="41.6651040" lon="2.0837100">
        <ele>454.4</ele>
        <time>2022-09-26T08:29:42Z</time>
      </trkpt>
      <trkpt lat="41.6651150" lon="2.0836680">
        <ele>454.8</ele>
        <time>2022-09-26T08:29:43Z</time>
      </trkpt>
      <trkpt lat="41.6651310" lon="2.0836290">
        <ele>455.0</ele>
        <time>2022-09-26T08:29:44Z</time>
      </trkpt>
      <trkpt lat="41.6651480" lon="2.0835960">
        <ele>455.6</ele>
        <time>2022-09-26T08:29:45Z</time>
      </trkpt>
      <trkpt lat="41.6651670" lon="2.0835660">
        <ele>455.8</ele>
        <time>2022-09-26T08:29:46Z</time>
      </trkpt>
      <trkpt lat="41.6651870" lon="2.0835370">
        <ele>455.8</ele>
        <time>2022-09-26T08:29:47Z</time>
      </trkpt>
      <trkpt lat="41.6652090" lon="2.0835090">
        <ele>456.0</ele>
        <time>2022-09-26T08:29:48Z</time>
      </trkpt>
      <trkpt lat="41.6652330" lon="2.0834800">
        <ele>456.2</ele>
        <time>2022-09-26T08:29:49Z</time>
      </trkpt>
      <trkpt lat="41.6652590" lon="2.0834510">
        <ele>456.4</ele>
        <time>2022-09-26T08:29:50Z</time>
      </trkpt>
      <trkpt lat="41.6652850" lon="2.0834210">
        <ele>456.4</ele>
        <time>2022-09-26T08:29:51Z</time>
      </trkpt>
      <trkpt lat="41.6653110" lon="2.0833880">
        <ele>456.6</ele>
        <time>2022-09-26T08:29:52Z</time>
      </trkpt>
      <trkpt lat="41.6653350" lon="2.0833520">
        <ele>456.6</ele>
        <time>2022-09-26T08:29:53Z</time>
      </trkpt>
      <trkpt lat="41.6653530" lon="2.0833110">
        <ele>456.4</ele>
        <time>2022-09-26T08:29:54Z</time>
      </trkpt>
      <trkpt lat="41.6653660" lon="2.0832640">
        <ele>456.2</ele>
        <time>2022-09-26T08:29:55Z</time>
      </trkpt>
      <trkpt lat="41.6653780" lon="2.0832140">
        <ele>456.2</ele>
        <time>2022-09-26T08:29:56Z</time>
      </trkpt>
      <trkpt lat="41.6653850" lon="2.0831620">
        <ele>455.8</ele>
        <time>2022-09-26T08:29:57Z</time>
      </trkpt>
      <trkpt lat="41.6653870" lon="2.0831100">
        <ele>455.6</ele>
        <time>2022-09-26T08:29:58Z</time>
      </trkpt>
      <trkpt lat="41.6653840" lon="2.0830600">
        <ele>455.4</ele>
        <time>2022-09-26T08:29:59Z</time>
      </trkpt>
      <trkpt lat="41.6653710" lon="2.0830100">
        <ele>455.2</ele>
        <time>2022-09-26T08:30:00Z</time>
      </trkpt>
      <trkpt lat="41.6653560" lon="2.0829610">
        <ele>455.0</ele>
        <time>2022-09-26T08:30:01Z</time>
      </trkpt>
      <trkpt lat="41.6653280" lon="2.0829140">
        <ele>454.8</ele>
        <time>2022-09-26T08:30:02Z</time>
      </trkpt>
      <trkpt lat="41.6652950" lon="2.0828770">
        <ele>454.8</ele>
        <time>2022-09-26T08:30:03Z</time>
      </trkpt>
      <trkpt lat="41.6652590" lon="2.0828430">
        <ele>454.6</ele>
        <time>2022-09-26T08:30:04Z</time>
      </trkpt>
      <trkpt lat="41.6652220" lon="2.0828050">
        <ele>454.4</ele>
        <time>2022-09-26T08:30:05Z</time>
      </trkpt>
      <trkpt lat="41.6651830" lon="2.0827650">
        <ele>454.2</ele>
        <time>2022-09-26T08:30:06Z</time>
      </trkpt>
      <trkpt lat="41.6651460" lon="2.0827190">
        <ele>453.8</ele>
        <time>2022-09-26T08:30:07Z</time>
      </trkpt>
      <trkpt lat="41.6651100" lon="2.0826670">
        <ele>453.4</ele>
        <time>2022-09-26T08:30:08Z</time>
      </trkpt>
      <trkpt lat="41.6650780" lon="2.0826070">
        <ele>453.0</ele>
        <time>2022-09-26T08:30:09Z</time>
      </trkpt>
      <trkpt lat="41.6650480" lon="2.0825490">
        <ele>452.8</ele>
        <time>2022-09-26T08:30:10Z</time>
      </trkpt>
      <trkpt lat="41.6650320" lon="2.0824910">
        <ele>452.6</ele>
        <time>2022-09-26T08:30:11Z</time>
      </trkpt>
      <trkpt lat="41.6650300" lon="2.0824360">
        <ele>452.4</ele>
        <time>2022-09-26T08:30:12Z</time>
      </trkpt>
      <trkpt lat="41.6650430" lon="2.0823870">
        <ele>452.2</ele>
        <time>2022-09-26T08:30:13Z</time>
      </trkpt>
      <trkpt lat="41.6650700" lon="2.0823470">
        <ele>452.0</ele>
        <time>2022-09-26T08:30:14Z</time>
      </trkpt>
      <trkpt lat="41.6651050" lon="2.0823240">
        <ele>452.0</ele>
        <time>2022-09-26T08:30:15Z</time>
      </trkpt>
      <trkpt lat="41.6651410" lon="2.0823190">
        <ele>452.0</ele>
        <time>2022-09-26T08:30:16Z</time>
      </trkpt>
      <trkpt lat="41.6651810" lon="2.0823230">
        <ele>451.8</ele>
        <time>2022-09-26T08:30:17Z</time>
      </trkpt>
      <trkpt lat="41.6652240" lon="2.0823340">
        <ele>451.8</ele>
        <time>2022-09-26T08:30:18Z</time>
      </trkpt>
      <trkpt lat="41.6652680" lon="2.0823490">
        <ele>451.6</ele>
        <time>2022-09-26T08:30:19Z</time>
      </trkpt>
      <trkpt lat="41.6653180" lon="2.0823570">
        <ele>451.6</ele>
        <time>2022-09-26T08:30:20Z</time>
      </trkpt>
      <trkpt lat="41.6653690" lon="2.0823600">
        <ele>451.4</ele>
        <time>2022-09-26T08:30:21Z</time>
      </trkpt>
      <trkpt lat="41.6654230" lon="2.0823480">
        <ele>451.0</ele>
        <time>2022-09-26T08:30:22Z</time>
      </trkpt>
      <trkpt lat="41.6654750" lon="2.0823270">
        <ele>450.8</ele>
        <time>2022-09-26T08:30:23Z</time>
      </trkpt>
      <trkpt lat="41.6655230" lon="2.0822930">
        <ele>450.6</ele>
        <time>2022-09-26T08:30:24Z</time>
      </trkpt>
      <trkpt lat="41.6655670" lon="2.0822460">
        <ele>450.6</ele>
        <time>2022-09-26T08:30:25Z</time>
      </trkpt>
      <trkpt lat="41.6656040" lon="2.0821890">
        <ele>450.4</ele>
        <time>2022-09-26T08:30:26Z</time>
      </trkpt>
      <trkpt lat="41.6656330" lon="2.0821250">
        <ele>450.2</ele>
        <time>2022-09-26T08:30:27Z</time>
      </trkpt>
      <trkpt lat="41.6656500" lon="2.0820520">
        <ele>449.8</ele>
        <time>2022-09-26T08:30:28Z</time>
      </trkpt>
      <trkpt lat="41.6656470" lon="2.0819750">
        <ele>449.6</ele>
        <time>2022-09-26T08:30:29Z</time>
      </trkpt>
      <trkpt lat="41.6656190" lon="2.0819030">
        <ele>449.4</ele>
        <time>2022-09-26T08:30:30Z</time>
      </trkpt>
      <trkpt lat="41.6655820" lon="2.0818370">
        <ele>449.4</ele>
        <time>2022-09-26T08:30:31Z</time>
      </trkpt>
      <trkpt lat="41.6655380" lon="2.0817830">
        <ele>449.2</ele>
        <time>2022-09-26T08:30:32Z</time>
      </trkpt>
      <trkpt lat="41.6654930" lon="2.0817300">
        <ele>449.2</ele>
        <time>2022-09-26T08:30:33Z</time>
      </trkpt>
      <trkpt lat="41.6654480" lon="2.0816710">
        <ele>449.0</ele>
        <time>2022-09-26T08:30:34Z</time>
      </trkpt>
      <trkpt lat="41.6654020" lon="2.0816090">
        <ele>448.8</ele>
        <time>2022-09-26T08:30:35Z</time>
      </trkpt>
      <trkpt lat="41.6653590" lon="2.0815420">
        <ele>448.6</ele>
        <time>2022-09-26T08:30:36Z</time>
      </trkpt>
      <trkpt lat="41.6653170" lon="2.0814710">
        <ele>448.2</ele>
        <time>2022-09-26T08:30:37Z</time>
      </trkpt>
      <trkpt lat="41.6652720" lon="2.0813990">
        <ele>447.8</ele>
        <time>2022-09-26T08:30:38Z</time>
      </trkpt>
      <trkpt lat="41.6652220" lon="2.0813280">
        <ele>447.4</ele>
        <time>2022-09-26T08:30:39Z</time>
      </trkpt>
      <trkpt lat="41.6651750" lon="2.0812630">
        <ele>447.2</ele>
        <time>2022-09-26T08:30:40Z</time>
      </trkpt>
      <trkpt lat="41.6651410" lon="2.0811930">
        <ele>447.0</ele>
        <time>2022-09-26T08:30:41Z</time>
      </trkpt>
      <trkpt lat="41.6651190" lon="2.0811170">
        <ele>447.0</ele>
        <time>2022-09-26T08:30:42Z</time>
      </trkpt>
      <trkpt lat="41.6651160" lon="2.0810430">
        <ele>446.8</ele>
        <time>2022-09-26T08:30:43Z</time>
      </trkpt>
      <trkpt lat="41.6651300" lon="2.0809770">
        <ele>446.6</ele>
        <time>2022-09-26T08:30:44Z</time>
      </trkpt>
      <trkpt lat="41.6651600" lon="2.0809270">
        <ele>446.4</ele>
        <time>2022-09-26T08:30:45Z</time>
      </trkpt>
      <trkpt lat="41.6652030" lon="2.0808800">
        <ele>446.2</ele>
        <time>2022-09-26T08:30:46Z</time>
      </trkpt>
      <trkpt lat="41.6652520" lon="2.0808300">
        <ele>445.8</ele>
        <time>2022-09-26T08:30:47Z</time>
      </trkpt>
      <trkpt lat="41.6653100" lon="2.0807750">
        <ele>445.4</ele>
        <time>2022-09-26T08:30:48Z</time>
      </trkpt>
      <trkpt lat="41.6653710" lon="2.0807160">
        <ele>444.6</ele>
        <time>2022-09-26T08:30:49Z</time>
      </trkpt>
      <trkpt lat="41.6654340" lon="2.0806520">
        <ele>444.2</ele>
        <time>2022-09-26T08:30:50Z</time>
      </trkpt>
      <trkpt lat="41.6654900" lon="2.0805850">
        <ele>443.8</ele>
        <time>2022-09-26T08:30:51Z</time>
      </trkpt>
      <trkpt lat="41.6655360" lon="2.0805120">
        <ele>443.6</ele>
        <time>2022-09-26T08:30:52Z</time>
      </trkpt>
      <trkpt lat="41.6655640" lon="2.0804340">
        <ele>443.6</ele>
        <time>2022-09-26T08:30:53Z</time>
      </trkpt>
      <trkpt lat="41.6655780" lon="2.0803530">
        <ele>443.8</ele>
        <time>2022-09-26T08:30:54Z</time>
      </trkpt>
      <trkpt lat="41.6655780" lon="2.0802800">
        <ele>444.2</ele>
        <time>2022-09-26T08:30:55Z</time>
      </trkpt>
      <trkpt lat="41.6655650" lon="2.0802200">
        <ele>444.6</ele>
        <time>2022-09-26T08:30:56Z</time>
      </trkpt>
      <trkpt lat="41.6655490" lon="2.0801670">
        <ele>445.2</ele>
        <time>2022-09-26T08:30:57Z</time>
      </trkpt>
      <trkpt lat="41.6655320" lon="2.0801200">
        <ele>445.8</ele>
        <time>2022-09-26T08:30:58Z</time>
      </trkpt>
      <trkpt lat="41.6655140" lon="2.0800790">
        <ele>446.2</ele>
        <time>2022-09-26T08:30:59Z</time>
      </trkpt>
      <trkpt lat="41.6654930" lon="2.0800420">
        <ele>446.6</ele>
        <time>2022-09-26T08:31:00Z</time>
      </trkpt>
      <trkpt lat="41.6654690" lon="2.0800030">
        <ele>446.8</ele>
        <time>2022-09-26T08:31:01Z</time>
      </trkpt>
      <trkpt lat="41.6654440" lon="2.0799640">
        <ele>447.2</ele>
        <time>2022-09-26T08:31:02Z</time>
      </trkpt>
      <trkpt lat="41.6654130" lon="2.0799280">
        <ele>447.4</ele>
        <time>2022-09-26T08:31:03Z</time>
      </trkpt>
      <trkpt lat="41.6653800" lon="2.0798970">
        <ele>447.8</ele>
        <time>2022-09-26T08:31:04Z</time>
      </trkpt>
      <trkpt lat="41.6653430" lon="2.0798660">
        <ele>448.0</ele>
        <time>2022-09-26T08:31:05Z</time>
      </trkpt>
      <trkpt lat="41.6653000" lon="2.0798410">
        <ele>448.4</ele>
        <time>2022-09-26T08:31:06Z</time>
      </trkpt>
      <trkpt lat="41.6652630" lon="2.0798150">
        <ele>448.4</ele>
        <time>2022-09-26T08:31:07Z</time>
      </trkpt>
      <trkpt lat="41.6652210" lon="2.0797920">
        <ele>448.8</ele>
        <time>2022-09-26T08:31:08Z</time>
      </trkpt>
      <trkpt lat="41.6651860" lon="2.0797710">
        <ele>449.0</ele>
        <time>2022-09-26T08:31:09Z</time>
      </trkpt>
      <trkpt lat="41.6651500" lon="2.0797480">
        <ele>449.2</ele>
        <time>2022-09-26T08:31:10Z</time>
      </trkpt>
      <trkpt lat="41.6651170" lon="2.0797230">
        <ele>449.4</ele>
        <time>2022-09-26T08:31:11Z</time>
      </trkpt>
      <trkpt lat="41.6650920" lon="2.0796960">
        <ele>449.6</ele>
        <time>2022-09-26T08:31:12Z</time>
      </trkpt>
      <trkpt lat="41.6650680" lon="2.0796650">
        <ele>450.0</ele>
        <time>2022-09-26T08:31:13Z</time>
      </trkpt>
      <trkpt lat="41.6650430" lon="2.0796370">
        <ele>450.0</ele>
        <time>2022-09-26T08:31:14Z</time>
      </trkpt>
      <trkpt lat="41.6650160" lon="2.0796100">
        <ele>450.0</ele>
        <time>2022-09-26T08:31:15Z</time>
      </trkpt>
      <trkpt lat="41.6649950" lon="2.0795740">
        <ele>450.2</ele>
        <time>2022-09-26T08:31:16Z</time>
      </trkpt>
      <trkpt lat="41.6649790" lon="2.0795360">
        <ele>450.2</ele>
        <time>2022-09-26T08:31:17Z</time>
      </trkpt>
      <trkpt lat="41.6649650" lon="2.0794950">
        <ele>450.0</ele>
        <time>2022-09-26T08:31:18Z</time>
      </trkpt>
      <trkpt lat="41.6649530" lon="2.0794500">
        <ele>450.0</ele>
        <time>2022-09-26T08:31:19Z</time>
      </trkpt>
      <trkpt lat="41.6649410" lon="2.0794010">
        <ele>449.8</ele>
        <time>2022-09-26T08:31:20Z</time>
      </trkpt>
      <trkpt lat="41.6649310" lon="2.0793470">
        <ele>449.6</ele>
        <time>2022-09-26T08:31:21Z</time>
      </trkpt>
      <trkpt lat="41.6649240" lon="2.0792870">
        <ele>449.2</ele>
        <time>2022-09-26T08:31:22Z</time>
      </trkpt>
      <trkpt lat="41.6649220" lon="2.0792220">
        <ele>449.0</ele>
        <time>2022-09-26T08:31:23Z</time>
      </trkpt>
      <trkpt lat="41.6649190" lon="2.0791590">
        <ele>448.6</ele>
        <time>2022-09-26T08:31:24Z</time>
      </trkpt>
      <trkpt lat="41.6649220" lon="2.0790930">
        <ele>448.4</ele>
        <time>2022-09-26T08:31:25Z</time>
      </trkpt>
      <trkpt lat="41.6649320" lon="2.0790200">
        <ele>447.8</ele>
        <time>2022-09-26T08:31:26Z</time>
      </trkpt>
      <trkpt lat="41.6649360" lon="2.0789480">
        <ele>447.6</ele>
        <time>2022-09-26T08:31:27Z</time>
      </trkpt>
      <trkpt lat="41.6649370" lon="2.0788680">
        <ele>447.4</ele>
        <time>2022-09-26T08:31:28Z</time>
      </trkpt>
      <trkpt lat="41.6649340" lon="2.0787820">
        <ele>447.0</ele>
        <time>2022-09-26T08:31:29Z</time>
      </trkpt>
      <trkpt lat="41.6649260" lon="2.0786920">
        <ele>446.6</ele>
        <time>2022-09-26T08:31:30Z</time>
      </trkpt>
      <trkpt lat="41.6649150" lon="2.0786000">
        <ele>446.2</ele>
        <time>2022-09-26T08:31:31Z</time>
      </trkpt>
      <trkpt lat="41.6648980" lon="2.0785040">
        <ele>445.6</ele>
        <time>2022-09-26T08:31:32Z</time>
      </trkpt>
      <trkpt lat="41.6648810" lon="2.0784080">
        <ele>445.2</ele>
        <time>2022-09-26T08:31:33Z</time>
      </trkpt>
      <trkpt lat="41.6648680" lon="2.0783090">
        <ele>444.4</ele>
        <time>2022-09-26T08:31:34Z</time>
      </trkpt>
      <trkpt lat="41.6648570" lon="2.0782070">
        <ele>444.0</ele>
        <time>2022-09-26T08:31:35Z</time>
      </trkpt>
      <trkpt lat="41.6648490" lon="2.0781040">
        <ele>443.2</ele>
        <time>2022-09-26T08:31:36Z</time>
      </trkpt>
      <trkpt lat="41.6648420" lon="2.0780000">
        <ele>442.8</ele>
        <time>2022-09-26T08:31:37Z</time>
      </trkpt>
      <trkpt lat="41.6648370" lon="2.0778950">
        <ele>442.4</ele>
        <time>2022-09-26T08:31:38Z</time>
      </trkpt>
      <trkpt lat="41.6648290" lon="2.0777920">
        <ele>442.0</ele>
        <time>2022-09-26T08:31:39Z</time>
      </trkpt>
      <trkpt lat="41.6648110" lon="2.0776920">
        <ele>441.8</ele>
        <time>2022-09-26T08:31:40Z</time>
      </trkpt>
      <trkpt lat="41.6647830" lon="2.0776000">
        <ele>441.6</ele>
        <time>2022-09-26T08:31:41Z</time>
      </trkpt>
      <trkpt lat="41.6647500" lon="2.0775170">
        <ele>441.4</ele>
        <time>2022-09-26T08:31:42Z</time>
      </trkpt>
      <trkpt lat="41.6647250" lon="2.0774490">
        <ele>441.6</ele>
        <time>2022-09-26T08:31:43Z</time>
      </trkpt>
      <trkpt lat="41.6647120" lon="2.0773980">
        <ele>441.6</ele>
        <time>2022-09-26T08:31:44Z</time>
      </trkpt>
      <trkpt lat="41.6647240" lon="2.0773590">
        <ele>442.8</ele>
        <time>2022-09-26T08:31:46Z</time>
      </trkpt>
      <trkpt lat="41.6647280" lon="2.0773550">
        <ele>443.2</ele>
        <time>2022-09-26T08:31:47Z</time>
      </trkpt>
      <trkpt lat="41.6647300" lon="2.0773530">
        <ele>443.6</ele>
        <time>2022-09-26T08:31:48Z</time>
      </trkpt>
      <trkpt lat="41.6647280" lon="2.0773510">
        <ele>443.8</ele>
        <time>2022-09-26T08:31:49Z</time>
      </trkpt>
      <trkpt lat="41.6647820" lon="2.0773120">
        <ele>445.2</ele>
        <time>2022-09-26T08:32:13Z</time>
      </trkpt>
      <trkpt lat="41.6647940" lon="2.0773080">
        <ele>445.6</ele>
        <time>2022-09-26T08:32:14Z</time>
      </trkpt>
      <trkpt lat="41.6648020" lon="2.0772990">
        <ele>445.8</ele>
        <time>2022-09-26T08:32:15Z</time>
      </trkpt>
      <trkpt lat="41.6648160" lon="2.0772940">
        <ele>446.0</ele>
        <time>2022-09-26T08:32:16Z</time>
      </trkpt>
      <trkpt lat="41.6648520" lon="2.0772870">
        <ele>446.4</ele>
        <time>2022-09-26T08:32:18Z</time>
      </trkpt>
      <trkpt lat="41.6648710" lon="2.0772870">
        <ele>446.6</ele>
        <time>2022-09-26T08:32:19Z</time>
      </trkpt>
      <trkpt lat="41.6648900" lon="2.0772860">
        <ele>446.8</ele>
        <time>2022-09-26T08:32:20Z</time>
      </trkpt>
      <trkpt lat="41.6649260" lon="2.0772960">
        <ele>447.0</ele>
        <time>2022-09-26T08:32:22Z</time>
      </trkpt>
      <trkpt lat="41.6649500" lon="2.0773010">
        <ele>447.2</ele>
        <time>2022-09-26T08:32:23Z</time>
      </trkpt>
      <trkpt lat="41.6649760" lon="2.0773050">
        <ele>447.4</ele>
        <time>2022-09-26T08:32:24Z</time>
      </trkpt>
      <trkpt lat="41.6650000" lon="2.0773030">
        <ele>447.4</ele>
        <time>2022-09-26T08:32:25Z</time>
      </trkpt>
      <trkpt lat="41.6650210" lon="2.0773010">
        <ele>447.6</ele>
        <time>2022-09-26T08:32:26Z</time>
      </trkpt>
      <trkpt lat="41.6650620" lon="2.0773030">
        <ele>448.2</ele>
        <time>2022-09-26T08:32:28Z</time>
      </trkpt>
      <trkpt lat="41.6650820" lon="2.0773150">
        <ele>448.8</ele>
        <time>2022-09-26T08:32:29Z</time>
      </trkpt>
      <trkpt lat="41.6650990" lon="2.0773180">
        <ele>449.4</ele>
        <time>2022-09-26T08:32:30Z</time>
      </trkpt>
      <trkpt lat="41.6651140" lon="2.0773240">
        <ele>449.6</ele>
        <time>2022-09-26T08:32:31Z</time>
      </trkpt>
      <trkpt lat="41.6651300" lon="2.0773310">
        <ele>449.8</ele>
        <time>2022-09-26T08:32:32Z</time>
      </trkpt>
      <trkpt lat="41.6651470" lon="2.0773350">
        <ele>450.0</ele>
        <time>2022-09-26T08:32:33Z</time>
      </trkpt>
      <trkpt lat="41.6651630" lon="2.0773380">
        <ele>450.2</ele>
        <time>2022-09-26T08:32:34Z</time>
      </trkpt>
      <trkpt lat="41.6651840" lon="2.0773430">
        <ele>450.6</ele>
        <time>2022-09-26T08:32:35Z</time>
      </trkpt>
      <trkpt lat="41.6652030" lon="2.0773520">
        <ele>450.6</ele>
        <time>2022-09-26T08:32:36Z</time>
      </trkpt>
      <trkpt lat="41.6652230" lon="2.0773610">
        <ele>450.6</ele>
        <time>2022-09-26T08:32:37Z</time>
      </trkpt>
      <trkpt lat="41.6652490" lon="2.0773730">
        <ele>450.8</ele>
        <time>2022-09-26T08:32:38Z</time>
      </trkpt>
      <trkpt lat="41.6653150" lon="2.0774130">
        <ele>450.6</ele>
        <time>2022-09-26T08:32:40Z</time>
      </trkpt>
      <trkpt lat="41.6654130" lon="2.0774820">
        <ele>449.8</ele>
        <time>2022-09-26T08:32:42Z</time>
      </trkpt>
      <trkpt lat="41.6654750" lon="2.0775280">
        <ele>448.6</ele>
        <time>2022-09-26T08:32:43Z</time>
      </trkpt>
      <trkpt lat="41.6655420" lon="2.0775660">
        <ele>447.2</ele>
        <time>2022-09-26T08:32:44Z</time>
      </trkpt>
      <trkpt lat="41.6656690" lon="2.0776000">
        <ele>445.0</ele>
        <time>2022-09-26T08:32:46Z</time>
      </trkpt>
      <trkpt lat="41.6657220" lon="2.0775810">
        <ele>444.4</ele>
        <time>2022-09-26T08:32:47Z</time>
      </trkpt>
      <trkpt lat="41.6657740" lon="2.0775460">
        <ele>444.0</ele>
        <time>2022-09-26T08:32:48Z</time>
      </trkpt>
      <trkpt lat="41.6658300" lon="2.0775020">
        <ele>443.8</ele>
        <time>2022-09-26T08:32:49Z</time>
      </trkpt>
      <trkpt lat="41.6658890" lon="2.0774640">
        <ele>443.2</ele>
        <time>2022-09-26T08:32:50Z</time>
      </trkpt>
      <trkpt lat="41.6659500" lon="2.0774270">
        <ele>442.0</ele>
        <time>2022-09-26T08:32:51Z</time>
      </trkpt>
      <trkpt lat="41.6660080" lon="2.0773860">
        <ele>441.2</ele>
        <time>2022-09-26T08:32:52Z</time>
      </trkpt>
      <trkpt lat="41.6660590" lon="2.0773440">
        <ele>440.2</ele>
        <time>2022-09-26T08:32:53Z</time>
      </trkpt>
      <trkpt lat="41.6660980" lon="2.0773090">
        <ele>439.0</ele>
        <time>2022-09-26T08:32:54Z</time>
      </trkpt>
      <trkpt lat="41.6661240" lon="2.0772720">
        <ele>438.2</ele>
        <time>2022-09-26T08:32:55Z</time>
      </trkpt>
      <trkpt lat="41.6661400" lon="2.0772300">
        <ele>437.8</ele>
        <time>2022-09-26T08:32:56Z</time>
      </trkpt>
      <trkpt lat="41.6661410" lon="2.0771860">
        <ele>437.4</ele>
        <time>2022-09-26T08:32:57Z</time>
      </trkpt>
      <trkpt lat="41.6661250" lon="2.0771510">
        <ele>437.2</ele>
        <time>2022-09-26T08:32:58Z</time>
      </trkpt>
      <trkpt lat="41.6660570" lon="2.0771150">
        <ele>436.6</ele>
        <time>2022-09-26T08:33:00Z</time>
      </trkpt>
      <trkpt lat="41.6660140" lon="2.0771170">
        <ele>436.2</ele>
        <time>2022-09-26T08:33:01Z</time>
      </trkpt>
      <trkpt lat="41.6659690" lon="2.0771210">
        <ele>435.8</ele>
        <time>2022-09-26T08:33:02Z</time>
      </trkpt>
      <trkpt lat="41.6659210" lon="2.0771210">
        <ele>435.4</ele>
        <time>2022-09-26T08:33:03Z</time>
      </trkpt>
      <trkpt lat="41.6658680" lon="2.0771140">
        <ele>435.2</ele>
        <time>2022-09-26T08:33:04Z</time>
      </trkpt>
      <trkpt lat="41.6657730" lon="2.0770600">
        <ele>435.0</ele>
        <time>2022-09-26T08:33:06Z</time>
      </trkpt>
      <trkpt lat="41.6657430" lon="2.0770140">
        <ele>434.8</ele>
        <time>2022-09-26T08:33:07Z</time>
      </trkpt>
      <trkpt lat="41.6657350" lon="2.0769620">
        <ele>434.8</ele>
        <time>2022-09-26T08:33:08Z</time>
      </trkpt>
      <trkpt lat="41.6657490" lon="2.0769020">
        <ele>434.8</ele>
        <time>2022-09-26T08:33:09Z</time>
      </trkpt>
      <trkpt lat="41.6657710" lon="2.0768410">
        <ele>434.6</ele>
        <time>2022-09-26T08:33:10Z</time>
      </trkpt>
      <trkpt lat="41.6657960" lon="2.0767810">
        <ele>434.2</ele>
        <time>2022-09-26T08:33:11Z</time>
      </trkpt>
      <trkpt lat="41.6658210" lon="2.0767110">
        <ele>434.0</ele>
        <time>2022-09-26T08:33:12Z</time>
      </trkpt>
      <trkpt lat="41.6658440" lon="2.0766380">
        <ele>433.6</ele>
        <time>2022-09-26T08:33:13Z</time>
      </trkpt>
      <trkpt lat="41.6658640" lon="2.0765620">
        <ele>433.2</ele>
        <time>2022-09-26T08:33:14Z</time>
      </trkpt>
      <trkpt lat="41.6658740" lon="2.0764890">
        <ele>433.0</ele>
        <time>2022-09-26T08:33:15Z</time>
      </trkpt>
      <trkpt lat="41.6658780" lon="2.0764170">
        <ele>432.6</ele>
        <time>2022-09-26T08:33:16Z</time>
      </trkpt>
      <trkpt lat="41.6658770" lon="2.0762700">
        <ele>432.2</ele>
        <time>2022-09-26T08:33:18Z</time>
      </trkpt>
      <trkpt lat="41.6658910" lon="2.0762060">
        <ele>432.0</ele>
        <time>2022-09-26T08:33:19Z</time>
      </trkpt>
      <trkpt lat="41.6659180" lon="2.0761560">
        <ele>431.6</ele>
        <time>2022-09-26T08:33:20Z</time>
      </trkpt>
      <trkpt lat="41.6659550" lon="2.0761280">
        <ele>431.2</ele>
        <time>2022-09-26T08:33:21Z</time>
      </trkpt>
      <trkpt lat="41.6660010" lon="2.0761090">
        <ele>430.8</ele>
        <time>2022-09-26T08:33:22Z</time>
      </trkpt>
      <trkpt lat="41.6660500" lon="2.0760880">
        <ele>430.4</ele>
        <time>2022-09-26T08:33:23Z</time>
      </trkpt>
      <trkpt lat="41.6660990" lon="2.0760670">
        <ele>430.2</ele>
        <time>2022-09-26T08:33:24Z</time>
      </trkpt>
      <trkpt lat="41.6661500" lon="2.0760580">
        <ele>429.8</ele>
        <time>2022-09-26T08:33:25Z</time>
      </trkpt>
      <trkpt lat="41.6662030" lon="2.0760640">
        <ele>429.6</ele>
        <time>2022-09-26T08:33:26Z</time>
      </trkpt>
      <trkpt lat="41.6662620" lon="2.0760860">
        <ele>429.4</ele>
        <time>2022-09-26T08:33:27Z</time>
      </trkpt>
      <trkpt lat="41.6663200" lon="2.0761130">
        <ele>429.2</ele>
        <time>2022-09-26T08:33:28Z</time>
      </trkpt>
      <trkpt lat="41.6663780" lon="2.0761380">
        <ele>429.0</ele>
        <time>2022-09-26T08:33:29Z</time>
      </trkpt>
      <trkpt lat="41.6664360" lon="2.0761570">
        <ele>428.8</ele>
        <time>2022-09-26T08:33:30Z</time>
      </trkpt>
      <trkpt lat="41.6664910" lon="2.0761720">
        <ele>428.8</ele>
        <time>2022-09-26T08:33:31Z</time>
      </trkpt>
      <trkpt lat="41.6665430" lon="2.0761840">
        <ele>428.8</ele>
        <time>2022-09-26T08:33:32Z</time>
      </trkpt>
      <trkpt lat="41.6666020" lon="2.0761960">
        <ele>428.8</ele>
        <time>2022-09-26T08:33:33Z</time>
      </trkpt>
      <trkpt lat="41.6666590" lon="2.0761950">
        <ele>428.6</ele>
        <time>2022-09-26T08:33:34Z</time>
      </trkpt>
      <trkpt lat="41.6667150" lon="2.0761830">
        <ele>428.4</ele>
        <time>2022-09-26T08:33:35Z</time>
      </trkpt>
      <trkpt lat="41.6667760" lon="2.0761690">
        <ele>427.8</ele>
        <time>2022-09-26T08:33:36Z</time>
      </trkpt>
      <trkpt lat="41.6668390" lon="2.0761580">
        <ele>427.2</ele>
        <time>2022-09-26T08:33:37Z</time>
      </trkpt>
      <trkpt lat="41.6669080" lon="2.0761520">
        <ele>426.8</ele>
        <time>2022-09-26T08:33:38Z</time>
      </trkpt>
      <trkpt lat="41.6669830" lon="2.0761420">
        <ele>426.4</ele>
        <time>2022-09-26T08:33:39Z</time>
      </trkpt>
      <trkpt lat="41.6670510" lon="2.0761170">
        <ele>425.6</ele>
        <time>2022-09-26T08:33:40Z</time>
      </trkpt>
      <trkpt lat="41.6671130" lon="2.0760700">
        <ele>425.2</ele>
        <time>2022-09-26T08:33:41Z</time>
      </trkpt>
      <trkpt lat="41.6671730" lon="2.0760110">
        <ele>424.4</ele>
        <time>2022-09-26T08:33:42Z</time>
      </trkpt>
      <trkpt lat="41.6672240" lon="2.0759500">
        <ele>423.8</ele>
        <time>2022-09-26T08:33:43Z</time>
      </trkpt>
      <trkpt lat="41.6672680" lon="2.0758870">
        <ele>423.6</ele>
        <time>2022-09-26T08:33:44Z</time>
      </trkpt>
      <trkpt lat="41.6673040" lon="2.0758180">
        <ele>423.4</ele>
        <time>2022-09-26T08:33:45Z</time>
      </trkpt>
      <trkpt lat="41.6673390" lon="2.0757450">
        <ele>423.4</ele>
        <time>2022-09-26T08:33:46Z</time>
      </trkpt>
      <trkpt lat="41.6674140" lon="2.0755980">
        <ele>423.4</ele>
        <time>2022-09-26T08:33:48Z</time>
      </trkpt>
      <trkpt lat="41.6674540" lon="2.0755260">
        <ele>423.4</ele>
        <time>2022-09-26T08:33:49Z</time>
      </trkpt>
      <trkpt lat="41.6675010" lon="2.0754550">
        <ele>423.2</ele>
        <time>2022-09-26T08:33:50Z</time>
      </trkpt>
      <trkpt lat="41.6675550" lon="2.0753860">
        <ele>422.6</ele>
        <time>2022-09-26T08:33:51Z</time>
      </trkpt>
      <trkpt lat="41.6676030" lon="2.0753260">
        <ele>422.0</ele>
        <time>2022-09-26T08:33:52Z</time>
      </trkpt>
      <trkpt lat="41.6676530" lon="2.0752820">
        <ele>421.6</ele>
        <time>2022-09-26T08:33:53Z</time>
      </trkpt>
      <trkpt lat="41.6677050" lon="2.0752610">
        <ele>421.2</ele>
        <time>2022-09-26T08:33:54Z</time>
      </trkpt>
      <trkpt lat="41.6677670" lon="2.0752650">
        <ele>420.8</ele>
        <time>2022-09-26T08:33:55Z</time>
      </trkpt>
      <trkpt lat="41.6678340" lon="2.0752740">
        <ele>420.0</ele>
        <time>2022-09-26T08:33:56Z</time>
      </trkpt>
      <trkpt lat="41.6679040" lon="2.0752720">
        <ele>419.0</ele>
        <time>2022-09-26T08:33:57Z</time>
      </trkpt>
      <trkpt lat="41.6679660" lon="2.0752580">
        <ele>418.2</ele>
        <time>2022-09-26T08:33:58Z</time>
      </trkpt>
      <trkpt lat="41.6680180" lon="2.0752320">
        <ele>417.4</ele>
        <time>2022-09-26T08:33:59Z</time>
      </trkpt>
      <trkpt lat="41.6680640" lon="2.0751920">
        <ele>416.8</ele>
        <time>2022-09-26T08:34:00Z</time>
      </trkpt>
      <trkpt lat="41.6681040" lon="2.0751410">
        <ele>416.4</ele>
        <time>2022-09-26T08:34:01Z</time>
      </trkpt>
      <trkpt lat="41.6681340" lon="2.0750040">
        <ele>415.8</ele>
        <time>2022-09-26T08:34:03Z</time>
      </trkpt>
      <trkpt lat="41.6681230" lon="2.0749250">
        <ele>415.6</ele>
        <time>2022-09-26T08:34:04Z</time>
      </trkpt>
      <trkpt lat="41.6681010" lon="2.0748480">
        <ele>415.2</ele>
        <time>2022-09-26T08:34:05Z</time>
      </trkpt>
      <trkpt lat="41.6680760" lon="2.0747700">
        <ele>414.8</ele>
        <time>2022-09-26T08:34:06Z</time>
      </trkpt>
      <trkpt lat="41.6680480" lon="2.0746900">
        <ele>414.4</ele>
        <time>2022-09-26T08:34:07Z</time>
      </trkpt>
      <trkpt lat="41.6680180" lon="2.0746050">
        <ele>414.2</ele>
        <time>2022-09-26T08:34:08Z</time>
      </trkpt>
      <trkpt lat="41.6679920" lon="2.0745140">
        <ele>413.8</ele>
        <time>2022-09-26T08:34:09Z</time>
      </trkpt>
      <trkpt lat="41.6679760" lon="2.0744140">
        <ele>413.4</ele>
        <time>2022-09-26T08:34:10Z</time>
      </trkpt>
      <trkpt lat="41.6679570" lon="2.0743180">
        <ele>412.4</ele>
        <time>2022-09-26T08:34:11Z</time>
      </trkpt>
      <trkpt lat="41.6679320" lon="2.0742310">
        <ele>411.6</ele>
        <time>2022-09-26T08:34:12Z</time>
      </trkpt>
      <trkpt lat="41.6678880" lon="2.0741660">
        <ele>411.0</ele>
        <time>2022-09-26T08:34:13Z</time>
      </trkpt>
      <trkpt lat="41.6677660" lon="2.0740630">
        <ele>410.2</ele>
        <time>2022-09-26T08:34:15Z</time>
      </trkpt>
      <trkpt lat="41.6677070" lon="2.0739970">
        <ele>409.8</ele>
        <time>2022-09-26T08:34:16Z</time>
      </trkpt>
      <trkpt lat="41.6676700" lon="2.0739100">
        <ele>409.2</ele>
        <time>2022-09-26T08:34:17Z</time>
      </trkpt>
      <trkpt lat="41.6676520" lon="2.0738130">
        <ele>409.0</ele>
        <time>2022-09-26T08:34:18Z</time>
      </trkpt>
      <trkpt lat="41.6676490" lon="2.0737170">
        <ele>408.8</ele>
        <time>2022-09-26T08:34:19Z</time>
      </trkpt>
      <trkpt lat="41.6676590" lon="2.0736270">
        <ele>408.8</ele>
        <time>2022-09-26T08:34:20Z</time>
      </trkpt>
      <trkpt lat="41.6676750" lon="2.0735400">
        <ele>408.8</ele>
        <time>2022-09-26T08:34:21Z</time>
      </trkpt>
      <trkpt lat="41.6676950" lon="2.0734600">
        <ele>408.6</ele>
        <time>2022-09-26T08:34:22Z</time>
      </trkpt>
      <trkpt lat="41.6677290" lon="2.0733790">
        <ele>408.6</ele>
        <time>2022-09-26T08:34:23Z</time>
      </trkpt>
      <trkpt lat="41.6677720" lon="2.0733040">
        <ele>408.4</ele>
        <time>2022-09-26T08:34:24Z</time>
      </trkpt>
      <trkpt lat="41.6678240" lon="2.0732400">
        <ele>408.2</ele>
        <time>2022-09-26T08:34:25Z</time>
      </trkpt>
      <trkpt lat="41.6678760" lon="2.0731800">
        <ele>407.8</ele>
        <time>2022-09-26T08:34:26Z</time>
      </trkpt>
      <trkpt lat="41.6679230" lon="2.0731160">
        <ele>407.6</ele>
        <time>2022-09-26T08:34:27Z</time>
      </trkpt>
      <trkpt lat="41.6679630" lon="2.0730450">
        <ele>407.4</ele>
        <time>2022-09-26T08:34:28Z</time>
      </trkpt>
      <trkpt lat="41.6680030" lon="2.0729630">
        <ele>407.0</ele>
        <time>2022-09-26T08:34:29Z</time>
      </trkpt>
      <trkpt lat="41.6680460" lon="2.0728770">
        <ele>406.4</ele>
        <time>2022-09-26T08:34:30Z</time>
      </trkpt>
      <trkpt lat="41.6680920" lon="2.0727920">
        <ele>405.4</ele>
        <time>2022-09-26T08:34:31Z</time>
      </trkpt>
      <trkpt lat="41.6681330" lon="2.0727110">
        <ele>404.4</ele>
        <time>2022-09-26T08:34:32Z</time>
      </trkpt>
      <trkpt lat="41.6681630" lon="2.0726310">
        <ele>403.8</ele>
        <time>2022-09-26T08:34:33Z</time>
      </trkpt>
      <trkpt lat="41.6681850" lon="2.0725390">
        <ele>403.2</ele>
        <time>2022-09-26T08:34:34Z</time>
      </trkpt>
      <trkpt lat="41.6682070" lon="2.0724410">
        <ele>401.8</ele>
        <time>2022-09-26T08:34:35Z</time>
      </trkpt>
      <trkpt lat="41.6682340" lon="2.0723390">
        <ele>400.8</ele>
        <time>2022-09-26T08:34:36Z</time>
      </trkpt>
      <trkpt lat="41.6682690" lon="2.0722380">
        <ele>400.4</ele>
        <time>2022-09-26T08:34:37Z</time>
      </trkpt>
      <trkpt lat="41.6683150" lon="2.0721420">
        <ele>399.2</ele>
        <time>2022-09-26T08:34:38Z</time>
      </trkpt>
      <trkpt lat="41.6683700" lon="2.0720560">
        <ele>398.4</ele>
        <time>2022-09-26T08:34:39Z</time>
      </trkpt>
      <trkpt lat="41.6684340" lon="2.0719660">
        <ele>397.8</ele>
        <time>2022-09-26T08:34:40Z</time>
      </trkpt>
      <trkpt lat="41.6685010" lon="2.0718720">
        <ele>396.6</ele>
        <time>2022-09-26T08:34:41Z</time>
      </trkpt>
      <trkpt lat="41.6685590" lon="2.0717770">
        <ele>395.8</ele>
        <time>2022-09-26T08:34:42Z</time>
      </trkpt>
      <trkpt lat="41.6686060" lon="2.0716800">
        <ele>394.6</ele>
        <time>2022-09-26T08:34:43Z</time>
      </trkpt>
      <trkpt lat="41.6686340" lon="2.0715770">
        <ele>393.8</ele>
        <time>2022-09-26T08:34:44Z</time>
      </trkpt>
      <trkpt lat="41.6686440" lon="2.0714710">
        <ele>393.4</ele>
        <time>2022-09-26T08:34:45Z</time>
      </trkpt>
      <trkpt lat="41.6686450" lon="2.0713630">
        <ele>392.6</ele>
        <time>2022-09-26T08:34:46Z</time>
      </trkpt>
      <trkpt lat="41.6686440" lon="2.0712490">
        <ele>392.0</ele>
        <time>2022-09-26T08:34:47Z</time>
      </trkpt>
      <trkpt lat="41.6686520" lon="2.0711370">
        <ele>391.4</ele>
        <time>2022-09-26T08:34:48Z</time>
      </trkpt>
      <trkpt lat="41.6686760" lon="2.0710370">
        <ele>391.2</ele>
        <time>2022-09-26T08:34:49Z</time>
      </trkpt>
      <trkpt lat="41.6687150" lon="2.0709560">
        <ele>390.8</ele>
        <time>2022-09-26T08:34:50Z</time>
      </trkpt>
      <trkpt lat="41.6687630" lon="2.0708940">
        <ele>390.6</ele>
        <time>2022-09-26T08:34:51Z</time>
      </trkpt>
      <trkpt lat="41.6688170" lon="2.0708530">
        <ele>390.4</ele>
        <time>2022-09-26T08:34:52Z</time>
      </trkpt>
      <trkpt lat="41.6688780" lon="2.0708320">
        <ele>390.2</ele>
        <time>2022-09-26T08:34:53Z</time>
      </trkpt>
      <trkpt lat="41.6689410" lon="2.0708240">
        <ele>390.0</ele>
        <time>2022-09-26T08:34:54Z</time>
      </trkpt>
      <trkpt lat="41.6690120" lon="2.0708130">
        <ele>389.8</ele>
        <time>2022-09-26T08:34:55Z</time>
      </trkpt>
      <trkpt lat="41.6691670" lon="2.0707800">
        <ele>388.2</ele>
        <time>2022-09-26T08:34:57Z</time>
      </trkpt>
      <trkpt lat="41.6692410" lon="2.0707750">
        <ele>387.8</ele>
        <time>2022-09-26T08:34:58Z</time>
      </trkpt>
      <trkpt lat="41.6693150" lon="2.0707760">
        <ele>387.4</ele>
        <time>2022-09-26T08:34:59Z</time>
      </trkpt>
      <trkpt lat="41.6693880" lon="2.0707720">
        <ele>387.2</ele>
        <time>2022-09-26T08:35:00Z</time>
      </trkpt>
      <trkpt lat="41.6694570" lon="2.0707600">
        <ele>387.4</ele>
        <time>2022-09-26T08:35:01Z</time>
      </trkpt>
      <trkpt lat="41.6695890" lon="2.0707250">
        <ele>387.2</ele>
        <time>2022-09-26T08:35:03Z</time>
      </trkpt>
      <trkpt lat="41.6696520" lon="2.0707090">
        <ele>387.2</ele>
        <time>2022-09-26T08:35:04Z</time>
      </trkpt>
      <trkpt lat="41.6697150" lon="2.0706950">
        <ele>387.2</ele>
        <time>2022-09-26T08:35:05Z</time>
      </trkpt>
      <trkpt lat="41.6697780" lon="2.0706790">
        <ele>387.2</ele>
        <time>2022-09-26T08:35:06Z</time>
      </trkpt>
      <trkpt lat="41.6698400" lon="2.0706640">
        <ele>387.2</ele>
        <time>2022-09-26T08:35:07Z</time>
      </trkpt>
      <trkpt lat="41.6699600" lon="2.0706350">
        <ele>387.2</ele>
        <time>2022-09-26T08:35:09Z</time>
      </trkpt>
      <trkpt lat="41.6700200" lon="2.0706240">
        <ele>387.6</ele>
        <time>2022-09-26T08:35:10Z</time>
      </trkpt>
      <trkpt lat="41.6700800" lon="2.0706180">
        <ele>387.8</ele>
        <time>2022-09-26T08:35:11Z</time>
      </trkpt>
      <trkpt lat="41.6701400" lon="2.0706060">
        <ele>387.8</ele>
        <time>2022-09-26T08:35:12Z</time>
      </trkpt>
      <trkpt lat="41.6701930" lon="2.0705740">
        <ele>387.8</ele>
        <time>2022-09-26T08:35:13Z</time>
      </trkpt>
      <trkpt lat="41.6702280" lon="2.0705180">
        <ele>387.8</ele>
        <time>2022-09-26T08:35:14Z</time>
      </trkpt>
      <trkpt lat="41.6702440" lon="2.0704520">
        <ele>387.8</ele>
        <time>2022-09-26T08:35:15Z</time>
      </trkpt>
      <trkpt lat="41.6702470" lon="2.0703830">
        <ele>387.8</ele>
        <time>2022-09-26T08:35:16Z</time>
      </trkpt>
      <trkpt lat="41.6702450" lon="2.0703160">
        <ele>387.8</ele>
        <time>2022-09-26T08:35:17Z</time>
      </trkpt>
      <trkpt lat="41.6702440" lon="2.0702500">
        <ele>388.0</ele>
        <time>2022-09-26T08:35:18Z</time>
      </trkpt>
      <trkpt lat="41.6702490" lon="2.0701840">
        <ele>388.0</ele>
        <time>2022-09-26T08:35:19Z</time>
      </trkpt>
      <trkpt lat="41.6702700" lon="2.0700580">
        <ele>388.0</ele>
        <time>2022-09-26T08:35:21Z</time>
      </trkpt>
      <trkpt lat="41.6702820" lon="2.0699990">
        <ele>388.0</ele>
        <time>2022-09-26T08:35:22Z</time>
      </trkpt>
      <trkpt lat="41.6702930" lon="2.0699410">
        <ele>388.0</ele>
        <time>2022-09-26T08:35:23Z</time>
      </trkpt>
      <trkpt lat="41.6703050" lon="2.0698860">
        <ele>388.0</ele>
        <time>2022-09-26T08:35:24Z</time>
      </trkpt>
      <trkpt lat="41.6703170" lon="2.0698350">
        <ele>388.0</ele>
        <time>2022-09-26T08:35:25Z</time>
      </trkpt>
      <trkpt lat="41.6703380" lon="2.0697330">
        <ele>388.2</ele>
        <time>2022-09-26T08:35:27Z</time>
      </trkpt>
      <trkpt lat="41.6703510" lon="2.0696800">
        <ele>388.4</ele>
        <time>2022-09-26T08:35:28Z</time>
      </trkpt>
      <trkpt lat="41.6703650" lon="2.0696280">
        <ele>388.4</ele>
        <time>2022-09-26T08:35:29Z</time>
      </trkpt>
      <trkpt lat="41.6703800" lon="2.0695760">
        <ele>388.4</ele>
        <time>2022-09-26T08:35:30Z</time>
      </trkpt>
      <trkpt lat="41.6703940" lon="2.0695260">
        <ele>388.4</ele>
        <time>2022-09-26T08:35:31Z</time>
      </trkpt>
      <trkpt lat="41.6704210" lon="2.0694300">
        <ele>388.6</ele>
        <time>2022-09-26T08:35:33Z</time>
      </trkpt>
      <trkpt lat="41.6704330" lon="2.0693850">
        <ele>389.0</ele>
        <time>2022-09-26T08:35:34Z</time>
      </trkpt>
      <trkpt lat="41.6704480" lon="2.0693420">
        <ele>389.2</ele>
        <time>2022-09-26T08:35:35Z</time>
      </trkpt>
      <trkpt lat="41.6704650" lon="2.0693000">
        <ele>389.4</ele>
        <time>2022-09-26T08:35:36Z</time>
      </trkpt>
      <trkpt lat="41.6704840" lon="2.0692630">
        <ele>389.4</ele>
        <time>2022-09-26T08:35:37Z</time>
      </trkpt>
      <trkpt lat="41.6705220" lon="2.0691970">
        <ele>389.6</ele>
        <time>2022-09-26T08:35:39Z</time>
      </trkpt>
      <trkpt lat="41.6705430" lon="2.0691620">
        <ele>389.6</ele>
        <time>2022-09-26T08:35:40Z</time>
      </trkpt>
      <trkpt lat="41.6705640" lon="2.0691250">
        <ele>389.6</ele>
        <time>2022-09-26T08:35:41Z</time>
      </trkpt>
      <trkpt lat="41.6705850" lon="2.0690890">
        <ele>389.6</ele>
        <time>2022-09-26T08:35:42Z</time>
      </trkpt>
      <trkpt lat="41.6706060" lon="2.0690550">
        <ele>389.6</ele>
        <time>2022-09-26T08:35:43Z</time>
      </trkpt>
      <trkpt lat="41.6706440" lon="2.0689950">
        <ele>389.8</ele>
        <time>2022-09-26T08:35:45Z</time>
      </trkpt>
      <trkpt lat="41.6706620" lon="2.0689660">
        <ele>389.8</ele>
        <time>2022-09-26T08:35:46Z</time>
      </trkpt>
      <trkpt lat="41.6706820" lon="2.0689350">
        <ele>390.0</ele>
        <time>2022-09-26T08:35:47Z</time>
      </trkpt>
      <trkpt lat="41.6707030" lon="2.0689050">
        <ele>390.2</ele>
        <time>2022-09-26T08:35:48Z</time>
      </trkpt>
      <trkpt lat="41.6707220" lon="2.0688770">
        <ele>390.4</ele>
        <time>2022-09-26T08:35:49Z</time>
      </trkpt>
      <trkpt lat="41.6707440" lon="2.0688450">
        <ele>390.6</ele>
        <time>2022-09-26T08:35:50Z</time>
      </trkpt>
      <trkpt lat="41.6707650" lon="2.0688160">
        <ele>390.8</ele>
        <time>2022-09-26T08:35:51Z</time>
      </trkpt>
      <trkpt lat="41.6707840" lon="2.0687880">
        <ele>391.0</ele>
        <time>2022-09-26T08:35:52Z</time>
      </trkpt>
      <trkpt lat="41.6708010" lon="2.0687600">
        <ele>391.2</ele>
        <time>2022-09-26T08:35:53Z</time>
      </trkpt>
      <trkpt lat="41.6708190" lon="2.0687330">
        <ele>391.4</ele>
        <time>2022-09-26T08:35:54Z</time>
      </trkpt>
      <trkpt lat="41.6708360" lon="2.0687070">
        <ele>391.6</ele>
        <time>2022-09-26T08:35:55Z</time>
      </trkpt>
      <trkpt lat="41.6708650" lon="2.0686560">
        <ele>392.2</ele>
        <time>2022-09-26T08:35:57Z</time>
      </trkpt>
      <trkpt lat="41.6708790" lon="2.0686320">
        <ele>392.6</ele>
        <time>2022-09-26T08:35:58Z</time>
      </trkpt>
      <trkpt lat="41.6708940" lon="2.0686110">
        <ele>392.8</ele>
        <time>2022-09-26T08:35:59Z</time>
      </trkpt>
      <trkpt lat="41.6709110" lon="2.0685890">
        <ele>393.2</ele>
        <time>2022-09-26T08:36:00Z</time>
      </trkpt>
      <trkpt lat="41.6709290" lon="2.0685680">
        <ele>393.6</ele>
        <time>2022-09-26T08:36:01Z</time>
      </trkpt>
      <trkpt lat="41.6709450" lon="2.0685470">
        <ele>393.8</ele>
        <time>2022-09-26T08:36:02Z</time>
      </trkpt>
      <trkpt lat="41.6709620" lon="2.0685260">
        <ele>394.0</ele>
        <time>2022-09-26T08:36:03Z</time>
      </trkpt>
      <trkpt lat="41.6709800" lon="2.0685080">
        <ele>394.4</ele>
        <time>2022-09-26T08:36:04Z</time>
      </trkpt>
      <trkpt lat="41.6710000" lon="2.0684950">
        <ele>394.6</ele>
        <time>2022-09-26T08:36:05Z</time>
      </trkpt>
      <trkpt lat="41.6710220" lon="2.0684870">
        <ele>394.8</ele>
        <time>2022-09-26T08:36:06Z</time>
      </trkpt>
      <trkpt lat="41.6710450" lon="2.0684810">
        <ele>394.8</ele>
        <time>2022-09-26T08:36:07Z</time>
      </trkpt>
      <trkpt lat="41.6710850" lon="2.0684720">
        <ele>395.2</ele>
        <time>2022-09-26T08:36:09Z</time>
      </trkpt>
      <trkpt lat="41.6711070" lon="2.0684710">
        <ele>395.2</ele>
        <time>2022-09-26T08:36:10Z</time>
      </trkpt>
      <trkpt lat="41.6711290" lon="2.0684720">
        <ele>395.4</ele>
        <time>2022-09-26T08:36:11Z</time>
      </trkpt>
      <trkpt lat="41.6711480" lon="2.0684740">
        <ele>395.4</ele>
        <time>2022-09-26T08:36:12Z</time>
      </trkpt>
      <trkpt lat="41.6711700" lon="2.0684790">
        <ele>395.6</ele>
        <time>2022-09-26T08:36:13Z</time>
      </trkpt>
      <trkpt lat="41.6711970" lon="2.0684920">
        <ele>395.6</ele>
        <time>2022-09-26T08:36:14Z</time>
      </trkpt>
      <trkpt lat="41.6712230" lon="2.0685150">
        <ele>395.6</ele>
        <time>2022-09-26T08:36:15Z</time>
      </trkpt>
      <trkpt lat="41.6712500" lon="2.0685380">
        <ele>395.6</ele>
        <time>2022-09-26T08:36:16Z</time>
      </trkpt>
      <trkpt lat="41.6712760" lon="2.0685600">
        <ele>395.6</ele>
        <time>2022-09-26T08:36:17Z</time>
      </trkpt>
      <trkpt lat="41.6712990" lon="2.0685800">
        <ele>395.6</ele>
        <time>2022-09-26T08:36:18Z</time>
      </trkpt>
      <trkpt lat="41.6713260" lon="2.0685980">
        <ele>395.6</ele>
        <time>2022-09-26T08:36:19Z</time>
      </trkpt>
      <trkpt lat="41.6713530" lon="2.0686150">
        <ele>395.6</ele>
        <time>2022-09-26T08:36:20Z</time>
      </trkpt>
      <trkpt lat="41.6713800" lon="2.0686290">
        <ele>395.6</ele>
        <time>2022-09-26T08:36:21Z</time>
      </trkpt>
      <trkpt lat="41.6714110" lon="2.0686420">
        <ele>395.6</ele>
        <time>2022-09-26T08:36:22Z</time>
      </trkpt>
      <trkpt lat="41.6714410" lon="2.0686520">
        <ele>395.4</ele>
        <time>2022-09-26T08:36:23Z</time>
      </trkpt>
      <trkpt lat="41.6714680" lon="2.0686580">
        <ele>395.4</ele>
        <time>2022-09-26T08:36:24Z</time>
      </trkpt>
      <trkpt lat="41.6714960" lon="2.0686630">
        <ele>395.6</ele>
        <time>2022-09-26T08:36:25Z</time>
      </trkpt>
      <trkpt lat="41.6715230" lon="2.0686660">
        <ele>395.6</ele>
        <time>2022-09-26T08:36:26Z</time>
      </trkpt>
      <trkpt lat="41.6715520" lon="2.0686590">
        <ele>395.6</ele>
        <time>2022-09-26T08:36:27Z</time>
      </trkpt>
      <trkpt lat="41.6715800" lon="2.0686430">
        <ele>395.6</ele>
        <time>2022-09-26T08:36:28Z</time>
      </trkpt>
      <trkpt lat="41.6716040" lon="2.0686180">
        <ele>395.8</ele>
        <time>2022-09-26T08:36:29Z</time>
      </trkpt>
      <trkpt lat="41.6716250" lon="2.0685870">
        <ele>395.8</ele>
        <time>2022-09-26T08:36:30Z</time>
      </trkpt>
      <trkpt lat="41.6716420" lon="2.0685580">
        <ele>396.0</ele>
        <time>2022-09-26T08:36:31Z</time>
      </trkpt>
      <trkpt lat="41.6716580" lon="2.0684930">
        <ele>396.2</ele>
        <time>2022-09-26T08:36:33Z</time>
      </trkpt>
      <trkpt lat="41.6716620" lon="2.0684550">
        <ele>396.2</ele>
        <time>2022-09-26T08:36:34Z</time>
      </trkpt>
      <trkpt lat="41.6716640" lon="2.0684150">
        <ele>396.4</ele>
        <time>2022-09-26T08:36:35Z</time>
      </trkpt>
      <trkpt lat="41.6716640" lon="2.0683750">
        <ele>396.4</ele>
        <time>2022-09-26T08:36:36Z</time>
      </trkpt>
      <trkpt lat="41.6716620" lon="2.0683340">
        <ele>396.4</ele>
        <time>2022-09-26T08:36:37Z</time>
      </trkpt>
      <trkpt lat="41.6716570" lon="2.0682490">
        <ele>396.2</ele>
        <time>2022-09-26T08:36:39Z</time>
      </trkpt>
      <trkpt lat="41.6716550" lon="2.0682060">
        <ele>396.4</ele>
        <time>2022-09-26T08:36:40Z</time>
      </trkpt>
      <trkpt lat="41.6716530" lon="2.0681620">
        <ele>396.4</ele>
        <time>2022-09-26T08:36:41Z</time>
      </trkpt>
      <trkpt lat="41.6716480" lon="2.0681190">
        <ele>396.4</ele>
        <time>2022-09-26T08:36:42Z</time>
      </trkpt>
      <trkpt lat="41.6716430" lon="2.0680750">
        <ele>396.4</ele>
        <time>2022-09-26T08:36:43Z</time>
      </trkpt>
      <trkpt lat="41.6716340" lon="2.0679850">
        <ele>396.4</ele>
        <time>2022-09-26T08:36:45Z</time>
      </trkpt>
      <trkpt lat="41.6716280" lon="2.0679390">
        <ele>396.4</ele>
        <time>2022-09-26T08:36:46Z</time>
      </trkpt>
      <trkpt lat="41.6716200" lon="2.0678950">
        <ele>396.4</ele>
        <time>2022-09-26T08:36:47Z</time>
      </trkpt>
      <trkpt lat="41.6716120" lon="2.0678520">
        <ele>396.4</ele>
        <time>2022-09-26T08:36:48Z</time>
      </trkpt>
      <trkpt lat="41.6716040" lon="2.0678100">
        <ele>396.4</ele>
        <time>2022-09-26T08:36:49Z</time>
      </trkpt>
      <trkpt lat="41.6715880" lon="2.0677280">
        <ele>396.2</ele>
        <time>2022-09-26T08:36:51Z</time>
      </trkpt>
      <trkpt lat="41.6715810" lon="2.0676880">
        <ele>396.2</ele>
        <time>2022-09-26T08:36:52Z</time>
      </trkpt>
      <trkpt lat="41.6715750" lon="2.0676490">
        <ele>396.2</ele>
        <time>2022-09-26T08:36:53Z</time>
      </trkpt>
      <trkpt lat="41.6715680" lon="2.0676110">
        <ele>396.2</ele>
        <time>2022-09-26T08:36:54Z</time>
      </trkpt>
      <trkpt lat="41.6715610" lon="2.0675750">
        <ele>396.4</ele>
        <time>2022-09-26T08:36:55Z</time>
      </trkpt>
      <trkpt lat="41.6715550" lon="2.0675400">
        <ele>396.4</ele>
        <time>2022-09-26T08:36:56Z</time>
      </trkpt>
      <trkpt lat="41.6715480" lon="2.0675040">
        <ele>396.8</ele>
        <time>2022-09-26T08:36:57Z</time>
      </trkpt>
      <trkpt lat="41.6715430" lon="2.0674690">
        <ele>397.0</ele>
        <time>2022-09-26T08:36:58Z</time>
      </trkpt>
      <trkpt lat="41.6715400" lon="2.0674340">
        <ele>397.2</ele>
        <time>2022-09-26T08:36:59Z</time>
      </trkpt>
      <trkpt lat="41.6715370" lon="2.0673980">
        <ele>397.2</ele>
        <time>2022-09-26T08:37:00Z</time>
      </trkpt>
      <trkpt lat="41.6715360" lon="2.0673620">
        <ele>397.4</ele>
        <time>2022-09-26T08:37:01Z</time>
      </trkpt>
      <trkpt lat="41.6715390" lon="2.0672890">
        <ele>397.6</ele>
        <time>2022-09-26T08:37:03Z</time>
      </trkpt>
      <trkpt lat="41.6715440" lon="2.0672540">
        <ele>397.8</ele>
        <time>2022-09-26T08:37:04Z</time>
      </trkpt>
      <trkpt lat="41.6715540" lon="2.0672200">
        <ele>397.8</ele>
        <time>2022-09-26T08:37:05Z</time>
      </trkpt>
      <trkpt lat="41.6715700" lon="2.0671890">
        <ele>398.0</ele>
        <time>2022-09-26T08:37:06Z</time>
      </trkpt>
      <trkpt lat="41.6715880" lon="2.0671640">
        <ele>398.2</ele>
        <time>2022-09-26T08:37:07Z</time>
      </trkpt>
      <trkpt lat="41.6716340" lon="2.0671240">
        <ele>398.4</ele>
        <time>2022-09-26T08:37:09Z</time>
      </trkpt>
      <trkpt lat="41.6716580" lon="2.0671070">
        <ele>398.6</ele>
        <time>2022-09-26T08:37:10Z</time>
      </trkpt>
      <trkpt lat="41.6716850" lon="2.0670930">
        <ele>398.8</ele>
        <time>2022-09-26T08:37:11Z</time>
      </trkpt>
      <trkpt lat="41.6717120" lon="2.0670780">
        <ele>398.8</ele>
        <time>2022-09-26T08:37:12Z</time>
      </trkpt>
      <trkpt lat="41.6717390" lon="2.0670580">
        <ele>398.8</ele>
        <time>2022-09-26T08:37:13Z</time>
      </trkpt>
      <trkpt lat="41.6717930" lon="2.0670020">
        <ele>398.6</ele>
        <time>2022-09-26T08:37:15Z</time>
      </trkpt>
      <trkpt lat="41.6718160" lon="2.0669660">
        <ele>398.4</ele>
        <time>2022-09-26T08:37:16Z</time>
      </trkpt>
      <trkpt lat="41.6718340" lon="2.0669230">
        <ele>398.4</ele>
        <time>2022-09-26T08:37:17Z</time>
      </trkpt>
      <trkpt lat="41.6718510" lon="2.0668790">
        <ele>398.4</ele>
        <time>2022-09-26T08:37:18Z</time>
      </trkpt>
      <trkpt lat="41.6718670" lon="2.0668360">
        <ele>398.4</ele>
        <time>2022-09-26T08:37:19Z</time>
      </trkpt>
      <trkpt lat="41.6718930" lon="2.0667510">
        <ele>398.6</ele>
        <time>2022-09-26T08:37:21Z</time>
      </trkpt>
      <trkpt lat="41.6719050" lon="2.0667070">
        <ele>398.8</ele>
        <time>2022-09-26T08:37:22Z</time>
      </trkpt>
      <trkpt lat="41.6719160" lon="2.0666620">
        <ele>398.8</ele>
        <time>2022-09-26T08:37:23Z</time>
      </trkpt>
      <trkpt lat="41.6719280" lon="2.0666160">
        <ele>398.8</ele>
        <time>2022-09-26T08:37:24Z</time>
      </trkpt>
      <trkpt lat="41.6719390" lon="2.0665700">
        <ele>399.0</ele>
        <time>2022-09-26T08:37:25Z</time>
      </trkpt>
      <trkpt lat="41.6719600" lon="2.0664740">
        <ele>399.2</ele>
        <time>2022-09-26T08:37:27Z</time>
      </trkpt>
      <trkpt lat="41.6719700" lon="2.0664270">
        <ele>399.2</ele>
        <time>2022-09-26T08:37:28Z</time>
      </trkpt>
      <trkpt lat="41.6719800" lon="2.0663800">
        <ele>399.2</ele>
        <time>2022-09-26T08:37:29Z</time>
      </trkpt>
      <trkpt lat="41.6719900" lon="2.0663340">
        <ele>399.4</ele>
        <time>2022-09-26T08:37:30Z</time>
      </trkpt>
      <trkpt lat="41.6720000" lon="2.0662890">
        <ele>399.4</ele>
        <time>2022-09-26T08:37:31Z</time>
      </trkpt>
      <trkpt lat="41.6720150" lon="2.0662010">
        <ele>399.8</ele>
        <time>2022-09-26T08:37:33Z</time>
      </trkpt>
      <trkpt lat="41.6720200" lon="2.0661580">
        <ele>400.0</ele>
        <time>2022-09-26T08:37:34Z</time>
      </trkpt>
      <trkpt lat="41.6720240" lon="2.0661140">
        <ele>400.2</ele>
        <time>2022-09-26T08:37:35Z</time>
      </trkpt>
      <trkpt lat="41.6720250" lon="2.0660730">
        <ele>400.4</ele>
        <time>2022-09-26T08:37:36Z</time>
      </trkpt>
      <trkpt lat="41.6720240" lon="2.0660320">
        <ele>400.4</ele>
        <time>2022-09-26T08:37:37Z</time>
      </trkpt>
      <trkpt lat="41.6720170" lon="2.0659460">
        <ele>400.8</ele>
        <time>2022-09-26T08:37:39Z</time>
      </trkpt>
      <trkpt lat="41.6720140" lon="2.0658990">
        <ele>400.8</ele>
        <time>2022-09-26T08:37:40Z</time>
      </trkpt>
      <trkpt lat="41.6720150" lon="2.0658530">
        <ele>401.0</ele>
        <time>2022-09-26T08:37:41Z</time>
      </trkpt>
      <trkpt lat="41.6720160" lon="2.0658090">
        <ele>401.2</ele>
        <time>2022-09-26T08:37:42Z</time>
      </trkpt>
      <trkpt lat="41.6720150" lon="2.0657660">
        <ele>401.4</ele>
        <time>2022-09-26T08:37:43Z</time>
      </trkpt>
      <trkpt lat="41.6720110" lon="2.0656730">
        <ele>401.6</ele>
        <time>2022-09-26T08:37:45Z</time>
      </trkpt>
      <trkpt lat="41.6720090" lon="2.0656270">
        <ele>401.6</ele>
        <time>2022-09-26T08:37:46Z</time>
      </trkpt>
      <trkpt lat="41.6720080" lon="2.0655810">
        <ele>401.6</ele>
        <time>2022-09-26T08:37:47Z</time>
      </trkpt>
      <trkpt lat="41.6720060" lon="2.0655350">
        <ele>401.6</ele>
        <time>2022-09-26T08:37:48Z</time>
      </trkpt>
      <trkpt lat="41.6720040" lon="2.0654900">
        <ele>401.6</ele>
        <time>2022-09-26T08:37:49Z</time>
      </trkpt>
      <trkpt lat="41.6720050" lon="2.0654070">
        <ele>401.8</ele>
        <time>2022-09-26T08:37:51Z</time>
      </trkpt>
      <trkpt lat="41.6720090" lon="2.0653680">
        <ele>402.0</ele>
        <time>2022-09-26T08:37:52Z</time>
      </trkpt>
      <trkpt lat="41.6720150" lon="2.0653320">
        <ele>402.2</ele>
        <time>2022-09-26T08:37:53Z</time>
      </trkpt>
      <trkpt lat="41.6720230" lon="2.0652950">
        <ele>402.6</ele>
        <time>2022-09-26T08:37:54Z</time>
      </trkpt>
      <trkpt lat="41.6720350" lon="2.0652630">
        <ele>402.6</ele>
        <time>2022-09-26T08:37:55Z</time>
      </trkpt>
      <trkpt lat="41.6720730" lon="2.0652160">
        <ele>403.0</ele>
        <time>2022-09-26T08:37:57Z</time>
      </trkpt>
      <trkpt lat="41.6720960" lon="2.0652040">
        <ele>403.4</ele>
        <time>2022-09-26T08:37:58Z</time>
      </trkpt>
      <trkpt lat="41.6721200" lon="2.0651980">
        <ele>403.8</ele>
        <time>2022-09-26T08:37:59Z</time>
      </trkpt>
      <trkpt lat="41.6721450" lon="2.0651960">
        <ele>403.8</ele>
        <time>2022-09-26T08:38:00Z</time>
      </trkpt>
      <trkpt lat="41.6721750" lon="2.0651950">
        <ele>403.8</ele>
        <time>2022-09-26T08:38:01Z</time>
      </trkpt>
      <trkpt lat="41.6722070" lon="2.0651960">
        <ele>404.0</ele>
        <time>2022-09-26T08:38:02Z</time>
      </trkpt>
      <trkpt lat="41.6722410" lon="2.0652000">
        <ele>404.2</ele>
        <time>2022-09-26T08:38:03Z</time>
      </trkpt>
      <trkpt lat="41.6722760" lon="2.0652030">
        <ele>404.2</ele>
        <time>2022-09-26T08:38:04Z</time>
      </trkpt>
      <trkpt lat="41.6723110" lon="2.0652050">
        <ele>403.8</ele>
        <time>2022-09-26T08:38:05Z</time>
      </trkpt>
      <trkpt lat="41.6723430" lon="2.0652010">
        <ele>403.6</ele>
        <time>2022-09-26T08:38:06Z</time>
      </trkpt>
      <trkpt lat="41.6723740" lon="2.0651920">
        <ele>403.4</ele>
        <time>2022-09-26T08:38:07Z</time>
      </trkpt>
      <trkpt lat="41.6724290" lon="2.0651700">
        <ele>403.4</ele>
        <time>2022-09-26T08:38:09Z</time>
      </trkpt>
      <trkpt lat="41.6724590" lon="2.0651590">
        <ele>403.4</ele>
        <time>2022-09-26T08:38:10Z</time>
      </trkpt>
      <trkpt lat="41.6724920" lon="2.0651440">
        <ele>403.4</ele>
        <time>2022-09-26T08:38:11Z</time>
      </trkpt>
      <trkpt lat="41.6725260" lon="2.0651280">
        <ele>403.6</ele>
        <time>2022-09-26T08:38:12Z</time>
      </trkpt>
      <trkpt lat="41.6725590" lon="2.0651120">
        <ele>403.6</ele>
        <time>2022-09-26T08:38:13Z</time>
      </trkpt>
      <trkpt lat="41.6726280" lon="2.0650850">
        <ele>403.6</ele>
        <time>2022-09-26T08:38:15Z</time>
      </trkpt>
      <trkpt lat="41.6726660" lon="2.0650730">
        <ele>403.6</ele>
        <time>2022-09-26T08:38:16Z</time>
      </trkpt>
      <trkpt lat="41.6727070" lon="2.0650640">
        <ele>403.4</ele>
        <time>2022-09-26T08:38:17Z</time>
      </trkpt>
      <trkpt lat="41.6727530" lon="2.0650610">
        <ele>403.4</ele>
        <time>2022-09-26T08:38:18Z</time>
      </trkpt>
      <trkpt lat="41.6728030" lon="2.0650610">
        <ele>403.2</ele>
        <time>2022-09-26T08:38:19Z</time>
      </trkpt>
      <trkpt lat="41.6728530" lon="2.0650640">
        <ele>403.2</ele>
        <time>2022-09-26T08:38:20Z</time>
      </trkpt>
      <trkpt lat="41.6729020" lon="2.0650670">
        <ele>402.8</ele>
        <time>2022-09-26T08:38:21Z</time>
      </trkpt>
      <trkpt lat="41.6729510" lon="2.0650690">
        <ele>402.6</ele>
        <time>2022-09-26T08:38:22Z</time>
      </trkpt>
      <trkpt lat="41.6730020" lon="2.0650720">
        <ele>402.4</ele>
        <time>2022-09-26T08:38:23Z</time>
      </trkpt>
      <trkpt lat="41.6730540" lon="2.0650770">
        <ele>402.2</ele>
        <time>2022-09-26T08:38:24Z</time>
      </trkpt>
      <trkpt lat="41.6731090" lon="2.0650800">
        <ele>402.0</ele>
        <time>2022-09-26T08:38:25Z</time>
      </trkpt>
      <trkpt lat="41.6731630" lon="2.0650790">
        <ele>401.6</ele>
        <time>2022-09-26T08:38:26Z</time>
      </trkpt>
      <trkpt lat="41.6732190" lon="2.0650720">
        <ele>401.4</ele>
        <time>2022-09-26T08:38:27Z</time>
      </trkpt>
      <trkpt lat="41.6732750" lon="2.0650580">
        <ele>401.0</ele>
        <time>2022-09-26T08:38:28Z</time>
      </trkpt>
      <trkpt lat="41.6733330" lon="2.0650420">
        <ele>400.8</ele>
        <time>2022-09-26T08:38:29Z</time>
      </trkpt>
      <trkpt lat="41.6733910" lon="2.0650270">
        <ele>400.4</ele>
        <time>2022-09-26T08:38:30Z</time>
      </trkpt>
      <trkpt lat="41.6734500" lon="2.0650150">
        <ele>400.2</ele>
        <time>2022-09-26T08:38:31Z</time>
      </trkpt>
      <trkpt lat="41.6735670" lon="2.0649980">
        <ele>400.0</ele>
        <time>2022-09-26T08:38:33Z</time>
      </trkpt>
      <trkpt lat="41.6736230" lon="2.0649890">
        <ele>400.0</ele>
        <time>2022-09-26T08:38:34Z</time>
      </trkpt>
      <trkpt lat="41.6736780" lon="2.0649760">
        <ele>400.0</ele>
        <time>2022-09-26T08:38:35Z</time>
      </trkpt>
      <trkpt lat="41.6737310" lon="2.0649570">
        <ele>400.2</ele>
        <time>2022-09-26T08:38:36Z</time>
      </trkpt>
      <trkpt lat="41.6737810" lon="2.0649310">
        <ele>400.2</ele>
        <time>2022-09-26T08:38:37Z</time>
      </trkpt>
      <trkpt lat="41.6738270" lon="2.0648970">
        <ele>400.0</ele>
        <time>2022-09-26T08:38:38Z</time>
      </trkpt>
      <trkpt lat="41.6738710" lon="2.0648590">
        <ele>400.0</ele>
        <time>2022-09-26T08:38:39Z</time>
      </trkpt>
      <trkpt lat="41.6739120" lon="2.0648200">
        <ele>399.8</ele>
        <time>2022-09-26T08:38:40Z</time>
      </trkpt>
      <trkpt lat="41.6739540" lon="2.0647850">
        <ele>399.8</ele>
        <time>2022-09-26T08:38:41Z</time>
      </trkpt>
      <trkpt lat="41.6739970" lon="2.0647550">
        <ele>400.0</ele>
        <time>2022-09-26T08:38:42Z</time>
      </trkpt>
      <trkpt lat="41.6740390" lon="2.0647300">
        <ele>400.0</ele>
        <time>2022-09-26T08:38:43Z</time>
      </trkpt>
      <trkpt lat="41.6740810" lon="2.0647050">
        <ele>400.2</ele>
        <time>2022-09-26T08:38:44Z</time>
      </trkpt>
      <trkpt lat="41.6741220" lon="2.0646800">
        <ele>400.2</ele>
        <time>2022-09-26T08:38:45Z</time>
      </trkpt>
      <trkpt lat="41.6741590" lon="2.0646480">
        <ele>400.4</ele>
        <time>2022-09-26T08:38:46Z</time>
      </trkpt>
      <trkpt lat="41.6741930" lon="2.0646140">
        <ele>400.6</ele>
        <time>2022-09-26T08:38:47Z</time>
      </trkpt>
      <trkpt lat="41.6742230" lon="2.0645790">
        <ele>400.6</ele>
        <time>2022-09-26T08:38:48Z</time>
      </trkpt>
      <trkpt lat="41.6742510" lon="2.0645460">
        <ele>400.8</ele>
        <time>2022-09-26T08:38:49Z</time>
      </trkpt>
      <trkpt lat="41.6742950" lon="2.0644800">
        <ele>401.0</ele>
        <time>2022-09-26T08:38:51Z</time>
      </trkpt>
      <trkpt lat="41.6743170" lon="2.0644410">
        <ele>401.0</ele>
        <time>2022-09-26T08:38:52Z</time>
      </trkpt>
      <trkpt lat="41.6743420" lon="2.0644010">
        <ele>400.6</ele>
        <time>2022-09-26T08:38:53Z</time>
      </trkpt>
      <trkpt lat="41.6743670" lon="2.0643550">
        <ele>400.2</ele>
        <time>2022-09-26T08:38:54Z</time>
      </trkpt>
      <trkpt lat="41.6743950" lon="2.0642980">
        <ele>400.0</ele>
        <time>2022-09-26T08:38:55Z</time>
      </trkpt>
      <trkpt lat="41.6744540" lon="2.0641650">
        <ele>398.6</ele>
        <time>2022-09-26T08:38:57Z</time>
      </trkpt>
      <trkpt lat="41.6744860" lon="2.0640930">
        <ele>398.0</ele>
        <time>2022-09-26T08:38:58Z</time>
      </trkpt>
      <trkpt lat="41.6745260" lon="2.0640240">
        <ele>397.4</ele>
        <time>2022-09-26T08:38:59Z</time>
      </trkpt>
      <trkpt lat="41.6745650" lon="2.0639600">
        <ele>397.0</ele>
        <time>2022-09-26T08:39:00Z</time>
      </trkpt>
      <trkpt lat="41.6745890" lon="2.0638930">
        <ele>396.4</ele>
        <time>2022-09-26T08:39:01Z</time>
      </trkpt>
      <trkpt lat="41.6746020" lon="2.0638170">
        <ele>395.8</ele>
        <time>2022-09-26T08:39:02Z</time>
      </trkpt>
      <trkpt lat="41.6746030" lon="2.0637360">
        <ele>395.2</ele>
        <time>2022-09-26T08:39:03Z</time>
      </trkpt>
      <trkpt lat="41.6746030" lon="2.0636520">
        <ele>394.6</ele>
        <time>2022-09-26T08:39:04Z</time>
      </trkpt>
      <trkpt lat="41.6746120" lon="2.0635760">
        <ele>394.2</ele>
        <time>2022-09-26T08:39:05Z</time>
      </trkpt>
      <trkpt lat="41.6746310" lon="2.0635110">
        <ele>393.8</ele>
        <time>2022-09-26T08:39:06Z</time>
      </trkpt>
      <trkpt lat="41.6746610" lon="2.0634570">
        <ele>393.4</ele>
        <time>2022-09-26T08:39:07Z</time>
      </trkpt>
      <trkpt lat="41.6746980" lon="2.0634080">
        <ele>393.2</ele>
        <time>2022-09-26T08:39:08Z</time>
      </trkpt>
      <trkpt lat="41.6747400" lon="2.0633610">
        <ele>392.6</ele>
        <time>2022-09-26T08:39:09Z</time>
      </trkpt>
      <trkpt lat="41.6747820" lon="2.0633190">
        <ele>391.4</ele>
        <time>2022-09-26T08:39:10Z</time>
      </trkpt>
      <trkpt lat="41.6748240" lon="2.0632690">
        <ele>390.6</ele>
        <time>2022-09-26T08:39:11Z</time>
      </trkpt>
      <trkpt lat="41.6748630" lon="2.0632040">
        <ele>390.0</ele>
        <time>2022-09-26T08:39:12Z</time>
      </trkpt>
      <trkpt lat="41.6749030" lon="2.0631340">
        <ele>389.4</ele>
        <time>2022-09-26T08:39:13Z</time>
      </trkpt>
      <trkpt lat="41.6749490" lon="2.0630690">
        <ele>388.4</ele>
        <time>2022-09-26T08:39:14Z</time>
      </trkpt>
      <trkpt lat="41.6749950" lon="2.0630020">
        <ele>387.4</ele>
        <time>2022-09-26T08:39:15Z</time>
      </trkpt>
      <trkpt lat="41.6750380" lon="2.0629300">
        <ele>386.0</ele>
        <time>2022-09-26T08:39:16Z</time>
      </trkpt>
      <trkpt lat="41.6750770" lon="2.0628570">
        <ele>385.0</ele>
        <time>2022-09-26T08:39:17Z</time>
      </trkpt>
      <trkpt lat="41.6751180" lon="2.0627870">
        <ele>383.8</ele>
        <time>2022-09-26T08:39:18Z</time>
      </trkpt>
      <trkpt lat="41.6751620" lon="2.0627190">
        <ele>383.0</ele>
        <time>2022-09-26T08:39:19Z</time>
      </trkpt>
      <trkpt lat="41.6752040" lon="2.0626530">
        <ele>382.2</ele>
        <time>2022-09-26T08:39:20Z</time>
      </trkpt>
      <trkpt lat="41.6752460" lon="2.0625840">
        <ele>381.6</ele>
        <time>2022-09-26T08:39:21Z</time>
      </trkpt>
      <trkpt lat="41.6752910" lon="2.0625140">
        <ele>380.8</ele>
        <time>2022-09-26T08:39:22Z</time>
      </trkpt>
      <trkpt lat="41.6753290" lon="2.0624490">
        <ele>379.8</ele>
        <time>2022-09-26T08:39:23Z</time>
      </trkpt>
      <trkpt lat="41.6753650" lon="2.0623890">
        <ele>379.0</ele>
        <time>2022-09-26T08:39:24Z</time>
      </trkpt>
      <trkpt lat="41.6753960" lon="2.0623320">
        <ele>378.2</ele>
        <time>2022-09-26T08:39:25Z</time>
      </trkpt>
      <trkpt lat="41.6754290" lon="2.0622740">
        <ele>377.0</ele>
        <time>2022-09-26T08:39:26Z</time>
      </trkpt>
      <trkpt lat="41.6754640" lon="2.0622150">
        <ele>376.4</ele>
        <time>2022-09-26T08:39:27Z</time>
      </trkpt>
      <trkpt lat="41.6754990" lon="2.0621540">
        <ele>375.8</ele>
        <time>2022-09-26T08:39:28Z</time>
      </trkpt>
      <trkpt lat="41.6755300" lon="2.0620940">
        <ele>375.4</ele>
        <time>2022-09-26T08:39:29Z</time>
      </trkpt>
      <trkpt lat="41.6755640" lon="2.0620290">
        <ele>374.8</ele>
        <time>2022-09-26T08:39:30Z</time>
      </trkpt>
      <trkpt lat="41.6756060" lon="2.0619510">
        <ele>374.2</ele>
        <time>2022-09-26T08:39:31Z</time>
      </trkpt>
      <trkpt lat="41.6756480" lon="2.0618720">
        <ele>373.2</ele>
        <time>2022-09-26T08:39:32Z</time>
      </trkpt>
      <trkpt lat="41.6756860" lon="2.0617940">
        <ele>372.4</ele>
        <time>2022-09-26T08:39:33Z</time>
      </trkpt>
      <trkpt lat="41.6757240" lon="2.0617110">
        <ele>372.0</ele>
        <time>2022-09-26T08:39:34Z</time>
      </trkpt>
      <trkpt lat="41.6757680" lon="2.0616270">
        <ele>371.4</ele>
        <time>2022-09-26T08:39:35Z</time>
      </trkpt>
      <trkpt lat="41.6758060" lon="2.0615530">
        <ele>371.4</ele>
        <time>2022-09-26T08:39:36Z</time>
      </trkpt>
      <trkpt lat="41.6758400" lon="2.0614730">
        <ele>370.8</ele>
        <time>2022-09-26T08:39:37Z</time>
      </trkpt>
      <trkpt lat="41.6759120" lon="2.0613030">
        <ele>370.4</ele>
        <time>2022-09-26T08:39:39Z</time>
      </trkpt>
      <trkpt lat="41.6759380" lon="2.0612220">
        <ele>370.0</ele>
        <time>2022-09-26T08:39:40Z</time>
      </trkpt>
      <trkpt lat="41.6759560" lon="2.0611440">
        <ele>369.6</ele>
        <time>2022-09-26T08:39:41Z</time>
      </trkpt>
      <trkpt lat="41.6759590" lon="2.0610630">
        <ele>369.0</ele>
        <time>2022-09-26T08:39:42Z</time>
      </trkpt>
      <trkpt lat="41.6759530" lon="2.0609820">
        <ele>368.8</ele>
        <time>2022-09-26T08:39:43Z</time>
      </trkpt>
      <trkpt lat="41.6759430" lon="2.0609100">
        <ele>368.6</ele>
        <time>2022-09-26T08:39:44Z</time>
      </trkpt>
      <trkpt lat="41.6759250" lon="2.0608410">
        <ele>368.2</ele>
        <time>2022-09-26T08:39:45Z</time>
      </trkpt>
      <trkpt lat="41.6759080" lon="2.0607700">
        <ele>368.2</ele>
        <time>2022-09-26T08:39:46Z</time>
      </trkpt>
      <trkpt lat="41.6758860" lon="2.0607000">
        <ele>367.6</ele>
        <time>2022-09-26T08:39:47Z</time>
      </trkpt>
      <trkpt lat="41.6758660" lon="2.0606330">
        <ele>367.6</ele>
        <time>2022-09-26T08:39:48Z</time>
      </trkpt>
      <trkpt lat="41.6758380" lon="2.0605610">
        <ele>367.0</ele>
        <time>2022-09-26T08:39:49Z</time>
      </trkpt>
      <trkpt lat="41.6757780" lon="2.0604170">
        <ele>366.8</ele>
        <time>2022-09-26T08:39:51Z</time>
      </trkpt>
      <trkpt lat="41.6757540" lon="2.0603420">
        <ele>366.8</ele>
        <time>2022-09-26T08:39:52Z</time>
      </trkpt>
      <trkpt lat="41.6757370" lon="2.0602620">
        <ele>366.4</ele>
        <time>2022-09-26T08:39:53Z</time>
      </trkpt>
      <trkpt lat="41.6757280" lon="2.0601800">
        <ele>366.2</ele>
        <time>2022-09-26T08:39:54Z</time>
      </trkpt>
      <trkpt lat="41.6757220" lon="2.0600930">
        <ele>365.8</ele>
        <time>2022-09-26T08:39:55Z</time>
      </trkpt>
      <trkpt lat="41.6757250" lon="2.0600080">
        <ele>365.6</ele>
        <time>2022-09-26T08:39:56Z</time>
      </trkpt>
      <trkpt lat="41.6757260" lon="2.0599230">
        <ele>365.6</ele>
        <time>2022-09-26T08:39:57Z</time>
      </trkpt>
      <trkpt lat="41.6757260" lon="2.0598410">
        <ele>365.2</ele>
        <time>2022-09-26T08:39:58Z</time>
      </trkpt>
      <trkpt lat="41.6757240" lon="2.0597590">
        <ele>365.0</ele>
        <time>2022-09-26T08:39:59Z</time>
      </trkpt>
      <trkpt lat="41.6757160" lon="2.0596760">
        <ele>365.0</ele>
        <time>2022-09-26T08:40:00Z</time>
      </trkpt>
      <trkpt lat="41.6757010" lon="2.0595950">
        <ele>365.0</ele>
        <time>2022-09-26T08:40:01Z</time>
      </trkpt>
      <trkpt lat="41.6756580" lon="2.0594410">
        <ele>364.2</ele>
        <time>2022-09-26T08:40:03Z</time>
      </trkpt>
      <trkpt lat="41.6756350" lon="2.0593650">
        <ele>364.0</ele>
        <time>2022-09-26T08:40:04Z</time>
      </trkpt>
      <trkpt lat="41.6756140" lon="2.0592890">
        <ele>363.6</ele>
        <time>2022-09-26T08:40:05Z</time>
      </trkpt>
      <trkpt lat="41.6755910" lon="2.0592150">
        <ele>363.4</ele>
        <time>2022-09-26T08:40:06Z</time>
      </trkpt>
      <trkpt lat="41.6755720" lon="2.0591410">
        <ele>363.2</ele>
        <time>2022-09-26T08:40:07Z</time>
      </trkpt>
      <trkpt lat="41.6755580" lon="2.0590640">
        <ele>363.0</ele>
        <time>2022-09-26T08:40:08Z</time>
      </trkpt>
      <trkpt lat="41.6755470" lon="2.0589840">
        <ele>362.6</ele>
        <time>2022-09-26T08:40:09Z</time>
      </trkpt>
      <trkpt lat="41.6755390" lon="2.0589100">
        <ele>362.2</ele>
        <time>2022-09-26T08:40:10Z</time>
      </trkpt>
      <trkpt lat="41.6755370" lon="2.0588450">
        <ele>361.8</ele>
        <time>2022-09-26T08:40:11Z</time>
      </trkpt>
      <trkpt lat="41.6755460" lon="2.0587840">
        <ele>361.6</ele>
        <time>2022-09-26T08:40:12Z</time>
      </trkpt>
      <trkpt lat="41.6755670" lon="2.0587310">
        <ele>361.4</ele>
        <time>2022-09-26T08:40:13Z</time>
      </trkpt>
      <trkpt lat="41.6756490" lon="2.0586600">
        <ele>361.4</ele>
        <time>2022-09-26T08:40:15Z</time>
      </trkpt>
      <trkpt lat="41.6756940" lon="2.0586380">
        <ele>361.4</ele>
        <time>2022-09-26T08:40:16Z</time>
      </trkpt>
      <trkpt lat="41.6757360" lon="2.0586190">
        <ele>361.6</ele>
        <time>2022-09-26T08:40:17Z</time>
      </trkpt>
      <trkpt lat="41.6757670" lon="2.0586050">
        <ele>361.8</ele>
        <time>2022-09-26T08:40:18Z</time>
      </trkpt>
      <trkpt lat="41.6757880" lon="2.0585900">
        <ele>362.0</ele>
        <time>2022-09-26T08:40:19Z</time>
      </trkpt>
      <trkpt lat="41.6757980" lon="2.0585810">
        <ele>362.2</ele>
        <time>2022-09-26T08:40:20Z</time>
      </trkpt>
      <trkpt lat="41.6758020" lon="2.0585770">
        <ele>362.4</ele>
        <time>2022-09-26T08:40:21Z</time>
      </trkpt>
      <trkpt lat="41.6758040" lon="2.0585750">
        <ele>362.4</ele>
        <time>2022-09-26T08:40:22Z</time>
      </trkpt>
      <trkpt lat="41.6758350" lon="2.0585580">
        <ele>362.6</ele>
        <time>2022-09-26T08:40:25Z</time>
      </trkpt>
      <trkpt lat="41.6758530" lon="2.0585540">
        <ele>362.6</ele>
        <time>2022-09-26T08:40:26Z</time>
      </trkpt>
      <trkpt lat="41.6758710" lon="2.0585490">
        <ele>362.6</ele>
        <time>2022-09-26T08:40:27Z</time>
      </trkpt>
      <trkpt lat="41.6758800" lon="2.0585500">
        <ele>362.6</ele>
        <time>2022-09-26T08:40:28Z</time>
      </trkpt>
      <trkpt lat="41.6758830" lon="2.0585580">
        <ele>362.6</ele>
        <time>2022-09-26T08:40:29Z</time>
      </trkpt>
      <trkpt lat="41.6759240" lon="2.0585630">
        <ele>362.6</ele>
        <time>2022-09-26T08:40:32Z</time>
      </trkpt>
      <trkpt lat="41.6759440" lon="2.0585620">
        <ele>362.6</ele>
        <time>2022-09-26T08:40:33Z</time>
      </trkpt>
      <trkpt lat="41.6759650" lon="2.0585550">
        <ele>362.6</ele>
        <time>2022-09-26T08:40:34Z</time>
      </trkpt>
      <trkpt lat="41.6759840" lon="2.0585480">
        <ele>362.6</ele>
        <time>2022-09-26T08:40:35Z</time>
      </trkpt>
      <trkpt lat="41.6760050" lon="2.0585400">
        <ele>362.6</ele>
        <time>2022-09-26T08:40:36Z</time>
      </trkpt>
      <trkpt lat="41.6760250" lon="2.0585310">
        <ele>362.6</ele>
        <time>2022-09-26T08:40:37Z</time>
      </trkpt>
      <trkpt lat="41.6760730" lon="2.0585110">
        <ele>362.6</ele>
        <time>2022-09-26T08:40:39Z</time>
      </trkpt>
      <trkpt lat="41.6760970" lon="2.0584990">
        <ele>362.6</ele>
        <time>2022-09-26T08:40:40Z</time>
      </trkpt>
      <trkpt lat="41.6761200" lon="2.0584880">
        <ele>362.8</ele>
        <time>2022-09-26T08:40:41Z</time>
      </trkpt>
      <trkpt lat="41.6761440" lon="2.0584780">
        <ele>363.0</ele>
        <time>2022-09-26T08:40:42Z</time>
      </trkpt>
      <trkpt lat="41.6761680" lon="2.0584680">
        <ele>363.2</ele>
        <time>2022-09-26T08:40:43Z</time>
      </trkpt>
      <trkpt lat="41.6761820" lon="2.0584560">
        <ele>363.4</ele>
        <time>2022-09-26T08:40:44Z</time>
      </trkpt>
      <trkpt lat="41.6762090" lon="2.0584570">
        <ele>363.4</ele>
        <time>2022-09-26T08:40:45Z</time>
      </trkpt>
      <trkpt lat="41.6762270" lon="2.0584520">
        <ele>363.8</ele>
        <time>2022-09-26T08:40:46Z</time>
      </trkpt>
      <trkpt lat="41.6762430" lon="2.0584460">
        <ele>364.0</ele>
        <time>2022-09-26T08:40:47Z</time>
      </trkpt>
      <trkpt lat="41.6762540" lon="2.0584420">
        <ele>364.2</ele>
        <time>2022-09-26T08:40:48Z</time>
      </trkpt>
      <trkpt lat="41.6762610" lon="2.0584420">
        <ele>364.2</ele>
        <time>2022-09-26T08:40:49Z</time>
      </trkpt>
      <trkpt lat="41.6762680" lon="2.0584430">
        <ele>364.4</ele>
        <time>2022-09-26T08:40:50Z</time>
      </trkpt>
      <trkpt lat="41.6763610" lon="2.0584420">
        <ele>364.0</ele>
        <time>2022-09-26T08:41:02Z</time>
      </trkpt>
      <trkpt lat="41.6763880" lon="2.0584460">
        <ele>364.0</ele>
        <time>2022-09-26T08:41:03Z</time>
      </trkpt>
      <trkpt lat="41.6764160" lon="2.0584520">
        <ele>364.2</ele>
        <time>2022-09-26T08:41:04Z</time>
      </trkpt>
      <trkpt lat="41.6764460" lon="2.0584580">
        <ele>364.2</ele>
        <time>2022-09-26T08:41:05Z</time>
      </trkpt>
      <trkpt lat="41.6764810" lon="2.0584630">
        <ele>364.2</ele>
        <time>2022-09-26T08:41:06Z</time>
      </trkpt>
      <trkpt lat="41.6765160" lon="2.0584680">
        <ele>364.2</ele>
        <time>2022-09-26T08:41:07Z</time>
      </trkpt>
      <trkpt lat="41.6765850" lon="2.0584810">
        <ele>364.4</ele>
        <time>2022-09-26T08:41:09Z</time>
      </trkpt>
      <trkpt lat="41.6766210" lon="2.0584860">
        <ele>364.4</ele>
        <time>2022-09-26T08:41:10Z</time>
      </trkpt>
      <trkpt lat="41.6766590" lon="2.0584890">
        <ele>364.4</ele>
        <time>2022-09-26T08:41:11Z</time>
      </trkpt>
      <trkpt lat="41.6766970" lon="2.0584890">
        <ele>364.4</ele>
        <time>2022-09-26T08:41:12Z</time>
      </trkpt>
      <trkpt lat="41.6767360" lon="2.0584880">
        <ele>364.4</ele>
        <time>2022-09-26T08:41:13Z</time>
      </trkpt>
      <trkpt lat="41.6768150" lon="2.0584850">
        <ele>364.4</ele>
        <time>2022-09-26T08:41:15Z</time>
      </trkpt>
      <trkpt lat="41.6768540" lon="2.0584830">
        <ele>364.6</ele>
        <time>2022-09-26T08:41:16Z</time>
      </trkpt>
      <trkpt lat="41.6768910" lon="2.0584800">
        <ele>364.6</ele>
        <time>2022-09-26T08:41:17Z</time>
      </trkpt>
      <trkpt lat="41.6769280" lon="2.0584770">
        <ele>364.6</ele>
        <time>2022-09-26T08:41:18Z</time>
      </trkpt>
      <trkpt lat="41.6769650" lon="2.0584730">
        <ele>364.6</ele>
        <time>2022-09-26T08:41:19Z</time>
      </trkpt>
      <trkpt lat="41.6770030" lon="2.0584700">
        <ele>365.0</ele>
        <time>2022-09-26T08:41:20Z</time>
      </trkpt>
      <trkpt lat="41.6770400" lon="2.0584650">
        <ele>365.0</ele>
        <time>2022-09-26T08:41:21Z</time>
      </trkpt>
      <trkpt lat="41.6770770" lon="2.0584650">
        <ele>365.2</ele>
        <time>2022-09-26T08:41:22Z</time>
      </trkpt>
      <trkpt lat="41.6771140" lon="2.0584600">
        <ele>365.2</ele>
        <time>2022-09-26T08:41:23Z</time>
      </trkpt>
      <trkpt lat="41.6771530" lon="2.0584520">
        <ele>365.2</ele>
        <time>2022-09-26T08:41:24Z</time>
      </trkpt>
      <trkpt lat="41.6771890" lon="2.0584440">
        <ele>365.2</ele>
        <time>2022-09-26T08:41:25Z</time>
      </trkpt>
      <trkpt lat="41.6772290" lon="2.0584350">
        <ele>365.2</ele>
        <time>2022-09-26T08:41:26Z</time>
      </trkpt>
      <trkpt lat="41.6772690" lon="2.0584260">
        <ele>365.0</ele>
        <time>2022-09-26T08:41:27Z</time>
      </trkpt>
      <trkpt lat="41.6773080" lon="2.0584170">
        <ele>365.0</ele>
        <time>2022-09-26T08:41:28Z</time>
      </trkpt>
      <trkpt lat="41.6773500" lon="2.0584070">
        <ele>365.0</ele>
        <time>2022-09-26T08:41:29Z</time>
      </trkpt>
      <trkpt lat="41.6773950" lon="2.0583960">
        <ele>365.0</ele>
        <time>2022-09-26T08:41:30Z</time>
      </trkpt>
      <trkpt lat="41.6774450" lon="2.0583840">
        <ele>365.0</ele>
        <time>2022-09-26T08:41:31Z</time>
      </trkpt>
      <trkpt lat="41.6774940" lon="2.0583730">
        <ele>365.0</ele>
        <time>2022-09-26T08:41:32Z</time>
      </trkpt>
      <trkpt lat="41.6775420" lon="2.0583660">
        <ele>364.8</ele>
        <time>2022-09-26T08:41:33Z</time>
      </trkpt>
      <trkpt lat="41.6775900" lon="2.0583550">
        <ele>364.8</ele>
        <time>2022-09-26T08:41:34Z</time>
      </trkpt>
      <trkpt lat="41.6776290" lon="2.0583470">
        <ele>364.8</ele>
        <time>2022-09-26T08:41:35Z</time>
      </trkpt>
      <trkpt lat="41.6776650" lon="2.0583420">
        <ele>364.8</ele>
        <time>2022-09-26T08:41:36Z</time>
      </trkpt>
      <trkpt lat="41.6777030" lon="2.0583370">
        <ele>364.8</ele>
        <time>2022-09-26T08:41:37Z</time>
      </trkpt>
      <trkpt lat="41.6777460" lon="2.0583200">
        <ele>364.6</ele>
        <time>2022-09-26T08:41:38Z</time>
      </trkpt>
      <trkpt lat="41.6777850" lon="2.0583070">
        <ele>364.6</ele>
        <time>2022-09-26T08:41:39Z</time>
      </trkpt>
      <trkpt lat="41.6778220" lon="2.0582900">
        <ele>364.6</ele>
        <time>2022-09-26T08:41:40Z</time>
      </trkpt>
      <trkpt lat="41.6778510" lon="2.0582730">
        <ele>364.8</ele>
        <time>2022-09-26T08:41:41Z</time>
      </trkpt>
      <trkpt lat="41.6778860" lon="2.0582450">
        <ele>364.8</ele>
        <time>2022-09-26T08:41:42Z</time>
      </trkpt>
      <trkpt lat="41.6779140" lon="2.0582190">
        <ele>365.0</ele>
        <time>2022-09-26T08:41:43Z</time>
      </trkpt>
      <trkpt lat="41.6779680" lon="2.0581790">
        <ele>365.2</ele>
        <time>2022-09-26T08:41:45Z</time>
      </trkpt>
      <trkpt lat="41.6779980" lon="2.0581600">
        <ele>365.2</ele>
        <time>2022-09-26T08:41:46Z</time>
      </trkpt>
      <trkpt lat="41.6780260" lon="2.0581380">
        <ele>365.4</ele>
        <time>2022-09-26T08:41:47Z</time>
      </trkpt>
      <trkpt lat="41.6780500" lon="2.0581130">
        <ele>365.4</ele>
        <time>2022-09-26T08:41:48Z</time>
      </trkpt>
      <trkpt lat="41.6780750" lon="2.0580890">
        <ele>365.4</ele>
        <time>2022-09-26T08:41:49Z</time>
      </trkpt>
      <trkpt lat="41.6781150" lon="2.0580480">
        <ele>365.6</ele>
        <time>2022-09-26T08:41:51Z</time>
      </trkpt>
      <trkpt lat="41.6781380" lon="2.0580360">
        <ele>365.6</ele>
        <time>2022-09-26T08:41:52Z</time>
      </trkpt>
      <trkpt lat="41.6781600" lon="2.0580220">
        <ele>365.8</ele>
        <time>2022-09-26T08:41:53Z</time>
      </trkpt>
      <trkpt lat="41.6781790" lon="2.0580090">
        <ele>365.8</ele>
        <time>2022-09-26T08:41:54Z</time>
      </trkpt>
      <trkpt lat="41.6782010" lon="2.0579980">
        <ele>366.0</ele>
        <time>2022-09-26T08:41:55Z</time>
      </trkpt>
      <trkpt lat="41.6782370" lon="2.0579810">
        <ele>366.4</ele>
        <time>2022-09-26T08:41:57Z</time>
      </trkpt>
      <trkpt lat="41.6782530" lon="2.0579730">
        <ele>366.6</ele>
        <time>2022-09-26T08:41:58Z</time>
      </trkpt>
      <trkpt lat="41.6782650" lon="2.0579670">
        <ele>366.8</ele>
        <time>2022-09-26T08:41:59Z</time>
      </trkpt>
      <trkpt lat="41.6782770" lon="2.0579560">
        <ele>367.0</ele>
        <time>2022-09-26T08:42:00Z</time>
      </trkpt>
      <trkpt lat="41.6782860" lon="2.0579420">
        <ele>367.0</ele>
        <time>2022-09-26T08:42:01Z</time>
      </trkpt>
      <trkpt lat="41.6783140" lon="2.0579280">
        <ele>367.2</ele>
        <time>2022-09-26T08:42:03Z</time>
      </trkpt>
      <trkpt lat="41.6783300" lon="2.0579280">
        <ele>367.2</ele>
        <time>2022-09-26T08:42:04Z</time>
      </trkpt>
      <trkpt lat="41.6783440" lon="2.0579290">
        <ele>367.2</ele>
        <time>2022-09-26T08:42:05Z</time>
      </trkpt>
      <trkpt lat="41.6783570" lon="2.0579400">
        <ele>367.2</ele>
        <time>2022-09-26T08:42:06Z</time>
      </trkpt>
      <trkpt lat="41.6783750" lon="2.0579560">
        <ele>367.4</ele>
        <time>2022-09-26T08:42:07Z</time>
      </trkpt>
      <trkpt lat="41.6784130" lon="2.0579950">
        <ele>367.8</ele>
        <time>2022-09-26T08:42:09Z</time>
      </trkpt>
      <trkpt lat="41.6784340" lon="2.0580130">
        <ele>368.0</ele>
        <time>2022-09-26T08:42:10Z</time>
      </trkpt>
      <trkpt lat="41.6784550" lon="2.0580310">
        <ele>368.2</ele>
        <time>2022-09-26T08:42:11Z</time>
      </trkpt>
      <trkpt lat="41.6784780" lon="2.0580480">
        <ele>368.2</ele>
        <time>2022-09-26T08:42:12Z</time>
      </trkpt>
      <trkpt lat="41.6785000" lon="2.0580630">
        <ele>368.4</ele>
        <time>2022-09-26T08:42:13Z</time>
      </trkpt>
      <trkpt lat="41.6785450" lon="2.0580820">
        <ele>368.8</ele>
        <time>2022-09-26T08:42:15Z</time>
      </trkpt>
      <trkpt lat="41.6785600" lon="2.0580930">
        <ele>369.0</ele>
        <time>2022-09-26T08:42:16Z</time>
      </trkpt>
      <trkpt lat="41.6785680" lon="2.0581120">
        <ele>369.0</ele>
        <time>2022-09-26T08:42:17Z</time>
      </trkpt>
      <trkpt lat="41.6785800" lon="2.0581320">
        <ele>369.2</ele>
        <time>2022-09-26T08:42:18Z</time>
      </trkpt>
      <trkpt lat="41.6785950" lon="2.0581480">
        <ele>369.4</ele>
        <time>2022-09-26T08:42:19Z</time>
      </trkpt>
      <trkpt lat="41.6786150" lon="2.0581630">
        <ele>369.6</ele>
        <time>2022-09-26T08:42:20Z</time>
      </trkpt>
      <trkpt lat="41.6786320" lon="2.0581800">
        <ele>369.6</ele>
        <time>2022-09-26T08:42:21Z</time>
      </trkpt>
      <trkpt lat="41.6786480" lon="2.0581970">
        <ele>369.8</ele>
        <time>2022-09-26T08:42:22Z</time>
      </trkpt>
      <trkpt lat="41.6786620" lon="2.0582170">
        <ele>369.8</ele>
        <time>2022-09-26T08:42:23Z</time>
      </trkpt>
      <trkpt lat="41.6786780" lon="2.0582350">
        <ele>370.0</ele>
        <time>2022-09-26T08:42:24Z</time>
      </trkpt>
      <trkpt lat="41.6786920" lon="2.0582500">
        <ele>370.0</ele>
        <time>2022-09-26T08:42:25Z</time>
      </trkpt>
      <trkpt lat="41.6787190" lon="2.0582930">
        <ele>370.2</ele>
        <time>2022-09-26T08:42:27Z</time>
      </trkpt>
      <trkpt lat="41.6787310" lon="2.0583200">
        <ele>370.4</ele>
        <time>2022-09-26T08:42:28Z</time>
      </trkpt>
      <trkpt lat="41.6787370" lon="2.0583420">
        <ele>370.4</ele>
        <time>2022-09-26T08:42:29Z</time>
      </trkpt>
      <trkpt lat="41.6787490" lon="2.0583700">
        <ele>370.8</ele>
        <time>2022-09-26T08:42:30Z</time>
      </trkpt>
      <trkpt lat="41.6787610" lon="2.0583890">
        <ele>371.0</ele>
        <time>2022-09-26T08:42:31Z</time>
      </trkpt>
      <trkpt lat="41.6787780" lon="2.0584210">
        <ele>371.2</ele>
        <time>2022-09-26T08:42:33Z</time>
      </trkpt>
      <trkpt lat="41.6787870" lon="2.0584320">
        <ele>371.4</ele>
        <time>2022-09-26T08:42:34Z</time>
      </trkpt>
      <trkpt lat="41.6787980" lon="2.0584390">
        <ele>371.6</ele>
        <time>2022-09-26T08:42:35Z</time>
      </trkpt>
      <trkpt lat="41.6788060" lon="2.0584460">
        <ele>371.6</ele>
        <time>2022-09-26T08:42:36Z</time>
      </trkpt>
      <trkpt lat="41.6788110" lon="2.0584460">
        <ele>371.8</ele>
        <time>2022-09-26T08:42:37Z</time>
      </trkpt>
      <trkpt lat="41.6788150" lon="2.0584470">
        <ele>371.8</ele>
        <time>2022-09-26T08:42:38Z</time>
      </trkpt>
      <trkpt lat="41.6788000" lon="2.0583770">
        <ele>371.8</ele>
        <time>2022-09-26T08:44:32Z</time>
      </trkpt>
      <trkpt lat="41.6787860" lon="2.0583520">
        <ele>371.6</ele>
        <time>2022-09-26T08:44:33Z</time>
      </trkpt>
      <trkpt lat="41.6787700" lon="2.0583230">
        <ele>371.6</ele>
        <time>2022-09-26T08:44:34Z</time>
      </trkpt>
      <trkpt lat="41.6787530" lon="2.0582970">
        <ele>371.4</ele>
        <time>2022-09-26T08:44:35Z</time>
      </trkpt>
      <trkpt lat="41.6787360" lon="2.0582700">
        <ele>371.0</ele>
        <time>2022-09-26T08:44:36Z</time>
      </trkpt>
      <trkpt lat="41.6787190" lon="2.0582410">
        <ele>370.8</ele>
        <time>2022-09-26T08:44:37Z</time>
      </trkpt>
      <trkpt lat="41.6786960" lon="2.0582080">
        <ele>370.6</ele>
        <time>2022-09-26T08:44:38Z</time>
      </trkpt>
      <trkpt lat="41.6786680" lon="2.0581770">
        <ele>370.4</ele>
        <time>2022-09-26T08:44:39Z</time>
      </trkpt>
      <trkpt lat="41.6786360" lon="2.0581450">
        <ele>370.2</ele>
        <time>2022-09-26T08:44:40Z</time>
      </trkpt>
      <trkpt lat="41.6785970" lon="2.0581170">
        <ele>369.6</ele>
        <time>2022-09-26T08:44:41Z</time>
      </trkpt>
      <trkpt lat="41.6785580" lon="2.0580910">
        <ele>369.4</ele>
        <time>2022-09-26T08:44:42Z</time>
      </trkpt>
      <trkpt lat="41.6785220" lon="2.0580750">
        <ele>369.2</ele>
        <time>2022-09-26T08:44:43Z</time>
      </trkpt>
      <trkpt lat="41.6784880" lon="2.0580490">
        <ele>368.8</ele>
        <time>2022-09-26T08:44:44Z</time>
      </trkpt>
      <trkpt lat="41.6784580" lon="2.0580240">
        <ele>368.6</ele>
        <time>2022-09-26T08:44:45Z</time>
      </trkpt>
      <trkpt lat="41.6784320" lon="2.0579980">
        <ele>368.4</ele>
        <time>2022-09-26T08:44:46Z</time>
      </trkpt>
      <trkpt lat="41.6784110" lon="2.0579730">
        <ele>368.2</ele>
        <time>2022-09-26T08:44:47Z</time>
      </trkpt>
      <trkpt lat="41.6783910" lon="2.0579490">
        <ele>368.0</ele>
        <time>2022-09-26T08:44:48Z</time>
      </trkpt>
      <trkpt lat="41.6783710" lon="2.0579120">
        <ele>367.8</ele>
        <time>2022-09-26T08:44:49Z</time>
      </trkpt>
      <trkpt lat="41.6783480" lon="2.0578700">
        <ele>367.6</ele>
        <time>2022-09-26T08:44:50Z</time>
      </trkpt>
      <trkpt lat="41.6783220" lon="2.0578250">
        <ele>367.2</ele>
        <time>2022-09-26T08:44:51Z</time>
      </trkpt>
      <trkpt lat="41.6782960" lon="2.0577810">
        <ele>367.0</ele>
        <time>2022-09-26T08:44:52Z</time>
      </trkpt>
      <trkpt lat="41.6782700" lon="2.0577390">
        <ele>366.8</ele>
        <time>2022-09-26T08:44:53Z</time>
      </trkpt>
      <trkpt lat="41.6782490" lon="2.0576990">
        <ele>366.6</ele>
        <time>2022-09-26T08:44:54Z</time>
      </trkpt>
      <trkpt lat="41.6782330" lon="2.0576520">
        <ele>366.6</ele>
        <time>2022-09-26T08:44:55Z</time>
      </trkpt>
      <trkpt lat="41.6782180" lon="2.0576010">
        <ele>366.6</ele>
        <time>2022-09-26T08:44:56Z</time>
      </trkpt>
      <trkpt lat="41.6782070" lon="2.0575520">
        <ele>366.6</ele>
        <time>2022-09-26T08:44:57Z</time>
      </trkpt>
      <trkpt lat="41.6782020" lon="2.0575060">
        <ele>366.6</ele>
        <time>2022-09-26T08:44:58Z</time>
      </trkpt>
      <trkpt lat="41.6782010" lon="2.0574660">
        <ele>366.6</ele>
        <time>2022-09-26T08:44:59Z</time>
      </trkpt>
      <trkpt lat="41.6782040" lon="2.0574320">
        <ele>366.6</ele>
        <time>2022-09-26T08:45:00Z</time>
      </trkpt>
      <trkpt lat="41.6782030" lon="2.0574010">
        <ele>366.6</ele>
        <time>2022-09-26T08:45:01Z</time>
      </trkpt>
      <trkpt lat="41.6782040" lon="2.0573700">
        <ele>366.6</ele>
        <time>2022-09-26T08:45:02Z</time>
      </trkpt>
      <trkpt lat="41.6782180" lon="2.0573470">
        <ele>366.8</ele>
        <time>2022-09-26T08:45:03Z</time>
      </trkpt>
      <trkpt lat="41.6782320" lon="2.0573270">
        <ele>366.8</ele>
        <time>2022-09-26T08:45:04Z</time>
      </trkpt>
      <trkpt lat="41.6782450" lon="2.0573110">
        <ele>367.0</ele>
        <time>2022-09-26T08:45:05Z</time>
      </trkpt>
      <trkpt lat="41.6782580" lon="2.0572970">
        <ele>367.0</ele>
        <time>2022-09-26T08:45:06Z</time>
      </trkpt>
      <trkpt lat="41.6782630" lon="2.0572830">
        <ele>367.0</ele>
        <time>2022-09-26T08:45:07Z</time>
      </trkpt>
      <trkpt lat="41.6782610" lon="2.0572760">
        <ele>367.0</ele>
        <time>2022-09-26T08:45:08Z</time>
      </trkpt>
      <trkpt lat="41.6782620" lon="2.0572710">
        <ele>367.2</ele>
        <time>2022-09-26T08:45:09Z</time>
      </trkpt>
      <trkpt lat="41.6783220" lon="2.0572710">
        <ele>367.6</ele>
        <time>2022-09-26T08:46:30Z</time>
      </trkpt>
      <trkpt lat="41.6783380" lon="2.0572700">
        <ele>367.6</ele>
        <time>2022-09-26T08:46:31Z</time>
      </trkpt>
      <trkpt lat="41.6783570" lon="2.0572600">
        <ele>367.6</ele>
        <time>2022-09-26T08:46:32Z</time>
      </trkpt>
      <trkpt lat="41.6783770" lon="2.0572460">
        <ele>367.6</ele>
        <time>2022-09-26T08:46:33Z</time>
      </trkpt>
      <trkpt lat="41.6783970" lon="2.0572270">
        <ele>367.4</ele>
        <time>2022-09-26T08:46:34Z</time>
      </trkpt>
      <trkpt lat="41.6784180" lon="2.0572060">
        <ele>367.4</ele>
        <time>2022-09-26T08:46:35Z</time>
      </trkpt>
      <trkpt lat="41.6784400" lon="2.0571830">
        <ele>367.4</ele>
        <time>2022-09-26T08:46:36Z</time>
      </trkpt>
      <trkpt lat="41.6784620" lon="2.0571570">
        <ele>367.2</ele>
        <time>2022-09-26T08:46:37Z</time>
      </trkpt>
      <trkpt lat="41.6784860" lon="2.0571290">
        <ele>367.4</ele>
        <time>2022-09-26T08:46:38Z</time>
      </trkpt>
      <trkpt lat="41.6785110" lon="2.0571020">
        <ele>367.4</ele>
        <time>2022-09-26T08:46:39Z</time>
      </trkpt>
      <trkpt lat="41.6785370" lon="2.0570740">
        <ele>367.4</ele>
        <time>2022-09-26T08:46:40Z</time>
      </trkpt>
      <trkpt lat="41.6785630" lon="2.0570470">
        <ele>367.6</ele>
        <time>2022-09-26T08:46:41Z</time>
      </trkpt>
      <trkpt lat="41.6785880" lon="2.0570200">
        <ele>367.6</ele>
        <time>2022-09-26T08:46:42Z</time>
      </trkpt>
      <trkpt lat="41.6786140" lon="2.0569920">
        <ele>367.8</ele>
        <time>2022-09-26T08:46:43Z</time>
      </trkpt>
      <trkpt lat="41.6786400" lon="2.0569670">
        <ele>367.8</ele>
        <time>2022-09-26T08:46:44Z</time>
      </trkpt>
      <trkpt lat="41.6786640" lon="2.0569410">
        <ele>368.0</ele>
        <time>2022-09-26T08:46:45Z</time>
      </trkpt>
      <trkpt lat="41.6786880" lon="2.0569160">
        <ele>368.2</ele>
        <time>2022-09-26T08:46:46Z</time>
      </trkpt>
      <trkpt lat="41.6787140" lon="2.0568930">
        <ele>368.4</ele>
        <time>2022-09-26T08:46:47Z</time>
      </trkpt>
      <trkpt lat="41.6787660" lon="2.0568480">
        <ele>368.6</ele>
        <time>2022-09-26T08:46:49Z</time>
      </trkpt>
      <trkpt lat="41.6787850" lon="2.0568170">
        <ele>368.6</ele>
        <time>2022-09-26T08:46:50Z</time>
      </trkpt>
      <trkpt lat="41.6788050" lon="2.0567940">
        <ele>368.6</ele>
        <time>2022-09-26T08:46:51Z</time>
      </trkpt>
      <trkpt lat="41.6788280" lon="2.0567830">
        <ele>368.6</ele>
        <time>2022-09-26T08:46:52Z</time>
      </trkpt>
      <trkpt lat="41.6788500" lon="2.0567740">
        <ele>368.6</ele>
        <time>2022-09-26T08:46:53Z</time>
      </trkpt>
      <trkpt lat="41.6788760" lon="2.0567650">
        <ele>368.6</ele>
        <time>2022-09-26T08:46:54Z</time>
      </trkpt>
      <trkpt lat="41.6789010" lon="2.0567560">
        <ele>368.8</ele>
        <time>2022-09-26T08:46:55Z</time>
      </trkpt>
      <trkpt lat="41.6789330" lon="2.0567500">
        <ele>368.8</ele>
        <time>2022-09-26T08:46:56Z</time>
      </trkpt>
      <trkpt lat="41.6789650" lon="2.0567450">
        <ele>368.8</ele>
        <time>2022-09-26T08:46:57Z</time>
      </trkpt>
      <trkpt lat="41.6789940" lon="2.0567340">
        <ele>369.0</ele>
        <time>2022-09-26T08:46:58Z</time>
      </trkpt>
      <trkpt lat="41.6790220" lon="2.0567230">
        <ele>369.0</ele>
        <time>2022-09-26T08:46:59Z</time>
      </trkpt>
      <trkpt lat="41.6790480" lon="2.0567130">
        <ele>369.2</ele>
        <time>2022-09-26T08:47:00Z</time>
      </trkpt>
      <trkpt lat="41.6790740" lon="2.0567040">
        <ele>369.2</ele>
        <time>2022-09-26T08:47:01Z</time>
      </trkpt>
      <trkpt lat="41.6791030" lon="2.0566970">
        <ele>369.2</ele>
        <time>2022-09-26T08:47:02Z</time>
      </trkpt>
      <trkpt lat="41.6791340" lon="2.0566920">
        <ele>369.4</ele>
        <time>2022-09-26T08:47:03Z</time>
      </trkpt>
      <trkpt lat="41.6791660" lon="2.0566900">
        <ele>369.4</ele>
        <time>2022-09-26T08:47:04Z</time>
      </trkpt>
      <trkpt lat="41.6791970" lon="2.0566870">
        <ele>369.4</ele>
        <time>2022-09-26T08:47:05Z</time>
      </trkpt>
      <trkpt lat="41.6792310" lon="2.0566860">
        <ele>369.4</ele>
        <time>2022-09-26T08:47:06Z</time>
      </trkpt>
      <trkpt lat="41.6792640" lon="2.0566860">
        <ele>369.4</ele>
        <time>2022-09-26T08:47:07Z</time>
      </trkpt>
      <trkpt lat="41.6793260" lon="2.0566820">
        <ele>369.4</ele>
        <time>2022-09-26T08:47:09Z</time>
      </trkpt>
      <trkpt lat="41.6793560" lon="2.0566810">
        <ele>369.6</ele>
        <time>2022-09-26T08:47:10Z</time>
      </trkpt>
      <trkpt lat="41.6793850" lon="2.0566810">
        <ele>369.8</ele>
        <time>2022-09-26T08:47:11Z</time>
      </trkpt>
      <trkpt lat="41.6794130" lon="2.0566830">
        <ele>369.8</ele>
        <time>2022-09-26T08:47:12Z</time>
      </trkpt>
      <trkpt lat="41.6794370" lon="2.0566810">
        <ele>370.0</ele>
        <time>2022-09-26T08:47:13Z</time>
      </trkpt>
      <trkpt lat="41.6794610" lon="2.0566790">
        <ele>370.0</ele>
        <time>2022-09-26T08:47:14Z</time>
      </trkpt>
      <trkpt lat="41.6794830" lon="2.0566810">
        <ele>370.0</ele>
        <time>2022-09-26T08:47:15Z</time>
      </trkpt>
      <trkpt lat="41.6795050" lon="2.0566870">
        <ele>369.8</ele>
        <time>2022-09-26T08:47:16Z</time>
      </trkpt>
      <trkpt lat="41.6795270" lon="2.0566900">
        <ele>369.8</ele>
        <time>2022-09-26T08:47:17Z</time>
      </trkpt>
      <trkpt lat="41.6795520" lon="2.0566910">
        <ele>369.8</ele>
        <time>2022-09-26T08:47:18Z</time>
      </trkpt>
      <trkpt lat="41.6795830" lon="2.0566890">
        <ele>369.6</ele>
        <time>2022-09-26T08:47:19Z</time>
      </trkpt>
      <trkpt lat="41.6796450" lon="2.0566700">
        <ele>369.6</ele>
        <time>2022-09-26T08:47:21Z</time>
      </trkpt>
      <trkpt lat="41.6796760" lon="2.0566540">
        <ele>369.8</ele>
        <time>2022-09-26T08:47:22Z</time>
      </trkpt>
      <trkpt lat="41.6797070" lon="2.0566430">
        <ele>369.8</ele>
        <time>2022-09-26T08:47:23Z</time>
      </trkpt>
      <trkpt lat="41.6797420" lon="2.0566330">
        <ele>369.8</ele>
        <time>2022-09-26T08:47:24Z</time>
      </trkpt>
      <trkpt lat="41.6797780" lon="2.0566220">
        <ele>370.0</ele>
        <time>2022-09-26T08:47:25Z</time>
      </trkpt>
      <trkpt lat="41.6798120" lon="2.0566120">
        <ele>370.0</ele>
        <time>2022-09-26T08:47:26Z</time>
      </trkpt>
      <trkpt lat="41.6798490" lon="2.0566070">
        <ele>370.2</ele>
        <time>2022-09-26T08:47:27Z</time>
      </trkpt>
      <trkpt lat="41.6798820" lon="2.0565990">
        <ele>370.0</ele>
        <time>2022-09-26T08:47:28Z</time>
      </trkpt>
      <trkpt lat="41.6799110" lon="2.0565870">
        <ele>370.0</ele>
        <time>2022-09-26T08:47:29Z</time>
      </trkpt>
      <trkpt lat="41.6799380" lon="2.0565690">
        <ele>370.0</ele>
        <time>2022-09-26T08:47:30Z</time>
      </trkpt>
      <trkpt lat="41.6799610" lon="2.0565490">
        <ele>370.2</ele>
        <time>2022-09-26T08:47:31Z</time>
      </trkpt>
      <trkpt lat="41.6799930" lon="2.0565250">
        <ele>370.2</ele>
        <time>2022-09-26T08:47:33Z</time>
      </trkpt>
      <trkpt lat="41.6800110" lon="2.0565130">
        <ele>370.4</ele>
        <time>2022-09-26T08:47:34Z</time>
      </trkpt>
      <trkpt lat="41.6800320" lon="2.0565040">
        <ele>370.4</ele>
        <time>2022-09-26T08:47:35Z</time>
      </trkpt>
      <trkpt lat="41.6800540" lon="2.0564940">
        <ele>370.4</ele>
        <time>2022-09-26T08:47:36Z</time>
      </trkpt>
      <trkpt lat="41.6800800" lon="2.0564880">
        <ele>370.6</ele>
        <time>2022-09-26T08:47:37Z</time>
      </trkpt>
      <trkpt lat="41.6801310" lon="2.0564700">
        <ele>370.8</ele>
        <time>2022-09-26T08:47:39Z</time>
      </trkpt>
      <trkpt lat="41.6801610" lon="2.0564560">
        <ele>371.0</ele>
        <time>2022-09-26T08:47:40Z</time>
      </trkpt>
      <trkpt lat="41.6801920" lon="2.0564430">
        <ele>371.0</ele>
        <time>2022-09-26T08:47:41Z</time>
      </trkpt>
      <trkpt lat="41.6802270" lon="2.0564290">
        <ele>371.0</ele>
        <time>2022-09-26T08:47:42Z</time>
      </trkpt>
      <trkpt lat="41.6802650" lon="2.0564170">
        <ele>370.8</ele>
        <time>2022-09-26T08:47:43Z</time>
      </trkpt>
      <trkpt lat="41.6803230" lon="2.0563980">
        <ele>370.8</ele>
        <time>2022-09-26T08:47:45Z</time>
      </trkpt>
      <trkpt lat="41.6803530" lon="2.0563930">
        <ele>370.8</ele>
        <time>2022-09-26T08:47:46Z</time>
      </trkpt>
      <trkpt lat="41.6803840" lon="2.0563850">
        <ele>370.8</ele>
        <time>2022-09-26T08:47:47Z</time>
      </trkpt>
      <trkpt lat="41.6804130" lon="2.0563720">
        <ele>370.8</ele>
        <time>2022-09-26T08:47:48Z</time>
      </trkpt>
      <trkpt lat="41.6804440" lon="2.0563580">
        <ele>371.0</ele>
        <time>2022-09-26T08:47:49Z</time>
      </trkpt>
      <trkpt lat="41.6804790" lon="2.0563420">
        <ele>371.2</ele>
        <time>2022-09-26T08:47:50Z</time>
      </trkpt>
      <trkpt lat="41.6805110" lon="2.0563250">
        <ele>371.6</ele>
        <time>2022-09-26T08:47:51Z</time>
      </trkpt>
      <trkpt lat="41.6805460" lon="2.0563110">
        <ele>371.8</ele>
        <time>2022-09-26T08:47:52Z</time>
      </trkpt>
      <trkpt lat="41.6805820" lon="2.0562980">
        <ele>371.8</ele>
        <time>2022-09-26T08:47:53Z</time>
      </trkpt>
      <trkpt lat="41.6806170" lon="2.0562850">
        <ele>371.8</ele>
        <time>2022-09-26T08:47:54Z</time>
      </trkpt>
      <trkpt lat="41.6806520" lon="2.0562700">
        <ele>371.8</ele>
        <time>2022-09-26T08:47:55Z</time>
      </trkpt>
      <trkpt lat="41.6807180" lon="2.0562450">
        <ele>371.8</ele>
        <time>2022-09-26T08:47:57Z</time>
      </trkpt>
      <trkpt lat="41.6807370" lon="2.0562150">
        <ele>371.8</ele>
        <time>2022-09-26T08:47:58Z</time>
      </trkpt>
      <trkpt lat="41.6807540" lon="2.0561920">
        <ele>371.8</ele>
        <time>2022-09-26T08:47:59Z</time>
      </trkpt>
      <trkpt lat="41.6807640" lon="2.0561560">
        <ele>371.8</ele>
        <time>2022-09-26T08:48:00Z</time>
      </trkpt>
      <trkpt lat="41.6807710" lon="2.0561170">
        <ele>372.0</ele>
        <time>2022-09-26T08:48:01Z</time>
      </trkpt>
      <trkpt lat="41.6807790" lon="2.0560810">
        <ele>372.0</ele>
        <time>2022-09-26T08:48:02Z</time>
      </trkpt>
      <trkpt lat="41.6807880" lon="2.0560440">
        <ele>372.2</ele>
        <time>2022-09-26T08:48:03Z</time>
      </trkpt>
      <trkpt lat="41.6807940" lon="2.0560060">
        <ele>372.2</ele>
        <time>2022-09-26T08:48:04Z</time>
      </trkpt>
      <trkpt lat="41.6807990" lon="2.0559650">
        <ele>372.4</ele>
        <time>2022-09-26T08:48:05Z</time>
      </trkpt>
      <trkpt lat="41.6808070" lon="2.0559270">
        <ele>372.8</ele>
        <time>2022-09-26T08:48:06Z</time>
      </trkpt>
      <trkpt lat="41.6808180" lon="2.0558890">
        <ele>373.0</ele>
        <time>2022-09-26T08:48:07Z</time>
      </trkpt>
      <trkpt lat="41.6808320" lon="2.0558090">
        <ele>373.4</ele>
        <time>2022-09-26T08:48:09Z</time>
      </trkpt>
      <trkpt lat="41.6808420" lon="2.0557710">
        <ele>373.6</ele>
        <time>2022-09-26T08:48:10Z</time>
      </trkpt>
      <trkpt lat="41.6808560" lon="2.0557370">
        <ele>373.8</ele>
        <time>2022-09-26T08:48:11Z</time>
      </trkpt>
      <trkpt lat="41.6808750" lon="2.0557090">
        <ele>374.0</ele>
        <time>2022-09-26T08:48:12Z</time>
      </trkpt>
      <trkpt lat="41.6808900" lon="2.0556820">
        <ele>374.0</ele>
        <time>2022-09-26T08:48:13Z</time>
      </trkpt>
      <trkpt lat="41.6809080" lon="2.0556670">
        <ele>374.2</ele>
        <time>2022-09-26T08:48:14Z</time>
      </trkpt>
      <trkpt lat="41.6809300" lon="2.0556520">
        <ele>374.4</ele>
        <time>2022-09-26T08:48:15Z</time>
      </trkpt>
      <trkpt lat="41.6809530" lon="2.0556320">
        <ele>374.6</ele>
        <time>2022-09-26T08:48:16Z</time>
      </trkpt>
      <trkpt lat="41.6809720" lon="2.0556060">
        <ele>374.6</ele>
        <time>2022-09-26T08:48:17Z</time>
      </trkpt>
      <trkpt lat="41.6810000" lon="2.0555860">
        <ele>374.8</ele>
        <time>2022-09-26T08:48:18Z</time>
      </trkpt>
      <trkpt lat="41.6810310" lon="2.0555710">
        <ele>374.8</ele>
        <time>2022-09-26T08:48:19Z</time>
      </trkpt>
      <trkpt lat="41.6810950" lon="2.0555490">
        <ele>374.8</ele>
        <time>2022-09-26T08:48:21Z</time>
      </trkpt>
      <trkpt lat="41.6811240" lon="2.0555380">
        <ele>374.8</ele>
        <time>2022-09-26T08:48:22Z</time>
      </trkpt>
      <trkpt lat="41.6811510" lon="2.0555280">
        <ele>374.6</ele>
        <time>2022-09-26T08:48:23Z</time>
      </trkpt>
      <trkpt lat="41.6811800" lon="2.0555180">
        <ele>374.6</ele>
        <time>2022-09-26T08:48:24Z</time>
      </trkpt>
      <trkpt lat="41.6812100" lon="2.0555070">
        <ele>374.6</ele>
        <time>2022-09-26T08:48:25Z</time>
      </trkpt>
      <trkpt lat="41.6812620" lon="2.0554740">
        <ele>374.6</ele>
        <time>2022-09-26T08:48:27Z</time>
      </trkpt>
      <trkpt lat="41.6812860" lon="2.0554600">
        <ele>374.6</ele>
        <time>2022-09-26T08:48:28Z</time>
      </trkpt>
      <trkpt lat="41.6813150" lon="2.0554480">
        <ele>374.6</ele>
        <time>2022-09-26T08:48:29Z</time>
      </trkpt>
      <trkpt lat="41.6813400" lon="2.0554350">
        <ele>374.6</ele>
        <time>2022-09-26T08:48:30Z</time>
      </trkpt>
      <trkpt lat="41.6813680" lon="2.0554200">
        <ele>374.8</ele>
        <time>2022-09-26T08:48:31Z</time>
      </trkpt>
      <trkpt lat="41.6814330" lon="2.0553900">
        <ele>375.0</ele>
        <time>2022-09-26T08:48:33Z</time>
      </trkpt>
      <trkpt lat="41.6814670" lon="2.0553780">
        <ele>375.2</ele>
        <time>2022-09-26T08:48:34Z</time>
      </trkpt>
      <trkpt lat="41.6814950" lon="2.0553630">
        <ele>375.2</ele>
        <time>2022-09-26T08:48:35Z</time>
      </trkpt>
      <trkpt lat="41.6815270" lon="2.0553470">
        <ele>375.4</ele>
        <time>2022-09-26T08:48:36Z</time>
      </trkpt>
      <trkpt lat="41.6815620" lon="2.0553360">
        <ele>375.4</ele>
        <time>2022-09-26T08:48:37Z</time>
      </trkpt>
      <trkpt lat="41.6816010" lon="2.0553260">
        <ele>375.6</ele>
        <time>2022-09-26T08:48:38Z</time>
      </trkpt>
      <trkpt lat="41.6816390" lon="2.0553150">
        <ele>375.6</ele>
        <time>2022-09-26T08:48:39Z</time>
      </trkpt>
      <trkpt lat="41.6816800" lon="2.0553030">
        <ele>375.8</ele>
        <time>2022-09-26T08:48:40Z</time>
      </trkpt>
      <trkpt lat="41.6817160" lon="2.0552910">
        <ele>375.8</ele>
        <time>2022-09-26T08:48:41Z</time>
      </trkpt>
      <trkpt lat="41.6817890" lon="2.0552710">
        <ele>375.8</ele>
        <time>2022-09-26T08:48:43Z</time>
      </trkpt>
      <trkpt lat="41.6818510" lon="2.0552330">
        <ele>376.0</ele>
        <time>2022-09-26T08:48:45Z</time>
      </trkpt>
      <trkpt lat="41.6818800" lon="2.0552100">
        <ele>376.0</ele>
        <time>2022-09-26T08:48:46Z</time>
      </trkpt>
      <trkpt lat="41.6819070" lon="2.0551870">
        <ele>376.2</ele>
        <time>2022-09-26T08:48:47Z</time>
      </trkpt>
      <trkpt lat="41.6819370" lon="2.0551680">
        <ele>376.4</ele>
        <time>2022-09-26T08:48:48Z</time>
      </trkpt>
      <trkpt lat="41.6819700" lon="2.0551490">
        <ele>376.4</ele>
        <time>2022-09-26T08:48:49Z</time>
      </trkpt>
      <trkpt lat="41.6820000" lon="2.0551330">
        <ele>376.4</ele>
        <time>2022-09-26T08:48:50Z</time>
      </trkpt>
      <trkpt lat="41.6820330" lon="2.0551210">
        <ele>376.4</ele>
        <time>2022-09-26T08:48:51Z</time>
      </trkpt>
      <trkpt lat="41.6820640" lon="2.0551110">
        <ele>376.8</ele>
        <time>2022-09-26T08:48:52Z</time>
      </trkpt>
      <trkpt lat="41.6820930" lon="2.0551040">
        <ele>376.8</ele>
        <time>2022-09-26T08:48:53Z</time>
      </trkpt>
      <trkpt lat="41.6821230" lon="2.0551000">
        <ele>377.0</ele>
        <time>2022-09-26T08:48:54Z</time>
      </trkpt>
      <trkpt lat="41.6821540" lon="2.0550930">
        <ele>377.2</ele>
        <time>2022-09-26T08:48:55Z</time>
      </trkpt>
      <trkpt lat="41.6821850" lon="2.0550910">
        <ele>377.4</ele>
        <time>2022-09-26T08:48:56Z</time>
      </trkpt>
      <trkpt lat="41.6822150" lon="2.0550880">
        <ele>377.4</ele>
        <time>2022-09-26T08:48:57Z</time>
      </trkpt>
      <trkpt lat="41.6822440" lon="2.0550840">
        <ele>377.6</ele>
        <time>2022-09-26T08:48:58Z</time>
      </trkpt>
      <trkpt lat="41.6822680" lon="2.0550750">
        <ele>377.8</ele>
        <time>2022-09-26T08:48:59Z</time>
      </trkpt>
      <trkpt lat="41.6822950" lon="2.0550710">
        <ele>377.8</ele>
        <time>2022-09-26T08:49:00Z</time>
      </trkpt>
      <trkpt lat="41.6823130" lon="2.0550670">
        <ele>378.0</ele>
        <time>2022-09-26T08:49:01Z</time>
      </trkpt>
      <trkpt lat="41.6823200" lon="2.0550650">
        <ele>378.0</ele>
        <time>2022-09-26T08:49:02Z</time>
      </trkpt>
      <trkpt lat="41.6823230" lon="2.0550640">
        <ele>378.2</ele>
        <time>2022-09-26T08:49:03Z</time>
      </trkpt>
      <trkpt lat="41.6823860" lon="2.0550630">
        <ele>378.8</ele>
        <time>2022-09-26T08:49:27Z</time>
      </trkpt>
      <trkpt lat="41.6824080" lon="2.0550560">
        <ele>378.8</ele>
        <time>2022-09-26T08:49:28Z</time>
      </trkpt>
      <trkpt lat="41.6824340" lon="2.0550430">
        <ele>378.8</ele>
        <time>2022-09-26T08:49:29Z</time>
      </trkpt>
      <trkpt lat="41.6824610" lon="2.0550310">
        <ele>378.8</ele>
        <time>2022-09-26T08:49:30Z</time>
      </trkpt>
      <trkpt lat="41.6824880" lon="2.0550200">
        <ele>379.0</ele>
        <time>2022-09-26T08:49:31Z</time>
      </trkpt>
      <trkpt lat="41.6825150" lon="2.0550080">
        <ele>379.0</ele>
        <time>2022-09-26T08:49:32Z</time>
      </trkpt>
      <trkpt lat="41.6825410" lon="2.0549910">
        <ele>379.0</ele>
        <time>2022-09-26T08:49:33Z</time>
      </trkpt>
      <trkpt lat="41.6825640" lon="2.0549720">
        <ele>379.0</ele>
        <time>2022-09-26T08:49:34Z</time>
      </trkpt>
      <trkpt lat="41.6825920" lon="2.0549590">
        <ele>379.0</ele>
        <time>2022-09-26T08:49:35Z</time>
      </trkpt>
      <trkpt lat="41.6826220" lon="2.0549480">
        <ele>379.2</ele>
        <time>2022-09-26T08:49:36Z</time>
      </trkpt>
      <trkpt lat="41.6826490" lon="2.0549380">
        <ele>379.2</ele>
        <time>2022-09-26T08:49:37Z</time>
      </trkpt>
      <trkpt lat="41.6826740" lon="2.0549260">
        <ele>379.2</ele>
        <time>2022-09-26T08:49:38Z</time>
      </trkpt>
      <trkpt lat="41.6827010" lon="2.0549170">
        <ele>379.2</ele>
        <time>2022-09-26T08:49:39Z</time>
      </trkpt>
      <trkpt lat="41.6827290" lon="2.0549070">
        <ele>379.2</ele>
        <time>2022-09-26T08:49:40Z</time>
      </trkpt>
      <trkpt lat="41.6827600" lon="2.0549010">
        <ele>379.4</ele>
        <time>2022-09-26T08:49:41Z</time>
      </trkpt>
      <trkpt lat="41.6827940" lon="2.0549000">
        <ele>379.6</ele>
        <time>2022-09-26T08:49:42Z</time>
      </trkpt>
      <trkpt lat="41.6828270" lon="2.0548990">
        <ele>379.4</ele>
        <time>2022-09-26T08:49:43Z</time>
      </trkpt>
      <trkpt lat="41.6828610" lon="2.0549000">
        <ele>379.4</ele>
        <time>2022-09-26T08:49:44Z</time>
      </trkpt>
      <trkpt lat="41.6828940" lon="2.0549050">
        <ele>379.4</ele>
        <time>2022-09-26T08:49:45Z</time>
      </trkpt>
      <trkpt lat="41.6829620" lon="2.0549250">
        <ele>379.6</ele>
        <time>2022-09-26T08:49:47Z</time>
      </trkpt>
      <trkpt lat="41.6830270" lon="2.0549580">
        <ele>379.8</ele>
        <time>2022-09-26T08:49:49Z</time>
      </trkpt>
      <trkpt lat="41.6830630" lon="2.0549770">
        <ele>380.0</ele>
        <time>2022-09-26T08:49:50Z</time>
      </trkpt>
      <trkpt lat="41.6831000" lon="2.0549960">
        <ele>380.2</ele>
        <time>2022-09-26T08:49:51Z</time>
      </trkpt>
      <trkpt lat="41.6831350" lon="2.0550170">
        <ele>380.2</ele>
        <time>2022-09-26T08:49:52Z</time>
      </trkpt>
      <trkpt lat="41.6831730" lon="2.0550390">
        <ele>380.4</ele>
        <time>2022-09-26T08:49:53Z</time>
      </trkpt>
      <trkpt lat="41.6832500" lon="2.0550860">
        <ele>380.4</ele>
        <time>2022-09-26T08:49:55Z</time>
      </trkpt>
      <trkpt lat="41.6832890" lon="2.0551080">
        <ele>380.2</ele>
        <time>2022-09-26T08:49:56Z</time>
      </trkpt>
      <trkpt lat="41.6833280" lon="2.0551290">
        <ele>380.4</ele>
        <time>2022-09-26T08:49:57Z</time>
      </trkpt>
      <trkpt lat="41.6833650" lon="2.0551500">
        <ele>380.4</ele>
        <time>2022-09-26T08:49:58Z</time>
      </trkpt>
      <trkpt lat="41.6834010" lon="2.0551720">
        <ele>380.6</ele>
        <time>2022-09-26T08:49:59Z</time>
      </trkpt>
      <trkpt lat="41.6834760" lon="2.0552140">
        <ele>380.8</ele>
        <time>2022-09-26T08:50:01Z</time>
      </trkpt>
      <trkpt lat="41.6835130" lon="2.0552350">
        <ele>380.8</ele>
        <time>2022-09-26T08:50:02Z</time>
      </trkpt>
      <trkpt lat="41.6835510" lon="2.0552550">
        <ele>380.8</ele>
        <time>2022-09-26T08:50:03Z</time>
      </trkpt>
      <trkpt lat="41.6836260" lon="2.0552890">
        <ele>381.2</ele>
        <time>2022-09-26T08:50:05Z</time>
      </trkpt>
      <trkpt lat="41.6836950" lon="2.0553280">
        <ele>381.4</ele>
        <time>2022-09-26T08:50:07Z</time>
      </trkpt>
      <trkpt lat="41.6837310" lon="2.0553480">
        <ele>381.6</ele>
        <time>2022-09-26T08:50:08Z</time>
      </trkpt>
      <trkpt lat="41.6837660" lon="2.0553680">
        <ele>381.8</ele>
        <time>2022-09-26T08:50:09Z</time>
      </trkpt>
      <trkpt lat="41.6838000" lon="2.0553880">
        <ele>381.8</ele>
        <time>2022-09-26T08:50:10Z</time>
      </trkpt>
      <trkpt lat="41.6838360" lon="2.0554090">
        <ele>381.8</ele>
        <time>2022-09-26T08:50:11Z</time>
      </trkpt>
      <trkpt lat="41.6839080" lon="2.0554490">
        <ele>382.0</ele>
        <time>2022-09-26T08:50:13Z</time>
      </trkpt>
      <trkpt lat="41.6839450" lon="2.0554680">
        <ele>382.2</ele>
        <time>2022-09-26T08:50:14Z</time>
      </trkpt>
      <trkpt lat="41.6839840" lon="2.0554820">
        <ele>382.2</ele>
        <time>2022-09-26T08:50:15Z</time>
      </trkpt>
      <trkpt lat="41.6840630" lon="2.0554990">
        <ele>382.6</ele>
        <time>2022-09-26T08:50:17Z</time>
      </trkpt>
      <trkpt lat="41.6841400" lon="2.0554920">
        <ele>383.0</ele>
        <time>2022-09-26T08:50:19Z</time>
      </trkpt>
      <trkpt lat="41.6841770" lon="2.0554810">
        <ele>383.0</ele>
        <time>2022-09-26T08:50:20Z</time>
      </trkpt>
      <trkpt lat="41.6842130" lon="2.0554650">
        <ele>383.0</ele>
        <time>2022-09-26T08:50:21Z</time>
      </trkpt>
      <trkpt lat="41.6842490" lon="2.0554460">
        <ele>383.2</ele>
        <time>2022-09-26T08:50:22Z</time>
      </trkpt>
      <trkpt lat="41.6842860" lon="2.0554230">
        <ele>383.2</ele>
        <time>2022-09-26T08:50:23Z</time>
      </trkpt>
      <trkpt lat="41.6843220" lon="2.0554000">
        <ele>383.4</ele>
        <time>2022-09-26T08:50:24Z</time>
      </trkpt>
      <trkpt lat="41.6843590" lon="2.0553780">
        <ele>383.4</ele>
        <time>2022-09-26T08:50:25Z</time>
      </trkpt>
      <trkpt lat="41.6843960" lon="2.0553570">
        <ele>383.4</ele>
        <time>2022-09-26T08:50:26Z</time>
      </trkpt>
      <trkpt lat="41.6844310" lon="2.0553400">
        <ele>383.6</ele>
        <time>2022-09-26T08:50:27Z</time>
      </trkpt>
      <trkpt lat="41.6845000" lon="2.0553130">
        <ele>383.6</ele>
        <time>2022-09-26T08:50:29Z</time>
      </trkpt>
      <trkpt lat="41.6845350" lon="2.0553030">
        <ele>383.8</ele>
        <time>2022-09-26T08:50:30Z</time>
      </trkpt>
      <trkpt lat="41.6845710" lon="2.0552940">
        <ele>384.0</ele>
        <time>2022-09-26T08:50:31Z</time>
      </trkpt>
      <trkpt lat="41.6846070" lon="2.0552890">
        <ele>384.2</ele>
        <time>2022-09-26T08:50:32Z</time>
      </trkpt>
      <trkpt lat="41.6846420" lon="2.0552880">
        <ele>384.2</ele>
        <time>2022-09-26T08:50:33Z</time>
      </trkpt>
      <trkpt lat="41.6847150" lon="2.0552950">
        <ele>384.4</ele>
        <time>2022-09-26T08:50:35Z</time>
      </trkpt>
      <trkpt lat="41.6847480" lon="2.0553010">
        <ele>384.6</ele>
        <time>2022-09-26T08:50:36Z</time>
      </trkpt>
      <trkpt lat="41.6847810" lon="2.0553100">
        <ele>384.8</ele>
        <time>2022-09-26T08:50:37Z</time>
      </trkpt>
      <trkpt lat="41.6848160" lon="2.0553220">
        <ele>385.0</ele>
        <time>2022-09-26T08:50:38Z</time>
      </trkpt>
      <trkpt lat="41.6848500" lon="2.0553380">
        <ele>385.2</ele>
        <time>2022-09-26T08:50:39Z</time>
      </trkpt>
      <trkpt lat="41.6848850" lon="2.0553560">
        <ele>385.4</ele>
        <time>2022-09-26T08:50:40Z</time>
      </trkpt>
      <trkpt lat="41.6849180" lon="2.0553750">
        <ele>385.6</ele>
        <time>2022-09-26T08:50:41Z</time>
      </trkpt>
      <trkpt lat="41.6849900" lon="2.0554100">
        <ele>386.0</ele>
        <time>2022-09-26T08:50:43Z</time>
      </trkpt>
      <trkpt lat="41.6850250" lon="2.0554290">
        <ele>386.0</ele>
        <time>2022-09-26T08:50:44Z</time>
      </trkpt>
      <trkpt lat="41.6850590" lon="2.0554480">
        <ele>386.2</ele>
        <time>2022-09-26T08:50:45Z</time>
      </trkpt>
      <trkpt lat="41.6851270" lon="2.0554870">
        <ele>386.6</ele>
        <time>2022-09-26T08:50:47Z</time>
      </trkpt>
      <trkpt lat="41.6851610" lon="2.0555050">
        <ele>386.8</ele>
        <time>2022-09-26T08:50:48Z</time>
      </trkpt>
      <trkpt lat="41.6851950" lon="2.0555220">
        <ele>387.0</ele>
        <time>2022-09-26T08:50:49Z</time>
      </trkpt>
      <trkpt lat="41.6852270" lon="2.0555390">
        <ele>387.0</ele>
        <time>2022-09-26T08:50:50Z</time>
      </trkpt>
      <trkpt lat="41.6852610" lon="2.0555570">
        <ele>387.2</ele>
        <time>2022-09-26T08:50:51Z</time>
      </trkpt>
      <trkpt lat="41.6853270" lon="2.0555980">
        <ele>387.6</ele>
        <time>2022-09-26T08:50:53Z</time>
      </trkpt>
      <trkpt lat="41.6853900" lon="2.0556480">
        <ele>388.0</ele>
        <time>2022-09-26T08:50:55Z</time>
      </trkpt>
      <trkpt lat="41.6854180" lon="2.0556750">
        <ele>388.2</ele>
        <time>2022-09-26T08:50:56Z</time>
      </trkpt>
      <trkpt lat="41.6854450" lon="2.0557020">
        <ele>388.4</ele>
        <time>2022-09-26T08:50:57Z</time>
      </trkpt>
      <trkpt lat="41.6855020" lon="2.0557540">
        <ele>388.4</ele>
        <time>2022-09-26T08:50:59Z</time>
      </trkpt>
      <trkpt lat="41.6855590" lon="2.0558040">
        <ele>388.8</ele>
        <time>2022-09-26T08:51:01Z</time>
      </trkpt>
      <trkpt lat="41.6855870" lon="2.0558270">
        <ele>388.8</ele>
        <time>2022-09-26T08:51:02Z</time>
      </trkpt>
      <trkpt lat="41.6856140" lon="2.0558490">
        <ele>389.0</ele>
        <time>2022-09-26T08:51:03Z</time>
      </trkpt>
      <trkpt lat="41.6856390" lon="2.0558700">
        <ele>389.2</ele>
        <time>2022-09-26T08:51:04Z</time>
      </trkpt>
      <trkpt lat="41.6856650" lon="2.0558880">
        <ele>389.4</ele>
        <time>2022-09-26T08:51:05Z</time>
      </trkpt>
      <trkpt lat="41.6856950" lon="2.0558970">
        <ele>389.6</ele>
        <time>2022-09-26T08:51:06Z</time>
      </trkpt>
      <trkpt lat="41.6857270" lon="2.0559060">
        <ele>389.6</ele>
        <time>2022-09-26T08:51:07Z</time>
      </trkpt>
      <trkpt lat="41.6857570" lon="2.0559150">
        <ele>389.8</ele>
        <time>2022-09-26T08:51:08Z</time>
      </trkpt>
      <trkpt lat="41.6857890" lon="2.0559230">
        <ele>389.8</ele>
        <time>2022-09-26T08:51:09Z</time>
      </trkpt>
      <trkpt lat="41.6858490" lon="2.0559300">
        <ele>390.4</ele>
        <time>2022-09-26T08:51:11Z</time>
      </trkpt>
      <trkpt lat="41.6858790" lon="2.0559330">
        <ele>390.6</ele>
        <time>2022-09-26T08:51:12Z</time>
      </trkpt>
      <trkpt lat="41.6859080" lon="2.0559350">
        <ele>390.6</ele>
        <time>2022-09-26T08:51:13Z</time>
      </trkpt>
      <trkpt lat="41.6859370" lon="2.0559390">
        <ele>390.8</ele>
        <time>2022-09-26T08:51:14Z</time>
      </trkpt>
      <trkpt lat="41.6859650" lon="2.0559420">
        <ele>391.0</ele>
        <time>2022-09-26T08:51:15Z</time>
      </trkpt>
      <trkpt lat="41.6859940" lon="2.0559460">
        <ele>391.4</ele>
        <time>2022-09-26T08:51:16Z</time>
      </trkpt>
      <trkpt lat="41.6860230" lon="2.0559480">
        <ele>391.6</ele>
        <time>2022-09-26T08:51:17Z</time>
      </trkpt>
      <trkpt lat="41.6860850" lon="2.0559540">
        <ele>391.8</ele>
        <time>2022-09-26T08:51:19Z</time>
      </trkpt>
      <trkpt lat="41.6861180" lon="2.0559580">
        <ele>392.0</ele>
        <time>2022-09-26T08:51:20Z</time>
      </trkpt>
      <trkpt lat="41.6861500" lon="2.0559630">
        <ele>392.2</ele>
        <time>2022-09-26T08:51:21Z</time>
      </trkpt>
      <trkpt lat="41.6861810" lon="2.0559640">
        <ele>392.4</ele>
        <time>2022-09-26T08:51:22Z</time>
      </trkpt>
      <trkpt lat="41.6862100" lon="2.0559630">
        <ele>392.6</ele>
        <time>2022-09-26T08:51:23Z</time>
      </trkpt>
      <trkpt lat="41.6862410" lon="2.0559590">
        <ele>393.0</ele>
        <time>2022-09-26T08:51:24Z</time>
      </trkpt>
      <trkpt lat="41.6862740" lon="2.0559550">
        <ele>393.0</ele>
        <time>2022-09-26T08:51:25Z</time>
      </trkpt>
      <trkpt lat="41.6863080" lon="2.0559530">
        <ele>393.2</ele>
        <time>2022-09-26T08:51:26Z</time>
      </trkpt>
      <trkpt lat="41.6863440" lon="2.0559470">
        <ele>393.4</ele>
        <time>2022-09-26T08:51:27Z</time>
      </trkpt>
      <trkpt lat="41.6863810" lon="2.0559410">
        <ele>393.6</ele>
        <time>2022-09-26T08:51:28Z</time>
      </trkpt>
      <trkpt lat="41.6864160" lon="2.0559350">
        <ele>393.8</ele>
        <time>2022-09-26T08:51:29Z</time>
      </trkpt>
      <trkpt lat="41.6864840" lon="2.0559210">
        <ele>394.2</ele>
        <time>2022-09-26T08:51:31Z</time>
      </trkpt>
      <trkpt lat="41.6865150" lon="2.0559140">
        <ele>394.4</ele>
        <time>2022-09-26T08:51:32Z</time>
      </trkpt>
      <trkpt lat="41.6865480" lon="2.0559080">
        <ele>394.6</ele>
        <time>2022-09-26T08:51:33Z</time>
      </trkpt>
      <trkpt lat="41.6865820" lon="2.0559020">
        <ele>394.6</ele>
        <time>2022-09-26T08:51:34Z</time>
      </trkpt>
      <trkpt lat="41.6866160" lon="2.0558970">
        <ele>394.8</ele>
        <time>2022-09-26T08:51:35Z</time>
      </trkpt>
      <trkpt lat="41.6866490" lon="2.0558880">
        <ele>395.0</ele>
        <time>2022-09-26T08:51:36Z</time>
      </trkpt>
      <trkpt lat="41.6866860" lon="2.0558820">
        <ele>395.0</ele>
        <time>2022-09-26T08:51:37Z</time>
      </trkpt>
      <trkpt lat="41.6867220" lon="2.0558740">
        <ele>395.2</ele>
        <time>2022-09-26T08:51:38Z</time>
      </trkpt>
      <trkpt lat="41.6867510" lon="2.0558660">
        <ele>395.2</ele>
        <time>2022-09-26T08:51:39Z</time>
      </trkpt>
      <trkpt lat="41.6867830" lon="2.0558620">
        <ele>395.4</ele>
        <time>2022-09-26T08:51:40Z</time>
      </trkpt>
      <trkpt lat="41.6868170" lon="2.0558600">
        <ele>395.8</ele>
        <time>2022-09-26T08:51:41Z</time>
      </trkpt>
      <trkpt lat="41.6868530" lon="2.0558560">
        <ele>395.8</ele>
        <time>2022-09-26T08:51:42Z</time>
      </trkpt>
      <trkpt lat="41.6868900" lon="2.0558510">
        <ele>396.0</ele>
        <time>2022-09-26T08:51:43Z</time>
      </trkpt>
      <trkpt lat="41.6869260" lon="2.0558450">
        <ele>396.0</ele>
        <time>2022-09-26T08:51:44Z</time>
      </trkpt>
      <trkpt lat="41.6869600" lon="2.0558400">
        <ele>396.2</ele>
        <time>2022-09-26T08:51:45Z</time>
      </trkpt>
      <trkpt lat="41.6870250" lon="2.0558280">
        <ele>396.2</ele>
        <time>2022-09-26T08:51:47Z</time>
      </trkpt>
      <trkpt lat="41.6870570" lon="2.0558230">
        <ele>396.4</ele>
        <time>2022-09-26T08:51:48Z</time>
      </trkpt>
      <trkpt lat="41.6870870" lon="2.0558160">
        <ele>396.4</ele>
        <time>2022-09-26T08:51:49Z</time>
      </trkpt>
      <trkpt lat="41.6871200" lon="2.0558110">
        <ele>396.6</ele>
        <time>2022-09-26T08:51:50Z</time>
      </trkpt>
      <trkpt lat="41.6871540" lon="2.0558060">
        <ele>396.8</ele>
        <time>2022-09-26T08:51:51Z</time>
      </trkpt>
      <trkpt lat="41.6871850" lon="2.0557980">
        <ele>396.8</ele>
        <time>2022-09-26T08:51:52Z</time>
      </trkpt>
      <trkpt lat="41.6872150" lon="2.0557910">
        <ele>397.0</ele>
        <time>2022-09-26T08:51:53Z</time>
      </trkpt>
      <trkpt lat="41.6872450" lon="2.0557840">
        <ele>397.2</ele>
        <time>2022-09-26T08:51:54Z</time>
      </trkpt>
      <trkpt lat="41.6872790" lon="2.0557770">
        <ele>397.4</ele>
        <time>2022-09-26T08:51:55Z</time>
      </trkpt>
      <trkpt lat="41.6873110" lon="2.0557710">
        <ele>397.6</ele>
        <time>2022-09-26T08:51:56Z</time>
      </trkpt>
      <trkpt lat="41.6873420" lon="2.0557650">
        <ele>397.6</ele>
        <time>2022-09-26T08:51:57Z</time>
      </trkpt>
      <trkpt lat="41.6873760" lon="2.0557570">
        <ele>397.8</ele>
        <time>2022-09-26T08:51:58Z</time>
      </trkpt>
      <trkpt lat="41.6874090" lon="2.0557490">
        <ele>398.0</ele>
        <time>2022-09-26T08:51:59Z</time>
      </trkpt>
      <trkpt lat="41.6874400" lon="2.0557420">
        <ele>398.0</ele>
        <time>2022-09-26T08:52:00Z</time>
      </trkpt>
      <trkpt lat="41.6874710" lon="2.0557350">
        <ele>398.2</ele>
        <time>2022-09-26T08:52:01Z</time>
      </trkpt>
      <trkpt lat="41.6875030" lon="2.0557270">
        <ele>398.6</ele>
        <time>2022-09-26T08:52:02Z</time>
      </trkpt>
      <trkpt lat="41.6875350" lon="2.0557190">
        <ele>398.8</ele>
        <time>2022-09-26T08:52:03Z</time>
      </trkpt>
      <trkpt lat="41.6875680" lon="2.0557130">
        <ele>398.8</ele>
        <time>2022-09-26T08:52:04Z</time>
      </trkpt>
      <trkpt lat="41.6876020" lon="2.0557090">
        <ele>398.8</ele>
        <time>2022-09-26T08:52:05Z</time>
      </trkpt>
      <trkpt lat="41.6876360" lon="2.0557050">
        <ele>399.2</ele>
        <time>2022-09-26T08:52:06Z</time>
      </trkpt>
      <trkpt lat="41.6876690" lon="2.0557000">
        <ele>399.4</ele>
        <time>2022-09-26T08:52:07Z</time>
      </trkpt>
      <trkpt lat="41.6877010" lon="2.0556930">
        <ele>399.4</ele>
        <time>2022-09-26T08:52:08Z</time>
      </trkpt>
      <trkpt lat="41.6877300" lon="2.0556850">
        <ele>399.4</ele>
        <time>2022-09-26T08:52:09Z</time>
      </trkpt>
      <trkpt lat="41.6877640" lon="2.0556790">
        <ele>399.4</ele>
        <time>2022-09-26T08:52:10Z</time>
      </trkpt>
      <trkpt lat="41.6877980" lon="2.0556720">
        <ele>399.8</ele>
        <time>2022-09-26T08:52:11Z</time>
      </trkpt>
      <trkpt lat="41.6878320" lon="2.0556640">
        <ele>400.0</ele>
        <time>2022-09-26T08:52:12Z</time>
      </trkpt>
      <trkpt lat="41.6878650" lon="2.0556550">
        <ele>400.0</ele>
        <time>2022-09-26T08:52:13Z</time>
      </trkpt>
      <trkpt lat="41.6878950" lon="2.0556410">
        <ele>400.2</ele>
        <time>2022-09-26T08:52:14Z</time>
      </trkpt>
      <trkpt lat="41.6879260" lon="2.0556250">
        <ele>400.6</ele>
        <time>2022-09-26T08:52:15Z</time>
      </trkpt>
      <trkpt lat="41.6879520" lon="2.0556010">
        <ele>400.6</ele>
        <time>2022-09-26T08:52:16Z</time>
      </trkpt>
      <trkpt lat="41.6879790" lon="2.0555760">
        <ele>400.8</ele>
        <time>2022-09-26T08:52:17Z</time>
      </trkpt>
      <trkpt lat="41.6880200" lon="2.0555110">
        <ele>401.2</ele>
        <time>2022-09-26T08:52:19Z</time>
      </trkpt>
      <trkpt lat="41.6880340" lon="2.0554720">
        <ele>401.2</ele>
        <time>2022-09-26T08:52:20Z</time>
      </trkpt>
      <trkpt lat="41.6880460" lon="2.0554310">
        <ele>401.4</ele>
        <time>2022-09-26T08:52:21Z</time>
      </trkpt>
      <trkpt lat="41.6880700" lon="2.0553540">
        <ele>402.0</ele>
        <time>2022-09-26T08:52:23Z</time>
      </trkpt>
      <trkpt lat="41.6880940" lon="2.0552770">
        <ele>402.4</ele>
        <time>2022-09-26T08:52:25Z</time>
      </trkpt>
      <trkpt lat="41.6881050" lon="2.0552390">
        <ele>402.6</ele>
        <time>2022-09-26T08:52:26Z</time>
      </trkpt>
      <trkpt lat="41.6881160" lon="2.0552040">
        <ele>402.8</ele>
        <time>2022-09-26T08:52:27Z</time>
      </trkpt>
      <trkpt lat="41.6881270" lon="2.0551690">
        <ele>403.0</ele>
        <time>2022-09-26T08:52:28Z</time>
      </trkpt>
      <trkpt lat="41.6881380" lon="2.0551330">
        <ele>403.2</ele>
        <time>2022-09-26T08:52:29Z</time>
      </trkpt>
      <trkpt lat="41.6881500" lon="2.0550960">
        <ele>403.4</ele>
        <time>2022-09-26T08:52:30Z</time>
      </trkpt>
      <trkpt lat="41.6881630" lon="2.0550590">
        <ele>403.4</ele>
        <time>2022-09-26T08:52:31Z</time>
      </trkpt>
      <trkpt lat="41.6881750" lon="2.0550240">
        <ele>403.6</ele>
        <time>2022-09-26T08:52:32Z</time>
      </trkpt>
      <trkpt lat="41.6881900" lon="2.0549890">
        <ele>403.6</ele>
        <time>2022-09-26T08:52:33Z</time>
      </trkpt>
      <trkpt lat="41.6882240" lon="2.0549200">
        <ele>404.0</ele>
        <time>2022-09-26T08:52:35Z</time>
      </trkpt>
      <trkpt lat="41.6882650" lon="2.0548510">
        <ele>404.2</ele>
        <time>2022-09-26T08:52:37Z</time>
      </trkpt>
      <trkpt lat="41.6882890" lon="2.0548190">
        <ele>404.2</ele>
        <time>2022-09-26T08:52:38Z</time>
      </trkpt>
      <trkpt lat="41.6883130" lon="2.0547880">
        <ele>404.4</ele>
        <time>2022-09-26T08:52:39Z</time>
      </trkpt>
      <trkpt lat="41.6883390" lon="2.0547610">
        <ele>404.6</ele>
        <time>2022-09-26T08:52:40Z</time>
      </trkpt>
      <trkpt lat="41.6883630" lon="2.0547350">
        <ele>404.6</ele>
        <time>2022-09-26T08:52:41Z</time>
      </trkpt>
      <trkpt lat="41.6884140" lon="2.0546950">
        <ele>405.0</ele>
        <time>2022-09-26T08:52:43Z</time>
      </trkpt>
      <trkpt lat="41.6884410" lon="2.0546780">
        <ele>405.2</ele>
        <time>2022-09-26T08:52:44Z</time>
      </trkpt>
      <trkpt lat="41.6884690" lon="2.0546610">
        <ele>405.4</ele>
        <time>2022-09-26T08:52:45Z</time>
      </trkpt>
      <trkpt lat="41.6885240" lon="2.0546200">
        <ele>405.8</ele>
        <time>2022-09-26T08:52:47Z</time>
      </trkpt>
      <trkpt lat="41.6885790" lon="2.0545790">
        <ele>406.0</ele>
        <time>2022-09-26T08:52:49Z</time>
      </trkpt>
      <trkpt lat="41.6886060" lon="2.0545580">
        <ele>406.2</ele>
        <time>2022-09-26T08:52:50Z</time>
      </trkpt>
      <trkpt lat="41.6886310" lon="2.0545340">
        <ele>406.4</ele>
        <time>2022-09-26T08:52:51Z</time>
      </trkpt>
      <trkpt lat="41.6886830" lon="2.0544800">
        <ele>406.6</ele>
        <time>2022-09-26T08:52:53Z</time>
      </trkpt>
      <trkpt lat="41.6887060" lon="2.0544520">
        <ele>406.6</ele>
        <time>2022-09-26T08:52:54Z</time>
      </trkpt>
      <trkpt lat="41.6887310" lon="2.0544240">
        <ele>406.8</ele>
        <time>2022-09-26T08:52:55Z</time>
      </trkpt>
      <trkpt lat="41.6887560" lon="2.0543970">
        <ele>407.0</ele>
        <time>2022-09-26T08:52:56Z</time>
      </trkpt>
      <trkpt lat="41.6887830" lon="2.0543690">
        <ele>407.2</ele>
        <time>2022-09-26T08:52:57Z</time>
      </trkpt>
      <trkpt lat="41.6888370" lon="2.0543110">
        <ele>407.2</ele>
        <time>2022-09-26T08:52:59Z</time>
      </trkpt>
      <trkpt lat="41.6888920" lon="2.0542530">
        <ele>407.2</ele>
        <time>2022-09-26T08:53:01Z</time>
      </trkpt>
      <trkpt lat="41.6889180" lon="2.0542230">
        <ele>407.2</ele>
        <time>2022-09-26T08:53:02Z</time>
      </trkpt>
      <trkpt lat="41.6889440" lon="2.0541920">
        <ele>407.2</ele>
        <time>2022-09-26T08:53:03Z</time>
      </trkpt>
      <trkpt lat="41.6889990" lon="2.0541340">
        <ele>407.2</ele>
        <time>2022-09-26T08:53:05Z</time>
      </trkpt>
      <trkpt lat="41.6890530" lon="2.0540780">
        <ele>407.4</ele>
        <time>2022-09-26T08:53:07Z</time>
      </trkpt>
      <trkpt lat="41.6890810" lon="2.0540520">
        <ele>407.4</ele>
        <time>2022-09-26T08:53:08Z</time>
      </trkpt>
      <trkpt lat="41.6891040" lon="2.0540200">
        <ele>407.6</ele>
        <time>2022-09-26T08:53:09Z</time>
      </trkpt>
      <trkpt lat="41.6891290" lon="2.0539880">
        <ele>407.6</ele>
        <time>2022-09-26T08:53:10Z</time>
      </trkpt>
      <trkpt lat="41.6891560" lon="2.0539600">
        <ele>407.8</ele>
        <time>2022-09-26T08:53:11Z</time>
      </trkpt>
      <trkpt lat="41.6891840" lon="2.0539310">
        <ele>408.0</ele>
        <time>2022-09-26T08:53:12Z</time>
      </trkpt>
      <trkpt lat="41.6892120" lon="2.0539000">
        <ele>408.2</ele>
        <time>2022-09-26T08:53:13Z</time>
      </trkpt>
      <trkpt lat="41.6892390" lon="2.0538710">
        <ele>408.4</ele>
        <time>2022-09-26T08:53:14Z</time>
      </trkpt>
      <trkpt lat="41.6892650" lon="2.0538430">
        <ele>408.6</ele>
        <time>2022-09-26T08:53:15Z</time>
      </trkpt>
      <trkpt lat="41.6893200" lon="2.0537910">
        <ele>408.8</ele>
        <time>2022-09-26T08:53:17Z</time>
      </trkpt>
      <trkpt lat="41.6893470" lon="2.0537640">
        <ele>409.0</ele>
        <time>2022-09-26T08:53:18Z</time>
      </trkpt>
      <trkpt lat="41.6893720" lon="2.0537360">
        <ele>409.2</ele>
        <time>2022-09-26T08:53:19Z</time>
      </trkpt>
      <trkpt lat="41.6893990" lon="2.0537090">
        <ele>409.2</ele>
        <time>2022-09-26T08:53:20Z</time>
      </trkpt>
      <trkpt lat="41.6894250" lon="2.0536810">
        <ele>409.6</ele>
        <time>2022-09-26T08:53:21Z</time>
      </trkpt>
      <trkpt lat="41.6894780" lon="2.0536290">
        <ele>410.0</ele>
        <time>2022-09-26T08:53:23Z</time>
      </trkpt>
      <trkpt lat="41.6895050" lon="2.0536010">
        <ele>410.2</ele>
        <time>2022-09-26T08:53:24Z</time>
      </trkpt>
      <trkpt lat="41.6895630" lon="2.0535530">
        <ele>410.4</ele>
        <time>2022-09-26T08:53:26Z</time>
      </trkpt>
      <trkpt lat="41.6895900" lon="2.0535280">
        <ele>410.6</ele>
        <time>2022-09-26T08:53:27Z</time>
      </trkpt>
      <trkpt lat="41.6896190" lon="2.0535030">
        <ele>410.8</ele>
        <time>2022-09-26T08:53:28Z</time>
      </trkpt>
      <trkpt lat="41.6896490" lon="2.0534790">
        <ele>411.0</ele>
        <time>2022-09-26T08:53:29Z</time>
      </trkpt>
      <trkpt lat="41.6896800" lon="2.0534570">
        <ele>411.2</ele>
        <time>2022-09-26T08:53:30Z</time>
      </trkpt>
      <trkpt lat="41.6897390" lon="2.0534110">
        <ele>411.4</ele>
        <time>2022-09-26T08:53:32Z</time>
      </trkpt>
      <trkpt lat="41.6897680" lon="2.0533860">
        <ele>411.4</ele>
        <time>2022-09-26T08:53:33Z</time>
      </trkpt>
      <trkpt lat="41.6898200" lon="2.0533320">
        <ele>411.8</ele>
        <time>2022-09-26T08:53:35Z</time>
      </trkpt>
      <trkpt lat="41.6898730" lon="2.0532740">
        <ele>412.2</ele>
        <time>2022-09-26T08:53:37Z</time>
      </trkpt>
      <trkpt lat="41.6898990" lon="2.0532430">
        <ele>412.4</ele>
        <time>2022-09-26T08:53:38Z</time>
      </trkpt>
      <trkpt lat="41.6899220" lon="2.0532100">
        <ele>412.6</ele>
        <time>2022-09-26T08:53:39Z</time>
      </trkpt>
      <trkpt lat="41.6899440" lon="2.0531770">
        <ele>412.8</ele>
        <time>2022-09-26T08:53:40Z</time>
      </trkpt>
      <trkpt lat="41.6899660" lon="2.0531450">
        <ele>413.0</ele>
        <time>2022-09-26T08:53:41Z</time>
      </trkpt>
      <trkpt lat="41.6900120" lon="2.0530840">
        <ele>413.2</ele>
        <time>2022-09-26T08:53:43Z</time>
      </trkpt>
      <trkpt lat="41.6900380" lon="2.0530550">
        <ele>413.4</ele>
        <time>2022-09-26T08:53:44Z</time>
      </trkpt>
      <trkpt lat="41.6900620" lon="2.0530280">
        <ele>413.8</ele>
        <time>2022-09-26T08:53:45Z</time>
      </trkpt>
      <trkpt lat="41.6901190" lon="2.0529810">
        <ele>414.2</ele>
        <time>2022-09-26T08:53:47Z</time>
      </trkpt>
      <trkpt lat="41.6901490" lon="2.0529650">
        <ele>414.4</ele>
        <time>2022-09-26T08:53:48Z</time>
      </trkpt>
      <trkpt lat="41.6901800" lon="2.0529530">
        <ele>414.4</ele>
        <time>2022-09-26T08:53:49Z</time>
      </trkpt>
      <trkpt lat="41.6902110" lon="2.0529470">
        <ele>414.6</ele>
        <time>2022-09-26T08:53:50Z</time>
      </trkpt>
      <trkpt lat="41.6902430" lon="2.0529420">
        <ele>414.6</ele>
        <time>2022-09-26T08:53:51Z</time>
      </trkpt>
      <trkpt lat="41.6902750" lon="2.0529340">
        <ele>415.0</ele>
        <time>2022-09-26T08:53:52Z</time>
      </trkpt>
      <trkpt lat="41.6903050" lon="2.0529200">
        <ele>415.0</ele>
        <time>2022-09-26T08:53:53Z</time>
      </trkpt>
      <trkpt lat="41.6903610" lon="2.0528790">
        <ele>415.2</ele>
        <time>2022-09-26T08:53:55Z</time>
      </trkpt>
      <trkpt lat="41.6903860" lon="2.0528520">
        <ele>415.2</ele>
        <time>2022-09-26T08:53:56Z</time>
      </trkpt>
      <trkpt lat="41.6904080" lon="2.0528220">
        <ele>415.4</ele>
        <time>2022-09-26T08:53:57Z</time>
      </trkpt>
      <trkpt lat="41.6904430" lon="2.0527590">
        <ele>415.8</ele>
        <time>2022-09-26T08:53:59Z</time>
      </trkpt>
      <trkpt lat="41.6904710" lon="2.0526900">
        <ele>416.0</ele>
        <time>2022-09-26T08:54:01Z</time>
      </trkpt>
      <trkpt lat="41.6904800" lon="2.0526530">
        <ele>416.2</ele>
        <time>2022-09-26T08:54:02Z</time>
      </trkpt>
      <trkpt lat="41.6904890" lon="2.0526150">
        <ele>416.2</ele>
        <time>2022-09-26T08:54:03Z</time>
      </trkpt>
      <trkpt lat="41.6905090" lon="2.0525390">
        <ele>416.6</ele>
        <time>2022-09-26T08:54:05Z</time>
      </trkpt>
      <trkpt lat="41.6905380" lon="2.0524600">
        <ele>416.6</ele>
        <time>2022-09-26T08:54:07Z</time>
      </trkpt>
      <trkpt lat="41.6905510" lon="2.0524220">
        <ele>416.8</ele>
        <time>2022-09-26T08:54:08Z</time>
      </trkpt>
      <trkpt lat="41.6905650" lon="2.0523800">
        <ele>416.8</ele>
        <time>2022-09-26T08:54:09Z</time>
      </trkpt>
      <trkpt lat="41.6906000" lon="2.0522900">
        <ele>417.2</ele>
        <time>2022-09-26T08:54:11Z</time>
      </trkpt>
      <trkpt lat="41.6906190" lon="2.0522470">
        <ele>417.4</ele>
        <time>2022-09-26T08:54:12Z</time>
      </trkpt>
      <trkpt lat="41.6906400" lon="2.0522030">
        <ele>417.6</ele>
        <time>2022-09-26T08:54:13Z</time>
      </trkpt>
      <trkpt lat="41.6906630" lon="2.0521640">
        <ele>417.6</ele>
        <time>2022-09-26T08:54:14Z</time>
      </trkpt>
      <trkpt lat="41.6906860" lon="2.0521240">
        <ele>417.8</ele>
        <time>2022-09-26T08:54:15Z</time>
      </trkpt>
      <trkpt lat="41.6907090" lon="2.0520850">
        <ele>417.8</ele>
        <time>2022-09-26T08:54:16Z</time>
      </trkpt>
      <trkpt lat="41.6907350" lon="2.0520460">
        <ele>417.8</ele>
        <time>2022-09-26T08:54:17Z</time>
      </trkpt>
      <trkpt lat="41.6907620" lon="2.0520060">
        <ele>418.0</ele>
        <time>2022-09-26T08:54:18Z</time>
      </trkpt>
      <trkpt lat="41.6908210" lon="2.0519290">
        <ele>418.2</ele>
        <time>2022-09-26T08:54:20Z</time>
      </trkpt>
      <trkpt lat="41.6908520" lon="2.0518880">
        <ele>418.2</ele>
        <time>2022-09-26T08:54:21Z</time>
      </trkpt>
      <trkpt lat="41.6908820" lon="2.0518450">
        <ele>418.4</ele>
        <time>2022-09-26T08:54:22Z</time>
      </trkpt>
      <trkpt lat="41.6909130" lon="2.0518040">
        <ele>418.4</ele>
        <time>2022-09-26T08:54:23Z</time>
      </trkpt>
      <trkpt lat="41.6909760" lon="2.0517210">
        <ele>418.8</ele>
        <time>2022-09-26T08:54:25Z</time>
      </trkpt>
      <trkpt lat="41.6910070" lon="2.0516790">
        <ele>418.8</ele>
        <time>2022-09-26T08:54:26Z</time>
      </trkpt>
      <trkpt lat="41.6910400" lon="2.0516380">
        <ele>419.0</ele>
        <time>2022-09-26T08:54:27Z</time>
      </trkpt>
      <trkpt lat="41.6911020" lon="2.0515540">
        <ele>419.0</ele>
        <time>2022-09-26T08:54:29Z</time>
      </trkpt>
      <trkpt lat="41.6911620" lon="2.0514690">
        <ele>419.2</ele>
        <time>2022-09-26T08:54:31Z</time>
      </trkpt>
      <trkpt lat="41.6911910" lon="2.0514290">
        <ele>419.2</ele>
        <time>2022-09-26T08:54:32Z</time>
      </trkpt>
      <trkpt lat="41.6912220" lon="2.0513930">
        <ele>419.2</ele>
        <time>2022-09-26T08:54:33Z</time>
      </trkpt>
      <trkpt lat="41.6912560" lon="2.0513570">
        <ele>419.4</ele>
        <time>2022-09-26T08:54:34Z</time>
      </trkpt>
      <trkpt lat="41.6912910" lon="2.0513260">
        <ele>419.6</ele>
        <time>2022-09-26T08:54:35Z</time>
      </trkpt>
      <trkpt lat="41.6913630" lon="2.0512670">
        <ele>419.6</ele>
        <time>2022-09-26T08:54:37Z</time>
      </trkpt>
      <trkpt lat="41.6913980" lon="2.0512390">
        <ele>419.8</ele>
        <time>2022-09-26T08:54:38Z</time>
      </trkpt>
      <trkpt lat="41.6914320" lon="2.0512080">
        <ele>419.8</ele>
        <time>2022-09-26T08:54:39Z</time>
      </trkpt>
      <trkpt lat="41.6914930" lon="2.0511340">
        <ele>419.8</ele>
        <time>2022-09-26T08:54:41Z</time>
      </trkpt>
      <trkpt lat="41.6915430" lon="2.0510490">
        <ele>420.0</ele>
        <time>2022-09-26T08:54:43Z</time>
      </trkpt>
      <trkpt lat="41.6915610" lon="2.0509980">
        <ele>420.2</ele>
        <time>2022-09-26T08:54:44Z</time>
      </trkpt>
      <trkpt lat="41.6915720" lon="2.0509430">
        <ele>420.2</ele>
        <time>2022-09-26T08:54:45Z</time>
      </trkpt>
      <trkpt lat="41.6915790" lon="2.0508860">
        <ele>420.4</ele>
        <time>2022-09-26T08:54:46Z</time>
      </trkpt>
      <trkpt lat="41.6915880" lon="2.0508270">
        <ele>420.4</ele>
        <time>2022-09-26T08:54:47Z</time>
      </trkpt>
      <trkpt lat="41.6916000" lon="2.0507680">
        <ele>420.4</ele>
        <time>2022-09-26T08:54:48Z</time>
      </trkpt>
      <trkpt lat="41.6916190" lon="2.0507110">
        <ele>420.6</ele>
        <time>2022-09-26T08:54:49Z</time>
      </trkpt>
      <trkpt lat="41.6916440" lon="2.0506550">
        <ele>420.6</ele>
        <time>2022-09-26T08:54:50Z</time>
      </trkpt>
      <trkpt lat="41.6916740" lon="2.0506020">
        <ele>420.6</ele>
        <time>2022-09-26T08:54:51Z</time>
      </trkpt>
      <trkpt lat="41.6917090" lon="2.0505570">
        <ele>420.6</ele>
        <time>2022-09-26T08:54:52Z</time>
      </trkpt>
      <trkpt lat="41.6917470" lon="2.0505220">
        <ele>420.6</ele>
        <time>2022-09-26T08:54:53Z</time>
      </trkpt>
      <trkpt lat="41.6918190" lon="2.0504930">
        <ele>420.6</ele>
        <time>2022-09-26T08:54:55Z</time>
      </trkpt>
      <trkpt lat="41.6918550" lon="2.0504930">
        <ele>420.6</ele>
        <time>2022-09-26T08:54:56Z</time>
      </trkpt>
      <trkpt lat="41.6918860" lon="2.0504950">
        <ele>420.6</ele>
        <time>2022-09-26T08:54:57Z</time>
      </trkpt>
      <trkpt lat="41.6919480" lon="2.0505150">
        <ele>420.6</ele>
        <time>2022-09-26T08:54:59Z</time>
      </trkpt>
      <trkpt lat="41.6919800" lon="2.0505310">
        <ele>420.6</ele>
        <time>2022-09-26T08:55:00Z</time>
      </trkpt>
      <trkpt lat="41.6920140" lon="2.0505480">
        <ele>420.6</ele>
        <time>2022-09-26T08:55:01Z</time>
      </trkpt>
      <trkpt lat="41.6920480" lon="2.0505680">
        <ele>420.8</ele>
        <time>2022-09-26T08:55:02Z</time>
      </trkpt>
      <trkpt lat="41.6920840" lon="2.0505880">
        <ele>420.8</ele>
        <time>2022-09-26T08:55:03Z</time>
      </trkpt>
      <trkpt lat="41.6921220" lon="2.0506040">
        <ele>420.8</ele>
        <time>2022-09-26T08:55:04Z</time>
      </trkpt>
      <trkpt lat="41.6921630" lon="2.0506130">
        <ele>421.0</ele>
        <time>2022-09-26T08:55:05Z</time>
      </trkpt>
      <trkpt lat="41.6922050" lon="2.0506140">
        <ele>420.8</ele>
        <time>2022-09-26T08:55:06Z</time>
      </trkpt>
      <trkpt lat="41.6922920" lon="2.0505980">
        <ele>420.8</ele>
        <time>2022-09-26T08:55:08Z</time>
      </trkpt>
      <trkpt lat="41.6923340" lon="2.0505810">
        <ele>420.8</ele>
        <time>2022-09-26T08:55:09Z</time>
      </trkpt>
      <trkpt lat="41.6923780" lon="2.0505610">
        <ele>420.8</ele>
        <time>2022-09-26T08:55:10Z</time>
      </trkpt>
      <trkpt lat="41.6924220" lon="2.0505430">
        <ele>420.8</ele>
        <time>2022-09-26T08:55:11Z</time>
      </trkpt>
      <trkpt lat="41.6924660" lon="2.0505300">
        <ele>420.6</ele>
        <time>2022-09-26T08:55:12Z</time>
      </trkpt>
      <trkpt lat="41.6925090" lon="2.0505290">
        <ele>420.6</ele>
        <time>2022-09-26T08:55:13Z</time>
      </trkpt>
      <trkpt lat="41.6925540" lon="2.0505380">
        <ele>420.6</ele>
        <time>2022-09-26T08:55:14Z</time>
      </trkpt>
      <trkpt lat="41.6925980" lon="2.0505550">
        <ele>420.6</ele>
        <time>2022-09-26T08:55:15Z</time>
      </trkpt>
      <trkpt lat="41.6926820" lon="2.0505980">
        <ele>420.8</ele>
        <time>2022-09-26T08:55:17Z</time>
      </trkpt>
      <trkpt lat="41.6927260" lon="2.0506200">
        <ele>420.8</ele>
        <time>2022-09-26T08:55:18Z</time>
      </trkpt>
      <trkpt lat="41.6928100" lon="2.0506510">
        <ele>421.0</ele>
        <time>2022-09-26T08:55:20Z</time>
      </trkpt>
      <trkpt lat="41.6928550" lon="2.0506590">
        <ele>421.0</ele>
        <time>2022-09-26T08:55:21Z</time>
      </trkpt>
      <trkpt lat="41.6929440" lon="2.0506600">
        <ele>421.0</ele>
        <time>2022-09-26T08:55:23Z</time>
      </trkpt>
      <trkpt lat="41.6930340" lon="2.0506500">
        <ele>421.0</ele>
        <time>2022-09-26T08:55:25Z</time>
      </trkpt>
      <trkpt lat="41.6930800" lon="2.0506410">
        <ele>421.0</ele>
        <time>2022-09-26T08:55:26Z</time>
      </trkpt>
      <trkpt lat="41.6931220" lon="2.0506280">
        <ele>421.0</ele>
        <time>2022-09-26T08:55:27Z</time>
      </trkpt>
      <trkpt lat="41.6931640" lon="2.0506160">
        <ele>421.2</ele>
        <time>2022-09-26T08:55:28Z</time>
      </trkpt>
      <trkpt lat="41.6932040" lon="2.0506020">
        <ele>421.2</ele>
        <time>2022-09-26T08:55:29Z</time>
      </trkpt>
      <trkpt lat="41.6932780" lon="2.0505640">
        <ele>421.6</ele>
        <time>2022-09-26T08:55:31Z</time>
      </trkpt>
      <trkpt lat="41.6933160" lon="2.0505390">
        <ele>421.8</ele>
        <time>2022-09-26T08:55:32Z</time>
      </trkpt>
      <trkpt lat="41.6933510" lon="2.0505080">
        <ele>422.0</ele>
        <time>2022-09-26T08:55:33Z</time>
      </trkpt>
      <trkpt lat="41.6934210" lon="2.0504310">
        <ele>422.6</ele>
        <time>2022-09-26T08:55:35Z</time>
      </trkpt>
      <trkpt lat="41.6934510" lon="2.0503880">
        <ele>422.6</ele>
        <time>2022-09-26T08:55:36Z</time>
      </trkpt>
      <trkpt lat="41.6934770" lon="2.0503420">
        <ele>422.8</ele>
        <time>2022-09-26T08:55:37Z</time>
      </trkpt>
      <trkpt lat="41.6935020" lon="2.0502930">
        <ele>423.0</ele>
        <time>2022-09-26T08:55:38Z</time>
      </trkpt>
      <trkpt lat="41.6935230" lon="2.0502430">
        <ele>423.2</ele>
        <time>2022-09-26T08:55:39Z</time>
      </trkpt>
      <trkpt lat="41.6935480" lon="2.0501350">
        <ele>423.4</ele>
        <time>2022-09-26T08:55:41Z</time>
      </trkpt>
      <trkpt lat="41.6935530" lon="2.0500780">
        <ele>423.6</ele>
        <time>2022-09-26T08:55:42Z</time>
      </trkpt>
      <trkpt lat="41.6935550" lon="2.0500190">
        <ele>423.6</ele>
        <time>2022-09-26T08:55:43Z</time>
      </trkpt>
      <trkpt lat="41.6935540" lon="2.0499600">
        <ele>423.6</ele>
        <time>2022-09-26T08:55:44Z</time>
      </trkpt>
      <trkpt lat="41.6935520" lon="2.0499010">
        <ele>423.6</ele>
        <time>2022-09-26T08:55:45Z</time>
      </trkpt>
      <trkpt lat="41.6935510" lon="2.0498420">
        <ele>423.6</ele>
        <time>2022-09-26T08:55:46Z</time>
      </trkpt>
      <trkpt lat="41.6935500" lon="2.0497850">
        <ele>423.8</ele>
        <time>2022-09-26T08:55:47Z</time>
      </trkpt>
      <trkpt lat="41.6935490" lon="2.0497290">
        <ele>424.0</ele>
        <time>2022-09-26T08:55:48Z</time>
      </trkpt>
      <trkpt lat="41.6935480" lon="2.0496160">
        <ele>424.2</ele>
        <time>2022-09-26T08:55:50Z</time>
      </trkpt>
      <trkpt lat="41.6935490" lon="2.0495590">
        <ele>424.4</ele>
        <time>2022-09-26T08:55:51Z</time>
      </trkpt>
      <trkpt lat="41.6935520" lon="2.0495010">
        <ele>424.6</ele>
        <time>2022-09-26T08:55:52Z</time>
      </trkpt>
      <trkpt lat="41.6935560" lon="2.0494430">
        <ele>424.6</ele>
        <time>2022-09-26T08:55:53Z</time>
      </trkpt>
      <trkpt lat="41.6935720" lon="2.0493280">
        <ele>425.0</ele>
        <time>2022-09-26T08:55:55Z</time>
      </trkpt>
      <trkpt lat="41.6935830" lon="2.0492740">
        <ele>425.0</ele>
        <time>2022-09-26T08:55:56Z</time>
      </trkpt>
      <trkpt lat="41.6935950" lon="2.0492200">
        <ele>425.2</ele>
        <time>2022-09-26T08:55:57Z</time>
      </trkpt>
      <trkpt lat="41.6936090" lon="2.0491670">
        <ele>425.4</ele>
        <time>2022-09-26T08:55:58Z</time>
      </trkpt>
      <trkpt lat="41.6936240" lon="2.0491130">
        <ele>425.6</ele>
        <time>2022-09-26T08:55:59Z</time>
      </trkpt>
      <trkpt lat="41.6936600" lon="2.0490010">
        <ele>425.8</ele>
        <time>2022-09-26T08:56:01Z</time>
      </trkpt>
      <trkpt lat="41.6936790" lon="2.0489450">
        <ele>425.8</ele>
        <time>2022-09-26T08:56:02Z</time>
      </trkpt>
      <trkpt lat="41.6936980" lon="2.0488880">
        <ele>425.8</ele>
        <time>2022-09-26T08:56:03Z</time>
      </trkpt>
      <trkpt lat="41.6937190" lon="2.0488320">
        <ele>425.8</ele>
        <time>2022-09-26T08:56:04Z</time>
      </trkpt>
      <trkpt lat="41.6937410" lon="2.0487750">
        <ele>425.8</ele>
        <time>2022-09-26T08:56:05Z</time>
      </trkpt>
      <trkpt lat="41.6937670" lon="2.0487200">
        <ele>425.8</ele>
        <time>2022-09-26T08:56:06Z</time>
      </trkpt>
      <trkpt lat="41.6938290" lon="2.0486190">
        <ele>425.8</ele>
        <time>2022-09-26T08:56:08Z</time>
      </trkpt>
      <trkpt lat="41.6938640" lon="2.0485740">
        <ele>425.8</ele>
        <time>2022-09-26T08:56:09Z</time>
      </trkpt>
      <trkpt lat="41.6939020" lon="2.0485360">
        <ele>425.8</ele>
        <time>2022-09-26T08:56:10Z</time>
      </trkpt>
      <trkpt lat="41.6939440" lon="2.0485030">
        <ele>426.0</ele>
        <time>2022-09-26T08:56:11Z</time>
      </trkpt>
      <trkpt lat="41.6939890" lon="2.0484770">
        <ele>426.0</ele>
        <time>2022-09-26T08:56:12Z</time>
      </trkpt>
      <trkpt lat="41.6940350" lon="2.0484580">
        <ele>426.0</ele>
        <time>2022-09-26T08:56:13Z</time>
      </trkpt>
      <trkpt lat="41.6940800" lon="2.0484460">
        <ele>426.0</ele>
        <time>2022-09-26T08:56:14Z</time>
      </trkpt>
      <trkpt lat="41.6941260" lon="2.0484410">
        <ele>426.2</ele>
        <time>2022-09-26T08:56:15Z</time>
      </trkpt>
      <trkpt lat="41.6942180" lon="2.0484500">
        <ele>426.4</ele>
        <time>2022-09-26T08:56:17Z</time>
      </trkpt>
      <trkpt lat="41.6942630" lon="2.0484610">
        <ele>426.4</ele>
        <time>2022-09-26T08:56:18Z</time>
      </trkpt>
      <trkpt lat="41.6943060" lon="2.0484770">
        <ele>426.4</ele>
        <time>2022-09-26T08:56:19Z</time>
      </trkpt>
      <trkpt lat="41.6943490" lon="2.0484970">
        <ele>426.4</ele>
        <time>2022-09-26T08:56:20Z</time>
      </trkpt>
      <trkpt lat="41.6943940" lon="2.0485170">
        <ele>426.2</ele>
        <time>2022-09-26T08:56:21Z</time>
      </trkpt>
      <trkpt lat="41.6944400" lon="2.0485320">
        <ele>426.2</ele>
        <time>2022-09-26T08:56:22Z</time>
      </trkpt>
      <trkpt lat="41.6944870" lon="2.0485390">
        <ele>426.0</ele>
        <time>2022-09-26T08:56:23Z</time>
      </trkpt>
      <trkpt lat="41.6945770" lon="2.0485200">
        <ele>426.0</ele>
        <time>2022-09-26T08:56:25Z</time>
      </trkpt>
      <trkpt lat="41.6946190" lon="2.0484930">
        <ele>426.0</ele>
        <time>2022-09-26T08:56:26Z</time>
      </trkpt>
      <trkpt lat="41.6946620" lon="2.0484560">
        <ele>426.2</ele>
        <time>2022-09-26T08:56:27Z</time>
      </trkpt>
      <trkpt lat="41.6946990" lon="2.0484100">
        <ele>426.2</ele>
        <time>2022-09-26T08:56:28Z</time>
      </trkpt>
      <trkpt lat="41.6947320" lon="2.0483600">
        <ele>426.4</ele>
        <time>2022-09-26T08:56:29Z</time>
      </trkpt>
      <trkpt lat="41.6947910" lon="2.0482600">
        <ele>426.4</ele>
        <time>2022-09-26T08:56:31Z</time>
      </trkpt>
      <trkpt lat="41.6948090" lon="2.0482060">
        <ele>426.4</ele>
        <time>2022-09-26T08:56:32Z</time>
      </trkpt>
      <trkpt lat="41.6948200" lon="2.0481470">
        <ele>426.4</ele>
        <time>2022-09-26T08:56:33Z</time>
      </trkpt>
      <trkpt lat="41.6948260" lon="2.0480830">
        <ele>426.4</ele>
        <time>2022-09-26T08:56:34Z</time>
      </trkpt>
      <trkpt lat="41.6948280" lon="2.0480190">
        <ele>426.4</ele>
        <time>2022-09-26T08:56:35Z</time>
      </trkpt>
      <trkpt lat="41.6948300" lon="2.0479560">
        <ele>426.4</ele>
        <time>2022-09-26T08:56:36Z</time>
      </trkpt>
      <trkpt lat="41.6948330" lon="2.0478910">
        <ele>426.2</ele>
        <time>2022-09-26T08:56:37Z</time>
      </trkpt>
      <trkpt lat="41.6948370" lon="2.0478240">
        <ele>426.2</ele>
        <time>2022-09-26T08:56:38Z</time>
      </trkpt>
      <trkpt lat="41.6948480" lon="2.0477590">
        <ele>426.2</ele>
        <time>2022-09-26T08:56:39Z</time>
      </trkpt>
      <trkpt lat="41.6948660" lon="2.0476970">
        <ele>426.2</ele>
        <time>2022-09-26T08:56:40Z</time>
      </trkpt>
      <trkpt lat="41.6948900" lon="2.0476410">
        <ele>426.2</ele>
        <time>2022-09-26T08:56:41Z</time>
      </trkpt>
      <trkpt lat="41.6949630" lon="2.0475600">
        <ele>425.8</ele>
        <time>2022-09-26T08:56:43Z</time>
      </trkpt>
      <trkpt lat="41.6950040" lon="2.0475260">
        <ele>425.8</ele>
        <time>2022-09-26T08:56:44Z</time>
      </trkpt>
      <trkpt lat="41.6950430" lon="2.0474880">
        <ele>425.8</ele>
        <time>2022-09-26T08:56:45Z</time>
      </trkpt>
      <trkpt lat="41.6951180" lon="2.0474130">
        <ele>425.6</ele>
        <time>2022-09-26T08:56:47Z</time>
      </trkpt>
      <trkpt lat="41.6951890" lon="2.0473390">
        <ele>425.6</ele>
        <time>2022-09-26T08:56:49Z</time>
      </trkpt>
      <trkpt lat="41.6952180" lon="2.0472940">
        <ele>425.6</ele>
        <time>2022-09-26T08:56:50Z</time>
      </trkpt>
      <trkpt lat="41.6952430" lon="2.0472410">
        <ele>425.6</ele>
        <time>2022-09-26T08:56:51Z</time>
      </trkpt>
      <trkpt lat="41.6952860" lon="2.0471170">
        <ele>425.8</ele>
        <time>2022-09-26T08:56:53Z</time>
      </trkpt>
      <trkpt lat="41.6953250" lon="2.0469920">
        <ele>425.8</ele>
        <time>2022-09-26T08:56:55Z</time>
      </trkpt>
      <trkpt lat="41.6953450" lon="2.0469310">
        <ele>425.8</ele>
        <time>2022-09-26T08:56:56Z</time>
      </trkpt>
      <trkpt lat="41.6953710" lon="2.0468750">
        <ele>426.0</ele>
        <time>2022-09-26T08:56:57Z</time>
      </trkpt>
      <trkpt lat="41.6954340" lon="2.0467610">
        <ele>426.0</ele>
        <time>2022-09-26T08:56:59Z</time>
      </trkpt>
      <trkpt lat="41.6954960" lon="2.0466520">
        <ele>426.0</ele>
        <time>2022-09-26T08:57:01Z</time>
      </trkpt>
      <trkpt lat="41.6955280" lon="2.0465970">
        <ele>426.0</ele>
        <time>2022-09-26T08:57:02Z</time>
      </trkpt>
      <trkpt lat="41.6955610" lon="2.0465480">
        <ele>426.0</ele>
        <time>2022-09-26T08:57:03Z</time>
      </trkpt>
      <trkpt lat="41.6955910" lon="2.0464970">
        <ele>426.0</ele>
        <time>2022-09-26T08:57:04Z</time>
      </trkpt>
      <trkpt lat="41.6956200" lon="2.0464420">
        <ele>426.0</ele>
        <time>2022-09-26T08:57:05Z</time>
      </trkpt>
      <trkpt lat="41.6956710" lon="2.0463300">
        <ele>426.0</ele>
        <time>2022-09-26T08:57:07Z</time>
      </trkpt>
      <trkpt lat="41.6956880" lon="2.0462720">
        <ele>426.0</ele>
        <time>2022-09-26T08:57:08Z</time>
      </trkpt>
      <trkpt lat="41.6956990" lon="2.0462120">
        <ele>426.0</ele>
        <time>2022-09-26T08:57:09Z</time>
      </trkpt>
      <trkpt lat="41.6957050" lon="2.0460910">
        <ele>426.0</ele>
        <time>2022-09-26T08:57:11Z</time>
      </trkpt>
      <trkpt lat="41.6957090" lon="2.0460190">
        <ele>426.0</ele>
        <time>2022-09-26T08:57:12Z</time>
      </trkpt>
      <trkpt lat="41.6957200" lon="2.0459440">
        <ele>426.0</ele>
        <time>2022-09-26T08:57:13Z</time>
      </trkpt>
      <trkpt lat="41.6957430" lon="2.0458780">
        <ele>426.0</ele>
        <time>2022-09-26T08:57:14Z</time>
      </trkpt>
      <trkpt lat="41.6957750" lon="2.0458340">
        <ele>426.0</ele>
        <time>2022-09-26T08:57:15Z</time>
      </trkpt>
      <trkpt lat="41.6958520" lon="2.0457810">
        <ele>426.0</ele>
        <time>2022-09-26T08:57:17Z</time>
      </trkpt>
      <trkpt lat="41.6959400" lon="2.0457690">
        <ele>426.2</ele>
        <time>2022-09-26T08:57:19Z</time>
      </trkpt>
      <trkpt lat="41.6959830" lon="2.0457820">
        <ele>426.2</ele>
        <time>2022-09-26T08:57:20Z</time>
      </trkpt>
      <trkpt lat="41.6960290" lon="2.0458030">
        <ele>426.2</ele>
        <time>2022-09-26T08:57:21Z</time>
      </trkpt>
      <trkpt lat="41.6961220" lon="2.0458510">
        <ele>426.0</ele>
        <time>2022-09-26T08:57:23Z</time>
      </trkpt>
      <trkpt lat="41.6961690" lon="2.0458700">
        <ele>426.0</ele>
        <time>2022-09-26T08:57:24Z</time>
      </trkpt>
      <trkpt lat="41.6962160" lon="2.0458840">
        <ele>426.0</ele>
        <time>2022-09-26T08:57:25Z</time>
      </trkpt>
      <trkpt lat="41.6962640" lon="2.0458900">
        <ele>426.0</ele>
        <time>2022-09-26T08:57:26Z</time>
      </trkpt>
      <trkpt lat="41.6963090" lon="2.0458870">
        <ele>426.2</ele>
        <time>2022-09-26T08:57:27Z</time>
      </trkpt>
      <trkpt lat="41.6963980" lon="2.0458570">
        <ele>426.4</ele>
        <time>2022-09-26T08:57:29Z</time>
      </trkpt>
      <trkpt lat="41.6964890" lon="2.0457940">
        <ele>426.6</ele>
        <time>2022-09-26T08:57:31Z</time>
      </trkpt>
      <trkpt lat="41.6965310" lon="2.0457580">
        <ele>426.8</ele>
        <time>2022-09-26T08:57:32Z</time>
      </trkpt>
      <trkpt lat="41.6965710" lon="2.0457180">
        <ele>426.8</ele>
        <time>2022-09-26T08:57:33Z</time>
      </trkpt>
      <trkpt lat="41.6966060" lon="2.0456730">
        <ele>426.8</ele>
        <time>2022-09-26T08:57:34Z</time>
      </trkpt>
      <trkpt lat="41.6966380" lon="2.0456260">
        <ele>427.0</ele>
        <time>2022-09-26T08:57:35Z</time>
      </trkpt>
      <trkpt lat="41.6967000" lon="2.0455330">
        <ele>427.2</ele>
        <time>2022-09-26T08:57:37Z</time>
      </trkpt>
      <trkpt lat="41.6967330" lon="2.0454890">
        <ele>427.2</ele>
        <time>2022-09-26T08:57:38Z</time>
      </trkpt>
      <trkpt lat="41.6967680" lon="2.0454470">
        <ele>427.4</ele>
        <time>2022-09-26T08:57:39Z</time>
      </trkpt>
      <trkpt lat="41.6968040" lon="2.0454080">
        <ele>427.4</ele>
        <time>2022-09-26T08:57:40Z</time>
      </trkpt>
      <trkpt lat="41.6968380" lon="2.0453670">
        <ele>427.6</ele>
        <time>2022-09-26T08:57:41Z</time>
      </trkpt>
      <trkpt lat="41.6968710" lon="2.0453250">
        <ele>427.8</ele>
        <time>2022-09-26T08:57:42Z</time>
      </trkpt>
      <trkpt lat="41.6968970" lon="2.0452780">
        <ele>427.8</ele>
        <time>2022-09-26T08:57:43Z</time>
      </trkpt>
      <trkpt lat="41.6969200" lon="2.0452250">
        <ele>428.0</ele>
        <time>2022-09-26T08:57:44Z</time>
      </trkpt>
      <trkpt lat="41.6969410" lon="2.0451680">
        <ele>428.2</ele>
        <time>2022-09-26T08:57:45Z</time>
      </trkpt>
      <trkpt lat="41.6969630" lon="2.0451140">
        <ele>428.2</ele>
        <time>2022-09-26T08:57:46Z</time>
      </trkpt>
      <trkpt lat="41.6969860" lon="2.0450610">
        <ele>428.2</ele>
        <time>2022-09-26T08:57:47Z</time>
      </trkpt>
      <trkpt lat="41.6970400" lon="2.0449550">
        <ele>428.2</ele>
        <time>2022-09-26T08:57:49Z</time>
      </trkpt>
      <trkpt lat="41.6970710" lon="2.0449010">
        <ele>428.2</ele>
        <time>2022-09-26T08:57:50Z</time>
      </trkpt>
      <trkpt lat="41.6971040" lon="2.0448470">
        <ele>428.4</ele>
        <time>2022-09-26T08:57:51Z</time>
      </trkpt>
      <trkpt lat="41.6971350" lon="2.0447970">
        <ele>428.4</ele>
        <time>2022-09-26T08:57:52Z</time>
      </trkpt>
      <trkpt lat="41.6971630" lon="2.0447470">
        <ele>428.4</ele>
        <time>2022-09-26T08:57:53Z</time>
      </trkpt>
      <trkpt lat="41.6971920" lon="2.0446980">
        <ele>428.6</ele>
        <time>2022-09-26T08:57:54Z</time>
      </trkpt>
      <trkpt lat="41.6972220" lon="2.0446500">
        <ele>428.6</ele>
        <time>2022-09-26T08:57:55Z</time>
      </trkpt>
      <trkpt lat="41.6972530" lon="2.0446020">
        <ele>428.8</ele>
        <time>2022-09-26T08:57:56Z</time>
      </trkpt>
      <trkpt lat="41.6972870" lon="2.0445530">
        <ele>428.8</ele>
        <time>2022-09-26T08:57:57Z</time>
      </trkpt>
      <trkpt lat="41.6973700" lon="2.0444690">
        <ele>428.8</ele>
        <time>2022-09-26T08:57:59Z</time>
      </trkpt>
      <trkpt lat="41.6974600" lon="2.0444130">
        <ele>428.8</ele>
        <time>2022-09-26T08:58:01Z</time>
      </trkpt>
      <trkpt lat="41.6975030" lon="2.0443970">
        <ele>428.6</ele>
        <time>2022-09-26T08:58:02Z</time>
      </trkpt>
      <trkpt lat="41.6975480" lon="2.0443970">
        <ele>428.6</ele>
        <time>2022-09-26T08:58:03Z</time>
      </trkpt>
      <trkpt lat="41.6976400" lon="2.0444430">
        <ele>428.6</ele>
        <time>2022-09-26T08:58:05Z</time>
      </trkpt>
      <trkpt lat="41.6976840" lon="2.0444760">
        <ele>428.8</ele>
        <time>2022-09-26T08:58:06Z</time>
      </trkpt>
      <trkpt lat="41.6977240" lon="2.0445140">
        <ele>428.8</ele>
        <time>2022-09-26T08:58:07Z</time>
      </trkpt>
      <trkpt lat="41.6977620" lon="2.0445530">
        <ele>429.0</ele>
        <time>2022-09-26T08:58:08Z</time>
      </trkpt>
      <trkpt lat="41.6977990" lon="2.0445880">
        <ele>429.0</ele>
        <time>2022-09-26T08:58:09Z</time>
      </trkpt>
      <trkpt lat="41.6978380" lon="2.0446150">
        <ele>429.2</ele>
        <time>2022-09-26T08:58:10Z</time>
      </trkpt>
      <trkpt lat="41.6978810" lon="2.0446320">
        <ele>429.2</ele>
        <time>2022-09-26T08:58:11Z</time>
      </trkpt>
      <trkpt lat="41.6979300" lon="2.0446380">
        <ele>429.0</ele>
        <time>2022-09-26T08:58:12Z</time>
      </trkpt>
      <trkpt lat="41.6979810" lon="2.0446330">
        <ele>429.2</ele>
        <time>2022-09-26T08:58:13Z</time>
      </trkpt>
      <trkpt lat="41.6980300" lon="2.0446210">
        <ele>429.2</ele>
        <time>2022-09-26T08:58:14Z</time>
      </trkpt>
      <trkpt lat="41.6980760" lon="2.0446020">
        <ele>429.2</ele>
        <time>2022-09-26T08:58:15Z</time>
      </trkpt>
      <trkpt lat="41.6981230" lon="2.0445850">
        <ele>429.2</ele>
        <time>2022-09-26T08:58:16Z</time>
      </trkpt>
      <trkpt lat="41.6981670" lon="2.0445660">
        <ele>429.2</ele>
        <time>2022-09-26T08:58:17Z</time>
      </trkpt>
      <trkpt lat="41.6982120" lon="2.0445450">
        <ele>429.4</ele>
        <time>2022-09-26T08:58:18Z</time>
      </trkpt>
      <trkpt lat="41.6982560" lon="2.0445200">
        <ele>429.4</ele>
        <time>2022-09-26T08:58:19Z</time>
      </trkpt>
      <trkpt lat="41.6982970" lon="2.0444890">
        <ele>429.6</ele>
        <time>2022-09-26T08:58:20Z</time>
      </trkpt>
      <trkpt lat="41.6983340" lon="2.0444560">
        <ele>429.6</ele>
        <time>2022-09-26T08:58:21Z</time>
      </trkpt>
      <trkpt lat="41.6984110" lon="2.0443810">
        <ele>429.8</ele>
        <time>2022-09-26T08:58:23Z</time>
      </trkpt>
      <trkpt lat="41.6984470" lon="2.0443360">
        <ele>429.8</ele>
        <time>2022-09-26T08:58:24Z</time>
      </trkpt>
      <trkpt lat="41.6984770" lon="2.0442850">
        <ele>429.8</ele>
        <time>2022-09-26T08:58:25Z</time>
      </trkpt>
      <trkpt lat="41.6985040" lon="2.0442340">
        <ele>430.0</ele>
        <time>2022-09-26T08:58:26Z</time>
      </trkpt>
      <trkpt lat="41.6985310" lon="2.0441810">
        <ele>430.0</ele>
        <time>2022-09-26T08:58:27Z</time>
      </trkpt>
      <trkpt lat="41.6985890" lon="2.0440700">
        <ele>429.8</ele>
        <time>2022-09-26T08:58:29Z</time>
      </trkpt>
      <trkpt lat="41.6986250" lon="2.0440150">
        <ele>429.8</ele>
        <time>2022-09-26T08:58:30Z</time>
      </trkpt>
      <trkpt lat="41.6986650" lon="2.0439630">
        <ele>429.8</ele>
        <time>2022-09-26T08:58:31Z</time>
      </trkpt>
      <trkpt lat="41.6987070" lon="2.0439180">
        <ele>429.8</ele>
        <time>2022-09-26T08:58:32Z</time>
      </trkpt>
      <trkpt lat="41.6987530" lon="2.0438840">
        <ele>429.6</ele>
        <time>2022-09-26T08:58:33Z</time>
      </trkpt>
      <trkpt lat="41.6987970" lon="2.0438580">
        <ele>429.6</ele>
        <time>2022-09-26T08:58:34Z</time>
      </trkpt>
      <trkpt lat="41.6988430" lon="2.0438380">
        <ele>429.6</ele>
        <time>2022-09-26T08:58:35Z</time>
      </trkpt>
      <trkpt lat="41.6988910" lon="2.0438220">
        <ele>429.6</ele>
        <time>2022-09-26T08:58:36Z</time>
      </trkpt>
      <trkpt lat="41.6989870" lon="2.0437900">
        <ele>429.8</ele>
        <time>2022-09-26T08:58:38Z</time>
      </trkpt>
      <trkpt lat="41.6990370" lon="2.0437680">
        <ele>429.8</ele>
        <time>2022-09-26T08:58:39Z</time>
      </trkpt>
      <trkpt lat="41.6990850" lon="2.0437440">
        <ele>430.0</ele>
        <time>2022-09-26T08:58:40Z</time>
      </trkpt>
      <trkpt lat="41.6991320" lon="2.0437200">
        <ele>430.0</ele>
        <time>2022-09-26T08:58:41Z</time>
      </trkpt>
      <trkpt lat="41.6992270" lon="2.0436740">
        <ele>430.0</ele>
        <time>2022-09-26T08:58:43Z</time>
      </trkpt>
      <trkpt lat="41.6992780" lon="2.0436520">
        <ele>430.2</ele>
        <time>2022-09-26T08:58:44Z</time>
      </trkpt>
      <trkpt lat="41.6993260" lon="2.0436300">
        <ele>430.2</ele>
        <time>2022-09-26T08:58:45Z</time>
      </trkpt>
      <trkpt lat="41.6993730" lon="2.0436090">
        <ele>430.0</ele>
        <time>2022-09-26T08:58:46Z</time>
      </trkpt>
      <trkpt lat="41.6994210" lon="2.0435910">
        <ele>430.0</ele>
        <time>2022-09-26T08:58:47Z</time>
      </trkpt>
      <trkpt lat="41.6995100" lon="2.0435590">
        <ele>430.0</ele>
        <time>2022-09-26T08:58:49Z</time>
      </trkpt>
      <trkpt lat="41.6995560" lon="2.0435420">
        <ele>430.0</ele>
        <time>2022-09-26T08:58:50Z</time>
      </trkpt>
      <trkpt lat="41.6996000" lon="2.0435240">
        <ele>430.2</ele>
        <time>2022-09-26T08:58:51Z</time>
      </trkpt>
      <trkpt lat="41.6996860" lon="2.0434850">
        <ele>430.6</ele>
        <time>2022-09-26T08:58:53Z</time>
      </trkpt>
      <trkpt lat="41.6997250" lon="2.0434580">
        <ele>430.8</ele>
        <time>2022-09-26T08:58:54Z</time>
      </trkpt>
      <trkpt lat="41.6997620" lon="2.0434260">
        <ele>431.0</ele>
        <time>2022-09-26T08:58:55Z</time>
      </trkpt>
      <trkpt lat="41.6998000" lon="2.0433840">
        <ele>431.2</ele>
        <time>2022-09-26T08:58:56Z</time>
      </trkpt>
      <trkpt lat="41.6998320" lon="2.0433360">
        <ele>431.4</ele>
        <time>2022-09-26T08:58:57Z</time>
      </trkpt>
      <trkpt lat="41.6998610" lon="2.0432870">
        <ele>431.6</ele>
        <time>2022-09-26T08:58:58Z</time>
      </trkpt>
      <trkpt lat="41.6998880" lon="2.0432330">
        <ele>431.8</ele>
        <time>2022-09-26T08:58:59Z</time>
      </trkpt>
      <trkpt lat="41.6999080" lon="2.0431770">
        <ele>432.0</ele>
        <time>2022-09-26T08:59:00Z</time>
      </trkpt>
      <trkpt lat="41.6999230" lon="2.0431210">
        <ele>432.2</ele>
        <time>2022-09-26T08:59:01Z</time>
      </trkpt>
      <trkpt lat="41.6999330" lon="2.0430640">
        <ele>432.2</ele>
        <time>2022-09-26T08:59:02Z</time>
      </trkpt>
      <trkpt lat="41.6999380" lon="2.0430060">
        <ele>432.4</ele>
        <time>2022-09-26T08:59:03Z</time>
      </trkpt>
      <trkpt lat="41.6999420" lon="2.0429490">
        <ele>432.4</ele>
        <time>2022-09-26T08:59:04Z</time>
      </trkpt>
      <trkpt lat="41.6999430" lon="2.0428940">
        <ele>432.6</ele>
        <time>2022-09-26T08:59:05Z</time>
      </trkpt>
      <trkpt lat="41.6999410" lon="2.0428380">
        <ele>432.8</ele>
        <time>2022-09-26T08:59:06Z</time>
      </trkpt>
      <trkpt lat="41.6999390" lon="2.0427820">
        <ele>432.8</ele>
        <time>2022-09-26T08:59:07Z</time>
      </trkpt>
      <trkpt lat="41.6999430" lon="2.0427260">
        <ele>433.2</ele>
        <time>2022-09-26T08:59:08Z</time>
      </trkpt>
      <trkpt lat="41.6999490" lon="2.0426750">
        <ele>433.4</ele>
        <time>2022-09-26T08:59:09Z</time>
      </trkpt>
      <trkpt lat="41.6999650" lon="2.0425790">
        <ele>433.6</ele>
        <time>2022-09-26T08:59:11Z</time>
      </trkpt>
      <trkpt lat="41.6999950" lon="2.0424890">
        <ele>433.8</ele>
        <time>2022-09-26T08:59:13Z</time>
      </trkpt>
      <trkpt lat="41.7000140" lon="2.0424440">
        <ele>433.8</ele>
        <time>2022-09-26T08:59:14Z</time>
      </trkpt>
      <trkpt lat="41.7000350" lon="2.0423980">
        <ele>434.2</ele>
        <time>2022-09-26T08:59:15Z</time>
      </trkpt>
      <trkpt lat="41.7000630" lon="2.0422990">
        <ele>434.4</ele>
        <time>2022-09-26T08:59:17Z</time>
      </trkpt>
      <trkpt lat="41.7001050" lon="2.0421960">
        <ele>434.4</ele>
        <time>2022-09-26T08:59:19Z</time>
      </trkpt>
      <trkpt lat="41.7001310" lon="2.0421450">
        <ele>434.6</ele>
        <time>2022-09-26T08:59:20Z</time>
      </trkpt>
      <trkpt lat="41.7001620" lon="2.0420950">
        <ele>434.6</ele>
        <time>2022-09-26T08:59:21Z</time>
      </trkpt>
      <trkpt lat="41.7001930" lon="2.0420450">
        <ele>434.6</ele>
        <time>2022-09-26T08:59:22Z</time>
      </trkpt>
      <trkpt lat="41.7002270" lon="2.0419970">
        <ele>434.6</ele>
        <time>2022-09-26T08:59:23Z</time>
      </trkpt>
      <trkpt lat="41.7002590" lon="2.0419520">
        <ele>434.8</ele>
        <time>2022-09-26T08:59:24Z</time>
      </trkpt>
      <trkpt lat="41.7002890" lon="2.0419120">
        <ele>434.8</ele>
        <time>2022-09-26T08:59:25Z</time>
      </trkpt>
      <trkpt lat="41.7003180" lon="2.0418720">
        <ele>435.0</ele>
        <time>2022-09-26T08:59:26Z</time>
      </trkpt>
      <trkpt lat="41.7003430" lon="2.0418320">
        <ele>435.2</ele>
        <time>2022-09-26T08:59:27Z</time>
      </trkpt>
      <trkpt lat="41.7003660" lon="2.0417900">
        <ele>435.4</ele>
        <time>2022-09-26T08:59:28Z</time>
      </trkpt>
      <trkpt lat="41.7003870" lon="2.0417490">
        <ele>435.6</ele>
        <time>2022-09-26T08:59:29Z</time>
      </trkpt>
      <trkpt lat="41.7004210" lon="2.0416590">
        <ele>436.0</ele>
        <time>2022-09-26T08:59:31Z</time>
      </trkpt>
      <trkpt lat="41.7004320" lon="2.0416080">
        <ele>436.2</ele>
        <time>2022-09-26T08:59:32Z</time>
      </trkpt>
      <trkpt lat="41.7004390" lon="2.0415550">
        <ele>436.4</ele>
        <time>2022-09-26T08:59:33Z</time>
      </trkpt>
      <trkpt lat="41.7004400" lon="2.0414460">
        <ele>436.8</ele>
        <time>2022-09-26T08:59:35Z</time>
      </trkpt>
      <trkpt lat="41.7004280" lon="2.0413380">
        <ele>437.2</ele>
        <time>2022-09-26T08:59:37Z</time>
      </trkpt>
      <trkpt lat="41.7004210" lon="2.0412850">
        <ele>437.4</ele>
        <time>2022-09-26T08:59:38Z</time>
      </trkpt>
      <trkpt lat="41.7004120" lon="2.0412320">
        <ele>437.6</ele>
        <time>2022-09-26T08:59:39Z</time>
      </trkpt>
      <trkpt lat="41.7004030" lon="2.0411290">
        <ele>437.8</ele>
        <time>2022-09-26T08:59:41Z</time>
      </trkpt>
      <trkpt lat="41.7004060" lon="2.0410280">
        <ele>438.0</ele>
        <time>2022-09-26T08:59:43Z</time>
      </trkpt>
      <trkpt lat="41.7004120" lon="2.0409770">
        <ele>438.2</ele>
        <time>2022-09-26T08:59:44Z</time>
      </trkpt>
      <trkpt lat="41.7004220" lon="2.0409250">
        <ele>438.2</ele>
        <time>2022-09-26T08:59:45Z</time>
      </trkpt>
      <trkpt lat="41.7004360" lon="2.0408720">
        <ele>438.4</ele>
        <time>2022-09-26T08:59:46Z</time>
      </trkpt>
      <trkpt lat="41.7004530" lon="2.0408200">
        <ele>438.4</ele>
        <time>2022-09-26T08:59:47Z</time>
      </trkpt>
      <trkpt lat="41.7004940" lon="2.0407240">
        <ele>438.6</ele>
        <time>2022-09-26T08:59:49Z</time>
      </trkpt>
      <trkpt lat="41.7005190" lon="2.0406790">
        <ele>438.4</ele>
        <time>2022-09-26T08:59:50Z</time>
      </trkpt>
      <trkpt lat="41.7005460" lon="2.0406350">
        <ele>438.4</ele>
        <time>2022-09-26T08:59:51Z</time>
      </trkpt>
      <trkpt lat="41.7005750" lon="2.0405900">
        <ele>438.4</ele>
        <time>2022-09-26T08:59:52Z</time>
      </trkpt>
      <trkpt lat="41.7006060" lon="2.0405450">
        <ele>438.4</ele>
        <time>2022-09-26T08:59:53Z</time>
      </trkpt>
      <trkpt lat="41.7006360" lon="2.0405000">
        <ele>438.6</ele>
        <time>2022-09-26T08:59:54Z</time>
      </trkpt>
      <trkpt lat="41.7007010" lon="2.0404120">
        <ele>438.8</ele>
        <time>2022-09-26T08:59:56Z</time>
      </trkpt>
      <trkpt lat="41.7007360" lon="2.0403730">
        <ele>439.0</ele>
        <time>2022-09-26T08:59:57Z</time>
      </trkpt>
      <trkpt lat="41.7007770" lon="2.0403460">
        <ele>439.0</ele>
        <time>2022-09-26T08:59:58Z</time>
      </trkpt>
      <trkpt lat="41.7008210" lon="2.0403320">
        <ele>439.4</ele>
        <time>2022-09-26T08:59:59Z</time>
      </trkpt>
      <trkpt lat="41.7009080" lon="2.0403360">
        <ele>439.6</ele>
        <time>2022-09-26T09:00:01Z</time>
      </trkpt>
      <trkpt lat="41.7009470" lon="2.0403540">
        <ele>440.0</ele>
        <time>2022-09-26T09:00:02Z</time>
      </trkpt>
      <trkpt lat="41.7009820" lon="2.0403810">
        <ele>440.0</ele>
        <time>2022-09-26T09:00:03Z</time>
      </trkpt>
      <trkpt lat="41.7010120" lon="2.0404180">
        <ele>440.2</ele>
        <time>2022-09-26T09:00:04Z</time>
      </trkpt>
      <trkpt lat="41.7010380" lon="2.0404590">
        <ele>440.4</ele>
        <time>2022-09-26T09:00:05Z</time>
      </trkpt>
      <trkpt lat="41.7010620" lon="2.0405030">
        <ele>440.4</ele>
        <time>2022-09-26T09:00:06Z</time>
      </trkpt>
      <trkpt lat="41.7010860" lon="2.0405480">
        <ele>440.4</ele>
        <time>2022-09-26T09:00:07Z</time>
      </trkpt>
      <trkpt lat="41.7011090" lon="2.0405940">
        <ele>440.4</ele>
        <time>2022-09-26T09:00:08Z</time>
      </trkpt>
      <trkpt lat="41.7011330" lon="2.0406380">
        <ele>440.4</ele>
        <time>2022-09-26T09:00:09Z</time>
      </trkpt>
      <trkpt lat="41.7011590" lon="2.0406790">
        <ele>440.6</ele>
        <time>2022-09-26T09:00:10Z</time>
      </trkpt>
      <trkpt lat="41.7011910" lon="2.0407160">
        <ele>440.6</ele>
        <time>2022-09-26T09:00:11Z</time>
      </trkpt>
      <trkpt lat="41.7012670" lon="2.0407700">
        <ele>440.6</ele>
        <time>2022-09-26T09:00:13Z</time>
      </trkpt>
      <trkpt lat="41.7013120" lon="2.0407850">
        <ele>440.6</ele>
        <time>2022-09-26T09:00:14Z</time>
      </trkpt>
      <trkpt lat="41.7013590" lon="2.0407910">
        <ele>440.6</ele>
        <time>2022-09-26T09:00:15Z</time>
      </trkpt>
      <trkpt lat="41.7014520" lon="2.0407700">
        <ele>440.4</ele>
        <time>2022-09-26T09:00:17Z</time>
      </trkpt>
      <trkpt lat="41.7015290" lon="2.0407180">
        <ele>440.4</ele>
        <time>2022-09-26T09:00:19Z</time>
      </trkpt>
      <trkpt lat="41.7015610" lon="2.0406810">
        <ele>440.4</ele>
        <time>2022-09-26T09:00:20Z</time>
      </trkpt>
      <trkpt lat="41.7015880" lon="2.0406360">
        <ele>440.4</ele>
        <time>2022-09-26T09:00:21Z</time>
      </trkpt>
      <trkpt lat="41.7016090" lon="2.0405880">
        <ele>440.4</ele>
        <time>2022-09-26T09:00:22Z</time>
      </trkpt>
      <trkpt lat="41.7016250" lon="2.0405360">
        <ele>440.4</ele>
        <time>2022-09-26T09:00:23Z</time>
      </trkpt>
      <trkpt lat="41.7016340" lon="2.0404800">
        <ele>440.4</ele>
        <time>2022-09-26T09:00:24Z</time>
      </trkpt>
      <trkpt lat="41.7016380" lon="2.0404210">
        <ele>440.4</ele>
        <time>2022-09-26T09:00:25Z</time>
      </trkpt>
      <trkpt lat="41.7016400" lon="2.0403580">
        <ele>440.4</ele>
        <time>2022-09-26T09:00:26Z</time>
      </trkpt>
      <trkpt lat="41.7016430" lon="2.0402920">
        <ele>440.4</ele>
        <time>2022-09-26T09:00:27Z</time>
      </trkpt>
      <trkpt lat="41.7016550" lon="2.0401550">
        <ele>440.4</ele>
        <time>2022-09-26T09:00:29Z</time>
      </trkpt>
      <trkpt lat="41.7016640" lon="2.0400860">
        <ele>440.2</ele>
        <time>2022-09-26T09:00:30Z</time>
      </trkpt>
      <trkpt lat="41.7016860" lon="2.0399520">
        <ele>440.2</ele>
        <time>2022-09-26T09:00:32Z</time>
      </trkpt>
      <trkpt lat="41.7016950" lon="2.0398880">
        <ele>440.2</ele>
        <time>2022-09-26T09:00:33Z</time>
      </trkpt>
      <trkpt lat="41.7017010" lon="2.0398260">
        <ele>440.2</ele>
        <time>2022-09-26T09:00:34Z</time>
      </trkpt>
      <trkpt lat="41.7017030" lon="2.0397660">
        <ele>440.4</ele>
        <time>2022-09-26T09:00:35Z</time>
      </trkpt>
      <trkpt lat="41.7017010" lon="2.0397050">
        <ele>440.4</ele>
        <time>2022-09-26T09:00:36Z</time>
      </trkpt>
      <trkpt lat="41.7016940" lon="2.0396430">
        <ele>440.4</ele>
        <time>2022-09-26T09:00:37Z</time>
      </trkpt>
      <trkpt lat="41.7016820" lon="2.0395810">
        <ele>440.4</ele>
        <time>2022-09-26T09:00:38Z</time>
      </trkpt>
      <trkpt lat="41.7016670" lon="2.0395190">
        <ele>440.4</ele>
        <time>2022-09-26T09:00:39Z</time>
      </trkpt>
      <trkpt lat="41.7016500" lon="2.0394580">
        <ele>440.4</ele>
        <time>2022-09-26T09:00:40Z</time>
      </trkpt>
      <trkpt lat="41.7016340" lon="2.0393960">
        <ele>440.4</ele>
        <time>2022-09-26T09:00:41Z</time>
      </trkpt>
      <trkpt lat="41.7016220" lon="2.0393330">
        <ele>440.2</ele>
        <time>2022-09-26T09:00:42Z</time>
      </trkpt>
      <trkpt lat="41.7016180" lon="2.0392680">
        <ele>440.2</ele>
        <time>2022-09-26T09:00:43Z</time>
      </trkpt>
      <trkpt lat="41.7016210" lon="2.0392030">
        <ele>440.2</ele>
        <time>2022-09-26T09:00:44Z</time>
      </trkpt>
      <trkpt lat="41.7016300" lon="2.0391400">
        <ele>440.2</ele>
        <time>2022-09-26T09:00:45Z</time>
      </trkpt>
      <trkpt lat="41.7016770" lon="2.0390300">
        <ele>440.2</ele>
        <time>2022-09-26T09:00:47Z</time>
      </trkpt>
      <trkpt lat="41.7017520" lon="2.0389680">
        <ele>440.0</ele>
        <time>2022-09-26T09:00:49Z</time>
      </trkpt>
      <trkpt lat="41.7017950" lon="2.0389570">
        <ele>440.0</ele>
        <time>2022-09-26T09:00:50Z</time>
      </trkpt>
      <trkpt lat="41.7018400" lon="2.0389570">
        <ele>440.0</ele>
        <time>2022-09-26T09:00:51Z</time>
      </trkpt>
      <trkpt lat="41.7018840" lon="2.0389620">
        <ele>440.2</ele>
        <time>2022-09-26T09:00:52Z</time>
      </trkpt>
      <trkpt lat="41.7019250" lon="2.0389660">
        <ele>440.2</ele>
        <time>2022-09-26T09:00:53Z</time>
      </trkpt>
      <trkpt lat="41.7019660" lon="2.0389690">
        <ele>440.4</ele>
        <time>2022-09-26T09:00:54Z</time>
      </trkpt>
      <trkpt lat="41.7020420" lon="2.0389650">
        <ele>440.6</ele>
        <time>2022-09-26T09:00:56Z</time>
      </trkpt>
      <trkpt lat="41.7020780" lon="2.0389570">
        <ele>440.6</ele>
        <time>2022-09-26T09:00:57Z</time>
      </trkpt>
      <trkpt lat="41.7021520" lon="2.0389580">
        <ele>440.6</ele>
        <time>2022-09-26T09:00:59Z</time>
      </trkpt>
      <trkpt lat="41.7021850" lon="2.0389810">
        <ele>440.8</ele>
        <time>2022-09-26T09:01:00Z</time>
      </trkpt>
      <trkpt lat="41.7022120" lon="2.0390150">
        <ele>440.8</ele>
        <time>2022-09-26T09:01:01Z</time>
      </trkpt>
      <trkpt lat="41.7022320" lon="2.0390530">
        <ele>441.0</ele>
        <time>2022-09-26T09:01:02Z</time>
      </trkpt>
      <trkpt lat="41.7022500" lon="2.0390910">
        <ele>441.0</ele>
        <time>2022-09-26T09:01:03Z</time>
      </trkpt>
      <trkpt lat="41.7022660" lon="2.0391280">
        <ele>441.2</ele>
        <time>2022-09-26T09:01:04Z</time>
      </trkpt>
      <trkpt lat="41.7022800" lon="2.0391640">
        <ele>441.4</ele>
        <time>2022-09-26T09:01:05Z</time>
      </trkpt>
      <trkpt lat="41.7022900" lon="2.0392000">
        <ele>441.8</ele>
        <time>2022-09-26T09:01:06Z</time>
      </trkpt>
      <trkpt lat="41.7022990" lon="2.0392370">
        <ele>442.2</ele>
        <time>2022-09-26T09:01:07Z</time>
      </trkpt>
      <trkpt lat="41.7023070" lon="2.0392730">
        <ele>442.4</ele>
        <time>2022-09-26T09:01:08Z</time>
      </trkpt>
      <trkpt lat="41.7023140" lon="2.0393090">
        <ele>442.6</ele>
        <time>2022-09-26T09:01:09Z</time>
      </trkpt>
      <trkpt lat="41.7023210" lon="2.0393430">
        <ele>442.8</ele>
        <time>2022-09-26T09:01:10Z</time>
      </trkpt>
      <trkpt lat="41.7023260" lon="2.0393770">
        <ele>443.2</ele>
        <time>2022-09-26T09:01:11Z</time>
      </trkpt>
      <trkpt lat="41.7023320" lon="2.0394090">
        <ele>443.2</ele>
        <time>2022-09-26T09:01:12Z</time>
      </trkpt>
      <trkpt lat="41.7023470" lon="2.0394750">
        <ele>443.8</ele>
        <time>2022-09-26T09:01:14Z</time>
      </trkpt>
      <trkpt lat="41.7023600" lon="2.0395070">
        <ele>444.0</ele>
        <time>2022-09-26T09:01:15Z</time>
      </trkpt>
      <trkpt lat="41.7023770" lon="2.0395350">
        <ele>444.4</ele>
        <time>2022-09-26T09:01:16Z</time>
      </trkpt>
      <trkpt lat="41.7023980" lon="2.0395600">
        <ele>444.6</ele>
        <time>2022-09-26T09:01:17Z</time>
      </trkpt>
      <trkpt lat="41.7024220" lon="2.0395810">
        <ele>444.8</ele>
        <time>2022-09-26T09:01:18Z</time>
      </trkpt>
      <trkpt lat="41.7024700" lon="2.0396180">
        <ele>445.2</ele>
        <time>2022-09-26T09:01:20Z</time>
      </trkpt>
      <trkpt lat="41.7024940" lon="2.0396320">
        <ele>445.4</ele>
        <time>2022-09-26T09:01:21Z</time>
      </trkpt>
      <trkpt lat="41.7025180" lon="2.0396420">
        <ele>445.6</ele>
        <time>2022-09-26T09:01:22Z</time>
      </trkpt>
      <trkpt lat="41.7025420" lon="2.0396480">
        <ele>445.8</ele>
        <time>2022-09-26T09:01:23Z</time>
      </trkpt>
      <trkpt lat="41.7025940" lon="2.0396510">
        <ele>446.0</ele>
        <time>2022-09-26T09:01:25Z</time>
      </trkpt>
      <trkpt lat="41.7026190" lon="2.0396480">
        <ele>446.2</ele>
        <time>2022-09-26T09:01:26Z</time>
      </trkpt>
      <trkpt lat="41.7026440" lon="2.0396430">
        <ele>446.2</ele>
        <time>2022-09-26T09:01:27Z</time>
      </trkpt>
      <trkpt lat="41.7026700" lon="2.0396300">
        <ele>446.4</ele>
        <time>2022-09-26T09:01:28Z</time>
      </trkpt>
      <trkpt lat="41.7026960" lon="2.0396100">
        <ele>446.6</ele>
        <time>2022-09-26T09:01:29Z</time>
      </trkpt>
      <trkpt lat="41.7027450" lon="2.0395590">
        <ele>447.2</ele>
        <time>2022-09-26T09:01:31Z</time>
      </trkpt>
      <trkpt lat="41.7027660" lon="2.0395260">
        <ele>447.4</ele>
        <time>2022-09-26T09:01:32Z</time>
      </trkpt>
      <trkpt lat="41.7027850" lon="2.0394910">
        <ele>447.6</ele>
        <time>2022-09-26T09:01:33Z</time>
      </trkpt>
      <trkpt lat="41.7028050" lon="2.0394570">
        <ele>447.6</ele>
        <time>2022-09-26T09:01:34Z</time>
      </trkpt>
      <trkpt lat="41.7028260" lon="2.0394240">
        <ele>447.8</ele>
        <time>2022-09-26T09:01:35Z</time>
      </trkpt>
      <trkpt lat="41.7028470" lon="2.0393910">
        <ele>447.8</ele>
        <time>2022-09-26T09:01:36Z</time>
      </trkpt>
      <trkpt lat="41.7028950" lon="2.0393230">
        <ele>447.8</ele>
        <time>2022-09-26T09:01:38Z</time>
      </trkpt>
      <trkpt lat="41.7029220" lon="2.0392890">
        <ele>447.8</ele>
        <time>2022-09-26T09:01:39Z</time>
      </trkpt>
      <trkpt lat="41.7029510" lon="2.0392520">
        <ele>447.6</ele>
        <time>2022-09-26T09:01:40Z</time>
      </trkpt>
      <trkpt lat="41.7029840" lon="2.0392160">
        <ele>447.4</ele>
        <time>2022-09-26T09:01:41Z</time>
      </trkpt>
      <trkpt lat="41.7030180" lon="2.0391790">
        <ele>447.2</ele>
        <time>2022-09-26T09:01:42Z</time>
      </trkpt>
      <trkpt lat="41.7030960" lon="2.0391120">
        <ele>446.8</ele>
        <time>2022-09-26T09:01:44Z</time>
      </trkpt>
      <trkpt lat="41.7031410" lon="2.0390830">
        <ele>446.6</ele>
        <time>2022-09-26T09:01:45Z</time>
      </trkpt>
      <trkpt lat="41.7031870" lon="2.0390570">
        <ele>446.4</ele>
        <time>2022-09-26T09:01:46Z</time>
      </trkpt>
      <trkpt lat="41.7032370" lon="2.0390360">
        <ele>446.2</ele>
        <time>2022-09-26T09:01:47Z</time>
      </trkpt>
      <trkpt lat="41.7032860" lon="2.0390150">
        <ele>445.8</ele>
        <time>2022-09-26T09:01:48Z</time>
      </trkpt>
      <trkpt lat="41.7033350" lon="2.0389970">
        <ele>445.6</ele>
        <time>2022-09-26T09:01:49Z</time>
      </trkpt>
      <trkpt lat="41.7033860" lon="2.0389830">
        <ele>445.2</ele>
        <time>2022-09-26T09:01:50Z</time>
      </trkpt>
      <trkpt lat="41.7034360" lon="2.0389680">
        <ele>445.0</ele>
        <time>2022-09-26T09:01:51Z</time>
      </trkpt>
      <trkpt lat="41.7034860" lon="2.0389520">
        <ele>444.8</ele>
        <time>2022-09-26T09:01:52Z</time>
      </trkpt>
      <trkpt lat="41.7035370" lon="2.0389370">
        <ele>444.6</ele>
        <time>2022-09-26T09:01:53Z</time>
      </trkpt>
      <trkpt lat="41.7035860" lon="2.0389240">
        <ele>444.4</ele>
        <time>2022-09-26T09:01:54Z</time>
      </trkpt>
      <trkpt lat="41.7036830" lon="2.0389010">
        <ele>444.2</ele>
        <time>2022-09-26T09:01:56Z</time>
      </trkpt>
      <trkpt lat="41.7037310" lon="2.0388900">
        <ele>444.2</ele>
        <time>2022-09-26T09:01:57Z</time>
      </trkpt>
      <trkpt lat="41.7037790" lon="2.0388790">
        <ele>444.2</ele>
        <time>2022-09-26T09:01:58Z</time>
      </trkpt>
      <trkpt lat="41.7038250" lon="2.0388700">
        <ele>444.0</ele>
        <time>2022-09-26T09:01:59Z</time>
      </trkpt>
      <trkpt lat="41.7038720" lon="2.0388660">
        <ele>444.0</ele>
        <time>2022-09-26T09:02:00Z</time>
      </trkpt>
      <trkpt lat="41.7039590" lon="2.0388520">
        <ele>443.8</ele>
        <time>2022-09-26T09:02:02Z</time>
      </trkpt>
      <trkpt lat="41.7039960" lon="2.0388350">
        <ele>443.8</ele>
        <time>2022-09-26T09:02:03Z</time>
      </trkpt>
      <trkpt lat="41.7040310" lon="2.0388160">
        <ele>444.0</ele>
        <time>2022-09-26T09:02:04Z</time>
      </trkpt>
      <trkpt lat="41.7040630" lon="2.0388000">
        <ele>444.2</ele>
        <time>2022-09-26T09:02:05Z</time>
      </trkpt>
      <trkpt lat="41.7041220" lon="2.0387710">
        <ele>444.2</ele>
        <time>2022-09-26T09:02:07Z</time>
      </trkpt>
      <trkpt lat="41.7041500" lon="2.0387570">
        <ele>444.4</ele>
        <time>2022-09-26T09:02:08Z</time>
      </trkpt>
      <trkpt lat="41.7041830" lon="2.0387470">
        <ele>444.6</ele>
        <time>2022-09-26T09:02:09Z</time>
      </trkpt>
      <trkpt lat="41.7042420" lon="2.0387230">
        <ele>445.0</ele>
        <time>2022-09-26T09:02:11Z</time>
      </trkpt>
      <trkpt lat="41.7042700" lon="2.0387040">
        <ele>445.2</ele>
        <time>2022-09-26T09:02:12Z</time>
      </trkpt>
      <trkpt lat="41.7042990" lon="2.0386840">
        <ele>445.4</ele>
        <time>2022-09-26T09:02:13Z</time>
      </trkpt>
      <trkpt lat="41.7043290" lon="2.0386660">
        <ele>445.6</ele>
        <time>2022-09-26T09:02:14Z</time>
      </trkpt>
      <trkpt lat="41.7043570" lon="2.0386490">
        <ele>446.0</ele>
        <time>2022-09-26T09:02:15Z</time>
      </trkpt>
      <trkpt lat="41.7044120" lon="2.0386200">
        <ele>446.4</ele>
        <time>2022-09-26T09:02:17Z</time>
      </trkpt>
      <trkpt lat="41.7044410" lon="2.0386070">
        <ele>446.6</ele>
        <time>2022-09-26T09:02:18Z</time>
      </trkpt>
      <trkpt lat="41.7044710" lon="2.0385950">
        <ele>446.8</ele>
        <time>2022-09-26T09:02:19Z</time>
      </trkpt>
      <trkpt lat="41.7045010" lon="2.0385840">
        <ele>447.0</ele>
        <time>2022-09-26T09:02:20Z</time>
      </trkpt>
      <trkpt lat="41.7045320" lon="2.0385720">
        <ele>447.2</ele>
        <time>2022-09-26T09:02:21Z</time>
      </trkpt>
      <trkpt lat="41.7045620" lon="2.0385590">
        <ele>447.4</ele>
        <time>2022-09-26T09:02:22Z</time>
      </trkpt>
      <trkpt lat="41.7045920" lon="2.0385460">
        <ele>447.8</ele>
        <time>2022-09-26T09:02:23Z</time>
      </trkpt>
      <trkpt lat="41.7046520" lon="2.0385250">
        <ele>448.2</ele>
        <time>2022-09-26T09:02:25Z</time>
      </trkpt>
      <trkpt lat="41.7046790" lon="2.0385140">
        <ele>448.4</ele>
        <time>2022-09-26T09:02:26Z</time>
      </trkpt>
      <trkpt lat="41.7047060" lon="2.0385030">
        <ele>448.6</ele>
        <time>2022-09-26T09:02:27Z</time>
      </trkpt>
      <trkpt lat="41.7047590" lon="2.0384830">
        <ele>448.8</ele>
        <time>2022-09-26T09:02:29Z</time>
      </trkpt>
      <trkpt lat="41.7048240" lon="2.0384630">
        <ele>449.0</ele>
        <time>2022-09-26T09:02:31Z</time>
      </trkpt>
      <trkpt lat="41.7048570" lon="2.0384540">
        <ele>449.2</ele>
        <time>2022-09-26T09:02:32Z</time>
      </trkpt>
      <trkpt lat="41.7048890" lon="2.0384440">
        <ele>449.2</ele>
        <time>2022-09-26T09:02:33Z</time>
      </trkpt>
      <trkpt lat="41.7049550" lon="2.0384280">
        <ele>449.2</ele>
        <time>2022-09-26T09:02:35Z</time>
      </trkpt>
      <trkpt lat="41.7049880" lon="2.0384230">
        <ele>449.0</ele>
        <time>2022-09-26T09:02:36Z</time>
      </trkpt>
      <trkpt lat="41.7050210" lon="2.0384200">
        <ele>449.0</ele>
        <time>2022-09-26T09:02:37Z</time>
      </trkpt>
      <trkpt lat="41.7050550" lon="2.0384190">
        <ele>449.0</ele>
        <time>2022-09-26T09:02:38Z</time>
      </trkpt>
      <trkpt lat="41.7050870" lon="2.0384170">
        <ele>449.0</ele>
        <time>2022-09-26T09:02:39Z</time>
      </trkpt>
      <trkpt lat="41.7051530" lon="2.0384180">
        <ele>449.2</ele>
        <time>2022-09-26T09:02:41Z</time>
      </trkpt>
      <trkpt lat="41.7052150" lon="2.0384220">
        <ele>449.6</ele>
        <time>2022-09-26T09:02:43Z</time>
      </trkpt>
      <trkpt lat="41.7052440" lon="2.0384260">
        <ele>449.6</ele>
        <time>2022-09-26T09:02:44Z</time>
      </trkpt>
      <trkpt lat="41.7052750" lon="2.0384300">
        <ele>449.6</ele>
        <time>2022-09-26T09:02:45Z</time>
      </trkpt>
      <trkpt lat="41.7053390" lon="2.0384310">
        <ele>450.0</ele>
        <time>2022-09-26T09:02:47Z</time>
      </trkpt>
      <trkpt lat="41.7054030" lon="2.0384280">
        <ele>450.4</ele>
        <time>2022-09-26T09:02:49Z</time>
      </trkpt>
      <trkpt lat="41.7054340" lon="2.0384230">
        <ele>450.6</ele>
        <time>2022-09-26T09:02:50Z</time>
      </trkpt>
      <trkpt lat="41.7054650" lon="2.0384140">
        <ele>450.6</ele>
        <time>2022-09-26T09:02:51Z</time>
      </trkpt>
      <trkpt lat="41.7054960" lon="2.0384040">
        <ele>450.6</ele>
        <time>2022-09-26T09:02:52Z</time>
      </trkpt>
      <trkpt lat="41.7055270" lon="2.0383930">
        <ele>450.8</ele>
        <time>2022-09-26T09:02:53Z</time>
      </trkpt>
      <trkpt lat="41.7055590" lon="2.0383830">
        <ele>451.2</ele>
        <time>2022-09-26T09:02:54Z</time>
      </trkpt>
      <trkpt lat="41.7056210" lon="2.0383580">
        <ele>451.8</ele>
        <time>2022-09-26T09:02:56Z</time>
      </trkpt>
      <trkpt lat="41.7056530" lon="2.0383480">
        <ele>452.0</ele>
        <time>2022-09-26T09:02:57Z</time>
      </trkpt>
      <trkpt lat="41.7057190" lon="2.0383290">
        <ele>452.0</ele>
        <time>2022-09-26T09:02:59Z</time>
      </trkpt>
      <trkpt lat="41.7057850" lon="2.0383130">
        <ele>452.2</ele>
        <time>2022-09-26T09:03:01Z</time>
      </trkpt>
      <trkpt lat="41.7058180" lon="2.0383050">
        <ele>452.2</ele>
        <time>2022-09-26T09:03:02Z</time>
      </trkpt>
      <trkpt lat="41.7058510" lon="2.0382970">
        <ele>452.0</ele>
        <time>2022-09-26T09:03:03Z</time>
      </trkpt>
      <trkpt lat="41.7059150" lon="2.0382720">
        <ele>452.0</ele>
        <time>2022-09-26T09:03:05Z</time>
      </trkpt>
      <trkpt lat="41.7059790" lon="2.0382420">
        <ele>452.2</ele>
        <time>2022-09-26T09:03:07Z</time>
      </trkpt>
      <trkpt lat="41.7060100" lon="2.0382250">
        <ele>452.2</ele>
        <time>2022-09-26T09:03:08Z</time>
      </trkpt>
      <trkpt lat="41.7060420" lon="2.0382060">
        <ele>452.2</ele>
        <time>2022-09-26T09:03:09Z</time>
      </trkpt>
      <trkpt lat="41.7061040" lon="2.0381650">
        <ele>452.4</ele>
        <time>2022-09-26T09:03:11Z</time>
      </trkpt>
      <trkpt lat="41.7061670" lon="2.0381330">
        <ele>452.4</ele>
        <time>2022-09-26T09:03:13Z</time>
      </trkpt>
      <trkpt lat="41.7061990" lon="2.0381200">
        <ele>452.8</ele>
        <time>2022-09-26T09:03:14Z</time>
      </trkpt>
      <trkpt lat="41.7062320" lon="2.0381070">
        <ele>453.0</ele>
        <time>2022-09-26T09:03:15Z</time>
      </trkpt>
      <trkpt lat="41.7062630" lon="2.0380960">
        <ele>453.0</ele>
        <time>2022-09-26T09:03:16Z</time>
      </trkpt>
      <trkpt lat="41.7062950" lon="2.0380870">
        <ele>453.0</ele>
        <time>2022-09-26T09:03:17Z</time>
      </trkpt>
      <trkpt lat="41.7063270" lon="2.0380790">
        <ele>453.2</ele>
        <time>2022-09-26T09:03:18Z</time>
      </trkpt>
      <trkpt lat="41.7063870" lon="2.0380640">
        <ele>453.6</ele>
        <time>2022-09-26T09:03:20Z</time>
      </trkpt>
      <trkpt lat="41.7064160" lon="2.0380550">
        <ele>454.0</ele>
        <time>2022-09-26T09:03:21Z</time>
      </trkpt>
      <trkpt lat="41.7064730" lon="2.0380380">
        <ele>454.8</ele>
        <time>2022-09-26T09:03:23Z</time>
      </trkpt>
      <trkpt lat="41.7065020" lon="2.0380290">
        <ele>455.0</ele>
        <time>2022-09-26T09:03:24Z</time>
      </trkpt>
      <trkpt lat="41.7065300" lon="2.0380190">
        <ele>455.2</ele>
        <time>2022-09-26T09:03:25Z</time>
      </trkpt>
      <trkpt lat="41.7065590" lon="2.0380080">
        <ele>455.4</ele>
        <time>2022-09-26T09:03:26Z</time>
      </trkpt>
      <trkpt lat="41.7065880" lon="2.0379990">
        <ele>455.4</ele>
        <time>2022-09-26T09:03:27Z</time>
      </trkpt>
      <trkpt lat="41.7066450" lon="2.0379800">
        <ele>455.6</ele>
        <time>2022-09-26T09:03:29Z</time>
      </trkpt>
      <trkpt lat="41.7067030" lon="2.0379540">
        <ele>456.0</ele>
        <time>2022-09-26T09:03:31Z</time>
      </trkpt>
      <trkpt lat="41.7067330" lon="2.0379410">
        <ele>456.0</ele>
        <time>2022-09-26T09:03:32Z</time>
      </trkpt>
      <trkpt lat="41.7067620" lon="2.0379280">
        <ele>456.0</ele>
        <time>2022-09-26T09:03:33Z</time>
      </trkpt>
      <trkpt lat="41.7067900" lon="2.0379150">
        <ele>456.2</ele>
        <time>2022-09-26T09:03:34Z</time>
      </trkpt>
      <trkpt lat="41.7068190" lon="2.0379030">
        <ele>456.2</ele>
        <time>2022-09-26T09:03:35Z</time>
      </trkpt>
      <trkpt lat="41.7068780" lon="2.0378770">
        <ele>456.6</ele>
        <time>2022-09-26T09:03:37Z</time>
      </trkpt>
      <trkpt lat="41.7069050" lon="2.0378630">
        <ele>456.6</ele>
        <time>2022-09-26T09:03:38Z</time>
      </trkpt>
      <trkpt lat="41.7069330" lon="2.0378490">
        <ele>456.8</ele>
        <time>2022-09-26T09:03:39Z</time>
      </trkpt>
      <trkpt lat="41.7069610" lon="2.0378350">
        <ele>456.8</ele>
        <time>2022-09-26T09:03:40Z</time>
      </trkpt>
      <trkpt lat="41.7069900" lon="2.0378200">
        <ele>457.2</ele>
        <time>2022-09-26T09:03:41Z</time>
      </trkpt>
      <trkpt lat="41.7070180" lon="2.0378060">
        <ele>457.2</ele>
        <time>2022-09-26T09:03:42Z</time>
      </trkpt>
      <trkpt lat="41.7070460" lon="2.0377920">
        <ele>457.4</ele>
        <time>2022-09-26T09:03:43Z</time>
      </trkpt>
      <trkpt lat="41.7070730" lon="2.0377780">
        <ele>457.6</ele>
        <time>2022-09-26T09:03:44Z</time>
      </trkpt>
      <trkpt lat="41.7071010" lon="2.0377660">
        <ele>457.6</ele>
        <time>2022-09-26T09:03:45Z</time>
      </trkpt>
      <trkpt lat="41.7071280" lon="2.0377570">
        <ele>457.6</ele>
        <time>2022-09-26T09:03:46Z</time>
      </trkpt>
      <trkpt lat="41.7071590" lon="2.0377480">
        <ele>457.6</ele>
        <time>2022-09-26T09:03:47Z</time>
      </trkpt>
      <trkpt lat="41.7071880" lon="2.0377420">
        <ele>457.8</ele>
        <time>2022-09-26T09:03:48Z</time>
      </trkpt>
      <trkpt lat="41.7072520" lon="2.0377380">
        <ele>458.0</ele>
        <time>2022-09-26T09:03:50Z</time>
      </trkpt>
      <trkpt lat="41.7072850" lon="2.0377350">
        <ele>458.2</ele>
        <time>2022-09-26T09:03:51Z</time>
      </trkpt>
      <trkpt lat="41.7073190" lon="2.0377310">
        <ele>458.2</ele>
        <time>2022-09-26T09:03:52Z</time>
      </trkpt>
      <trkpt lat="41.7073530" lon="2.0377280">
        <ele>458.2</ele>
        <time>2022-09-26T09:03:53Z</time>
      </trkpt>
      <trkpt lat="41.7073880" lon="2.0377260">
        <ele>458.0</ele>
        <time>2022-09-26T09:03:54Z</time>
      </trkpt>
      <trkpt lat="41.7074570" lon="2.0377200">
        <ele>458.0</ele>
        <time>2022-09-26T09:03:56Z</time>
      </trkpt>
      <trkpt lat="41.7074920" lon="2.0377160">
        <ele>458.0</ele>
        <time>2022-09-26T09:03:57Z</time>
      </trkpt>
      <trkpt lat="41.7075630" lon="2.0377000">
        <ele>458.2</ele>
        <time>2022-09-26T09:03:59Z</time>
      </trkpt>
      <trkpt lat="41.7075970" lon="2.0376930">
        <ele>458.2</ele>
        <time>2022-09-26T09:04:00Z</time>
      </trkpt>
      <trkpt lat="41.7076650" lon="2.0376810">
        <ele>458.2</ele>
        <time>2022-09-26T09:04:02Z</time>
      </trkpt>
      <trkpt lat="41.7077040" lon="2.0376750">
        <ele>458.4</ele>
        <time>2022-09-26T09:04:03Z</time>
      </trkpt>
      <trkpt lat="41.7077410" lon="2.0376680">
        <ele>458.4</ele>
        <time>2022-09-26T09:04:04Z</time>
      </trkpt>
      <trkpt lat="41.7077800" lon="2.0376600">
        <ele>458.6</ele>
        <time>2022-09-26T09:04:05Z</time>
      </trkpt>
      <trkpt lat="41.7078170" lon="2.0376520">
        <ele>458.6</ele>
        <time>2022-09-26T09:04:06Z</time>
      </trkpt>
      <trkpt lat="41.7078520" lon="2.0376470">
        <ele>458.4</ele>
        <time>2022-09-26T09:04:07Z</time>
      </trkpt>
      <trkpt lat="41.7078850" lon="2.0376410">
        <ele>458.4</ele>
        <time>2022-09-26T09:04:08Z</time>
      </trkpt>
      <trkpt lat="41.7079200" lon="2.0376350">
        <ele>458.6</ele>
        <time>2022-09-26T09:04:09Z</time>
      </trkpt>
      <trkpt lat="41.7079530" lon="2.0376240">
        <ele>458.6</ele>
        <time>2022-09-26T09:04:10Z</time>
      </trkpt>
      <trkpt lat="41.7079870" lon="2.0376130">
        <ele>458.6</ele>
        <time>2022-09-26T09:04:11Z</time>
      </trkpt>
      <trkpt lat="41.7080210" lon="2.0376040">
        <ele>458.6</ele>
        <time>2022-09-26T09:04:12Z</time>
      </trkpt>
      <trkpt lat="41.7080900" lon="2.0375850">
        <ele>459.0</ele>
        <time>2022-09-26T09:04:14Z</time>
      </trkpt>
      <trkpt lat="41.7081220" lon="2.0375710">
        <ele>459.0</ele>
        <time>2022-09-26T09:04:15Z</time>
      </trkpt>
      <trkpt lat="41.7081530" lon="2.0375530">
        <ele>459.2</ele>
        <time>2022-09-26T09:04:16Z</time>
      </trkpt>
      <trkpt lat="41.7081820" lon="2.0375360">
        <ele>459.4</ele>
        <time>2022-09-26T09:04:17Z</time>
      </trkpt>
      <trkpt lat="41.7082080" lon="2.0375200">
        <ele>459.6</ele>
        <time>2022-09-26T09:04:18Z</time>
      </trkpt>
      <trkpt lat="41.7082500" lon="2.0374780">
        <ele>459.8</ele>
        <time>2022-09-26T09:04:20Z</time>
      </trkpt>
      <trkpt lat="41.7082700" lon="2.0374570">
        <ele>460.0</ele>
        <time>2022-09-26T09:04:21Z</time>
      </trkpt>
      <trkpt lat="41.7082900" lon="2.0374400">
        <ele>460.2</ele>
        <time>2022-09-26T09:04:22Z</time>
      </trkpt>
      <trkpt lat="41.7083110" lon="2.0374280">
        <ele>460.6</ele>
        <time>2022-09-26T09:04:23Z</time>
      </trkpt>
      <trkpt lat="41.7083300" lon="2.0374200">
        <ele>461.0</ele>
        <time>2022-09-26T09:04:24Z</time>
      </trkpt>
      <trkpt lat="41.7083510" lon="2.0374130">
        <ele>461.2</ele>
        <time>2022-09-26T09:04:25Z</time>
      </trkpt>
      <trkpt lat="41.7083740" lon="2.0374070">
        <ele>461.4</ele>
        <time>2022-09-26T09:04:26Z</time>
      </trkpt>
      <trkpt lat="41.7084000" lon="2.0374030">
        <ele>461.6</ele>
        <time>2022-09-26T09:04:27Z</time>
      </trkpt>
      <trkpt lat="41.7084260" lon="2.0374000">
        <ele>461.8</ele>
        <time>2022-09-26T09:04:28Z</time>
      </trkpt>
      <trkpt lat="41.7084500" lon="2.0373970">
        <ele>462.0</ele>
        <time>2022-09-26T09:04:29Z</time>
      </trkpt>
      <trkpt lat="41.7084740" lon="2.0373940">
        <ele>462.0</ele>
        <time>2022-09-26T09:04:30Z</time>
      </trkpt>
      <trkpt lat="41.7085310" lon="2.0373890">
        <ele>462.4</ele>
        <time>2022-09-26T09:04:32Z</time>
      </trkpt>
      <trkpt lat="41.7085610" lon="2.0373870">
        <ele>462.4</ele>
        <time>2022-09-26T09:04:33Z</time>
      </trkpt>
      <trkpt lat="41.7085920" lon="2.0373860">
        <ele>462.4</ele>
        <time>2022-09-26T09:04:34Z</time>
      </trkpt>
      <trkpt lat="41.7086240" lon="2.0373860">
        <ele>462.4</ele>
        <time>2022-09-26T09:04:35Z</time>
      </trkpt>
      <trkpt lat="41.7086530" lon="2.0373870">
        <ele>462.4</ele>
        <time>2022-09-26T09:04:36Z</time>
      </trkpt>
      <trkpt lat="41.7087100" lon="2.0373830">
        <ele>462.8</ele>
        <time>2022-09-26T09:04:38Z</time>
      </trkpt>
      <trkpt lat="41.7087370" lon="2.0373770">
        <ele>463.2</ele>
        <time>2022-09-26T09:04:39Z</time>
      </trkpt>
      <trkpt lat="41.7087640" lon="2.0373690">
        <ele>463.6</ele>
        <time>2022-09-26T09:04:40Z</time>
      </trkpt>
      <trkpt lat="41.7087920" lon="2.0373600">
        <ele>463.6</ele>
        <time>2022-09-26T09:04:41Z</time>
      </trkpt>
      <trkpt lat="41.7088200" lon="2.0373500">
        <ele>463.8</ele>
        <time>2022-09-26T09:04:42Z</time>
      </trkpt>
      <trkpt lat="41.7088730" lon="2.0373290">
        <ele>464.0</ele>
        <time>2022-09-26T09:04:44Z</time>
      </trkpt>
      <trkpt lat="41.7089000" lon="2.0373190">
        <ele>464.2</ele>
        <time>2022-09-26T09:04:45Z</time>
      </trkpt>
      <trkpt lat="41.7089280" lon="2.0373100">
        <ele>464.2</ele>
        <time>2022-09-26T09:04:47Z</time>
      </trkpt>
      <trkpt lat="41.7125140" lon="2.0359270">
        <ele>586.0</ele>
        <time>2022-09-26T09:08:23Z</time>
      </trkpt>
      <trkpt lat="41.7124910" lon="2.0359130">
        <ele>586.2</ele>
        <time>2022-09-26T09:08:24Z</time>
      </trkpt>
      <trkpt lat="41.7124860" lon="2.0359030">
        <ele>586.3</ele>
        <time>2022-09-26T09:08:25Z</time>
      </trkpt>
      <trkpt lat="41.7124860" lon="2.0359000">
        <ele>586.3</ele>
        <time>2022-09-26T09:08:26Z</time>
      </trkpt>
      <trkpt lat="41.7124810" lon="2.0358990">
        <ele>586.4</ele>
        <time>2022-09-26T09:08:27Z</time>
      </trkpt>
      <trkpt lat="41.7124700" lon="2.0358980">
        <ele>586.4</ele>
        <time>2022-09-26T09:08:28Z</time>
      </trkpt>
      <trkpt lat="41.7124560" lon="2.0358960">
        <ele>586.6</ele>
        <time>2022-09-26T09:08:29Z</time>
      </trkpt>
      <trkpt lat="41.7124570" lon="2.0358920">
        <ele>586.6</ele>
        <time>2022-09-26T09:08:30Z</time>
      </trkpt>
      <trkpt lat="41.7124610" lon="2.0358870">
        <ele>586.7</ele>
        <time>2022-09-26T09:08:32Z</time>
      </trkpt>
      <trkpt lat="41.7124680" lon="2.0358580">
        <ele>586.9</ele>
        <time>2022-09-26T09:08:33Z</time>
      </trkpt>
      <trkpt lat="41.7124840" lon="2.0358280">
        <ele>587.1</ele>
        <time>2022-09-26T09:08:34Z</time>
      </trkpt>
      <trkpt lat="41.7124910" lon="2.0358170">
        <ele>587.2</ele>
        <time>2022-09-26T09:08:35Z</time>
      </trkpt>
      <trkpt lat="41.7125030" lon="2.0357670">
        <ele>587.4</ele>
        <time>2022-09-26T09:08:37Z</time>
      </trkpt>
      <trkpt lat="41.7125120" lon="2.0357150">
        <ele>587.7</ele>
        <time>2022-09-26T09:08:38Z</time>
      </trkpt>
      <trkpt lat="41.7125160" lon="2.0356980">
        <ele>587.8</ele>
        <time>2022-09-26T09:08:39Z</time>
      </trkpt>
      <trkpt lat="41.7125270" lon="2.0356490">
        <ele>588.0</ele>
        <time>2022-09-26T09:08:40Z</time>
      </trkpt>
      <trkpt lat="41.7125330" lon="2.0356270">
        <ele>588.1</ele>
        <time>2022-09-26T09:08:41Z</time>
      </trkpt>
      <trkpt lat="41.7125430" lon="2.0355880">
        <ele>588.2</ele>
        <time>2022-09-26T09:08:42Z</time>
      </trkpt>
      <trkpt lat="41.7125600" lon="2.0355180">
        <ele>588.4</ele>
        <time>2022-09-26T09:08:44Z</time>
      </trkpt>
      <trkpt lat="41.7125830" lon="2.0354570">
        <ele>588.6</ele>
        <time>2022-09-26T09:08:45Z</time>
      </trkpt>
      <trkpt lat="41.7125980" lon="2.0354130">
        <ele>588.7</ele>
        <time>2022-09-26T09:08:46Z</time>
      </trkpt>
      <trkpt lat="41.7126070" lon="2.0353790">
        <ele>588.7</ele>
        <time>2022-09-26T09:08:47Z</time>
      </trkpt>
      <trkpt lat="41.7126160" lon="2.0353300">
        <ele>588.8</ele>
        <time>2022-09-26T09:08:49Z</time>
      </trkpt>
      <trkpt lat="41.7126240" lon="2.0352790">
        <ele>588.9</ele>
        <time>2022-09-26T09:08:50Z</time>
      </trkpt>
      <trkpt lat="41.7126300" lon="2.0352270">
        <ele>589.0</ele>
        <time>2022-09-26T09:08:51Z</time>
      </trkpt>
      <trkpt lat="41.7126360" lon="2.0351800">
        <ele>589.0</ele>
        <time>2022-09-26T09:08:52Z</time>
      </trkpt>
      <trkpt lat="41.7126380" lon="2.0350840">
        <ele>589.1</ele>
        <time>2022-09-26T09:08:54Z</time>
      </trkpt>
      <trkpt lat="41.7126370" lon="2.0350150">
        <ele>589.1</ele>
        <time>2022-09-26T09:08:55Z</time>
      </trkpt>
      <trkpt lat="41.7126310" lon="2.0349500">
        <ele>589.2</ele>
        <time>2022-09-26T09:08:56Z</time>
      </trkpt>
      <trkpt lat="41.7126250" lon="2.0348940">
        <ele>589.3</ele>
        <time>2022-09-26T09:08:57Z</time>
      </trkpt>
      <trkpt lat="41.7126240" lon="2.0348330">
        <ele>589.3</ele>
        <time>2022-09-26T09:08:58Z</time>
      </trkpt>
      <trkpt lat="41.7126210" lon="2.0347860">
        <ele>589.4</ele>
        <time>2022-09-26T09:08:59Z</time>
      </trkpt>
      <trkpt lat="41.7126260" lon="2.0347250">
        <ele>589.4</ele>
        <time>2022-09-26T09:09:00Z</time>
      </trkpt>
      <trkpt lat="41.7126380" lon="2.0346650">
        <ele>589.5</ele>
        <time>2022-09-26T09:09:01Z</time>
      </trkpt>
      <trkpt lat="41.7126470" lon="2.0346290">
        <ele>589.6</ele>
        <time>2022-09-26T09:09:02Z</time>
      </trkpt>
      <trkpt lat="41.7126720" lon="2.0345710">
        <ele>589.7</ele>
        <time>2022-09-26T09:09:03Z</time>
      </trkpt>
      <trkpt lat="41.7126990" lon="2.0345310">
        <ele>589.8</ele>
        <time>2022-09-26T09:09:04Z</time>
      </trkpt>
      <trkpt lat="41.7127290" lon="2.0344620">
        <ele>590.0</ele>
        <time>2022-09-26T09:09:06Z</time>
      </trkpt>
      <trkpt lat="41.7127400" lon="2.0344000">
        <ele>590.1</ele>
        <time>2022-09-26T09:09:07Z</time>
      </trkpt>
      <trkpt lat="41.7127510" lon="2.0343420">
        <ele>590.3</ele>
        <time>2022-09-26T09:09:08Z</time>
      </trkpt>
      <trkpt lat="41.7127680" lon="2.0342900">
        <ele>590.4</ele>
        <time>2022-09-26T09:09:09Z</time>
      </trkpt>
      <trkpt lat="41.7127840" lon="2.0342330">
        <ele>590.6</ele>
        <time>2022-09-26T09:09:10Z</time>
      </trkpt>
      <trkpt lat="41.7127910" lon="2.0341780">
        <ele>590.8</ele>
        <time>2022-09-26T09:09:11Z</time>
      </trkpt>
      <trkpt lat="41.7128000" lon="2.0341150">
        <ele>591.0</ele>
        <time>2022-09-26T09:09:12Z</time>
      </trkpt>
      <trkpt lat="41.7128070" lon="2.0340560">
        <ele>591.2</ele>
        <time>2022-09-26T09:09:13Z</time>
      </trkpt>
      <trkpt lat="41.7128110" lon="2.0339960">
        <ele>591.3</ele>
        <time>2022-09-26T09:09:14Z</time>
      </trkpt>
      <trkpt lat="41.7128140" lon="2.0339360">
        <ele>591.5</ele>
        <time>2022-09-26T09:09:16Z</time>
      </trkpt>
      <trkpt lat="41.7128100" lon="2.0338710">
        <ele>591.6</ele>
        <time>2022-09-26T09:09:17Z</time>
      </trkpt>
      <trkpt lat="41.7128030" lon="2.0338080">
        <ele>591.8</ele>
        <time>2022-09-26T09:09:18Z</time>
      </trkpt>
      <trkpt lat="41.7128040" lon="2.0337470">
        <ele>591.9</ele>
        <time>2022-09-26T09:09:19Z</time>
      </trkpt>
      <trkpt lat="41.7128100" lon="2.0336900">
        <ele>592.1</ele>
        <time>2022-09-26T09:09:20Z</time>
      </trkpt>
      <trkpt lat="41.7128130" lon="2.0336740">
        <ele>592.1</ele>
        <time>2022-09-26T09:09:21Z</time>
      </trkpt>
      <trkpt lat="41.7128670" lon="2.0335980">
        <ele>592.4</ele>
        <time>2022-09-26T09:09:23Z</time>
      </trkpt>
      <trkpt lat="41.7129160" lon="2.0335380">
        <ele>592.8</ele>
        <time>2022-09-26T09:09:24Z</time>
      </trkpt>
      <trkpt lat="41.7129420" lon="2.0334880">
        <ele>593.0</ele>
        <time>2022-09-26T09:09:26Z</time>
      </trkpt>
      <trkpt lat="41.7129640" lon="2.0334430">
        <ele>593.2</ele>
        <time>2022-09-26T09:09:27Z</time>
      </trkpt>
      <trkpt lat="41.7129710" lon="2.0334280">
        <ele>593.3</ele>
        <time>2022-09-26T09:09:28Z</time>
      </trkpt>
      <trkpt lat="41.7129810" lon="2.0333840">
        <ele>593.5</ele>
        <time>2022-09-26T09:09:30Z</time>
      </trkpt>
      <trkpt lat="41.7129860" lon="2.0333280">
        <ele>593.8</ele>
        <time>2022-09-26T09:09:31Z</time>
      </trkpt>
      <trkpt lat="41.7129850" lon="2.0332590">
        <ele>594.1</ele>
        <time>2022-09-26T09:09:33Z</time>
      </trkpt>
      <trkpt lat="41.7129840" lon="2.0332210">
        <ele>594.3</ele>
        <time>2022-09-26T09:09:34Z</time>
      </trkpt>
      <trkpt lat="41.7129950" lon="2.0331760">
        <ele>594.5</ele>
        <time>2022-09-26T09:09:35Z</time>
      </trkpt>
      <trkpt lat="41.7130030" lon="2.0331400">
        <ele>594.7</ele>
        <time>2022-09-26T09:09:36Z</time>
      </trkpt>
      <trkpt lat="41.7130160" lon="2.0331050">
        <ele>594.9</ele>
        <time>2022-09-26T09:09:37Z</time>
      </trkpt>
      <trkpt lat="41.7130290" lon="2.0330690">
        <ele>595.1</ele>
        <time>2022-09-26T09:09:38Z</time>
      </trkpt>
      <trkpt lat="41.7130500" lon="2.0330330">
        <ele>595.4</ele>
        <time>2022-09-26T09:09:39Z</time>
      </trkpt>
      <trkpt lat="41.7130560" lon="2.0330230">
        <ele>595.4</ele>
        <time>2022-09-26T09:09:40Z</time>
      </trkpt>
      <trkpt lat="41.7130940" lon="2.0330000">
        <ele>595.7</ele>
        <time>2022-09-26T09:09:42Z</time>
      </trkpt>
      <trkpt lat="41.7131120" lon="2.0329980">
        <ele>595.9</ele>
        <time>2022-09-26T09:09:43Z</time>
      </trkpt>
      <trkpt lat="41.7131500" lon="2.0330120">
        <ele>596.2</ele>
        <time>2022-09-26T09:09:44Z</time>
      </trkpt>
      <trkpt lat="41.7131770" lon="2.0330220">
        <ele>596.4</ele>
        <time>2022-09-26T09:09:45Z</time>
      </trkpt>
      <trkpt lat="41.7132020" lon="2.0330430">
        <ele>596.6</ele>
        <time>2022-09-26T09:09:46Z</time>
      </trkpt>
      <trkpt lat="41.7132100" lon="2.0330510">
        <ele>596.7</ele>
        <time>2022-09-26T09:09:47Z</time>
      </trkpt>
      <trkpt lat="41.7132420" lon="2.0330760">
        <ele>596.9</ele>
        <time>2022-09-26T09:09:48Z</time>
      </trkpt>
      <trkpt lat="41.7132540" lon="2.0330850">
        <ele>597.0</ele>
        <time>2022-09-26T09:09:49Z</time>
      </trkpt>
      <trkpt lat="41.7132800" lon="2.0330980">
        <ele>597.2</ele>
        <time>2022-09-26T09:09:50Z</time>
      </trkpt>
      <trkpt lat="41.7133050" lon="2.0331010">
        <ele>597.4</ele>
        <time>2022-09-26T09:09:51Z</time>
      </trkpt>
      <trkpt lat="41.7133370" lon="2.0330910">
        <ele>597.6</ele>
        <time>2022-09-26T09:09:53Z</time>
      </trkpt>
      <trkpt lat="41.7133650" lon="2.0330800">
        <ele>597.8</ele>
        <time>2022-09-26T09:09:54Z</time>
      </trkpt>
      <trkpt lat="41.7134010" lon="2.0330700">
        <ele>598.1</ele>
        <time>2022-09-26T09:09:55Z</time>
      </trkpt>
      <trkpt lat="41.7134130" lon="2.0330680">
        <ele>598.1</ele>
        <time>2022-09-26T09:09:56Z</time>
      </trkpt>
      <trkpt lat="41.7134310" lon="2.0330650">
        <ele>598.2</ele>
        <time>2022-09-26T09:09:57Z</time>
      </trkpt>
      <trkpt lat="41.7134570" lon="2.0330500">
        <ele>598.4</ele>
        <time>2022-09-26T09:09:59Z</time>
      </trkpt>
      <trkpt lat="41.7134900" lon="2.0330330">
        <ele>598.6</ele>
        <time>2022-09-26T09:10:00Z</time>
      </trkpt>
      <trkpt lat="41.7135000" lon="2.0330270">
        <ele>598.6</ele>
        <time>2022-09-26T09:10:01Z</time>
      </trkpt>
      <trkpt lat="41.7135280" lon="2.0330060">
        <ele>598.8</ele>
        <time>2022-09-26T09:10:02Z</time>
      </trkpt>
      <trkpt lat="41.7135400" lon="2.0329980">
        <ele>598.8</ele>
        <time>2022-09-26T09:10:03Z</time>
      </trkpt>
      <trkpt lat="41.7135710" lon="2.0330030">
        <ele>598.9</ele>
        <time>2022-09-26T09:10:04Z</time>
      </trkpt>
      <trkpt lat="41.7136060" lon="2.0330430">
        <ele>599.1</ele>
        <time>2022-09-26T09:10:06Z</time>
      </trkpt>
      <trkpt lat="41.7136120" lon="2.0330700">
        <ele>599.2</ele>
        <time>2022-09-26T09:10:07Z</time>
      </trkpt>
      <trkpt lat="41.7136120" lon="2.0330840">
        <ele>599.3</ele>
        <time>2022-09-26T09:10:08Z</time>
      </trkpt>
      <trkpt lat="41.7136130" lon="2.0331100">
        <ele>599.3</ele>
        <time>2022-09-26T09:10:09Z</time>
      </trkpt>
      <trkpt lat="41.7136120" lon="2.0331240">
        <ele>599.4</ele>
        <time>2022-09-26T09:10:11Z</time>
      </trkpt>
      <trkpt lat="41.7136100" lon="2.0331380">
        <ele>599.4</ele>
        <time>2022-09-26T09:10:12Z</time>
      </trkpt>
      <trkpt lat="41.7135910" lon="2.0331800">
        <ele>599.7</ele>
        <time>2022-09-26T09:10:13Z</time>
      </trkpt>
      <trkpt lat="41.7135860" lon="2.0331940">
        <ele>599.7</ele>
        <time>2022-09-26T09:10:14Z</time>
      </trkpt>
      <trkpt lat="41.7135620" lon="2.0332510">
        <ele>600.1</ele>
        <time>2022-09-26T09:10:16Z</time>
      </trkpt>
      <trkpt lat="41.7135560" lon="2.0332730">
        <ele>600.2</ele>
        <time>2022-09-26T09:10:17Z</time>
      </trkpt>
      <trkpt lat="41.7135490" lon="2.0332940">
        <ele>600.3</ele>
        <time>2022-09-26T09:10:18Z</time>
      </trkpt>
      <trkpt lat="41.7135320" lon="2.0333550">
        <ele>600.8</ele>
        <time>2022-09-26T09:10:20Z</time>
      </trkpt>
      <trkpt lat="41.7135250" lon="2.0333790">
        <ele>600.9</ele>
        <time>2022-09-26T09:10:21Z</time>
      </trkpt>
      <trkpt lat="41.7135180" lon="2.0334030">
        <ele>601.1</ele>
        <time>2022-09-26T09:10:22Z</time>
      </trkpt>
      <trkpt lat="41.7135120" lon="2.0334480">
        <ele>601.5</ele>
        <time>2022-09-26T09:10:23Z</time>
      </trkpt>
      <trkpt lat="41.7135110" lon="2.0334620">
        <ele>601.6</ele>
        <time>2022-09-26T09:10:24Z</time>
      </trkpt>
      <trkpt lat="41.7135100" lon="2.0334830">
        <ele>601.7</ele>
        <time>2022-09-26T09:10:25Z</time>
      </trkpt>
      <trkpt lat="41.7135130" lon="2.0335200">
        <ele>602.0</ele>
        <time>2022-09-26T09:10:27Z</time>
      </trkpt>
      <trkpt lat="41.7135290" lon="2.0335620">
        <ele>602.3</ele>
        <time>2022-09-26T09:10:28Z</time>
      </trkpt>
      <trkpt lat="41.7135340" lon="2.0335780">
        <ele>602.4</ele>
        <time>2022-09-26T09:10:29Z</time>
      </trkpt>
      <trkpt lat="41.7135570" lon="2.0336150">
        <ele>602.7</ele>
        <time>2022-09-26T09:10:31Z</time>
      </trkpt>
      <trkpt lat="41.7135790" lon="2.0336530">
        <ele>603.0</ele>
        <time>2022-09-26T09:10:32Z</time>
      </trkpt>
      <trkpt lat="41.7135960" lon="2.0336930">
        <ele>603.2</ele>
        <time>2022-09-26T09:10:33Z</time>
      </trkpt>
      <trkpt lat="41.7136110" lon="2.0337320">
        <ele>603.4</ele>
        <time>2022-09-26T09:10:34Z</time>
      </trkpt>
      <trkpt lat="41.7136240" lon="2.0337710">
        <ele>603.6</ele>
        <time>2022-09-26T09:10:36Z</time>
      </trkpt>
      <trkpt lat="41.7136370" lon="2.0338130">
        <ele>603.8</ele>
        <time>2022-09-26T09:10:37Z</time>
      </trkpt>
      <trkpt lat="41.7136510" lon="2.0338520">
        <ele>604.0</ele>
        <time>2022-09-26T09:10:38Z</time>
      </trkpt>
      <trkpt lat="41.7136630" lon="2.0339000">
        <ele>604.1</ele>
        <time>2022-09-26T09:10:39Z</time>
      </trkpt>
      <trkpt lat="41.7136660" lon="2.0339150">
        <ele>604.2</ele>
        <time>2022-09-26T09:10:40Z</time>
      </trkpt>
      <trkpt lat="41.7136760" lon="2.0339440">
        <ele>604.3</ele>
        <time>2022-09-26T09:10:41Z</time>
      </trkpt>
      <trkpt lat="41.7136920" lon="2.0339950">
        <ele>604.4</ele>
        <time>2022-09-26T09:10:43Z</time>
      </trkpt>
      <trkpt lat="41.7136980" lon="2.0340380">
        <ele>604.6</ele>
        <time>2022-09-26T09:10:44Z</time>
      </trkpt>
      <trkpt lat="41.7137020" lon="2.0340750">
        <ele>604.7</ele>
        <time>2022-09-26T09:10:45Z</time>
      </trkpt>
      <trkpt lat="41.7137070" lon="2.0341270">
        <ele>604.8</ele>
        <time>2022-09-26T09:10:46Z</time>
      </trkpt>
      <trkpt lat="41.7137070" lon="2.0341440">
        <ele>604.9</ele>
        <time>2022-09-26T09:10:47Z</time>
      </trkpt>
      <trkpt lat="41.7137130" lon="2.0342020">
        <ele>605.1</ele>
        <time>2022-09-26T09:10:49Z</time>
      </trkpt>
      <trkpt lat="41.7137090" lon="2.0342430">
        <ele>605.2</ele>
        <time>2022-09-26T09:10:50Z</time>
      </trkpt>
      <trkpt lat="41.7137100" lon="2.0342910">
        <ele>605.4</ele>
        <time>2022-09-26T09:10:51Z</time>
      </trkpt>
      <trkpt lat="41.7137120" lon="2.0343050">
        <ele>605.5</ele>
        <time>2022-09-26T09:10:52Z</time>
      </trkpt>
      <trkpt lat="41.7137110" lon="2.0343510">
        <ele>605.6</ele>
        <time>2022-09-26T09:10:54Z</time>
      </trkpt>
      <trkpt lat="41.7137100" lon="2.0343890">
        <ele>605.8</ele>
        <time>2022-09-26T09:10:55Z</time>
      </trkpt>
      <trkpt lat="41.7137080" lon="2.0344300">
        <ele>605.9</ele>
        <time>2022-09-26T09:10:56Z</time>
      </trkpt>
      <trkpt lat="41.7137070" lon="2.0344580">
        <ele>606.0</ele>
        <time>2022-09-26T09:10:57Z</time>
      </trkpt>
      <trkpt lat="41.7136990" lon="2.0345180">
        <ele>606.3</ele>
        <time>2022-09-26T09:10:59Z</time>
      </trkpt>
      <trkpt lat="41.7136920" lon="2.0345580">
        <ele>606.5</ele>
        <time>2022-09-26T09:11:00Z</time>
      </trkpt>
      <trkpt lat="41.7136900" lon="2.0345710">
        <ele>606.5</ele>
        <time>2022-09-26T09:11:01Z</time>
      </trkpt>
      <trkpt lat="41.7136900" lon="2.0346110">
        <ele>606.7</ele>
        <time>2022-09-26T09:11:02Z</time>
      </trkpt>
      <trkpt lat="41.7136910" lon="2.0346260">
        <ele>606.8</ele>
        <time>2022-09-26T09:11:03Z</time>
      </trkpt>
      <trkpt lat="41.7136990" lon="2.0346690">
        <ele>607.0</ele>
        <time>2022-09-26T09:11:04Z</time>
      </trkpt>
      <trkpt lat="41.7137030" lon="2.0346830">
        <ele>607.1</ele>
        <time>2022-09-26T09:11:05Z</time>
      </trkpt>
      <trkpt lat="41.7137260" lon="2.0347190">
        <ele>607.4</ele>
        <time>2022-09-26T09:11:06Z</time>
      </trkpt>
      <trkpt lat="41.7137360" lon="2.0347300">
        <ele>607.4</ele>
        <time>2022-09-26T09:11:07Z</time>
      </trkpt>
      <trkpt lat="41.7137640" lon="2.0347460">
        <ele>607.6</ele>
        <time>2022-09-26T09:11:09Z</time>
      </trkpt>
      <trkpt lat="41.7137950" lon="2.0347550">
        <ele>607.8</ele>
        <time>2022-09-26T09:11:10Z</time>
      </trkpt>
      <trkpt lat="41.7138350" lon="2.0347590">
        <ele>608.0</ele>
        <time>2022-09-26T09:11:11Z</time>
      </trkpt>
      <trkpt lat="41.7138700" lon="2.0347630">
        <ele>608.2</ele>
        <time>2022-09-26T09:11:12Z</time>
      </trkpt>
      <trkpt lat="41.7138980" lon="2.0347590">
        <ele>608.3</ele>
        <time>2022-09-26T09:11:13Z</time>
      </trkpt>
      <trkpt lat="41.7139340" lon="2.0347430">
        <ele>608.5</ele>
        <time>2022-09-26T09:11:15Z</time>
      </trkpt>
      <trkpt lat="41.7139470" lon="2.0347370">
        <ele>608.5</ele>
        <time>2022-09-26T09:11:16Z</time>
      </trkpt>
      <trkpt lat="41.7139740" lon="2.0347250">
        <ele>608.6</ele>
        <time>2022-09-26T09:11:17Z</time>
      </trkpt>
      <trkpt lat="41.7140110" lon="2.0347030">
        <ele>608.7</ele>
        <time>2022-09-26T09:11:18Z</time>
      </trkpt>
      <trkpt lat="41.7140480" lon="2.0346920">
        <ele>608.8</ele>
        <time>2022-09-26T09:11:19Z</time>
      </trkpt>
      <trkpt lat="41.7140590" lon="2.0346900">
        <ele>608.8</ele>
        <time>2022-09-26T09:11:20Z</time>
      </trkpt>
      <trkpt lat="41.7140990" lon="2.0346860">
        <ele>608.9</ele>
        <time>2022-09-26T09:11:21Z</time>
      </trkpt>
      <trkpt lat="41.7141150" lon="2.0346860">
        <ele>609.0</ele>
        <time>2022-09-26T09:11:22Z</time>
      </trkpt>
      <trkpt lat="41.7141440" lon="2.0346800">
        <ele>609.0</ele>
        <time>2022-09-26T09:11:23Z</time>
      </trkpt>
      <trkpt lat="41.7141990" lon="2.0346550">
        <ele>609.1</ele>
        <time>2022-09-26T09:11:25Z</time>
      </trkpt>
      <trkpt lat="41.7142220" lon="2.0346460">
        <ele>609.2</ele>
        <time>2022-09-26T09:11:26Z</time>
      </trkpt>
      <trkpt lat="41.7142440" lon="2.0346360">
        <ele>609.2</ele>
        <time>2022-09-26T09:11:27Z</time>
      </trkpt>
      <trkpt lat="41.7142700" lon="2.0346190">
        <ele>609.3</ele>
        <time>2022-09-26T09:11:28Z</time>
      </trkpt>
      <trkpt lat="41.7143080" lon="2.0345930">
        <ele>609.3</ele>
        <time>2022-09-26T09:11:30Z</time>
      </trkpt>
      <trkpt lat="41.7143520" lon="2.0345860">
        <ele>609.4</ele>
        <time>2022-09-26T09:11:31Z</time>
      </trkpt>
      <trkpt lat="41.7143690" lon="2.0345830">
        <ele>609.4</ele>
        <time>2022-09-26T09:11:32Z</time>
      </trkpt>
      <trkpt lat="41.7143970" lon="2.0345750">
        <ele>609.5</ele>
        <time>2022-09-26T09:11:33Z</time>
      </trkpt>
      <trkpt lat="41.7144250" lon="2.0345620">
        <ele>609.5</ele>
        <time>2022-09-26T09:11:34Z</time>
      </trkpt>
      <trkpt lat="41.7144520" lon="2.0345470">
        <ele>609.6</ele>
        <time>2022-09-26T09:11:35Z</time>
      </trkpt>
      <trkpt lat="41.7144740" lon="2.0345290">
        <ele>609.6</ele>
        <time>2022-09-26T09:11:36Z</time>
      </trkpt>
      <trkpt lat="41.7145090" lon="2.0345030">
        <ele>609.6</ele>
        <time>2022-09-26T09:11:38Z</time>
      </trkpt>
      <trkpt lat="41.7145440" lon="2.0344980">
        <ele>609.7</ele>
        <time>2022-09-26T09:11:39Z</time>
      </trkpt>
      <trkpt lat="41.7145850" lon="2.0345060">
        <ele>609.7</ele>
        <time>2022-09-26T09:11:40Z</time>
      </trkpt>
      <trkpt lat="41.7146200" lon="2.0345190">
        <ele>609.7</ele>
        <time>2022-09-26T09:11:41Z</time>
      </trkpt>
      <trkpt lat="41.7146490" lon="2.0345360">
        <ele>609.7</ele>
        <time>2022-09-26T09:11:42Z</time>
      </trkpt>
      <trkpt lat="41.7146840" lon="2.0345600">
        <ele>609.7</ele>
        <time>2022-09-26T09:11:44Z</time>
      </trkpt>
      <trkpt lat="41.7147170" lon="2.0346020">
        <ele>609.8</ele>
        <time>2022-09-26T09:11:45Z</time>
      </trkpt>
      <trkpt lat="41.7147370" lon="2.0346430">
        <ele>609.8</ele>
        <time>2022-09-26T09:11:46Z</time>
      </trkpt>
      <trkpt lat="41.7147460" lon="2.0346810">
        <ele>609.9</ele>
        <time>2022-09-26T09:11:47Z</time>
      </trkpt>
      <trkpt lat="41.7147550" lon="2.0347160">
        <ele>610.0</ele>
        <time>2022-09-26T09:11:48Z</time>
      </trkpt>
      <trkpt lat="41.7147640" lon="2.0347450">
        <ele>610.0</ele>
        <time>2022-09-26T09:11:49Z</time>
      </trkpt>
      <trkpt lat="41.7147820" lon="2.0347840">
        <ele>610.2</ele>
        <time>2022-09-26T09:11:51Z</time>
      </trkpt>
      <trkpt lat="41.7148090" lon="2.0348220">
        <ele>610.3</ele>
        <time>2022-09-26T09:11:52Z</time>
      </trkpt>
      <trkpt lat="41.7148400" lon="2.0348560">
        <ele>610.5</ele>
        <time>2022-09-26T09:11:53Z</time>
      </trkpt>
      <trkpt lat="41.7148560" lon="2.0348700">
        <ele>610.6</ele>
        <time>2022-09-26T09:11:54Z</time>
      </trkpt>
      <trkpt lat="41.7149010" lon="2.0348890">
        <ele>610.9</ele>
        <time>2022-09-26T09:11:56Z</time>
      </trkpt>
      <trkpt lat="41.7149210" lon="2.0348940">
        <ele>611.1</ele>
        <time>2022-09-26T09:11:57Z</time>
      </trkpt>
      <trkpt lat="41.7149510" lon="2.0348960">
        <ele>611.3</ele>
        <time>2022-09-26T09:11:58Z</time>
      </trkpt>
      <trkpt lat="41.7149850" lon="2.0348970">
        <ele>611.5</ele>
        <time>2022-09-26T09:11:59Z</time>
      </trkpt>
      <trkpt lat="41.7149950" lon="2.0348980">
        <ele>611.6</ele>
        <time>2022-09-26T09:12:00Z</time>
      </trkpt>
      <trkpt lat="41.7150400" lon="2.0348890">
        <ele>611.9</ele>
        <time>2022-09-26T09:12:02Z</time>
      </trkpt>
      <trkpt lat="41.7150570" lon="2.0348810">
        <ele>612.0</ele>
        <time>2022-09-26T09:12:03Z</time>
      </trkpt>
      <trkpt lat="41.7150740" lon="2.0348730">
        <ele>612.1</ele>
        <time>2022-09-26T09:12:04Z</time>
      </trkpt>
      <trkpt lat="41.7150950" lon="2.0348700">
        <ele>612.3</ele>
        <time>2022-09-26T09:12:05Z</time>
      </trkpt>
      <trkpt lat="41.7151240" lon="2.0348740">
        <ele>612.5</ele>
        <time>2022-09-26T09:12:07Z</time>
      </trkpt>
      <trkpt lat="41.7151670" lon="2.0348850">
        <ele>612.8</ele>
        <time>2022-09-26T09:12:08Z</time>
      </trkpt>
      <trkpt lat="41.7152030" lon="2.0348970">
        <ele>613.1</ele>
        <time>2022-09-26T09:12:09Z</time>
      </trkpt>
      <trkpt lat="41.7152150" lon="2.0349010">
        <ele>613.2</ele>
        <time>2022-09-26T09:12:10Z</time>
      </trkpt>
      <trkpt lat="41.7152530" lon="2.0349020">
        <ele>613.4</ele>
        <time>2022-09-26T09:12:11Z</time>
      </trkpt>
      <trkpt lat="41.7152640" lon="2.0349010">
        <ele>613.5</ele>
        <time>2022-09-26T09:12:12Z</time>
      </trkpt>
      <trkpt lat="41.7152840" lon="2.0349010">
        <ele>613.6</ele>
        <time>2022-09-26T09:12:13Z</time>
      </trkpt>
      <trkpt lat="41.7153200" lon="2.0349030">
        <ele>613.9</ele>
        <time>2022-09-26T09:12:15Z</time>
      </trkpt>
      <trkpt lat="41.7153610" lon="2.0349100">
        <ele>614.2</ele>
        <time>2022-09-26T09:12:16Z</time>
      </trkpt>
      <trkpt lat="41.7153780" lon="2.0349100">
        <ele>614.3</ele>
        <time>2022-09-26T09:12:17Z</time>
      </trkpt>
      <trkpt lat="41.7154210" lon="2.0348980">
        <ele>614.6</ele>
        <time>2022-09-26T09:12:19Z</time>
      </trkpt>
      <trkpt lat="41.7154360" lon="2.0348890">
        <ele>614.7</ele>
        <time>2022-09-26T09:12:20Z</time>
      </trkpt>
      <trkpt lat="41.7154510" lon="2.0348800">
        <ele>614.8</ele>
        <time>2022-09-26T09:12:21Z</time>
      </trkpt>
      <trkpt lat="41.7154790" lon="2.0348500">
        <ele>615.0</ele>
        <time>2022-09-26T09:12:22Z</time>
      </trkpt>
      <trkpt lat="41.7155070" lon="2.0348380">
        <ele>615.2</ele>
        <time>2022-09-26T09:12:24Z</time>
      </trkpt>
      <trkpt lat="41.7155470" lon="2.0348210">
        <ele>615.4</ele>
        <time>2022-09-26T09:12:25Z</time>
      </trkpt>
      <trkpt lat="41.7155800" lon="2.0348310">
        <ele>615.5</ele>
        <time>2022-09-26T09:12:26Z</time>
      </trkpt>
      <trkpt lat="41.7156050" lon="2.0348490">
        <ele>615.7</ele>
        <time>2022-09-26T09:12:27Z</time>
      </trkpt>
      <trkpt lat="41.7156330" lon="2.0348770">
        <ele>615.8</ele>
        <time>2022-09-26T09:12:28Z</time>
      </trkpt>
      <trkpt lat="41.7156440" lon="2.0348870">
        <ele>615.9</ele>
        <time>2022-09-26T09:12:29Z</time>
      </trkpt>
      <trkpt lat="41.7156700" lon="2.0349230">
        <ele>616.0</ele>
        <time>2022-09-26T09:12:31Z</time>
      </trkpt>
      <trkpt lat="41.7156880" lon="2.0349610">
        <ele>616.1</ele>
        <time>2022-09-26T09:12:32Z</time>
      </trkpt>
      <trkpt lat="41.7156950" lon="2.0349990">
        <ele>616.2</ele>
        <time>2022-09-26T09:12:33Z</time>
      </trkpt>
      <trkpt lat="41.7157060" lon="2.0350490">
        <ele>616.4</ele>
        <time>2022-09-26T09:12:34Z</time>
      </trkpt>
      <trkpt lat="41.7157100" lon="2.0350670">
        <ele>616.4</ele>
        <time>2022-09-26T09:12:35Z</time>
      </trkpt>
      <trkpt lat="41.7157160" lon="2.0351040">
        <ele>616.5</ele>
        <time>2022-09-26T09:12:36Z</time>
      </trkpt>
      <trkpt lat="41.7157240" lon="2.0351590">
        <ele>616.7</ele>
        <time>2022-09-26T09:12:38Z</time>
      </trkpt>
      <trkpt lat="41.7157350" lon="2.0352050">
        <ele>616.8</ele>
        <time>2022-09-26T09:12:39Z</time>
      </trkpt>
      <trkpt lat="41.7157410" lon="2.0352310">
        <ele>616.9</ele>
        <time>2022-09-26T09:12:40Z</time>
      </trkpt>
      <trkpt lat="41.7157600" lon="2.0352760">
        <ele>617.0</ele>
        <time>2022-09-26T09:12:42Z</time>
      </trkpt>
      <trkpt lat="41.7157810" lon="2.0353110">
        <ele>617.2</ele>
        <time>2022-09-26T09:12:43Z</time>
      </trkpt>
      <trkpt lat="41.7158130" lon="2.0353510">
        <ele>617.4</ele>
        <time>2022-09-26T09:12:44Z</time>
      </trkpt>
      <trkpt lat="41.7158370" lon="2.0353680">
        <ele>617.5</ele>
        <time>2022-09-26T09:12:45Z</time>
      </trkpt>
      <trkpt lat="41.7158660" lon="2.0353870">
        <ele>617.7</ele>
        <time>2022-09-26T09:12:46Z</time>
      </trkpt>
      <trkpt lat="41.7158940" lon="2.0353990">
        <ele>617.8</ele>
        <time>2022-09-26T09:12:47Z</time>
      </trkpt>
      <trkpt lat="41.7159330" lon="2.0354090">
        <ele>618.0</ele>
        <time>2022-09-26T09:12:48Z</time>
      </trkpt>
      <trkpt lat="41.7159460" lon="2.0354100">
        <ele>618.1</ele>
        <time>2022-09-26T09:12:49Z</time>
      </trkpt>
      <trkpt lat="41.7159850" lon="2.0354150">
        <ele>618.2</ele>
        <time>2022-09-26T09:12:50Z</time>
      </trkpt>
      <trkpt lat="41.7159980" lon="2.0354190">
        <ele>618.3</ele>
        <time>2022-09-26T09:12:51Z</time>
      </trkpt>
      <trkpt lat="41.7160430" lon="2.0354410">
        <ele>618.5</ele>
        <time>2022-09-26T09:12:53Z</time>
      </trkpt>
      <trkpt lat="41.7160860" lon="2.0354550">
        <ele>618.7</ele>
        <time>2022-09-26T09:12:54Z</time>
      </trkpt>
      <trkpt lat="41.7161120" lon="2.0354680">
        <ele>618.8</ele>
        <time>2022-09-26T09:12:55Z</time>
      </trkpt>
      <trkpt lat="41.7161350" lon="2.0354780">
        <ele>618.9</ele>
        <time>2022-09-26T09:12:56Z</time>
      </trkpt>
      <trkpt lat="41.7161740" lon="2.0354940">
        <ele>619.0</ele>
        <time>2022-09-26T09:12:58Z</time>
      </trkpt>
      <trkpt lat="41.7162200" lon="2.0355120">
        <ele>619.2</ele>
        <time>2022-09-26T09:12:59Z</time>
      </trkpt>
      <trkpt lat="41.7162580" lon="2.0355240">
        <ele>619.4</ele>
        <time>2022-09-26T09:13:00Z</time>
      </trkpt>
      <trkpt lat="41.7162710" lon="2.0355290">
        <ele>619.5</ele>
        <time>2022-09-26T09:13:01Z</time>
      </trkpt>
      <trkpt lat="41.7162940" lon="2.0355360">
        <ele>619.6</ele>
        <time>2022-09-26T09:13:02Z</time>
      </trkpt>
      <trkpt lat="41.7163280" lon="2.0355520">
        <ele>619.7</ele>
        <time>2022-09-26T09:13:04Z</time>
      </trkpt>
      <trkpt lat="41.7163580" lon="2.0355670">
        <ele>619.9</ele>
        <time>2022-09-26T09:13:05Z</time>
      </trkpt>
      <trkpt lat="41.7163960" lon="2.0355860">
        <ele>620.0</ele>
        <time>2022-09-26T09:13:06Z</time>
      </trkpt>
      <trkpt lat="41.7164340" lon="2.0356070">
        <ele>620.2</ele>
        <time>2022-09-26T09:13:08Z</time>
      </trkpt>
      <trkpt lat="41.7164480" lon="2.0356140">
        <ele>620.3</ele>
        <time>2022-09-26T09:13:09Z</time>
      </trkpt>
      <trkpt lat="41.7164880" lon="2.0356410">
        <ele>620.5</ele>
        <time>2022-09-26T09:13:10Z</time>
      </trkpt>
      <trkpt lat="41.7165130" lon="2.0356650">
        <ele>620.6</ele>
        <time>2022-09-26T09:13:11Z</time>
      </trkpt>
      <trkpt lat="41.7165390" lon="2.0356880">
        <ele>620.8</ele>
        <time>2022-09-26T09:13:12Z</time>
      </trkpt>
      <trkpt lat="41.7165670" lon="2.0357180">
        <ele>620.9</ele>
        <time>2022-09-26T09:13:13Z</time>
      </trkpt>
      <trkpt lat="41.7165750" lon="2.0357280">
        <ele>621.0</ele>
        <time>2022-09-26T09:13:14Z</time>
      </trkpt>
      <trkpt lat="41.7165990" lon="2.0357460">
        <ele>621.1</ele>
        <time>2022-09-26T09:13:15Z</time>
      </trkpt>
      <trkpt lat="41.7166250" lon="2.0357710">
        <ele>621.2</ele>
        <time>2022-09-26T09:13:16Z</time>
      </trkpt>
      <trkpt lat="41.7166490" lon="2.0357970">
        <ele>621.4</ele>
        <time>2022-09-26T09:13:17Z</time>
      </trkpt>
      <trkpt lat="41.7166730" lon="2.0358250">
        <ele>621.5</ele>
        <time>2022-09-26T09:13:18Z</time>
      </trkpt>
      <trkpt lat="41.7167110" lon="2.0358660">
        <ele>621.7</ele>
        <time>2022-09-26T09:13:20Z</time>
      </trkpt>
      <trkpt lat="41.7167370" lon="2.0358890">
        <ele>621.9</ele>
        <time>2022-09-26T09:13:21Z</time>
      </trkpt>
      <trkpt lat="41.7167620" lon="2.0359090">
        <ele>622.0</ele>
        <time>2022-09-26T09:13:22Z</time>
      </trkpt>
      <trkpt lat="41.7167860" lon="2.0359320">
        <ele>622.2</ele>
        <time>2022-09-26T09:13:23Z</time>
      </trkpt>
      <trkpt lat="41.7168130" lon="2.0359690">
        <ele>622.4</ele>
        <time>2022-09-26T09:13:24Z</time>
      </trkpt>
      <trkpt lat="41.7168220" lon="2.0359810">
        <ele>622.4</ele>
        <time>2022-09-26T09:13:25Z</time>
      </trkpt>
      <trkpt lat="41.7168520" lon="2.0360030">
        <ele>622.6</ele>
        <time>2022-09-26T09:13:27Z</time>
      </trkpt>
      <trkpt lat="41.7168730" lon="2.0360250">
        <ele>622.7</ele>
        <time>2022-09-26T09:13:28Z</time>
      </trkpt>
      <trkpt lat="41.7169060" lon="2.0360520">
        <ele>623.0</ele>
        <time>2022-09-26T09:13:29Z</time>
      </trkpt>
      <trkpt lat="41.7169170" lon="2.0360630">
        <ele>622.9</ele>
        <time>2022-09-26T09:13:30Z</time>
      </trkpt>
      <trkpt lat="41.7169530" lon="2.0360900">
        <ele>622.9</ele>
        <time>2022-09-26T09:13:31Z</time>
      </trkpt>
      <trkpt lat="41.7169660" lon="2.0360980">
        <ele>622.9</ele>
        <time>2022-09-26T09:13:32Z</time>
      </trkpt>
      <trkpt lat="41.7169930" lon="2.0361180">
        <ele>622.9</ele>
        <time>2022-09-26T09:13:33Z</time>
      </trkpt>
      <trkpt lat="41.7170250" lon="2.0361380">
        <ele>622.7</ele>
        <time>2022-09-26T09:13:34Z</time>
      </trkpt>
      <trkpt lat="41.7170550" lon="2.0361510">
        <ele>622.5</ele>
        <time>2022-09-26T09:13:35Z</time>
      </trkpt>
      <trkpt lat="41.7170890" lon="2.0361660">
        <ele>622.2</ele>
        <time>2022-09-26T09:13:36Z</time>
      </trkpt>
      <trkpt lat="41.7171260" lon="2.0361770">
        <ele>621.9</ele>
        <time>2022-09-26T09:13:37Z</time>
      </trkpt>
      <trkpt lat="41.7171680" lon="2.0361830">
        <ele>621.6</ele>
        <time>2022-09-26T09:13:38Z</time>
      </trkpt>
      <trkpt lat="41.7172120" lon="2.0361740">
        <ele>621.3</ele>
        <time>2022-09-26T09:13:39Z</time>
      </trkpt>
      <trkpt lat="41.7172620" lon="2.0361520">
        <ele>620.9</ele>
        <time>2022-09-26T09:13:40Z</time>
      </trkpt>
      <trkpt lat="41.7173110" lon="2.0361240">
        <ele>620.5</ele>
        <time>2022-09-26T09:13:41Z</time>
      </trkpt>
      <trkpt lat="41.7173620" lon="2.0360880">
        <ele>620.0</ele>
        <time>2022-09-26T09:13:42Z</time>
      </trkpt>
      <trkpt lat="41.7174210" lon="2.0360480">
        <ele>619.5</ele>
        <time>2022-09-26T09:13:43Z</time>
      </trkpt>
      <trkpt lat="41.7174830" lon="2.0359990">
        <ele>619.0</ele>
        <time>2022-09-26T09:13:44Z</time>
      </trkpt>
      <trkpt lat="41.7175400" lon="2.0359460">
        <ele>618.5</ele>
        <time>2022-09-26T09:13:45Z</time>
      </trkpt>
      <trkpt lat="41.7175760" lon="2.0358670">
        <ele>618.0</ele>
        <time>2022-09-26T09:13:46Z</time>
      </trkpt>
      <trkpt lat="41.7175840" lon="2.0357630">
        <ele>617.4</ele>
        <time>2022-09-26T09:13:47Z</time>
      </trkpt>
      <trkpt lat="41.7175640" lon="2.0356570">
        <ele>616.8</ele>
        <time>2022-09-26T09:13:48Z</time>
      </trkpt>
      <trkpt lat="41.7174480" lon="2.0354970">
        <ele>615.7</ele>
        <time>2022-09-26T09:13:50Z</time>
      </trkpt>
      <trkpt lat="41.7173770" lon="2.0354280">
        <ele>615.2</ele>
        <time>2022-09-26T09:13:51Z</time>
      </trkpt>
      <trkpt lat="41.7173060" lon="2.0353630">
        <ele>614.6</ele>
        <time>2022-09-26T09:13:52Z</time>
      </trkpt>
      <trkpt lat="41.7172360" lon="2.0352930">
        <ele>614.0</ele>
        <time>2022-09-26T09:13:53Z</time>
      </trkpt>
      <trkpt lat="41.7171720" lon="2.0352190">
        <ele>613.5</ele>
        <time>2022-09-26T09:13:54Z</time>
      </trkpt>
      <trkpt lat="41.7171220" lon="2.0351290">
        <ele>612.9</ele>
        <time>2022-09-26T09:13:55Z</time>
      </trkpt>
      <trkpt lat="41.7170960" lon="2.0350240">
        <ele>612.3</ele>
        <time>2022-09-26T09:13:56Z</time>
      </trkpt>
      <trkpt lat="41.7171060" lon="2.0349230">
        <ele>611.7</ele>
        <time>2022-09-26T09:13:57Z</time>
      </trkpt>
      <trkpt lat="41.7171420" lon="2.0348330">
        <ele>611.1</ele>
        <time>2022-09-26T09:13:58Z</time>
      </trkpt>
      <trkpt lat="41.7172020" lon="2.0347600">
        <ele>610.5</ele>
        <time>2022-09-26T09:13:59Z</time>
      </trkpt>
      <trkpt lat="41.7172730" lon="2.0347100">
        <ele>609.9</ele>
        <time>2022-09-26T09:14:00Z</time>
      </trkpt>
      <trkpt lat="41.7173480" lon="2.0346720">
        <ele>609.3</ele>
        <time>2022-09-26T09:14:01Z</time>
      </trkpt>
      <trkpt lat="41.7174200" lon="2.0346380">
        <ele>608.7</ele>
        <time>2022-09-26T09:14:02Z</time>
      </trkpt>
      <trkpt lat="41.7174940" lon="2.0346070">
        <ele>608.2</ele>
        <time>2022-09-26T09:14:03Z</time>
      </trkpt>
      <trkpt lat="41.7175740" lon="2.0345910">
        <ele>607.8</ele>
        <time>2022-09-26T09:14:04Z</time>
      </trkpt>
      <trkpt lat="41.7176600" lon="2.0346000">
        <ele>607.4</ele>
        <time>2022-09-26T09:14:05Z</time>
      </trkpt>
      <trkpt lat="41.7177410" lon="2.0346400">
        <ele>607.0</ele>
        <time>2022-09-26T09:14:06Z</time>
      </trkpt>
      <trkpt lat="41.7178210" lon="2.0346830">
        <ele>606.6</ele>
        <time>2022-09-26T09:14:07Z</time>
      </trkpt>
      <trkpt lat="41.7179020" lon="2.0347250">
        <ele>606.1</ele>
        <time>2022-09-26T09:14:08Z</time>
      </trkpt>
      <trkpt lat="41.7179850" lon="2.0347680">
        <ele>605.6</ele>
        <time>2022-09-26T09:14:09Z</time>
      </trkpt>
      <trkpt lat="41.7180660" lon="2.0348100">
        <ele>605.0</ele>
        <time>2022-09-26T09:14:10Z</time>
      </trkpt>
      <trkpt lat="41.7181470" lon="2.0348440">
        <ele>604.4</ele>
        <time>2022-09-26T09:14:11Z</time>
      </trkpt>
      <trkpt lat="41.7182290" lon="2.0348660">
        <ele>603.7</ele>
        <time>2022-09-26T09:14:12Z</time>
      </trkpt>
      <trkpt lat="41.7183140" lon="2.0348760">
        <ele>603.0</ele>
        <time>2022-09-26T09:14:13Z</time>
      </trkpt>
      <trkpt lat="41.7183990" lon="2.0348760">
        <ele>602.3</ele>
        <time>2022-09-26T09:14:14Z</time>
      </trkpt>
      <trkpt lat="41.7184850" lon="2.0348690">
        <ele>601.6</ele>
        <time>2022-09-26T09:14:15Z</time>
      </trkpt>
      <trkpt lat="41.7185700" lon="2.0348780">
        <ele>601.0</ele>
        <time>2022-09-26T09:14:16Z</time>
      </trkpt>
      <trkpt lat="41.7186550" lon="2.0349210">
        <ele>600.5</ele>
        <time>2022-09-26T09:14:17Z</time>
      </trkpt>
      <trkpt lat="41.7187350" lon="2.0349870">
        <ele>599.9</ele>
        <time>2022-09-26T09:14:18Z</time>
      </trkpt>
      <trkpt lat="41.7188090" lon="2.0350630">
        <ele>599.4</ele>
        <time>2022-09-26T09:14:19Z</time>
      </trkpt>
      <trkpt lat="41.7188810" lon="2.0351290">
        <ele>598.9</ele>
        <time>2022-09-26T09:14:20Z</time>
      </trkpt>
      <trkpt lat="41.7189600" lon="2.0351810">
        <ele>598.4</ele>
        <time>2022-09-26T09:14:21Z</time>
      </trkpt>
      <trkpt lat="41.7190440" lon="2.0352200">
        <ele>597.8</ele>
        <time>2022-09-26T09:14:22Z</time>
      </trkpt>
      <trkpt lat="41.7191290" lon="2.0352490">
        <ele>597.3</ele>
        <time>2022-09-26T09:14:23Z</time>
      </trkpt>
      <trkpt lat="41.7192110" lon="2.0352760">
        <ele>596.7</ele>
        <time>2022-09-26T09:14:24Z</time>
      </trkpt>
      <trkpt lat="41.7192940" lon="2.0353020">
        <ele>596.1</ele>
        <time>2022-09-26T09:14:25Z</time>
      </trkpt>
      <trkpt lat="41.7193800" lon="2.0353290">
        <ele>595.4</ele>
        <time>2022-09-26T09:14:26Z</time>
      </trkpt>
      <trkpt lat="41.7194640" lon="2.0353570">
        <ele>594.7</ele>
        <time>2022-09-26T09:14:27Z</time>
      </trkpt>
      <trkpt lat="41.7195530" lon="2.0353850">
        <ele>594.0</ele>
        <time>2022-09-26T09:14:28Z</time>
      </trkpt>
      <trkpt lat="41.7196410" lon="2.0354130">
        <ele>593.2</ele>
        <time>2022-09-26T09:14:29Z</time>
      </trkpt>
      <trkpt lat="41.7197280" lon="2.0354400">
        <ele>592.5</ele>
        <time>2022-09-26T09:14:30Z</time>
      </trkpt>
      <trkpt lat="41.7198140" lon="2.0354680">
        <ele>591.9</ele>
        <time>2022-09-26T09:14:31Z</time>
      </trkpt>
      <trkpt lat="41.7198900" lon="2.0355190">
        <ele>591.3</ele>
        <time>2022-09-26T09:14:32Z</time>
      </trkpt>
      <trkpt lat="41.7199550" lon="2.0355970">
        <ele>590.6</ele>
        <time>2022-09-26T09:14:33Z</time>
      </trkpt>
      <trkpt lat="41.7200150" lon="2.0356780">
        <ele>590.1</ele>
        <time>2022-09-26T09:14:34Z</time>
      </trkpt>
      <trkpt lat="41.7200820" lon="2.0357430">
        <ele>589.5</ele>
        <time>2022-09-26T09:14:35Z</time>
      </trkpt>
      <trkpt lat="41.7201600" lon="2.0357740">
        <ele>589.0</ele>
        <time>2022-09-26T09:14:36Z</time>
      </trkpt>
      <trkpt lat="41.7202390" lon="2.0357830">
        <ele>588.5</ele>
        <time>2022-09-26T09:14:37Z</time>
      </trkpt>
      <trkpt lat="41.7203210" lon="2.0357820">
        <ele>587.9</ele>
        <time>2022-09-26T09:14:38Z</time>
      </trkpt>
      <trkpt lat="41.7204040" lon="2.0357930">
        <ele>587.4</ele>
        <time>2022-09-26T09:14:39Z</time>
      </trkpt>
      <trkpt lat="41.7204890" lon="2.0358180">
        <ele>586.9</ele>
        <time>2022-09-26T09:14:40Z</time>
      </trkpt>
      <trkpt lat="41.7205720" lon="2.0358500">
        <ele>586.3</ele>
        <time>2022-09-26T09:14:41Z</time>
      </trkpt>
      <trkpt lat="41.7206540" lon="2.0358930">
        <ele>585.8</ele>
        <time>2022-09-26T09:14:42Z</time>
      </trkpt>
      <trkpt lat="41.7207360" lon="2.0359440">
        <ele>585.2</ele>
        <time>2022-09-26T09:14:43Z</time>
      </trkpt>
      <trkpt lat="41.7208210" lon="2.0359920">
        <ele>584.7</ele>
        <time>2022-09-26T09:14:44Z</time>
      </trkpt>
      <trkpt lat="41.7209110" lon="2.0360310">
        <ele>584.1</ele>
        <time>2022-09-26T09:14:45Z</time>
      </trkpt>
      <trkpt lat="41.7209990" lon="2.0360590">
        <ele>583.5</ele>
        <time>2022-09-26T09:14:46Z</time>
      </trkpt>
      <trkpt lat="41.7210900" lon="2.0360880">
        <ele>582.9</ele>
        <time>2022-09-26T09:14:47Z</time>
      </trkpt>
      <trkpt lat="41.7211780" lon="2.0361170">
        <ele>582.3</ele>
        <time>2022-09-26T09:14:48Z</time>
      </trkpt>
      <trkpt lat="41.7212620" lon="2.0361510">
        <ele>581.7</ele>
        <time>2022-09-26T09:14:49Z</time>
      </trkpt>
      <trkpt lat="41.7213360" lon="2.0361880">
        <ele>581.2</ele>
        <time>2022-09-26T09:14:50Z</time>
      </trkpt>
      <trkpt lat="41.7214050" lon="2.0362270">
        <ele>580.7</ele>
        <time>2022-09-26T09:14:51Z</time>
      </trkpt>
      <trkpt lat="41.7214660" lon="2.0362670">
        <ele>580.4</ele>
        <time>2022-09-26T09:14:52Z</time>
      </trkpt>
      <trkpt lat="41.7215190" lon="2.0363120">
        <ele>580.1</ele>
        <time>2022-09-26T09:14:53Z</time>
      </trkpt>
      <trkpt lat="41.7215720" lon="2.0363490">
        <ele>579.8</ele>
        <time>2022-09-26T09:14:54Z</time>
      </trkpt>
      <trkpt lat="41.7216230" lon="2.0363700">
        <ele>579.4</ele>
        <time>2022-09-26T09:14:55Z</time>
      </trkpt>
      <trkpt lat="41.7216770" lon="2.0363830">
        <ele>579.2</ele>
        <time>2022-09-26T09:14:56Z</time>
      </trkpt>
      <trkpt lat="41.7217270" lon="2.0363950">
        <ele>579.0</ele>
        <time>2022-09-26T09:14:57Z</time>
      </trkpt>
      <trkpt lat="41.7217780" lon="2.0364090">
        <ele>578.8</ele>
        <time>2022-09-26T09:14:58Z</time>
      </trkpt>
      <trkpt lat="41.7218220" lon="2.0364250">
        <ele>578.7</ele>
        <time>2022-09-26T09:14:59Z</time>
      </trkpt>
      <trkpt lat="41.7218580" lon="2.0364480">
        <ele>578.5</ele>
        <time>2022-09-26T09:15:00Z</time>
      </trkpt>
      <trkpt lat="41.7218910" lon="2.0364700">
        <ele>578.4</ele>
        <time>2022-09-26T09:15:01Z</time>
      </trkpt>
      <trkpt lat="41.7219010" lon="2.0364760">
        <ele>578.4</ele>
        <time>2022-09-26T09:15:02Z</time>
      </trkpt>
      <trkpt lat="41.7219270" lon="2.0364870">
        <ele>578.3</ele>
        <time>2022-09-26T09:15:03Z</time>
      </trkpt>
      <trkpt lat="41.7219590" lon="2.0365040">
        <ele>578.1</ele>
        <time>2022-09-26T09:15:04Z</time>
      </trkpt>
      <trkpt lat="41.7219650" lon="2.0365080">
        <ele>578.1</ele>
        <time>2022-09-26T09:15:05Z</time>
      </trkpt>
      <trkpt lat="41.7219840" lon="2.0365220">
        <ele>578.0</ele>
        <time>2022-09-26T09:15:06Z</time>
      </trkpt>
      <trkpt lat="41.7219860" lon="2.0365340">
        <ele>578.0</ele>
        <time>2022-09-26T09:15:07Z</time>
      </trkpt>
      <trkpt lat="41.7220170" lon="2.0365580">
        <ele>577.9</ele>
        <time>2022-09-26T09:15:08Z</time>
      </trkpt>
      <trkpt lat="41.7220700" lon="2.0365950">
        <ele>577.6</ele>
        <time>2022-09-26T09:15:10Z</time>
      </trkpt>
      <trkpt lat="41.7221150" lon="2.0366190">
        <ele>577.3</ele>
        <time>2022-09-26T09:15:11Z</time>
      </trkpt>
      <trkpt lat="41.7221500" lon="2.0366430">
        <ele>577.2</ele>
        <time>2022-09-26T09:15:12Z</time>
      </trkpt>
      <trkpt lat="41.7221790" lon="2.0366620">
        <ele>577.0</ele>
        <time>2022-09-26T09:15:13Z</time>
      </trkpt>
      <trkpt lat="41.7222180" lon="2.0366860">
        <ele>576.8</ele>
        <time>2022-09-26T09:15:14Z</time>
      </trkpt>
      <trkpt lat="41.7222570" lon="2.0366960">
        <ele>576.6</ele>
        <time>2022-09-26T09:15:15Z</time>
      </trkpt>
      <trkpt lat="41.7223010" lon="2.0366950">
        <ele>576.4</ele>
        <time>2022-09-26T09:15:16Z</time>
      </trkpt>
      <trkpt lat="41.7223440" lon="2.0366890">
        <ele>576.2</ele>
        <time>2022-09-26T09:15:17Z</time>
      </trkpt>
      <trkpt lat="41.7223910" lon="2.0366900">
        <ele>575.9</ele>
        <time>2022-09-26T09:15:18Z</time>
      </trkpt>
      <trkpt lat="41.7224340" lon="2.0366930">
        <ele>575.7</ele>
        <time>2022-09-26T09:15:19Z</time>
      </trkpt>
      <trkpt lat="41.7224830" lon="2.0366850">
        <ele>575.5</ele>
        <time>2022-09-26T09:15:21Z</time>
      </trkpt>
      <trkpt lat="41.7225290" lon="2.0367490">
        <ele>575.2</ele>
        <time>2022-09-26T09:15:22Z</time>
      </trkpt>
      <trkpt lat="41.7225400" lon="2.0368140">
        <ele>575.1</ele>
        <time>2022-09-26T09:15:23Z</time>
      </trkpt>
      <trkpt lat="41.7225430" lon="2.0368820">
        <ele>574.9</ele>
        <time>2022-09-26T09:15:24Z</time>
      </trkpt>
      <trkpt lat="41.7225540" lon="2.0370040">
        <ele>574.5</ele>
        <time>2022-09-26T09:15:26Z</time>
      </trkpt>
      <trkpt lat="41.7225740" lon="2.0370670">
        <ele>574.3</ele>
        <time>2022-09-26T09:15:27Z</time>
      </trkpt>
      <trkpt lat="41.7225890" lon="2.0371180">
        <ele>574.1</ele>
        <time>2022-09-26T09:15:28Z</time>
      </trkpt>
      <trkpt lat="41.7226000" lon="2.0371690">
        <ele>573.9</ele>
        <time>2022-09-26T09:15:29Z</time>
      </trkpt>
      <trkpt lat="41.7226180" lon="2.0372260">
        <ele>573.7</ele>
        <time>2022-09-26T09:15:30Z</time>
      </trkpt>
      <trkpt lat="41.7226370" lon="2.0372760">
        <ele>573.5</ele>
        <time>2022-09-26T09:15:31Z</time>
      </trkpt>
      <trkpt lat="41.7226780" lon="2.0373460">
        <ele>573.2</ele>
        <time>2022-09-26T09:15:32Z</time>
      </trkpt>
      <trkpt lat="41.7227190" lon="2.0374030">
        <ele>572.9</ele>
        <time>2022-09-26T09:15:33Z</time>
      </trkpt>
      <trkpt lat="41.7227640" lon="2.0374550">
        <ele>572.6</ele>
        <time>2022-09-26T09:15:34Z</time>
      </trkpt>
      <trkpt lat="41.7228090" lon="2.0375030">
        <ele>572.3</ele>
        <time>2022-09-26T09:15:35Z</time>
      </trkpt>
      <trkpt lat="41.7228490" lon="2.0375520">
        <ele>572.1</ele>
        <time>2022-09-26T09:15:36Z</time>
      </trkpt>
      <trkpt lat="41.7228850" lon="2.0376080">
        <ele>571.9</ele>
        <time>2022-09-26T09:15:37Z</time>
      </trkpt>
      <trkpt lat="41.7229200" lon="2.0376640">
        <ele>571.7</ele>
        <time>2022-09-26T09:15:38Z</time>
      </trkpt>
      <trkpt lat="41.7229560" lon="2.0377130">
        <ele>571.5</ele>
        <time>2022-09-26T09:15:39Z</time>
      </trkpt>
      <trkpt lat="41.7229910" lon="2.0377600">
        <ele>571.3</ele>
        <time>2022-09-26T09:15:40Z</time>
      </trkpt>
      <trkpt lat="41.7230270" lon="2.0378120">
        <ele>571.1</ele>
        <time>2022-09-26T09:15:41Z</time>
      </trkpt>
      <trkpt lat="41.7230690" lon="2.0378560">
        <ele>570.8</ele>
        <time>2022-09-26T09:15:42Z</time>
      </trkpt>
      <trkpt lat="41.7231190" lon="2.0378910">
        <ele>570.6</ele>
        <time>2022-09-26T09:15:43Z</time>
      </trkpt>
      <trkpt lat="41.7231780" lon="2.0379150">
        <ele>570.3</ele>
        <time>2022-09-26T09:15:44Z</time>
      </trkpt>
      <trkpt lat="41.7232320" lon="2.0379300">
        <ele>570.1</ele>
        <time>2022-09-26T09:15:45Z</time>
      </trkpt>
      <trkpt lat="41.7232900" lon="2.0379360">
        <ele>569.9</ele>
        <time>2022-09-26T09:15:46Z</time>
      </trkpt>
      <trkpt lat="41.7233470" lon="2.0379420">
        <ele>569.7</ele>
        <time>2022-09-26T09:15:47Z</time>
      </trkpt>
      <trkpt lat="41.7234030" lon="2.0379420">
        <ele>569.5</ele>
        <time>2022-09-26T09:15:48Z</time>
      </trkpt>
      <trkpt lat="41.7234560" lon="2.0379450">
        <ele>569.3</ele>
        <time>2022-09-26T09:15:49Z</time>
      </trkpt>
      <trkpt lat="41.7235100" lon="2.0379520">
        <ele>569.1</ele>
        <time>2022-09-26T09:15:50Z</time>
      </trkpt>
      <trkpt lat="41.7235630" lon="2.0379630">
        <ele>569.0</ele>
        <time>2022-09-26T09:15:51Z</time>
      </trkpt>
      <trkpt lat="41.7236130" lon="2.0379790">
        <ele>568.8</ele>
        <time>2022-09-26T09:15:52Z</time>
      </trkpt>
      <trkpt lat="41.7236630" lon="2.0380010">
        <ele>568.7</ele>
        <time>2022-09-26T09:15:53Z</time>
      </trkpt>
      <trkpt lat="41.7237140" lon="2.0380230">
        <ele>568.5</ele>
        <time>2022-09-26T09:15:54Z</time>
      </trkpt>
      <trkpt lat="41.7237650" lon="2.0380460">
        <ele>568.4</ele>
        <time>2022-09-26T09:15:55Z</time>
      </trkpt>
      <trkpt lat="41.7238150" lon="2.0380730">
        <ele>568.2</ele>
        <time>2022-09-26T09:15:56Z</time>
      </trkpt>
      <trkpt lat="41.7238660" lon="2.0380890">
        <ele>568.1</ele>
        <time>2022-09-26T09:15:57Z</time>
      </trkpt>
      <trkpt lat="41.7239210" lon="2.0380970">
        <ele>567.9</ele>
        <time>2022-09-26T09:15:58Z</time>
      </trkpt>
      <trkpt lat="41.7239830" lon="2.0380950">
        <ele>567.7</ele>
        <time>2022-09-26T09:15:59Z</time>
      </trkpt>
      <trkpt lat="41.7240460" lon="2.0380860">
        <ele>567.5</ele>
        <time>2022-09-26T09:16:00Z</time>
      </trkpt>
      <trkpt lat="41.7241070" lon="2.0380710">
        <ele>567.3</ele>
        <time>2022-09-26T09:16:01Z</time>
      </trkpt>
      <trkpt lat="41.7241680" lon="2.0380520">
        <ele>567.2</ele>
        <time>2022-09-26T09:16:02Z</time>
      </trkpt>
      <trkpt lat="41.7242280" lon="2.0380330">
        <ele>567.0</ele>
        <time>2022-09-26T09:16:03Z</time>
      </trkpt>
      <trkpt lat="41.7242870" lon="2.0380230">
        <ele>566.8</ele>
        <time>2022-09-26T09:16:04Z</time>
      </trkpt>
      <trkpt lat="41.7243440" lon="2.0380250">
        <ele>566.7</ele>
        <time>2022-09-26T09:16:05Z</time>
      </trkpt>
      <trkpt lat="41.7244000" lon="2.0380310">
        <ele>566.6</ele>
        <time>2022-09-26T09:16:06Z</time>
      </trkpt>
      <trkpt lat="41.7244600" lon="2.0380410">
        <ele>566.5</ele>
        <time>2022-09-26T09:16:07Z</time>
      </trkpt>
      <trkpt lat="41.7245200" lon="2.0380570">
        <ele>566.3</ele>
        <time>2022-09-26T09:16:08Z</time>
      </trkpt>
      <trkpt lat="41.7245800" lon="2.0380770">
        <ele>566.2</ele>
        <time>2022-09-26T09:16:09Z</time>
      </trkpt>
      <trkpt lat="41.7246420" lon="2.0381020">
        <ele>566.1</ele>
        <time>2022-09-26T09:16:10Z</time>
      </trkpt>
      <trkpt lat="41.7246990" lon="2.0381300">
        <ele>566.0</ele>
        <time>2022-09-26T09:16:11Z</time>
      </trkpt>
      <trkpt lat="41.7247550" lon="2.0381560">
        <ele>565.9</ele>
        <time>2022-09-26T09:16:12Z</time>
      </trkpt>
      <trkpt lat="41.7248120" lon="2.0381820">
        <ele>565.8</ele>
        <time>2022-09-26T09:16:13Z</time>
      </trkpt>
      <trkpt lat="41.7248690" lon="2.0382060">
        <ele>565.7</ele>
        <time>2022-09-26T09:16:14Z</time>
      </trkpt>
      <trkpt lat="41.7249230" lon="2.0382300">
        <ele>565.6</ele>
        <time>2022-09-26T09:16:15Z</time>
      </trkpt>
      <trkpt lat="41.7249770" lon="2.0382590">
        <ele>565.4</ele>
        <time>2022-09-26T09:16:16Z</time>
      </trkpt>
      <trkpt lat="41.7250290" lon="2.0382880">
        <ele>565.3</ele>
        <time>2022-09-26T09:16:17Z</time>
      </trkpt>
      <trkpt lat="41.7250830" lon="2.0383190">
        <ele>565.2</ele>
        <time>2022-09-26T09:16:18Z</time>
      </trkpt>
      <trkpt lat="41.7251350" lon="2.0383500">
        <ele>565.1</ele>
        <time>2022-09-26T09:16:19Z</time>
      </trkpt>
      <trkpt lat="41.7251860" lon="2.0383740">
        <ele>564.9</ele>
        <time>2022-09-26T09:16:20Z</time>
      </trkpt>
      <trkpt lat="41.7252410" lon="2.0383940">
        <ele>564.8</ele>
        <time>2022-09-26T09:16:21Z</time>
      </trkpt>
      <trkpt lat="41.7252980" lon="2.0384130">
        <ele>564.7</ele>
        <time>2022-09-26T09:16:22Z</time>
      </trkpt>
      <trkpt lat="41.7253550" lon="2.0384210">
        <ele>564.5</ele>
        <time>2022-09-26T09:16:23Z</time>
      </trkpt>
      <trkpt lat="41.7254150" lon="2.0384220">
        <ele>564.4</ele>
        <time>2022-09-26T09:16:24Z</time>
      </trkpt>
      <trkpt lat="41.7254690" lon="2.0384090">
        <ele>564.3</ele>
        <time>2022-09-26T09:16:25Z</time>
      </trkpt>
      <trkpt lat="41.7255190" lon="2.0383830">
        <ele>564.1</ele>
        <time>2022-09-26T09:16:26Z</time>
      </trkpt>
      <trkpt lat="41.7255620" lon="2.0383420">
        <ele>563.9</ele>
        <time>2022-09-26T09:16:27Z</time>
      </trkpt>
      <trkpt lat="41.7255990" lon="2.0382880">
        <ele>563.7</ele>
        <time>2022-09-26T09:16:28Z</time>
      </trkpt>
      <trkpt lat="41.7256310" lon="2.0382300">
        <ele>563.5</ele>
        <time>2022-09-26T09:16:29Z</time>
      </trkpt>
      <trkpt lat="41.7256610" lon="2.0381630">
        <ele>563.3</ele>
        <time>2022-09-26T09:16:30Z</time>
      </trkpt>
      <trkpt lat="41.7256880" lon="2.0380930">
        <ele>563.1</ele>
        <time>2022-09-26T09:16:31Z</time>
      </trkpt>
      <trkpt lat="41.7257200" lon="2.0380290">
        <ele>562.9</ele>
        <time>2022-09-26T09:16:32Z</time>
      </trkpt>
      <trkpt lat="41.7257560" lon="2.0379680">
        <ele>562.7</ele>
        <time>2022-09-26T09:16:33Z</time>
      </trkpt>
      <trkpt lat="41.7257970" lon="2.0379210">
        <ele>562.6</ele>
        <time>2022-09-26T09:16:34Z</time>
      </trkpt>
      <trkpt lat="41.7258430" lon="2.0378780">
        <ele>562.4</ele>
        <time>2022-09-26T09:16:35Z</time>
      </trkpt>
      <trkpt lat="41.7258900" lon="2.0378390">
        <ele>562.3</ele>
        <time>2022-09-26T09:16:36Z</time>
      </trkpt>
      <trkpt lat="41.7259370" lon="2.0378020">
        <ele>562.1</ele>
        <time>2022-09-26T09:16:37Z</time>
      </trkpt>
      <trkpt lat="41.7259890" lon="2.0377640">
        <ele>561.9</ele>
        <time>2022-09-26T09:16:38Z</time>
      </trkpt>
      <trkpt lat="41.7260420" lon="2.0377370">
        <ele>561.7</ele>
        <time>2022-09-26T09:16:39Z</time>
      </trkpt>
      <trkpt lat="41.7260960" lon="2.0377170">
        <ele>561.5</ele>
        <time>2022-09-26T09:16:40Z</time>
      </trkpt>
      <trkpt lat="41.7261530" lon="2.0376960">
        <ele>561.3</ele>
        <time>2022-09-26T09:16:41Z</time>
      </trkpt>
      <trkpt lat="41.7262090" lon="2.0376720">
        <ele>561.2</ele>
        <time>2022-09-26T09:16:42Z</time>
      </trkpt>
      <trkpt lat="41.7262640" lon="2.0376530">
        <ele>561.0</ele>
        <time>2022-09-26T09:16:43Z</time>
      </trkpt>
      <trkpt lat="41.7263160" lon="2.0376340">
        <ele>560.8</ele>
        <time>2022-09-26T09:16:44Z</time>
      </trkpt>
      <trkpt lat="41.7263680" lon="2.0376120">
        <ele>560.6</ele>
        <time>2022-09-26T09:16:45Z</time>
      </trkpt>
      <trkpt lat="41.7264200" lon="2.0375910">
        <ele>560.5</ele>
        <time>2022-09-26T09:16:46Z</time>
      </trkpt>
      <trkpt lat="41.7264710" lon="2.0375690">
        <ele>560.3</ele>
        <time>2022-09-26T09:16:47Z</time>
      </trkpt>
      <trkpt lat="41.7265230" lon="2.0375450">
        <ele>560.1</ele>
        <time>2022-09-26T09:16:48Z</time>
      </trkpt>
      <trkpt lat="41.7265750" lon="2.0375190">
        <ele>559.9</ele>
        <time>2022-09-26T09:16:49Z</time>
      </trkpt>
      <trkpt lat="41.7266250" lon="2.0374940">
        <ele>559.7</ele>
        <time>2022-09-26T09:16:50Z</time>
      </trkpt>
      <trkpt lat="41.7266750" lon="2.0374610">
        <ele>559.6</ele>
        <time>2022-09-26T09:16:51Z</time>
      </trkpt>
      <trkpt lat="41.7267260" lon="2.0374280">
        <ele>559.4</ele>
        <time>2022-09-26T09:16:52Z</time>
      </trkpt>
      <trkpt lat="41.7267770" lon="2.0373950">
        <ele>559.2</ele>
        <time>2022-09-26T09:16:53Z</time>
      </trkpt>
      <trkpt lat="41.7268290" lon="2.0373630">
        <ele>559.0</ele>
        <time>2022-09-26T09:16:54Z</time>
      </trkpt>
      <trkpt lat="41.7268800" lon="2.0373310">
        <ele>558.8</ele>
        <time>2022-09-26T09:16:55Z</time>
      </trkpt>
      <trkpt lat="41.7269300" lon="2.0373000">
        <ele>558.6</ele>
        <time>2022-09-26T09:16:56Z</time>
      </trkpt>
      <trkpt lat="41.7269800" lon="2.0372620">
        <ele>558.3</ele>
        <time>2022-09-26T09:16:57Z</time>
      </trkpt>
      <trkpt lat="41.7270310" lon="2.0372150">
        <ele>558.1</ele>
        <time>2022-09-26T09:16:58Z</time>
      </trkpt>
      <trkpt lat="41.7270840" lon="2.0371640">
        <ele>557.8</ele>
        <time>2022-09-26T09:16:59Z</time>
      </trkpt>
      <trkpt lat="41.7271430" lon="2.0371250">
        <ele>557.6</ele>
        <time>2022-09-26T09:17:00Z</time>
      </trkpt>
      <trkpt lat="41.7272040" lon="2.0370980">
        <ele>557.4</ele>
        <time>2022-09-26T09:17:01Z</time>
      </trkpt>
      <trkpt lat="41.7272650" lon="2.0370770">
        <ele>557.2</ele>
        <time>2022-09-26T09:17:02Z</time>
      </trkpt>
      <trkpt lat="41.7273250" lon="2.0370570">
        <ele>557.0</ele>
        <time>2022-09-26T09:17:03Z</time>
      </trkpt>
      <trkpt lat="41.7273820" lon="2.0370420">
        <ele>556.8</ele>
        <time>2022-09-26T09:17:04Z</time>
      </trkpt>
      <trkpt lat="41.7274390" lon="2.0370230">
        <ele>556.7</ele>
        <time>2022-09-26T09:17:05Z</time>
      </trkpt>
      <trkpt lat="41.7274930" lon="2.0370100">
        <ele>556.6</ele>
        <time>2022-09-26T09:17:06Z</time>
      </trkpt>
      <trkpt lat="41.7275460" lon="2.0369940">
        <ele>556.5</ele>
        <time>2022-09-26T09:17:07Z</time>
      </trkpt>
      <trkpt lat="41.7276020" lon="2.0369730">
        <ele>556.3</ele>
        <time>2022-09-26T09:17:08Z</time>
      </trkpt>
      <trkpt lat="41.7276580" lon="2.0369520">
        <ele>556.2</ele>
        <time>2022-09-26T09:17:09Z</time>
      </trkpt>
      <trkpt lat="41.7277130" lon="2.0369360">
        <ele>556.1</ele>
        <time>2022-09-26T09:17:10Z</time>
      </trkpt>
      <trkpt lat="41.7277630" lon="2.0369270">
        <ele>556.0</ele>
        <time>2022-09-26T09:17:11Z</time>
      </trkpt>
      <trkpt lat="41.7278160" lon="2.0369200">
        <ele>556.0</ele>
        <time>2022-09-26T09:17:12Z</time>
      </trkpt>
      <trkpt lat="41.7278700" lon="2.0369180">
        <ele>555.9</ele>
        <time>2022-09-26T09:17:13Z</time>
      </trkpt>
      <trkpt lat="41.7279250" lon="2.0369230">
        <ele>555.8</ele>
        <time>2022-09-26T09:17:14Z</time>
      </trkpt>
      <trkpt lat="41.7279770" lon="2.0369320">
        <ele>555.8</ele>
        <time>2022-09-26T09:17:15Z</time>
      </trkpt>
      <trkpt lat="41.7280300" lon="2.0369460">
        <ele>555.7</ele>
        <time>2022-09-26T09:17:16Z</time>
      </trkpt>
      <trkpt lat="41.7280820" lon="2.0369640">
        <ele>555.6</ele>
        <time>2022-09-26T09:17:17Z</time>
      </trkpt>
      <trkpt lat="41.7281350" lon="2.0369800">
        <ele>555.6</ele>
        <time>2022-09-26T09:17:18Z</time>
      </trkpt>
      <trkpt lat="41.7281890" lon="2.0369920">
        <ele>555.5</ele>
        <time>2022-09-26T09:17:19Z</time>
      </trkpt>
      <trkpt lat="41.7282410" lon="2.0370010">
        <ele>555.4</ele>
        <time>2022-09-26T09:17:20Z</time>
      </trkpt>
      <trkpt lat="41.7282950" lon="2.0370030">
        <ele>555.3</ele>
        <time>2022-09-26T09:17:21Z</time>
      </trkpt>
      <trkpt lat="41.7283460" lon="2.0369950">
        <ele>555.3</ele>
        <time>2022-09-26T09:17:22Z</time>
      </trkpt>
      <trkpt lat="41.7283920" lon="2.0369800">
        <ele>555.2</ele>
        <time>2022-09-26T09:17:23Z</time>
      </trkpt>
      <trkpt lat="41.7284360" lon="2.0369580">
        <ele>555.1</ele>
        <time>2022-09-26T09:17:24Z</time>
      </trkpt>
      <trkpt lat="41.7284780" lon="2.0369230">
        <ele>554.9</ele>
        <time>2022-09-26T09:17:25Z</time>
      </trkpt>
      <trkpt lat="41.7285110" lon="2.0368830">
        <ele>554.8</ele>
        <time>2022-09-26T09:17:26Z</time>
      </trkpt>
      <trkpt lat="41.7285340" lon="2.0368510">
        <ele>554.7</ele>
        <time>2022-09-26T09:17:27Z</time>
      </trkpt>
      <trkpt lat="41.7285560" lon="2.0368260">
        <ele>554.7</ele>
        <time>2022-09-26T09:17:28Z</time>
      </trkpt>
      <trkpt lat="41.7285830" lon="2.0367980">
        <ele>554.7</ele>
        <time>2022-09-26T09:17:29Z</time>
      </trkpt>
      <trkpt lat="41.7285930" lon="2.0367880">
        <ele>554.6</ele>
        <time>2022-09-26T09:17:30Z</time>
      </trkpt>
      <trkpt lat="41.7286270" lon="2.0367500">
        <ele>554.6</ele>
        <time>2022-09-26T09:17:31Z</time>
      </trkpt>
      <trkpt lat="41.7286510" lon="2.0367300">
        <ele>554.5</ele>
        <time>2022-09-26T09:17:32Z</time>
      </trkpt>
      <trkpt lat="41.7286790" lon="2.0367180">
        <ele>554.4</ele>
        <time>2022-09-26T09:17:33Z</time>
      </trkpt>
      <trkpt lat="41.7286700" lon="2.0367020">
        <ele>554.4</ele>
        <time>2022-09-26T09:17:34Z</time>
      </trkpt>
      <trkpt lat="41.7287530" lon="2.0366970">
        <ele>554.2</ele>
        <time>2022-09-26T09:17:36Z</time>
      </trkpt>
      <trkpt lat="41.7288090" lon="2.0366680">
        <ele>554.0</ele>
        <time>2022-09-26T09:17:37Z</time>
      </trkpt>
      <trkpt lat="41.7288530" lon="2.0366570">
        <ele>553.9</ele>
        <time>2022-09-26T09:17:38Z</time>
      </trkpt>
      <trkpt lat="41.7289000" lon="2.0366440">
        <ele>553.7</ele>
        <time>2022-09-26T09:17:39Z</time>
      </trkpt>
      <trkpt lat="41.7289800" lon="2.0366410">
        <ele>553.5</ele>
        <time>2022-09-26T09:17:41Z</time>
      </trkpt>
      <trkpt lat="41.7290310" lon="2.0366370">
        <ele>553.3</ele>
        <time>2022-09-26T09:17:42Z</time>
      </trkpt>
      <trkpt lat="41.7290820" lon="2.0366310">
        <ele>553.1</ele>
        <time>2022-09-26T09:17:43Z</time>
      </trkpt>
      <trkpt lat="41.7291340" lon="2.0366230">
        <ele>552.9</ele>
        <time>2022-09-26T09:17:44Z</time>
      </trkpt>
      <trkpt lat="41.7291830" lon="2.0366150">
        <ele>552.8</ele>
        <time>2022-09-26T09:17:45Z</time>
      </trkpt>
      <trkpt lat="41.7292290" lon="2.0366010">
        <ele>552.6</ele>
        <time>2022-09-26T09:17:46Z</time>
      </trkpt>
      <trkpt lat="41.7292740" lon="2.0365810">
        <ele>552.4</ele>
        <time>2022-09-26T09:17:47Z</time>
      </trkpt>
      <trkpt lat="41.7293190" lon="2.0365590">
        <ele>552.3</ele>
        <time>2022-09-26T09:17:48Z</time>
      </trkpt>
      <trkpt lat="41.7293640" lon="2.0365340">
        <ele>552.1</ele>
        <time>2022-09-26T09:17:49Z</time>
      </trkpt>
      <trkpt lat="41.7294090" lon="2.0365030">
        <ele>551.9</ele>
        <time>2022-09-26T09:17:50Z</time>
      </trkpt>
      <trkpt lat="41.7294540" lon="2.0364740">
        <ele>551.8</ele>
        <time>2022-09-26T09:17:51Z</time>
      </trkpt>
      <trkpt lat="41.7295000" lon="2.0364400">
        <ele>551.6</ele>
        <time>2022-09-26T09:17:52Z</time>
      </trkpt>
      <trkpt lat="41.7295450" lon="2.0364060">
        <ele>551.4</ele>
        <time>2022-09-26T09:17:53Z</time>
      </trkpt>
      <trkpt lat="41.7295900" lon="2.0363710">
        <ele>551.3</ele>
        <time>2022-09-26T09:17:54Z</time>
      </trkpt>
      <trkpt lat="41.7296360" lon="2.0363410">
        <ele>551.1</ele>
        <time>2022-09-26T09:17:55Z</time>
      </trkpt>
      <trkpt lat="41.7296840" lon="2.0363080">
        <ele>550.9</ele>
        <time>2022-09-26T09:17:56Z</time>
      </trkpt>
      <trkpt lat="41.7297320" lon="2.0362770">
        <ele>550.8</ele>
        <time>2022-09-26T09:17:57Z</time>
      </trkpt>
      <trkpt lat="41.7297800" lon="2.0362490">
        <ele>550.6</ele>
        <time>2022-09-26T09:17:58Z</time>
      </trkpt>
      <trkpt lat="41.7298250" lon="2.0362190">
        <ele>550.4</ele>
        <time>2022-09-26T09:17:59Z</time>
      </trkpt>
      <trkpt lat="41.7298760" lon="2.0361930">
        <ele>550.2</ele>
        <time>2022-09-26T09:18:00Z</time>
      </trkpt>
      <trkpt lat="41.7299260" lon="2.0361550">
        <ele>550.0</ele>
        <time>2022-09-26T09:18:01Z</time>
      </trkpt>
      <trkpt lat="41.7299700" lon="2.0361140">
        <ele>549.8</ele>
        <time>2022-09-26T09:18:02Z</time>
      </trkpt>
      <trkpt lat="41.7300120" lon="2.0360660">
        <ele>549.6</ele>
        <time>2022-09-26T09:18:03Z</time>
      </trkpt>
      <trkpt lat="41.7300520" lon="2.0360070">
        <ele>549.3</ele>
        <time>2022-09-26T09:18:04Z</time>
      </trkpt>
      <trkpt lat="41.7300880" lon="2.0359450">
        <ele>549.0</ele>
        <time>2022-09-26T09:18:05Z</time>
      </trkpt>
      <trkpt lat="41.7301210" lon="2.0358820">
        <ele>548.8</ele>
        <time>2022-09-26T09:18:06Z</time>
      </trkpt>
      <trkpt lat="41.7301540" lon="2.0358230">
        <ele>548.5</ele>
        <time>2022-09-26T09:18:07Z</time>
      </trkpt>
      <trkpt lat="41.7301910" lon="2.0357620">
        <ele>548.2</ele>
        <time>2022-09-26T09:18:08Z</time>
      </trkpt>
      <trkpt lat="41.7302290" lon="2.0357030">
        <ele>548.0</ele>
        <time>2022-09-26T09:18:09Z</time>
      </trkpt>
      <trkpt lat="41.7302750" lon="2.0356490">
        <ele>547.7</ele>
        <time>2022-09-26T09:18:10Z</time>
      </trkpt>
      <trkpt lat="41.7303220" lon="2.0355960">
        <ele>547.5</ele>
        <time>2022-09-26T09:18:11Z</time>
      </trkpt>
      <trkpt lat="41.7303680" lon="2.0355490">
        <ele>547.2</ele>
        <time>2022-09-26T09:18:12Z</time>
      </trkpt>
      <trkpt lat="41.7304220" lon="2.0355070">
        <ele>547.0</ele>
        <time>2022-09-26T09:18:13Z</time>
      </trkpt>
      <trkpt lat="41.7304750" lon="2.0354680">
        <ele>546.7</ele>
        <time>2022-09-26T09:18:14Z</time>
      </trkpt>
      <trkpt lat="41.7305300" lon="2.0354440">
        <ele>546.5</ele>
        <time>2022-09-26T09:18:15Z</time>
      </trkpt>
      <trkpt lat="41.7305910" lon="2.0354290">
        <ele>546.2</ele>
        <time>2022-09-26T09:18:16Z</time>
      </trkpt>
      <trkpt lat="41.7306570" lon="2.0354110">
        <ele>546.0</ele>
        <time>2022-09-26T09:18:17Z</time>
      </trkpt>
      <trkpt lat="41.7307200" lon="2.0353900">
        <ele>545.7</ele>
        <time>2022-09-26T09:18:18Z</time>
      </trkpt>
      <trkpt lat="41.7307820" lon="2.0353590">
        <ele>545.5</ele>
        <time>2022-09-26T09:18:19Z</time>
      </trkpt>
      <trkpt lat="41.7308390" lon="2.0353180">
        <ele>545.3</ele>
        <time>2022-09-26T09:18:20Z</time>
      </trkpt>
      <trkpt lat="41.7308920" lon="2.0352690">
        <ele>545.0</ele>
        <time>2022-09-26T09:18:21Z</time>
      </trkpt>
      <trkpt lat="41.7309410" lon="2.0352060">
        <ele>544.9</ele>
        <time>2022-09-26T09:18:22Z</time>
      </trkpt>
      <trkpt lat="41.7309840" lon="2.0351340">
        <ele>544.7</ele>
        <time>2022-09-26T09:18:23Z</time>
      </trkpt>
      <trkpt lat="41.7310240" lon="2.0350620">
        <ele>544.5</ele>
        <time>2022-09-26T09:18:24Z</time>
      </trkpt>
      <trkpt lat="41.7310610" lon="2.0349940">
        <ele>544.3</ele>
        <time>2022-09-26T09:18:25Z</time>
      </trkpt>
      <trkpt lat="41.7310970" lon="2.0349230">
        <ele>544.1</ele>
        <time>2022-09-26T09:18:26Z</time>
      </trkpt>
      <trkpt lat="41.7311310" lon="2.0348590">
        <ele>544.0</ele>
        <time>2022-09-26T09:18:27Z</time>
      </trkpt>
      <trkpt lat="41.7311670" lon="2.0347930">
        <ele>543.8</ele>
        <time>2022-09-26T09:18:28Z</time>
      </trkpt>
      <trkpt lat="41.7312050" lon="2.0347260">
        <ele>543.6</ele>
        <time>2022-09-26T09:18:29Z</time>
      </trkpt>
      <trkpt lat="41.7312470" lon="2.0346650">
        <ele>543.4</ele>
        <time>2022-09-26T09:18:30Z</time>
      </trkpt>
      <trkpt lat="41.7312930" lon="2.0346130">
        <ele>543.2</ele>
        <time>2022-09-26T09:18:31Z</time>
      </trkpt>
      <trkpt lat="41.7313430" lon="2.0345680">
        <ele>543.0</ele>
        <time>2022-09-26T09:18:32Z</time>
      </trkpt>
      <trkpt lat="41.7313940" lon="2.0345310">
        <ele>542.8</ele>
        <time>2022-09-26T09:18:33Z</time>
      </trkpt>
      <trkpt lat="41.7314450" lon="2.0344900">
        <ele>542.7</ele>
        <time>2022-09-26T09:18:34Z</time>
      </trkpt>
      <trkpt lat="41.7314920" lon="2.0344450">
        <ele>542.5</ele>
        <time>2022-09-26T09:18:35Z</time>
      </trkpt>
      <trkpt lat="41.7315400" lon="2.0344020">
        <ele>542.3</ele>
        <time>2022-09-26T09:18:36Z</time>
      </trkpt>
      <trkpt lat="41.7315900" lon="2.0343580">
        <ele>542.2</ele>
        <time>2022-09-26T09:18:37Z</time>
      </trkpt>
      <trkpt lat="41.7316410" lon="2.0343130">
        <ele>542.1</ele>
        <time>2022-09-26T09:18:38Z</time>
      </trkpt>
      <trkpt lat="41.7316950" lon="2.0342730">
        <ele>541.9</ele>
        <time>2022-09-26T09:18:39Z</time>
      </trkpt>
      <trkpt lat="41.7317520" lon="2.0342370">
        <ele>541.8</ele>
        <time>2022-09-26T09:18:40Z</time>
      </trkpt>
      <trkpt lat="41.7318070" lon="2.0342030">
        <ele>541.7</ele>
        <time>2022-09-26T09:18:41Z</time>
      </trkpt>
      <trkpt lat="41.7318580" lon="2.0341700">
        <ele>541.6</ele>
        <time>2022-09-26T09:18:42Z</time>
      </trkpt>
      <trkpt lat="41.7319150" lon="2.0341410">
        <ele>541.5</ele>
        <time>2022-09-26T09:18:43Z</time>
      </trkpt>
      <trkpt lat="41.7319750" lon="2.0341190">
        <ele>541.4</ele>
        <time>2022-09-26T09:18:44Z</time>
      </trkpt>
      <trkpt lat="41.7320360" lon="2.0341060">
        <ele>541.3</ele>
        <time>2022-09-26T09:18:45Z</time>
      </trkpt>
      <trkpt lat="41.7320980" lon="2.0340950">
        <ele>541.2</ele>
        <time>2022-09-26T09:18:46Z</time>
      </trkpt>
      <trkpt lat="41.7321620" lon="2.0340970">
        <ele>541.2</ele>
        <time>2022-09-26T09:18:47Z</time>
      </trkpt>
      <trkpt lat="41.7322220" lon="2.0341090">
        <ele>541.1</ele>
        <time>2022-09-26T09:18:48Z</time>
      </trkpt>
      <trkpt lat="41.7322760" lon="2.0341330">
        <ele>541.1</ele>
        <time>2022-09-26T09:18:49Z</time>
      </trkpt>
      <trkpt lat="41.7323290" lon="2.0341680">
        <ele>541.1</ele>
        <time>2022-09-26T09:18:50Z</time>
      </trkpt>
      <trkpt lat="41.7323780" lon="2.0342100">
        <ele>541.1</ele>
        <time>2022-09-26T09:18:51Z</time>
      </trkpt>
      <trkpt lat="41.7324210" lon="2.0342600">
        <ele>541.0</ele>
        <time>2022-09-26T09:18:52Z</time>
      </trkpt>
      <trkpt lat="41.7324660" lon="2.0343100">
        <ele>541.0</ele>
        <time>2022-09-26T09:18:53Z</time>
      </trkpt>
      <trkpt lat="41.7325140" lon="2.0343600">
        <ele>541.0</ele>
        <time>2022-09-26T09:18:54Z</time>
      </trkpt>
      <trkpt lat="41.7325580" lon="2.0344070">
        <ele>541.0</ele>
        <time>2022-09-26T09:18:55Z</time>
      </trkpt>
      <trkpt lat="41.7326110" lon="2.0344460">
        <ele>540.9</ele>
        <time>2022-09-26T09:18:56Z</time>
      </trkpt>
      <trkpt lat="41.7326630" lon="2.0344780">
        <ele>540.9</ele>
        <time>2022-09-26T09:18:57Z</time>
      </trkpt>
      <trkpt lat="41.7327200" lon="2.0345000">
        <ele>540.9</ele>
        <time>2022-09-26T09:18:58Z</time>
      </trkpt>
      <trkpt lat="41.7327770" lon="2.0345170">
        <ele>540.8</ele>
        <time>2022-09-26T09:18:59Z</time>
      </trkpt>
      <trkpt lat="41.7328310" lon="2.0345290">
        <ele>540.8</ele>
        <time>2022-09-26T09:19:00Z</time>
      </trkpt>
      <trkpt lat="41.7328830" lon="2.0345440">
        <ele>540.8</ele>
        <time>2022-09-26T09:19:01Z</time>
      </trkpt>
      <trkpt lat="41.7329330" lon="2.0345680">
        <ele>540.8</ele>
        <time>2022-09-26T09:19:02Z</time>
      </trkpt>
      <trkpt lat="41.7329800" lon="2.0346010">
        <ele>540.8</ele>
        <time>2022-09-26T09:19:03Z</time>
      </trkpt>
      <trkpt lat="41.7330240" lon="2.0346400">
        <ele>540.7</ele>
        <time>2022-09-26T09:19:04Z</time>
      </trkpt>
      <trkpt lat="41.7330640" lon="2.0346810">
        <ele>540.7</ele>
        <time>2022-09-26T09:19:05Z</time>
      </trkpt>
      <trkpt lat="41.7331030" lon="2.0347270">
        <ele>540.7</ele>
        <time>2022-09-26T09:19:06Z</time>
      </trkpt>
      <trkpt lat="41.7331430" lon="2.0347710">
        <ele>540.7</ele>
        <time>2022-09-26T09:19:07Z</time>
      </trkpt>
      <trkpt lat="41.7331850" lon="2.0348090">
        <ele>540.6</ele>
        <time>2022-09-26T09:19:08Z</time>
      </trkpt>
      <trkpt lat="41.7332300" lon="2.0348430">
        <ele>540.6</ele>
        <time>2022-09-26T09:19:09Z</time>
      </trkpt>
      <trkpt lat="41.7332770" lon="2.0348660">
        <ele>540.6</ele>
        <time>2022-09-26T09:19:10Z</time>
      </trkpt>
      <trkpt lat="41.7333310" lon="2.0348760">
        <ele>540.5</ele>
        <time>2022-09-26T09:19:11Z</time>
      </trkpt>
      <trkpt lat="41.7333810" lon="2.0348790">
        <ele>540.4</ele>
        <time>2022-09-26T09:19:12Z</time>
      </trkpt>
      <trkpt lat="41.7334360" lon="2.0348690">
        <ele>540.4</ele>
        <time>2022-09-26T09:19:13Z</time>
      </trkpt>
      <trkpt lat="41.7334860" lon="2.0348490">
        <ele>540.3</ele>
        <time>2022-09-26T09:19:14Z</time>
      </trkpt>
      <trkpt lat="41.7335310" lon="2.0348170">
        <ele>540.2</ele>
        <time>2022-09-26T09:19:15Z</time>
      </trkpt>
      <trkpt lat="41.7335730" lon="2.0347790">
        <ele>540.1</ele>
        <time>2022-09-26T09:19:16Z</time>
      </trkpt>
      <trkpt lat="41.7336140" lon="2.0347390">
        <ele>540.0</ele>
        <time>2022-09-26T09:19:17Z</time>
      </trkpt>
      <trkpt lat="41.7336520" lon="2.0346970">
        <ele>539.9</ele>
        <time>2022-09-26T09:19:18Z</time>
      </trkpt>
      <trkpt lat="41.7336900" lon="2.0346520">
        <ele>539.7</ele>
        <time>2022-09-26T09:19:19Z</time>
      </trkpt>
      <trkpt lat="41.7337280" lon="2.0346060">
        <ele>539.5</ele>
        <time>2022-09-26T09:19:20Z</time>
      </trkpt>
      <trkpt lat="41.7337670" lon="2.0345530">
        <ele>539.3</ele>
        <time>2022-09-26T09:19:21Z</time>
      </trkpt>
      <trkpt lat="41.7338080" lon="2.0344980">
        <ele>539.1</ele>
        <time>2022-09-26T09:19:22Z</time>
      </trkpt>
      <trkpt lat="41.7338480" lon="2.0344430">
        <ele>538.8</ele>
        <time>2022-09-26T09:19:23Z</time>
      </trkpt>
      <trkpt lat="41.7338920" lon="2.0343890">
        <ele>538.5</ele>
        <time>2022-09-26T09:19:24Z</time>
      </trkpt>
      <trkpt lat="41.7339410" lon="2.0343350">
        <ele>538.2</ele>
        <time>2022-09-26T09:19:25Z</time>
      </trkpt>
      <trkpt lat="41.7339900" lon="2.0342850">
        <ele>537.9</ele>
        <time>2022-09-26T09:19:26Z</time>
      </trkpt>
      <trkpt lat="41.7340450" lon="2.0342430">
        <ele>537.6</ele>
        <time>2022-09-26T09:19:27Z</time>
      </trkpt>
      <trkpt lat="41.7341110" lon="2.0342020">
        <ele>537.2</ele>
        <time>2022-09-26T09:19:28Z</time>
      </trkpt>
      <trkpt lat="41.7341740" lon="2.0341640">
        <ele>536.9</ele>
        <time>2022-09-26T09:19:29Z</time>
      </trkpt>
      <trkpt lat="41.7342400" lon="2.0341280">
        <ele>536.5</ele>
        <time>2022-09-26T09:19:30Z</time>
      </trkpt>
      <trkpt lat="41.7343080" lon="2.0340870">
        <ele>536.2</ele>
        <time>2022-09-26T09:19:31Z</time>
      </trkpt>
      <trkpt lat="41.7343730" lon="2.0340410">
        <ele>535.9</ele>
        <time>2022-09-26T09:19:32Z</time>
      </trkpt>
      <trkpt lat="41.7344350" lon="2.0339890">
        <ele>535.6</ele>
        <time>2022-09-26T09:19:33Z</time>
      </trkpt>
      <trkpt lat="41.7344950" lon="2.0339330">
        <ele>535.3</ele>
        <time>2022-09-26T09:19:34Z</time>
      </trkpt>
      <trkpt lat="41.7345590" lon="2.0338810">
        <ele>535.1</ele>
        <time>2022-09-26T09:19:35Z</time>
      </trkpt>
      <trkpt lat="41.7346240" lon="2.0338340">
        <ele>534.9</ele>
        <time>2022-09-26T09:19:36Z</time>
      </trkpt>
      <trkpt lat="41.7346910" lon="2.0337900">
        <ele>534.6</ele>
        <time>2022-09-26T09:19:37Z</time>
      </trkpt>
      <trkpt lat="41.7347600" lon="2.0337450">
        <ele>534.4</ele>
        <time>2022-09-26T09:19:38Z</time>
      </trkpt>
      <trkpt lat="41.7348280" lon="2.0337010">
        <ele>534.3</ele>
        <time>2022-09-26T09:19:39Z</time>
      </trkpt>
      <trkpt lat="41.7348930" lon="2.0336600">
        <ele>534.2</ele>
        <time>2022-09-26T09:19:40Z</time>
      </trkpt>
      <trkpt lat="41.7349540" lon="2.0336180">
        <ele>534.1</ele>
        <time>2022-09-26T09:19:41Z</time>
      </trkpt>
      <trkpt lat="41.7350130" lon="2.0335820">
        <ele>534.1</ele>
        <time>2022-09-26T09:19:42Z</time>
      </trkpt>
      <trkpt lat="41.7350740" lon="2.0335430">
        <ele>534.0</ele>
        <time>2022-09-26T09:19:43Z</time>
      </trkpt>
      <trkpt lat="41.7351340" lon="2.0334980">
        <ele>533.9</ele>
        <time>2022-09-26T09:19:44Z</time>
      </trkpt>
      <trkpt lat="41.7351890" lon="2.0334520">
        <ele>533.8</ele>
        <time>2022-09-26T09:19:45Z</time>
      </trkpt>
      <trkpt lat="41.7352370" lon="2.0333960">
        <ele>533.7</ele>
        <time>2022-09-26T09:19:46Z</time>
      </trkpt>
      <trkpt lat="41.7352720" lon="2.0333350">
        <ele>533.6</ele>
        <time>2022-09-26T09:19:47Z</time>
      </trkpt>
      <trkpt lat="41.7352980" lon="2.0332640">
        <ele>533.5</ele>
        <time>2022-09-26T09:19:48Z</time>
      </trkpt>
      <trkpt lat="41.7353210" lon="2.0331840">
        <ele>533.4</ele>
        <time>2022-09-26T09:19:49Z</time>
      </trkpt>
      <trkpt lat="41.7353460" lon="2.0331030">
        <ele>533.3</ele>
        <time>2022-09-26T09:19:50Z</time>
      </trkpt>
      <trkpt lat="41.7353700" lon="2.0330200">
        <ele>533.2</ele>
        <time>2022-09-26T09:19:51Z</time>
      </trkpt>
      <trkpt lat="41.7353930" lon="2.0329440">
        <ele>533.1</ele>
        <time>2022-09-26T09:19:52Z</time>
      </trkpt>
      <trkpt lat="41.7354160" lon="2.0328720">
        <ele>532.9</ele>
        <time>2022-09-26T09:19:53Z</time>
      </trkpt>
      <trkpt lat="41.7354360" lon="2.0327970">
        <ele>532.8</ele>
        <time>2022-09-26T09:19:54Z</time>
      </trkpt>
      <trkpt lat="41.7354530" lon="2.0327220">
        <ele>532.5</ele>
        <time>2022-09-26T09:19:55Z</time>
      </trkpt>
      <trkpt lat="41.7354740" lon="2.0326470">
        <ele>532.3</ele>
        <time>2022-09-26T09:19:56Z</time>
      </trkpt>
      <trkpt lat="41.7354980" lon="2.0325710">
        <ele>532.0</ele>
        <time>2022-09-26T09:19:57Z</time>
      </trkpt>
      <trkpt lat="41.7355220" lon="2.0324880">
        <ele>531.6</ele>
        <time>2022-09-26T09:19:58Z</time>
      </trkpt>
      <trkpt lat="41.7355440" lon="2.0324000">
        <ele>531.3</ele>
        <time>2022-09-26T09:19:59Z</time>
      </trkpt>
      <trkpt lat="41.7355690" lon="2.0323210">
        <ele>531.0</ele>
        <time>2022-09-26T09:20:00Z</time>
      </trkpt>
      <trkpt lat="41.7355990" lon="2.0322410">
        <ele>530.6</ele>
        <time>2022-09-26T09:20:01Z</time>
      </trkpt>
      <trkpt lat="41.7356360" lon="2.0321620">
        <ele>530.3</ele>
        <time>2022-09-26T09:20:02Z</time>
      </trkpt>
      <trkpt lat="41.7356820" lon="2.0320890">
        <ele>529.9</ele>
        <time>2022-09-26T09:20:03Z</time>
      </trkpt>
      <trkpt lat="41.7357280" lon="2.0320190">
        <ele>529.6</ele>
        <time>2022-09-26T09:20:04Z</time>
      </trkpt>
      <trkpt lat="41.7357780" lon="2.0319450">
        <ele>529.3</ele>
        <time>2022-09-26T09:20:05Z</time>
      </trkpt>
      <trkpt lat="41.7358220" lon="2.0318670">
        <ele>528.9</ele>
        <time>2022-09-26T09:20:06Z</time>
      </trkpt>
      <trkpt lat="41.7358570" lon="2.0317910">
        <ele>528.6</ele>
        <time>2022-09-26T09:20:07Z</time>
      </trkpt>
      <trkpt lat="41.7358800" lon="2.0317080">
        <ele>528.2</ele>
        <time>2022-09-26T09:20:08Z</time>
      </trkpt>
      <trkpt lat="41.7358910" lon="2.0316230">
        <ele>527.9</ele>
        <time>2022-09-26T09:20:09Z</time>
      </trkpt>
      <trkpt lat="41.7358910" lon="2.0315360">
        <ele>527.6</ele>
        <time>2022-09-26T09:20:10Z</time>
      </trkpt>
      <trkpt lat="41.7358860" lon="2.0314520">
        <ele>527.2</ele>
        <time>2022-09-26T09:20:11Z</time>
      </trkpt>
      <trkpt lat="41.7358820" lon="2.0313640">
        <ele>527.0</ele>
        <time>2022-09-26T09:20:12Z</time>
      </trkpt>
      <trkpt lat="41.7358790" lon="2.0312790">
        <ele>526.7</ele>
        <time>2022-09-26T09:20:13Z</time>
      </trkpt>
      <trkpt lat="41.7358750" lon="2.0311930">
        <ele>526.5</ele>
        <time>2022-09-26T09:20:14Z</time>
      </trkpt>
      <trkpt lat="41.7358750" lon="2.0311110">
        <ele>526.3</ele>
        <time>2022-09-26T09:20:15Z</time>
      </trkpt>
      <trkpt lat="41.7358760" lon="2.0310210">
        <ele>526.2</ele>
        <time>2022-09-26T09:20:16Z</time>
      </trkpt>
      <trkpt lat="41.7358740" lon="2.0309410">
        <ele>526.0</ele>
        <time>2022-09-26T09:20:17Z</time>
      </trkpt>
      <trkpt lat="41.7358700" lon="2.0308620">
        <ele>525.9</ele>
        <time>2022-09-26T09:20:18Z</time>
      </trkpt>
      <trkpt lat="41.7358660" lon="2.0307860">
        <ele>525.8</ele>
        <time>2022-09-26T09:20:19Z</time>
      </trkpt>
      <trkpt lat="41.7358600" lon="2.0307090">
        <ele>525.7</ele>
        <time>2022-09-26T09:20:20Z</time>
      </trkpt>
      <trkpt lat="41.7358530" lon="2.0306290">
        <ele>525.6</ele>
        <time>2022-09-26T09:20:21Z</time>
      </trkpt>
      <trkpt lat="41.7358440" lon="2.0305470">
        <ele>525.5</ele>
        <time>2022-09-26T09:20:22Z</time>
      </trkpt>
      <trkpt lat="41.7358350" lon="2.0304680">
        <ele>525.5</ele>
        <time>2022-09-26T09:20:23Z</time>
      </trkpt>
      <trkpt lat="41.7358230" lon="2.0303930">
        <ele>525.4</ele>
        <time>2022-09-26T09:20:24Z</time>
      </trkpt>
      <trkpt lat="41.7358110" lon="2.0303190">
        <ele>525.4</ele>
        <time>2022-09-26T09:20:25Z</time>
      </trkpt>
      <trkpt lat="41.7357990" lon="2.0302450">
        <ele>525.3</ele>
        <time>2022-09-26T09:20:26Z</time>
      </trkpt>
      <trkpt lat="41.7357860" lon="2.0301740">
        <ele>525.2</ele>
        <time>2022-09-26T09:20:27Z</time>
      </trkpt>
      <trkpt lat="41.7357700" lon="2.0301060">
        <ele>525.2</ele>
        <time>2022-09-26T09:20:28Z</time>
      </trkpt>
      <trkpt lat="41.7357480" lon="2.0300370">
        <ele>525.1</ele>
        <time>2022-09-26T09:20:29Z</time>
      </trkpt>
      <trkpt lat="41.7357240" lon="2.0299680">
        <ele>525.0</ele>
        <time>2022-09-26T09:20:30Z</time>
      </trkpt>
      <trkpt lat="41.7356980" lon="2.0299020">
        <ele>524.9</ele>
        <time>2022-09-26T09:20:31Z</time>
      </trkpt>
      <trkpt lat="41.7356710" lon="2.0298380">
        <ele>524.8</ele>
        <time>2022-09-26T09:20:32Z</time>
      </trkpt>
      <trkpt lat="41.7356410" lon="2.0297790">
        <ele>524.8</ele>
        <time>2022-09-26T09:20:33Z</time>
      </trkpt>
      <trkpt lat="41.7355840" lon="2.0296580">
        <ele>524.6</ele>
        <time>2022-09-26T09:20:35Z</time>
      </trkpt>
      <trkpt lat="41.7355590" lon="2.0295970">
        <ele>524.5</ele>
        <time>2022-09-26T09:20:36Z</time>
      </trkpt>
      <trkpt lat="41.7355390" lon="2.0295330">
        <ele>524.4</ele>
        <time>2022-09-26T09:20:37Z</time>
      </trkpt>
      <trkpt lat="41.7355190" lon="2.0294680">
        <ele>524.3</ele>
        <time>2022-09-26T09:20:38Z</time>
      </trkpt>
      <trkpt lat="41.7354940" lon="2.0294010">
        <ele>524.1</ele>
        <time>2022-09-26T09:20:39Z</time>
      </trkpt>
      <trkpt lat="41.7354580" lon="2.0293350">
        <ele>524.0</ele>
        <time>2022-09-26T09:20:40Z</time>
      </trkpt>
      <trkpt lat="41.7354070" lon="2.0292790">
        <ele>523.9</ele>
        <time>2022-09-26T09:20:41Z</time>
      </trkpt>
      <trkpt lat="41.7353470" lon="2.0292410">
        <ele>523.8</ele>
        <time>2022-09-26T09:20:42Z</time>
      </trkpt>
      <trkpt lat="41.7352860" lon="2.0292120">
        <ele>523.7</ele>
        <time>2022-09-26T09:20:43Z</time>
      </trkpt>
      <trkpt lat="41.7352300" lon="2.0291770">
        <ele>523.7</ele>
        <time>2022-09-26T09:20:44Z</time>
      </trkpt>
      <trkpt lat="41.7351880" lon="2.0291260">
        <ele>523.8</ele>
        <time>2022-09-26T09:20:45Z</time>
      </trkpt>
      <trkpt lat="41.7351610" lon="2.0290600">
        <ele>523.9</ele>
        <time>2022-09-26T09:20:46Z</time>
      </trkpt>
      <trkpt lat="41.7351440" lon="2.0289910">
        <ele>524.0</ele>
        <time>2022-09-26T09:20:47Z</time>
      </trkpt>
      <trkpt lat="41.7351320" lon="2.0289250">
        <ele>524.1</ele>
        <time>2022-09-26T09:20:48Z</time>
      </trkpt>
      <trkpt lat="41.7351300" lon="2.0288790">
        <ele>524.2</ele>
        <time>2022-09-26T09:20:49Z</time>
      </trkpt>
      <trkpt lat="41.7351200" lon="2.0288200">
        <ele>524.4</ele>
        <time>2022-09-26T09:20:50Z</time>
      </trkpt>
      <trkpt lat="41.7351130" lon="2.0287750">
        <ele>524.5</ele>
        <time>2022-09-26T09:20:51Z</time>
      </trkpt>
      <trkpt lat="41.7351030" lon="2.0287290">
        <ele>524.7</ele>
        <time>2022-09-26T09:20:52Z</time>
      </trkpt>
      <trkpt lat="41.7350930" lon="2.0286780">
        <ele>524.8</ele>
        <time>2022-09-26T09:20:53Z</time>
      </trkpt>
      <trkpt lat="41.7350920" lon="2.0286360">
        <ele>524.9</ele>
        <time>2022-09-26T09:20:54Z</time>
      </trkpt>
      <trkpt lat="41.7350920" lon="2.0285890">
        <ele>525.1</ele>
        <time>2022-09-26T09:20:55Z</time>
      </trkpt>
      <trkpt lat="41.7350920" lon="2.0285410">
        <ele>525.2</ele>
        <time>2022-09-26T09:20:56Z</time>
      </trkpt>
      <trkpt lat="41.7350940" lon="2.0284840">
        <ele>525.4</ele>
        <time>2022-09-26T09:20:57Z</time>
      </trkpt>
      <trkpt lat="41.7350980" lon="2.0284390">
        <ele>525.5</ele>
        <time>2022-09-26T09:20:58Z</time>
      </trkpt>
      <trkpt lat="41.7351030" lon="2.0283920">
        <ele>525.6</ele>
        <time>2022-09-26T09:20:59Z</time>
      </trkpt>
      <trkpt lat="41.7351090" lon="2.0283470">
        <ele>525.7</ele>
        <time>2022-09-26T09:21:00Z</time>
      </trkpt>
      <trkpt lat="41.7351150" lon="2.0283060">
        <ele>525.9</ele>
        <time>2022-09-26T09:21:01Z</time>
      </trkpt>
      <trkpt lat="41.7351210" lon="2.0282580">
        <ele>526.0</ele>
        <time>2022-09-26T09:21:02Z</time>
      </trkpt>
      <trkpt lat="41.7351270" lon="2.0282160">
        <ele>526.1</ele>
        <time>2022-09-26T09:21:03Z</time>
      </trkpt>
      <trkpt lat="41.7351320" lon="2.0281730">
        <ele>526.3</ele>
        <time>2022-09-26T09:21:04Z</time>
      </trkpt>
      <trkpt lat="41.7351380" lon="2.0280970">
        <ele>526.5</ele>
        <time>2022-09-26T09:21:06Z</time>
      </trkpt>
      <trkpt lat="41.7351420" lon="2.0280590">
        <ele>526.6</ele>
        <time>2022-09-26T09:21:07Z</time>
      </trkpt>
      <trkpt lat="41.7351490" lon="2.0280210">
        <ele>526.7</ele>
        <time>2022-09-26T09:21:08Z</time>
      </trkpt>
      <trkpt lat="41.7351600" lon="2.0279830">
        <ele>526.8</ele>
        <time>2022-09-26T09:21:09Z</time>
      </trkpt>
      <trkpt lat="41.7351760" lon="2.0279420">
        <ele>526.9</ele>
        <time>2022-09-26T09:21:10Z</time>
      </trkpt>
      <trkpt lat="41.7351940" lon="2.0279120">
        <ele>527.0</ele>
        <time>2022-09-26T09:21:11Z</time>
      </trkpt>
      <trkpt lat="41.7352140" lon="2.0278790">
        <ele>527.0</ele>
        <time>2022-09-26T09:21:12Z</time>
      </trkpt>
      <trkpt lat="41.7352370" lon="2.0278450">
        <ele>527.0</ele>
        <time>2022-09-26T09:21:13Z</time>
      </trkpt>
      <trkpt lat="41.7352670" lon="2.0278110">
        <ele>527.1</ele>
        <time>2022-09-26T09:21:14Z</time>
      </trkpt>
      <trkpt lat="41.7352970" lon="2.0277890">
        <ele>527.0</ele>
        <time>2022-09-26T09:21:15Z</time>
      </trkpt>
      <trkpt lat="41.7353290" lon="2.0277720">
        <ele>527.0</ele>
        <time>2022-09-26T09:21:16Z</time>
      </trkpt>
      <trkpt lat="41.7353670" lon="2.0277540">
        <ele>526.9</ele>
        <time>2022-09-26T09:21:17Z</time>
      </trkpt>
      <trkpt lat="41.7354000" lon="2.0277380">
        <ele>526.9</ele>
        <time>2022-09-26T09:21:18Z</time>
      </trkpt>
      <trkpt lat="41.7354400" lon="2.0277160">
        <ele>526.8</ele>
        <time>2022-09-26T09:21:19Z</time>
      </trkpt>
      <trkpt lat="41.7354760" lon="2.0276960">
        <ele>526.7</ele>
        <time>2022-09-26T09:21:20Z</time>
      </trkpt>
      <trkpt lat="41.7355040" lon="2.0276790">
        <ele>526.5</ele>
        <time>2022-09-26T09:21:21Z</time>
      </trkpt>
      <trkpt lat="41.7355340" lon="2.0276620">
        <ele>526.4</ele>
        <time>2022-09-26T09:21:22Z</time>
      </trkpt>
      <trkpt lat="41.7355650" lon="2.0276430">
        <ele>526.3</ele>
        <time>2022-09-26T09:21:23Z</time>
      </trkpt>
      <trkpt lat="41.7356030" lon="2.0276230">
        <ele>526.1</ele>
        <time>2022-09-26T09:21:24Z</time>
      </trkpt>
      <trkpt lat="41.7356400" lon="2.0276060">
        <ele>525.9</ele>
        <time>2022-09-26T09:21:25Z</time>
      </trkpt>
      <trkpt lat="41.7356800" lon="2.0275880">
        <ele>525.7</ele>
        <time>2022-09-26T09:21:26Z</time>
      </trkpt>
      <trkpt lat="41.7357170" lon="2.0275710">
        <ele>525.5</ele>
        <time>2022-09-26T09:21:27Z</time>
      </trkpt>
      <trkpt lat="41.7357680" lon="2.0275480">
        <ele>525.2</ele>
        <time>2022-09-26T09:21:28Z</time>
      </trkpt>
      <trkpt lat="41.7358190" lon="2.0275210">
        <ele>524.8</ele>
        <time>2022-09-26T09:21:29Z</time>
      </trkpt>
      <trkpt lat="41.7358680" lon="2.0274900">
        <ele>524.5</ele>
        <time>2022-09-26T09:21:30Z</time>
      </trkpt>
      <trkpt lat="41.7359140" lon="2.0274550">
        <ele>524.1</ele>
        <time>2022-09-26T09:21:31Z</time>
      </trkpt>
      <trkpt lat="41.7359470" lon="2.0274090">
        <ele>523.8</ele>
        <time>2022-09-26T09:21:32Z</time>
      </trkpt>
      <trkpt lat="41.7359550" lon="2.0273500">
        <ele>523.4</ele>
        <time>2022-09-26T09:21:33Z</time>
      </trkpt>
      <trkpt lat="41.7359570" lon="2.0272900">
        <ele>523.0</ele>
        <time>2022-09-26T09:21:34Z</time>
      </trkpt>
      <trkpt lat="41.7359490" lon="2.0272260">
        <ele>522.7</ele>
        <time>2022-09-26T09:21:35Z</time>
      </trkpt>
      <trkpt lat="41.7359330" lon="2.0271610">
        <ele>522.3</ele>
        <time>2022-09-26T09:21:36Z</time>
      </trkpt>
      <trkpt lat="41.7359140" lon="2.0270900">
        <ele>521.9</ele>
        <time>2022-09-26T09:21:37Z</time>
      </trkpt>
      <trkpt lat="41.7358940" lon="2.0270150">
        <ele>521.6</ele>
        <time>2022-09-26T09:21:38Z</time>
      </trkpt>
      <trkpt lat="41.7358720" lon="2.0269350">
        <ele>521.3</ele>
        <time>2022-09-26T09:21:39Z</time>
      </trkpt>
      <trkpt lat="41.7358460" lon="2.0268530">
        <ele>521.0</ele>
        <time>2022-09-26T09:21:40Z</time>
      </trkpt>
      <trkpt lat="41.7358220" lon="2.0267700">
        <ele>520.9</ele>
        <time>2022-09-26T09:21:41Z</time>
      </trkpt>
      <trkpt lat="41.7357990" lon="2.0266890">
        <ele>520.7</ele>
        <time>2022-09-26T09:21:42Z</time>
      </trkpt>
      <trkpt lat="41.7357790" lon="2.0266110">
        <ele>520.6</ele>
        <time>2022-09-26T09:21:43Z</time>
      </trkpt>
      <trkpt lat="41.7357610" lon="2.0265350">
        <ele>520.6</ele>
        <time>2022-09-26T09:21:44Z</time>
      </trkpt>
      <trkpt lat="41.7357460" lon="2.0264620">
        <ele>520.5</ele>
        <time>2022-09-26T09:21:45Z</time>
      </trkpt>
      <trkpt lat="41.7357330" lon="2.0263900">
        <ele>520.5</ele>
        <time>2022-09-26T09:21:46Z</time>
      </trkpt>
      <trkpt lat="41.7357210" lon="2.0263220">
        <ele>520.5</ele>
        <time>2022-09-26T09:21:47Z</time>
      </trkpt>
      <trkpt lat="41.7357120" lon="2.0262540">
        <ele>520.5</ele>
        <time>2022-09-26T09:21:48Z</time>
      </trkpt>
      <trkpt lat="41.7357080" lon="2.0261880">
        <ele>520.5</ele>
        <time>2022-09-26T09:21:49Z</time>
      </trkpt>
      <trkpt lat="41.7357070" lon="2.0261250">
        <ele>520.5</ele>
        <time>2022-09-26T09:21:50Z</time>
      </trkpt>
      <trkpt lat="41.7357110" lon="2.0260740">
        <ele>520.5</ele>
        <time>2022-09-26T09:21:51Z</time>
      </trkpt>
      <trkpt lat="41.7357160" lon="2.0260230">
        <ele>520.4</ele>
        <time>2022-09-26T09:21:52Z</time>
      </trkpt>
      <trkpt lat="41.7357180" lon="2.0259630">
        <ele>520.4</ele>
        <time>2022-09-26T09:21:53Z</time>
      </trkpt>
      <trkpt lat="41.7357160" lon="2.0259250">
        <ele>520.3</ele>
        <time>2022-09-26T09:21:54Z</time>
      </trkpt>
      <trkpt lat="41.7357020" lon="2.0258750">
        <ele>520.2</ele>
        <time>2022-09-26T09:21:55Z</time>
      </trkpt>
      <trkpt lat="41.7356950" lon="2.0258590">
        <ele>520.2</ele>
        <time>2022-09-26T09:21:56Z</time>
      </trkpt>
      <trkpt lat="41.7356730" lon="2.0258290">
        <ele>520.1</ele>
        <time>2022-09-26T09:21:57Z</time>
      </trkpt>
      <trkpt lat="41.7356430" lon="2.0258020">
        <ele>519.9</ele>
        <time>2022-09-26T09:21:58Z</time>
      </trkpt>
      <trkpt lat="41.7356080" lon="2.0257850">
        <ele>519.7</ele>
        <time>2022-09-26T09:21:59Z</time>
      </trkpt>
      <trkpt lat="41.7355640" lon="2.0257790">
        <ele>519.5</ele>
        <time>2022-09-26T09:22:00Z</time>
      </trkpt>
      <trkpt lat="41.7355180" lon="2.0257770">
        <ele>519.2</ele>
        <time>2022-09-26T09:22:01Z</time>
      </trkpt>
      <trkpt lat="41.7354610" lon="2.0257720">
        <ele>518.9</ele>
        <time>2022-09-26T09:22:02Z</time>
      </trkpt>
      <trkpt lat="41.7354010" lon="2.0257690">
        <ele>518.6</ele>
        <time>2022-09-26T09:22:03Z</time>
      </trkpt>
      <trkpt lat="41.7353400" lon="2.0257670">
        <ele>518.4</ele>
        <time>2022-09-26T09:22:04Z</time>
      </trkpt>
      <trkpt lat="41.7352800" lon="2.0257630">
        <ele>518.2</ele>
        <time>2022-09-26T09:22:05Z</time>
      </trkpt>
      <trkpt lat="41.7352220" lon="2.0257550">
        <ele>518.0</ele>
        <time>2022-09-26T09:22:06Z</time>
      </trkpt>
      <trkpt lat="41.7351670" lon="2.0257420">
        <ele>517.9</ele>
        <time>2022-09-26T09:22:07Z</time>
      </trkpt>
      <trkpt lat="41.7351090" lon="2.0257220">
        <ele>517.9</ele>
        <time>2022-09-26T09:22:08Z</time>
      </trkpt>
      <trkpt lat="41.7350500" lon="2.0257020">
        <ele>517.8</ele>
        <time>2022-09-26T09:22:09Z</time>
      </trkpt>
      <trkpt lat="41.7349910" lon="2.0256780">
        <ele>517.8</ele>
        <time>2022-09-26T09:22:10Z</time>
      </trkpt>
      <trkpt lat="41.7349370" lon="2.0256520">
        <ele>517.8</ele>
        <time>2022-09-26T09:22:11Z</time>
      </trkpt>
      <trkpt lat="41.7348880" lon="2.0256210">
        <ele>517.8</ele>
        <time>2022-09-26T09:22:12Z</time>
      </trkpt>
      <trkpt lat="41.7348440" lon="2.0255840">
        <ele>517.8</ele>
        <time>2022-09-26T09:22:13Z</time>
      </trkpt>
      <trkpt lat="41.7348050" lon="2.0255400">
        <ele>517.8</ele>
        <time>2022-09-26T09:22:14Z</time>
      </trkpt>
      <trkpt lat="41.7347750" lon="2.0254950">
        <ele>517.9</ele>
        <time>2022-09-26T09:22:15Z</time>
      </trkpt>
      <trkpt lat="41.7347460" lon="2.0254480">
        <ele>517.9</ele>
        <time>2022-09-26T09:22:16Z</time>
      </trkpt>
      <trkpt lat="41.7347250" lon="2.0254060">
        <ele>517.9</ele>
        <time>2022-09-26T09:22:17Z</time>
      </trkpt>
      <trkpt lat="41.7347030" lon="2.0253530">
        <ele>517.9</ele>
        <time>2022-09-26T09:22:18Z</time>
      </trkpt>
      <trkpt lat="41.7346890" lon="2.0252840">
        <ele>517.8</ele>
        <time>2022-09-26T09:22:19Z</time>
      </trkpt>
      <trkpt lat="41.7346960" lon="2.0252080">
        <ele>517.8</ele>
        <time>2022-09-26T09:22:20Z</time>
      </trkpt>
      <trkpt lat="41.7347050" lon="2.0251550">
        <ele>517.7</ele>
        <time>2022-09-26T09:22:21Z</time>
      </trkpt>
      <trkpt lat="41.7347150" lon="2.0250910">
        <ele>517.6</ele>
        <time>2022-09-26T09:22:22Z</time>
      </trkpt>
      <trkpt lat="41.7347320" lon="2.0250260">
        <ele>517.4</ele>
        <time>2022-09-26T09:22:23Z</time>
      </trkpt>
      <trkpt lat="41.7347520" lon="2.0249740">
        <ele>517.3</ele>
        <time>2022-09-26T09:22:24Z</time>
      </trkpt>
      <trkpt lat="41.7347690" lon="2.0249150">
        <ele>517.1</ele>
        <time>2022-09-26T09:22:25Z</time>
      </trkpt>
      <trkpt lat="41.7347860" lon="2.0248560">
        <ele>516.9</ele>
        <time>2022-09-26T09:22:26Z</time>
      </trkpt>
      <trkpt lat="41.7348050" lon="2.0247760">
        <ele>516.5</ele>
        <time>2022-09-26T09:22:27Z</time>
      </trkpt>
      <trkpt lat="41.7348250" lon="2.0246960">
        <ele>516.2</ele>
        <time>2022-09-26T09:22:28Z</time>
      </trkpt>
      <trkpt lat="41.7348480" lon="2.0246190">
        <ele>515.8</ele>
        <time>2022-09-26T09:22:29Z</time>
      </trkpt>
      <trkpt lat="41.7348800" lon="2.0245380">
        <ele>515.3</ele>
        <time>2022-09-26T09:22:30Z</time>
      </trkpt>
      <trkpt lat="41.7349190" lon="2.0244620">
        <ele>514.9</ele>
        <time>2022-09-26T09:22:31Z</time>
      </trkpt>
      <trkpt lat="41.7349640" lon="2.0243950">
        <ele>514.5</ele>
        <time>2022-09-26T09:22:32Z</time>
      </trkpt>
      <trkpt lat="41.7350160" lon="2.0243330">
        <ele>514.1</ele>
        <time>2022-09-26T09:22:33Z</time>
      </trkpt>
      <trkpt lat="41.7350760" lon="2.0242820">
        <ele>513.7</ele>
        <time>2022-09-26T09:22:34Z</time>
      </trkpt>
      <trkpt lat="41.7351410" lon="2.0242360">
        <ele>513.4</ele>
        <time>2022-09-26T09:22:35Z</time>
      </trkpt>
      <trkpt lat="41.7352080" lon="2.0241890">
        <ele>513.1</ele>
        <time>2022-09-26T09:22:36Z</time>
      </trkpt>
      <trkpt lat="41.7352760" lon="2.0241460">
        <ele>512.8</ele>
        <time>2022-09-26T09:22:37Z</time>
      </trkpt>
      <trkpt lat="41.7353450" lon="2.0241160">
        <ele>512.6</ele>
        <time>2022-09-26T09:22:38Z</time>
      </trkpt>
      <trkpt lat="41.7354080" lon="2.0240970">
        <ele>512.4</ele>
        <time>2022-09-26T09:22:39Z</time>
      </trkpt>
      <trkpt lat="41.7354700" lon="2.0240850">
        <ele>512.1</ele>
        <time>2022-09-26T09:22:40Z</time>
      </trkpt>
      <trkpt lat="41.7355320" lon="2.0240760">
        <ele>511.9</ele>
        <time>2022-09-26T09:22:41Z</time>
      </trkpt>
      <trkpt lat="41.7355930" lon="2.0240660">
        <ele>511.6</ele>
        <time>2022-09-26T09:22:42Z</time>
      </trkpt>
      <trkpt lat="41.7356520" lon="2.0240530">
        <ele>511.3</ele>
        <time>2022-09-26T09:22:43Z</time>
      </trkpt>
      <trkpt lat="41.7357080" lon="2.0240360">
        <ele>510.9</ele>
        <time>2022-09-26T09:22:44Z</time>
      </trkpt>
      <trkpt lat="41.7357660" lon="2.0240140">
        <ele>510.6</ele>
        <time>2022-09-26T09:22:45Z</time>
      </trkpt>
      <trkpt lat="41.7358230" lon="2.0239880">
        <ele>510.2</ele>
        <time>2022-09-26T09:22:46Z</time>
      </trkpt>
      <trkpt lat="41.7358830" lon="2.0239510">
        <ele>509.8</ele>
        <time>2022-09-26T09:22:47Z</time>
      </trkpt>
      <trkpt lat="41.7359420" lon="2.0239030">
        <ele>509.3</ele>
        <time>2022-09-26T09:22:48Z</time>
      </trkpt>
      <trkpt lat="41.7359930" lon="2.0238440">
        <ele>508.9</ele>
        <time>2022-09-26T09:22:49Z</time>
      </trkpt>
      <trkpt lat="41.7360350" lon="2.0237760">
        <ele>508.5</ele>
        <time>2022-09-26T09:22:50Z</time>
      </trkpt>
      <trkpt lat="41.7360530" lon="2.0236940">
        <ele>508.1</ele>
        <time>2022-09-26T09:22:51Z</time>
      </trkpt>
      <trkpt lat="41.7360570" lon="2.0236040">
        <ele>507.7</ele>
        <time>2022-09-26T09:22:52Z</time>
      </trkpt>
      <trkpt lat="41.7360590" lon="2.0235140">
        <ele>507.3</ele>
        <time>2022-09-26T09:22:53Z</time>
      </trkpt>
      <trkpt lat="41.7360480" lon="2.0234240">
        <ele>507.0</ele>
        <time>2022-09-26T09:22:54Z</time>
      </trkpt>
      <trkpt lat="41.7360250" lon="2.0233320">
        <ele>506.6</ele>
        <time>2022-09-26T09:22:55Z</time>
      </trkpt>
      <trkpt lat="41.7359990" lon="2.0232370">
        <ele>506.4</ele>
        <time>2022-09-26T09:22:56Z</time>
      </trkpt>
      <trkpt lat="41.7359760" lon="2.0231420">
        <ele>506.1</ele>
        <time>2022-09-26T09:22:57Z</time>
      </trkpt>
      <trkpt lat="41.7359560" lon="2.0230460">
        <ele>506.0</ele>
        <time>2022-09-26T09:22:58Z</time>
      </trkpt>
      <trkpt lat="41.7359420" lon="2.0229540">
        <ele>505.9</ele>
        <time>2022-09-26T09:22:59Z</time>
      </trkpt>
      <trkpt lat="41.7359340" lon="2.0228630">
        <ele>505.9</ele>
        <time>2022-09-26T09:23:00Z</time>
      </trkpt>
      <trkpt lat="41.7359300" lon="2.0227740">
        <ele>505.8</ele>
        <time>2022-09-26T09:23:01Z</time>
      </trkpt>
      <trkpt lat="41.7359260" lon="2.0226880">
        <ele>505.7</ele>
        <time>2022-09-26T09:23:02Z</time>
      </trkpt>
      <trkpt lat="41.7359260" lon="2.0226100">
        <ele>505.6</ele>
        <time>2022-09-26T09:23:03Z</time>
      </trkpt>
      <trkpt lat="41.7359300" lon="2.0225310">
        <ele>505.5</ele>
        <time>2022-09-26T09:23:04Z</time>
      </trkpt>
      <trkpt lat="41.7359370" lon="2.0224540">
        <ele>505.3</ele>
        <time>2022-09-26T09:23:05Z</time>
      </trkpt>
      <trkpt lat="41.7359410" lon="2.0223780">
        <ele>505.0</ele>
        <time>2022-09-26T09:23:06Z</time>
      </trkpt>
      <trkpt lat="41.7359440" lon="2.0223030">
        <ele>504.8</ele>
        <time>2022-09-26T09:23:07Z</time>
      </trkpt>
      <trkpt lat="41.7359470" lon="2.0222240">
        <ele>504.6</ele>
        <time>2022-09-26T09:23:08Z</time>
      </trkpt>
      <trkpt lat="41.7359490" lon="2.0221440">
        <ele>504.3</ele>
        <time>2022-09-26T09:23:09Z</time>
      </trkpt>
      <trkpt lat="41.7359530" lon="2.0220610">
        <ele>504.0</ele>
        <time>2022-09-26T09:23:10Z</time>
      </trkpt>
      <trkpt lat="41.7359590" lon="2.0219740">
        <ele>503.8</ele>
        <time>2022-09-26T09:23:11Z</time>
      </trkpt>
      <trkpt lat="41.7359630" lon="2.0218850">
        <ele>503.5</ele>
        <time>2022-09-26T09:23:12Z</time>
      </trkpt>
      <trkpt lat="41.7359680" lon="2.0217920">
        <ele>503.2</ele>
        <time>2022-09-26T09:23:13Z</time>
      </trkpt>
      <trkpt lat="41.7359720" lon="2.0216970">
        <ele>502.9</ele>
        <time>2022-09-26T09:23:14Z</time>
      </trkpt>
      <trkpt lat="41.7359780" lon="2.0216090">
        <ele>502.7</ele>
        <time>2022-09-26T09:23:15Z</time>
      </trkpt>
      <trkpt lat="41.7359890" lon="2.0215240">
        <ele>502.4</ele>
        <time>2022-09-26T09:23:16Z</time>
      </trkpt>
      <trkpt lat="41.7360050" lon="2.0214470">
        <ele>502.1</ele>
        <time>2022-09-26T09:23:17Z</time>
      </trkpt>
      <trkpt lat="41.7360250" lon="2.0213800">
        <ele>501.8</ele>
        <time>2022-09-26T09:23:18Z</time>
      </trkpt>
      <trkpt lat="41.7360450" lon="2.0213500">
        <ele>501.6</ele>
        <time>2022-09-26T09:23:19Z</time>
      </trkpt>
      <trkpt lat="41.7360660" lon="2.0213030">
        <ele>501.4</ele>
        <time>2022-09-26T09:23:20Z</time>
      </trkpt>
      <trkpt lat="41.7360840" lon="2.0212570">
        <ele>501.2</ele>
        <time>2022-09-26T09:23:21Z</time>
      </trkpt>
      <trkpt lat="41.7361060" lon="2.0211960">
        <ele>500.9</ele>
        <time>2022-09-26T09:23:22Z</time>
      </trkpt>
      <trkpt lat="41.7361310" lon="2.0211230">
        <ele>500.5</ele>
        <time>2022-09-26T09:23:23Z</time>
      </trkpt>
      <trkpt lat="41.7361540" lon="2.0210670">
        <ele>500.3</ele>
        <time>2022-09-26T09:23:24Z</time>
      </trkpt>
      <trkpt lat="41.7361870" lon="2.0210100">
        <ele>500.1</ele>
        <time>2022-09-26T09:23:25Z</time>
      </trkpt>
      <trkpt lat="41.7362130" lon="2.0209760">
        <ele>500.0</ele>
        <time>2022-09-26T09:23:26Z</time>
      </trkpt>
      <trkpt lat="41.7362580" lon="2.0209210">
        <ele>499.9</ele>
        <time>2022-09-26T09:23:27Z</time>
      </trkpt>
      <trkpt lat="41.7363080" lon="2.0208790">
        <ele>499.9</ele>
        <time>2022-09-26T09:23:28Z</time>
      </trkpt>
      <trkpt lat="41.7363440" lon="2.0208630">
        <ele>500.1</ele>
        <time>2022-09-26T09:23:29Z</time>
      </trkpt>
      <trkpt lat="41.7363770" lon="2.0208480">
        <ele>500.3</ele>
        <time>2022-09-26T09:23:30Z</time>
      </trkpt>
      <trkpt lat="41.7364080" lon="2.0208370">
        <ele>500.4</ele>
        <time>2022-09-26T09:23:31Z</time>
      </trkpt>
      <trkpt lat="41.7364400" lon="2.0208410">
        <ele>500.6</ele>
        <time>2022-09-26T09:23:32Z</time>
      </trkpt>
      <trkpt lat="41.7364540" lon="2.0208410">
        <ele>500.7</ele>
        <time>2022-09-26T09:23:33Z</time>
      </trkpt>
      <trkpt lat="41.7364840" lon="2.0208420">
        <ele>500.8</ele>
        <time>2022-09-26T09:23:34Z</time>
      </trkpt>
      <trkpt lat="41.7365130" lon="2.0208460">
        <ele>500.9</ele>
        <time>2022-09-26T09:23:35Z</time>
      </trkpt>
      <trkpt lat="41.7365490" lon="2.0208570">
        <ele>501.1</ele>
        <time>2022-09-26T09:23:36Z</time>
      </trkpt>
      <trkpt lat="41.7365600" lon="2.0208610">
        <ele>501.2</ele>
        <time>2022-09-26T09:23:37Z</time>
      </trkpt>
      <trkpt lat="41.7365900" lon="2.0208650">
        <ele>501.3</ele>
        <time>2022-09-26T09:23:38Z</time>
      </trkpt>
      <trkpt lat="41.7366230" lon="2.0208710">
        <ele>501.5</ele>
        <time>2022-09-26T09:23:39Z</time>
      </trkpt>
      <trkpt lat="41.7366600" lon="2.0208760">
        <ele>501.7</ele>
        <time>2022-09-26T09:23:40Z</time>
      </trkpt>
      <trkpt lat="41.7366700" lon="2.0208760">
        <ele>501.8</ele>
        <time>2022-09-26T09:23:41Z</time>
      </trkpt>
      <trkpt lat="41.7366980" lon="2.0208790">
        <ele>502.0</ele>
        <time>2022-09-26T09:23:42Z</time>
      </trkpt>
      <trkpt lat="41.7367290" lon="2.0208830">
        <ele>502.2</ele>
        <time>2022-09-26T09:23:43Z</time>
      </trkpt>
      <trkpt lat="41.7367390" lon="2.0208850">
        <ele>502.3</ele>
        <time>2022-09-26T09:23:44Z</time>
      </trkpt>
      <trkpt lat="41.7367680" lon="2.0208900">
        <ele>502.5</ele>
        <time>2022-09-26T09:23:45Z</time>
      </trkpt>
      <trkpt lat="41.7368040" lon="2.0208950">
        <ele>502.7</ele>
        <time>2022-09-26T09:23:46Z</time>
      </trkpt>
      <trkpt lat="41.7368170" lon="2.0208970">
        <ele>502.8</ele>
        <time>2022-09-26T09:23:47Z</time>
      </trkpt>
      <trkpt lat="41.7368510" lon="2.0209050">
        <ele>503.0</ele>
        <time>2022-09-26T09:23:48Z</time>
      </trkpt>
      <trkpt lat="41.7368630" lon="2.0209080">
        <ele>503.1</ele>
        <time>2022-09-26T09:23:49Z</time>
      </trkpt>
      <trkpt lat="41.7368900" lon="2.0209160">
        <ele>503.2</ele>
        <time>2022-09-26T09:23:50Z</time>
      </trkpt>
      <trkpt lat="41.7369200" lon="2.0209270">
        <ele>503.4</ele>
        <time>2022-09-26T09:23:51Z</time>
      </trkpt>
      <trkpt lat="41.7369560" lon="2.0209430">
        <ele>503.6</ele>
        <time>2022-09-26T09:23:52Z</time>
      </trkpt>
      <trkpt lat="41.7369690" lon="2.0209490">
        <ele>503.6</ele>
        <time>2022-09-26T09:23:53Z</time>
      </trkpt>
      <trkpt lat="41.7370060" lon="2.0209690">
        <ele>503.8</ele>
        <time>2022-09-26T09:23:54Z</time>
      </trkpt>
      <trkpt lat="41.7370190" lon="2.0209750">
        <ele>503.8</ele>
        <time>2022-09-26T09:23:55Z</time>
      </trkpt>
      <trkpt lat="41.7370480" lon="2.0209820">
        <ele>503.9</ele>
        <time>2022-09-26T09:23:56Z</time>
      </trkpt>
      <trkpt lat="41.7370760" lon="2.0209850">
        <ele>504.0</ele>
        <time>2022-09-26T09:23:57Z</time>
      </trkpt>
      <trkpt lat="41.7371060" lon="2.0209900">
        <ele>504.0</ele>
        <time>2022-09-26T09:23:58Z</time>
      </trkpt>
      <trkpt lat="41.7371360" lon="2.0209950">
        <ele>504.1</ele>
        <time>2022-09-26T09:23:59Z</time>
      </trkpt>
      <trkpt lat="41.7371750" lon="2.0209990">
        <ele>504.1</ele>
        <time>2022-09-26T09:24:00Z</time>
      </trkpt>
      <trkpt lat="41.7372150" lon="2.0210050">
        <ele>504.1</ele>
        <time>2022-09-26T09:24:01Z</time>
      </trkpt>
      <trkpt lat="41.7372490" lon="2.0210140">
        <ele>504.1</ele>
        <time>2022-09-26T09:24:02Z</time>
      </trkpt>
      <trkpt lat="41.7372810" lon="2.0210250">
        <ele>504.0</ele>
        <time>2022-09-26T09:24:03Z</time>
      </trkpt>
      <trkpt lat="41.7373150" lon="2.0210330">
        <ele>503.9</ele>
        <time>2022-09-26T09:24:04Z</time>
      </trkpt>
      <trkpt lat="41.7373480" lon="2.0210370">
        <ele>503.8</ele>
        <time>2022-09-26T09:24:05Z</time>
      </trkpt>
      <trkpt lat="41.7373860" lon="2.0210410">
        <ele>503.5</ele>
        <time>2022-09-26T09:24:06Z</time>
      </trkpt>
      <trkpt lat="41.7374280" lon="2.0210470">
        <ele>503.3</ele>
        <time>2022-09-26T09:24:07Z</time>
      </trkpt>
      <trkpt lat="41.7374740" lon="2.0210530">
        <ele>502.9</ele>
        <time>2022-09-26T09:24:08Z</time>
      </trkpt>
      <trkpt lat="41.7375130" lon="2.0210580">
        <ele>502.6</ele>
        <time>2022-09-26T09:24:09Z</time>
      </trkpt>
      <trkpt lat="41.7375680" lon="2.0210610">
        <ele>502.2</ele>
        <time>2022-09-26T09:24:10Z</time>
      </trkpt>
      <trkpt lat="41.7376270" lon="2.0210600">
        <ele>501.7</ele>
        <time>2022-09-26T09:24:11Z</time>
      </trkpt>
      <trkpt lat="41.7376870" lon="2.0210570">
        <ele>501.3</ele>
        <time>2022-09-26T09:24:12Z</time>
      </trkpt>
      <trkpt lat="41.7377490" lon="2.0210530">
        <ele>501.0</ele>
        <time>2022-09-26T09:24:13Z</time>
      </trkpt>
      <trkpt lat="41.7378080" lon="2.0210460">
        <ele>500.7</ele>
        <time>2022-09-26T09:24:14Z</time>
      </trkpt>
      <trkpt lat="41.7378660" lon="2.0210350">
        <ele>500.5</ele>
        <time>2022-09-26T09:24:15Z</time>
      </trkpt>
      <trkpt lat="41.7379230" lon="2.0210220">
        <ele>500.2</ele>
        <time>2022-09-26T09:24:16Z</time>
      </trkpt>
      <trkpt lat="41.7379780" lon="2.0210080">
        <ele>500.0</ele>
        <time>2022-09-26T09:24:17Z</time>
      </trkpt>
      <trkpt lat="41.7380330" lon="2.0209950">
        <ele>499.7</ele>
        <time>2022-09-26T09:24:18Z</time>
      </trkpt>
      <trkpt lat="41.7380860" lon="2.0209800">
        <ele>499.3</ele>
        <time>2022-09-26T09:24:19Z</time>
      </trkpt>
      <trkpt lat="41.7381410" lon="2.0209660">
        <ele>499.0</ele>
        <time>2022-09-26T09:24:20Z</time>
      </trkpt>
      <trkpt lat="41.7381940" lon="2.0209510">
        <ele>498.6</ele>
        <time>2022-09-26T09:24:21Z</time>
      </trkpt>
      <trkpt lat="41.7382520" lon="2.0209390">
        <ele>498.1</ele>
        <time>2022-09-26T09:24:22Z</time>
      </trkpt>
      <trkpt lat="41.7383160" lon="2.0209310">
        <ele>497.5</ele>
        <time>2022-09-26T09:24:23Z</time>
      </trkpt>
      <trkpt lat="41.7383820" lon="2.0209210">
        <ele>496.9</ele>
        <time>2022-09-26T09:24:24Z</time>
      </trkpt>
      <trkpt lat="41.7384430" lon="2.0209070">
        <ele>496.3</ele>
        <time>2022-09-26T09:24:25Z</time>
      </trkpt>
      <trkpt lat="41.7384990" lon="2.0208840">
        <ele>495.8</ele>
        <time>2022-09-26T09:24:26Z</time>
      </trkpt>
      <trkpt lat="41.7385470" lon="2.0208480">
        <ele>495.3</ele>
        <time>2022-09-26T09:24:27Z</time>
      </trkpt>
      <trkpt lat="41.7385900" lon="2.0207970">
        <ele>494.9</ele>
        <time>2022-09-26T09:24:28Z</time>
      </trkpt>
      <trkpt lat="41.7386280" lon="2.0207320">
        <ele>494.4</ele>
        <time>2022-09-26T09:24:29Z</time>
      </trkpt>
      <trkpt lat="41.7386600" lon="2.0206590">
        <ele>494.2</ele>
        <time>2022-09-26T09:24:30Z</time>
      </trkpt>
      <trkpt lat="41.7386890" lon="2.0205850">
        <ele>494.1</ele>
        <time>2022-09-26T09:24:31Z</time>
      </trkpt>
      <trkpt lat="41.7387140" lon="2.0205120">
        <ele>494.0</ele>
        <time>2022-09-26T09:24:32Z</time>
      </trkpt>
      <trkpt lat="41.7387360" lon="2.0204370">
        <ele>493.8</ele>
        <time>2022-09-26T09:24:33Z</time>
      </trkpt>
      <trkpt lat="41.7387560" lon="2.0203600">
        <ele>493.7</ele>
        <time>2022-09-26T09:24:34Z</time>
      </trkpt>
      <trkpt lat="41.7387750" lon="2.0202820">
        <ele>493.6</ele>
        <time>2022-09-26T09:24:35Z</time>
      </trkpt>
      <trkpt lat="41.7387950" lon="2.0202060">
        <ele>493.5</ele>
        <time>2022-09-26T09:24:36Z</time>
      </trkpt>
      <trkpt lat="41.7388150" lon="2.0201330">
        <ele>493.5</ele>
        <time>2022-09-26T09:24:37Z</time>
      </trkpt>
      <trkpt lat="41.7388340" lon="2.0200640">
        <ele>493.5</ele>
        <time>2022-09-26T09:24:38Z</time>
      </trkpt>
      <trkpt lat="41.7388530" lon="2.0200010">
        <ele>493.5</ele>
        <time>2022-09-26T09:24:39Z</time>
      </trkpt>
      <trkpt lat="41.7388690" lon="2.0199430">
        <ele>493.6</ele>
        <time>2022-09-26T09:24:40Z</time>
      </trkpt>
      <trkpt lat="41.7388900" lon="2.0198920">
        <ele>493.6</ele>
        <time>2022-09-26T09:24:41Z</time>
      </trkpt>
      <trkpt lat="41.7389020" lon="2.0198670">
        <ele>493.6</ele>
        <time>2022-09-26T09:24:42Z</time>
      </trkpt>
      <trkpt lat="41.7389320" lon="2.0198180">
        <ele>493.7</ele>
        <time>2022-09-26T09:24:43Z</time>
      </trkpt>
      <trkpt lat="41.7389560" lon="2.0197870">
        <ele>493.8</ele>
        <time>2022-09-26T09:24:44Z</time>
      </trkpt>
      <trkpt lat="41.7389820" lon="2.0197480">
        <ele>493.8</ele>
        <time>2022-09-26T09:24:45Z</time>
      </trkpt>
      <trkpt lat="41.7390050" lon="2.0197150">
        <ele>493.9</ele>
        <time>2022-09-26T09:24:46Z</time>
      </trkpt>
      <trkpt lat="41.7390310" lon="2.0196710">
        <ele>494.0</ele>
        <time>2022-09-26T09:24:47Z</time>
      </trkpt>
      <trkpt lat="41.7390520" lon="2.0196370">
        <ele>494.1</ele>
        <time>2022-09-26T09:24:48Z</time>
      </trkpt>
      <trkpt lat="41.7390790" lon="2.0195940">
        <ele>494.1</ele>
        <time>2022-09-26T09:24:49Z</time>
      </trkpt>
      <trkpt lat="41.7391060" lon="2.0195570">
        <ele>494.2</ele>
        <time>2022-09-26T09:24:50Z</time>
      </trkpt>
      <trkpt lat="41.7391380" lon="2.0195190">
        <ele>494.3</ele>
        <time>2022-09-26T09:24:51Z</time>
      </trkpt>
      <trkpt lat="41.7391720" lon="2.0194870">
        <ele>494.4</ele>
        <time>2022-09-26T09:24:52Z</time>
      </trkpt>
      <trkpt lat="41.7392040" lon="2.0194630">
        <ele>494.5</ele>
        <time>2022-09-26T09:24:53Z</time>
      </trkpt>
      <trkpt lat="41.7392380" lon="2.0194390">
        <ele>494.5</ele>
        <time>2022-09-26T09:24:54Z</time>
      </trkpt>
      <trkpt lat="41.7392680" lon="2.0194240">
        <ele>494.5</ele>
        <time>2022-09-26T09:24:55Z</time>
      </trkpt>
      <trkpt lat="41.7393040" lon="2.0194060">
        <ele>494.4</ele>
        <time>2022-09-26T09:24:56Z</time>
      </trkpt>
      <trkpt lat="41.7393340" lon="2.0193940">
        <ele>494.4</ele>
        <time>2022-09-26T09:24:57Z</time>
      </trkpt>
      <trkpt lat="41.7393650" lon="2.0193840">
        <ele>494.3</ele>
        <time>2022-09-26T09:24:58Z</time>
      </trkpt>
      <trkpt lat="41.7394120" lon="2.0193700">
        <ele>494.2</ele>
        <time>2022-09-26T09:24:59Z</time>
      </trkpt>
      <trkpt lat="41.7394580" lon="2.0193560">
        <ele>494.0</ele>
        <time>2022-09-26T09:25:00Z</time>
      </trkpt>
      <trkpt lat="41.7395060" lon="2.0193390">
        <ele>493.9</ele>
        <time>2022-09-26T09:25:01Z</time>
      </trkpt>
      <trkpt lat="41.7395650" lon="2.0193200">
        <ele>493.7</ele>
        <time>2022-09-26T09:25:02Z</time>
      </trkpt>
      <trkpt lat="41.7396240" lon="2.0193010">
        <ele>493.6</ele>
        <time>2022-09-26T09:25:03Z</time>
      </trkpt>
      <trkpt lat="41.7396800" lon="2.0192830">
        <ele>493.6</ele>
        <time>2022-09-26T09:25:04Z</time>
      </trkpt>
      <trkpt lat="41.7397320" lon="2.0192640">
        <ele>493.7</ele>
        <time>2022-09-26T09:25:05Z</time>
      </trkpt>
      <trkpt lat="41.7397790" lon="2.0192450">
        <ele>493.8</ele>
        <time>2022-09-26T09:25:06Z</time>
      </trkpt>
      <trkpt lat="41.7398210" lon="2.0192280">
        <ele>494.0</ele>
        <time>2022-09-26T09:25:07Z</time>
      </trkpt>
      <trkpt lat="41.7398590" lon="2.0192120">
        <ele>494.2</ele>
        <time>2022-09-26T09:25:08Z</time>
      </trkpt>
      <trkpt lat="41.7398750" lon="2.0192050">
        <ele>494.3</ele>
        <time>2022-09-26T09:25:09Z</time>
      </trkpt>
      <trkpt lat="41.7399090" lon="2.0191950">
        <ele>494.5</ele>
        <time>2022-09-26T09:25:10Z</time>
      </trkpt>
      <trkpt lat="41.7399470" lon="2.0191850">
        <ele>494.7</ele>
        <time>2022-09-26T09:25:11Z</time>
      </trkpt>
      <trkpt lat="41.7399760" lon="2.0191820">
        <ele>494.8</ele>
        <time>2022-09-26T09:25:12Z</time>
      </trkpt>
      <trkpt lat="41.7400150" lon="2.0191800">
        <ele>495.0</ele>
        <time>2022-09-26T09:25:13Z</time>
      </trkpt>
      <trkpt lat="41.7400450" lon="2.0191790">
        <ele>495.2</ele>
        <time>2022-09-26T09:25:14Z</time>
      </trkpt>
      <trkpt lat="41.7400790" lon="2.0191750">
        <ele>495.4</ele>
        <time>2022-09-26T09:25:15Z</time>
      </trkpt>
      <trkpt lat="41.7401200" lon="2.0191730">
        <ele>495.5</ele>
        <time>2022-09-26T09:25:16Z</time>
      </trkpt>
      <trkpt lat="41.7401340" lon="2.0191730">
        <ele>495.6</ele>
        <time>2022-09-26T09:25:17Z</time>
      </trkpt>
      <trkpt lat="41.7401710" lon="2.0191740">
        <ele>495.6</ele>
        <time>2022-09-26T09:25:18Z</time>
      </trkpt>
      <trkpt lat="41.7402050" lon="2.0191730">
        <ele>495.7</ele>
        <time>2022-09-26T09:25:19Z</time>
      </trkpt>
      <trkpt lat="41.7402310" lon="2.0191670">
        <ele>495.7</ele>
        <time>2022-09-26T09:25:20Z</time>
      </trkpt>
      <trkpt lat="41.7402700" lon="2.0191530">
        <ele>495.7</ele>
        <time>2022-09-26T09:25:21Z</time>
      </trkpt>
      <trkpt lat="41.7402960" lon="2.0191350">
        <ele>495.7</ele>
        <time>2022-09-26T09:25:22Z</time>
      </trkpt>
      <trkpt lat="41.7403290" lon="2.0191160">
        <ele>495.8</ele>
        <time>2022-09-26T09:25:23Z</time>
      </trkpt>
      <trkpt lat="41.7403690" lon="2.0190930">
        <ele>495.8</ele>
        <time>2022-09-26T09:25:24Z</time>
      </trkpt>
      <trkpt lat="41.7404050" lon="2.0190670">
        <ele>495.8</ele>
        <time>2022-09-26T09:25:25Z</time>
      </trkpt>
      <trkpt lat="41.7404370" lon="2.0190420">
        <ele>495.9</ele>
        <time>2022-09-26T09:25:26Z</time>
      </trkpt>
      <trkpt lat="41.7404700" lon="2.0190150">
        <ele>495.9</ele>
        <time>2022-09-26T09:25:27Z</time>
      </trkpt>
      <trkpt lat="41.7405070" lon="2.0189820">
        <ele>496.0</ele>
        <time>2022-09-26T09:25:28Z</time>
      </trkpt>
      <trkpt lat="41.7405420" lon="2.0189500">
        <ele>496.0</ele>
        <time>2022-09-26T09:25:29Z</time>
      </trkpt>
      <trkpt lat="41.7405820" lon="2.0189210">
        <ele>496.0</ele>
        <time>2022-09-26T09:25:30Z</time>
      </trkpt>
      <trkpt lat="41.7406150" lon="2.0188990">
        <ele>496.0</ele>
        <time>2022-09-26T09:25:31Z</time>
      </trkpt>
      <trkpt lat="41.7406410" lon="2.0188840">
        <ele>496.0</ele>
        <time>2022-09-26T09:25:32Z</time>
      </trkpt>
      <trkpt lat="41.7406780" lon="2.0188650">
        <ele>496.0</ele>
        <time>2022-09-26T09:25:33Z</time>
      </trkpt>
      <trkpt lat="41.7406910" lon="2.0188580">
        <ele>496.0</ele>
        <time>2022-09-26T09:25:34Z</time>
      </trkpt>
      <trkpt lat="41.7407240" lon="2.0188340">
        <ele>495.9</ele>
        <time>2022-09-26T09:25:35Z</time>
      </trkpt>
      <trkpt lat="41.7407480" lon="2.0188080">
        <ele>495.8</ele>
        <time>2022-09-26T09:25:36Z</time>
      </trkpt>
      <trkpt lat="41.7407760" lon="2.0187670">
        <ele>495.7</ele>
        <time>2022-09-26T09:25:37Z</time>
      </trkpt>
      <trkpt lat="41.7408100" lon="2.0187100">
        <ele>495.5</ele>
        <time>2022-09-26T09:25:38Z</time>
      </trkpt>
      <trkpt lat="41.7408440" lon="2.0186450">
        <ele>495.3</ele>
        <time>2022-09-26T09:25:39Z</time>
      </trkpt>
      <trkpt lat="41.7408760" lon="2.0185790">
        <ele>495.2</ele>
        <time>2022-09-26T09:25:40Z</time>
      </trkpt>
      <trkpt lat="41.7409070" lon="2.0185110">
        <ele>495.1</ele>
        <time>2022-09-26T09:25:41Z</time>
      </trkpt>
      <trkpt lat="41.7409340" lon="2.0184460">
        <ele>495.0</ele>
        <time>2022-09-26T09:25:42Z</time>
      </trkpt>
      <trkpt lat="41.7409620" lon="2.0183870">
        <ele>495.0</ele>
        <time>2022-09-26T09:25:43Z</time>
      </trkpt>
      <trkpt lat="41.7409890" lon="2.0183340">
        <ele>495.1</ele>
        <time>2022-09-26T09:25:44Z</time>
      </trkpt>
      <trkpt lat="41.7410160" lon="2.0182850">
        <ele>495.2</ele>
        <time>2022-09-26T09:25:45Z</time>
      </trkpt>
      <trkpt lat="41.7410350" lon="2.0182520">
        <ele>495.3</ele>
        <time>2022-09-26T09:25:46Z</time>
      </trkpt>
      <trkpt lat="41.7410570" lon="2.0182150">
        <ele>495.4</ele>
        <time>2022-09-26T09:25:47Z</time>
      </trkpt>
      <trkpt lat="41.7410770" lon="2.0181850">
        <ele>495.4</ele>
        <time>2022-09-26T09:25:48Z</time>
      </trkpt>
      <trkpt lat="41.7410980" lon="2.0181610">
        <ele>495.5</ele>
        <time>2022-09-26T09:25:49Z</time>
      </trkpt>
      <trkpt lat="41.7411220" lon="2.0181400">
        <ele>495.5</ele>
        <time>2022-09-26T09:25:50Z</time>
      </trkpt>
      <trkpt lat="41.7411560" lon="2.0181180">
        <ele>495.6</ele>
        <time>2022-09-26T09:25:51Z</time>
      </trkpt>
      <trkpt lat="41.7411680" lon="2.0181100">
        <ele>495.6</ele>
        <time>2022-09-26T09:25:52Z</time>
      </trkpt>
      <trkpt lat="41.7411970" lon="2.0180890">
        <ele>495.7</ele>
        <time>2022-09-26T09:25:53Z</time>
      </trkpt>
      <trkpt lat="41.7412090" lon="2.0180790">
        <ele>495.8</ele>
        <time>2022-09-26T09:25:54Z</time>
      </trkpt>
      <trkpt lat="41.7412310" lon="2.0180550">
        <ele>495.9</ele>
        <time>2022-09-26T09:25:55Z</time>
      </trkpt>
      <trkpt lat="41.7412510" lon="2.0180300">
        <ele>496.0</ele>
        <time>2022-09-26T09:25:56Z</time>
      </trkpt>
      <trkpt lat="41.7412650" lon="2.0180100">
        <ele>496.1</ele>
        <time>2022-09-26T09:25:57Z</time>
      </trkpt>
      <trkpt lat="41.7412680" lon="2.0179970">
        <ele>496.1</ele>
        <time>2022-09-26T09:25:58Z</time>
      </trkpt>
      <trkpt lat="41.7412650" lon="2.0179890">
        <ele>496.1</ele>
        <time>2022-09-26T09:25:59Z</time>
      </trkpt>
      <trkpt lat="41.7412630" lon="2.0179970">
        <ele>496.2</ele>
        <time>2022-09-26T09:26:00Z</time>
      </trkpt>
      <trkpt lat="41.7412590" lon="2.0179990">
        <ele>496.2</ele>
        <time>2022-09-26T09:26:01Z</time>
      </trkpt>
      <trkpt lat="41.7412570" lon="2.0180000">
        <ele>496.2</ele>
        <time>2022-09-26T09:26:02Z</time>
      </trkpt>
      <trkpt lat="41.7412570" lon="2.0180000">
        <ele>496.2</ele>
        <time>2022-09-26T09:26:03Z</time>
      </trkpt>
      <trkpt lat="41.7412570" lon="2.0180000">
        <ele>496.2</ele>
        <time>2022-09-26T09:26:04Z</time>
      </trkpt>
      <trkpt lat="41.7412560" lon="2.0180000">
        <ele>496.2</ele>
        <time>2022-09-26T09:26:05Z</time>
      </trkpt>
      <trkpt lat="41.7412560" lon="2.0180000">
        <ele>496.2</ele>
        <time>2022-09-26T09:26:06Z</time>
      </trkpt>
      <trkpt lat="41.7412560" lon="2.0180000">
        <ele>496.2</ele>
        <time>2022-09-26T09:26:07Z</time>
      </trkpt>
      <trkpt lat="41.7412560" lon="2.0180000">
        <ele>496.2</ele>
        <time>2022-09-26T09:26:08Z</time>
      </trkpt>
      <trkpt lat="41.7412560" lon="2.0180000">
        <ele>496.2</ele>
        <time>2022-09-26T09:26:09Z</time>
      </trkpt>
      <trkpt lat="41.7412560" lon="2.0180000">
        <ele>496.2</ele>
        <time>2022-09-26T09:26:10Z</time>
      </trkpt>
      <trkpt lat="41.7412550" lon="2.0180000">
        <ele>496.2</ele>
        <time>2022-09-26T09:26:11Z</time>
      </trkpt>
      <trkpt lat="41.7412460" lon="2.0180330">
        <ele>496.3</ele>
        <time>2022-09-26T09:26:17Z</time>
      </trkpt>
      <trkpt lat="41.7412370" lon="2.0180500">
        <ele>496.3</ele>
        <time>2022-09-26T09:26:18Z</time>
      </trkpt>
      <trkpt lat="41.7412270" lon="2.0180630">
        <ele>496.4</ele>
        <time>2022-09-26T09:26:19Z</time>
      </trkpt>
      <trkpt lat="41.7412160" lon="2.0180760">
        <ele>496.4</ele>
        <time>2022-09-26T09:26:20Z</time>
      </trkpt>
      <trkpt lat="41.7412050" lon="2.0180890">
        <ele>496.4</ele>
        <time>2022-09-26T09:26:21Z</time>
      </trkpt>
      <trkpt lat="41.7411920" lon="2.0181060">
        <ele>496.5</ele>
        <time>2022-09-26T09:26:22Z</time>
      </trkpt>
      <trkpt lat="41.7411870" lon="2.0181280">
        <ele>496.5</ele>
        <time>2022-09-26T09:26:23Z</time>
      </trkpt>
      <trkpt lat="41.7411890" lon="2.0181520">
        <ele>496.6</ele>
        <time>2022-09-26T09:26:24Z</time>
      </trkpt>
      <trkpt lat="41.7411990" lon="2.0181660">
        <ele>496.6</ele>
        <time>2022-09-26T09:26:25Z</time>
      </trkpt>
      <trkpt lat="41.7412300" lon="2.0181680">
        <ele>496.7</ele>
        <time>2022-09-26T09:26:26Z</time>
      </trkpt>
      <trkpt lat="41.7412420" lon="2.0181670">
        <ele>496.7</ele>
        <time>2022-09-26T09:26:27Z</time>
      </trkpt>
      <trkpt lat="41.7412690" lon="2.0181560">
        <ele>496.8</ele>
        <time>2022-09-26T09:26:28Z</time>
      </trkpt>
      <trkpt lat="41.7412940" lon="2.0181420">
        <ele>496.9</ele>
        <time>2022-09-26T09:26:29Z</time>
      </trkpt>
      <trkpt lat="41.7413240" lon="2.0181370">
        <ele>497.0</ele>
        <time>2022-09-26T09:26:30Z</time>
      </trkpt>
      <trkpt lat="41.7413520" lon="2.0181390">
        <ele>497.1</ele>
        <time>2022-09-26T09:26:31Z</time>
      </trkpt>
      <trkpt lat="41.7413810" lon="2.0181460">
        <ele>497.2</ele>
        <time>2022-09-26T09:26:32Z</time>
      </trkpt>
      <trkpt lat="41.7414150" lon="2.0181560">
        <ele>497.3</ele>
        <time>2022-09-26T09:26:33Z</time>
      </trkpt>
      <trkpt lat="41.7414450" lon="2.0181710">
        <ele>497.4</ele>
        <time>2022-09-26T09:26:34Z</time>
      </trkpt>
      <trkpt lat="41.7414760" lon="2.0181930">
        <ele>497.5</ele>
        <time>2022-09-26T09:26:35Z</time>
      </trkpt>
      <trkpt lat="41.7415010" lon="2.0182210">
        <ele>497.7</ele>
        <time>2022-09-26T09:26:36Z</time>
      </trkpt>
      <trkpt lat="41.7415250" lon="2.0182560">
        <ele>497.8</ele>
        <time>2022-09-26T09:26:37Z</time>
      </trkpt>
      <trkpt lat="41.7415330" lon="2.0182670">
        <ele>497.8</ele>
        <time>2022-09-26T09:26:38Z</time>
      </trkpt>
      <trkpt lat="41.7415580" lon="2.0183060">
        <ele>497.9</ele>
        <time>2022-09-26T09:26:39Z</time>
      </trkpt>
      <trkpt lat="41.7415650" lon="2.0183180">
        <ele>498.0</ele>
        <time>2022-09-26T09:26:40Z</time>
      </trkpt>
      <trkpt lat="41.7415940" lon="2.0183540">
        <ele>498.1</ele>
        <time>2022-09-26T09:26:41Z</time>
      </trkpt>
      <trkpt lat="41.7416040" lon="2.0183670">
        <ele>498.1</ele>
        <time>2022-09-26T09:26:42Z</time>
      </trkpt>
      <trkpt lat="41.7416240" lon="2.0183940">
        <ele>498.2</ele>
        <time>2022-09-26T09:26:43Z</time>
      </trkpt>
      <trkpt lat="41.7416440" lon="2.0184260">
        <ele>498.3</ele>
        <time>2022-09-26T09:26:44Z</time>
      </trkpt>
      <trkpt lat="41.7416660" lon="2.0184600">
        <ele>498.3</ele>
        <time>2022-09-26T09:26:45Z</time>
      </trkpt>
      <trkpt lat="41.7416880" lon="2.0185010">
        <ele>498.4</ele>
        <time>2022-09-26T09:26:46Z</time>
      </trkpt>
      <trkpt lat="41.7416960" lon="2.0185160">
        <ele>498.4</ele>
        <time>2022-09-26T09:26:47Z</time>
      </trkpt>
      <trkpt lat="41.7417120" lon="2.0185490">
        <ele>498.4</ele>
        <time>2022-09-26T09:26:48Z</time>
      </trkpt>
      <trkpt lat="41.7417190" lon="2.0185620">
        <ele>498.4</ele>
        <time>2022-09-26T09:26:49Z</time>
      </trkpt>
      <trkpt lat="41.7417380" lon="2.0186040">
        <ele>498.4</ele>
        <time>2022-09-26T09:26:50Z</time>
      </trkpt>
      <trkpt lat="41.7417450" lon="2.0186190">
        <ele>498.4</ele>
        <time>2022-09-26T09:26:51Z</time>
      </trkpt>
      <trkpt lat="41.7417640" lon="2.0186600">
        <ele>498.4</ele>
        <time>2022-09-26T09:26:52Z</time>
      </trkpt>
      <trkpt lat="41.7417700" lon="2.0186730">
        <ele>498.4</ele>
        <time>2022-09-26T09:26:53Z</time>
      </trkpt>
      <trkpt lat="41.7417920" lon="2.0187150">
        <ele>498.4</ele>
        <time>2022-09-26T09:26:54Z</time>
      </trkpt>
      <trkpt lat="41.7417990" lon="2.0187290">
        <ele>498.4</ele>
        <time>2022-09-26T09:26:55Z</time>
      </trkpt>
      <trkpt lat="41.7418170" lon="2.0187790">
        <ele>498.4</ele>
        <time>2022-09-26T09:26:56Z</time>
      </trkpt>
      <trkpt lat="41.7418220" lon="2.0187980">
        <ele>498.4</ele>
        <time>2022-09-26T09:26:57Z</time>
      </trkpt>
      <trkpt lat="41.7418330" lon="2.0188400">
        <ele>498.4</ele>
        <time>2022-09-26T09:26:58Z</time>
      </trkpt>
      <trkpt lat="41.7418430" lon="2.0188770">
        <ele>498.4</ele>
        <time>2022-09-26T09:26:59Z</time>
      </trkpt>
      <trkpt lat="41.7418540" lon="2.0189150">
        <ele>498.4</ele>
        <time>2022-09-26T09:27:00Z</time>
      </trkpt>
      <trkpt lat="41.7418650" lon="2.0189560">
        <ele>498.4</ele>
        <time>2022-09-26T09:27:01Z</time>
      </trkpt>
      <trkpt lat="41.7418730" lon="2.0189940">
        <ele>498.4</ele>
        <time>2022-09-26T09:27:02Z</time>
      </trkpt>
      <trkpt lat="41.7418770" lon="2.0190350">
        <ele>498.4</ele>
        <time>2022-09-26T09:27:03Z</time>
      </trkpt>
      <trkpt lat="41.7418810" lon="2.0190780">
        <ele>498.4</ele>
        <time>2022-09-26T09:27:04Z</time>
      </trkpt>
      <trkpt lat="41.7418880" lon="2.0191290">
        <ele>498.4</ele>
        <time>2022-09-26T09:27:05Z</time>
      </trkpt>
      <trkpt lat="41.7419000" lon="2.0191730">
        <ele>498.3</ele>
        <time>2022-09-26T09:27:06Z</time>
      </trkpt>
      <trkpt lat="41.7419150" lon="2.0192170">
        <ele>498.3</ele>
        <time>2022-09-26T09:27:07Z</time>
      </trkpt>
      <trkpt lat="41.7419300" lon="2.0192540">
        <ele>498.3</ele>
        <time>2022-09-26T09:27:08Z</time>
      </trkpt>
      <trkpt lat="41.7419450" lon="2.0193000">
        <ele>498.3</ele>
        <time>2022-09-26T09:27:09Z</time>
      </trkpt>
      <trkpt lat="41.7419580" lon="2.0193390">
        <ele>498.3</ele>
        <time>2022-09-26T09:27:10Z</time>
      </trkpt>
      <trkpt lat="41.7419740" lon="2.0193880">
        <ele>498.3</ele>
        <time>2022-09-26T09:27:11Z</time>
      </trkpt>
      <trkpt lat="41.7419920" lon="2.0194480">
        <ele>498.3</ele>
        <time>2022-09-26T09:27:12Z</time>
      </trkpt>
      <trkpt lat="41.7420120" lon="2.0194920">
        <ele>498.4</ele>
        <time>2022-09-26T09:27:13Z</time>
      </trkpt>
      <trkpt lat="41.7420370" lon="2.0195270">
        <ele>498.4</ele>
        <time>2022-09-26T09:27:14Z</time>
      </trkpt>
      <trkpt lat="41.7420650" lon="2.0195510">
        <ele>498.5</ele>
        <time>2022-09-26T09:27:15Z</time>
      </trkpt>
      <trkpt lat="41.7420940" lon="2.0195630">
        <ele>498.5</ele>
        <time>2022-09-26T09:27:16Z</time>
      </trkpt>
      <trkpt lat="41.7421230" lon="2.0195670">
        <ele>498.6</ele>
        <time>2022-09-26T09:27:17Z</time>
      </trkpt>
      <trkpt lat="41.7421570" lon="2.0195780">
        <ele>498.6</ele>
        <time>2022-09-26T09:27:18Z</time>
      </trkpt>
      <trkpt lat="41.7421690" lon="2.0195840">
        <ele>498.6</ele>
        <time>2022-09-26T09:27:19Z</time>
      </trkpt>
      <trkpt lat="41.7422010" lon="2.0196150">
        <ele>498.7</ele>
        <time>2022-09-26T09:27:20Z</time>
      </trkpt>
      <trkpt lat="41.7422100" lon="2.0196280">
        <ele>498.7</ele>
        <time>2022-09-26T09:27:21Z</time>
      </trkpt>
      <trkpt lat="41.7422260" lon="2.0196710">
        <ele>498.7</ele>
        <time>2022-09-26T09:27:22Z</time>
      </trkpt>
      <trkpt lat="41.7422310" lon="2.0196870">
        <ele>498.7</ele>
        <time>2022-09-26T09:27:23Z</time>
      </trkpt>
      <trkpt lat="41.7422410" lon="2.0197210">
        <ele>498.8</ele>
        <time>2022-09-26T09:27:24Z</time>
      </trkpt>
      <trkpt lat="41.7422520" lon="2.0197610">
        <ele>498.8</ele>
        <time>2022-09-26T09:27:25Z</time>
      </trkpt>
      <trkpt lat="41.7422550" lon="2.0197720">
        <ele>498.8</ele>
        <time>2022-09-26T09:27:26Z</time>
      </trkpt>
      <trkpt lat="41.7422740" lon="2.0198060">
        <ele>498.8</ele>
        <time>2022-09-26T09:27:27Z</time>
      </trkpt>
      <trkpt lat="41.7422820" lon="2.0198170">
        <ele>498.8</ele>
        <time>2022-09-26T09:27:28Z</time>
      </trkpt>
      <trkpt lat="41.7423050" lon="2.0198410">
        <ele>498.8</ele>
        <time>2022-09-26T09:27:29Z</time>
      </trkpt>
      <trkpt lat="41.7423340" lon="2.0198700">
        <ele>498.8</ele>
        <time>2022-09-26T09:27:30Z</time>
      </trkpt>
      <trkpt lat="41.7423640" lon="2.0198990">
        <ele>498.9</ele>
        <time>2022-09-26T09:27:31Z</time>
      </trkpt>
      <trkpt lat="41.7423910" lon="2.0199280">
        <ele>498.9</ele>
        <time>2022-09-26T09:27:32Z</time>
      </trkpt>
      <trkpt lat="41.7424230" lon="2.0199520">
        <ele>498.9</ele>
        <time>2022-09-26T09:27:33Z</time>
      </trkpt>
      <trkpt lat="41.7424350" lon="2.0199590">
        <ele>498.9</ele>
        <time>2022-09-26T09:27:34Z</time>
      </trkpt>
      <trkpt lat="41.7424730" lon="2.0199770">
        <ele>499.0</ele>
        <time>2022-09-26T09:27:35Z</time>
      </trkpt>
      <trkpt lat="41.7425110" lon="2.0199950">
        <ele>499.0</ele>
        <time>2022-09-26T09:27:36Z</time>
      </trkpt>
      <trkpt lat="41.7425530" lon="2.0200060">
        <ele>499.1</ele>
        <time>2022-09-26T09:27:37Z</time>
      </trkpt>
      <trkpt lat="41.7425940" lon="2.0200150">
        <ele>499.1</ele>
        <time>2022-09-26T09:27:38Z</time>
      </trkpt>
      <trkpt lat="41.7426310" lon="2.0200240">
        <ele>499.2</ele>
        <time>2022-09-26T09:27:39Z</time>
      </trkpt>
      <trkpt lat="41.7426700" lon="2.0200350">
        <ele>499.2</ele>
        <time>2022-09-26T09:27:40Z</time>
      </trkpt>
      <trkpt lat="41.7427000" lon="2.0200450">
        <ele>499.3</ele>
        <time>2022-09-26T09:27:41Z</time>
      </trkpt>
      <trkpt lat="41.7427340" lon="2.0200540">
        <ele>499.3</ele>
        <time>2022-09-26T09:27:42Z</time>
      </trkpt>
      <trkpt lat="41.7427740" lon="2.0200630">
        <ele>499.4</ele>
        <time>2022-09-26T09:27:43Z</time>
      </trkpt>
      <trkpt lat="41.7428080" lon="2.0200680">
        <ele>499.5</ele>
        <time>2022-09-26T09:27:44Z</time>
      </trkpt>
      <trkpt lat="41.7428500" lon="2.0200720">
        <ele>499.5</ele>
        <time>2022-09-26T09:27:45Z</time>
      </trkpt>
      <trkpt lat="41.7428810" lon="2.0200770">
        <ele>499.6</ele>
        <time>2022-09-26T09:27:46Z</time>
      </trkpt>
      <trkpt lat="41.7429220" lon="2.0200850">
        <ele>499.7</ele>
        <time>2022-09-26T09:27:47Z</time>
      </trkpt>
      <trkpt lat="41.7429650" lon="2.0200970">
        <ele>499.8</ele>
        <time>2022-09-26T09:27:48Z</time>
      </trkpt>
      <trkpt lat="41.7429960" lon="2.0201110">
        <ele>499.8</ele>
        <time>2022-09-26T09:27:49Z</time>
      </trkpt>
      <trkpt lat="41.7430260" lon="2.0201230">
        <ele>499.9</ele>
        <time>2022-09-26T09:27:50Z</time>
      </trkpt>
      <trkpt lat="41.7430590" lon="2.0201350">
        <ele>500.0</ele>
        <time>2022-09-26T09:27:51Z</time>
      </trkpt>
      <trkpt lat="41.7430930" lon="2.0201440">
        <ele>500.1</ele>
        <time>2022-09-26T09:27:52Z</time>
      </trkpt>
      <trkpt lat="41.7431370" lon="2.0201560">
        <ele>500.2</ele>
        <time>2022-09-26T09:27:53Z</time>
      </trkpt>
      <trkpt lat="41.7431760" lon="2.0201690">
        <ele>500.3</ele>
        <time>2022-09-26T09:27:54Z</time>
      </trkpt>
      <trkpt lat="41.7432060" lon="2.0201810">
        <ele>500.4</ele>
        <time>2022-09-26T09:27:55Z</time>
      </trkpt>
      <trkpt lat="41.7432470" lon="2.0201940">
        <ele>500.6</ele>
        <time>2022-09-26T09:27:56Z</time>
      </trkpt>
      <trkpt lat="41.7432860" lon="2.0202010">
        <ele>500.7</ele>
        <time>2022-09-26T09:27:57Z</time>
      </trkpt>
      <trkpt lat="41.7433160" lon="2.0201990">
        <ele>500.8</ele>
        <time>2022-09-26T09:27:58Z</time>
      </trkpt>
      <trkpt lat="41.7433500" lon="2.0201860">
        <ele>501.0</ele>
        <time>2022-09-26T09:27:59Z</time>
      </trkpt>
      <trkpt lat="41.7433760" lon="2.0201530">
        <ele>501.1</ele>
        <time>2022-09-26T09:28:00Z</time>
      </trkpt>
      <trkpt lat="41.7433860" lon="2.0201410">
        <ele>501.1</ele>
        <time>2022-09-26T09:28:01Z</time>
      </trkpt>
      <trkpt lat="41.7434070" lon="2.0201100">
        <ele>501.1</ele>
        <time>2022-09-26T09:28:02Z</time>
      </trkpt>
      <trkpt lat="41.7434270" lon="2.0200760">
        <ele>501.1</ele>
        <time>2022-09-26T09:28:03Z</time>
      </trkpt>
      <trkpt lat="41.7434420" lon="2.0200370">
        <ele>501.1</ele>
        <time>2022-09-26T09:28:04Z</time>
      </trkpt>
      <trkpt lat="41.7434480" lon="2.0200230">
        <ele>501.1</ele>
        <time>2022-09-26T09:28:05Z</time>
      </trkpt>
      <trkpt lat="41.7434620" lon="2.0199910">
        <ele>501.0</ele>
        <time>2022-09-26T09:28:06Z</time>
      </trkpt>
      <trkpt lat="41.7434850" lon="2.0199520">
        <ele>500.9</ele>
        <time>2022-09-26T09:28:07Z</time>
      </trkpt>
      <trkpt lat="41.7435150" lon="2.0198960">
        <ele>500.8</ele>
        <time>2022-09-26T09:28:08Z</time>
      </trkpt>
      <trkpt lat="41.7435480" lon="2.0198450">
        <ele>500.6</ele>
        <time>2022-09-26T09:28:09Z</time>
      </trkpt>
      <trkpt lat="41.7435820" lon="2.0197970">
        <ele>500.3</ele>
        <time>2022-09-26T09:28:10Z</time>
      </trkpt>
      <trkpt lat="41.7436090" lon="2.0197510">
        <ele>500.1</ele>
        <time>2022-09-26T09:28:11Z</time>
      </trkpt>
      <trkpt lat="41.7436400" lon="2.0196810">
        <ele>499.7</ele>
        <time>2022-09-26T09:28:12Z</time>
      </trkpt>
      <trkpt lat="41.7436610" lon="2.0196040">
        <ele>499.3</ele>
        <time>2022-09-26T09:28:13Z</time>
      </trkpt>
      <trkpt lat="41.7436790" lon="2.0195220">
        <ele>498.9</ele>
        <time>2022-09-26T09:28:14Z</time>
      </trkpt>
      <trkpt lat="41.7436950" lon="2.0194370">
        <ele>498.5</ele>
        <time>2022-09-26T09:28:15Z</time>
      </trkpt>
      <trkpt lat="41.7437100" lon="2.0193480">
        <ele>498.1</ele>
        <time>2022-09-26T09:28:16Z</time>
      </trkpt>
      <trkpt lat="41.7437270" lon="2.0192590">
        <ele>497.8</ele>
        <time>2022-09-26T09:28:17Z</time>
      </trkpt>
      <trkpt lat="41.7437420" lon="2.0191650">
        <ele>497.4</ele>
        <time>2022-09-26T09:28:18Z</time>
      </trkpt>
      <trkpt lat="41.7437590" lon="2.0190730">
        <ele>497.1</ele>
        <time>2022-09-26T09:28:19Z</time>
      </trkpt>
      <trkpt lat="41.7437770" lon="2.0189990">
        <ele>496.9</ele>
        <time>2022-09-26T09:28:20Z</time>
      </trkpt>
      <trkpt lat="41.7437960" lon="2.0189460">
        <ele>496.7</ele>
        <time>2022-09-26T09:28:21Z</time>
      </trkpt>
      <trkpt lat="41.7438160" lon="2.0189150">
        <ele>496.6</ele>
        <time>2022-09-26T09:28:22Z</time>
      </trkpt>
      <trkpt lat="41.7438400" lon="2.0188920">
        <ele>496.6</ele>
        <time>2022-09-26T09:28:23Z</time>
      </trkpt>
      <trkpt lat="41.7438670" lon="2.0188720">
        <ele>496.6</ele>
        <time>2022-09-26T09:28:24Z</time>
      </trkpt>
      <trkpt lat="41.7438960" lon="2.0188520">
        <ele>496.6</ele>
        <time>2022-09-26T09:28:25Z</time>
      </trkpt>
      <trkpt lat="41.7439240" lon="2.0188310">
        <ele>496.8</ele>
        <time>2022-09-26T09:28:26Z</time>
      </trkpt>
      <trkpt lat="41.7439530" lon="2.0188070">
        <ele>497.0</ele>
        <time>2022-09-26T09:28:27Z</time>
      </trkpt>
      <trkpt lat="41.7439590" lon="2.0188010">
        <ele>497.0</ele>
        <time>2022-09-26T09:28:28Z</time>
      </trkpt>
      <trkpt lat="41.7439720" lon="2.0187850">
        <ele>497.2</ele>
        <time>2022-09-26T09:28:29Z</time>
      </trkpt>
      <trkpt lat="41.7439840" lon="2.0187670">
        <ele>497.4</ele>
        <time>2022-09-26T09:28:30Z</time>
      </trkpt>
      <trkpt lat="41.7440020" lon="2.0187370">
        <ele>497.7</ele>
        <time>2022-09-26T09:28:31Z</time>
      </trkpt>
      <trkpt lat="41.7440060" lon="2.0187270">
        <ele>497.8</ele>
        <time>2022-09-26T09:28:32Z</time>
      </trkpt>
      <trkpt lat="41.7440140" lon="2.0187050">
        <ele>498.0</ele>
        <time>2022-09-26T09:28:33Z</time>
      </trkpt>
      <trkpt lat="41.7440160" lon="2.0186900">
        <ele>498.2</ele>
        <time>2022-09-26T09:28:34Z</time>
      </trkpt>
      <trkpt lat="41.7440190" lon="2.0186610">
        <ele>498.5</ele>
        <time>2022-09-26T09:28:35Z</time>
      </trkpt>
      <trkpt lat="41.7440200" lon="2.0186490">
        <ele>498.6</ele>
        <time>2022-09-26T09:28:36Z</time>
      </trkpt>
      <trkpt lat="41.7440200" lon="2.0186380">
        <ele>498.7</ele>
        <time>2022-09-26T09:28:37Z</time>
      </trkpt>
      <trkpt lat="41.7440190" lon="2.0186170">
        <ele>499.0</ele>
        <time>2022-09-26T09:28:38Z</time>
      </trkpt>
      <trkpt lat="41.7440150" lon="2.0185930">
        <ele>499.2</ele>
        <time>2022-09-26T09:28:39Z</time>
      </trkpt>
      <trkpt lat="41.7440110" lon="2.0185440">
        <ele>499.7</ele>
        <time>2022-09-26T09:28:40Z</time>
      </trkpt>
      <trkpt lat="41.7440100" lon="2.0185240">
        <ele>499.8</ele>
        <time>2022-09-26T09:28:41Z</time>
      </trkpt>
      <trkpt lat="41.7440100" lon="2.0184810">
        <ele>500.1</ele>
        <time>2022-09-26T09:28:42Z</time>
      </trkpt>
      <trkpt lat="41.7440080" lon="2.0184250">
        <ele>500.4</ele>
        <time>2022-09-26T09:28:43Z</time>
      </trkpt>
      <trkpt lat="41.7440080" lon="2.0183610">
        <ele>500.6</ele>
        <time>2022-09-26T09:28:44Z</time>
      </trkpt>
      <trkpt lat="41.7440130" lon="2.0183050">
        <ele>500.7</ele>
        <time>2022-09-26T09:28:45Z</time>
      </trkpt>
      <trkpt lat="41.7440240" lon="2.0182580">
        <ele>500.8</ele>
        <time>2022-09-26T09:28:46Z</time>
      </trkpt>
      <trkpt lat="41.7440380" lon="2.0182250">
        <ele>500.8</ele>
        <time>2022-09-26T09:28:47Z</time>
      </trkpt>
      <trkpt lat="41.7440530" lon="2.0181800">
        <ele>501.0</ele>
        <time>2022-09-26T09:28:48Z</time>
      </trkpt>
      <trkpt lat="41.7440700" lon="2.0181440">
        <ele>501.1</ele>
        <time>2022-09-26T09:28:49Z</time>
      </trkpt>
      <trkpt lat="41.7441000" lon="2.0181090">
        <ele>501.4</ele>
        <time>2022-09-26T09:28:50Z</time>
      </trkpt>
      <trkpt lat="41.7441100" lon="2.0180980">
        <ele>501.5</ele>
        <time>2022-09-26T09:28:51Z</time>
      </trkpt>
      <trkpt lat="41.7441430" lon="2.0180740">
        <ele>501.8</ele>
        <time>2022-09-26T09:28:52Z</time>
      </trkpt>
      <trkpt lat="41.7441540" lon="2.0180670">
        <ele>501.9</ele>
        <time>2022-09-26T09:28:53Z</time>
      </trkpt>
      <trkpt lat="41.7441690" lon="2.0180570">
        <ele>502.1</ele>
        <time>2022-09-26T09:28:54Z</time>
      </trkpt>
      <trkpt lat="41.7441810" lon="2.0180520">
        <ele>502.2</ele>
        <time>2022-09-26T09:28:55Z</time>
      </trkpt>
      <trkpt lat="41.7441980" lon="2.0180410">
        <ele>502.5</ele>
        <time>2022-09-26T09:28:56Z</time>
      </trkpt>
      <trkpt lat="41.7442110" lon="2.0180320">
        <ele>502.7</ele>
        <time>2022-09-26T09:28:57Z</time>
      </trkpt>
      <trkpt lat="41.7442240" lon="2.0180220">
        <ele>502.9</ele>
        <time>2022-09-26T09:28:58Z</time>
      </trkpt>
      <trkpt lat="41.7442390" lon="2.0180070">
        <ele>503.1</ele>
        <time>2022-09-26T09:28:59Z</time>
      </trkpt>
      <trkpt lat="41.7442630" lon="2.0179910">
        <ele>503.5</ele>
        <time>2022-09-26T09:29:00Z</time>
      </trkpt>
      <trkpt lat="41.7442720" lon="2.0179850">
        <ele>503.7</ele>
        <time>2022-09-26T09:29:01Z</time>
      </trkpt>
      <trkpt lat="41.7442980" lon="2.0179670">
        <ele>504.1</ele>
        <time>2022-09-26T09:29:02Z</time>
      </trkpt>
      <trkpt lat="41.7443080" lon="2.0179610">
        <ele>504.3</ele>
        <time>2022-09-26T09:29:03Z</time>
      </trkpt>
      <trkpt lat="41.7443340" lon="2.0179470">
        <ele>504.8</ele>
        <time>2022-09-26T09:29:04Z</time>
      </trkpt>
      <trkpt lat="41.7443430" lon="2.0179430">
        <ele>504.9</ele>
        <time>2022-09-26T09:29:05Z</time>
      </trkpt>
      <trkpt lat="41.7443730" lon="2.0179330">
        <ele>505.4</ele>
        <time>2022-09-26T09:29:06Z</time>
      </trkpt>
      <trkpt lat="41.7443810" lon="2.0179320">
        <ele>505.5</ele>
        <time>2022-09-26T09:29:07Z</time>
      </trkpt>
      <trkpt lat="41.7444000" lon="2.0179350">
        <ele>505.8</ele>
        <time>2022-09-26T09:29:08Z</time>
      </trkpt>
      <trkpt lat="41.7444090" lon="2.0179380">
        <ele>506.0</ele>
        <time>2022-09-26T09:29:09Z</time>
      </trkpt>
      <trkpt lat="41.7444170" lon="2.0179400">
        <ele>506.1</ele>
        <time>2022-09-26T09:29:10Z</time>
      </trkpt>
      <trkpt lat="41.7444330" lon="2.0179490">
        <ele>506.3</ele>
        <time>2022-09-26T09:29:11Z</time>
      </trkpt>
      <trkpt lat="41.7444410" lon="2.0179590">
        <ele>506.5</ele>
        <time>2022-09-26T09:29:12Z</time>
      </trkpt>
      <trkpt lat="41.7444530" lon="2.0179680">
        <ele>506.7</ele>
        <time>2022-09-26T09:29:13Z</time>
      </trkpt>
      <trkpt lat="41.7444660" lon="2.0179750">
        <ele>506.9</ele>
        <time>2022-09-26T09:29:14Z</time>
      </trkpt>
      <trkpt lat="41.7444820" lon="2.0179810">
        <ele>507.1</ele>
        <time>2022-09-26T09:29:15Z</time>
      </trkpt>
      <trkpt lat="41.7444980" lon="2.0179850">
        <ele>507.3</ele>
        <time>2022-09-26T09:29:16Z</time>
      </trkpt>
      <trkpt lat="41.7445150" lon="2.0179910">
        <ele>507.5</ele>
        <time>2022-09-26T09:29:17Z</time>
      </trkpt>
      <trkpt lat="41.7445280" lon="2.0179980">
        <ele>507.7</ele>
        <time>2022-09-26T09:29:18Z</time>
      </trkpt>
      <trkpt lat="41.7445460" lon="2.0180080">
        <ele>508.0</ele>
        <time>2022-09-26T09:29:19Z</time>
      </trkpt>
      <trkpt lat="41.7445610" lon="2.0180170">
        <ele>508.2</ele>
        <time>2022-09-26T09:29:20Z</time>
      </trkpt>
      <trkpt lat="41.7445820" lon="2.0180280">
        <ele>508.5</ele>
        <time>2022-09-26T09:29:21Z</time>
      </trkpt>
      <trkpt lat="41.7445910" lon="2.0180320">
        <ele>508.6</ele>
        <time>2022-09-26T09:29:22Z</time>
      </trkpt>
      <trkpt lat="41.7446000" lon="2.0180360">
        <ele>508.7</ele>
        <time>2022-09-26T09:29:23Z</time>
      </trkpt>
      <trkpt lat="41.7446140" lon="2.0180400">
        <ele>508.9</ele>
        <time>2022-09-26T09:29:24Z</time>
      </trkpt>
      <trkpt lat="41.7446310" lon="2.0180480">
        <ele>509.1</ele>
        <time>2022-09-26T09:29:25Z</time>
      </trkpt>
      <trkpt lat="41.7446430" lon="2.0180580">
        <ele>509.2</ele>
        <time>2022-09-26T09:29:26Z</time>
      </trkpt>
      <trkpt lat="41.7446560" lon="2.0180700">
        <ele>509.4</ele>
        <time>2022-09-26T09:29:27Z</time>
      </trkpt>
      <trkpt lat="41.7446700" lon="2.0180770">
        <ele>509.5</ele>
        <time>2022-09-26T09:29:28Z</time>
      </trkpt>
      <trkpt lat="41.7446840" lon="2.0180840">
        <ele>509.7</ele>
        <time>2022-09-26T09:29:29Z</time>
      </trkpt>
      <trkpt lat="41.7446980" lon="2.0180920">
        <ele>509.8</ele>
        <time>2022-09-26T09:29:30Z</time>
      </trkpt>
      <trkpt lat="41.7447130" lon="2.0181020">
        <ele>509.9</ele>
        <time>2022-09-26T09:29:31Z</time>
      </trkpt>
      <trkpt lat="41.7447340" lon="2.0181270">
        <ele>510.2</ele>
        <time>2022-09-26T09:29:32Z</time>
      </trkpt>
      <trkpt lat="41.7447400" lon="2.0181360">
        <ele>510.2</ele>
        <time>2022-09-26T09:29:33Z</time>
      </trkpt>
      <trkpt lat="41.7447640" lon="2.0181640">
        <ele>510.4</ele>
        <time>2022-09-26T09:29:34Z</time>
      </trkpt>
      <trkpt lat="41.7447730" lon="2.0181730">
        <ele>510.5</ele>
        <time>2022-09-26T09:29:35Z</time>
      </trkpt>
      <trkpt lat="41.7448000" lon="2.0182060">
        <ele>510.7</ele>
        <time>2022-09-26T09:29:36Z</time>
      </trkpt>
      <trkpt lat="41.7448080" lon="2.0182170">
        <ele>510.7</ele>
        <time>2022-09-26T09:29:37Z</time>
      </trkpt>
      <trkpt lat="41.7448330" lon="2.0182540">
        <ele>510.9</ele>
        <time>2022-09-26T09:29:38Z</time>
      </trkpt>
      <trkpt lat="41.7448410" lon="2.0182660">
        <ele>510.9</ele>
        <time>2022-09-26T09:29:39Z</time>
      </trkpt>
      <trkpt lat="41.7448650" lon="2.0182960">
        <ele>511.0</ele>
        <time>2022-09-26T09:29:40Z</time>
      </trkpt>
      <trkpt lat="41.7448730" lon="2.0183050">
        <ele>511.0</ele>
        <time>2022-09-26T09:29:41Z</time>
      </trkpt>
      <trkpt lat="41.7448990" lon="2.0183340">
        <ele>511.1</ele>
        <time>2022-09-26T09:29:42Z</time>
      </trkpt>
      <trkpt lat="41.7449080" lon="2.0183450">
        <ele>511.2</ele>
        <time>2022-09-26T09:29:43Z</time>
      </trkpt>
      <trkpt lat="41.7449300" lon="2.0183750">
        <ele>511.2</ele>
        <time>2022-09-26T09:29:44Z</time>
      </trkpt>
      <trkpt lat="41.7449390" lon="2.0183870">
        <ele>511.3</ele>
        <time>2022-09-26T09:29:45Z</time>
      </trkpt>
      <trkpt lat="41.7449590" lon="2.0184260">
        <ele>511.4</ele>
        <time>2022-09-26T09:29:46Z</time>
      </trkpt>
      <trkpt lat="41.7449640" lon="2.0184370">
        <ele>511.4</ele>
        <time>2022-09-26T09:29:47Z</time>
      </trkpt>
      <trkpt lat="41.7449800" lon="2.0184780">
        <ele>511.5</ele>
        <time>2022-09-26T09:29:48Z</time>
      </trkpt>
      <trkpt lat="41.7449860" lon="2.0184930">
        <ele>511.5</ele>
        <time>2022-09-26T09:29:49Z</time>
      </trkpt>
      <trkpt lat="41.7449960" lon="2.0185360">
        <ele>511.6</ele>
        <time>2022-09-26T09:29:50Z</time>
      </trkpt>
      <trkpt lat="41.7450000" lon="2.0185530">
        <ele>511.6</ele>
        <time>2022-09-26T09:29:51Z</time>
      </trkpt>
      <trkpt lat="41.7450070" lon="2.0186020">
        <ele>511.7</ele>
        <time>2022-09-26T09:29:52Z</time>
      </trkpt>
      <trkpt lat="41.7450100" lon="2.0186200">
        <ele>511.8</ele>
        <time>2022-09-26T09:29:53Z</time>
      </trkpt>
      <trkpt lat="41.7450160" lon="2.0186570">
        <ele>511.9</ele>
        <time>2022-09-26T09:29:54Z</time>
      </trkpt>
      <trkpt lat="41.7450230" lon="2.0186930">
        <ele>511.9</ele>
        <time>2022-09-26T09:29:55Z</time>
      </trkpt>
      <trkpt lat="41.7450290" lon="2.0187280">
        <ele>512.0</ele>
        <time>2022-09-26T09:29:56Z</time>
      </trkpt>
      <trkpt lat="41.7450360" lon="2.0187700">
        <ele>512.1</ele>
        <time>2022-09-26T09:29:57Z</time>
      </trkpt>
      <trkpt lat="41.7450390" lon="2.0187880">
        <ele>512.2</ele>
        <time>2022-09-26T09:29:58Z</time>
      </trkpt>
      <trkpt lat="41.7450470" lon="2.0188390">
        <ele>512.3</ele>
        <time>2022-09-26T09:29:59Z</time>
      </trkpt>
      <trkpt lat="41.7450500" lon="2.0188540">
        <ele>512.3</ele>
        <time>2022-09-26T09:30:00Z</time>
      </trkpt>
      <trkpt lat="41.7450620" lon="2.0189000">
        <ele>512.4</ele>
        <time>2022-09-26T09:30:01Z</time>
      </trkpt>
      <trkpt lat="41.7450670" lon="2.0189140">
        <ele>512.5</ele>
        <time>2022-09-26T09:30:02Z</time>
      </trkpt>
      <trkpt lat="41.7450820" lon="2.0189570">
        <ele>512.6</ele>
        <time>2022-09-26T09:30:03Z</time>
      </trkpt>
      <trkpt lat="41.7450870" lon="2.0189720">
        <ele>512.7</ele>
        <time>2022-09-26T09:30:04Z</time>
      </trkpt>
      <trkpt lat="41.7451020" lon="2.0190080">
        <ele>512.8</ele>
        <time>2022-09-26T09:30:05Z</time>
      </trkpt>
      <trkpt lat="41.7451210" lon="2.0190510">
        <ele>513.0</ele>
        <time>2022-09-26T09:30:06Z</time>
      </trkpt>
      <trkpt lat="41.7451280" lon="2.0190660">
        <ele>513.1</ele>
        <time>2022-09-26T09:30:07Z</time>
      </trkpt>
      <trkpt lat="41.7451440" lon="2.0190960">
        <ele>513.2</ele>
        <time>2022-09-26T09:30:08Z</time>
      </trkpt>
      <trkpt lat="41.7451610" lon="2.0191290">
        <ele>513.4</ele>
        <time>2022-09-26T09:30:09Z</time>
      </trkpt>
      <trkpt lat="41.7451840" lon="2.0191700">
        <ele>513.6</ele>
        <time>2022-09-26T09:30:10Z</time>
      </trkpt>
      <trkpt lat="41.7451920" lon="2.0191850">
        <ele>513.6</ele>
        <time>2022-09-26T09:30:11Z</time>
      </trkpt>
      <trkpt lat="41.7452120" lon="2.0192290">
        <ele>513.9</ele>
        <time>2022-09-26T09:30:12Z</time>
      </trkpt>
      <trkpt lat="41.7452200" lon="2.0192450">
        <ele>513.9</ele>
        <time>2022-09-26T09:30:13Z</time>
      </trkpt>
      <trkpt lat="41.7452350" lon="2.0192770">
        <ele>514.1</ele>
        <time>2022-09-26T09:30:14Z</time>
      </trkpt>
      <trkpt lat="41.7452470" lon="2.0193140">
        <ele>514.3</ele>
        <time>2022-09-26T09:30:15Z</time>
      </trkpt>
      <trkpt lat="41.7452580" lon="2.0193630">
        <ele>514.5</ele>
        <time>2022-09-26T09:30:16Z</time>
      </trkpt>
      <trkpt lat="41.7452610" lon="2.0193790">
        <ele>514.6</ele>
        <time>2022-09-26T09:30:17Z</time>
      </trkpt>
      <trkpt lat="41.7452700" lon="2.0194270">
        <ele>514.9</ele>
        <time>2022-09-26T09:30:18Z</time>
      </trkpt>
      <trkpt lat="41.7452740" lon="2.0194430">
        <ele>515.0</ele>
        <time>2022-09-26T09:30:19Z</time>
      </trkpt>
      <trkpt lat="41.7452860" lon="2.0194840">
        <ele>515.2</ele>
        <time>2022-09-26T09:30:20Z</time>
      </trkpt>
      <trkpt lat="41.7452910" lon="2.0194990">
        <ele>515.3</ele>
        <time>2022-09-26T09:30:21Z</time>
      </trkpt>
      <trkpt lat="41.7453080" lon="2.0195270">
        <ele>515.5</ele>
        <time>2022-09-26T09:30:22Z</time>
      </trkpt>
      <trkpt lat="41.7453140" lon="2.0195360">
        <ele>515.6</ele>
        <time>2022-09-26T09:30:23Z</time>
      </trkpt>
      <trkpt lat="41.7453450" lon="2.0195610">
        <ele>515.9</ele>
        <time>2022-09-26T09:30:24Z</time>
      </trkpt>
      <trkpt lat="41.7453560" lon="2.0195680">
        <ele>516.0</ele>
        <time>2022-09-26T09:30:25Z</time>
      </trkpt>
      <trkpt lat="41.7454000" lon="2.0195850">
        <ele>516.3</ele>
        <time>2022-09-26T09:30:26Z</time>
      </trkpt>
      <trkpt lat="41.7454190" lon="2.0195930">
        <ele>516.4</ele>
        <time>2022-09-26T09:30:27Z</time>
      </trkpt>
      <trkpt lat="41.7454510" lon="2.0195960">
        <ele>516.6</ele>
        <time>2022-09-26T09:30:28Z</time>
      </trkpt>
      <trkpt lat="41.7454900" lon="2.0195850">
        <ele>516.7</ele>
        <time>2022-09-26T09:30:29Z</time>
      </trkpt>
      <trkpt lat="41.7455240" lon="2.0195580">
        <ele>516.9</ele>
        <time>2022-09-26T09:30:30Z</time>
      </trkpt>
      <trkpt lat="41.7455500" lon="2.0195240">
        <ele>517.0</ele>
        <time>2022-09-26T09:30:31Z</time>
      </trkpt>
      <trkpt lat="41.7455730" lon="2.0194910">
        <ele>517.1</ele>
        <time>2022-09-26T09:30:32Z</time>
      </trkpt>
      <trkpt lat="41.7455910" lon="2.0194590">
        <ele>517.2</ele>
        <time>2022-09-26T09:30:33Z</time>
      </trkpt>
      <trkpt lat="41.7456100" lon="2.0194250">
        <ele>517.3</ele>
        <time>2022-09-26T09:30:34Z</time>
      </trkpt>
      <trkpt lat="41.7456340" lon="2.0193820">
        <ele>517.5</ele>
        <time>2022-09-26T09:30:35Z</time>
      </trkpt>
      <trkpt lat="41.7456430" lon="2.0193670">
        <ele>517.6</ele>
        <time>2022-09-26T09:30:36Z</time>
      </trkpt>
      <trkpt lat="41.7456700" lon="2.0193350">
        <ele>517.8</ele>
        <time>2022-09-26T09:30:37Z</time>
      </trkpt>
      <trkpt lat="41.7456800" lon="2.0193250">
        <ele>517.9</ele>
        <time>2022-09-26T09:30:38Z</time>
      </trkpt>
      <trkpt lat="41.7457080" lon="2.0193110">
        <ele>518.1</ele>
        <time>2022-09-26T09:30:39Z</time>
      </trkpt>
      <trkpt lat="41.7457350" lon="2.0193120">
        <ele>518.3</ele>
        <time>2022-09-26T09:30:40Z</time>
      </trkpt>
      <trkpt lat="41.7457700" lon="2.0193190">
        <ele>518.7</ele>
        <time>2022-09-26T09:30:41Z</time>
      </trkpt>
      <trkpt lat="41.7457810" lon="2.0193230">
        <ele>518.9</ele>
        <time>2022-09-26T09:30:42Z</time>
      </trkpt>
      <trkpt lat="41.7458000" lon="2.0193390">
        <ele>519.1</ele>
        <time>2022-09-26T09:30:43Z</time>
      </trkpt>
      <trkpt lat="41.7458000" lon="2.0193630">
        <ele>519.3</ele>
        <time>2022-09-26T09:30:44Z</time>
      </trkpt>
      <trkpt lat="41.7457990" lon="2.0194120">
        <ele>519.7</ele>
        <time>2022-09-26T09:30:45Z</time>
      </trkpt>
      <trkpt lat="41.7457980" lon="2.0194310">
        <ele>519.9</ele>
        <time>2022-09-26T09:30:46Z</time>
      </trkpt>
      <trkpt lat="41.7457980" lon="2.0194780">
        <ele>520.3</ele>
        <time>2022-09-26T09:30:47Z</time>
      </trkpt>
      <trkpt lat="41.7457990" lon="2.0194920">
        <ele>520.5</ele>
        <time>2022-09-26T09:30:48Z</time>
      </trkpt>
      <trkpt lat="41.7458030" lon="2.0195330">
        <ele>520.8</ele>
        <time>2022-09-26T09:30:49Z</time>
      </trkpt>
      <trkpt lat="41.7458050" lon="2.0195470">
        <ele>521.0</ele>
        <time>2022-09-26T09:30:50Z</time>
      </trkpt>
      <trkpt lat="41.7458050" lon="2.0195860">
        <ele>521.3</ele>
        <time>2022-09-26T09:30:51Z</time>
      </trkpt>
      <trkpt lat="41.7458040" lon="2.0195970">
        <ele>521.4</ele>
        <time>2022-09-26T09:30:52Z</time>
      </trkpt>
      <trkpt lat="41.7458010" lon="2.0196150">
        <ele>521.6</ele>
        <time>2022-09-26T09:30:53Z</time>
      </trkpt>
      <trkpt lat="41.7457980" lon="2.0196370">
        <ele>521.8</ele>
        <time>2022-09-26T09:30:54Z</time>
      </trkpt>
      <trkpt lat="41.7457960" lon="2.0196540">
        <ele>521.9</ele>
        <time>2022-09-26T09:30:55Z</time>
      </trkpt>
      <trkpt lat="41.7457940" lon="2.0196800">
        <ele>522.1</ele>
        <time>2022-09-26T09:30:56Z</time>
      </trkpt>
      <trkpt lat="41.7457910" lon="2.0197220">
        <ele>522.5</ele>
        <time>2022-09-26T09:30:57Z</time>
      </trkpt>
      <trkpt lat="41.7457900" lon="2.0197360">
        <ele>522.6</ele>
        <time>2022-09-26T09:30:58Z</time>
      </trkpt>
      <trkpt lat="41.7457890" lon="2.0197590">
        <ele>522.8</ele>
        <time>2022-09-26T09:30:59Z</time>
      </trkpt>
      <trkpt lat="41.7457870" lon="2.0197820">
        <ele>523.0</ele>
        <time>2022-09-26T09:31:00Z</time>
      </trkpt>
      <trkpt lat="41.7457850" lon="2.0198040">
        <ele>523.2</ele>
        <time>2022-09-26T09:31:01Z</time>
      </trkpt>
      <trkpt lat="41.7457830" lon="2.0198290">
        <ele>523.5</ele>
        <time>2022-09-26T09:31:02Z</time>
      </trkpt>
      <trkpt lat="41.7457790" lon="2.0198700">
        <ele>523.8</ele>
        <time>2022-09-26T09:31:03Z</time>
      </trkpt>
      <trkpt lat="41.7457780" lon="2.0198850">
        <ele>524.0</ele>
        <time>2022-09-26T09:31:04Z</time>
      </trkpt>
      <trkpt lat="41.7457750" lon="2.0199010">
        <ele>524.1</ele>
        <time>2022-09-26T09:31:05Z</time>
      </trkpt>
      <trkpt lat="41.7457710" lon="2.0199220">
        <ele>524.3</ele>
        <time>2022-09-26T09:31:06Z</time>
      </trkpt>
      <trkpt lat="41.7457670" lon="2.0199410">
        <ele>524.5</ele>
        <time>2022-09-26T09:31:07Z</time>
      </trkpt>
      <trkpt lat="41.7457640" lon="2.0199690">
        <ele>524.8</ele>
        <time>2022-09-26T09:31:08Z</time>
      </trkpt>
      <trkpt lat="41.7457620" lon="2.0199920">
        <ele>525.0</ele>
        <time>2022-09-26T09:31:09Z</time>
      </trkpt>
      <trkpt lat="41.7457590" lon="2.0200140">
        <ele>525.2</ele>
        <time>2022-09-26T09:31:10Z</time>
      </trkpt>
      <trkpt lat="41.7457550" lon="2.0200370">
        <ele>525.4</ele>
        <time>2022-09-26T09:31:11Z</time>
      </trkpt>
      <trkpt lat="41.7457520" lon="2.0200600">
        <ele>525.6</ele>
        <time>2022-09-26T09:31:12Z</time>
      </trkpt>
      <trkpt lat="41.7457500" lon="2.0200810">
        <ele>525.7</ele>
        <time>2022-09-26T09:31:13Z</time>
      </trkpt>
      <trkpt lat="41.7457460" lon="2.0201040">
        <ele>525.9</ele>
        <time>2022-09-26T09:31:14Z</time>
      </trkpt>
      <trkpt lat="41.7457430" lon="2.0201260">
        <ele>526.2</ele>
        <time>2022-09-26T09:31:15Z</time>
      </trkpt>
      <trkpt lat="41.7457420" lon="2.0201490">
        <ele>526.4</ele>
        <time>2022-09-26T09:31:16Z</time>
      </trkpt>
      <trkpt lat="41.7457420" lon="2.0201680">
        <ele>526.5</ele>
        <time>2022-09-26T09:31:17Z</time>
      </trkpt>
      <trkpt lat="41.7457450" lon="2.0201940">
        <ele>526.7</ele>
        <time>2022-09-26T09:31:18Z</time>
      </trkpt>
      <trkpt lat="41.7457490" lon="2.0202310">
        <ele>527.0</ele>
        <time>2022-09-26T09:31:19Z</time>
      </trkpt>
      <trkpt lat="41.7457500" lon="2.0202430">
        <ele>527.1</ele>
        <time>2022-09-26T09:31:20Z</time>
      </trkpt>
      <trkpt lat="41.7457530" lon="2.0202680">
        <ele>527.2</ele>
        <time>2022-09-26T09:31:21Z</time>
      </trkpt>
      <trkpt lat="41.7457560" lon="2.0202900">
        <ele>527.4</ele>
        <time>2022-09-26T09:31:22Z</time>
      </trkpt>
      <trkpt lat="41.7457600" lon="2.0203090">
        <ele>527.4</ele>
        <time>2022-09-26T09:31:23Z</time>
      </trkpt>
      <trkpt lat="41.7457640" lon="2.0203270">
        <ele>527.5</ele>
        <time>2022-09-26T09:31:24Z</time>
      </trkpt>
      <trkpt lat="41.7457760" lon="2.0203660">
        <ele>527.6</ele>
        <time>2022-09-26T09:31:25Z</time>
      </trkpt>
      <trkpt lat="41.7457800" lon="2.0203790">
        <ele>527.6</ele>
        <time>2022-09-26T09:31:26Z</time>
      </trkpt>
      <trkpt lat="41.7457970" lon="2.0204130">
        <ele>527.7</ele>
        <time>2022-09-26T09:31:27Z</time>
      </trkpt>
      <trkpt lat="41.7458040" lon="2.0204270">
        <ele>527.7</ele>
        <time>2022-09-26T09:31:28Z</time>
      </trkpt>
      <trkpt lat="41.7458210" lon="2.0204560">
        <ele>527.6</ele>
        <time>2022-09-26T09:31:29Z</time>
      </trkpt>
      <trkpt lat="41.7458400" lon="2.0204830">
        <ele>527.5</ele>
        <time>2022-09-26T09:31:30Z</time>
      </trkpt>
      <trkpt lat="41.7458630" lon="2.0205070">
        <ele>527.4</ele>
        <time>2022-09-26T09:31:31Z</time>
      </trkpt>
      <trkpt lat="41.7458860" lon="2.0205280">
        <ele>527.3</ele>
        <time>2022-09-26T09:31:32Z</time>
      </trkpt>
      <trkpt lat="41.7459150" lon="2.0205480">
        <ele>527.1</ele>
        <time>2022-09-26T09:31:33Z</time>
      </trkpt>
      <trkpt lat="41.7459480" lon="2.0205630">
        <ele>526.9</ele>
        <time>2022-09-26T09:31:34Z</time>
      </trkpt>
      <trkpt lat="41.7459830" lon="2.0205730">
        <ele>526.7</ele>
        <time>2022-09-26T09:31:35Z</time>
      </trkpt>
      <trkpt lat="41.7460280" lon="2.0205910">
        <ele>526.4</ele>
        <time>2022-09-26T09:31:36Z</time>
      </trkpt>
      <trkpt lat="41.7460580" lon="2.0206070">
        <ele>526.2</ele>
        <time>2022-09-26T09:31:37Z</time>
      </trkpt>
      <trkpt lat="41.7460890" lon="2.0206300">
        <ele>526.0</ele>
        <time>2022-09-26T09:31:38Z</time>
      </trkpt>
      <trkpt lat="41.7461210" lon="2.0206540">
        <ele>525.8</ele>
        <time>2022-09-26T09:31:39Z</time>
      </trkpt>
      <trkpt lat="41.7461490" lon="2.0206770">
        <ele>525.5</ele>
        <time>2022-09-26T09:31:40Z</time>
      </trkpt>
      <trkpt lat="41.7461880" lon="2.0206960">
        <ele>525.2</ele>
        <time>2022-09-26T09:31:41Z</time>
      </trkpt>
      <trkpt lat="41.7462020" lon="2.0206990">
        <ele>525.0</ele>
        <time>2022-09-26T09:31:42Z</time>
      </trkpt>
      <trkpt lat="41.7462320" lon="2.0206920">
        <ele>524.7</ele>
        <time>2022-09-26T09:31:43Z</time>
      </trkpt>
      <trkpt lat="41.7462610" lon="2.0206720">
        <ele>524.4</ele>
        <time>2022-09-26T09:31:44Z</time>
      </trkpt>
      <trkpt lat="41.7462890" lon="2.0206430">
        <ele>523.9</ele>
        <time>2022-09-26T09:31:45Z</time>
      </trkpt>
      <trkpt lat="41.7463170" lon="2.0206010">
        <ele>523.4</ele>
        <time>2022-09-26T09:31:46Z</time>
      </trkpt>
      <trkpt lat="41.7463460" lon="2.0205540">
        <ele>522.9</ele>
        <time>2022-09-26T09:31:47Z</time>
      </trkpt>
      <trkpt lat="41.7463860" lon="2.0204960">
        <ele>522.2</ele>
        <time>2022-09-26T09:31:48Z</time>
      </trkpt>
      <trkpt lat="41.7464230" lon="2.0204350">
        <ele>521.6</ele>
        <time>2022-09-26T09:31:49Z</time>
      </trkpt>
      <trkpt lat="41.7464600" lon="2.0203820">
        <ele>521.1</ele>
        <time>2022-09-26T09:31:50Z</time>
      </trkpt>
      <trkpt lat="41.7464860" lon="2.0203450">
        <ele>520.7</ele>
        <time>2022-09-26T09:31:51Z</time>
      </trkpt>
      <trkpt lat="41.7465280" lon="2.0202860">
        <ele>520.1</ele>
        <time>2022-09-26T09:31:52Z</time>
      </trkpt>
      <trkpt lat="41.7465670" lon="2.0202260">
        <ele>519.4</ele>
        <time>2022-09-26T09:31:53Z</time>
      </trkpt>
      <trkpt lat="41.7466040" lon="2.0201560">
        <ele>518.8</ele>
        <time>2022-09-26T09:31:54Z</time>
      </trkpt>
      <trkpt lat="41.7466410" lon="2.0200870">
        <ele>518.1</ele>
        <time>2022-09-26T09:31:55Z</time>
      </trkpt>
      <trkpt lat="41.7466800" lon="2.0200270">
        <ele>517.5</ele>
        <time>2022-09-26T09:31:56Z</time>
      </trkpt>
      <trkpt lat="41.7467220" lon="2.0199730">
        <ele>517.0</ele>
        <time>2022-09-26T09:31:57Z</time>
      </trkpt>
      <trkpt lat="41.7467720" lon="2.0199280">
        <ele>516.4</ele>
        <time>2022-09-26T09:31:58Z</time>
      </trkpt>
      <trkpt lat="41.7468210" lon="2.0198970">
        <ele>515.7</ele>
        <time>2022-09-26T09:31:59Z</time>
      </trkpt>
      <trkpt lat="41.7468720" lon="2.0198730">
        <ele>515.1</ele>
        <time>2022-09-26T09:32:00Z</time>
      </trkpt>
      <trkpt lat="41.7469210" lon="2.0198550">
        <ele>514.5</ele>
        <time>2022-09-26T09:32:01Z</time>
      </trkpt>
      <trkpt lat="41.7469650" lon="2.0198320">
        <ele>513.9</ele>
        <time>2022-09-26T09:32:02Z</time>
      </trkpt>
      <trkpt lat="41.7469910" lon="2.0198190">
        <ele>513.5</ele>
        <time>2022-09-26T09:32:03Z</time>
      </trkpt>
      <trkpt lat="41.7470210" lon="2.0197970">
        <ele>513.1</ele>
        <time>2022-09-26T09:32:04Z</time>
      </trkpt>
      <trkpt lat="41.7470510" lon="2.0197720">
        <ele>512.6</ele>
        <time>2022-09-26T09:32:05Z</time>
      </trkpt>
      <trkpt lat="41.7470830" lon="2.0197450">
        <ele>512.0</ele>
        <time>2022-09-26T09:32:06Z</time>
      </trkpt>
      <trkpt lat="41.7471130" lon="2.0197210">
        <ele>511.5</ele>
        <time>2022-09-26T09:32:07Z</time>
      </trkpt>
      <trkpt lat="41.7471510" lon="2.0196960">
        <ele>510.9</ele>
        <time>2022-09-26T09:32:08Z</time>
      </trkpt>
      <trkpt lat="41.7471670" lon="2.0196870">
        <ele>510.7</ele>
        <time>2022-09-26T09:32:09Z</time>
      </trkpt>
      <trkpt lat="41.7471940" lon="2.0196780">
        <ele>510.3</ele>
        <time>2022-09-26T09:32:10Z</time>
      </trkpt>
      <trkpt lat="41.7472270" lon="2.0196710">
        <ele>509.8</ele>
        <time>2022-09-26T09:32:11Z</time>
      </trkpt>
      <trkpt lat="41.7472620" lon="2.0196690">
        <ele>509.3</ele>
        <time>2022-09-26T09:32:12Z</time>
      </trkpt>
      <trkpt lat="41.7472980" lon="2.0196730">
        <ele>509.1</ele>
        <time>2022-09-26T09:32:13Z</time>
      </trkpt>
      <trkpt lat="41.7473290" lon="2.0196830">
        <ele>509.0</ele>
        <time>2022-09-26T09:32:14Z</time>
      </trkpt>
      <trkpt lat="41.7473660" lon="2.0197070">
        <ele>508.9</ele>
        <time>2022-09-26T09:32:15Z</time>
      </trkpt>
      <trkpt lat="41.7473790" lon="2.0197180">
        <ele>508.8</ele>
        <time>2022-09-26T09:32:16Z</time>
      </trkpt>
      <trkpt lat="41.7473870" lon="2.0197600">
        <ele>508.9</ele>
        <time>2022-09-26T09:32:17Z</time>
      </trkpt>
      <trkpt lat="41.7473850" lon="2.0197740">
        <ele>508.9</ele>
        <time>2022-09-26T09:32:18Z</time>
      </trkpt>
      <trkpt lat="41.7473770" lon="2.0198250">
        <ele>509.0</ele>
        <time>2022-09-26T09:32:19Z</time>
      </trkpt>
      <trkpt lat="41.7473750" lon="2.0198430">
        <ele>509.0</ele>
        <time>2022-09-26T09:32:20Z</time>
      </trkpt>
      <trkpt lat="41.7473730" lon="2.0198880">
        <ele>509.2</ele>
        <time>2022-09-26T09:32:21Z</time>
      </trkpt>
      <trkpt lat="41.7473730" lon="2.0199050">
        <ele>509.2</ele>
        <time>2022-09-26T09:32:22Z</time>
      </trkpt>
      <trkpt lat="41.7473740" lon="2.0199540">
        <ele>509.4</ele>
        <time>2022-09-26T09:32:23Z</time>
      </trkpt>
      <trkpt lat="41.7473740" lon="2.0199700">
        <ele>509.5</ele>
        <time>2022-09-26T09:32:24Z</time>
      </trkpt>
      <trkpt lat="41.7473710" lon="2.0200160">
        <ele>509.7</ele>
        <time>2022-09-26T09:32:25Z</time>
      </trkpt>
      <trkpt lat="41.7473700" lon="2.0200330">
        <ele>509.7</ele>
        <time>2022-09-26T09:32:26Z</time>
      </trkpt>
      <trkpt lat="41.7473700" lon="2.0200780">
        <ele>509.9</ele>
        <time>2022-09-26T09:32:27Z</time>
      </trkpt>
      <trkpt lat="41.7473700" lon="2.0200900">
        <ele>509.9</ele>
        <time>2022-09-26T09:32:28Z</time>
      </trkpt>
      <trkpt lat="41.7473720" lon="2.0201270">
        <ele>510.0</ele>
        <time>2022-09-26T09:32:29Z</time>
      </trkpt>
      <trkpt lat="41.7473760" lon="2.0201690">
        <ele>510.2</ele>
        <time>2022-09-26T09:32:30Z</time>
      </trkpt>
      <trkpt lat="41.7473770" lon="2.0201830">
        <ele>510.2</ele>
        <time>2022-09-26T09:32:31Z</time>
      </trkpt>
      <trkpt lat="41.7473820" lon="2.0202260">
        <ele>510.3</ele>
        <time>2022-09-26T09:32:32Z</time>
      </trkpt>
      <trkpt lat="41.7473830" lon="2.0202430">
        <ele>510.4</ele>
        <time>2022-09-26T09:32:33Z</time>
      </trkpt>
      <trkpt lat="41.7473850" lon="2.0202800">
        <ele>510.5</ele>
        <time>2022-09-26T09:32:34Z</time>
      </trkpt>
      <trkpt lat="41.7473820" lon="2.0203290">
        <ele>510.6</ele>
        <time>2022-09-26T09:32:35Z</time>
      </trkpt>
      <trkpt lat="41.7473800" lon="2.0203450">
        <ele>510.7</ele>
        <time>2022-09-26T09:32:36Z</time>
      </trkpt>
      <trkpt lat="41.7473720" lon="2.0203950">
        <ele>510.8</ele>
        <time>2022-09-26T09:32:37Z</time>
      </trkpt>
      <trkpt lat="41.7473700" lon="2.0204100">
        <ele>510.8</ele>
        <time>2022-09-26T09:32:38Z</time>
      </trkpt>
      <trkpt lat="41.7473640" lon="2.0204470">
        <ele>511.0</ele>
        <time>2022-09-26T09:32:39Z</time>
      </trkpt>
      <trkpt lat="41.7473560" lon="2.0204850">
        <ele>511.1</ele>
        <time>2022-09-26T09:32:40Z</time>
      </trkpt>
      <trkpt lat="41.7473490" lon="2.0205220">
        <ele>511.2</ele>
        <time>2022-09-26T09:32:41Z</time>
      </trkpt>
      <trkpt lat="41.7473410" lon="2.0205700">
        <ele>511.4</ele>
        <time>2022-09-26T09:32:42Z</time>
      </trkpt>
      <trkpt lat="41.7473380" lon="2.0205870">
        <ele>511.5</ele>
        <time>2022-09-26T09:32:43Z</time>
      </trkpt>
      <trkpt lat="41.7473310" lon="2.0206330">
        <ele>511.6</ele>
        <time>2022-09-26T09:32:44Z</time>
      </trkpt>
      <trkpt lat="41.7473280" lon="2.0206480">
        <ele>511.7</ele>
        <time>2022-09-26T09:32:45Z</time>
      </trkpt>
      <trkpt lat="41.7473220" lon="2.0206880">
        <ele>511.9</ele>
        <time>2022-09-26T09:32:46Z</time>
      </trkpt>
      <trkpt lat="41.7473180" lon="2.0207310">
        <ele>512.1</ele>
        <time>2022-09-26T09:32:47Z</time>
      </trkpt>
      <trkpt lat="41.7473180" lon="2.0207460">
        <ele>512.1</ele>
        <time>2022-09-26T09:32:48Z</time>
      </trkpt>
      <trkpt lat="41.7473190" lon="2.0207920">
        <ele>512.4</ele>
        <time>2022-09-26T09:32:49Z</time>
      </trkpt>
      <trkpt lat="41.7473200" lon="2.0208040">
        <ele>512.4</ele>
        <time>2022-09-26T09:32:50Z</time>
      </trkpt>
      <trkpt lat="41.7473240" lon="2.0208260">
        <ele>512.6</ele>
        <time>2022-09-26T09:32:51Z</time>
      </trkpt>
      <trkpt lat="41.7473280" lon="2.0208500">
        <ele>512.7</ele>
        <time>2022-09-26T09:32:52Z</time>
      </trkpt>
      <trkpt lat="41.7473350" lon="2.0208880">
        <ele>512.9</ele>
        <time>2022-09-26T09:32:53Z</time>
      </trkpt>
      <trkpt lat="41.7473370" lon="2.0209000">
        <ele>512.9</ele>
        <time>2022-09-26T09:32:54Z</time>
      </trkpt>
      <trkpt lat="41.7473440" lon="2.0209370">
        <ele>513.1</ele>
        <time>2022-09-26T09:32:55Z</time>
      </trkpt>
      <trkpt lat="41.7473470" lon="2.0209500">
        <ele>513.2</ele>
        <time>2022-09-26T09:32:56Z</time>
      </trkpt>
      <trkpt lat="41.7473580" lon="2.0209930">
        <ele>513.4</ele>
        <time>2022-09-26T09:32:57Z</time>
      </trkpt>
      <trkpt lat="41.7473620" lon="2.0210070">
        <ele>513.5</ele>
        <time>2022-09-26T09:32:58Z</time>
      </trkpt>
      <trkpt lat="41.7473710" lon="2.0210430">
        <ele>513.6</ele>
        <time>2022-09-26T09:32:59Z</time>
      </trkpt>
      <trkpt lat="41.7473740" lon="2.0210550">
        <ele>513.7</ele>
        <time>2022-09-26T09:33:00Z</time>
      </trkpt>
      <trkpt lat="41.7473840" lon="2.0210980">
        <ele>513.9</ele>
        <time>2022-09-26T09:33:01Z</time>
      </trkpt>
      <trkpt lat="41.7473870" lon="2.0211130">
        <ele>513.9</ele>
        <time>2022-09-26T09:33:02Z</time>
      </trkpt>
      <trkpt lat="41.7473930" lon="2.0211610">
        <ele>514.1</ele>
        <time>2022-09-26T09:33:03Z</time>
      </trkpt>
      <trkpt lat="41.7473950" lon="2.0211770">
        <ele>514.1</ele>
        <time>2022-09-26T09:33:04Z</time>
      </trkpt>
      <trkpt lat="41.7473980" lon="2.0212270">
        <ele>514.3</ele>
        <time>2022-09-26T09:33:05Z</time>
      </trkpt>
      <trkpt lat="41.7473980" lon="2.0212420">
        <ele>514.3</ele>
        <time>2022-09-26T09:33:06Z</time>
      </trkpt>
      <trkpt lat="41.7474000" lon="2.0212670">
        <ele>514.3</ele>
        <time>2022-09-26T09:33:07Z</time>
      </trkpt>
      <trkpt lat="41.7474010" lon="2.0212880">
        <ele>514.4</ele>
        <time>2022-09-26T09:33:08Z</time>
      </trkpt>
      <trkpt lat="41.7474080" lon="2.0213250">
        <ele>514.4</ele>
        <time>2022-09-26T09:33:09Z</time>
      </trkpt>
      <trkpt lat="41.7474110" lon="2.0213380">
        <ele>514.5</ele>
        <time>2022-09-26T09:33:10Z</time>
      </trkpt>
      <trkpt lat="41.7474250" lon="2.0213820">
        <ele>514.5</ele>
        <time>2022-09-26T09:33:11Z</time>
      </trkpt>
      <trkpt lat="41.7474290" lon="2.0213970">
        <ele>514.6</ele>
        <time>2022-09-26T09:33:12Z</time>
      </trkpt>
      <trkpt lat="41.7474470" lon="2.0214410">
        <ele>514.6</ele>
        <time>2022-09-26T09:33:13Z</time>
      </trkpt>
      <trkpt lat="41.7474530" lon="2.0214540">
        <ele>514.6</ele>
        <time>2022-09-26T09:33:14Z</time>
      </trkpt>
      <trkpt lat="41.7474730" lon="2.0214970">
        <ele>514.6</ele>
        <time>2022-09-26T09:33:15Z</time>
      </trkpt>
      <trkpt lat="41.7474800" lon="2.0215110">
        <ele>514.5</ele>
        <time>2022-09-26T09:33:16Z</time>
      </trkpt>
      <trkpt lat="41.7475010" lon="2.0215410">
        <ele>514.5</ele>
        <time>2022-09-26T09:33:17Z</time>
      </trkpt>
      <trkpt lat="41.7475250" lon="2.0215740">
        <ele>514.4</ele>
        <time>2022-09-26T09:33:18Z</time>
      </trkpt>
      <trkpt lat="41.7475550" lon="2.0216190">
        <ele>514.3</ele>
        <time>2022-09-26T09:33:19Z</time>
      </trkpt>
      <trkpt lat="41.7475820" lon="2.0216550">
        <ele>514.2</ele>
        <time>2022-09-26T09:33:20Z</time>
      </trkpt>
      <trkpt lat="41.7476120" lon="2.0216860">
        <ele>514.0</ele>
        <time>2022-09-26T09:33:21Z</time>
      </trkpt>
      <trkpt lat="41.7476440" lon="2.0216990">
        <ele>513.9</ele>
        <time>2022-09-26T09:33:22Z</time>
      </trkpt>
      <trkpt lat="41.7476790" lon="2.0216990">
        <ele>513.8</ele>
        <time>2022-09-26T09:33:23Z</time>
      </trkpt>
      <trkpt lat="41.7477070" lon="2.0216880">
        <ele>513.7</ele>
        <time>2022-09-26T09:33:24Z</time>
      </trkpt>
      <trkpt lat="41.7477310" lon="2.0216700">
        <ele>513.6</ele>
        <time>2022-09-26T09:33:25Z</time>
      </trkpt>
      <trkpt lat="41.7477460" lon="2.0216290">
        <ele>513.5</ele>
        <time>2022-09-26T09:33:26Z</time>
      </trkpt>
      <trkpt lat="41.7477480" lon="2.0216130">
        <ele>513.5</ele>
        <time>2022-09-26T09:33:27Z</time>
      </trkpt>
      <trkpt lat="41.7477490" lon="2.0215670">
        <ele>513.4</ele>
        <time>2022-09-26T09:33:28Z</time>
      </trkpt>
      <trkpt lat="41.7477490" lon="2.0215540">
        <ele>513.4</ele>
        <time>2022-09-26T09:33:29Z</time>
      </trkpt>
      <trkpt lat="41.7477470" lon="2.0215160">
        <ele>513.4</ele>
        <time>2022-09-26T09:33:30Z</time>
      </trkpt>
      <trkpt lat="41.7477450" lon="2.0215040">
        <ele>513.5</ele>
        <time>2022-09-26T09:33:31Z</time>
      </trkpt>
      <trkpt lat="41.7477370" lon="2.0214690">
        <ele>513.5</ele>
        <time>2022-09-26T09:33:32Z</time>
      </trkpt>
      <trkpt lat="41.7477350" lon="2.0214560">
        <ele>513.5</ele>
        <time>2022-09-26T09:33:33Z</time>
      </trkpt>
      <trkpt lat="41.7477300" lon="2.0214080">
        <ele>513.6</ele>
        <time>2022-09-26T09:33:34Z</time>
      </trkpt>
      <trkpt lat="41.7477280" lon="2.0213880">
        <ele>513.6</ele>
        <time>2022-09-26T09:33:35Z</time>
      </trkpt>
      <trkpt lat="41.7477210" lon="2.0213510">
        <ele>513.7</ele>
        <time>2022-09-26T09:33:36Z</time>
      </trkpt>
      <trkpt lat="41.7477140" lon="2.0213160">
        <ele>513.7</ele>
        <time>2022-09-26T09:33:37Z</time>
      </trkpt>
      <trkpt lat="41.7477080" lon="2.0212790">
        <ele>513.6</ele>
        <time>2022-09-26T09:33:38Z</time>
      </trkpt>
      <trkpt lat="41.7477010" lon="2.0212330">
        <ele>513.5</ele>
        <time>2022-09-26T09:33:39Z</time>
      </trkpt>
      <trkpt lat="41.7476940" lon="2.0211740">
        <ele>513.3</ele>
        <time>2022-09-26T09:33:40Z</time>
      </trkpt>
      <trkpt lat="41.7476900" lon="2.0210970">
        <ele>512.9</ele>
        <time>2022-09-26T09:33:41Z</time>
      </trkpt>
      <trkpt lat="41.7476860" lon="2.0210140">
        <ele>512.4</ele>
        <time>2022-09-26T09:33:42Z</time>
      </trkpt>
      <trkpt lat="41.7476810" lon="2.0209380">
        <ele>511.9</ele>
        <time>2022-09-26T09:33:43Z</time>
      </trkpt>
      <trkpt lat="41.7476810" lon="2.0208760">
        <ele>511.4</ele>
        <time>2022-09-26T09:33:44Z</time>
      </trkpt>
      <trkpt lat="41.7476830" lon="2.0207950">
        <ele>510.7</ele>
        <time>2022-09-26T09:33:45Z</time>
      </trkpt>
      <trkpt lat="41.7476900" lon="2.0207220">
        <ele>510.0</ele>
        <time>2022-09-26T09:33:46Z</time>
      </trkpt>
      <trkpt lat="41.7476970" lon="2.0206480">
        <ele>509.3</ele>
        <time>2022-09-26T09:33:47Z</time>
      </trkpt>
      <trkpt lat="41.7477050" lon="2.0205760">
        <ele>508.7</ele>
        <time>2022-09-26T09:33:48Z</time>
      </trkpt>
      <trkpt lat="41.7477160" lon="2.0205060">
        <ele>508.0</ele>
        <time>2022-09-26T09:33:49Z</time>
      </trkpt>
      <trkpt lat="41.7477250" lon="2.0204370">
        <ele>507.4</ele>
        <time>2022-09-26T09:33:50Z</time>
      </trkpt>
      <trkpt lat="41.7477350" lon="2.0203670">
        <ele>506.8</ele>
        <time>2022-09-26T09:33:51Z</time>
      </trkpt>
      <trkpt lat="41.7477480" lon="2.0203000">
        <ele>506.2</ele>
        <time>2022-09-26T09:33:52Z</time>
      </trkpt>
      <trkpt lat="41.7477630" lon="2.0202350">
        <ele>505.6</ele>
        <time>2022-09-26T09:33:53Z</time>
      </trkpt>
      <trkpt lat="41.7477840" lon="2.0201730">
        <ele>505.1</ele>
        <time>2022-09-26T09:33:54Z</time>
      </trkpt>
      <trkpt lat="41.7478080" lon="2.0201130">
        <ele>504.6</ele>
        <time>2022-09-26T09:33:55Z</time>
      </trkpt>
      <trkpt lat="41.7478320" lon="2.0200560">
        <ele>504.2</ele>
        <time>2022-09-26T09:33:56Z</time>
      </trkpt>
      <trkpt lat="41.7478570" lon="2.0200000">
        <ele>503.8</ele>
        <time>2022-09-26T09:33:57Z</time>
      </trkpt>
      <trkpt lat="41.7478820" lon="2.0199440">
        <ele>503.6</ele>
        <time>2022-09-26T09:33:58Z</time>
      </trkpt>
      <trkpt lat="41.7479020" lon="2.0198890">
        <ele>503.3</ele>
        <time>2022-09-26T09:33:59Z</time>
      </trkpt>
      <trkpt lat="41.7479230" lon="2.0198340">
        <ele>503.1</ele>
        <time>2022-09-26T09:34:00Z</time>
      </trkpt>
      <trkpt lat="41.7479450" lon="2.0197790">
        <ele>502.9</ele>
        <time>2022-09-26T09:34:01Z</time>
      </trkpt>
      <trkpt lat="41.7479660" lon="2.0197210">
        <ele>502.8</ele>
        <time>2022-09-26T09:34:02Z</time>
      </trkpt>
      <trkpt lat="41.7479840" lon="2.0196560">
        <ele>502.6</ele>
        <time>2022-09-26T09:34:03Z</time>
      </trkpt>
      <trkpt lat="41.7480010" lon="2.0195840">
        <ele>502.4</ele>
        <time>2022-09-26T09:34:04Z</time>
      </trkpt>
      <trkpt lat="41.7480200" lon="2.0195050">
        <ele>502.3</ele>
        <time>2022-09-26T09:34:05Z</time>
      </trkpt>
      <trkpt lat="41.7480430" lon="2.0194220">
        <ele>502.2</ele>
        <time>2022-09-26T09:34:06Z</time>
      </trkpt>
      <trkpt lat="41.7480710" lon="2.0193430">
        <ele>502.2</ele>
        <time>2022-09-26T09:34:07Z</time>
      </trkpt>
      <trkpt lat="41.7481060" lon="2.0192650">
        <ele>502.3</ele>
        <time>2022-09-26T09:34:08Z</time>
      </trkpt>
      <trkpt lat="41.7481490" lon="2.0191920">
        <ele>502.6</ele>
        <time>2022-09-26T09:34:09Z</time>
      </trkpt>
      <trkpt lat="41.7481980" lon="2.0191330">
        <ele>502.9</ele>
        <time>2022-09-26T09:34:10Z</time>
      </trkpt>
      <trkpt lat="41.7482450" lon="2.0190970">
        <ele>503.2</ele>
        <time>2022-09-26T09:34:11Z</time>
      </trkpt>
      <trkpt lat="41.7482770" lon="2.0190900">
        <ele>503.4</ele>
        <time>2022-09-26T09:34:12Z</time>
      </trkpt>
      <trkpt lat="41.7483170" lon="2.0190720">
        <ele>503.8</ele>
        <time>2022-09-26T09:34:13Z</time>
      </trkpt>
      <trkpt lat="41.7483520" lon="2.0190650">
        <ele>504.1</ele>
        <time>2022-09-26T09:34:14Z</time>
      </trkpt>
      <trkpt lat="41.7483830" lon="2.0190620">
        <ele>504.5</ele>
        <time>2022-09-26T09:34:15Z</time>
      </trkpt>
      <trkpt lat="41.7484250" lon="2.0190550">
        <ele>505.0</ele>
        <time>2022-09-26T09:34:16Z</time>
      </trkpt>
      <trkpt lat="41.7484400" lon="2.0190530">
        <ele>505.2</ele>
        <time>2022-09-26T09:34:17Z</time>
      </trkpt>
      <trkpt lat="41.7484600" lon="2.0190550">
        <ele>505.5</ele>
        <time>2022-09-26T09:34:18Z</time>
      </trkpt>
      <trkpt lat="41.7484750" lon="2.0190620">
        <ele>505.7</ele>
        <time>2022-09-26T09:34:19Z</time>
      </trkpt>
      <trkpt lat="41.7485010" lon="2.0190760">
        <ele>506.1</ele>
        <time>2022-09-26T09:34:20Z</time>
      </trkpt>
      <trkpt lat="41.7485080" lon="2.0190810">
        <ele>506.2</ele>
        <time>2022-09-26T09:34:21Z</time>
      </trkpt>
      <trkpt lat="41.7485380" lon="2.0190850">
        <ele>506.7</ele>
        <time>2022-09-26T09:34:22Z</time>
      </trkpt>
      <trkpt lat="41.7485500" lon="2.0190870">
        <ele>506.8</ele>
        <time>2022-09-26T09:34:23Z</time>
      </trkpt>
      <trkpt lat="41.7485770" lon="2.0190930">
        <ele>507.2</ele>
        <time>2022-09-26T09:34:24Z</time>
      </trkpt>
      <trkpt lat="41.7485870" lon="2.0190960">
        <ele>507.3</ele>
        <time>2022-09-26T09:34:25Z</time>
      </trkpt>
      <trkpt lat="41.7486030" lon="2.0190990">
        <ele>507.5</ele>
        <time>2022-09-26T09:34:26Z</time>
      </trkpt>
      <trkpt lat="41.7486170" lon="2.0191030">
        <ele>507.7</ele>
        <time>2022-09-26T09:34:27Z</time>
      </trkpt>
      <trkpt lat="41.7486310" lon="2.0191090">
        <ele>507.8</ele>
        <time>2022-09-26T09:34:28Z</time>
      </trkpt>
      <trkpt lat="41.7486500" lon="2.0191130">
        <ele>508.0</ele>
        <time>2022-09-26T09:34:29Z</time>
      </trkpt>
      <trkpt lat="41.7486670" lon="2.0191120">
        <ele>508.2</ele>
        <time>2022-09-26T09:34:30Z</time>
      </trkpt>
      <trkpt lat="41.7486830" lon="2.0191110">
        <ele>508.3</ele>
        <time>2022-09-26T09:34:31Z</time>
      </trkpt>
      <trkpt lat="41.7487170" lon="2.0191150">
        <ele>508.6</ele>
        <time>2022-09-26T09:34:32Z</time>
      </trkpt>
      <trkpt lat="41.7487300" lon="2.0191180">
        <ele>508.7</ele>
        <time>2022-09-26T09:34:33Z</time>
      </trkpt>
      <trkpt lat="41.7487650" lon="2.0191240">
        <ele>508.9</ele>
        <time>2022-09-26T09:34:34Z</time>
      </trkpt>
      <trkpt lat="41.7487780" lon="2.0191250">
        <ele>508.9</ele>
        <time>2022-09-26T09:34:35Z</time>
      </trkpt>
      <trkpt lat="41.7488110" lon="2.0191190">
        <ele>509.0</ele>
        <time>2022-09-26T09:34:36Z</time>
      </trkpt>
      <trkpt lat="41.7488440" lon="2.0191060">
        <ele>509.1</ele>
        <time>2022-09-26T09:34:37Z</time>
      </trkpt>
      <trkpt lat="41.7488690" lon="2.0190870">
        <ele>509.2</ele>
        <time>2022-09-26T09:34:38Z</time>
      </trkpt>
      <trkpt lat="41.7488950" lon="2.0190590">
        <ele>509.3</ele>
        <time>2022-09-26T09:34:39Z</time>
      </trkpt>
      <trkpt lat="41.7489020" lon="2.0190500">
        <ele>509.4</ele>
        <time>2022-09-26T09:34:40Z</time>
      </trkpt>
      <trkpt lat="41.7489280" lon="2.0190230">
        <ele>509.5</ele>
        <time>2022-09-26T09:34:41Z</time>
      </trkpt>
      <trkpt lat="41.7489360" lon="2.0190130">
        <ele>509.5</ele>
        <time>2022-09-26T09:34:42Z</time>
      </trkpt>
      <trkpt lat="41.7489590" lon="2.0189860">
        <ele>509.7</ele>
        <time>2022-09-26T09:34:43Z</time>
      </trkpt>
      <trkpt lat="41.7489660" lon="2.0189770">
        <ele>509.7</ele>
        <time>2022-09-26T09:34:44Z</time>
      </trkpt>
      <trkpt lat="41.7489870" lon="2.0189360">
        <ele>509.9</ele>
        <time>2022-09-26T09:34:45Z</time>
      </trkpt>
      <trkpt lat="41.7489920" lon="2.0189210">
        <ele>510.0</ele>
        <time>2022-09-26T09:34:46Z</time>
      </trkpt>
      <trkpt lat="41.7489900" lon="2.0188730">
        <ele>510.1</ele>
        <time>2022-09-26T09:34:47Z</time>
      </trkpt>
      <trkpt lat="41.7489870" lon="2.0188550">
        <ele>510.1</ele>
        <time>2022-09-26T09:34:48Z</time>
      </trkpt>
      <trkpt lat="41.7489670" lon="2.0188200">
        <ele>510.2</ele>
        <time>2022-09-26T09:34:49Z</time>
      </trkpt>
      <trkpt lat="41.7489590" lon="2.0188070">
        <ele>510.2</ele>
        <time>2022-09-26T09:34:50Z</time>
      </trkpt>
      <trkpt lat="41.7489280" lon="2.0187830">
        <ele>510.3</ele>
        <time>2022-09-26T09:34:51Z</time>
      </trkpt>
      <trkpt lat="41.7489170" lon="2.0187750">
        <ele>510.3</ele>
        <time>2022-09-26T09:34:52Z</time>
      </trkpt>
      <trkpt lat="41.7488930" lon="2.0187560">
        <ele>510.4</ele>
        <time>2022-09-26T09:34:53Z</time>
      </trkpt>
      <trkpt lat="41.7488660" lon="2.0187420">
        <ele>510.4</ele>
        <time>2022-09-26T09:34:54Z</time>
      </trkpt>
      <trkpt lat="41.7488380" lon="2.0187260">
        <ele>510.5</ele>
        <time>2022-09-26T09:34:55Z</time>
      </trkpt>
      <trkpt lat="41.7488060" lon="2.0187100">
        <ele>510.5</ele>
        <time>2022-09-26T09:34:56Z</time>
      </trkpt>
      <trkpt lat="41.7487740" lon="2.0186970">
        <ele>510.6</ele>
        <time>2022-09-26T09:34:57Z</time>
      </trkpt>
      <trkpt lat="41.7487450" lon="2.0186870">
        <ele>510.6</ele>
        <time>2022-09-26T09:34:58Z</time>
      </trkpt>
      <trkpt lat="41.7487120" lon="2.0186750">
        <ele>510.7</ele>
        <time>2022-09-26T09:34:59Z</time>
      </trkpt>
      <trkpt lat="41.7486820" lon="2.0186660">
        <ele>510.8</ele>
        <time>2022-09-26T09:35:00Z</time>
      </trkpt>
      <trkpt lat="41.7486430" lon="2.0186530">
        <ele>510.8</ele>
        <time>2022-09-26T09:35:01Z</time>
      </trkpt>
      <trkpt lat="41.7486300" lon="2.0186470">
        <ele>510.9</ele>
        <time>2022-09-26T09:35:02Z</time>
      </trkpt>
      <trkpt lat="41.7485930" lon="2.0186290">
        <ele>510.9</ele>
        <time>2022-09-26T09:35:03Z</time>
      </trkpt>
      <trkpt lat="41.7485810" lon="2.0186220">
        <ele>511.0</ele>
        <time>2022-09-26T09:35:04Z</time>
      </trkpt>
      <trkpt lat="41.7485460" lon="2.0185970">
        <ele>511.1</ele>
        <time>2022-09-26T09:35:05Z</time>
      </trkpt>
      <trkpt lat="41.7485350" lon="2.0185870">
        <ele>511.1</ele>
        <time>2022-09-26T09:35:06Z</time>
      </trkpt>
      <trkpt lat="41.7485130" lon="2.0185650">
        <ele>511.2</ele>
        <time>2022-09-26T09:35:07Z</time>
      </trkpt>
      <trkpt lat="41.7484840" lon="2.0185300">
        <ele>511.3</ele>
        <time>2022-09-26T09:35:08Z</time>
      </trkpt>
      <trkpt lat="41.7484750" lon="2.0185160">
        <ele>511.4</ele>
        <time>2022-09-26T09:35:09Z</time>
      </trkpt>
      <trkpt lat="41.7484590" lon="2.0184850">
        <ele>511.5</ele>
        <time>2022-09-26T09:35:10Z</time>
      </trkpt>
      <trkpt lat="41.7484460" lon="2.0184470">
        <ele>511.6</ele>
        <time>2022-09-26T09:35:11Z</time>
      </trkpt>
      <trkpt lat="41.7484470" lon="2.0183940">
        <ele>511.7</ele>
        <time>2022-09-26T09:35:12Z</time>
      </trkpt>
      <trkpt lat="41.7484480" lon="2.0183760">
        <ele>511.8</ele>
        <time>2022-09-26T09:35:13Z</time>
      </trkpt>
      <trkpt lat="41.7484600" lon="2.0183240">
        <ele>511.9</ele>
        <time>2022-09-26T09:35:14Z</time>
      </trkpt>
      <trkpt lat="41.7484650" lon="2.0183060">
        <ele>512.0</ele>
        <time>2022-09-26T09:35:15Z</time>
      </trkpt>
      <trkpt lat="41.7484850" lon="2.0182650">
        <ele>512.1</ele>
        <time>2022-09-26T09:35:16Z</time>
      </trkpt>
      <trkpt lat="41.7484930" lon="2.0182490">
        <ele>512.2</ele>
        <time>2022-09-26T09:35:17Z</time>
      </trkpt>
      <trkpt lat="41.7485120" lon="2.0182180">
        <ele>512.3</ele>
        <time>2022-09-26T09:35:18Z</time>
      </trkpt>
      <trkpt lat="41.7485390" lon="2.0181800">
        <ele>512.5</ele>
        <time>2022-09-26T09:35:19Z</time>
      </trkpt>
      <trkpt lat="41.7485490" lon="2.0181680">
        <ele>512.5</ele>
        <time>2022-09-26T09:35:20Z</time>
      </trkpt>
      <trkpt lat="41.7485740" lon="2.0181290">
        <ele>512.6</ele>
        <time>2022-09-26T09:35:21Z</time>
      </trkpt>
      <trkpt lat="41.7485830" lon="2.0181140">
        <ele>512.7</ele>
        <time>2022-09-26T09:35:22Z</time>
      </trkpt>
      <trkpt lat="41.7485980" lon="2.0180850">
        <ele>512.8</ele>
        <time>2022-09-26T09:35:23Z</time>
      </trkpt>
      <trkpt lat="41.7486130" lon="2.0180510">
        <ele>512.9</ele>
        <time>2022-09-26T09:35:24Z</time>
      </trkpt>
      <trkpt lat="41.7486230" lon="2.0180170">
        <ele>513.0</ele>
        <time>2022-09-26T09:35:25Z</time>
      </trkpt>
      <trkpt lat="41.7486280" lon="2.0179790">
        <ele>513.1</ele>
        <time>2022-09-26T09:35:26Z</time>
      </trkpt>
      <trkpt lat="41.7486310" lon="2.0179390">
        <ele>513.2</ele>
        <time>2022-09-26T09:35:27Z</time>
      </trkpt>
      <trkpt lat="41.7486300" lon="2.0179020">
        <ele>513.2</ele>
        <time>2022-09-26T09:35:28Z</time>
      </trkpt>
      <trkpt lat="41.7486230" lon="2.0178530">
        <ele>513.4</ele>
        <time>2022-09-26T09:35:29Z</time>
      </trkpt>
      <trkpt lat="41.7486200" lon="2.0178350">
        <ele>513.4</ele>
        <time>2022-09-26T09:35:30Z</time>
      </trkpt>
      <trkpt lat="41.7486080" lon="2.0177980">
        <ele>513.6</ele>
        <time>2022-09-26T09:35:31Z</time>
      </trkpt>
      <trkpt lat="41.7485880" lon="2.0177590">
        <ele>513.8</ele>
        <time>2022-09-26T09:35:32Z</time>
      </trkpt>
      <trkpt lat="41.7485820" lon="2.0177480">
        <ele>513.8</ele>
        <time>2022-09-26T09:35:33Z</time>
      </trkpt>
      <trkpt lat="41.7485630" lon="2.0177150">
        <ele>514.0</ele>
        <time>2022-09-26T09:35:34Z</time>
      </trkpt>
      <trkpt lat="41.7485560" lon="2.0177030">
        <ele>514.1</ele>
        <time>2022-09-26T09:35:35Z</time>
      </trkpt>
      <trkpt lat="41.7485470" lon="2.0176890">
        <ele>514.2</ele>
        <time>2022-09-26T09:35:36Z</time>
      </trkpt>
      <trkpt lat="41.7485360" lon="2.0176720">
        <ele>514.3</ele>
        <time>2022-09-26T09:35:37Z</time>
      </trkpt>
      <trkpt lat="41.7485180" lon="2.0176380">
        <ele>514.5</ele>
        <time>2022-09-26T09:35:38Z</time>
      </trkpt>
      <trkpt lat="41.7485110" lon="2.0176270">
        <ele>514.6</ele>
        <time>2022-09-26T09:35:39Z</time>
      </trkpt>
      <trkpt lat="41.7484870" lon="2.0175940">
        <ele>514.9</ele>
        <time>2022-09-26T09:35:40Z</time>
      </trkpt>
      <trkpt lat="41.7484790" lon="2.0175840">
        <ele>514.9</ele>
        <time>2022-09-26T09:35:41Z</time>
      </trkpt>
      <trkpt lat="41.7484600" lon="2.0175550">
        <ele>515.2</ele>
        <time>2022-09-26T09:35:42Z</time>
      </trkpt>
      <trkpt lat="41.7484550" lon="2.0175450">
        <ele>515.2</ele>
        <time>2022-09-26T09:35:43Z</time>
      </trkpt>
      <trkpt lat="41.7484440" lon="2.0175020">
        <ele>515.5</ele>
        <time>2022-09-26T09:35:44Z</time>
      </trkpt>
      <trkpt lat="41.7484400" lon="2.0174850">
        <ele>515.6</ele>
        <time>2022-09-26T09:35:45Z</time>
      </trkpt>
      <trkpt lat="41.7484350" lon="2.0174350">
        <ele>515.9</ele>
        <time>2022-09-26T09:35:46Z</time>
      </trkpt>
      <trkpt lat="41.7484330" lon="2.0174180">
        <ele>516.0</ele>
        <time>2022-09-26T09:35:47Z</time>
      </trkpt>
      <trkpt lat="41.7484270" lon="2.0173820">
        <ele>516.2</ele>
        <time>2022-09-26T09:35:48Z</time>
      </trkpt>
      <trkpt lat="41.7484140" lon="2.0173410">
        <ele>516.4</ele>
        <time>2022-09-26T09:35:49Z</time>
      </trkpt>
      <trkpt lat="41.7484100" lon="2.0173280">
        <ele>516.5</ele>
        <time>2022-09-26T09:35:50Z</time>
      </trkpt>
      <trkpt lat="41.7483960" lon="2.0172910">
        <ele>516.7</ele>
        <time>2022-09-26T09:35:51Z</time>
      </trkpt>
      <trkpt lat="41.7483750" lon="2.0172520">
        <ele>516.9</ele>
        <time>2022-09-26T09:35:52Z</time>
      </trkpt>
      <trkpt lat="41.7483670" lon="2.0172370">
        <ele>517.0</ele>
        <time>2022-09-26T09:35:53Z</time>
      </trkpt>
      <trkpt lat="41.7483460" lon="2.0172070">
        <ele>517.1</ele>
        <time>2022-09-26T09:35:54Z</time>
      </trkpt>
      <trkpt lat="41.7483260" lon="2.0171820">
        <ele>517.2</ele>
        <time>2022-09-26T09:35:55Z</time>
      </trkpt>
      <trkpt lat="41.7483030" lon="2.0171470">
        <ele>517.4</ele>
        <time>2022-09-26T09:35:56Z</time>
      </trkpt>
      <trkpt lat="41.7482770" lon="2.0171040">
        <ele>517.5</ele>
        <time>2022-09-26T09:35:57Z</time>
      </trkpt>
      <trkpt lat="41.7482670" lon="2.0170880">
        <ele>517.6</ele>
        <time>2022-09-26T09:35:58Z</time>
      </trkpt>
      <trkpt lat="41.7482470" lon="2.0170500">
        <ele>517.7</ele>
        <time>2022-09-26T09:35:59Z</time>
      </trkpt>
      <trkpt lat="41.7482410" lon="2.0170380">
        <ele>517.8</ele>
        <time>2022-09-26T09:36:00Z</time>
      </trkpt>
      <trkpt lat="41.7482240" lon="2.0170000">
        <ele>517.9</ele>
        <time>2022-09-26T09:36:01Z</time>
      </trkpt>
      <trkpt lat="41.7482190" lon="2.0169880">
        <ele>518.0</ele>
        <time>2022-09-26T09:36:02Z</time>
      </trkpt>
      <trkpt lat="41.7482040" lon="2.0169560">
        <ele>518.1</ele>
        <time>2022-09-26T09:36:03Z</time>
      </trkpt>
      <trkpt lat="41.7482000" lon="2.0169440">
        <ele>518.2</ele>
        <time>2022-09-26T09:36:04Z</time>
      </trkpt>
      <trkpt lat="41.7482000" lon="2.0169230">
        <ele>518.2</ele>
        <time>2022-09-26T09:36:05Z</time>
      </trkpt>
      <trkpt lat="41.7482060" lon="2.0169040">
        <ele>519.0</ele>
        <time>2022-09-26T09:36:06Z</time>
      </trkpt>
      <trkpt lat="41.7482260" lon="2.0168920">
        <ele>519.1</ele>
        <time>2022-09-26T09:36:07Z</time>
      </trkpt>
      <trkpt lat="41.7482360" lon="2.0168910">
        <ele>519.2</ele>
        <time>2022-09-26T09:36:08Z</time>
      </trkpt>
      <trkpt lat="41.7482460" lon="2.0168910">
        <ele>519.2</ele>
        <time>2022-09-26T09:36:09Z</time>
      </trkpt>
      <trkpt lat="41.7482720" lon="2.0169130">
        <ele>519.3</ele>
        <time>2022-09-26T09:36:10Z</time>
      </trkpt>
      <trkpt lat="41.7482820" lon="2.0169220">
        <ele>519.4</ele>
        <time>2022-09-26T09:36:11Z</time>
      </trkpt>
      <trkpt lat="41.7483090" lon="2.0169540">
        <ele>519.5</ele>
        <time>2022-09-26T09:36:12Z</time>
      </trkpt>
      <trkpt lat="41.7483190" lon="2.0169670">
        <ele>519.5</ele>
        <time>2022-09-26T09:36:13Z</time>
      </trkpt>
      <trkpt lat="41.7483410" lon="2.0169960">
        <ele>519.6</ele>
        <time>2022-09-26T09:36:14Z</time>
      </trkpt>
      <trkpt lat="41.7483470" lon="2.0170030">
        <ele>519.6</ele>
        <time>2022-09-26T09:36:15Z</time>
      </trkpt>
      <trkpt lat="41.7483720" lon="2.0170340">
        <ele>519.7</ele>
        <time>2022-09-26T09:36:16Z</time>
      </trkpt>
      <trkpt lat="41.7483820" lon="2.0170470">
        <ele>519.8</ele>
        <time>2022-09-26T09:36:17Z</time>
      </trkpt>
      <trkpt lat="41.7484040" lon="2.0170780">
        <ele>519.9</ele>
        <time>2022-09-26T09:36:18Z</time>
      </trkpt>
      <trkpt lat="41.7484130" lon="2.0170920">
        <ele>519.9</ele>
        <time>2022-09-26T09:36:19Z</time>
      </trkpt>
      <trkpt lat="41.7484300" lon="2.0171230">
        <ele>520.0</ele>
        <time>2022-09-26T09:36:20Z</time>
      </trkpt>
      <trkpt lat="41.7484370" lon="2.0171340">
        <ele>520.0</ele>
        <time>2022-09-26T09:36:21Z</time>
      </trkpt>
      <trkpt lat="41.7484550" lon="2.0171650">
        <ele>520.1</ele>
        <time>2022-09-26T09:36:22Z</time>
      </trkpt>
      <trkpt lat="41.7484720" lon="2.0171970">
        <ele>520.2</ele>
        <time>2022-09-26T09:36:23Z</time>
      </trkpt>
      <trkpt lat="41.7484780" lon="2.0172100">
        <ele>520.3</ele>
        <time>2022-09-26T09:36:24Z</time>
      </trkpt>
      <trkpt lat="41.7485020" lon="2.0172470">
        <ele>520.4</ele>
        <time>2022-09-26T09:36:25Z</time>
      </trkpt>
      <trkpt lat="41.7485090" lon="2.0172570">
        <ele>520.5</ele>
        <time>2022-09-26T09:36:26Z</time>
      </trkpt>
      <trkpt lat="41.7485350" lon="2.0172900">
        <ele>520.6</ele>
        <time>2022-09-26T09:36:27Z</time>
      </trkpt>
      <trkpt lat="41.7485430" lon="2.0173010">
        <ele>520.7</ele>
        <time>2022-09-26T09:36:28Z</time>
      </trkpt>
      <trkpt lat="41.7485680" lon="2.0173310">
        <ele>520.8</ele>
        <time>2022-09-26T09:36:29Z</time>
      </trkpt>
      <trkpt lat="41.7485800" lon="2.0173450">
        <ele>520.9</ele>
        <time>2022-09-26T09:36:30Z</time>
      </trkpt>
      <trkpt lat="41.7486080" lon="2.0173670">
        <ele>521.0</ele>
        <time>2022-09-26T09:36:31Z</time>
      </trkpt>
      <trkpt lat="41.7486210" lon="2.0173750">
        <ele>521.1</ele>
        <time>2022-09-26T09:36:32Z</time>
      </trkpt>
      <trkpt lat="41.7486440" lon="2.0173900">
        <ele>521.2</ele>
        <time>2022-09-26T09:36:33Z</time>
      </trkpt>
      <trkpt lat="41.7486540" lon="2.0173970">
        <ele>521.3</ele>
        <time>2022-09-26T09:36:34Z</time>
      </trkpt>
      <trkpt lat="41.7486820" lon="2.0174170">
        <ele>521.4</ele>
        <time>2022-09-26T09:36:35Z</time>
      </trkpt>
      <trkpt lat="41.7487020" lon="2.0174320">
        <ele>521.5</ele>
        <time>2022-09-26T09:36:36Z</time>
      </trkpt>
      <trkpt lat="41.7487140" lon="2.0174380">
        <ele>521.6</ele>
        <time>2022-09-26T09:36:37Z</time>
      </trkpt>
      <trkpt lat="41.7487400" lon="2.0174540">
        <ele>521.7</ele>
        <time>2022-09-26T09:36:38Z</time>
      </trkpt>
      <trkpt lat="41.7487680" lon="2.0174750">
        <ele>521.8</ele>
        <time>2022-09-26T09:36:39Z</time>
      </trkpt>
      <trkpt lat="41.7487770" lon="2.0174820">
        <ele>521.9</ele>
        <time>2022-09-26T09:36:40Z</time>
      </trkpt>
      <trkpt lat="41.7488030" lon="2.0175090">
        <ele>522.0</ele>
        <time>2022-09-26T09:36:41Z</time>
      </trkpt>
      <trkpt lat="41.7488320" lon="2.0175440">
        <ele>522.1</ele>
        <time>2022-09-26T09:36:42Z</time>
      </trkpt>
      <trkpt lat="41.7488450" lon="2.0175600">
        <ele>522.2</ele>
        <time>2022-09-26T09:36:43Z</time>
      </trkpt>
      <trkpt lat="41.7488640" lon="2.0175870">
        <ele>522.3</ele>
        <time>2022-09-26T09:36:44Z</time>
      </trkpt>
      <trkpt lat="41.7488830" lon="2.0176180">
        <ele>522.4</ele>
        <time>2022-09-26T09:36:45Z</time>
      </trkpt>
      <trkpt lat="41.7489020" lon="2.0176520">
        <ele>522.5</ele>
        <time>2022-09-26T09:36:46Z</time>
      </trkpt>
      <trkpt lat="41.7489230" lon="2.0176980">
        <ele>522.7</ele>
        <time>2022-09-26T09:36:47Z</time>
      </trkpt>
      <trkpt lat="41.7489310" lon="2.0177150">
        <ele>522.7</ele>
        <time>2022-09-26T09:36:48Z</time>
      </trkpt>
      <trkpt lat="41.7489510" lon="2.0177610">
        <ele>522.8</ele>
        <time>2022-09-26T09:36:49Z</time>
      </trkpt>
      <trkpt lat="41.7489580" lon="2.0177780">
        <ele>522.9</ele>
        <time>2022-09-26T09:36:50Z</time>
      </trkpt>
      <trkpt lat="41.7489740" lon="2.0178180">
        <ele>523.0</ele>
        <time>2022-09-26T09:36:51Z</time>
      </trkpt>
      <trkpt lat="41.7489820" lon="2.0178390">
        <ele>523.0</ele>
        <time>2022-09-26T09:36:52Z</time>
      </trkpt>
      <trkpt lat="41.7489940" lon="2.0178720">
        <ele>523.1</ele>
        <time>2022-09-26T09:36:53Z</time>
      </trkpt>
      <trkpt lat="41.7490060" lon="2.0179100">
        <ele>523.1</ele>
        <time>2022-09-26T09:36:54Z</time>
      </trkpt>
      <trkpt lat="41.7490200" lon="2.0179520">
        <ele>523.2</ele>
        <time>2022-09-26T09:36:55Z</time>
      </trkpt>
      <trkpt lat="41.7490260" lon="2.0179740">
        <ele>523.3</ele>
        <time>2022-09-26T09:36:56Z</time>
      </trkpt>
      <trkpt lat="41.7490380" lon="2.0180190">
        <ele>523.4</ele>
        <time>2022-09-26T09:36:57Z</time>
      </trkpt>
      <trkpt lat="41.7490410" lon="2.0180340">
        <ele>523.4</ele>
        <time>2022-09-26T09:36:58Z</time>
      </trkpt>
      <trkpt lat="41.7490530" lon="2.0180790">
        <ele>523.4</ele>
        <time>2022-09-26T09:36:59Z</time>
      </trkpt>
      <trkpt lat="41.7490710" lon="2.0181240">
        <ele>523.5</ele>
        <time>2022-09-26T09:37:00Z</time>
      </trkpt>
      <trkpt lat="41.7490970" lon="2.0181660">
        <ele>523.6</ele>
        <time>2022-09-26T09:37:01Z</time>
      </trkpt>
      <trkpt lat="41.7491070" lon="2.0181800">
        <ele>523.6</ele>
        <time>2022-09-26T09:37:02Z</time>
      </trkpt>
      <trkpt lat="41.7491320" lon="2.0182110">
        <ele>523.6</ele>
        <time>2022-09-26T09:37:03Z</time>
      </trkpt>
      <trkpt lat="41.7491650" lon="2.0182430">
        <ele>523.6</ele>
        <time>2022-09-26T09:37:04Z</time>
      </trkpt>
      <trkpt lat="41.7491960" lon="2.0182700">
        <ele>523.6</ele>
        <time>2022-09-26T09:37:05Z</time>
      </trkpt>
      <trkpt lat="41.7492220" lon="2.0182930">
        <ele>523.6</ele>
        <time>2022-09-26T09:37:06Z</time>
      </trkpt>
      <trkpt lat="41.7492540" lon="2.0183210">
        <ele>523.6</ele>
        <time>2022-09-26T09:37:07Z</time>
      </trkpt>
      <trkpt lat="41.7492930" lon="2.0183510">
        <ele>523.6</ele>
        <time>2022-09-26T09:37:08Z</time>
      </trkpt>
      <trkpt lat="41.7493190" lon="2.0183700">
        <ele>523.6</ele>
        <time>2022-09-26T09:37:09Z</time>
      </trkpt>
      <trkpt lat="41.7493520" lon="2.0183920">
        <ele>523.6</ele>
        <time>2022-09-26T09:37:10Z</time>
      </trkpt>
      <trkpt lat="41.7493790" lon="2.0184060">
        <ele>523.7</ele>
        <time>2022-09-26T09:37:11Z</time>
      </trkpt>
      <trkpt lat="41.7494190" lon="2.0184230">
        <ele>523.7</ele>
        <time>2022-09-26T09:37:12Z</time>
      </trkpt>
      <trkpt lat="41.7494370" lon="2.0184300">
        <ele>523.7</ele>
        <time>2022-09-26T09:37:13Z</time>
      </trkpt>
      <trkpt lat="41.7494710" lon="2.0184390">
        <ele>523.8</ele>
        <time>2022-09-26T09:37:14Z</time>
      </trkpt>
      <trkpt lat="41.7495000" lon="2.0184410">
        <ele>523.8</ele>
        <time>2022-09-26T09:37:15Z</time>
      </trkpt>
      <trkpt lat="41.7495290" lon="2.0184430">
        <ele>523.9</ele>
        <time>2022-09-26T09:37:16Z</time>
      </trkpt>
      <trkpt lat="41.7495630" lon="2.0184470">
        <ele>524.0</ele>
        <time>2022-09-26T09:37:17Z</time>
      </trkpt>
      <trkpt lat="41.7496020" lon="2.0184520">
        <ele>524.1</ele>
        <time>2022-09-26T09:37:18Z</time>
      </trkpt>
      <trkpt lat="41.7496180" lon="2.0184550">
        <ele>524.2</ele>
        <time>2022-09-26T09:37:19Z</time>
      </trkpt>
      <trkpt lat="41.7496510" lon="2.0184580">
        <ele>524.3</ele>
        <time>2022-09-26T09:37:20Z</time>
      </trkpt>
      <trkpt lat="41.7496660" lon="2.0184600">
        <ele>524.3</ele>
        <time>2022-09-26T09:37:21Z</time>
      </trkpt>
      <trkpt lat="41.7497040" lon="2.0184630">
        <ele>524.4</ele>
        <time>2022-09-26T09:37:22Z</time>
      </trkpt>
      <trkpt lat="41.7497170" lon="2.0184650">
        <ele>524.5</ele>
        <time>2022-09-26T09:37:23Z</time>
      </trkpt>
      <trkpt lat="41.7497470" lon="2.0184820">
        <ele>524.7</ele>
        <time>2022-09-26T09:37:24Z</time>
      </trkpt>
      <trkpt lat="41.7497580" lon="2.0184890">
        <ele>524.7</ele>
        <time>2022-09-26T09:37:25Z</time>
      </trkpt>
      <trkpt lat="41.7497930" lon="2.0185160">
        <ele>524.9</ele>
        <time>2022-09-26T09:37:26Z</time>
      </trkpt>
      <trkpt lat="41.7498050" lon="2.0185270">
        <ele>525.0</ele>
        <time>2022-09-26T09:37:27Z</time>
      </trkpt>
      <trkpt lat="41.7498300" lon="2.0185640">
        <ele>525.2</ele>
        <time>2022-09-26T09:37:28Z</time>
      </trkpt>
      <trkpt lat="41.7498390" lon="2.0185780">
        <ele>525.2</ele>
        <time>2022-09-26T09:37:29Z</time>
      </trkpt>
      <trkpt lat="41.7498580" lon="2.0186210">
        <ele>525.4</ele>
        <time>2022-09-26T09:37:30Z</time>
      </trkpt>
      <trkpt lat="41.7498650" lon="2.0186380">
        <ele>525.5</ele>
        <time>2022-09-26T09:37:31Z</time>
      </trkpt>
      <trkpt lat="41.7498800" lon="2.0186770">
        <ele>525.6</ele>
        <time>2022-09-26T09:37:32Z</time>
      </trkpt>
      <trkpt lat="41.7498850" lon="2.0186920">
        <ele>525.7</ele>
        <time>2022-09-26T09:37:33Z</time>
      </trkpt>
      <trkpt lat="41.7498930" lon="2.0187420">
        <ele>525.9</ele>
        <time>2022-09-26T09:37:34Z</time>
      </trkpt>
      <trkpt lat="41.7498940" lon="2.0187610">
        <ele>525.9</ele>
        <time>2022-09-26T09:37:35Z</time>
      </trkpt>
      <trkpt lat="41.7498950" lon="2.0188110">
        <ele>526.1</ele>
        <time>2022-09-26T09:37:36Z</time>
      </trkpt>
      <trkpt lat="41.7498950" lon="2.0188310">
        <ele>526.2</ele>
        <time>2022-09-26T09:37:37Z</time>
      </trkpt>
      <trkpt lat="41.7498940" lon="2.0188670">
        <ele>526.3</ele>
        <time>2022-09-26T09:37:38Z</time>
      </trkpt>
      <trkpt lat="41.7498930" lon="2.0189170">
        <ele>526.4</ele>
        <time>2022-09-26T09:37:39Z</time>
      </trkpt>
      <trkpt lat="41.7498920" lon="2.0189390">
        <ele>526.5</ele>
        <time>2022-09-26T09:37:40Z</time>
      </trkpt>
      <trkpt lat="41.7498840" lon="2.0189900">
        <ele>526.6</ele>
        <time>2022-09-26T09:37:41Z</time>
      </trkpt>
      <trkpt lat="41.7498810" lon="2.0190060">
        <ele>526.7</ele>
        <time>2022-09-26T09:37:42Z</time>
      </trkpt>
      <trkpt lat="41.7498740" lon="2.0190480">
        <ele>526.8</ele>
        <time>2022-09-26T09:37:43Z</time>
      </trkpt>
      <trkpt lat="41.7498630" lon="2.0191040">
        <ele>526.9</ele>
        <time>2022-09-26T09:37:44Z</time>
      </trkpt>
      <trkpt lat="41.7498590" lon="2.0191260">
        <ele>527.0</ele>
        <time>2022-09-26T09:37:45Z</time>
      </trkpt>
      <trkpt lat="41.7498510" lon="2.0191620">
        <ele>527.1</ele>
        <time>2022-09-26T09:37:46Z</time>
      </trkpt>
      <trkpt lat="41.7498420" lon="2.0191990">
        <ele>527.2</ele>
        <time>2022-09-26T09:37:47Z</time>
      </trkpt>
      <trkpt lat="41.7498280" lon="2.0192490">
        <ele>527.3</ele>
        <time>2022-09-26T09:37:48Z</time>
      </trkpt>
      <trkpt lat="41.7498230" lon="2.0192710">
        <ele>527.4</ele>
        <time>2022-09-26T09:37:49Z</time>
      </trkpt>
      <trkpt lat="41.7498130" lon="2.0193050">
        <ele>527.5</ele>
        <time>2022-09-26T09:37:50Z</time>
      </trkpt>
      <trkpt lat="41.7498010" lon="2.0193430">
        <ele>527.7</ele>
        <time>2022-09-26T09:37:51Z</time>
      </trkpt>
      <trkpt lat="41.7497840" lon="2.0193900">
        <ele>527.8</ele>
        <time>2022-09-26T09:37:52Z</time>
      </trkpt>
      <trkpt lat="41.7497670" lon="2.0194390">
        <ele>528.0</ele>
        <time>2022-09-26T09:37:53Z</time>
      </trkpt>
      <trkpt lat="41.7497610" lon="2.0194600">
        <ele>528.1</ele>
        <time>2022-09-26T09:37:54Z</time>
      </trkpt>
      <trkpt lat="41.7497510" lon="2.0194970">
        <ele>528.2</ele>
        <time>2022-09-26T09:37:55Z</time>
      </trkpt>
      <trkpt lat="41.7497480" lon="2.0195080">
        <ele>528.3</ele>
        <time>2022-09-26T09:37:56Z</time>
      </trkpt>
      <trkpt lat="41.7497330" lon="2.0195570">
        <ele>528.5</ele>
        <time>2022-09-26T09:37:57Z</time>
      </trkpt>
      <trkpt lat="41.7497270" lon="2.0195770">
        <ele>528.6</ele>
        <time>2022-09-26T09:37:58Z</time>
      </trkpt>
      <trkpt lat="41.7497190" lon="2.0196140">
        <ele>528.8</ele>
        <time>2022-09-26T09:37:59Z</time>
      </trkpt>
      <trkpt lat="41.7497050" lon="2.0196560">
        <ele>529.0</ele>
        <time>2022-09-26T09:38:00Z</time>
      </trkpt>
      <trkpt lat="41.7497030" lon="2.0196670">
        <ele>529.0</ele>
        <time>2022-09-26T09:38:01Z</time>
      </trkpt>
      <trkpt lat="41.7496900" lon="2.0197010">
        <ele>529.3</ele>
        <time>2022-09-26T09:38:02Z</time>
      </trkpt>
      <trkpt lat="41.7496840" lon="2.0197130">
        <ele>529.3</ele>
        <time>2022-09-26T09:38:03Z</time>
      </trkpt>
      <trkpt lat="41.7496750" lon="2.0197320">
        <ele>529.4</ele>
        <time>2022-09-26T09:38:04Z</time>
      </trkpt>
      <trkpt lat="41.7496660" lon="2.0197480">
        <ele>529.6</ele>
        <time>2022-09-26T09:38:05Z</time>
      </trkpt>
      <trkpt lat="41.7496500" lon="2.0197830">
        <ele>529.8</ele>
        <time>2022-09-26T09:38:06Z</time>
      </trkpt>
      <trkpt lat="41.7496350" lon="2.0198200">
        <ele>530.0</ele>
        <time>2022-09-26T09:38:07Z</time>
      </trkpt>
      <trkpt lat="41.7496290" lon="2.0198350">
        <ele>530.1</ele>
        <time>2022-09-26T09:38:08Z</time>
      </trkpt>
      <trkpt lat="41.7496130" lon="2.0198780">
        <ele>530.3</ele>
        <time>2022-09-26T09:38:09Z</time>
      </trkpt>
      <trkpt lat="41.7495940" lon="2.0199260">
        <ele>530.6</ele>
        <time>2022-09-26T09:38:10Z</time>
      </trkpt>
      <trkpt lat="41.7495860" lon="2.0199430">
        <ele>530.7</ele>
        <time>2022-09-26T09:38:11Z</time>
      </trkpt>
      <trkpt lat="41.7495660" lon="2.0199810">
        <ele>530.9</ele>
        <time>2022-09-26T09:38:12Z</time>
      </trkpt>
      <trkpt lat="41.7495510" lon="2.0200140">
        <ele>531.1</ele>
        <time>2022-09-26T09:38:13Z</time>
      </trkpt>
      <trkpt lat="41.7495450" lon="2.0200280">
        <ele>531.2</ele>
        <time>2022-09-26T09:38:14Z</time>
      </trkpt>
      <trkpt lat="41.7495210" lon="2.0200760">
        <ele>531.4</ele>
        <time>2022-09-26T09:38:15Z</time>
      </trkpt>
      <trkpt lat="41.7495110" lon="2.0200960">
        <ele>531.5</ele>
        <time>2022-09-26T09:38:16Z</time>
      </trkpt>
      <trkpt lat="41.7494880" lon="2.0201300">
        <ele>531.7</ele>
        <time>2022-09-26T09:38:17Z</time>
      </trkpt>
      <trkpt lat="41.7494770" lon="2.0201460">
        <ele>531.8</ele>
        <time>2022-09-26T09:38:18Z</time>
      </trkpt>
      <trkpt lat="41.7494560" lon="2.0201720">
        <ele>532.0</ele>
        <time>2022-09-26T09:38:19Z</time>
      </trkpt>
      <trkpt lat="41.7494290" lon="2.0202040">
        <ele>532.2</ele>
        <time>2022-09-26T09:38:20Z</time>
      </trkpt>
      <trkpt lat="41.7494170" lon="2.0202160">
        <ele>532.2</ele>
        <time>2022-09-26T09:38:21Z</time>
      </trkpt>
      <trkpt lat="41.7493880" lon="2.0202390">
        <ele>532.4</ele>
        <time>2022-09-26T09:38:22Z</time>
      </trkpt>
      <trkpt lat="41.7493800" lon="2.0202450">
        <ele>532.5</ele>
        <time>2022-09-26T09:38:23Z</time>
      </trkpt>
      <trkpt lat="41.7493470" lon="2.0202600">
        <ele>532.7</ele>
        <time>2022-09-26T09:38:24Z</time>
      </trkpt>
      <trkpt lat="41.7493340" lon="2.0202650">
        <ele>532.8</ele>
        <time>2022-09-26T09:38:25Z</time>
      </trkpt>
      <trkpt lat="41.7493040" lon="2.0202720">
        <ele>533.0</ele>
        <time>2022-09-26T09:38:26Z</time>
      </trkpt>
      <trkpt lat="41.7492740" lon="2.0202810">
        <ele>533.2</ele>
        <time>2022-09-26T09:38:27Z</time>
      </trkpt>
      <trkpt lat="41.7492630" lon="2.0202830">
        <ele>533.3</ele>
        <time>2022-09-26T09:38:28Z</time>
      </trkpt>
      <trkpt lat="41.7492270" lon="2.0202860">
        <ele>533.5</ele>
        <time>2022-09-26T09:38:29Z</time>
      </trkpt>
      <trkpt lat="41.7491890" lon="2.0202840">
        <ele>533.8</ele>
        <time>2022-09-26T09:38:30Z</time>
      </trkpt>
      <trkpt lat="41.7491740" lon="2.0202820">
        <ele>533.9</ele>
        <time>2022-09-26T09:38:31Z</time>
      </trkpt>
      <trkpt lat="41.7491430" lon="2.0202780">
        <ele>534.2</ele>
        <time>2022-09-26T09:38:32Z</time>
      </trkpt>
      <trkpt lat="41.7491270" lon="2.0202760">
        <ele>534.3</ele>
        <time>2022-09-26T09:38:33Z</time>
      </trkpt>
      <trkpt lat="41.7490940" lon="2.0202770">
        <ele>534.6</ele>
        <time>2022-09-26T09:38:34Z</time>
      </trkpt>
      <trkpt lat="41.7490830" lon="2.0202790">
        <ele>534.7</ele>
        <time>2022-09-26T09:38:35Z</time>
      </trkpt>
      <trkpt lat="41.7490510" lon="2.0202850">
        <ele>535.1</ele>
        <time>2022-09-26T09:38:36Z</time>
      </trkpt>
      <trkpt lat="41.7490370" lon="2.0202880">
        <ele>535.2</ele>
        <time>2022-09-26T09:38:37Z</time>
      </trkpt>
      <trkpt lat="41.7490100" lon="2.0203000">
        <ele>535.5</ele>
        <time>2022-09-26T09:38:38Z</time>
      </trkpt>
      <trkpt lat="41.7489980" lon="2.0203060">
        <ele>535.7</ele>
        <time>2022-09-26T09:38:39Z</time>
      </trkpt>
      <trkpt lat="41.7489830" lon="2.0203120">
        <ele>535.9</ele>
        <time>2022-09-26T09:38:40Z</time>
      </trkpt>
      <trkpt lat="41.7489650" lon="2.0203210">
        <ele>536.1</ele>
        <time>2022-09-26T09:38:41Z</time>
      </trkpt>
      <trkpt lat="41.7489420" lon="2.0203440">
        <ele>536.5</ele>
        <time>2022-09-26T09:38:42Z</time>
      </trkpt>
      <trkpt lat="41.7489350" lon="2.0203510">
        <ele>536.6</ele>
        <time>2022-09-26T09:38:43Z</time>
      </trkpt>
      <trkpt lat="41.7489070" lon="2.0203780">
        <ele>537.1</ele>
        <time>2022-09-26T09:38:44Z</time>
      </trkpt>
      <trkpt lat="41.7488980" lon="2.0203860">
        <ele>537.3</ele>
        <time>2022-09-26T09:38:45Z</time>
      </trkpt>
      <trkpt lat="41.7488760" lon="2.0204130">
        <ele>537.7</ele>
        <time>2022-09-26T09:38:46Z</time>
      </trkpt>
      <trkpt lat="41.7488680" lon="2.0204230">
        <ele>537.9</ele>
        <time>2022-09-26T09:38:47Z</time>
      </trkpt>
      <trkpt lat="41.7488470" lon="2.0204520">
        <ele>538.4</ele>
        <time>2022-09-26T09:38:48Z</time>
      </trkpt>
      <trkpt lat="41.7488390" lon="2.0204640">
        <ele>538.5</ele>
        <time>2022-09-26T09:38:49Z</time>
      </trkpt>
      <trkpt lat="41.7488300" lon="2.0204780">
        <ele>538.7</ele>
        <time>2022-09-26T09:38:50Z</time>
      </trkpt>
      <trkpt lat="41.7488150" lon="2.0204980">
        <ele>539.1</ele>
        <time>2022-09-26T09:38:51Z</time>
      </trkpt>
      <trkpt lat="41.7488020" lon="2.0205150">
        <ele>539.3</ele>
        <time>2022-09-26T09:38:52Z</time>
      </trkpt>
      <trkpt lat="41.7487910" lon="2.0205290">
        <ele>539.6</ele>
        <time>2022-09-26T09:38:53Z</time>
      </trkpt>
      <trkpt lat="41.7487750" lon="2.0205560">
        <ele>539.9</ele>
        <time>2022-09-26T09:38:54Z</time>
      </trkpt>
      <trkpt lat="41.7487690" lon="2.0205700">
        <ele>540.1</ele>
        <time>2022-09-26T09:38:55Z</time>
      </trkpt>
      <trkpt lat="41.7487640" lon="2.0205830">
        <ele>540.2</ele>
        <time>2022-09-26T09:38:56Z</time>
      </trkpt>
      <trkpt lat="41.7487550" lon="2.0206000">
        <ele>540.4</ele>
        <time>2022-09-26T09:38:57Z</time>
      </trkpt>
      <trkpt lat="41.7487490" lon="2.0206210">
        <ele>540.7</ele>
        <time>2022-09-26T09:38:58Z</time>
      </trkpt>
      <trkpt lat="41.7487450" lon="2.0206440">
        <ele>540.9</ele>
        <time>2022-09-26T09:38:59Z</time>
      </trkpt>
      <trkpt lat="41.7487420" lon="2.0206670">
        <ele>541.1</ele>
        <time>2022-09-26T09:39:00Z</time>
      </trkpt>
      <trkpt lat="41.7487330" lon="2.0207070">
        <ele>541.5</ele>
        <time>2022-09-26T09:39:01Z</time>
      </trkpt>
      <trkpt lat="41.7487300" lon="2.0207190">
        <ele>541.6</ele>
        <time>2022-09-26T09:39:02Z</time>
      </trkpt>
      <trkpt lat="41.7487320" lon="2.0207520">
        <ele>541.9</ele>
        <time>2022-09-26T09:39:03Z</time>
      </trkpt>
      <trkpt lat="41.7487340" lon="2.0207680">
        <ele>542.0</ele>
        <time>2022-09-26T09:39:04Z</time>
      </trkpt>
      <trkpt lat="41.7487360" lon="2.0207830">
        <ele>542.1</ele>
        <time>2022-09-26T09:39:05Z</time>
      </trkpt>
      <trkpt lat="41.7487410" lon="2.0208070">
        <ele>542.3</ele>
        <time>2022-09-26T09:39:06Z</time>
      </trkpt>
      <trkpt lat="41.7487470" lon="2.0208270">
        <ele>542.5</ele>
        <time>2022-09-26T09:39:07Z</time>
      </trkpt>
      <trkpt lat="41.7487520" lon="2.0208450">
        <ele>542.7</ele>
        <time>2022-09-26T09:39:08Z</time>
      </trkpt>
      <trkpt lat="41.7487590" lon="2.0208700">
        <ele>542.9</ele>
        <time>2022-09-26T09:39:09Z</time>
      </trkpt>
      <trkpt lat="41.7487640" lon="2.0208900">
        <ele>543.0</ele>
        <time>2022-09-26T09:39:10Z</time>
      </trkpt>
      <trkpt lat="41.7487700" lon="2.0209090">
        <ele>543.2</ele>
        <time>2022-09-26T09:39:11Z</time>
      </trkpt>
      <trkpt lat="41.7487740" lon="2.0209300">
        <ele>543.3</ele>
        <time>2022-09-26T09:39:12Z</time>
      </trkpt>
      <trkpt lat="41.7487760" lon="2.0209530">
        <ele>543.5</ele>
        <time>2022-09-26T09:39:13Z</time>
      </trkpt>
      <trkpt lat="41.7487780" lon="2.0209770">
        <ele>543.7</ele>
        <time>2022-09-26T09:39:14Z</time>
      </trkpt>
      <trkpt lat="41.7487810" lon="2.0209980">
        <ele>543.8</ele>
        <time>2022-09-26T09:39:15Z</time>
      </trkpt>
      <trkpt lat="41.7487800" lon="2.0210370">
        <ele>544.1</ele>
        <time>2022-09-26T09:39:16Z</time>
      </trkpt>
      <trkpt lat="41.7487790" lon="2.0210510">
        <ele>544.2</ele>
        <time>2022-09-26T09:39:17Z</time>
      </trkpt>
      <trkpt lat="41.7487740" lon="2.0210880">
        <ele>544.5</ele>
        <time>2022-09-26T09:39:18Z</time>
      </trkpt>
      <trkpt lat="41.7487720" lon="2.0211000">
        <ele>544.6</ele>
        <time>2022-09-26T09:39:19Z</time>
      </trkpt>
      <trkpt lat="41.7487660" lon="2.0211260">
        <ele>544.8</ele>
        <time>2022-09-26T09:39:20Z</time>
      </trkpt>
      <trkpt lat="41.7487600" lon="2.0211430">
        <ele>544.9</ele>
        <time>2022-09-26T09:39:21Z</time>
      </trkpt>
      <trkpt lat="41.7487530" lon="2.0211650">
        <ele>545.1</ele>
        <time>2022-09-26T09:39:22Z</time>
      </trkpt>
      <trkpt lat="41.7487480" lon="2.0211830">
        <ele>545.2</ele>
        <time>2022-09-26T09:39:23Z</time>
      </trkpt>
      <trkpt lat="41.7487390" lon="2.0212220">
        <ele>545.5</ele>
        <time>2022-09-26T09:39:24Z</time>
      </trkpt>
      <trkpt lat="41.7487370" lon="2.0212330">
        <ele>545.6</ele>
        <time>2022-09-26T09:39:25Z</time>
      </trkpt>
      <trkpt lat="41.7487320" lon="2.0212720">
        <ele>545.9</ele>
        <time>2022-09-26T09:39:26Z</time>
      </trkpt>
      <trkpt lat="41.7487310" lon="2.0212810">
        <ele>545.9</ele>
        <time>2022-09-26T09:39:27Z</time>
      </trkpt>
      <trkpt lat="41.7487270" lon="2.0213210">
        <ele>546.2</ele>
        <time>2022-09-26T09:39:28Z</time>
      </trkpt>
      <trkpt lat="41.7487260" lon="2.0213320">
        <ele>546.3</ele>
        <time>2022-09-26T09:39:29Z</time>
      </trkpt>
      <trkpt lat="41.7487270" lon="2.0213460">
        <ele>546.4</ele>
        <time>2022-09-26T09:39:30Z</time>
      </trkpt>
      <trkpt lat="41.7487270" lon="2.0213760">
        <ele>546.7</ele>
        <time>2022-09-26T09:39:31Z</time>
      </trkpt>
      <trkpt lat="41.7487250" lon="2.0214140">
        <ele>547.0</ele>
        <time>2022-09-26T09:39:32Z</time>
      </trkpt>
      <trkpt lat="41.7487250" lon="2.0214240">
        <ele>547.0</ele>
        <time>2022-09-26T09:39:33Z</time>
      </trkpt>
      <trkpt lat="41.7487310" lon="2.0214650">
        <ele>547.4</ele>
        <time>2022-09-26T09:39:34Z</time>
      </trkpt>
      <trkpt lat="41.7487330" lon="2.0214750">
        <ele>547.5</ele>
        <time>2022-09-26T09:39:35Z</time>
      </trkpt>
      <trkpt lat="41.7487480" lon="2.0215090">
        <ele>547.8</ele>
        <time>2022-09-26T09:39:36Z</time>
      </trkpt>
      <trkpt lat="41.7487520" lon="2.0215180">
        <ele>547.8</ele>
        <time>2022-09-26T09:39:37Z</time>
      </trkpt>
      <trkpt lat="41.7487760" lon="2.0215470">
        <ele>548.2</ele>
        <time>2022-09-26T09:39:38Z</time>
      </trkpt>
      <trkpt lat="41.7487830" lon="2.0215540">
        <ele>548.2</ele>
        <time>2022-09-26T09:39:39Z</time>
      </trkpt>
      <trkpt lat="41.7488000" lon="2.0215680">
        <ele>548.4</ele>
        <time>2022-09-26T09:39:40Z</time>
      </trkpt>
      <trkpt lat="41.7488140" lon="2.0215780">
        <ele>548.6</ele>
        <time>2022-09-26T09:39:41Z</time>
      </trkpt>
      <trkpt lat="41.7488430" lon="2.0215910">
        <ele>548.8</ele>
        <time>2022-09-26T09:39:42Z</time>
      </trkpt>
      <trkpt lat="41.7488550" lon="2.0215930">
        <ele>548.9</ele>
        <time>2022-09-26T09:39:43Z</time>
      </trkpt>
      <trkpt lat="41.7488720" lon="2.0215970">
        <ele>549.0</ele>
        <time>2022-09-26T09:39:44Z</time>
      </trkpt>
      <trkpt lat="41.7488900" lon="2.0216020">
        <ele>549.2</ele>
        <time>2022-09-26T09:39:45Z</time>
      </trkpt>
      <trkpt lat="41.7489230" lon="2.0216120">
        <ele>549.4</ele>
        <time>2022-09-26T09:39:46Z</time>
      </trkpt>
      <trkpt lat="41.7489350" lon="2.0216150">
        <ele>549.5</ele>
        <time>2022-09-26T09:39:47Z</time>
      </trkpt>
      <trkpt lat="41.7489690" lon="2.0216210">
        <ele>549.7</ele>
        <time>2022-09-26T09:39:48Z</time>
      </trkpt>
      <trkpt lat="41.7489810" lon="2.0216230">
        <ele>549.8</ele>
        <time>2022-09-26T09:39:49Z</time>
      </trkpt>
      <trkpt lat="41.7490090" lon="2.0216300">
        <ele>550.0</ele>
        <time>2022-09-26T09:39:50Z</time>
      </trkpt>
      <trkpt lat="41.7490200" lon="2.0216340">
        <ele>550.0</ele>
        <time>2022-09-26T09:39:51Z</time>
      </trkpt>
      <trkpt lat="41.7490460" lon="2.0216470">
        <ele>550.2</ele>
        <time>2022-09-26T09:39:52Z</time>
      </trkpt>
      <trkpt lat="41.7490550" lon="2.0216510">
        <ele>550.3</ele>
        <time>2022-09-26T09:39:53Z</time>
      </trkpt>
      <trkpt lat="41.7490840" lon="2.0216680">
        <ele>550.4</ele>
        <time>2022-09-26T09:39:54Z</time>
      </trkpt>
      <trkpt lat="41.7490950" lon="2.0216750">
        <ele>550.5</ele>
        <time>2022-09-26T09:39:55Z</time>
      </trkpt>
      <trkpt lat="41.7491220" lon="2.0216930">
        <ele>550.7</ele>
        <time>2022-09-26T09:39:56Z</time>
      </trkpt>
      <trkpt lat="41.7491290" lon="2.0217000">
        <ele>550.7</ele>
        <time>2022-09-26T09:39:57Z</time>
      </trkpt>
      <trkpt lat="41.7491560" lon="2.0217250">
        <ele>550.9</ele>
        <time>2022-09-26T09:39:58Z</time>
      </trkpt>
      <trkpt lat="41.7491630" lon="2.0217320">
        <ele>550.9</ele>
        <time>2022-09-26T09:39:59Z</time>
      </trkpt>
      <trkpt lat="41.7491750" lon="2.0217420">
        <ele>551.0</ele>
        <time>2022-09-26T09:40:00Z</time>
      </trkpt>
      <trkpt lat="41.7491880" lon="2.0217600">
        <ele>551.1</ele>
        <time>2022-09-26T09:40:01Z</time>
      </trkpt>
      <trkpt lat="41.7492000" lon="2.0217830">
        <ele>551.2</ele>
        <time>2022-09-26T09:40:02Z</time>
      </trkpt>
      <trkpt lat="41.7492060" lon="2.0217940">
        <ele>551.3</ele>
        <time>2022-09-26T09:40:03Z</time>
      </trkpt>
      <trkpt lat="41.7492120" lon="2.0218050">
        <ele>551.3</ele>
        <time>2022-09-26T09:40:04Z</time>
      </trkpt>
      <trkpt lat="41.7492190" lon="2.0218340">
        <ele>551.5</ele>
        <time>2022-09-26T09:40:05Z</time>
      </trkpt>
      <trkpt lat="41.7492190" lon="2.0218450">
        <ele>551.5</ele>
        <time>2022-09-26T09:40:06Z</time>
      </trkpt>
      <trkpt lat="41.7492200" lon="2.0218560">
        <ele>551.6</ele>
        <time>2022-09-26T09:40:07Z</time>
      </trkpt>
      <trkpt lat="41.7492220" lon="2.0218800">
        <ele>551.6</ele>
        <time>2022-09-26T09:40:08Z</time>
      </trkpt>
      <trkpt lat="41.7492240" lon="2.0219010">
        <ele>551.7</ele>
        <time>2022-09-26T09:40:09Z</time>
      </trkpt>
      <trkpt lat="41.7492280" lon="2.0219440">
        <ele>551.9</ele>
        <time>2022-09-26T09:40:10Z</time>
      </trkpt>
      <trkpt lat="41.7492290" lon="2.0219580">
        <ele>551.9</ele>
        <time>2022-09-26T09:40:11Z</time>
      </trkpt>
      <trkpt lat="41.7492290" lon="2.0220010">
        <ele>552.1</ele>
        <time>2022-09-26T09:40:12Z</time>
      </trkpt>
      <trkpt lat="41.7492280" lon="2.0220150">
        <ele>552.1</ele>
        <time>2022-09-26T09:40:13Z</time>
      </trkpt>
      <trkpt lat="41.7492280" lon="2.0220540">
        <ele>552.3</ele>
        <time>2022-09-26T09:40:14Z</time>
      </trkpt>
      <trkpt lat="41.7492280" lon="2.0220670">
        <ele>552.3</ele>
        <time>2022-09-26T09:40:15Z</time>
      </trkpt>
      <trkpt lat="41.7492280" lon="2.0221060">
        <ele>552.4</ele>
        <time>2022-09-26T09:40:16Z</time>
      </trkpt>
      <trkpt lat="41.7492270" lon="2.0221430">
        <ele>552.5</ele>
        <time>2022-09-26T09:40:17Z</time>
      </trkpt>
      <trkpt lat="41.7492280" lon="2.0221780">
        <ele>552.6</ele>
        <time>2022-09-26T09:40:18Z</time>
      </trkpt>
      <trkpt lat="41.7492280" lon="2.0221940">
        <ele>552.6</ele>
        <time>2022-09-26T09:40:19Z</time>
      </trkpt>
      <trkpt lat="41.7492270" lon="2.0222370">
        <ele>552.7</ele>
        <time>2022-09-26T09:40:20Z</time>
      </trkpt>
      <trkpt lat="41.7492250" lon="2.0222480">
        <ele>552.7</ele>
        <time>2022-09-26T09:40:21Z</time>
      </trkpt>
      <trkpt lat="41.7492210" lon="2.0222890">
        <ele>552.8</ele>
        <time>2022-09-26T09:40:22Z</time>
      </trkpt>
      <trkpt lat="41.7492200" lon="2.0223040">
        <ele>552.8</ele>
        <time>2022-09-26T09:40:23Z</time>
      </trkpt>
      <trkpt lat="41.7492180" lon="2.0223530">
        <ele>552.9</ele>
        <time>2022-09-26T09:40:24Z</time>
      </trkpt>
      <trkpt lat="41.7492180" lon="2.0223700">
        <ele>552.9</ele>
        <time>2022-09-26T09:40:25Z</time>
      </trkpt>
      <trkpt lat="41.7492170" lon="2.0224070">
        <ele>552.9</ele>
        <time>2022-09-26T09:40:26Z</time>
      </trkpt>
      <trkpt lat="41.7492170" lon="2.0224230">
        <ele>552.9</ele>
        <time>2022-09-26T09:40:27Z</time>
      </trkpt>
      <trkpt lat="41.7492130" lon="2.0224690">
        <ele>553.0</ele>
        <time>2022-09-26T09:40:28Z</time>
      </trkpt>
      <trkpt lat="41.7492080" lon="2.0225050">
        <ele>553.0</ele>
        <time>2022-09-26T09:40:29Z</time>
      </trkpt>
      <trkpt lat="41.7492020" lon="2.0225450">
        <ele>553.1</ele>
        <time>2022-09-26T09:40:30Z</time>
      </trkpt>
      <trkpt lat="41.7491950" lon="2.0225890">
        <ele>553.1</ele>
        <time>2022-09-26T09:40:31Z</time>
      </trkpt>
      <trkpt lat="41.7491920" lon="2.0226030">
        <ele>553.2</ele>
        <time>2022-09-26T09:40:32Z</time>
      </trkpt>
      <trkpt lat="41.7491840" lon="2.0226440">
        <ele>553.2</ele>
        <time>2022-09-26T09:40:33Z</time>
      </trkpt>
      <trkpt lat="41.7491710" lon="2.0226900">
        <ele>553.4</ele>
        <time>2022-09-26T09:40:34Z</time>
      </trkpt>
      <trkpt lat="41.7491660" lon="2.0227080">
        <ele>553.4</ele>
        <time>2022-09-26T09:40:35Z</time>
      </trkpt>
      <trkpt lat="41.7491560" lon="2.0227510">
        <ele>553.6</ele>
        <time>2022-09-26T09:40:36Z</time>
      </trkpt>
      <trkpt lat="41.7491530" lon="2.0227640">
        <ele>553.6</ele>
        <time>2022-09-26T09:40:37Z</time>
      </trkpt>
      <trkpt lat="41.7491430" lon="2.0228030">
        <ele>553.7</ele>
        <time>2022-09-26T09:40:38Z</time>
      </trkpt>
      <trkpt lat="41.7491390" lon="2.0228140">
        <ele>553.8</ele>
        <time>2022-09-26T09:40:39Z</time>
      </trkpt>
      <trkpt lat="41.7491250" lon="2.0228520">
        <ele>553.9</ele>
        <time>2022-09-26T09:40:40Z</time>
      </trkpt>
      <trkpt lat="41.7491080" lon="2.0228800">
        <ele>554.0</ele>
        <time>2022-09-26T09:40:41Z</time>
      </trkpt>
      <trkpt lat="41.7490880" lon="2.0229050">
        <ele>554.1</ele>
        <time>2022-09-26T09:40:42Z</time>
      </trkpt>
      <trkpt lat="41.7490800" lon="2.0229150">
        <ele>554.2</ele>
        <time>2022-09-26T09:40:43Z</time>
      </trkpt>
      <trkpt lat="41.7490560" lon="2.0229370">
        <ele>554.3</ele>
        <time>2022-09-26T09:40:44Z</time>
      </trkpt>
      <trkpt lat="41.7490300" lon="2.0229540">
        <ele>554.4</ele>
        <time>2022-09-26T09:40:45Z</time>
      </trkpt>
      <trkpt lat="41.7490030" lon="2.0229680">
        <ele>554.5</ele>
        <time>2022-09-26T09:40:46Z</time>
      </trkpt>
      <trkpt lat="41.7489690" lon="2.0229760">
        <ele>554.6</ele>
        <time>2022-09-26T09:40:47Z</time>
      </trkpt>
      <trkpt lat="41.7489310" lon="2.0229830">
        <ele>554.6</ele>
        <time>2022-09-26T09:40:48Z</time>
      </trkpt>
      <trkpt lat="41.7489190" lon="2.0229860">
        <ele>554.7</ele>
        <time>2022-09-26T09:40:49Z</time>
      </trkpt>
      <trkpt lat="41.7488770" lon="2.0229980">
        <ele>554.8</ele>
        <time>2022-09-26T09:40:50Z</time>
      </trkpt>
      <trkpt lat="41.7488580" lon="2.0230040">
        <ele>554.8</ele>
        <time>2022-09-26T09:40:51Z</time>
      </trkpt>
      <trkpt lat="41.7488290" lon="2.0230130">
        <ele>554.8</ele>
        <time>2022-09-26T09:40:52Z</time>
      </trkpt>
      <trkpt lat="41.7487880" lon="2.0230220">
        <ele>554.9</ele>
        <time>2022-09-26T09:40:53Z</time>
      </trkpt>
      <trkpt lat="41.7487740" lon="2.0230260">
        <ele>554.9</ele>
        <time>2022-09-26T09:40:54Z</time>
      </trkpt>
      <trkpt lat="41.7487410" lon="2.0230360">
        <ele>555.0</ele>
        <time>2022-09-26T09:40:55Z</time>
      </trkpt>
      <trkpt lat="41.7487310" lon="2.0230390">
        <ele>555.0</ele>
        <time>2022-09-26T09:40:56Z</time>
      </trkpt>
      <trkpt lat="41.7486930" lon="2.0230500">
        <ele>555.1</ele>
        <time>2022-09-26T09:40:57Z</time>
      </trkpt>
      <trkpt lat="41.7486780" lon="2.0230550">
        <ele>555.1</ele>
        <time>2022-09-26T09:40:58Z</time>
      </trkpt>
      <trkpt lat="41.7486480" lon="2.0230660">
        <ele>555.2</ele>
        <time>2022-09-26T09:40:59Z</time>
      </trkpt>
      <trkpt lat="41.7486370" lon="2.0230700">
        <ele>555.2</ele>
        <time>2022-09-26T09:41:00Z</time>
      </trkpt>
      <trkpt lat="41.7485980" lon="2.0230750">
        <ele>555.3</ele>
        <time>2022-09-26T09:41:01Z</time>
      </trkpt>
      <trkpt lat="41.7485830" lon="2.0230770">
        <ele>555.4</ele>
        <time>2022-09-26T09:41:02Z</time>
      </trkpt>
      <trkpt lat="41.7485450" lon="2.0230860">
        <ele>555.5</ele>
        <time>2022-09-26T09:41:03Z</time>
      </trkpt>
      <trkpt lat="41.7485320" lon="2.0230900">
        <ele>555.6</ele>
        <time>2022-09-26T09:41:04Z</time>
      </trkpt>
      <trkpt lat="41.7484990" lon="2.0231020">
        <ele>555.8</ele>
        <time>2022-09-26T09:41:05Z</time>
      </trkpt>
      <trkpt lat="41.7484870" lon="2.0231070">
        <ele>555.8</ele>
        <time>2022-09-26T09:41:06Z</time>
      </trkpt>
      <trkpt lat="41.7484590" lon="2.0231170">
        <ele>556.0</ele>
        <time>2022-09-26T09:41:07Z</time>
      </trkpt>
      <trkpt lat="41.7484300" lon="2.0231300">
        <ele>556.2</ele>
        <time>2022-09-26T09:41:08Z</time>
      </trkpt>
      <trkpt lat="41.7484220" lon="2.0231330">
        <ele>556.3</ele>
        <time>2022-09-26T09:41:09Z</time>
      </trkpt>
      <trkpt lat="41.7483910" lon="2.0231400">
        <ele>556.5</ele>
        <time>2022-09-26T09:41:10Z</time>
      </trkpt>
      <trkpt lat="41.7483800" lon="2.0231430">
        <ele>556.6</ele>
        <time>2022-09-26T09:41:11Z</time>
      </trkpt>
      <trkpt lat="41.7483530" lon="2.0231490">
        <ele>556.8</ele>
        <time>2022-09-26T09:41:12Z</time>
      </trkpt>
      <trkpt lat="41.7483440" lon="2.0231510">
        <ele>556.9</ele>
        <time>2022-09-26T09:41:13Z</time>
      </trkpt>
      <trkpt lat="41.7483120" lon="2.0231590">
        <ele>557.2</ele>
        <time>2022-09-26T09:41:14Z</time>
      </trkpt>
      <trkpt lat="41.7482980" lon="2.0231630">
        <ele>557.4</ele>
        <time>2022-09-26T09:41:15Z</time>
      </trkpt>
      <trkpt lat="41.7482710" lon="2.0231680">
        <ele>557.6</ele>
        <time>2022-09-26T09:41:16Z</time>
      </trkpt>
      <trkpt lat="41.7482370" lon="2.0231770">
        <ele>558.0</ele>
        <time>2022-09-26T09:41:17Z</time>
      </trkpt>
      <trkpt lat="41.7482240" lon="2.0231800">
        <ele>558.1</ele>
        <time>2022-09-26T09:41:18Z</time>
      </trkpt>
      <trkpt lat="41.7481980" lon="2.0231890">
        <ele>558.4</ele>
        <time>2022-09-26T09:41:19Z</time>
      </trkpt>
      <trkpt lat="41.7481870" lon="2.0231930">
        <ele>558.6</ele>
        <time>2022-09-26T09:41:20Z</time>
      </trkpt>
      <trkpt lat="41.7481520" lon="2.0232040">
        <ele>559.0</ele>
        <time>2022-09-26T09:41:21Z</time>
      </trkpt>
      <trkpt lat="41.7481420" lon="2.0232060">
        <ele>559.1</ele>
        <time>2022-09-26T09:41:22Z</time>
      </trkpt>
      <trkpt lat="41.7481150" lon="2.0232130">
        <ele>559.4</ele>
        <time>2022-09-26T09:41:23Z</time>
      </trkpt>
      <trkpt lat="41.7481050" lon="2.0232150">
        <ele>559.6</ele>
        <time>2022-09-26T09:41:24Z</time>
      </trkpt>
      <trkpt lat="41.7480790" lon="2.0232290">
        <ele>559.9</ele>
        <time>2022-09-26T09:41:25Z</time>
      </trkpt>
      <trkpt lat="41.7480700" lon="2.0232360">
        <ele>560.1</ele>
        <time>2022-09-26T09:41:26Z</time>
      </trkpt>
      <trkpt lat="41.7480490" lon="2.0232580">
        <ele>560.4</ele>
        <time>2022-09-26T09:41:27Z</time>
      </trkpt>
      <trkpt lat="41.7480400" lon="2.0232690">
        <ele>560.5</ele>
        <time>2022-09-26T09:41:28Z</time>
      </trkpt>
      <trkpt lat="41.7480130" lon="2.0232890">
        <ele>560.9</ele>
        <time>2022-09-26T09:41:29Z</time>
      </trkpt>
      <trkpt lat="41.7480070" lon="2.0232930">
        <ele>561.0</ele>
        <time>2022-09-26T09:41:30Z</time>
      </trkpt>
      <trkpt lat="41.7479780" lon="2.0233200">
        <ele>561.5</ele>
        <time>2022-09-26T09:41:31Z</time>
      </trkpt>
      <trkpt lat="41.7479710" lon="2.0233310">
        <ele>561.6</ele>
        <time>2022-09-26T09:41:32Z</time>
      </trkpt>
      <trkpt lat="41.7479670" lon="2.0233440">
        <ele>561.8</ele>
        <time>2022-09-26T09:41:33Z</time>
      </trkpt>
      <trkpt lat="41.7479610" lon="2.0233730">
        <ele>562.0</ele>
        <time>2022-09-26T09:41:34Z</time>
      </trkpt>
      <trkpt lat="41.7479580" lon="2.0234080">
        <ele>562.4</ele>
        <time>2022-09-26T09:41:35Z</time>
      </trkpt>
      <trkpt lat="41.7479580" lon="2.0234240">
        <ele>562.5</ele>
        <time>2022-09-26T09:41:36Z</time>
      </trkpt>
      <trkpt lat="41.7479660" lon="2.0234600">
        <ele>562.9</ele>
        <time>2022-09-26T09:41:37Z</time>
      </trkpt>
      <trkpt lat="41.7479690" lon="2.0234700">
        <ele>563.0</ele>
        <time>2022-09-26T09:41:38Z</time>
      </trkpt>
      <trkpt lat="41.7479840" lon="2.0235110">
        <ele>563.4</ele>
        <time>2022-09-26T09:41:39Z</time>
      </trkpt>
      <trkpt lat="41.7479870" lon="2.0235230">
        <ele>563.5</ele>
        <time>2022-09-26T09:41:40Z</time>
      </trkpt>
      <trkpt lat="41.7479980" lon="2.0235490">
        <ele>563.8</ele>
        <time>2022-09-26T09:41:41Z</time>
      </trkpt>
      <trkpt lat="41.7480030" lon="2.0235630">
        <ele>563.9</ele>
        <time>2022-09-26T09:41:42Z</time>
      </trkpt>
      <trkpt lat="41.7480150" lon="2.0236050">
        <ele>564.3</ele>
        <time>2022-09-26T09:41:43Z</time>
      </trkpt>
      <trkpt lat="41.7480180" lon="2.0236140">
        <ele>564.4</ele>
        <time>2022-09-26T09:41:44Z</time>
      </trkpt>
      <trkpt lat="41.7480220" lon="2.0236370">
        <ele>564.6</ele>
        <time>2022-09-26T09:41:45Z</time>
      </trkpt>
      <trkpt lat="41.7480270" lon="2.0236560">
        <ele>564.7</ele>
        <time>2022-09-26T09:41:46Z</time>
      </trkpt>
      <trkpt lat="41.7480290" lon="2.0236750">
        <ele>564.9</ele>
        <time>2022-09-26T09:41:47Z</time>
      </trkpt>
      <trkpt lat="41.7480270" lon="2.0236980">
        <ele>565.1</ele>
        <time>2022-09-26T09:41:48Z</time>
      </trkpt>
      <trkpt lat="41.7480200" lon="2.0237350">
        <ele>565.4</ele>
        <time>2022-09-26T09:41:49Z</time>
      </trkpt>
      <trkpt lat="41.7480180" lon="2.0237460">
        <ele>565.5</ele>
        <time>2022-09-26T09:41:50Z</time>
      </trkpt>
      <trkpt lat="41.7480110" lon="2.0237840">
        <ele>565.8</ele>
        <time>2022-09-26T09:41:51Z</time>
      </trkpt>
      <trkpt lat="41.7480080" lon="2.0237950">
        <ele>565.9</ele>
        <time>2022-09-26T09:41:52Z</time>
      </trkpt>
      <trkpt lat="41.7480030" lon="2.0238120">
        <ele>566.1</ele>
        <time>2022-09-26T09:41:53Z</time>
      </trkpt>
      <trkpt lat="41.7479960" lon="2.0238350">
        <ele>566.3</ele>
        <time>2022-09-26T09:41:54Z</time>
      </trkpt>
      <trkpt lat="41.7479880" lon="2.0238560">
        <ele>566.5</ele>
        <time>2022-09-26T09:41:55Z</time>
      </trkpt>
      <trkpt lat="41.7479790" lon="2.0238760">
        <ele>566.6</ele>
        <time>2022-09-26T09:41:56Z</time>
      </trkpt>
      <trkpt lat="41.7479710" lon="2.0238910">
        <ele>566.8</ele>
        <time>2022-09-26T09:41:57Z</time>
      </trkpt>
      <trkpt lat="41.7479630" lon="2.0239170">
        <ele>567.0</ele>
        <time>2022-09-26T09:41:58Z</time>
      </trkpt>
      <trkpt lat="41.7479570" lon="2.0239360">
        <ele>567.2</ele>
        <time>2022-09-26T09:41:59Z</time>
      </trkpt>
      <trkpt lat="41.7479480" lon="2.0239600">
        <ele>567.4</ele>
        <time>2022-09-26T09:42:00Z</time>
      </trkpt>
      <trkpt lat="41.7479390" lon="2.0239810">
        <ele>567.6</ele>
        <time>2022-09-26T09:42:01Z</time>
      </trkpt>
      <trkpt lat="41.7479340" lon="2.0239930">
        <ele>567.7</ele>
        <time>2022-09-26T09:42:02Z</time>
      </trkpt>
      <trkpt lat="41.7479240" lon="2.0240330">
        <ele>568.0</ele>
        <time>2022-09-26T09:42:03Z</time>
      </trkpt>
      <trkpt lat="41.7479210" lon="2.0240480">
        <ele>568.2</ele>
        <time>2022-09-26T09:42:04Z</time>
      </trkpt>
      <trkpt lat="41.7479150" lon="2.0240690">
        <ele>568.3</ele>
        <time>2022-09-26T09:42:05Z</time>
      </trkpt>
      <trkpt lat="41.7479090" lon="2.0240890">
        <ele>568.5</ele>
        <time>2022-09-26T09:42:06Z</time>
      </trkpt>
      <trkpt lat="41.7478970" lon="2.0241270">
        <ele>568.8</ele>
        <time>2022-09-26T09:42:07Z</time>
      </trkpt>
      <trkpt lat="41.7478930" lon="2.0241410">
        <ele>568.9</ele>
        <time>2022-09-26T09:42:08Z</time>
      </trkpt>
      <trkpt lat="41.7478840" lon="2.0241760">
        <ele>569.1</ele>
        <time>2022-09-26T09:42:09Z</time>
      </trkpt>
      <trkpt lat="41.7478810" lon="2.0241890">
        <ele>569.2</ele>
        <time>2022-09-26T09:42:10Z</time>
      </trkpt>
      <trkpt lat="41.7478760" lon="2.0242080">
        <ele>569.3</ele>
        <time>2022-09-26T09:42:11Z</time>
      </trkpt>
      <trkpt lat="41.7478730" lon="2.0242280">
        <ele>569.4</ele>
        <time>2022-09-26T09:42:12Z</time>
      </trkpt>
      <trkpt lat="41.7478660" lon="2.0242690">
        <ele>569.6</ele>
        <time>2022-09-26T09:42:13Z</time>
      </trkpt>
      <trkpt lat="41.7478630" lon="2.0242860">
        <ele>569.6</ele>
        <time>2022-09-26T09:42:14Z</time>
      </trkpt>
      <trkpt lat="41.7478650" lon="2.0243230">
        <ele>569.8</ele>
        <time>2022-09-26T09:42:15Z</time>
      </trkpt>
      <trkpt lat="41.7478660" lon="2.0243360">
        <ele>569.8</ele>
        <time>2022-09-26T09:42:16Z</time>
      </trkpt>
      <trkpt lat="41.7478700" lon="2.0243770">
        <ele>569.9</ele>
        <time>2022-09-26T09:42:17Z</time>
      </trkpt>
      <trkpt lat="41.7478720" lon="2.0243870">
        <ele>570.0</ele>
        <time>2022-09-26T09:42:18Z</time>
      </trkpt>
      <trkpt lat="41.7478820" lon="2.0244230">
        <ele>570.0</ele>
        <time>2022-09-26T09:42:19Z</time>
      </trkpt>
      <trkpt lat="41.7478980" lon="2.0244590">
        <ele>570.1</ele>
        <time>2022-09-26T09:42:20Z</time>
      </trkpt>
      <trkpt lat="41.7479050" lon="2.0244750">
        <ele>570.1</ele>
        <time>2022-09-26T09:42:21Z</time>
      </trkpt>
      <trkpt lat="41.7479260" lon="2.0245160">
        <ele>570.2</ele>
        <time>2022-09-26T09:42:22Z</time>
      </trkpt>
      <trkpt lat="41.7479490" lon="2.0245510">
        <ele>570.2</ele>
        <time>2022-09-26T09:42:23Z</time>
      </trkpt>
      <trkpt lat="41.7479720" lon="2.0245870">
        <ele>570.2</ele>
        <time>2022-09-26T09:42:24Z</time>
      </trkpt>
      <trkpt lat="41.7479910" lon="2.0246170">
        <ele>570.2</ele>
        <time>2022-09-26T09:42:25Z</time>
      </trkpt>
      <trkpt lat="41.7480160" lon="2.0246570">
        <ele>570.2</ele>
        <time>2022-09-26T09:42:26Z</time>
      </trkpt>
      <trkpt lat="41.7480350" lon="2.0246870">
        <ele>570.2</ele>
        <time>2022-09-26T09:42:27Z</time>
      </trkpt>
      <trkpt lat="41.7480590" lon="2.0247250">
        <ele>570.2</ele>
        <time>2022-09-26T09:42:28Z</time>
      </trkpt>
      <trkpt lat="41.7480870" lon="2.0247680">
        <ele>570.1</ele>
        <time>2022-09-26T09:42:29Z</time>
      </trkpt>
      <trkpt lat="41.7480970" lon="2.0247830">
        <ele>570.1</ele>
        <time>2022-09-26T09:42:30Z</time>
      </trkpt>
      <trkpt lat="41.7481250" lon="2.0248150">
        <ele>570.1</ele>
        <time>2022-09-26T09:42:31Z</time>
      </trkpt>
      <trkpt lat="41.7481470" lon="2.0248420">
        <ele>570.1</ele>
        <time>2022-09-26T09:42:32Z</time>
      </trkpt>
      <trkpt lat="41.7481760" lon="2.0248770">
        <ele>570.1</ele>
        <time>2022-09-26T09:42:33Z</time>
      </trkpt>
      <trkpt lat="41.7482050" lon="2.0249100">
        <ele>570.1</ele>
        <time>2022-09-26T09:42:34Z</time>
      </trkpt>
      <trkpt lat="41.7482180" lon="2.0249240">
        <ele>570.1</ele>
        <time>2022-09-26T09:42:35Z</time>
      </trkpt>
      <trkpt lat="41.7482510" lon="2.0249580">
        <ele>570.2</ele>
        <time>2022-09-26T09:42:36Z</time>
      </trkpt>
      <trkpt lat="41.7482640" lon="2.0249720">
        <ele>570.2</ele>
        <time>2022-09-26T09:42:37Z</time>
      </trkpt>
      <trkpt lat="41.7482890" lon="2.0249980">
        <ele>570.3</ele>
        <time>2022-09-26T09:42:38Z</time>
      </trkpt>
      <trkpt lat="41.7483140" lon="2.0250230">
        <ele>570.4</ele>
        <time>2022-09-26T09:42:39Z</time>
      </trkpt>
      <trkpt lat="41.7483240" lon="2.0250340">
        <ele>570.4</ele>
        <time>2022-09-26T09:42:40Z</time>
      </trkpt>
      <trkpt lat="41.7483430" lon="2.0250620">
        <ele>570.5</ele>
        <time>2022-09-26T09:42:41Z</time>
      </trkpt>
      <trkpt lat="41.7483480" lon="2.0250720">
        <ele>570.5</ele>
        <time>2022-09-26T09:42:42Z</time>
      </trkpt>
      <trkpt lat="41.7483540" lon="2.0250910">
        <ele>570.6</ele>
        <time>2022-09-26T09:42:43Z</time>
      </trkpt>
      <trkpt lat="41.7483590" lon="2.0251120">
        <ele>570.7</ele>
        <time>2022-09-26T09:42:44Z</time>
      </trkpt>
      <trkpt lat="41.7483620" lon="2.0251410">
        <ele>570.8</ele>
        <time>2022-09-26T09:42:45Z</time>
      </trkpt>
      <trkpt lat="41.7483620" lon="2.0251560">
        <ele>570.8</ele>
        <time>2022-09-26T09:42:46Z</time>
      </trkpt>
      <trkpt lat="41.7483620" lon="2.0251720">
        <ele>570.9</ele>
        <time>2022-09-26T09:42:47Z</time>
      </trkpt>
      <trkpt lat="41.7483580" lon="2.0252060">
        <ele>571.1</ele>
        <time>2022-09-26T09:42:48Z</time>
      </trkpt>
      <trkpt lat="41.7483570" lon="2.0252200">
        <ele>571.1</ele>
        <time>2022-09-26T09:42:49Z</time>
      </trkpt>
      <trkpt lat="41.7483470" lon="2.0252650">
        <ele>571.3</ele>
        <time>2022-09-26T09:42:50Z</time>
      </trkpt>
      <trkpt lat="41.7483420" lon="2.0252830">
        <ele>571.4</ele>
        <time>2022-09-26T09:42:51Z</time>
      </trkpt>
      <trkpt lat="41.7483260" lon="2.0253150">
        <ele>571.6</ele>
        <time>2022-09-26T09:42:52Z</time>
      </trkpt>
      <trkpt lat="41.7483170" lon="2.0253310">
        <ele>571.7</ele>
        <time>2022-09-26T09:42:53Z</time>
      </trkpt>
      <trkpt lat="41.7482970" lon="2.0253700">
        <ele>572.0</ele>
        <time>2022-09-26T09:42:54Z</time>
      </trkpt>
      <trkpt lat="41.7482900" lon="2.0253820">
        <ele>572.0</ele>
        <time>2022-09-26T09:42:55Z</time>
      </trkpt>
      <trkpt lat="41.7482650" lon="2.0254130">
        <ele>572.3</ele>
        <time>2022-09-26T09:42:56Z</time>
      </trkpt>
      <trkpt lat="41.7482560" lon="2.0254230">
        <ele>572.3</ele>
        <time>2022-09-26T09:42:57Z</time>
      </trkpt>
      <trkpt lat="41.7482290" lon="2.0254550">
        <ele>572.5</ele>
        <time>2022-09-26T09:42:58Z</time>
      </trkpt>
      <trkpt lat="41.7482190" lon="2.0254670">
        <ele>572.6</ele>
        <time>2022-09-26T09:42:59Z</time>
      </trkpt>
      <trkpt lat="41.7481920" lon="2.0254950">
        <ele>572.8</ele>
        <time>2022-09-26T09:43:00Z</time>
      </trkpt>
      <trkpt lat="41.7481840" lon="2.0255030">
        <ele>572.8</ele>
        <time>2022-09-26T09:43:01Z</time>
      </trkpt>
      <trkpt lat="41.7481610" lon="2.0255280">
        <ele>572.9</ele>
        <time>2022-09-26T09:43:02Z</time>
      </trkpt>
      <trkpt lat="41.7481340" lon="2.0255510">
        <ele>573.1</ele>
        <time>2022-09-26T09:43:03Z</time>
      </trkpt>
      <trkpt lat="41.7481260" lon="2.0255570">
        <ele>573.1</ele>
        <time>2022-09-26T09:43:04Z</time>
      </trkpt>
      <trkpt lat="41.7480930" lon="2.0255810">
        <ele>573.3</ele>
        <time>2022-09-26T09:43:05Z</time>
      </trkpt>
      <trkpt lat="41.7480810" lon="2.0255900">
        <ele>573.3</ele>
        <time>2022-09-26T09:43:06Z</time>
      </trkpt>
      <trkpt lat="41.7480550" lon="2.0256060">
        <ele>573.4</ele>
        <time>2022-09-26T09:43:07Z</time>
      </trkpt>
      <trkpt lat="41.7480450" lon="2.0256110">
        <ele>573.5</ele>
        <time>2022-09-26T09:43:08Z</time>
      </trkpt>
      <trkpt lat="41.7480100" lon="2.0256250">
        <ele>573.6</ele>
        <time>2022-09-26T09:43:09Z</time>
      </trkpt>
      <trkpt lat="41.7479950" lon="2.0256300">
        <ele>573.7</ele>
        <time>2022-09-26T09:43:10Z</time>
      </trkpt>
      <trkpt lat="41.7479600" lon="2.0256370">
        <ele>573.9</ele>
        <time>2022-09-26T09:43:11Z</time>
      </trkpt>
      <trkpt lat="41.7479480" lon="2.0256390">
        <ele>573.9</ele>
        <time>2022-09-26T09:43:12Z</time>
      </trkpt>
      <trkpt lat="41.7479200" lon="2.0256380">
        <ele>574.0</ele>
        <time>2022-09-26T09:43:13Z</time>
      </trkpt>
      <trkpt lat="41.7479110" lon="2.0256380">
        <ele>574.1</ele>
        <time>2022-09-26T09:43:14Z</time>
      </trkpt>
      <trkpt lat="41.7478830" lon="2.0256360">
        <ele>574.2</ele>
        <time>2022-09-26T09:43:15Z</time>
      </trkpt>
      <trkpt lat="41.7478530" lon="2.0256380">
        <ele>574.4</ele>
        <time>2022-09-26T09:43:16Z</time>
      </trkpt>
      <trkpt lat="41.7478430" lon="2.0256410">
        <ele>574.5</ele>
        <time>2022-09-26T09:43:17Z</time>
      </trkpt>
      <trkpt lat="41.7478130" lon="2.0256480">
        <ele>574.6</ele>
        <time>2022-09-26T09:43:18Z</time>
      </trkpt>
      <trkpt lat="41.7478010" lon="2.0256510">
        <ele>574.7</ele>
        <time>2022-09-26T09:43:19Z</time>
      </trkpt>
      <trkpt lat="41.7477690" lon="2.0256610">
        <ele>574.9</ele>
        <time>2022-09-26T09:43:20Z</time>
      </trkpt>
      <trkpt lat="41.7477590" lon="2.0256640">
        <ele>575.0</ele>
        <time>2022-09-26T09:43:21Z</time>
      </trkpt>
      <trkpt lat="41.7477190" lon="2.0256830">
        <ele>575.3</ele>
        <time>2022-09-26T09:43:22Z</time>
      </trkpt>
      <trkpt lat="41.7477050" lon="2.0256910">
        <ele>575.4</ele>
        <time>2022-09-26T09:43:23Z</time>
      </trkpt>
      <trkpt lat="41.7476700" lon="2.0257100">
        <ele>575.6</ele>
        <time>2022-09-26T09:43:24Z</time>
      </trkpt>
      <trkpt lat="41.7476540" lon="2.0257170">
        <ele>575.7</ele>
        <time>2022-09-26T09:43:25Z</time>
      </trkpt>
      <trkpt lat="41.7476160" lon="2.0257400">
        <ele>576.0</ele>
        <time>2022-09-26T09:43:26Z</time>
      </trkpt>
      <trkpt lat="41.7476020" lon="2.0257500">
        <ele>576.1</ele>
        <time>2022-09-26T09:43:27Z</time>
      </trkpt>
      <trkpt lat="41.7475760" lon="2.0257670">
        <ele>576.3</ele>
        <time>2022-09-26T09:43:28Z</time>
      </trkpt>
      <trkpt lat="41.7475640" lon="2.0257750">
        <ele>576.4</ele>
        <time>2022-09-26T09:43:29Z</time>
      </trkpt>
      <trkpt lat="41.7475350" lon="2.0257960">
        <ele>576.6</ele>
        <time>2022-09-26T09:43:30Z</time>
      </trkpt>
      <trkpt lat="41.7475240" lon="2.0258040">
        <ele>576.7</ele>
        <time>2022-09-26T09:43:31Z</time>
      </trkpt>
      <trkpt lat="41.7474910" lon="2.0258280">
        <ele>577.0</ele>
        <time>2022-09-26T09:43:32Z</time>
      </trkpt>
      <trkpt lat="41.7474770" lon="2.0258370">
        <ele>577.1</ele>
        <time>2022-09-26T09:43:33Z</time>
      </trkpt>
      <trkpt lat="41.7474510" lon="2.0258580">
        <ele>577.3</ele>
        <time>2022-09-26T09:43:34Z</time>
      </trkpt>
      <trkpt lat="41.7474450" lon="2.0258630">
        <ele>577.3</ele>
        <time>2022-09-26T09:43:35Z</time>
      </trkpt>
      <trkpt lat="41.7474170" lon="2.0258910">
        <ele>577.6</ele>
        <time>2022-09-26T09:43:36Z</time>
      </trkpt>
      <trkpt lat="41.7474070" lon="2.0259030">
        <ele>577.7</ele>
        <time>2022-09-26T09:43:37Z</time>
      </trkpt>
      <trkpt lat="41.7473840" lon="2.0259320">
        <ele>577.9</ele>
        <time>2022-09-26T09:43:38Z</time>
      </trkpt>
      <trkpt lat="41.7473740" lon="2.0259440">
        <ele>578.0</ele>
        <time>2022-09-26T09:43:39Z</time>
      </trkpt>
      <trkpt lat="41.7473480" lon="2.0259740">
        <ele>578.2</ele>
        <time>2022-09-26T09:43:40Z</time>
      </trkpt>
      <trkpt lat="41.7473400" lon="2.0259860">
        <ele>578.3</ele>
        <time>2022-09-26T09:43:41Z</time>
      </trkpt>
      <trkpt lat="41.7473220" lon="2.0260170">
        <ele>578.5</ele>
        <time>2022-09-26T09:43:42Z</time>
      </trkpt>
      <trkpt lat="41.7473160" lon="2.0260280">
        <ele>578.6</ele>
        <time>2022-09-26T09:43:43Z</time>
      </trkpt>
      <trkpt lat="41.7472970" lon="2.0260600">
        <ele>578.8</ele>
        <time>2022-09-26T09:43:44Z</time>
      </trkpt>
      <trkpt lat="41.7472910" lon="2.0260710">
        <ele>578.9</ele>
        <time>2022-09-26T09:43:45Z</time>
      </trkpt>
      <trkpt lat="41.7472780" lon="2.0261000">
        <ele>579.0</ele>
        <time>2022-09-26T09:43:46Z</time>
      </trkpt>
      <trkpt lat="41.7472720" lon="2.0261120">
        <ele>579.1</ele>
        <time>2022-09-26T09:43:47Z</time>
      </trkpt>
      <trkpt lat="41.7472550" lon="2.0261420">
        <ele>579.4</ele>
        <time>2022-09-26T09:43:48Z</time>
      </trkpt>
      <trkpt lat="41.7472490" lon="2.0261530">
        <ele>579.4</ele>
        <time>2022-09-26T09:43:49Z</time>
      </trkpt>
      <trkpt lat="41.7472390" lon="2.0261720">
        <ele>579.6</ele>
        <time>2022-09-26T09:43:50Z</time>
      </trkpt>
      <trkpt lat="41.7472290" lon="2.0261930">
        <ele>579.7</ele>
        <time>2022-09-26T09:43:51Z</time>
      </trkpt>
      <trkpt lat="41.7472200" lon="2.0262110">
        <ele>579.9</ele>
        <time>2022-09-26T09:43:52Z</time>
      </trkpt>
      <trkpt lat="41.7472070" lon="2.0262310">
        <ele>580.1</ele>
        <time>2022-09-26T09:43:53Z</time>
      </trkpt>
      <trkpt lat="41.7471910" lon="2.0262560">
        <ele>580.3</ele>
        <time>2022-09-26T09:43:54Z</time>
      </trkpt>
      <trkpt lat="41.7471830" lon="2.0262690">
        <ele>580.4</ele>
        <time>2022-09-26T09:43:55Z</time>
      </trkpt>
      <trkpt lat="41.7471590" lon="2.0263040">
        <ele>580.7</ele>
        <time>2022-09-26T09:43:56Z</time>
      </trkpt>
      <trkpt lat="41.7471510" lon="2.0263140">
        <ele>580.8</ele>
        <time>2022-09-26T09:43:57Z</time>
      </trkpt>
      <trkpt lat="41.7471370" lon="2.0263340">
        <ele>581.0</ele>
        <time>2022-09-26T09:43:58Z</time>
      </trkpt>
      <trkpt lat="41.7471290" lon="2.0263490">
        <ele>581.2</ele>
        <time>2022-09-26T09:43:59Z</time>
      </trkpt>
      <trkpt lat="41.7471110" lon="2.0263810">
        <ele>581.5</ele>
        <time>2022-09-26T09:44:00Z</time>
      </trkpt>
      <trkpt lat="41.7471060" lon="2.0263870">
        <ele>581.5</ele>
        <time>2022-09-26T09:44:01Z</time>
      </trkpt>
      <trkpt lat="41.7470950" lon="2.0264030">
        <ele>581.7</ele>
        <time>2022-09-26T09:44:02Z</time>
      </trkpt>
      <trkpt lat="41.7470830" lon="2.0264220">
        <ele>581.9</ele>
        <time>2022-09-26T09:44:03Z</time>
      </trkpt>
      <trkpt lat="41.7470600" lon="2.0264580">
        <ele>582.2</ele>
        <time>2022-09-26T09:44:04Z</time>
      </trkpt>
      <trkpt lat="41.7470540" lon="2.0264690">
        <ele>582.3</ele>
        <time>2022-09-26T09:44:05Z</time>
      </trkpt>
      <trkpt lat="41.7470340" lon="2.0265110">
        <ele>582.7</ele>
        <time>2022-09-26T09:44:06Z</time>
      </trkpt>
      <trkpt lat="41.7470270" lon="2.0265260">
        <ele>582.8</ele>
        <time>2022-09-26T09:44:07Z</time>
      </trkpt>
      <trkpt lat="41.7470140" lon="2.0265420">
        <ele>583.0</ele>
        <time>2022-09-26T09:44:08Z</time>
      </trkpt>
      <trkpt lat="41.7470030" lon="2.0265530">
        <ele>583.1</ele>
        <time>2022-09-26T09:44:09Z</time>
      </trkpt>
      <trkpt lat="41.7469940" lon="2.0265660">
        <ele>583.3</ele>
        <time>2022-09-26T09:44:10Z</time>
      </trkpt>
      <trkpt lat="41.7469820" lon="2.0265820">
        <ele>583.5</ele>
        <time>2022-09-26T09:44:11Z</time>
      </trkpt>
      <trkpt lat="41.7469610" lon="2.0266050">
        <ele>583.7</ele>
        <time>2022-09-26T09:44:12Z</time>
      </trkpt>
      <trkpt lat="41.7469520" lon="2.0266140">
        <ele>583.9</ele>
        <time>2022-09-26T09:44:13Z</time>
      </trkpt>
      <trkpt lat="41.7469300" lon="2.0266350">
        <ele>584.2</ele>
        <time>2022-09-26T09:44:14Z</time>
      </trkpt>
      <trkpt lat="41.7469210" lon="2.0266430">
        <ele>584.3</ele>
        <time>2022-09-26T09:44:15Z</time>
      </trkpt>
      <trkpt lat="41.7469090" lon="2.0266510">
        <ele>584.4</ele>
        <time>2022-09-26T09:44:16Z</time>
      </trkpt>
      <trkpt lat="41.7468920" lon="2.0266600">
        <ele>584.7</ele>
        <time>2022-09-26T09:44:17Z</time>
      </trkpt>
      <trkpt lat="41.7468780" lon="2.0266660">
        <ele>584.9</ele>
        <time>2022-09-26T09:44:18Z</time>
      </trkpt>
      <trkpt lat="41.7468600" lon="2.0266690">
        <ele>585.1</ele>
        <time>2022-09-26T09:44:19Z</time>
      </trkpt>
      <trkpt lat="41.7468490" lon="2.0266670">
        <ele>585.2</ele>
        <time>2022-09-26T09:44:20Z</time>
      </trkpt>
      <trkpt lat="41.7468300" lon="2.0266610">
        <ele>585.5</ele>
        <time>2022-09-26T09:44:21Z</time>
      </trkpt>
      <trkpt lat="41.7468110" lon="2.0266460">
        <ele>585.8</ele>
        <time>2022-09-26T09:44:22Z</time>
      </trkpt>
      <trkpt lat="41.7468040" lon="2.0266400">
        <ele>585.9</ele>
        <time>2022-09-26T09:44:23Z</time>
      </trkpt>
      <trkpt lat="41.7467980" lon="2.0266340">
        <ele>586.0</ele>
        <time>2022-09-26T09:44:24Z</time>
      </trkpt>
      <trkpt lat="41.7467870" lon="2.0266230">
        <ele>586.2</ele>
        <time>2022-09-26T09:44:25Z</time>
      </trkpt>
      <trkpt lat="41.7467820" lon="2.0266120">
        <ele>586.4</ele>
        <time>2022-09-26T09:44:26Z</time>
      </trkpt>
      <trkpt lat="41.7467770" lon="2.0265980">
        <ele>586.5</ele>
        <time>2022-09-26T09:44:27Z</time>
      </trkpt>
      <trkpt lat="41.7467740" lon="2.0265870">
        <ele>586.6</ele>
        <time>2022-09-26T09:44:28Z</time>
      </trkpt>
      <trkpt lat="41.7467720" lon="2.0265710">
        <ele>586.8</ele>
        <time>2022-09-26T09:44:29Z</time>
      </trkpt>
      <trkpt lat="41.7467690" lon="2.0265590">
        <ele>586.9</ele>
        <time>2022-09-26T09:44:30Z</time>
      </trkpt>
      <trkpt lat="41.7467630" lon="2.0265400">
        <ele>587.1</ele>
        <time>2022-09-26T09:44:31Z</time>
      </trkpt>
      <trkpt lat="41.7467560" lon="2.0265180">
        <ele>587.4</ele>
        <time>2022-09-26T09:44:32Z</time>
      </trkpt>
      <trkpt lat="41.7467470" lon="2.0264800">
        <ele>587.8</ele>
        <time>2022-09-26T09:44:33Z</time>
      </trkpt>
      <trkpt lat="41.7467430" lon="2.0264690">
        <ele>587.9</ele>
        <time>2022-09-26T09:44:34Z</time>
      </trkpt>
      <trkpt lat="41.7467270" lon="2.0264280">
        <ele>588.3</ele>
        <time>2022-09-26T09:44:35Z</time>
      </trkpt>
      <trkpt lat="41.7467220" lon="2.0264160">
        <ele>588.4</ele>
        <time>2022-09-26T09:44:36Z</time>
      </trkpt>
      <trkpt lat="41.7467150" lon="2.0264030">
        <ele>588.6</ele>
        <time>2022-09-26T09:44:37Z</time>
      </trkpt>
      <trkpt lat="41.7467010" lon="2.0263790">
        <ele>588.8</ele>
        <time>2022-09-26T09:44:38Z</time>
      </trkpt>
      <trkpt lat="41.7466900" lon="2.0263460">
        <ele>589.1</ele>
        <time>2022-09-26T09:44:39Z</time>
      </trkpt>
      <trkpt lat="41.7466870" lon="2.0263340">
        <ele>589.2</ele>
        <time>2022-09-26T09:44:40Z</time>
      </trkpt>
      <trkpt lat="41.7466800" lon="2.0262990">
        <ele>589.4</ele>
        <time>2022-09-26T09:44:41Z</time>
      </trkpt>
      <trkpt lat="41.7466780" lon="2.0262870">
        <ele>589.5</ele>
        <time>2022-09-26T09:44:42Z</time>
      </trkpt>
      <trkpt lat="41.7466680" lon="2.0262470">
        <ele>589.7</ele>
        <time>2022-09-26T09:44:43Z</time>
      </trkpt>
      <trkpt lat="41.7466650" lon="2.0262350">
        <ele>589.8</ele>
        <time>2022-09-26T09:44:44Z</time>
      </trkpt>
      <trkpt lat="41.7466600" lon="2.0261910">
        <ele>590.0</ele>
        <time>2022-09-26T09:44:45Z</time>
      </trkpt>
      <trkpt lat="41.7466590" lon="2.0261750">
        <ele>590.0</ele>
        <time>2022-09-26T09:44:46Z</time>
      </trkpt>
      <trkpt lat="41.7466490" lon="2.0261240">
        <ele>590.2</ele>
        <time>2022-09-26T09:44:47Z</time>
      </trkpt>
      <trkpt lat="41.7466460" lon="2.0261070">
        <ele>590.2</ele>
        <time>2022-09-26T09:44:48Z</time>
      </trkpt>
      <trkpt lat="41.7466330" lon="2.0260390">
        <ele>590.3</ele>
        <time>2022-09-26T09:44:49Z</time>
      </trkpt>
      <trkpt lat="41.7466250" lon="2.0259950">
        <ele>590.2</ele>
        <time>2022-09-26T09:44:50Z</time>
      </trkpt>
      <trkpt lat="41.7466200" lon="2.0259410">
        <ele>590.2</ele>
        <time>2022-09-26T09:44:51Z</time>
      </trkpt>
      <trkpt lat="41.7466220" lon="2.0258850">
        <ele>590.1</ele>
        <time>2022-09-26T09:44:52Z</time>
      </trkpt>
      <trkpt lat="41.7466260" lon="2.0258330">
        <ele>590.0</ele>
        <time>2022-09-26T09:44:53Z</time>
      </trkpt>
      <trkpt lat="41.7466310" lon="2.0257850">
        <ele>589.9</ele>
        <time>2022-09-26T09:44:54Z</time>
      </trkpt>
      <trkpt lat="41.7466390" lon="2.0257190">
        <ele>589.7</ele>
        <time>2022-09-26T09:44:55Z</time>
      </trkpt>
      <trkpt lat="41.7466480" lon="2.0256320">
        <ele>589.4</ele>
        <time>2022-09-26T09:44:56Z</time>
      </trkpt>
      <trkpt lat="41.7466520" lon="2.0255490">
        <ele>589.1</ele>
        <time>2022-09-26T09:44:57Z</time>
      </trkpt>
      <trkpt lat="41.7466560" lon="2.0254630">
        <ele>588.8</ele>
        <time>2022-09-26T09:44:58Z</time>
      </trkpt>
      <trkpt lat="41.7466540" lon="2.0253670">
        <ele>588.5</ele>
        <time>2022-09-26T09:44:59Z</time>
      </trkpt>
      <trkpt lat="41.7466480" lon="2.0252780">
        <ele>588.3</ele>
        <time>2022-09-26T09:45:00Z</time>
      </trkpt>
      <trkpt lat="41.7466450" lon="2.0251960">
        <ele>588.1</ele>
        <time>2022-09-26T09:45:01Z</time>
      </trkpt>
      <trkpt lat="41.7466380" lon="2.0251220">
        <ele>587.9</ele>
        <time>2022-09-26T09:45:02Z</time>
      </trkpt>
      <trkpt lat="41.7466230" lon="2.0250510">
        <ele>587.7</ele>
        <time>2022-09-26T09:45:03Z</time>
      </trkpt>
      <trkpt lat="41.7466080" lon="2.0249850">
        <ele>587.6</ele>
        <time>2022-09-26T09:45:04Z</time>
      </trkpt>
      <trkpt lat="41.7465890" lon="2.0249270">
        <ele>587.4</ele>
        <time>2022-09-26T09:45:05Z</time>
      </trkpt>
      <trkpt lat="41.7465660" lon="2.0248740">
        <ele>587.3</ele>
        <time>2022-09-26T09:45:06Z</time>
      </trkpt>
      <trkpt lat="41.7465450" lon="2.0248190">
        <ele>587.2</ele>
        <time>2022-09-26T09:45:07Z</time>
      </trkpt>
      <trkpt lat="41.7465250" lon="2.0247680">
        <ele>587.1</ele>
        <time>2022-09-26T09:45:08Z</time>
      </trkpt>
      <trkpt lat="41.7465170" lon="2.0247460">
        <ele>587.0</ele>
        <time>2022-09-26T09:45:09Z</time>
      </trkpt>
      <trkpt lat="41.7465010" lon="2.0246960">
        <ele>587.0</ele>
        <time>2022-09-26T09:45:10Z</time>
      </trkpt>
      <trkpt lat="41.7464880" lon="2.0246400">
        <ele>587.0</ele>
        <time>2022-09-26T09:45:11Z</time>
      </trkpt>
      <trkpt lat="41.7464790" lon="2.0245910">
        <ele>587.0</ele>
        <time>2022-09-26T09:45:12Z</time>
      </trkpt>
      <trkpt lat="41.7464730" lon="2.0245440">
        <ele>587.1</ele>
        <time>2022-09-26T09:45:13Z</time>
      </trkpt>
      <trkpt lat="41.7464700" lon="2.0244920">
        <ele>587.1</ele>
        <time>2022-09-26T09:45:14Z</time>
      </trkpt>
      <trkpt lat="41.7464690" lon="2.0244460">
        <ele>587.2</ele>
        <time>2022-09-26T09:45:15Z</time>
      </trkpt>
      <trkpt lat="41.7464640" lon="2.0243910">
        <ele>587.3</ele>
        <time>2022-09-26T09:45:16Z</time>
      </trkpt>
      <trkpt lat="41.7464620" lon="2.0243700">
        <ele>587.4</ele>
        <time>2022-09-26T09:45:17Z</time>
      </trkpt>
      <trkpt lat="41.7464550" lon="2.0243230">
        <ele>587.5</ele>
        <time>2022-09-26T09:45:18Z</time>
      </trkpt>
      <trkpt lat="41.7464450" lon="2.0242710">
        <ele>587.6</ele>
        <time>2022-09-26T09:45:19Z</time>
      </trkpt>
      <trkpt lat="41.7464420" lon="2.0242520">
        <ele>587.7</ele>
        <time>2022-09-26T09:45:20Z</time>
      </trkpt>
      <trkpt lat="41.7464370" lon="2.0242100">
        <ele>587.8</ele>
        <time>2022-09-26T09:45:21Z</time>
      </trkpt>
      <trkpt lat="41.7464320" lon="2.0241660">
        <ele>587.9</ele>
        <time>2022-09-26T09:45:22Z</time>
      </trkpt>
      <trkpt lat="41.7464260" lon="2.0241190">
        <ele>588.0</ele>
        <time>2022-09-26T09:45:23Z</time>
      </trkpt>
      <trkpt lat="41.7464210" lon="2.0240780">
        <ele>588.1</ele>
        <time>2022-09-26T09:45:24Z</time>
      </trkpt>
      <trkpt lat="41.7464160" lon="2.0240340">
        <ele>588.3</ele>
        <time>2022-09-26T09:45:25Z</time>
      </trkpt>
      <trkpt lat="41.7464090" lon="2.0239810">
        <ele>588.4</ele>
        <time>2022-09-26T09:45:26Z</time>
      </trkpt>
      <trkpt lat="41.7464060" lon="2.0239580">
        <ele>588.5</ele>
        <time>2022-09-26T09:45:27Z</time>
      </trkpt>
      <trkpt lat="41.7464030" lon="2.0239190">
        <ele>588.6</ele>
        <time>2022-09-26T09:45:28Z</time>
      </trkpt>
      <trkpt lat="41.7463980" lon="2.0238750">
        <ele>588.7</ele>
        <time>2022-09-26T09:45:29Z</time>
      </trkpt>
      <trkpt lat="41.7463870" lon="2.0238230">
        <ele>588.9</ele>
        <time>2022-09-26T09:45:30Z</time>
      </trkpt>
      <trkpt lat="41.7463820" lon="2.0238050">
        <ele>589.0</ele>
        <time>2022-09-26T09:45:31Z</time>
      </trkpt>
      <trkpt lat="41.7463680" lon="2.0237580">
        <ele>589.1</ele>
        <time>2022-09-26T09:45:32Z</time>
      </trkpt>
      <trkpt lat="41.7463640" lon="2.0237410">
        <ele>589.2</ele>
        <time>2022-09-26T09:45:33Z</time>
      </trkpt>
      <trkpt lat="41.7463460" lon="2.0236970">
        <ele>589.3</ele>
        <time>2022-09-26T09:45:34Z</time>
      </trkpt>
      <trkpt lat="41.7463390" lon="2.0236830">
        <ele>589.4</ele>
        <time>2022-09-26T09:45:35Z</time>
      </trkpt>
      <trkpt lat="41.7463230" lon="2.0236380">
        <ele>589.5</ele>
        <time>2022-09-26T09:45:36Z</time>
      </trkpt>
      <trkpt lat="41.7463090" lon="2.0236000">
        <ele>589.7</ele>
        <time>2022-09-26T09:45:37Z</time>
      </trkpt>
      <trkpt lat="41.7463040" lon="2.0235900">
        <ele>589.7</ele>
        <time>2022-09-26T09:45:38Z</time>
      </trkpt>
      <trkpt lat="41.7462860" lon="2.0235520">
        <ele>589.9</ele>
        <time>2022-09-26T09:45:39Z</time>
      </trkpt>
      <trkpt lat="41.7462670" lon="2.0235150">
        <ele>590.1</ele>
        <time>2022-09-26T09:45:40Z</time>
      </trkpt>
      <trkpt lat="41.7462610" lon="2.0235040">
        <ele>590.1</ele>
        <time>2022-09-26T09:45:41Z</time>
      </trkpt>
      <trkpt lat="41.7462430" lon="2.0234740">
        <ele>590.3</ele>
        <time>2022-09-26T09:45:42Z</time>
      </trkpt>
      <trkpt lat="41.7462210" lon="2.0234450">
        <ele>590.5</ele>
        <time>2022-09-26T09:45:43Z</time>
      </trkpt>
      <trkpt lat="41.7462130" lon="2.0234350">
        <ele>590.6</ele>
        <time>2022-09-26T09:45:44Z</time>
      </trkpt>
      <trkpt lat="41.7461960" lon="2.0234080">
        <ele>590.8</ele>
        <time>2022-09-26T09:45:45Z</time>
      </trkpt>
      <trkpt lat="41.7461880" lon="2.0233950">
        <ele>590.8</ele>
        <time>2022-09-26T09:45:46Z</time>
      </trkpt>
      <trkpt lat="41.7461670" lon="2.0233600">
        <ele>591.1</ele>
        <time>2022-09-26T09:45:47Z</time>
      </trkpt>
      <trkpt lat="41.7461470" lon="2.0233270">
        <ele>591.3</ele>
        <time>2022-09-26T09:45:48Z</time>
      </trkpt>
      <trkpt lat="41.7461390" lon="2.0233150">
        <ele>591.4</ele>
        <time>2022-09-26T09:45:49Z</time>
      </trkpt>
      <trkpt lat="41.7461170" lon="2.0232870">
        <ele>591.7</ele>
        <time>2022-09-26T09:45:50Z</time>
      </trkpt>
      <trkpt lat="41.7460900" lon="2.0232560">
        <ele>591.9</ele>
        <time>2022-09-26T09:45:51Z</time>
      </trkpt>
      <trkpt lat="41.7460800" lon="2.0232440">
        <ele>592.0</ele>
        <time>2022-09-26T09:45:52Z</time>
      </trkpt>
      <trkpt lat="41.7460510" lon="2.0232050">
        <ele>592.4</ele>
        <time>2022-09-26T09:45:53Z</time>
      </trkpt>
      <trkpt lat="41.7460400" lon="2.0231900">
        <ele>592.5</ele>
        <time>2022-09-26T09:45:54Z</time>
      </trkpt>
      <trkpt lat="41.7460160" lon="2.0231600">
        <ele>592.7</ele>
        <time>2022-09-26T09:45:55Z</time>
      </trkpt>
      <trkpt lat="41.7459880" lon="2.0231290">
        <ele>593.0</ele>
        <time>2022-09-26T09:45:56Z</time>
      </trkpt>
      <trkpt lat="41.7459750" lon="2.0231150">
        <ele>593.1</ele>
        <time>2022-09-26T09:45:57Z</time>
      </trkpt>
      <trkpt lat="41.7459530" lon="2.0230940">
        <ele>593.3</ele>
        <time>2022-09-26T09:45:58Z</time>
      </trkpt>
      <trkpt lat="41.7459190" lon="2.0230710">
        <ele>593.6</ele>
        <time>2022-09-26T09:45:59Z</time>
      </trkpt>
      <trkpt lat="41.7459050" lon="2.0230630">
        <ele>593.7</ele>
        <time>2022-09-26T09:46:00Z</time>
      </trkpt>
      <trkpt lat="41.7458740" lon="2.0230490">
        <ele>593.9</ele>
        <time>2022-09-26T09:46:01Z</time>
      </trkpt>
      <trkpt lat="41.7458670" lon="2.0230460">
        <ele>594.0</ele>
        <time>2022-09-26T09:46:02Z</time>
      </trkpt>
      <trkpt lat="41.7458390" lon="2.0230380">
        <ele>594.2</ele>
        <time>2022-09-26T09:46:03Z</time>
      </trkpt>
      <trkpt lat="41.7458060" lon="2.0230320">
        <ele>594.4</ele>
        <time>2022-09-26T09:46:04Z</time>
      </trkpt>
      <trkpt lat="41.7457930" lon="2.0230300">
        <ele>594.5</ele>
        <time>2022-09-26T09:46:05Z</time>
      </trkpt>
      <trkpt lat="41.7457660" lon="2.0230240">
        <ele>594.8</ele>
        <time>2022-09-26T09:46:06Z</time>
      </trkpt>
      <trkpt lat="41.7457390" lon="2.0230180">
        <ele>595.0</ele>
        <time>2022-09-26T09:46:07Z</time>
      </trkpt>
      <trkpt lat="41.7457260" lon="2.0230160">
        <ele>595.1</ele>
        <time>2022-09-26T09:46:08Z</time>
      </trkpt>
      <trkpt lat="41.7456910" lon="2.0230140">
        <ele>595.4</ele>
        <time>2022-09-26T09:46:09Z</time>
      </trkpt>
      <trkpt lat="41.7456790" lon="2.0230140">
        <ele>595.5</ele>
        <time>2022-09-26T09:46:10Z</time>
      </trkpt>
      <trkpt lat="41.7456500" lon="2.0230140">
        <ele>595.7</ele>
        <time>2022-09-26T09:46:11Z</time>
      </trkpt>
      <trkpt lat="41.7456410" lon="2.0230150">
        <ele>595.8</ele>
        <time>2022-09-26T09:46:12Z</time>
      </trkpt>
      <trkpt lat="41.7456100" lon="2.0230170">
        <ele>596.1</ele>
        <time>2022-09-26T09:46:13Z</time>
      </trkpt>
      <trkpt lat="41.7456010" lon="2.0230170">
        <ele>596.2</ele>
        <time>2022-09-26T09:46:14Z</time>
      </trkpt>
      <trkpt lat="41.7455670" lon="2.0230190">
        <ele>596.5</ele>
        <time>2022-09-26T09:46:15Z</time>
      </trkpt>
      <trkpt lat="41.7455540" lon="2.0230210">
        <ele>596.7</ele>
        <time>2022-09-26T09:46:16Z</time>
      </trkpt>
      <trkpt lat="41.7455250" lon="2.0230290">
        <ele>597.0</ele>
        <time>2022-09-26T09:46:17Z</time>
      </trkpt>
      <trkpt lat="41.7455160" lon="2.0230330">
        <ele>597.1</ele>
        <time>2022-09-26T09:46:18Z</time>
      </trkpt>
      <trkpt lat="41.7454870" lon="2.0230440">
        <ele>597.4</ele>
        <time>2022-09-26T09:46:19Z</time>
      </trkpt>
      <trkpt lat="41.7454770" lon="2.0230470">
        <ele>597.5</ele>
        <time>2022-09-26T09:46:20Z</time>
      </trkpt>
      <trkpt lat="41.7454480" lon="2.0230540">
        <ele>597.8</ele>
        <time>2022-09-26T09:46:21Z</time>
      </trkpt>
      <trkpt lat="41.7454400" lon="2.0230560">
        <ele>597.9</ele>
        <time>2022-09-26T09:46:22Z</time>
      </trkpt>
      <trkpt lat="41.7454100" lon="2.0230620">
        <ele>598.3</ele>
        <time>2022-09-26T09:46:23Z</time>
      </trkpt>
      <trkpt lat="41.7454010" lon="2.0230640">
        <ele>598.4</ele>
        <time>2022-09-26T09:46:24Z</time>
      </trkpt>
      <trkpt lat="41.7453820" lon="2.0230710">
        <ele>598.6</ele>
        <time>2022-09-26T09:46:25Z</time>
      </trkpt>
      <trkpt lat="41.7453680" lon="2.0230750">
        <ele>598.7</ele>
        <time>2022-09-26T09:46:26Z</time>
      </trkpt>
      <trkpt lat="41.7453500" lon="2.0230800">
        <ele>598.9</ele>
        <time>2022-09-26T09:46:27Z</time>
      </trkpt>
      <trkpt lat="41.7453380" lon="2.0230840">
        <ele>599.1</ele>
        <time>2022-09-26T09:46:28Z</time>
      </trkpt>
      <trkpt lat="41.7453190" lon="2.0230910">
        <ele>599.3</ele>
        <time>2022-09-26T09:46:29Z</time>
      </trkpt>
      <trkpt lat="41.7453050" lon="2.0230960">
        <ele>599.5</ele>
        <time>2022-09-26T09:46:30Z</time>
      </trkpt>
      <trkpt lat="41.7452930" lon="2.0231010">
        <ele>599.7</ele>
        <time>2022-09-26T09:46:31Z</time>
      </trkpt>
      <trkpt lat="41.7452790" lon="2.0231060">
        <ele>599.8</ele>
        <time>2022-09-26T09:46:32Z</time>
      </trkpt>
      <trkpt lat="41.7452660" lon="2.0231100">
        <ele>600.0</ele>
        <time>2022-09-26T09:46:33Z</time>
      </trkpt>
      <trkpt lat="41.7452490" lon="2.0231130">
        <ele>600.2</ele>
        <time>2022-09-26T09:46:34Z</time>
      </trkpt>
      <trkpt lat="41.7452360" lon="2.0231140">
        <ele>600.3</ele>
        <time>2022-09-26T09:46:35Z</time>
      </trkpt>
      <trkpt lat="41.7452180" lon="2.0231140">
        <ele>600.6</ele>
        <time>2022-09-26T09:46:36Z</time>
      </trkpt>
      <trkpt lat="41.7452040" lon="2.0231210">
        <ele>600.7</ele>
        <time>2022-09-26T09:46:37Z</time>
      </trkpt>
      <trkpt lat="41.7451870" lon="2.0231280">
        <ele>601.2</ele>
        <time>2022-09-26T09:46:38Z</time>
      </trkpt>
      <trkpt lat="41.7451750" lon="2.0231330">
        <ele>601.3</ele>
        <time>2022-09-26T09:46:39Z</time>
      </trkpt>
      <trkpt lat="41.7451600" lon="2.0231410">
        <ele>601.4</ele>
        <time>2022-09-26T09:46:40Z</time>
      </trkpt>
      <trkpt lat="41.7451450" lon="2.0231520">
        <ele>601.5</ele>
        <time>2022-09-26T09:46:41Z</time>
      </trkpt>
      <trkpt lat="41.7451330" lon="2.0231600">
        <ele>601.5</ele>
        <time>2022-09-26T09:46:42Z</time>
      </trkpt>
      <trkpt lat="41.7451210" lon="2.0231700">
        <ele>601.6</ele>
        <time>2022-09-26T09:46:43Z</time>
      </trkpt>
      <trkpt lat="41.7451090" lon="2.0231840">
        <ele>601.7</ele>
        <time>2022-09-26T09:46:44Z</time>
      </trkpt>
      <trkpt lat="41.7450980" lon="2.0231970">
        <ele>601.8</ele>
        <time>2022-09-26T09:46:45Z</time>
      </trkpt>
      <trkpt lat="41.7450860" lon="2.0232140">
        <ele>601.8</ele>
        <time>2022-09-26T09:46:46Z</time>
      </trkpt>
      <trkpt lat="41.7450760" lon="2.0232350">
        <ele>601.9</ele>
        <time>2022-09-26T09:46:47Z</time>
      </trkpt>
      <trkpt lat="41.7450710" lon="2.0232460">
        <ele>601.9</ele>
        <time>2022-09-26T09:46:48Z</time>
      </trkpt>
      <trkpt lat="41.7450670" lon="2.0232570">
        <ele>601.9</ele>
        <time>2022-09-26T09:46:49Z</time>
      </trkpt>
      <trkpt lat="41.7450620" lon="2.0232870">
        <ele>602.0</ele>
        <time>2022-09-26T09:46:50Z</time>
      </trkpt>
      <trkpt lat="41.7450610" lon="2.0232960">
        <ele>602.0</ele>
        <time>2022-09-26T09:46:51Z</time>
      </trkpt>
      <trkpt lat="41.7450590" lon="2.0233060">
        <ele>602.1</ele>
        <time>2022-09-26T09:46:52Z</time>
      </trkpt>
      <trkpt lat="41.7450560" lon="2.0233320">
        <ele>602.2</ele>
        <time>2022-09-26T09:46:53Z</time>
      </trkpt>
      <trkpt lat="41.7450550" lon="2.0233440">
        <ele>602.4</ele>
        <time>2022-09-26T09:46:54Z</time>
      </trkpt>
      <trkpt lat="41.7450550" lon="2.0233560">
        <ele>602.5</ele>
        <time>2022-09-26T09:46:55Z</time>
      </trkpt>
      <trkpt lat="41.7450600" lon="2.0233830">
        <ele>602.8</ele>
        <time>2022-09-26T09:46:56Z</time>
      </trkpt>
      <trkpt lat="41.7450630" lon="2.0233920">
        <ele>602.9</ele>
        <time>2022-09-26T09:46:57Z</time>
      </trkpt>
      <trkpt lat="41.7450670" lon="2.0234020">
        <ele>603.1</ele>
        <time>2022-09-26T09:46:58Z</time>
      </trkpt>
      <trkpt lat="41.7450750" lon="2.0234300">
        <ele>603.4</ele>
        <time>2022-09-26T09:46:59Z</time>
      </trkpt>
      <trkpt lat="41.7450780" lon="2.0234420">
        <ele>603.5</ele>
        <time>2022-09-26T09:47:00Z</time>
      </trkpt>
      <trkpt lat="41.7450810" lon="2.0234540">
        <ele>603.7</ele>
        <time>2022-09-26T09:47:01Z</time>
      </trkpt>
      <trkpt lat="41.7450870" lon="2.0234740">
        <ele>603.9</ele>
        <time>2022-09-26T09:47:02Z</time>
      </trkpt>
      <trkpt lat="41.7450920" lon="2.0234900">
        <ele>604.1</ele>
        <time>2022-09-26T09:47:03Z</time>
      </trkpt>
      <trkpt lat="41.7450950" lon="2.0235020">
        <ele>604.3</ele>
        <time>2022-09-26T09:47:04Z</time>
      </trkpt>
      <trkpt lat="41.7450940" lon="2.0235170">
        <ele>604.5</ele>
        <time>2022-09-26T09:47:05Z</time>
      </trkpt>
      <trkpt lat="41.7450910" lon="2.0235330">
        <ele>604.7</ele>
        <time>2022-09-26T09:47:06Z</time>
      </trkpt>
      <trkpt lat="41.7450870" lon="2.0235460">
        <ele>604.9</ele>
        <time>2022-09-26T09:47:07Z</time>
      </trkpt>
      <trkpt lat="41.7450840" lon="2.0235570">
        <ele>605.0</ele>
        <time>2022-09-26T09:47:08Z</time>
      </trkpt>
      <trkpt lat="41.7450820" lon="2.0235750">
        <ele>605.3</ele>
        <time>2022-09-26T09:47:09Z</time>
      </trkpt>
      <trkpt lat="41.7450820" lon="2.0235980">
        <ele>605.6</ele>
        <time>2022-09-26T09:47:10Z</time>
      </trkpt>
      <trkpt lat="41.7450830" lon="2.0236090">
        <ele>605.7</ele>
        <time>2022-09-26T09:47:11Z</time>
      </trkpt>
      <trkpt lat="41.7450830" lon="2.0236190">
        <ele>605.8</ele>
        <time>2022-09-26T09:47:12Z</time>
      </trkpt>
      <trkpt lat="41.7450830" lon="2.0236300">
        <ele>606.0</ele>
        <time>2022-09-26T09:47:13Z</time>
      </trkpt>
      <trkpt lat="41.7450820" lon="2.0236440">
        <ele>606.2</ele>
        <time>2022-09-26T09:47:14Z</time>
      </trkpt>
      <trkpt lat="41.7450770" lon="2.0236610">
        <ele>606.4</ele>
        <time>2022-09-26T09:47:15Z</time>
      </trkpt>
      <trkpt lat="41.7450700" lon="2.0236710">
        <ele>606.6</ele>
        <time>2022-09-26T09:47:16Z</time>
      </trkpt>
      <trkpt lat="41.7450610" lon="2.0236830">
        <ele>606.8</ele>
        <time>2022-09-26T09:47:17Z</time>
      </trkpt>
      <trkpt lat="41.7450470" lon="2.0237020">
        <ele>607.2</ele>
        <time>2022-09-26T09:47:18Z</time>
      </trkpt>
      <trkpt lat="41.7450380" lon="2.0237160">
        <ele>607.4</ele>
        <time>2022-09-26T09:47:19Z</time>
      </trkpt>
      <trkpt lat="41.7450280" lon="2.0237340">
        <ele>607.7</ele>
        <time>2022-09-26T09:47:20Z</time>
      </trkpt>
      <trkpt lat="41.7450150" lon="2.0237550">
        <ele>608.0</ele>
        <time>2022-09-26T09:47:21Z</time>
      </trkpt>
      <trkpt lat="41.7450080" lon="2.0237640">
        <ele>608.2</ele>
        <time>2022-09-26T09:47:22Z</time>
      </trkpt>
      <trkpt lat="41.7450020" lon="2.0237720">
        <ele>608.3</ele>
        <time>2022-09-26T09:47:23Z</time>
      </trkpt>
      <trkpt lat="41.7449890" lon="2.0237920">
        <ele>608.7</ele>
        <time>2022-09-26T09:47:24Z</time>
      </trkpt>
      <trkpt lat="41.7449830" lon="2.0238010">
        <ele>608.8</ele>
        <time>2022-09-26T09:47:25Z</time>
      </trkpt>
      <trkpt lat="41.7449780" lon="2.0238110">
        <ele>609.0</ele>
        <time>2022-09-26T09:47:26Z</time>
      </trkpt>
      <trkpt lat="41.7449610" lon="2.0238280">
        <ele>609.3</ele>
        <time>2022-09-26T09:47:27Z</time>
      </trkpt>
      <trkpt lat="41.7449550" lon="2.0238340">
        <ele>609.4</ele>
        <time>2022-09-26T09:47:28Z</time>
      </trkpt>
      <trkpt lat="41.7449480" lon="2.0238410">
        <ele>609.6</ele>
        <time>2022-09-26T09:47:29Z</time>
      </trkpt>
      <trkpt lat="41.7449380" lon="2.0238530">
        <ele>609.8</ele>
        <time>2022-09-26T09:47:30Z</time>
      </trkpt>
      <trkpt lat="41.7449310" lon="2.0238600">
        <ele>609.9</ele>
        <time>2022-09-26T09:47:31Z</time>
      </trkpt>
      <trkpt lat="41.7449250" lon="2.0238670">
        <ele>610.1</ele>
        <time>2022-09-26T09:47:32Z</time>
      </trkpt>
      <trkpt lat="41.7449190" lon="2.0238740">
        <ele>610.2</ele>
        <time>2022-09-26T09:47:33Z</time>
      </trkpt>
      <trkpt lat="41.7449020" lon="2.0238910">
        <ele>610.6</ele>
        <time>2022-09-26T09:47:34Z</time>
      </trkpt>
      <trkpt lat="41.7448950" lon="2.0238970">
        <ele>610.7</ele>
        <time>2022-09-26T09:47:35Z</time>
      </trkpt>
      <trkpt lat="41.7448870" lon="2.0239040">
        <ele>610.9</ele>
        <time>2022-09-26T09:47:36Z</time>
      </trkpt>
      <trkpt lat="41.7448760" lon="2.0239160">
        <ele>611.1</ele>
        <time>2022-09-26T09:47:37Z</time>
      </trkpt>
      <trkpt lat="41.7448650" lon="2.0239330">
        <ele>611.4</ele>
        <time>2022-09-26T09:47:38Z</time>
      </trkpt>
      <trkpt lat="41.7448600" lon="2.0239440">
        <ele>611.5</ele>
        <time>2022-09-26T09:47:39Z</time>
      </trkpt>
      <trkpt lat="41.7448510" lon="2.0239640">
        <ele>611.8</ele>
        <time>2022-09-26T09:47:40Z</time>
      </trkpt>
      <trkpt lat="41.7448410" lon="2.0239880">
        <ele>612.1</ele>
        <time>2022-09-26T09:47:41Z</time>
      </trkpt>
      <trkpt lat="41.7448360" lon="2.0239970">
        <ele>612.3</ele>
        <time>2022-09-26T09:47:42Z</time>
      </trkpt>
      <trkpt lat="41.7448320" lon="2.0240060">
        <ele>612.4</ele>
        <time>2022-09-26T09:47:43Z</time>
      </trkpt>
      <trkpt lat="41.7448240" lon="2.0240120">
        <ele>612.6</ele>
        <time>2022-09-26T09:47:44Z</time>
      </trkpt>
      <trkpt lat="41.7448090" lon="2.0240270">
        <ele>612.9</ele>
        <time>2022-09-26T09:47:45Z</time>
      </trkpt>
      <trkpt lat="41.7447980" lon="2.0240510">
        <ele>613.2</ele>
        <time>2022-09-26T09:47:46Z</time>
      </trkpt>
      <trkpt lat="41.7447940" lon="2.0240640">
        <ele>613.3</ele>
        <time>2022-09-26T09:47:47Z</time>
      </trkpt>
      <trkpt lat="41.7447890" lon="2.0240770">
        <ele>613.5</ele>
        <time>2022-09-26T09:47:48Z</time>
      </trkpt>
      <trkpt lat="41.7447860" lon="2.0240920">
        <ele>613.7</ele>
        <time>2022-09-26T09:47:49Z</time>
      </trkpt>
      <trkpt lat="41.7447810" lon="2.0241130">
        <ele>613.9</ele>
        <time>2022-09-26T09:47:50Z</time>
      </trkpt>
      <trkpt lat="41.7447740" lon="2.0241400">
        <ele>614.2</ele>
        <time>2022-09-26T09:47:51Z</time>
      </trkpt>
      <trkpt lat="41.7447700" lon="2.0241500">
        <ele>614.3</ele>
        <time>2022-09-26T09:47:52Z</time>
      </trkpt>
      <trkpt lat="41.7447670" lon="2.0241600">
        <ele>614.4</ele>
        <time>2022-09-26T09:47:53Z</time>
      </trkpt>
      <trkpt lat="41.7447560" lon="2.0241900">
        <ele>614.7</ele>
        <time>2022-09-26T09:47:54Z</time>
      </trkpt>
      <trkpt lat="41.7447520" lon="2.0242020">
        <ele>614.9</ele>
        <time>2022-09-26T09:47:55Z</time>
      </trkpt>
      <trkpt lat="41.7447480" lon="2.0242150">
        <ele>615.0</ele>
        <time>2022-09-26T09:47:56Z</time>
      </trkpt>
      <trkpt lat="41.7447420" lon="2.0242290">
        <ele>615.1</ele>
        <time>2022-09-26T09:47:57Z</time>
      </trkpt>
      <trkpt lat="41.7447340" lon="2.0242470">
        <ele>615.3</ele>
        <time>2022-09-26T09:47:58Z</time>
      </trkpt>
      <trkpt lat="41.7447240" lon="2.0242610">
        <ele>615.5</ele>
        <time>2022-09-26T09:47:59Z</time>
      </trkpt>
      <trkpt lat="41.7447190" lon="2.0242680">
        <ele>615.6</ele>
        <time>2022-09-26T09:48:00Z</time>
      </trkpt>
      <trkpt lat="41.7447120" lon="2.0242810">
        <ele>615.7</ele>
        <time>2022-09-26T09:48:01Z</time>
      </trkpt>
      <trkpt lat="41.7447070" lon="2.0242970">
        <ele>615.9</ele>
        <time>2022-09-26T09:48:02Z</time>
      </trkpt>
      <trkpt lat="41.7447010" lon="2.0243140">
        <ele>616.0</ele>
        <time>2022-09-26T09:48:03Z</time>
      </trkpt>
      <trkpt lat="41.7446940" lon="2.0243440">
        <ele>616.3</ele>
        <time>2022-09-26T09:48:04Z</time>
      </trkpt>
      <trkpt lat="41.7446910" lon="2.0243530">
        <ele>616.4</ele>
        <time>2022-09-26T09:48:05Z</time>
      </trkpt>
      <trkpt lat="41.7446880" lon="2.0243620">
        <ele>616.5</ele>
        <time>2022-09-26T09:48:06Z</time>
      </trkpt>
      <trkpt lat="41.7446760" lon="2.0243880">
        <ele>616.8</ele>
        <time>2022-09-26T09:48:07Z</time>
      </trkpt>
      <trkpt lat="41.7446710" lon="2.0243960">
        <ele>616.8</ele>
        <time>2022-09-26T09:48:08Z</time>
      </trkpt>
      <trkpt lat="41.7446660" lon="2.0244050">
        <ele>617.0</ele>
        <time>2022-09-26T09:48:09Z</time>
      </trkpt>
      <trkpt lat="41.7446520" lon="2.0244250">
        <ele>617.2</ele>
        <time>2022-09-26T09:48:10Z</time>
      </trkpt>
      <trkpt lat="41.7446470" lon="2.0244350">
        <ele>617.3</ele>
        <time>2022-09-26T09:48:11Z</time>
      </trkpt>
      <trkpt lat="41.7446420" lon="2.0244440">
        <ele>617.4</ele>
        <time>2022-09-26T09:48:12Z</time>
      </trkpt>
      <trkpt lat="41.7446350" lon="2.0244610">
        <ele>617.6</ele>
        <time>2022-09-26T09:48:13Z</time>
      </trkpt>
      <trkpt lat="41.7446290" lon="2.0244760">
        <ele>617.8</ele>
        <time>2022-09-26T09:48:14Z</time>
      </trkpt>
      <trkpt lat="41.7446230" lon="2.0244890">
        <ele>617.9</ele>
        <time>2022-09-26T09:48:15Z</time>
      </trkpt>
      <trkpt lat="41.7446140" lon="2.0245080">
        <ele>618.2</ele>
        <time>2022-09-26T09:48:16Z</time>
      </trkpt>
      <trkpt lat="41.7446090" lon="2.0245170">
        <ele>618.3</ele>
        <time>2022-09-26T09:48:17Z</time>
      </trkpt>
      <trkpt lat="41.7445990" lon="2.0245300">
        <ele>618.5</ele>
        <time>2022-09-26T09:48:18Z</time>
      </trkpt>
      <trkpt lat="41.7445890" lon="2.0245410">
        <ele>618.7</ele>
        <time>2022-09-26T09:48:19Z</time>
      </trkpt>
      <trkpt lat="41.7445780" lon="2.0245610">
        <ele>618.9</ele>
        <time>2022-09-26T09:48:20Z</time>
      </trkpt>
      <trkpt lat="41.7445730" lon="2.0245720">
        <ele>619.1</ele>
        <time>2022-09-26T09:48:21Z</time>
      </trkpt>
      <trkpt lat="41.7445680" lon="2.0245830">
        <ele>619.2</ele>
        <time>2022-09-26T09:48:22Z</time>
      </trkpt>
      <trkpt lat="41.7445580" lon="2.0245970">
        <ele>619.4</ele>
        <time>2022-09-26T09:48:23Z</time>
      </trkpt>
      <trkpt lat="41.7445490" lon="2.0246130">
        <ele>619.6</ele>
        <time>2022-09-26T09:48:24Z</time>
      </trkpt>
      <trkpt lat="41.7445400" lon="2.0246370">
        <ele>619.9</ele>
        <time>2022-09-26T09:48:25Z</time>
      </trkpt>
      <trkpt lat="41.7445360" lon="2.0246480">
        <ele>620.1</ele>
        <time>2022-09-26T09:48:26Z</time>
      </trkpt>
      <trkpt lat="41.7445310" lon="2.0246590">
        <ele>620.2</ele>
        <time>2022-09-26T09:48:27Z</time>
      </trkpt>
      <trkpt lat="41.7445230" lon="2.0246740">
        <ele>620.4</ele>
        <time>2022-09-26T09:48:28Z</time>
      </trkpt>
      <trkpt lat="41.7445140" lon="2.0246920">
        <ele>620.7</ele>
        <time>2022-09-26T09:48:29Z</time>
      </trkpt>
      <trkpt lat="41.7445030" lon="2.0247170">
        <ele>621.1</ele>
        <time>2022-09-26T09:48:30Z</time>
      </trkpt>
      <trkpt lat="41.7444990" lon="2.0247280">
        <ele>621.2</ele>
        <time>2022-09-26T09:48:31Z</time>
      </trkpt>
      <trkpt lat="41.7444940" lon="2.0247390">
        <ele>621.4</ele>
        <time>2022-09-26T09:48:32Z</time>
      </trkpt>
      <trkpt lat="41.7444940" lon="2.0247650">
        <ele>621.7</ele>
        <time>2022-09-26T09:48:33Z</time>
      </trkpt>
      <trkpt lat="41.7444960" lon="2.0247800">
        <ele>621.9</ele>
        <time>2022-09-26T09:48:34Z</time>
      </trkpt>
      <trkpt lat="41.7444990" lon="2.0247950">
        <ele>622.1</ele>
        <time>2022-09-26T09:48:35Z</time>
      </trkpt>
      <trkpt lat="41.7445100" lon="2.0248100">
        <ele>622.3</ele>
        <time>2022-09-26T09:48:36Z</time>
      </trkpt>
      <trkpt lat="41.7445250" lon="2.0248240">
        <ele>622.5</ele>
        <time>2022-09-26T09:48:37Z</time>
      </trkpt>
      <trkpt lat="41.7445370" lon="2.0248300">
        <ele>622.6</ele>
        <time>2022-09-26T09:48:38Z</time>
      </trkpt>
      <trkpt lat="41.7445530" lon="2.0248340">
        <ele>622.8</ele>
        <time>2022-09-26T09:48:39Z</time>
      </trkpt>
      <trkpt lat="41.7445810" lon="2.0248330">
        <ele>623.1</ele>
        <time>2022-09-26T09:48:40Z</time>
      </trkpt>
      <trkpt lat="41.7445890" lon="2.0248310">
        <ele>623.1</ele>
        <time>2022-09-26T09:48:41Z</time>
      </trkpt>
      <trkpt lat="41.7446220" lon="2.0248200">
        <ele>623.4</ele>
        <time>2022-09-26T09:48:42Z</time>
      </trkpt>
      <trkpt lat="41.7446330" lon="2.0248170">
        <ele>623.6</ele>
        <time>2022-09-26T09:48:43Z</time>
      </trkpt>
      <trkpt lat="41.7446600" lon="2.0248060">
        <ele>623.8</ele>
        <time>2022-09-26T09:48:44Z</time>
      </trkpt>
      <trkpt lat="41.7446700" lon="2.0248010">
        <ele>623.9</ele>
        <time>2022-09-26T09:48:45Z</time>
      </trkpt>
      <trkpt lat="41.7446940" lon="2.0247870">
        <ele>624.1</ele>
        <time>2022-09-26T09:48:46Z</time>
      </trkpt>
      <trkpt lat="41.7447040" lon="2.0247800">
        <ele>624.1</ele>
        <time>2022-09-26T09:48:47Z</time>
      </trkpt>
      <trkpt lat="41.7447310" lon="2.0247640">
        <ele>624.3</ele>
        <time>2022-09-26T09:48:48Z</time>
      </trkpt>
      <trkpt lat="41.7447400" lon="2.0247590">
        <ele>624.4</ele>
        <time>2022-09-26T09:48:49Z</time>
      </trkpt>
      <trkpt lat="41.7447620" lon="2.0247530">
        <ele>624.6</ele>
        <time>2022-09-26T09:48:50Z</time>
      </trkpt>
      <trkpt lat="41.7447740" lon="2.0247510">
        <ele>624.6</ele>
        <time>2022-09-26T09:48:51Z</time>
      </trkpt>
      <trkpt lat="41.7447870" lon="2.0247480">
        <ele>624.7</ele>
        <time>2022-09-26T09:48:52Z</time>
      </trkpt>
      <trkpt lat="41.7448060" lon="2.0247480">
        <ele>624.9</ele>
        <time>2022-09-26T09:48:53Z</time>
      </trkpt>
      <trkpt lat="41.7448190" lon="2.0247480">
        <ele>625.0</ele>
        <time>2022-09-26T09:48:54Z</time>
      </trkpt>
      <trkpt lat="41.7448290" lon="2.0247480">
        <ele>625.0</ele>
        <time>2022-09-26T09:48:55Z</time>
      </trkpt>
      <trkpt lat="41.7448460" lon="2.0247480">
        <ele>625.1</ele>
        <time>2022-09-26T09:48:56Z</time>
      </trkpt>
      <trkpt lat="41.7448760" lon="2.0247450">
        <ele>625.4</ele>
        <time>2022-09-26T09:48:57Z</time>
      </trkpt>
      <trkpt lat="41.7448850" lon="2.0247430">
        <ele>625.4</ele>
        <time>2022-09-26T09:48:58Z</time>
      </trkpt>
      <trkpt lat="41.7449130" lon="2.0247400">
        <ele>625.6</ele>
        <time>2022-09-26T09:48:59Z</time>
      </trkpt>
      <trkpt lat="41.7449250" lon="2.0247390">
        <ele>625.7</ele>
        <time>2022-09-26T09:49:00Z</time>
      </trkpt>
      <trkpt lat="41.7449400" lon="2.0247380">
        <ele>625.8</ele>
        <time>2022-09-26T09:49:01Z</time>
      </trkpt>
      <trkpt lat="41.7449600" lon="2.0247420">
        <ele>626.0</ele>
        <time>2022-09-26T09:49:02Z</time>
      </trkpt>
      <trkpt lat="41.7449840" lon="2.0247540">
        <ele>626.2</ele>
        <time>2022-09-26T09:49:03Z</time>
      </trkpt>
      <trkpt lat="41.7449950" lon="2.0247590">
        <ele>626.3</ele>
        <time>2022-09-26T09:49:04Z</time>
      </trkpt>
      <trkpt lat="41.7450250" lon="2.0247670">
        <ele>626.5</ele>
        <time>2022-09-26T09:49:05Z</time>
      </trkpt>
      <trkpt lat="41.7450320" lon="2.0247680">
        <ele>626.5</ele>
        <time>2022-09-26T09:49:06Z</time>
      </trkpt>
      <trkpt lat="41.7450460" lon="2.0247700">
        <ele>626.6</ele>
        <time>2022-09-26T09:49:07Z</time>
      </trkpt>
      <trkpt lat="41.7450640" lon="2.0247740">
        <ele>626.7</ele>
        <time>2022-09-26T09:49:08Z</time>
      </trkpt>
      <trkpt lat="41.7450940" lon="2.0247800">
        <ele>627.0</ele>
        <time>2022-09-26T09:49:09Z</time>
      </trkpt>
      <trkpt lat="41.7451020" lon="2.0247830">
        <ele>627.0</ele>
        <time>2022-09-26T09:49:10Z</time>
      </trkpt>
      <trkpt lat="41.7451300" lon="2.0247920">
        <ele>627.2</ele>
        <time>2022-09-26T09:49:11Z</time>
      </trkpt>
      <trkpt lat="41.7451400" lon="2.0247950">
        <ele>627.3</ele>
        <time>2022-09-26T09:49:12Z</time>
      </trkpt>
      <trkpt lat="41.7451560" lon="2.0248000">
        <ele>627.4</ele>
        <time>2022-09-26T09:49:13Z</time>
      </trkpt>
      <trkpt lat="41.7451710" lon="2.0248050">
        <ele>627.5</ele>
        <time>2022-09-26T09:49:14Z</time>
      </trkpt>
      <trkpt lat="41.7451860" lon="2.0248110">
        <ele>627.6</ele>
        <time>2022-09-26T09:49:15Z</time>
      </trkpt>
      <trkpt lat="41.7452000" lon="2.0248180">
        <ele>627.7</ele>
        <time>2022-09-26T09:49:16Z</time>
      </trkpt>
      <trkpt lat="41.7452300" lon="2.0248310">
        <ele>627.9</ele>
        <time>2022-09-26T09:49:17Z</time>
      </trkpt>
      <trkpt lat="41.7452380" lon="2.0248360">
        <ele>627.9</ele>
        <time>2022-09-26T09:49:18Z</time>
      </trkpt>
      <trkpt lat="41.7452640" lon="2.0248600">
        <ele>628.1</ele>
        <time>2022-09-26T09:49:19Z</time>
      </trkpt>
      <trkpt lat="41.7452750" lon="2.0248710">
        <ele>628.2</ele>
        <time>2022-09-26T09:49:20Z</time>
      </trkpt>
      <trkpt lat="41.7452940" lon="2.0248980">
        <ele>628.3</ele>
        <time>2022-09-26T09:49:21Z</time>
      </trkpt>
      <trkpt lat="41.7453000" lon="2.0249080">
        <ele>628.4</ele>
        <time>2022-09-26T09:49:22Z</time>
      </trkpt>
      <trkpt lat="41.7453100" lon="2.0249260">
        <ele>628.5</ele>
        <time>2022-09-26T09:49:23Z</time>
      </trkpt>
      <trkpt lat="41.7453160" lon="2.0249410">
        <ele>628.6</ele>
        <time>2022-09-26T09:49:24Z</time>
      </trkpt>
      <trkpt lat="41.7453220" lon="2.0249600">
        <ele>628.7</ele>
        <time>2022-09-26T09:49:25Z</time>
      </trkpt>
      <trkpt lat="41.7453260" lon="2.0249800">
        <ele>628.8</ele>
        <time>2022-09-26T09:49:26Z</time>
      </trkpt>
      <trkpt lat="41.7453300" lon="2.0249970">
        <ele>628.8</ele>
        <time>2022-09-26T09:49:27Z</time>
      </trkpt>
      <trkpt lat="41.7453370" lon="2.0250210">
        <ele>629.0</ele>
        <time>2022-09-26T09:49:28Z</time>
      </trkpt>
      <trkpt lat="41.7453420" lon="2.0250350">
        <ele>629.1</ele>
        <time>2022-09-26T09:49:29Z</time>
      </trkpt>
      <trkpt lat="41.7453500" lon="2.0250570">
        <ele>629.2</ele>
        <time>2022-09-26T09:49:30Z</time>
      </trkpt>
      <trkpt lat="41.7453620" lon="2.0250940">
        <ele>629.4</ele>
        <time>2022-09-26T09:49:31Z</time>
      </trkpt>
      <trkpt lat="41.7453650" lon="2.0251050">
        <ele>629.5</ele>
        <time>2022-09-26T09:49:32Z</time>
      </trkpt>
      <trkpt lat="41.7453700" lon="2.0251260">
        <ele>629.6</ele>
        <time>2022-09-26T09:49:33Z</time>
      </trkpt>
      <trkpt lat="41.7453750" lon="2.0251510">
        <ele>629.8</ele>
        <time>2022-09-26T09:49:34Z</time>
      </trkpt>
      <trkpt lat="41.7453830" lon="2.0251890">
        <ele>630.0</ele>
        <time>2022-09-26T09:49:35Z</time>
      </trkpt>
      <trkpt lat="41.7453850" lon="2.0251980">
        <ele>630.1</ele>
        <time>2022-09-26T09:49:36Z</time>
      </trkpt>
      <trkpt lat="41.7453940" lon="2.0252370">
        <ele>630.4</ele>
        <time>2022-09-26T09:49:37Z</time>
      </trkpt>
      <trkpt lat="41.7453960" lon="2.0252470">
        <ele>630.4</ele>
        <time>2022-09-26T09:49:38Z</time>
      </trkpt>
      <trkpt lat="41.7454030" lon="2.0252870">
        <ele>630.7</ele>
        <time>2022-09-26T09:49:39Z</time>
      </trkpt>
      <trkpt lat="41.7454050" lon="2.0253000">
        <ele>630.8</ele>
        <time>2022-09-26T09:49:40Z</time>
      </trkpt>
      <trkpt lat="41.7454110" lon="2.0253220">
        <ele>631.0</ele>
        <time>2022-09-26T09:49:41Z</time>
      </trkpt>
      <trkpt lat="41.7454190" lon="2.0253440">
        <ele>631.1</ele>
        <time>2022-09-26T09:49:42Z</time>
      </trkpt>
      <trkpt lat="41.7454350" lon="2.0253780">
        <ele>631.4</ele>
        <time>2022-09-26T09:49:43Z</time>
      </trkpt>
      <trkpt lat="41.7454400" lon="2.0253860">
        <ele>631.5</ele>
        <time>2022-09-26T09:49:44Z</time>
      </trkpt>
      <trkpt lat="41.7454540" lon="2.0254100">
        <ele>631.7</ele>
        <time>2022-09-26T09:49:45Z</time>
      </trkpt>
      <trkpt lat="41.7454620" lon="2.0254210">
        <ele>631.8</ele>
        <time>2022-09-26T09:49:46Z</time>
      </trkpt>
      <trkpt lat="41.7454850" lon="2.0254490">
        <ele>632.1</ele>
        <time>2022-09-26T09:49:47Z</time>
      </trkpt>
      <trkpt lat="41.7454900" lon="2.0254560">
        <ele>632.2</ele>
        <time>2022-09-26T09:49:48Z</time>
      </trkpt>
      <trkpt lat="41.7455070" lon="2.0254860">
        <ele>632.4</ele>
        <time>2022-09-26T09:49:49Z</time>
      </trkpt>
      <trkpt lat="41.7455120" lon="2.0254950">
        <ele>632.5</ele>
        <time>2022-09-26T09:49:50Z</time>
      </trkpt>
      <trkpt lat="41.7455290" lon="2.0255230">
        <ele>632.7</ele>
        <time>2022-09-26T09:49:51Z</time>
      </trkpt>
      <trkpt lat="41.7455360" lon="2.0255340">
        <ele>632.8</ele>
        <time>2022-09-26T09:49:52Z</time>
      </trkpt>
      <trkpt lat="41.7455590" lon="2.0255610">
        <ele>633.0</ele>
        <time>2022-09-26T09:49:53Z</time>
      </trkpt>
      <trkpt lat="41.7455650" lon="2.0255690">
        <ele>633.0</ele>
        <time>2022-09-26T09:49:54Z</time>
      </trkpt>
      <trkpt lat="41.7455890" lon="2.0256050">
        <ele>633.2</ele>
        <time>2022-09-26T09:49:55Z</time>
      </trkpt>
      <trkpt lat="41.7455960" lon="2.0256170">
        <ele>633.2</ele>
        <time>2022-09-26T09:49:56Z</time>
      </trkpt>
      <trkpt lat="41.7456160" lon="2.0256500">
        <ele>633.3</ele>
        <time>2022-09-26T09:49:57Z</time>
      </trkpt>
      <trkpt lat="41.7456220" lon="2.0256600">
        <ele>633.4</ele>
        <time>2022-09-26T09:49:58Z</time>
      </trkpt>
      <trkpt lat="41.7456390" lon="2.0257010">
        <ele>633.4</ele>
        <time>2022-09-26T09:49:59Z</time>
      </trkpt>
      <trkpt lat="41.7456600" lon="2.0257580">
        <ele>633.3</ele>
        <time>2022-09-26T09:50:00Z</time>
      </trkpt>
      <trkpt lat="41.7456730" lon="2.0257880">
        <ele>633.3</ele>
        <time>2022-09-26T09:50:01Z</time>
      </trkpt>
      <trkpt lat="41.7456980" lon="2.0258290">
        <ele>633.1</ele>
        <time>2022-09-26T09:50:02Z</time>
      </trkpt>
      <trkpt lat="41.7457360" lon="2.0258840">
        <ele>632.8</ele>
        <time>2022-09-26T09:50:03Z</time>
      </trkpt>
      <trkpt lat="41.7457750" lon="2.0259480">
        <ele>632.4</ele>
        <time>2022-09-26T09:50:04Z</time>
      </trkpt>
      <trkpt lat="41.7458100" lon="2.0260190">
        <ele>631.9</ele>
        <time>2022-09-26T09:50:05Z</time>
      </trkpt>
      <trkpt lat="41.7458410" lon="2.0260940">
        <ele>631.4</ele>
        <time>2022-09-26T09:50:06Z</time>
      </trkpt>
      <trkpt lat="41.7458670" lon="2.0261800">
        <ele>630.8</ele>
        <time>2022-09-26T09:50:07Z</time>
      </trkpt>
      <trkpt lat="41.7458930" lon="2.0262800">
        <ele>630.3</ele>
        <time>2022-09-26T09:50:08Z</time>
      </trkpt>
      <trkpt lat="41.7459150" lon="2.0263930">
        <ele>629.8</ele>
        <time>2022-09-26T09:50:09Z</time>
      </trkpt>
      <trkpt lat="41.7459390" lon="2.0265040">
        <ele>629.5</ele>
        <time>2022-09-26T09:50:10Z</time>
      </trkpt>
      <trkpt lat="41.7459630" lon="2.0266110">
        <ele>629.4</ele>
        <time>2022-09-26T09:50:11Z</time>
      </trkpt>
      <trkpt lat="41.7459870" lon="2.0267060">
        <ele>629.5</ele>
        <time>2022-09-26T09:50:12Z</time>
      </trkpt>
      <trkpt lat="41.7460190" lon="2.0267860">
        <ele>629.7</ele>
        <time>2022-09-26T09:50:13Z</time>
      </trkpt>
      <trkpt lat="41.7460530" lon="2.0268460">
        <ele>630.0</ele>
        <time>2022-09-26T09:50:14Z</time>
      </trkpt>
      <trkpt lat="41.7460840" lon="2.0268810">
        <ele>630.2</ele>
        <time>2022-09-26T09:50:15Z</time>
      </trkpt>
      <trkpt lat="41.7461080" lon="2.0269100">
        <ele>630.5</ele>
        <time>2022-09-26T09:50:16Z</time>
      </trkpt>
      <trkpt lat="41.7461190" lon="2.0269240">
        <ele>630.6</ele>
        <time>2022-09-26T09:50:17Z</time>
      </trkpt>
      <trkpt lat="41.7461370" lon="2.0269540">
        <ele>630.8</ele>
        <time>2022-09-26T09:50:18Z</time>
      </trkpt>
      <trkpt lat="41.7461430" lon="2.0269670">
        <ele>630.9</ele>
        <time>2022-09-26T09:50:19Z</time>
      </trkpt>
      <trkpt lat="41.7461590" lon="2.0270070">
        <ele>631.1</ele>
        <time>2022-09-26T09:50:20Z</time>
      </trkpt>
      <trkpt lat="41.7461660" lon="2.0270230">
        <ele>631.2</ele>
        <time>2022-09-26T09:50:21Z</time>
      </trkpt>
      <trkpt lat="41.7461780" lon="2.0270580">
        <ele>631.5</ele>
        <time>2022-09-26T09:50:22Z</time>
      </trkpt>
      <trkpt lat="41.7461820" lon="2.0270750">
        <ele>631.6</ele>
        <time>2022-09-26T09:50:23Z</time>
      </trkpt>
      <trkpt lat="41.7461910" lon="2.0271140">
        <ele>631.8</ele>
        <time>2022-09-26T09:50:24Z</time>
      </trkpt>
      <trkpt lat="41.7462020" lon="2.0271550">
        <ele>632.1</ele>
        <time>2022-09-26T09:50:25Z</time>
      </trkpt>
      <trkpt lat="41.7462040" lon="2.0271630">
        <ele>632.1</ele>
        <time>2022-09-26T09:50:26Z</time>
      </trkpt>
      <trkpt lat="41.7462160" lon="2.0272070">
        <ele>632.4</ele>
        <time>2022-09-26T09:50:27Z</time>
      </trkpt>
      <trkpt lat="41.7462190" lon="2.0272210">
        <ele>632.5</ele>
        <time>2022-09-26T09:50:28Z</time>
      </trkpt>
      <trkpt lat="41.7462260" lon="2.0272600">
        <ele>632.7</ele>
        <time>2022-09-26T09:50:29Z</time>
      </trkpt>
      <trkpt lat="41.7462280" lon="2.0272710">
        <ele>632.8</ele>
        <time>2022-09-26T09:50:30Z</time>
      </trkpt>
      <trkpt lat="41.7462320" lon="2.0272880">
        <ele>632.9</ele>
        <time>2022-09-26T09:50:31Z</time>
      </trkpt>
      <trkpt lat="41.7462400" lon="2.0273060">
        <ele>633.1</ele>
        <time>2022-09-26T09:50:32Z</time>
      </trkpt>
      <trkpt lat="41.7462580" lon="2.0273380">
        <ele>633.3</ele>
        <time>2022-09-26T09:50:33Z</time>
      </trkpt>
      <trkpt lat="41.7462640" lon="2.0273490">
        <ele>633.4</ele>
        <time>2022-09-26T09:50:34Z</time>
      </trkpt>
      <trkpt lat="41.7462740" lon="2.0273680">
        <ele>633.6</ele>
        <time>2022-09-26T09:50:35Z</time>
      </trkpt>
      <trkpt lat="41.7462800" lon="2.0273880">
        <ele>633.7</ele>
        <time>2022-09-26T09:50:36Z</time>
      </trkpt>
      <trkpt lat="41.7462890" lon="2.0274320">
        <ele>634.1</ele>
        <time>2022-09-26T09:50:37Z</time>
      </trkpt>
      <trkpt lat="41.7462910" lon="2.0274420">
        <ele>634.2</ele>
        <time>2022-09-26T09:50:38Z</time>
      </trkpt>
      <trkpt lat="41.7463040" lon="2.0274830">
        <ele>634.5</ele>
        <time>2022-09-26T09:50:39Z</time>
      </trkpt>
      <trkpt lat="41.7463080" lon="2.0274930">
        <ele>634.6</ele>
        <time>2022-09-26T09:50:40Z</time>
      </trkpt>
      <trkpt lat="41.7463200" lon="2.0275290">
        <ele>634.9</ele>
        <time>2022-09-26T09:50:41Z</time>
      </trkpt>
      <trkpt lat="41.7463250" lon="2.0275450">
        <ele>635.1</ele>
        <time>2022-09-26T09:50:42Z</time>
      </trkpt>
      <trkpt lat="41.7463380" lon="2.0275820">
        <ele>635.4</ele>
        <time>2022-09-26T09:50:43Z</time>
      </trkpt>
      <trkpt lat="41.7463420" lon="2.0275890">
        <ele>635.5</ele>
        <time>2022-09-26T09:50:44Z</time>
      </trkpt>
      <trkpt lat="41.7463610" lon="2.0276270">
        <ele>635.9</ele>
        <time>2022-09-26T09:50:45Z</time>
      </trkpt>
      <trkpt lat="41.7463670" lon="2.0276380">
        <ele>636.0</ele>
        <time>2022-09-26T09:50:46Z</time>
      </trkpt>
      <trkpt lat="41.7463880" lon="2.0276710">
        <ele>636.3</ele>
        <time>2022-09-26T09:50:47Z</time>
      </trkpt>
      <trkpt lat="41.7463930" lon="2.0276790">
        <ele>636.4</ele>
        <time>2022-09-26T09:50:48Z</time>
      </trkpt>
      <trkpt lat="41.7464120" lon="2.0277180">
        <ele>636.8</ele>
        <time>2022-09-26T09:50:49Z</time>
      </trkpt>
      <trkpt lat="41.7464170" lon="2.0277300">
        <ele>636.9</ele>
        <time>2022-09-26T09:50:50Z</time>
      </trkpt>
      <trkpt lat="41.7464240" lon="2.0277430">
        <ele>637.1</ele>
        <time>2022-09-26T09:50:51Z</time>
      </trkpt>
      <trkpt lat="41.7464380" lon="2.0277630">
        <ele>637.3</ele>
        <time>2022-09-26T09:50:52Z</time>
      </trkpt>
      <trkpt lat="41.7464610" lon="2.0277950">
        <ele>637.6</ele>
        <time>2022-09-26T09:50:53Z</time>
      </trkpt>
      <trkpt lat="41.7464680" lon="2.0278050">
        <ele>637.7</ele>
        <time>2022-09-26T09:50:54Z</time>
      </trkpt>
      <trkpt lat="41.7464880" lon="2.0278350">
        <ele>638.0</ele>
        <time>2022-09-26T09:50:55Z</time>
      </trkpt>
      <trkpt lat="41.7464950" lon="2.0278450">
        <ele>638.1</ele>
        <time>2022-09-26T09:50:56Z</time>
      </trkpt>
      <trkpt lat="41.7465170" lon="2.0278720">
        <ele>638.4</ele>
        <time>2022-09-26T09:50:57Z</time>
      </trkpt>
      <trkpt lat="41.7465240" lon="2.0278810">
        <ele>638.4</ele>
        <time>2022-09-26T09:50:58Z</time>
      </trkpt>
      <trkpt lat="41.7465430" lon="2.0279080">
        <ele>638.7</ele>
        <time>2022-09-26T09:50:59Z</time>
      </trkpt>
      <trkpt lat="41.7465500" lon="2.0279180">
        <ele>638.7</ele>
        <time>2022-09-26T09:51:00Z</time>
      </trkpt>
      <trkpt lat="41.7465590" lon="2.0279340">
        <ele>638.8</ele>
        <time>2022-09-26T09:51:01Z</time>
      </trkpt>
      <trkpt lat="41.7465700" lon="2.0279530">
        <ele>639.0</ele>
        <time>2022-09-26T09:51:02Z</time>
      </trkpt>
      <trkpt lat="41.7465770" lon="2.0279610">
        <ele>639.0</ele>
        <time>2022-09-26T09:51:03Z</time>
      </trkpt>
      <trkpt lat="41.7465900" lon="2.0279830">
        <ele>639.2</ele>
        <time>2022-09-26T09:51:04Z</time>
      </trkpt>
      <trkpt lat="41.7466010" lon="2.0280000">
        <ele>639.3</ele>
        <time>2022-09-26T09:51:05Z</time>
      </trkpt>
      <trkpt lat="41.7466140" lon="2.0280170">
        <ele>639.4</ele>
        <time>2022-09-26T09:51:06Z</time>
      </trkpt>
      <trkpt lat="41.7466340" lon="2.0280450">
        <ele>639.6</ele>
        <time>2022-09-26T09:51:07Z</time>
      </trkpt>
      <trkpt lat="41.7466390" lon="2.0280530">
        <ele>639.6</ele>
        <time>2022-09-26T09:51:08Z</time>
      </trkpt>
      <trkpt lat="41.7466480" lon="2.0280710">
        <ele>639.7</ele>
        <time>2022-09-26T09:51:09Z</time>
      </trkpt>
      <trkpt lat="41.7466550" lon="2.0280880">
        <ele>639.8</ele>
        <time>2022-09-26T09:51:10Z</time>
      </trkpt>
      <trkpt lat="41.7466620" lon="2.0281050">
        <ele>639.9</ele>
        <time>2022-09-26T09:51:11Z</time>
      </trkpt>
      <trkpt lat="41.7466690" lon="2.0281250">
        <ele>640.0</ele>
        <time>2022-09-26T09:51:12Z</time>
      </trkpt>
      <trkpt lat="41.7466790" lon="2.0281630">
        <ele>640.2</ele>
        <time>2022-09-26T09:51:13Z</time>
      </trkpt>
      <trkpt lat="41.7466810" lon="2.0281720">
        <ele>640.2</ele>
        <time>2022-09-26T09:51:14Z</time>
      </trkpt>
      <trkpt lat="41.7466840" lon="2.0281910">
        <ele>640.3</ele>
        <time>2022-09-26T09:51:15Z</time>
      </trkpt>
      <trkpt lat="41.7466890" lon="2.0282070">
        <ele>640.3</ele>
        <time>2022-09-26T09:51:16Z</time>
      </trkpt>
      <trkpt lat="41.7466930" lon="2.0282120">
        <ele>640.3</ele>
        <time>2022-09-26T09:51:17Z</time>
      </trkpt>
      <trkpt lat="41.7466960" lon="2.0282110">
        <ele>640.3</ele>
        <time>2022-09-26T09:51:18Z</time>
      </trkpt>
      <trkpt lat="41.7466960" lon="2.0282100">
        <ele>640.3</ele>
        <time>2022-09-26T09:51:19Z</time>
      </trkpt>
      <trkpt lat="41.7466980" lon="2.0282100">
        <ele>640.4</ele>
        <time>2022-09-26T09:51:20Z</time>
      </trkpt>
      <trkpt lat="41.7466990" lon="2.0282090">
        <ele>640.4</ele>
        <time>2022-09-26T09:51:21Z</time>
      </trkpt>
      <trkpt lat="41.7466990" lon="2.0282080">
        <ele>640.4</ele>
        <time>2022-09-26T09:51:22Z</time>
      </trkpt>
      <trkpt lat="41.7466990" lon="2.0282080">
        <ele>640.4</ele>
        <time>2022-09-26T09:51:23Z</time>
      </trkpt>
      <trkpt lat="41.7466980" lon="2.0282080">
        <ele>640.4</ele>
        <time>2022-09-26T09:51:24Z</time>
      </trkpt>
      <trkpt lat="41.7466980" lon="2.0282080">
        <ele>640.4</ele>
        <time>2022-09-26T09:51:25Z</time>
      </trkpt>
      <trkpt lat="41.7466980" lon="2.0282080">
        <ele>640.4</ele>
        <time>2022-09-26T09:51:26Z</time>
      </trkpt>
      <trkpt lat="41.7466980" lon="2.0282080">
        <ele>640.4</ele>
        <time>2022-09-26T09:51:27Z</time>
      </trkpt>
      <trkpt lat="41.7466980" lon="2.0282080">
        <ele>640.4</ele>
        <time>2022-09-26T09:51:28Z</time>
      </trkpt>
      <trkpt lat="41.7467210" lon="2.0282270">
        <ele>640.4</ele>
        <time>2022-09-26T09:51:53Z</time>
      </trkpt>
      <trkpt lat="41.7467250" lon="2.0282290">
        <ele>640.4</ele>
        <time>2022-09-26T09:51:54Z</time>
      </trkpt>
      <trkpt lat="41.7467260" lon="2.0282290">
        <ele>640.4</ele>
        <time>2022-09-26T09:51:55Z</time>
      </trkpt>
      <trkpt lat="41.7467250" lon="2.0282290">
        <ele>640.4</ele>
        <time>2022-09-26T09:51:56Z</time>
      </trkpt>
      <trkpt lat="41.7467250" lon="2.0282290">
        <ele>640.4</ele>
        <time>2022-09-26T09:51:57Z</time>
      </trkpt>
      <trkpt lat="41.7467250" lon="2.0282290">
        <ele>640.4</ele>
        <time>2022-09-26T09:51:58Z</time>
      </trkpt>
      <trkpt lat="41.7467250" lon="2.0282290">
        <ele>640.4</ele>
        <time>2022-09-26T09:51:59Z</time>
      </trkpt>
      <trkpt lat="41.7467250" lon="2.0282290">
        <ele>640.4</ele>
        <time>2022-09-26T09:52:00Z</time>
      </trkpt>
      <trkpt lat="41.7467250" lon="2.0282290">
        <ele>640.4</ele>
        <time>2022-09-26T09:52:01Z</time>
      </trkpt>
      <trkpt lat="41.7467250" lon="2.0282290">
        <ele>640.4</ele>
        <time>2022-09-26T09:52:02Z</time>
      </trkpt>
      <trkpt lat="41.7467250" lon="2.0282290">
        <ele>640.4</ele>
        <time>2022-09-26T09:52:03Z</time>
      </trkpt>
      <trkpt lat="41.7467250" lon="2.0282290">
        <ele>640.4</ele>
        <time>2022-09-26T09:52:04Z</time>
      </trkpt>
      <trkpt lat="41.7466720" lon="2.0281910">
        <ele>640.5</ele>
        <time>2022-09-26T09:54:34Z</time>
      </trkpt>
      <trkpt lat="41.7466660" lon="2.0281900">
        <ele>640.5</ele>
        <time>2022-09-26T09:54:35Z</time>
      </trkpt>
      <trkpt lat="41.7466660" lon="2.0281900">
        <ele>640.5</ele>
        <time>2022-09-26T09:54:36Z</time>
      </trkpt>
      <trkpt lat="41.7466670" lon="2.0281900">
        <ele>640.5</ele>
        <time>2022-09-26T09:54:37Z</time>
      </trkpt>
      <trkpt lat="41.7466580" lon="2.0281900">
        <ele>640.5</ele>
        <time>2022-09-26T09:54:38Z</time>
      </trkpt>
      <trkpt lat="41.7466430" lon="2.0281930">
        <ele>640.5</ele>
        <time>2022-09-26T09:54:39Z</time>
      </trkpt>
      <trkpt lat="41.7466340" lon="2.0281980">
        <ele>640.5</ele>
        <time>2022-09-26T09:54:40Z</time>
      </trkpt>
      <trkpt lat="41.7466320" lon="2.0282020">
        <ele>640.5</ele>
        <time>2022-09-26T09:54:41Z</time>
      </trkpt>
      <trkpt lat="41.7466350" lon="2.0282060">
        <ele>640.5</ele>
        <time>2022-09-26T09:54:42Z</time>
      </trkpt>
      <trkpt lat="41.7466360" lon="2.0282080">
        <ele>640.5</ele>
        <time>2022-09-26T09:54:43Z</time>
      </trkpt>
      <trkpt lat="41.7466370" lon="2.0282090">
        <ele>640.5</ele>
        <time>2022-09-26T09:54:44Z</time>
      </trkpt>
      <trkpt lat="41.7466360" lon="2.0282080">
        <ele>640.5</ele>
        <time>2022-09-26T09:54:45Z</time>
      </trkpt>
      <trkpt lat="41.7466360" lon="2.0282080">
        <ele>640.5</ele>
        <time>2022-09-26T09:54:46Z</time>
      </trkpt>
      <trkpt lat="41.7466360" lon="2.0282080">
        <ele>640.5</ele>
        <time>2022-09-26T09:54:47Z</time>
      </trkpt>
      <trkpt lat="41.7466360" lon="2.0282080">
        <ele>640.5</ele>
        <time>2022-09-26T09:54:48Z</time>
      </trkpt>
      <trkpt lat="41.7466360" lon="2.0282080">
        <ele>640.5</ele>
        <time>2022-09-26T09:54:49Z</time>
      </trkpt>
      <trkpt lat="41.7466360" lon="2.0282080">
        <ele>640.5</ele>
        <time>2022-09-26T09:54:50Z</time>
      </trkpt>
      <trkpt lat="41.7466360" lon="2.0282080">
        <ele>640.5</ele>
        <time>2022-09-26T09:54:51Z</time>
      </trkpt>
      <trkpt lat="41.7466260" lon="2.0281580">
        <ele>640.5</ele>
        <time>2022-09-26T09:55:49Z</time>
      </trkpt>
      <trkpt lat="41.7466240" lon="2.0281590">
        <ele>640.5</ele>
        <time>2022-09-26T09:55:50Z</time>
      </trkpt>
      <trkpt lat="41.7466200" lon="2.0281640">
        <ele>640.5</ele>
        <time>2022-09-26T09:55:51Z</time>
      </trkpt>
      <trkpt lat="41.7466180" lon="2.0281680">
        <ele>640.5</ele>
        <time>2022-09-26T09:55:52Z</time>
      </trkpt>
      <trkpt lat="41.7466170" lon="2.0281720">
        <ele>640.5</ele>
        <time>2022-09-26T09:55:53Z</time>
      </trkpt>
      <trkpt lat="41.7466210" lon="2.0281730">
        <ele>640.5</ele>
        <time>2022-09-26T09:55:54Z</time>
      </trkpt>
      <trkpt lat="41.7466220" lon="2.0281720">
        <ele>640.5</ele>
        <time>2022-09-26T09:55:55Z</time>
      </trkpt>
      <trkpt lat="41.7466220" lon="2.0281720">
        <ele>640.5</ele>
        <time>2022-09-26T09:55:56Z</time>
      </trkpt>
      <trkpt lat="41.7466220" lon="2.0281720">
        <ele>640.5</ele>
        <time>2022-09-26T09:55:57Z</time>
      </trkpt>
      <trkpt lat="41.7466220" lon="2.0281720">
        <ele>640.5</ele>
        <time>2022-09-26T09:55:58Z</time>
      </trkpt>
      <trkpt lat="41.7466220" lon="2.0281720">
        <ele>640.5</ele>
        <time>2022-09-26T09:55:59Z</time>
      </trkpt>
      <trkpt lat="41.7466220" lon="2.0281720">
        <ele>640.5</ele>
        <time>2022-09-26T09:56:00Z</time>
      </trkpt>
      <trkpt lat="41.7466220" lon="2.0281720">
        <ele>640.5</ele>
        <time>2022-09-26T09:56:01Z</time>
      </trkpt>
      <trkpt lat="41.7466220" lon="2.0281720">
        <ele>640.5</ele>
        <time>2022-09-26T09:56:02Z</time>
      </trkpt>
      <trkpt lat="41.7466460" lon="2.0281880">
        <ele>640.5</ele>
        <time>2022-09-26T09:56:56Z</time>
      </trkpt>
      <trkpt lat="41.7466570" lon="2.0281940">
        <ele>640.5</ele>
        <time>2022-09-26T09:56:57Z</time>
      </trkpt>
      <trkpt lat="41.7466650" lon="2.0281970">
        <ele>640.5</ele>
        <time>2022-09-26T09:56:58Z</time>
      </trkpt>
      <trkpt lat="41.7466710" lon="2.0281970">
        <ele>640.5</ele>
        <time>2022-09-26T09:56:59Z</time>
      </trkpt>
      <trkpt lat="41.7466780" lon="2.0281960">
        <ele>640.5</ele>
        <time>2022-09-26T09:57:00Z</time>
      </trkpt>
      <trkpt lat="41.7466790" lon="2.0282000">
        <ele>640.5</ele>
        <time>2022-09-26T09:57:01Z</time>
      </trkpt>
      <trkpt lat="41.7466770" lon="2.0282060">
        <ele>640.5</ele>
        <time>2022-09-26T09:57:02Z</time>
      </trkpt>
      <trkpt lat="41.7466740" lon="2.0282130">
        <ele>640.4</ele>
        <time>2022-09-26T09:57:03Z</time>
      </trkpt>
      <trkpt lat="41.7466720" lon="2.0282200">
        <ele>640.4</ele>
        <time>2022-09-26T09:57:04Z</time>
      </trkpt>
      <trkpt lat="41.7466690" lon="2.0282260">
        <ele>640.4</ele>
        <time>2022-09-26T09:57:05Z</time>
      </trkpt>
      <trkpt lat="41.7466670" lon="2.0282330">
        <ele>640.4</ele>
        <time>2022-09-26T09:57:06Z</time>
      </trkpt>
      <trkpt lat="41.7466640" lon="2.0282400">
        <ele>640.4</ele>
        <time>2022-09-26T09:57:07Z</time>
      </trkpt>
      <trkpt lat="41.7466620" lon="2.0282460">
        <ele>640.4</ele>
        <time>2022-09-26T09:57:08Z</time>
      </trkpt>
      <trkpt lat="41.7466600" lon="2.0282530">
        <ele>640.4</ele>
        <time>2022-09-26T09:57:09Z</time>
      </trkpt>
      <trkpt lat="41.7466570" lon="2.0282600">
        <ele>640.4</ele>
        <time>2022-09-26T09:57:10Z</time>
      </trkpt>
      <trkpt lat="41.7466550" lon="2.0282660">
        <ele>640.4</ele>
        <time>2022-09-26T09:57:11Z</time>
      </trkpt>
      <trkpt lat="41.7466520" lon="2.0282730">
        <ele>640.4</ele>
        <time>2022-09-26T09:58:25Z</time>
      </trkpt>
      <trkpt lat="41.7466500" lon="2.0282800">
        <ele>640.4</ele>
        <time>2022-09-26T09:58:26Z</time>
      </trkpt>
      <trkpt lat="41.7466470" lon="2.0282870">
        <ele>640.4</ele>
        <time>2022-09-26T09:58:27Z</time>
      </trkpt>
      <trkpt lat="41.7466310" lon="2.0283470">
        <ele>640.3</ele>
        <time>2022-09-26T09:58:29Z</time>
      </trkpt>
      <trkpt lat="41.7466250" lon="2.0283670">
        <ele>640.2</ele>
        <time>2022-09-26T09:58:30Z</time>
      </trkpt>
      <trkpt lat="41.7466190" lon="2.0283860">
        <ele>640.2</ele>
        <time>2022-09-26T09:58:31Z</time>
      </trkpt>
      <trkpt lat="41.7466050" lon="2.0284240">
        <ele>640.1</ele>
        <time>2022-09-26T09:58:32Z</time>
      </trkpt>
      <trkpt lat="41.7466000" lon="2.0284370">
        <ele>640.1</ele>
        <time>2022-09-26T09:58:33Z</time>
      </trkpt>
      <trkpt lat="41.7465780" lon="2.0284830">
        <ele>639.9</ele>
        <time>2022-09-26T09:58:35Z</time>
      </trkpt>
      <trkpt lat="41.7465690" lon="2.0285020">
        <ele>639.9</ele>
        <time>2022-09-26T09:58:36Z</time>
      </trkpt>
      <trkpt lat="41.7465540" lon="2.0285410">
        <ele>639.7</ele>
        <time>2022-09-26T09:58:37Z</time>
      </trkpt>
      <trkpt lat="41.7465490" lon="2.0285530">
        <ele>639.7</ele>
        <time>2022-09-26T09:58:38Z</time>
      </trkpt>
      <trkpt lat="41.7465270" lon="2.0285960">
        <ele>639.6</ele>
        <time>2022-09-26T09:58:40Z</time>
      </trkpt>
      <trkpt lat="41.7465110" lon="2.0286470">
        <ele>639.4</ele>
        <time>2022-09-26T09:58:41Z</time>
      </trkpt>
      <trkpt lat="41.7465060" lon="2.0286670">
        <ele>639.4</ele>
        <time>2022-09-26T09:58:42Z</time>
      </trkpt>
      <trkpt lat="41.7464980" lon="2.0287170">
        <ele>639.3</ele>
        <time>2022-09-26T09:58:43Z</time>
      </trkpt>
      <trkpt lat="41.7464940" lon="2.0287770">
        <ele>639.1</ele>
        <time>2022-09-26T09:58:44Z</time>
      </trkpt>
      <trkpt lat="41.7465000" lon="2.0288790">
        <ele>638.9</ele>
        <time>2022-09-26T09:58:45Z</time>
      </trkpt>
      <trkpt lat="41.7465110" lon="2.0289440">
        <ele>638.8</ele>
        <time>2022-09-26T09:58:46Z</time>
      </trkpt>
      <trkpt lat="41.7465200" lon="2.0290020">
        <ele>638.6</ele>
        <time>2022-09-26T09:58:47Z</time>
      </trkpt>
      <trkpt lat="41.7465350" lon="2.0290450">
        <ele>638.5</ele>
        <time>2022-09-26T09:58:48Z</time>
      </trkpt>
      <trkpt lat="41.7465460" lon="2.0291070">
        <ele>638.4</ele>
        <time>2022-09-26T09:58:49Z</time>
      </trkpt>
      <trkpt lat="41.7465580" lon="2.0291830">
        <ele>638.2</ele>
        <time>2022-09-26T09:58:50Z</time>
      </trkpt>
      <trkpt lat="41.7465650" lon="2.0292470">
        <ele>638.0</ele>
        <time>2022-09-26T09:58:51Z</time>
      </trkpt>
      <trkpt lat="41.7465730" lon="2.0293130">
        <ele>637.8</ele>
        <time>2022-09-26T09:58:52Z</time>
      </trkpt>
      <trkpt lat="41.7465850" lon="2.0293740">
        <ele>637.6</ele>
        <time>2022-09-26T09:58:53Z</time>
      </trkpt>
      <trkpt lat="41.7466010" lon="2.0294360">
        <ele>637.4</ele>
        <time>2022-09-26T09:58:54Z</time>
      </trkpt>
      <trkpt lat="41.7466160" lon="2.0294990">
        <ele>637.2</ele>
        <time>2022-09-26T09:58:55Z</time>
      </trkpt>
      <trkpt lat="41.7466300" lon="2.0295640">
        <ele>636.9</ele>
        <time>2022-09-26T09:58:56Z</time>
      </trkpt>
      <trkpt lat="41.7466360" lon="2.0296300">
        <ele>636.7</ele>
        <time>2022-09-26T09:58:57Z</time>
      </trkpt>
      <trkpt lat="41.7466370" lon="2.0297000">
        <ele>636.6</ele>
        <time>2022-09-26T09:58:58Z</time>
      </trkpt>
      <trkpt lat="41.7466310" lon="2.0297710">
        <ele>636.4</ele>
        <time>2022-09-26T09:58:59Z</time>
      </trkpt>
      <trkpt lat="41.7466210" lon="2.0298440">
        <ele>636.3</ele>
        <time>2022-09-26T09:59:00Z</time>
      </trkpt>
      <trkpt lat="41.7466070" lon="2.0299160">
        <ele>636.2</ele>
        <time>2022-09-26T09:59:01Z</time>
      </trkpt>
      <trkpt lat="41.7465820" lon="2.0299770">
        <ele>636.2</ele>
        <time>2022-09-26T09:59:02Z</time>
      </trkpt>
      <trkpt lat="41.7465460" lon="2.0300190">
        <ele>636.1</ele>
        <time>2022-09-26T09:59:03Z</time>
      </trkpt>
      <trkpt lat="41.7465000" lon="2.0300410">
        <ele>636.1</ele>
        <time>2022-09-26T09:59:04Z</time>
      </trkpt>
      <trkpt lat="41.7464500" lon="2.0300400">
        <ele>636.2</ele>
        <time>2022-09-26T09:59:05Z</time>
      </trkpt>
      <trkpt lat="41.7463970" lon="2.0300450">
        <ele>636.2</ele>
        <time>2022-09-26T09:59:06Z</time>
      </trkpt>
      <trkpt lat="41.7463480" lon="2.0300530">
        <ele>636.3</ele>
        <time>2022-09-26T09:59:07Z</time>
      </trkpt>
      <trkpt lat="41.7463160" lon="2.0300640">
        <ele>636.4</ele>
        <time>2022-09-26T09:59:08Z</time>
      </trkpt>
      <trkpt lat="41.7462910" lon="2.0300860">
        <ele>636.5</ele>
        <time>2022-09-26T09:59:09Z</time>
      </trkpt>
      <trkpt lat="41.7462700" lon="2.0301160">
        <ele>636.6</ele>
        <time>2022-09-26T09:59:10Z</time>
      </trkpt>
      <trkpt lat="41.7462540" lon="2.0301490">
        <ele>636.8</ele>
        <time>2022-09-26T09:59:11Z</time>
      </trkpt>
      <trkpt lat="41.7462390" lon="2.0301840">
        <ele>636.9</ele>
        <time>2022-09-26T09:59:12Z</time>
      </trkpt>
      <trkpt lat="41.7462300" lon="2.0302020">
        <ele>637.0</ele>
        <time>2022-09-26T09:59:13Z</time>
      </trkpt>
      <trkpt lat="41.7462070" lon="2.0302240">
        <ele>637.1</ele>
        <time>2022-09-26T09:59:15Z</time>
      </trkpt>
      <trkpt lat="41.7462060" lon="2.0302640">
        <ele>637.3</ele>
        <time>2022-09-26T09:59:16Z</time>
      </trkpt>
      <trkpt lat="41.7461990" lon="2.0303160">
        <ele>637.5</ele>
        <time>2022-09-26T09:59:17Z</time>
      </trkpt>
      <trkpt lat="41.7461810" lon="2.0303570">
        <ele>637.7</ele>
        <time>2022-09-26T09:59:19Z</time>
      </trkpt>
      <trkpt lat="41.7461480" lon="2.0304020">
        <ele>638.0</ele>
        <time>2022-09-26T09:59:20Z</time>
      </trkpt>
      <trkpt lat="41.7461240" lon="2.0304240">
        <ele>638.1</ele>
        <time>2022-09-26T09:59:21Z</time>
      </trkpt>
      <trkpt lat="41.7461010" lon="2.0304400">
        <ele>638.3</ele>
        <time>2022-09-26T09:59:22Z</time>
      </trkpt>
      <trkpt lat="41.7460760" lon="2.0304550">
        <ele>638.5</ele>
        <time>2022-09-26T09:59:24Z</time>
      </trkpt>
      <trkpt lat="41.7460390" lon="2.0304740">
        <ele>638.7</ele>
        <time>2022-09-26T09:59:25Z</time>
      </trkpt>
      <trkpt lat="41.7460270" lon="2.0304790">
        <ele>638.8</ele>
        <time>2022-09-26T09:59:26Z</time>
      </trkpt>
      <trkpt lat="41.7459980" lon="2.0304970">
        <ele>638.9</ele>
        <time>2022-09-26T09:59:27Z</time>
      </trkpt>
      <trkpt lat="41.7459880" lon="2.0305030">
        <ele>639.0</ele>
        <time>2022-09-26T09:59:28Z</time>
      </trkpt>
      <trkpt lat="41.7459630" lon="2.0305210">
        <ele>639.1</ele>
        <time>2022-09-26T09:59:30Z</time>
      </trkpt>
      <trkpt lat="41.7459330" lon="2.0305360">
        <ele>639.3</ele>
        <time>2022-09-26T09:59:31Z</time>
      </trkpt>
      <trkpt lat="41.7458980" lon="2.0305500">
        <ele>639.4</ele>
        <time>2022-09-26T09:59:32Z</time>
      </trkpt>
      <trkpt lat="41.7458860" lon="2.0305540">
        <ele>639.5</ele>
        <time>2022-09-26T09:59:33Z</time>
      </trkpt>
      <trkpt lat="41.7458520" lon="2.0305670">
        <ele>639.6</ele>
        <time>2022-09-26T09:59:34Z</time>
      </trkpt>
      <trkpt lat="41.7458400" lon="2.0305700">
        <ele>639.7</ele>
        <time>2022-09-26T09:59:35Z</time>
      </trkpt>
      <trkpt lat="41.7457930" lon="2.0305840">
        <ele>639.8</ele>
        <time>2022-09-26T09:59:37Z</time>
      </trkpt>
      <trkpt lat="41.7457490" lon="2.0305820">
        <ele>640.0</ele>
        <time>2022-09-26T09:59:39Z</time>
      </trkpt>
      <trkpt lat="41.7457300" lon="2.0305830">
        <ele>640.1</ele>
        <time>2022-09-26T09:59:40Z</time>
      </trkpt>
      <trkpt lat="41.7456920" lon="2.0305800">
        <ele>640.2</ele>
        <time>2022-09-26T09:59:41Z</time>
      </trkpt>
      <trkpt lat="41.7456810" lon="2.0305790">
        <ele>640.3</ele>
        <time>2022-09-26T09:59:42Z</time>
      </trkpt>
      <trkpt lat="41.7456440" lon="2.0305710">
        <ele>640.4</ele>
        <time>2022-09-26T09:59:43Z</time>
      </trkpt>
      <trkpt lat="41.7456290" lon="2.0305690">
        <ele>640.5</ele>
        <time>2022-09-26T09:59:44Z</time>
      </trkpt>
      <trkpt lat="41.7455910" lon="2.0305620">
        <ele>640.6</ele>
        <time>2022-09-26T09:59:45Z</time>
      </trkpt>
      <trkpt lat="41.7455790" lon="2.0305590">
        <ele>640.7</ele>
        <time>2022-09-26T09:59:46Z</time>
      </trkpt>
      <trkpt lat="41.7455440" lon="2.0305570">
        <ele>640.8</ele>
        <time>2022-09-26T09:59:47Z</time>
      </trkpt>
      <trkpt lat="41.7455310" lon="2.0305580">
        <ele>640.9</ele>
        <time>2022-09-26T09:59:48Z</time>
      </trkpt>
      <trkpt lat="41.7454890" lon="2.0305660">
        <ele>641.1</ele>
        <time>2022-09-26T09:59:50Z</time>
      </trkpt>
      <trkpt lat="41.7454600" lon="2.0305930">
        <ele>641.4</ele>
        <time>2022-09-26T09:59:51Z</time>
      </trkpt>
      <trkpt lat="41.7454450" lon="2.0306530">
        <ele>641.7</ele>
        <time>2022-09-26T09:59:53Z</time>
      </trkpt>
      <trkpt lat="41.7454480" lon="2.0306800">
        <ele>641.8</ele>
        <time>2022-09-26T09:59:54Z</time>
      </trkpt>
      <trkpt lat="41.7454500" lon="2.0307070">
        <ele>642.0</ele>
        <time>2022-09-26T09:59:55Z</time>
      </trkpt>
      <trkpt lat="41.7454710" lon="2.0307310">
        <ele>642.2</ele>
        <time>2022-09-26T09:59:56Z</time>
      </trkpt>
      <trkpt lat="41.7455160" lon="2.0307570">
        <ele>642.6</ele>
        <time>2022-09-26T09:59:58Z</time>
      </trkpt>
      <trkpt lat="41.7455420" lon="2.0307690">
        <ele>642.8</ele>
        <time>2022-09-26T09:59:59Z</time>
      </trkpt>
      <trkpt lat="41.7455780" lon="2.0307840">
        <ele>643.2</ele>
        <time>2022-09-26T10:00:00Z</time>
      </trkpt>
      <trkpt lat="41.7456130" lon="2.0307980">
        <ele>643.5</ele>
        <time>2022-09-26T10:00:01Z</time>
      </trkpt>
      <trkpt lat="41.7456220" lon="2.0308030">
        <ele>643.6</ele>
        <time>2022-09-26T10:00:02Z</time>
      </trkpt>
      <trkpt lat="41.7456560" lon="2.0308170">
        <ele>643.9</ele>
        <time>2022-09-26T10:00:04Z</time>
      </trkpt>
      <trkpt lat="41.7456840" lon="2.0308220">
        <ele>644.1</ele>
        <time>2022-09-26T10:00:05Z</time>
      </trkpt>
      <trkpt lat="41.7457160" lon="2.0308240">
        <ele>644.4</ele>
        <time>2022-09-26T10:00:06Z</time>
      </trkpt>
      <trkpt lat="41.7457470" lon="2.0308280">
        <ele>644.7</ele>
        <time>2022-09-26T10:00:07Z</time>
      </trkpt>
      <trkpt lat="41.7457560" lon="2.0308290">
        <ele>644.8</ele>
        <time>2022-09-26T10:00:08Z</time>
      </trkpt>
      <trkpt lat="41.7457870" lon="2.0308330">
        <ele>645.1</ele>
        <time>2022-09-26T10:00:09Z</time>
      </trkpt>
      <trkpt lat="41.7457970" lon="2.0308340">
        <ele>645.2</ele>
        <time>2022-09-26T10:00:10Z</time>
      </trkpt>
      <trkpt lat="41.7458260" lon="2.0308350">
        <ele>645.5</ele>
        <time>2022-09-26T10:00:11Z</time>
      </trkpt>
      <trkpt lat="41.7458350" lon="2.0308350">
        <ele>645.5</ele>
        <time>2022-09-26T10:00:12Z</time>
      </trkpt>
      <trkpt lat="41.7458490" lon="2.0308380">
        <ele>645.7</ele>
        <time>2022-09-26T10:00:13Z</time>
      </trkpt>
      <trkpt lat="41.7458670" lon="2.0308410">
        <ele>645.9</ele>
        <time>2022-09-26T10:00:14Z</time>
      </trkpt>
      <trkpt lat="41.7458840" lon="2.0308440">
        <ele>646.0</ele>
        <time>2022-09-26T10:00:15Z</time>
      </trkpt>
      <trkpt lat="41.7459020" lon="2.0308500">
        <ele>646.2</ele>
        <time>2022-09-26T10:00:16Z</time>
      </trkpt>
      <trkpt lat="41.7459270" lon="2.0308680">
        <ele>646.5</ele>
        <time>2022-09-26T10:00:17Z</time>
      </trkpt>
      <trkpt lat="41.7459340" lon="2.0308750">
        <ele>646.6</ele>
        <time>2022-09-26T10:00:18Z</time>
      </trkpt>
      <trkpt lat="41.7459630" lon="2.0308930">
        <ele>646.9</ele>
        <time>2022-09-26T10:00:20Z</time>
      </trkpt>
      <trkpt lat="41.7459700" lon="2.0308980">
        <ele>647.0</ele>
        <time>2022-09-26T10:00:21Z</time>
      </trkpt>
      <trkpt lat="41.7459850" lon="2.0309150">
        <ele>647.2</ele>
        <time>2022-09-26T10:00:23Z</time>
      </trkpt>
      <trkpt lat="41.7459950" lon="2.0309250">
        <ele>647.3</ele>
        <time>2022-09-26T10:00:24Z</time>
      </trkpt>
      <trkpt lat="41.7460040" lon="2.0309360">
        <ele>647.4</ele>
        <time>2022-09-26T10:00:25Z</time>
      </trkpt>
      <trkpt lat="41.7460160" lon="2.0309500">
        <ele>647.6</ele>
        <time>2022-09-26T10:00:26Z</time>
      </trkpt>
      <trkpt lat="41.7460240" lon="2.0309620">
        <ele>647.7</ele>
        <time>2022-09-26T10:00:27Z</time>
      </trkpt>
      <trkpt lat="41.7460300" lon="2.0309760">
        <ele>647.8</ele>
        <time>2022-09-26T10:00:28Z</time>
      </trkpt>
      <trkpt lat="41.7460280" lon="2.0309810">
        <ele>647.9</ele>
        <time>2022-09-26T10:00:29Z</time>
      </trkpt>
      <trkpt lat="41.7460250" lon="2.0309810">
        <ele>647.9</ele>
        <time>2022-09-26T10:00:31Z</time>
      </trkpt>
      <trkpt lat="41.7460240" lon="2.0309900">
        <ele>648.0</ele>
        <time>2022-09-26T10:00:32Z</time>
      </trkpt>
      <trkpt lat="41.7460230" lon="2.0310130">
        <ele>648.2</ele>
        <time>2022-09-26T10:00:33Z</time>
      </trkpt>
      <trkpt lat="41.7460140" lon="2.0310370">
        <ele>648.4</ele>
        <time>2022-09-26T10:00:34Z</time>
      </trkpt>
      <trkpt lat="41.7459820" lon="2.0310540">
        <ele>648.7</ele>
        <time>2022-09-26T10:00:35Z</time>
      </trkpt>
      <trkpt lat="41.7459710" lon="2.0310580">
        <ele>648.8</ele>
        <time>2022-09-26T10:00:36Z</time>
      </trkpt>
      <trkpt lat="41.7459400" lon="2.0310670">
        <ele>649.1</ele>
        <time>2022-09-26T10:00:38Z</time>
      </trkpt>
      <trkpt lat="41.7459050" lon="2.0310710">
        <ele>649.5</ele>
        <time>2022-09-26T10:00:39Z</time>
      </trkpt>
      <trkpt lat="41.7458800" lon="2.0310830">
        <ele>649.7</ele>
        <time>2022-09-26T10:00:40Z</time>
      </trkpt>
      <trkpt lat="41.7458710" lon="2.0310880">
        <ele>649.8</ele>
        <time>2022-09-26T10:00:41Z</time>
      </trkpt>
      <trkpt lat="41.7458370" lon="2.0310990">
        <ele>650.1</ele>
        <time>2022-09-26T10:00:43Z</time>
      </trkpt>
      <trkpt lat="41.7458280" lon="2.0311030">
        <ele>650.2</ele>
        <time>2022-09-26T10:00:44Z</time>
      </trkpt>
      <trkpt lat="41.7457970" lon="2.0311160">
        <ele>650.5</ele>
        <time>2022-09-26T10:00:45Z</time>
      </trkpt>
      <trkpt lat="41.7457630" lon="2.0311320">
        <ele>650.8</ele>
        <time>2022-09-26T10:00:46Z</time>
      </trkpt>
      <trkpt lat="41.7457530" lon="2.0311370">
        <ele>650.9</ele>
        <time>2022-09-26T10:00:47Z</time>
      </trkpt>
      <trkpt lat="41.7457340" lon="2.0311490">
        <ele>651.1</ele>
        <time>2022-09-26T10:00:48Z</time>
      </trkpt>
      <trkpt lat="41.7457100" lon="2.0311590">
        <ele>651.3</ele>
        <time>2022-09-26T10:00:50Z</time>
      </trkpt>
      <trkpt lat="41.7456820" lon="2.0311710">
        <ele>651.6</ele>
        <time>2022-09-26T10:00:51Z</time>
      </trkpt>
      <trkpt lat="41.7456490" lon="2.0311840">
        <ele>651.9</ele>
        <time>2022-09-26T10:00:52Z</time>
      </trkpt>
      <trkpt lat="41.7456390" lon="2.0311870">
        <ele>652.0</ele>
        <time>2022-09-26T10:00:53Z</time>
      </trkpt>
      <trkpt lat="41.7456120" lon="2.0311980">
        <ele>652.2</ele>
        <time>2022-09-26T10:00:54Z</time>
      </trkpt>
      <trkpt lat="41.7456020" lon="2.0312030">
        <ele>652.3</ele>
        <time>2022-09-26T10:00:55Z</time>
      </trkpt>
      <trkpt lat="41.7455710" lon="2.0312130">
        <ele>652.6</ele>
        <time>2022-09-26T10:00:56Z</time>
      </trkpt>
      <trkpt lat="41.7455610" lon="2.0312170">
        <ele>652.7</ele>
        <time>2022-09-26T10:00:57Z</time>
      </trkpt>
      <trkpt lat="41.7455270" lon="2.0312310">
        <ele>653.0</ele>
        <time>2022-09-26T10:00:58Z</time>
      </trkpt>
      <trkpt lat="41.7455160" lon="2.0312360">
        <ele>653.1</ele>
        <time>2022-09-26T10:00:59Z</time>
      </trkpt>
      <trkpt lat="41.7454870" lon="2.0312470">
        <ele>653.4</ele>
        <time>2022-09-26T10:01:00Z</time>
      </trkpt>
      <trkpt lat="41.7454770" lon="2.0312510">
        <ele>653.5</ele>
        <time>2022-09-26T10:01:01Z</time>
      </trkpt>
      <trkpt lat="41.7454510" lon="2.0312630">
        <ele>653.8</ele>
        <time>2022-09-26T10:01:02Z</time>
      </trkpt>
      <trkpt lat="41.7454430" lon="2.0312680">
        <ele>653.9</ele>
        <time>2022-09-26T10:01:03Z</time>
      </trkpt>
      <trkpt lat="41.7454150" lon="2.0312840">
        <ele>654.2</ele>
        <time>2022-09-26T10:01:04Z</time>
      </trkpt>
      <trkpt lat="41.7454060" lon="2.0312910">
        <ele>654.3</ele>
        <time>2022-09-26T10:01:05Z</time>
      </trkpt>
      <trkpt lat="41.7453880" lon="2.0313020">
        <ele>654.5</ele>
        <time>2022-09-26T10:01:06Z</time>
      </trkpt>
      <trkpt lat="41.7453610" lon="2.0313210">
        <ele>654.8</ele>
        <time>2022-09-26T10:01:08Z</time>
      </trkpt>
      <trkpt lat="41.7453330" lon="2.0313420">
        <ele>655.2</ele>
        <time>2022-09-26T10:01:09Z</time>
      </trkpt>
      <trkpt lat="41.7453240" lon="2.0313480">
        <ele>655.3</ele>
        <time>2022-09-26T10:01:10Z</time>
      </trkpt>
      <trkpt lat="41.7453090" lon="2.0313610">
        <ele>655.4</ele>
        <time>2022-09-26T10:01:11Z</time>
      </trkpt>
      <trkpt lat="41.7452940" lon="2.0313720">
        <ele>655.6</ele>
        <time>2022-09-26T10:01:12Z</time>
      </trkpt>
      <trkpt lat="41.7452760" lon="2.0313790">
        <ele>655.8</ele>
        <time>2022-09-26T10:01:13Z</time>
      </trkpt>
      <trkpt lat="41.7452640" lon="2.0313840">
        <ele>656.0</ele>
        <time>2022-09-26T10:01:14Z</time>
      </trkpt>
      <trkpt lat="41.7452370" lon="2.0313990">
        <ele>656.3</ele>
        <time>2022-09-26T10:01:15Z</time>
      </trkpt>
      <trkpt lat="41.7452290" lon="2.0314040">
        <ele>656.4</ele>
        <time>2022-09-26T10:01:16Z</time>
      </trkpt>
      <trkpt lat="41.7452040" lon="2.0314250">
        <ele>656.7</ele>
        <time>2022-09-26T10:01:17Z</time>
      </trkpt>
      <trkpt lat="41.7451960" lon="2.0314330">
        <ele>656.8</ele>
        <time>2022-09-26T10:01:18Z</time>
      </trkpt>
      <trkpt lat="41.7451820" lon="2.0314460">
        <ele>657.0</ele>
        <time>2022-09-26T10:01:19Z</time>
      </trkpt>
      <trkpt lat="41.7451550" lon="2.0314730">
        <ele>657.4</ele>
        <time>2022-09-26T10:01:21Z</time>
      </trkpt>
      <trkpt lat="41.7451330" lon="2.0314990">
        <ele>657.7</ele>
        <time>2022-09-26T10:01:22Z</time>
      </trkpt>
      <trkpt lat="41.7451120" lon="2.0315270">
        <ele>658.0</ele>
        <time>2022-09-26T10:01:23Z</time>
      </trkpt>
      <trkpt lat="41.7451060" lon="2.0315360">
        <ele>658.1</ele>
        <time>2022-09-26T10:01:24Z</time>
      </trkpt>
      <trkpt lat="41.7450930" lon="2.0315530">
        <ele>658.3</ele>
        <time>2022-09-26T10:01:25Z</time>
      </trkpt>
      <trkpt lat="41.7450730" lon="2.0315740">
        <ele>658.6</ele>
        <time>2022-09-26T10:01:27Z</time>
      </trkpt>
      <trkpt lat="41.7450460" lon="2.0316040">
        <ele>659.0</ele>
        <time>2022-09-26T10:01:28Z</time>
      </trkpt>
      <trkpt lat="41.7450240" lon="2.0316290">
        <ele>659.3</ele>
        <time>2022-09-26T10:01:29Z</time>
      </trkpt>
      <trkpt lat="41.7450180" lon="2.0316370">
        <ele>659.4</ele>
        <time>2022-09-26T10:01:30Z</time>
      </trkpt>
      <trkpt lat="41.7450060" lon="2.0316520">
        <ele>659.6</ele>
        <time>2022-09-26T10:01:31Z</time>
      </trkpt>
      <trkpt lat="41.7449940" lon="2.0316670">
        <ele>659.8</ele>
        <time>2022-09-26T10:01:32Z</time>
      </trkpt>
      <trkpt lat="41.7449850" lon="2.0316880">
        <ele>660.0</ele>
        <time>2022-09-26T10:01:33Z</time>
      </trkpt>
      <trkpt lat="41.7449720" lon="2.0317040">
        <ele>660.2</ele>
        <time>2022-09-26T10:01:34Z</time>
      </trkpt>
      <trkpt lat="41.7449570" lon="2.0317170">
        <ele>660.4</ele>
        <time>2022-09-26T10:01:35Z</time>
      </trkpt>
      <trkpt lat="41.7449460" lon="2.0317260">
        <ele>660.6</ele>
        <time>2022-09-26T10:01:36Z</time>
      </trkpt>
      <trkpt lat="41.7449330" lon="2.0317370">
        <ele>660.7</ele>
        <time>2022-09-26T10:01:37Z</time>
      </trkpt>
      <trkpt lat="41.7449200" lon="2.0317510">
        <ele>660.9</ele>
        <time>2022-09-26T10:01:38Z</time>
      </trkpt>
      <trkpt lat="41.7448970" lon="2.0317760">
        <ele>661.2</ele>
        <time>2022-09-26T10:01:39Z</time>
      </trkpt>
      <trkpt lat="41.7448900" lon="2.0317850">
        <ele>661.3</ele>
        <time>2022-09-26T10:01:40Z</time>
      </trkpt>
      <trkpt lat="41.7448760" lon="2.0318000">
        <ele>661.5</ele>
        <time>2022-09-26T10:01:41Z</time>
      </trkpt>
      <trkpt lat="41.7448640" lon="2.0318120">
        <ele>661.6</ele>
        <time>2022-09-26T10:01:42Z</time>
      </trkpt>
      <trkpt lat="41.7448270" lon="2.0318390">
        <ele>662.1</ele>
        <time>2022-09-26T10:01:44Z</time>
      </trkpt>
      <trkpt lat="41.7448150" lon="2.0318490">
        <ele>662.2</ele>
        <time>2022-09-26T10:01:45Z</time>
      </trkpt>
      <trkpt lat="41.7448030" lon="2.0318580">
        <ele>662.4</ele>
        <time>2022-09-26T10:01:46Z</time>
      </trkpt>
      <trkpt lat="41.7447740" lon="2.0318780">
        <ele>662.7</ele>
        <time>2022-09-26T10:01:47Z</time>
      </trkpt>
      <trkpt lat="41.7447660" lon="2.0318830">
        <ele>662.8</ele>
        <time>2022-09-26T10:01:48Z</time>
      </trkpt>
      <trkpt lat="41.7447420" lon="2.0319040">
        <ele>663.1</ele>
        <time>2022-09-26T10:01:49Z</time>
      </trkpt>
      <trkpt lat="41.7447330" lon="2.0319110">
        <ele>663.2</ele>
        <time>2022-09-26T10:01:50Z</time>
      </trkpt>
      <trkpt lat="41.7447170" lon="2.0319230">
        <ele>663.4</ele>
        <time>2022-09-26T10:01:51Z</time>
      </trkpt>
      <trkpt lat="41.7447030" lon="2.0319330">
        <ele>663.6</ele>
        <time>2022-09-26T10:01:52Z</time>
      </trkpt>
      <trkpt lat="41.7446750" lon="2.0319620">
        <ele>663.9</ele>
        <time>2022-09-26T10:01:54Z</time>
      </trkpt>
      <trkpt lat="41.7446700" lon="2.0319740">
        <ele>664.1</ele>
        <time>2022-09-26T10:01:55Z</time>
      </trkpt>
      <trkpt lat="41.7446580" lon="2.0320100">
        <ele>664.4</ele>
        <time>2022-09-26T10:01:56Z</time>
      </trkpt>
      <trkpt lat="41.7446550" lon="2.0320210">
        <ele>664.5</ele>
        <time>2022-09-26T10:01:57Z</time>
      </trkpt>
      <trkpt lat="41.7446470" lon="2.0320450">
        <ele>664.8</ele>
        <time>2022-09-26T10:01:58Z</time>
      </trkpt>
      <trkpt lat="41.7446390" lon="2.0320780">
        <ele>665.1</ele>
        <time>2022-09-26T10:02:00Z</time>
      </trkpt>
      <trkpt lat="41.7446330" lon="2.0321260">
        <ele>665.5</ele>
        <time>2022-09-26T10:02:01Z</time>
      </trkpt>
      <trkpt lat="41.7446320" lon="2.0321400">
        <ele>665.7</ele>
        <time>2022-09-26T10:02:02Z</time>
      </trkpt>
      <trkpt lat="41.7446320" lon="2.0321650">
        <ele>665.9</ele>
        <time>2022-09-26T10:02:03Z</time>
      </trkpt>
      <trkpt lat="41.7446300" lon="2.0321870">
        <ele>666.2</ele>
        <time>2022-09-26T10:02:04Z</time>
      </trkpt>
      <trkpt lat="41.7446250" lon="2.0322260">
        <ele>666.6</ele>
        <time>2022-09-26T10:02:05Z</time>
      </trkpt>
      <trkpt lat="41.7446230" lon="2.0322390">
        <ele>666.7</ele>
        <time>2022-09-26T10:02:06Z</time>
      </trkpt>
      <trkpt lat="41.7446150" lon="2.0322770">
        <ele>667.1</ele>
        <time>2022-09-26T10:02:07Z</time>
      </trkpt>
      <trkpt lat="41.7446110" lon="2.0322880">
        <ele>667.2</ele>
        <time>2022-09-26T10:02:08Z</time>
      </trkpt>
      <trkpt lat="41.7446040" lon="2.0323020">
        <ele>667.4</ele>
        <time>2022-09-26T10:02:09Z</time>
      </trkpt>
      <trkpt lat="41.7445860" lon="2.0323220">
        <ele>667.7</ele>
        <time>2022-09-26T10:02:11Z</time>
      </trkpt>
      <trkpt lat="41.7445730" lon="2.0323390">
        <ele>668.0</ele>
        <time>2022-09-26T10:02:12Z</time>
      </trkpt>
      <trkpt lat="41.7445600" lon="2.0323540">
        <ele>668.2</ele>
        <time>2022-09-26T10:02:13Z</time>
      </trkpt>
      <trkpt lat="41.7445390" lon="2.0323740">
        <ele>668.5</ele>
        <time>2022-09-26T10:02:14Z</time>
      </trkpt>
      <trkpt lat="41.7445300" lon="2.0323820">
        <ele>668.6</ele>
        <time>2022-09-26T10:02:15Z</time>
      </trkpt>
      <trkpt lat="41.7445010" lon="2.0324060">
        <ele>669.0</ele>
        <time>2022-09-26T10:02:17Z</time>
      </trkpt>
      <trkpt lat="41.7444920" lon="2.0324170">
        <ele>669.2</ele>
        <time>2022-09-26T10:02:18Z</time>
      </trkpt>
      <trkpt lat="41.7444780" lon="2.0324310">
        <ele>669.4</ele>
        <time>2022-09-26T10:02:19Z</time>
      </trkpt>
      <trkpt lat="41.7444650" lon="2.0324450">
        <ele>669.6</ele>
        <time>2022-09-26T10:02:20Z</time>
      </trkpt>
      <trkpt lat="41.7444300" lon="2.0324710">
        <ele>670.0</ele>
        <time>2022-09-26T10:02:22Z</time>
      </trkpt>
      <trkpt lat="41.7444200" lon="2.0324800">
        <ele>670.2</ele>
        <time>2022-09-26T10:02:23Z</time>
      </trkpt>
      <trkpt lat="41.7444090" lon="2.0324890">
        <ele>670.3</ele>
        <time>2022-09-26T10:02:24Z</time>
      </trkpt>
      <trkpt lat="41.7443870" lon="2.0325100">
        <ele>670.6</ele>
        <time>2022-09-26T10:02:25Z</time>
      </trkpt>
      <trkpt lat="41.7443790" lon="2.0325170">
        <ele>670.7</ele>
        <time>2022-09-26T10:02:26Z</time>
      </trkpt>
      <trkpt lat="41.7443670" lon="2.0325300">
        <ele>670.9</ele>
        <time>2022-09-26T10:02:27Z</time>
      </trkpt>
      <trkpt lat="41.7443520" lon="2.0325430">
        <ele>671.1</ele>
        <time>2022-09-26T10:02:28Z</time>
      </trkpt>
      <trkpt lat="41.7443380" lon="2.0325580">
        <ele>671.3</ele>
        <time>2022-09-26T10:02:29Z</time>
      </trkpt>
      <trkpt lat="41.7443150" lon="2.0325840">
        <ele>671.7</ele>
        <time>2022-09-26T10:02:31Z</time>
      </trkpt>
      <trkpt lat="41.7443000" lon="2.0326010">
        <ele>671.9</ele>
        <time>2022-09-26T10:02:32Z</time>
      </trkpt>
      <trkpt lat="41.7442900" lon="2.0326120">
        <ele>672.0</ele>
        <time>2022-09-26T10:02:33Z</time>
      </trkpt>
      <trkpt lat="41.7442680" lon="2.0326470">
        <ele>672.4</ele>
        <time>2022-09-26T10:02:34Z</time>
      </trkpt>
      <trkpt lat="41.7442620" lon="2.0326570">
        <ele>672.5</ele>
        <time>2022-09-26T10:02:35Z</time>
      </trkpt>
      <trkpt lat="41.7442510" lon="2.0326750">
        <ele>672.7</ele>
        <time>2022-09-26T10:02:36Z</time>
      </trkpt>
      <trkpt lat="41.7442430" lon="2.0326910">
        <ele>672.9</ele>
        <time>2022-09-26T10:02:37Z</time>
      </trkpt>
      <trkpt lat="41.7442340" lon="2.0327100">
        <ele>673.1</ele>
        <time>2022-09-26T10:02:38Z</time>
      </trkpt>
      <trkpt lat="41.7442180" lon="2.0327430">
        <ele>673.4</ele>
        <time>2022-09-26T10:02:40Z</time>
      </trkpt>
      <trkpt lat="41.7442100" lon="2.0327680">
        <ele>673.6</ele>
        <time>2022-09-26T10:02:41Z</time>
      </trkpt>
      <trkpt lat="41.7442040" lon="2.0327840">
        <ele>673.7</ele>
        <time>2022-09-26T10:02:42Z</time>
      </trkpt>
      <trkpt lat="41.7441890" lon="2.0328190">
        <ele>674.0</ele>
        <time>2022-09-26T10:02:44Z</time>
      </trkpt>
      <trkpt lat="41.7441860" lon="2.0328280">
        <ele>674.1</ele>
        <time>2022-09-26T10:02:45Z</time>
      </trkpt>
      <trkpt lat="41.7441720" lon="2.0328610">
        <ele>674.4</ele>
        <time>2022-09-26T10:02:46Z</time>
      </trkpt>
      <trkpt lat="41.7441680" lon="2.0328710">
        <ele>674.5</ele>
        <time>2022-09-26T10:02:47Z</time>
      </trkpt>
      <trkpt lat="41.7441540" lon="2.0329020">
        <ele>674.8</ele>
        <time>2022-09-26T10:02:48Z</time>
      </trkpt>
      <trkpt lat="41.7441490" lon="2.0329130">
        <ele>674.9</ele>
        <time>2022-09-26T10:02:49Z</time>
      </trkpt>
      <trkpt lat="41.7441410" lon="2.0329280">
        <ele>675.0</ele>
        <time>2022-09-26T10:02:50Z</time>
      </trkpt>
      <trkpt lat="41.7441330" lon="2.0329450">
        <ele>675.2</ele>
        <time>2022-09-26T10:02:51Z</time>
      </trkpt>
      <trkpt lat="41.7441150" lon="2.0329750">
        <ele>675.4</ele>
        <time>2022-09-26T10:02:52Z</time>
      </trkpt>
      <trkpt lat="41.7441100" lon="2.0329860">
        <ele>675.5</ele>
        <time>2022-09-26T10:02:53Z</time>
      </trkpt>
      <trkpt lat="41.7440970" lon="2.0330060">
        <ele>675.8</ele>
        <time>2022-09-26T10:02:54Z</time>
      </trkpt>
      <trkpt lat="41.7440830" lon="2.0330290">
        <ele>676.0</ele>
        <time>2022-09-26T10:02:56Z</time>
      </trkpt>
      <trkpt lat="41.7440650" lon="2.0330570">
        <ele>676.3</ele>
        <time>2022-09-26T10:02:57Z</time>
      </trkpt>
      <trkpt lat="41.7440590" lon="2.0330680">
        <ele>676.4</ele>
        <time>2022-09-26T10:02:58Z</time>
      </trkpt>
      <trkpt lat="41.7440460" lon="2.0330900">
        <ele>676.6</ele>
        <time>2022-09-26T10:02:59Z</time>
      </trkpt>
      <trkpt lat="41.7440260" lon="2.0331190">
        <ele>676.9</ele>
        <time>2022-09-26T10:03:01Z</time>
      </trkpt>
      <trkpt lat="41.7440080" lon="2.0331440">
        <ele>677.2</ele>
        <time>2022-09-26T10:03:02Z</time>
      </trkpt>
      <trkpt lat="41.7439940" lon="2.0331630">
        <ele>677.4</ele>
        <time>2022-09-26T10:03:04Z</time>
      </trkpt>
      <trkpt lat="41.7439740" lon="2.0331950">
        <ele>677.7</ele>
        <time>2022-09-26T10:03:05Z</time>
      </trkpt>
      <trkpt lat="41.7439690" lon="2.0332040">
        <ele>677.8</ele>
        <time>2022-09-26T10:03:06Z</time>
      </trkpt>
      <trkpt lat="41.7439610" lon="2.0332220">
        <ele>678.0</ele>
        <time>2022-09-26T10:03:07Z</time>
      </trkpt>
      <trkpt lat="41.7439530" lon="2.0332430">
        <ele>678.2</ele>
        <time>2022-09-26T10:03:08Z</time>
      </trkpt>
      <trkpt lat="41.7439460" lon="2.0332560">
        <ele>678.3</ele>
        <time>2022-09-26T10:03:09Z</time>
      </trkpt>
      <trkpt lat="41.7439380" lon="2.0332740">
        <ele>678.4</ele>
        <time>2022-09-26T10:03:10Z</time>
      </trkpt>
      <trkpt lat="41.7439300" lon="2.0332910">
        <ele>678.6</ele>
        <time>2022-09-26T10:03:11Z</time>
      </trkpt>
      <trkpt lat="41.7439200" lon="2.0333070">
        <ele>678.8</ele>
        <time>2022-09-26T10:03:12Z</time>
      </trkpt>
      <trkpt lat="41.7439110" lon="2.0333240">
        <ele>678.9</ele>
        <time>2022-09-26T10:03:13Z</time>
      </trkpt>
      <trkpt lat="41.7439010" lon="2.0333410">
        <ele>679.1</ele>
        <time>2022-09-26T10:03:15Z</time>
      </trkpt>
      <trkpt lat="41.7438920" lon="2.0333560">
        <ele>679.3</ele>
        <time>2022-09-26T10:03:16Z</time>
      </trkpt>
      <trkpt lat="41.7438830" lon="2.0333690">
        <ele>679.4</ele>
        <time>2022-09-26T10:03:17Z</time>
      </trkpt>
      <trkpt lat="41.7438680" lon="2.0333920">
        <ele>679.7</ele>
        <time>2022-09-26T10:03:18Z</time>
      </trkpt>
      <trkpt lat="41.7438570" lon="2.0334150">
        <ele>679.9</ele>
        <time>2022-09-26T10:03:20Z</time>
      </trkpt>
      <trkpt lat="41.7438440" lon="2.0334300">
        <ele>680.1</ele>
        <time>2022-09-26T10:03:21Z</time>
      </trkpt>
      <trkpt lat="41.7438280" lon="2.0334390">
        <ele>680.3</ele>
        <time>2022-09-26T10:03:22Z</time>
      </trkpt>
      <trkpt lat="41.7438080" lon="2.0334510">
        <ele>680.5</ele>
        <time>2022-09-26T10:03:23Z</time>
      </trkpt>
      <trkpt lat="41.7437900" lon="2.0334710">
        <ele>680.8</ele>
        <time>2022-09-26T10:03:25Z</time>
      </trkpt>
      <trkpt lat="41.7437790" lon="2.0334870">
        <ele>681.0</ele>
        <time>2022-09-26T10:03:26Z</time>
      </trkpt>
      <trkpt lat="41.7437680" lon="2.0335010">
        <ele>681.1</ele>
        <time>2022-09-26T10:03:27Z</time>
      </trkpt>
      <trkpt lat="41.7437460" lon="2.0335300">
        <ele>681.5</ele>
        <time>2022-09-26T10:03:28Z</time>
      </trkpt>
      <trkpt lat="41.7437410" lon="2.0335380">
        <ele>681.5</ele>
        <time>2022-09-26T10:03:29Z</time>
      </trkpt>
      <trkpt lat="41.7437350" lon="2.0335600">
        <ele>681.7</ele>
        <time>2022-09-26T10:03:30Z</time>
      </trkpt>
      <trkpt lat="41.7437250" lon="2.0335780">
        <ele>681.9</ele>
        <time>2022-09-26T10:03:31Z</time>
      </trkpt>
      <trkpt lat="41.7437160" lon="2.0335980">
        <ele>682.1</ele>
        <time>2022-09-26T10:03:32Z</time>
      </trkpt>
      <trkpt lat="41.7437100" lon="2.0336200">
        <ele>682.2</ele>
        <time>2022-09-26T10:03:33Z</time>
      </trkpt>
      <trkpt lat="41.7437020" lon="2.0336410">
        <ele>682.4</ele>
        <time>2022-09-26T10:03:34Z</time>
      </trkpt>
      <trkpt lat="41.7436920" lon="2.0336640">
        <ele>682.6</ele>
        <time>2022-09-26T10:03:36Z</time>
      </trkpt>
      <trkpt lat="41.7436860" lon="2.0336850">
        <ele>682.8</ele>
        <time>2022-09-26T10:03:37Z</time>
      </trkpt>
      <trkpt lat="41.7436820" lon="2.0337050">
        <ele>682.9</ele>
        <time>2022-09-26T10:03:38Z</time>
      </trkpt>
      <trkpt lat="41.7436750" lon="2.0337410">
        <ele>683.2</ele>
        <time>2022-09-26T10:03:39Z</time>
      </trkpt>
      <trkpt lat="41.7436730" lon="2.0337530">
        <ele>683.3</ele>
        <time>2022-09-26T10:03:40Z</time>
      </trkpt>
      <trkpt lat="41.7436720" lon="2.0337740">
        <ele>683.4</ele>
        <time>2022-09-26T10:03:41Z</time>
      </trkpt>
      <trkpt lat="41.7436690" lon="2.0337910">
        <ele>683.5</ele>
        <time>2022-09-26T10:03:42Z</time>
      </trkpt>
      <trkpt lat="41.7436650" lon="2.0338370">
        <ele>683.9</ele>
        <time>2022-09-26T10:03:44Z</time>
      </trkpt>
      <trkpt lat="41.7436640" lon="2.0338530">
        <ele>684.0</ele>
        <time>2022-09-26T10:03:45Z</time>
      </trkpt>
      <trkpt lat="41.7436670" lon="2.0338890">
        <ele>684.2</ele>
        <time>2022-09-26T10:03:46Z</time>
      </trkpt>
      <trkpt lat="41.7436700" lon="2.0339020">
        <ele>684.3</ele>
        <time>2022-09-26T10:03:47Z</time>
      </trkpt>
      <trkpt lat="41.7436720" lon="2.0339220">
        <ele>684.4</ele>
        <time>2022-09-26T10:03:48Z</time>
      </trkpt>
      <trkpt lat="41.7436750" lon="2.0339470">
        <ele>684.5</ele>
        <time>2022-09-26T10:03:49Z</time>
      </trkpt>
      <trkpt lat="41.7436810" lon="2.0339710">
        <ele>684.7</ele>
        <time>2022-09-26T10:03:50Z</time>
      </trkpt>
      <trkpt lat="41.7436910" lon="2.0340070">
        <ele>684.9</ele>
        <time>2022-09-26T10:03:52Z</time>
      </trkpt>
      <trkpt lat="41.7437010" lon="2.0340430">
        <ele>685.1</ele>
        <time>2022-09-26T10:03:53Z</time>
      </trkpt>
      <trkpt lat="41.7437110" lon="2.0340770">
        <ele>685.3</ele>
        <time>2022-09-26T10:03:54Z</time>
      </trkpt>
      <trkpt lat="41.7437280" lon="2.0341250">
        <ele>685.5</ele>
        <time>2022-09-26T10:03:56Z</time>
      </trkpt>
      <trkpt lat="41.7437440" lon="2.0341660">
        <ele>685.7</ele>
        <time>2022-09-26T10:03:57Z</time>
      </trkpt>
      <trkpt lat="41.7437480" lon="2.0341780">
        <ele>685.7</ele>
        <time>2022-09-26T10:03:58Z</time>
      </trkpt>
      <trkpt lat="41.7437650" lon="2.0342080">
        <ele>685.9</ele>
        <time>2022-09-26T10:03:59Z</time>
      </trkpt>
      <trkpt lat="41.7437710" lon="2.0342170">
        <ele>685.9</ele>
        <time>2022-09-26T10:04:00Z</time>
      </trkpt>
      <trkpt lat="41.7437880" lon="2.0342390">
        <ele>686.0</ele>
        <time>2022-09-26T10:04:01Z</time>
      </trkpt>
      <trkpt lat="41.7438080" lon="2.0342620">
        <ele>686.2</ele>
        <time>2022-09-26T10:04:03Z</time>
      </trkpt>
      <trkpt lat="41.7438210" lon="2.0342760">
        <ele>686.2</ele>
        <time>2022-09-26T10:04:04Z</time>
      </trkpt>
      <trkpt lat="41.7438350" lon="2.0342880">
        <ele>686.3</ele>
        <time>2022-09-26T10:04:05Z</time>
      </trkpt>
      <trkpt lat="41.7438610" lon="2.0343100">
        <ele>686.5</ele>
        <time>2022-09-26T10:04:06Z</time>
      </trkpt>
      <trkpt lat="41.7438680" lon="2.0343160">
        <ele>686.5</ele>
        <time>2022-09-26T10:04:07Z</time>
      </trkpt>
      <trkpt lat="41.7438900" lon="2.0343400">
        <ele>686.7</ele>
        <time>2022-09-26T10:04:09Z</time>
      </trkpt>
      <trkpt lat="41.7439120" lon="2.0343670">
        <ele>686.9</ele>
        <time>2022-09-26T10:04:10Z</time>
      </trkpt>
      <trkpt lat="41.7439300" lon="2.0343860">
        <ele>687.1</ele>
        <time>2022-09-26T10:04:11Z</time>
      </trkpt>
      <trkpt lat="41.7439490" lon="2.0344050">
        <ele>687.3</ele>
        <time>2022-09-26T10:04:13Z</time>
      </trkpt>
      <trkpt lat="41.7439770" lon="2.0344270">
        <ele>687.5</ele>
        <time>2022-09-26T10:04:14Z</time>
      </trkpt>
      <trkpt lat="41.7439870" lon="2.0344340">
        <ele>687.7</ele>
        <time>2022-09-26T10:04:15Z</time>
      </trkpt>
      <trkpt lat="41.7439990" lon="2.0344440">
        <ele>687.8</ele>
        <time>2022-09-26T10:04:16Z</time>
      </trkpt>
      <trkpt lat="41.7440110" lon="2.0344580">
        <ele>688.0</ele>
        <time>2022-09-26T10:04:17Z</time>
      </trkpt>
      <trkpt lat="41.7440250" lon="2.0344740">
        <ele>688.2</ele>
        <time>2022-09-26T10:04:19Z</time>
      </trkpt>
      <trkpt lat="41.7440390" lon="2.0344870">
        <ele>688.4</ele>
        <time>2022-09-26T10:04:20Z</time>
      </trkpt>
      <trkpt lat="41.7440600" lon="2.0345060">
        <ele>688.7</ele>
        <time>2022-09-26T10:04:21Z</time>
      </trkpt>
      <trkpt lat="41.7440660" lon="2.0345120">
        <ele>688.8</ele>
        <time>2022-09-26T10:04:22Z</time>
      </trkpt>
      <trkpt lat="41.7440860" lon="2.0345260">
        <ele>689.1</ele>
        <time>2022-09-26T10:04:23Z</time>
      </trkpt>
      <trkpt lat="41.7440940" lon="2.0345320">
        <ele>689.2</ele>
        <time>2022-09-26T10:04:24Z</time>
      </trkpt>
      <trkpt lat="41.7441020" lon="2.0345370">
        <ele>689.3</ele>
        <time>2022-09-26T10:04:25Z</time>
      </trkpt>
      <trkpt lat="41.7441150" lon="2.0345460">
        <ele>689.5</ele>
        <time>2022-09-26T10:04:26Z</time>
      </trkpt>
      <trkpt lat="41.7441280" lon="2.0345550">
        <ele>689.7</ele>
        <time>2022-09-26T10:04:27Z</time>
      </trkpt>
      <trkpt lat="41.7441400" lon="2.0345650">
        <ele>689.9</ele>
        <time>2022-09-26T10:04:28Z</time>
      </trkpt>
      <trkpt lat="41.7441520" lon="2.0345810">
        <ele>690.1</ele>
        <time>2022-09-26T10:04:29Z</time>
      </trkpt>
      <trkpt lat="41.7441640" lon="2.0345940">
        <ele>690.3</ele>
        <time>2022-09-26T10:04:30Z</time>
      </trkpt>
      <trkpt lat="41.7441780" lon="2.0346080">
        <ele>690.6</ele>
        <time>2022-09-26T10:04:31Z</time>
      </trkpt>
      <trkpt lat="41.7441870" lon="2.0346210">
        <ele>690.8</ele>
        <time>2022-09-26T10:04:32Z</time>
      </trkpt>
      <trkpt lat="41.7441960" lon="2.0346360">
        <ele>691.0</ele>
        <time>2022-09-26T10:04:33Z</time>
      </trkpt>
      <trkpt lat="41.7442110" lon="2.0346570">
        <ele>691.3</ele>
        <time>2022-09-26T10:04:34Z</time>
      </trkpt>
      <trkpt lat="41.7442180" lon="2.0346640">
        <ele>691.4</ele>
        <time>2022-09-26T10:04:35Z</time>
      </trkpt>
      <trkpt lat="41.7442250" lon="2.0346720">
        <ele>691.5</ele>
        <time>2022-09-26T10:04:36Z</time>
      </trkpt>
      <trkpt lat="41.7442370" lon="2.0346850">
        <ele>691.7</ele>
        <time>2022-09-26T10:04:37Z</time>
      </trkpt>
      <trkpt lat="41.7442470" lon="2.0346980">
        <ele>691.9</ele>
        <time>2022-09-26T10:04:38Z</time>
      </trkpt>
      <trkpt lat="41.7442660" lon="2.0347240">
        <ele>692.3</ele>
        <time>2022-09-26T10:04:39Z</time>
      </trkpt>
      <trkpt lat="41.7442770" lon="2.0347370">
        <ele>692.5</ele>
        <time>2022-09-26T10:04:41Z</time>
      </trkpt>
      <trkpt lat="41.7442870" lon="2.0347500">
        <ele>692.6</ele>
        <time>2022-09-26T10:04:42Z</time>
      </trkpt>
      <trkpt lat="41.7442980" lon="2.0347630">
        <ele>692.7</ele>
        <time>2022-09-26T10:04:43Z</time>
      </trkpt>
      <trkpt lat="41.7443080" lon="2.0347750">
        <ele>692.9</ele>
        <time>2022-09-26T10:04:44Z</time>
      </trkpt>
      <trkpt lat="41.7443340" lon="2.0347970">
        <ele>693.3</ele>
        <time>2022-09-26T10:04:46Z</time>
      </trkpt>
      <trkpt lat="41.7443480" lon="2.0348060">
        <ele>693.5</ele>
        <time>2022-09-26T10:04:47Z</time>
      </trkpt>
      <trkpt lat="41.7443590" lon="2.0348160">
        <ele>693.6</ele>
        <time>2022-09-26T10:04:48Z</time>
      </trkpt>
      <trkpt lat="41.7443740" lon="2.0348510">
        <ele>694.0</ele>
        <time>2022-09-26T10:04:50Z</time>
      </trkpt>
      <trkpt lat="41.7443760" lon="2.0348620">
        <ele>694.1</ele>
        <time>2022-09-26T10:04:51Z</time>
      </trkpt>
      <trkpt lat="41.7443760" lon="2.0348710">
        <ele>694.2</ele>
        <time>2022-09-26T10:04:52Z</time>
      </trkpt>
      <trkpt lat="41.7443760" lon="2.0348730">
        <ele>694.2</ele>
        <time>2022-09-26T10:04:53Z</time>
      </trkpt>
      <trkpt lat="41.7443760" lon="2.0348700">
        <ele>694.2</ele>
        <time>2022-09-26T10:04:54Z</time>
      </trkpt>
      <trkpt lat="41.7443760" lon="2.0348650">
        <ele>694.3</ele>
        <time>2022-09-26T10:04:55Z</time>
      </trkpt>
      <trkpt lat="41.7443770" lon="2.0348620">
        <ele>694.3</ele>
        <time>2022-09-26T10:04:56Z</time>
      </trkpt>
      <trkpt lat="41.7443770" lon="2.0348590">
        <ele>694.3</ele>
        <time>2022-09-26T10:04:57Z</time>
      </trkpt>
      <trkpt lat="41.7443770" lon="2.0348570">
        <ele>694.3</ele>
        <time>2022-09-26T10:04:58Z</time>
      </trkpt>
      <trkpt lat="41.7443780" lon="2.0348560">
        <ele>694.4</ele>
        <time>2022-09-26T10:04:59Z</time>
      </trkpt>
      <trkpt lat="41.7443780" lon="2.0348540">
        <ele>694.4</ele>
        <time>2022-09-26T10:05:00Z</time>
      </trkpt>
      <trkpt lat="41.7443770" lon="2.0348540">
        <ele>694.4</ele>
        <time>2022-09-26T10:05:01Z</time>
      </trkpt>
      <trkpt lat="41.7443780" lon="2.0348540">
        <ele>694.4</ele>
        <time>2022-09-26T10:05:02Z</time>
      </trkpt>
      <trkpt lat="41.7443780" lon="2.0348540">
        <ele>694.4</ele>
        <time>2022-09-26T10:05:03Z</time>
      </trkpt>
      <trkpt lat="41.7444080" lon="2.0348680">
        <ele>694.8</ele>
        <time>2022-09-26T10:05:37Z</time>
      </trkpt>
      <trkpt lat="41.7444190" lon="2.0348740">
        <ele>695.0</ele>
        <time>2022-09-26T10:05:38Z</time>
      </trkpt>
      <trkpt lat="41.7444330" lon="2.0348850">
        <ele>695.2</ele>
        <time>2022-09-26T10:05:39Z</time>
      </trkpt>
      <trkpt lat="41.7444460" lon="2.0348980">
        <ele>695.4</ele>
        <time>2022-09-26T10:05:40Z</time>
      </trkpt>
      <trkpt lat="41.7444680" lon="2.0349150">
        <ele>695.8</ele>
        <time>2022-09-26T10:05:42Z</time>
      </trkpt>
      <trkpt lat="41.7444860" lon="2.0349300">
        <ele>696.1</ele>
        <time>2022-09-26T10:05:43Z</time>
      </trkpt>
      <trkpt lat="41.7445050" lon="2.0349470">
        <ele>696.5</ele>
        <time>2022-09-26T10:05:45Z</time>
      </trkpt>
      <trkpt lat="41.7445210" lon="2.0349620">
        <ele>696.8</ele>
        <time>2022-09-26T10:05:46Z</time>
      </trkpt>
      <trkpt lat="41.7445300" lon="2.0349700">
        <ele>697.0</ele>
        <time>2022-09-26T10:05:47Z</time>
      </trkpt>
      <trkpt lat="41.7445430" lon="2.0349790">
        <ele>697.2</ele>
        <time>2022-09-26T10:05:48Z</time>
      </trkpt>
      <trkpt lat="41.7445570" lon="2.0349830">
        <ele>697.5</ele>
        <time>2022-09-26T10:05:49Z</time>
      </trkpt>
      <trkpt lat="41.7445710" lon="2.0349750">
        <ele>697.7</ele>
        <time>2022-09-26T10:05:50Z</time>
      </trkpt>
      <trkpt lat="41.7445970" lon="2.0349560">
        <ele>698.2</ele>
        <time>2022-09-26T10:05:52Z</time>
      </trkpt>
      <trkpt lat="41.7446210" lon="2.0349330">
        <ele>698.7</ele>
        <time>2022-09-26T10:05:53Z</time>
      </trkpt>
      <trkpt lat="41.7446260" lon="2.0349260">
        <ele>698.8</ele>
        <time>2022-09-26T10:05:54Z</time>
      </trkpt>
      <trkpt lat="41.7446370" lon="2.0349000">
        <ele>699.2</ele>
        <time>2022-09-26T10:05:55Z</time>
      </trkpt>
      <trkpt lat="41.7446410" lon="2.0348690">
        <ele>699.5</ele>
        <time>2022-09-26T10:05:57Z</time>
      </trkpt>
      <trkpt lat="41.7446370" lon="2.0348300">
        <ele>699.9</ele>
        <time>2022-09-26T10:05:58Z</time>
      </trkpt>
      <trkpt lat="41.7446340" lon="2.0348130">
        <ele>700.1</ele>
        <time>2022-09-26T10:05:59Z</time>
      </trkpt>
      <trkpt lat="41.7446280" lon="2.0347930">
        <ele>700.3</ele>
        <time>2022-09-26T10:06:00Z</time>
      </trkpt>
      <trkpt lat="41.7446210" lon="2.0347760">
        <ele>700.5</ele>
        <time>2022-09-26T10:06:01Z</time>
      </trkpt>
      <trkpt lat="41.7446130" lon="2.0347570">
        <ele>700.7</ele>
        <time>2022-09-26T10:06:02Z</time>
      </trkpt>
      <trkpt lat="41.7446060" lon="2.0347350">
        <ele>700.9</ele>
        <time>2022-09-26T10:06:03Z</time>
      </trkpt>
      <trkpt lat="41.7446000" lon="2.0347140">
        <ele>701.1</ele>
        <time>2022-09-26T10:06:04Z</time>
      </trkpt>
      <trkpt lat="41.7445960" lon="2.0346960">
        <ele>701.3</ele>
        <time>2022-09-26T10:06:05Z</time>
      </trkpt>
      <trkpt lat="41.7445910" lon="2.0346780">
        <ele>701.5</ele>
        <time>2022-09-26T10:06:06Z</time>
      </trkpt>
      <trkpt lat="41.7445890" lon="2.0346630">
        <ele>701.6</ele>
        <time>2022-09-26T10:06:07Z</time>
      </trkpt>
      <trkpt lat="41.7445840" lon="2.0346380">
        <ele>701.8</ele>
        <time>2022-09-26T10:06:09Z</time>
      </trkpt>
      <trkpt lat="41.7445800" lon="2.0346170">
        <ele>702.0</ele>
        <time>2022-09-26T10:06:10Z</time>
      </trkpt>
      <trkpt lat="41.7445770" lon="2.0345990">
        <ele>702.2</ele>
        <time>2022-09-26T10:06:11Z</time>
      </trkpt>
      <trkpt lat="41.7445730" lon="2.0345770">
        <ele>702.4</ele>
        <time>2022-09-26T10:06:12Z</time>
      </trkpt>
      <trkpt lat="41.7445700" lon="2.0345570">
        <ele>702.6</ele>
        <time>2022-09-26T10:06:13Z</time>
      </trkpt>
      <trkpt lat="41.7445670" lon="2.0345390">
        <ele>702.8</ele>
        <time>2022-09-26T10:06:14Z</time>
      </trkpt>
      <trkpt lat="41.7445640" lon="2.0345190">
        <ele>702.9</ele>
        <time>2022-09-26T10:06:15Z</time>
      </trkpt>
      <trkpt lat="41.7445620" lon="2.0345020">
        <ele>703.1</ele>
        <time>2022-09-26T10:06:16Z</time>
      </trkpt>
      <trkpt lat="41.7445620" lon="2.0344850">
        <ele>703.2</ele>
        <time>2022-09-26T10:06:17Z</time>
      </trkpt>
      <trkpt lat="41.7445630" lon="2.0344700">
        <ele>703.4</ele>
        <time>2022-09-26T10:06:18Z</time>
      </trkpt>
      <trkpt lat="41.7445670" lon="2.0344540">
        <ele>703.5</ele>
        <time>2022-09-26T10:06:19Z</time>
      </trkpt>
      <trkpt lat="41.7445690" lon="2.0344340">
        <ele>703.7</ele>
        <time>2022-09-26T10:06:20Z</time>
      </trkpt>
      <trkpt lat="41.7445770" lon="2.0343910">
        <ele>704.0</ele>
        <time>2022-09-26T10:06:22Z</time>
      </trkpt>
      <trkpt lat="41.7445830" lon="2.0343780">
        <ele>704.2</ele>
        <time>2022-09-26T10:06:23Z</time>
      </trkpt>
      <trkpt lat="41.7446110" lon="2.0343500">
        <ele>704.5</ele>
        <time>2022-09-26T10:06:25Z</time>
      </trkpt>
      <trkpt lat="41.7446200" lon="2.0343410">
        <ele>704.6</ele>
        <time>2022-09-26T10:06:26Z</time>
      </trkpt>
      <trkpt lat="41.7446590" lon="2.0343130">
        <ele>704.9</ele>
        <time>2022-09-26T10:06:27Z</time>
      </trkpt>
      <trkpt lat="41.7446930" lon="2.0342990">
        <ele>705.2</ele>
        <time>2022-09-26T10:06:28Z</time>
      </trkpt>
      <trkpt lat="41.7447380" lon="2.0342940">
        <ele>705.4</ele>
        <time>2022-09-26T10:06:30Z</time>
      </trkpt>
      <trkpt lat="41.7447710" lon="2.0342990">
        <ele>705.6</ele>
        <time>2022-09-26T10:06:31Z</time>
      </trkpt>
      <trkpt lat="41.7447850" lon="2.0343170">
        <ele>705.7</ele>
        <time>2022-09-26T10:06:32Z</time>
      </trkpt>
      <trkpt lat="41.7447880" lon="2.0343340">
        <ele>705.7</ele>
        <time>2022-09-26T10:06:33Z</time>
      </trkpt>
      <trkpt lat="41.7447890" lon="2.0343520">
        <ele>705.6</ele>
        <time>2022-09-26T10:06:34Z</time>
      </trkpt>
      <trkpt lat="41.7447870" lon="2.0343650">
        <ele>705.6</ele>
        <time>2022-09-26T10:06:35Z</time>
      </trkpt>
      <trkpt lat="41.7447860" lon="2.0343800">
        <ele>705.6</ele>
        <time>2022-09-26T10:06:36Z</time>
      </trkpt>
      <trkpt lat="41.7447850" lon="2.0344050">
        <ele>705.6</ele>
        <time>2022-09-26T10:06:38Z</time>
      </trkpt>
      <trkpt lat="41.7447880" lon="2.0344220">
        <ele>705.6</ele>
        <time>2022-09-26T10:06:39Z</time>
      </trkpt>
      <trkpt lat="41.7447960" lon="2.0344430">
        <ele>705.6</ele>
        <time>2022-09-26T10:06:40Z</time>
      </trkpt>
      <trkpt lat="41.7447970" lon="2.0344570">
        <ele>705.6</ele>
        <time>2022-09-26T10:06:41Z</time>
      </trkpt>
      <trkpt lat="41.7448030" lon="2.0344980">
        <ele>705.6</ele>
        <time>2022-09-26T10:06:43Z</time>
      </trkpt>
      <trkpt lat="41.7448050" lon="2.0345100">
        <ele>705.6</ele>
        <time>2022-09-26T10:06:44Z</time>
      </trkpt>
      <trkpt lat="41.7448080" lon="2.0345280">
        <ele>705.6</ele>
        <time>2022-09-26T10:06:45Z</time>
      </trkpt>
      <trkpt lat="41.7448090" lon="2.0345460">
        <ele>705.6</ele>
        <time>2022-09-26T10:06:47Z</time>
      </trkpt>
      <trkpt lat="41.7448110" lon="2.0345660">
        <ele>705.6</ele>
        <time>2022-09-26T10:06:48Z</time>
      </trkpt>
      <trkpt lat="41.7448100" lon="2.0345830">
        <ele>705.6</ele>
        <time>2022-09-26T10:06:49Z</time>
      </trkpt>
      <trkpt lat="41.7448100" lon="2.0346120">
        <ele>705.6</ele>
        <time>2022-09-26T10:06:50Z</time>
      </trkpt>
      <trkpt lat="41.7448100" lon="2.0346240">
        <ele>705.7</ele>
        <time>2022-09-26T10:06:51Z</time>
      </trkpt>
      <trkpt lat="41.7448100" lon="2.0346350">
        <ele>705.7</ele>
        <time>2022-09-26T10:06:52Z</time>
      </trkpt>
      <trkpt lat="41.7448120" lon="2.0346490">
        <ele>705.7</ele>
        <time>2022-09-26T10:06:53Z</time>
      </trkpt>
      <trkpt lat="41.7448140" lon="2.0346650">
        <ele>705.7</ele>
        <time>2022-09-26T10:06:54Z</time>
      </trkpt>
      <trkpt lat="41.7448180" lon="2.0346740">
        <ele>705.7</ele>
        <time>2022-09-26T10:06:55Z</time>
      </trkpt>
      <trkpt lat="41.7448280" lon="2.0346840">
        <ele>705.7</ele>
        <time>2022-09-26T10:06:56Z</time>
      </trkpt>
      <trkpt lat="41.7448380" lon="2.0346850">
        <ele>705.7</ele>
        <time>2022-09-26T10:06:58Z</time>
      </trkpt>
      <trkpt lat="41.7448440" lon="2.0346850">
        <ele>705.7</ele>
        <time>2022-09-26T10:06:59Z</time>
      </trkpt>
      <trkpt lat="41.7448450" lon="2.0346860">
        <ele>705.7</ele>
        <time>2022-09-26T10:07:00Z</time>
      </trkpt>
      <trkpt lat="41.7448450" lon="2.0346880">
        <ele>705.7</ele>
        <time>2022-09-26T10:07:01Z</time>
      </trkpt>
      <trkpt lat="41.7448430" lon="2.0346910">
        <ele>705.7</ele>
        <time>2022-09-26T10:07:02Z</time>
      </trkpt>
      <trkpt lat="41.7448440" lon="2.0346940">
        <ele>705.7</ele>
        <time>2022-09-26T10:07:03Z</time>
      </trkpt>
      <trkpt lat="41.7448460" lon="2.0346970">
        <ele>705.7</ele>
        <time>2022-09-26T10:07:04Z</time>
      </trkpt>
      <trkpt lat="41.7448450" lon="2.0346970">
        <ele>705.7</ele>
        <time>2022-09-26T10:07:05Z</time>
      </trkpt>
      <trkpt lat="41.7448470" lon="2.0346970">
        <ele>705.7</ele>
        <time>2022-09-26T10:07:06Z</time>
      </trkpt>
      <trkpt lat="41.7448460" lon="2.0346980">
        <ele>705.7</ele>
        <time>2022-09-26T10:07:07Z</time>
      </trkpt>
      <trkpt lat="41.7448450" lon="2.0346980">
        <ele>705.7</ele>
        <time>2022-09-26T10:07:08Z</time>
      </trkpt>
      <trkpt lat="41.7448120" lon="2.0346850">
        <ele>705.7</ele>
        <time>2022-09-26T10:07:34Z</time>
      </trkpt>
      <trkpt lat="41.7448050" lon="2.0346790">
        <ele>705.7</ele>
        <time>2022-09-26T10:07:35Z</time>
      </trkpt>
      <trkpt lat="41.7448000" lon="2.0346730">
        <ele>705.7</ele>
        <time>2022-09-26T10:07:36Z</time>
      </trkpt>
      <trkpt lat="41.7448010" lon="2.0346650">
        <ele>705.7</ele>
        <time>2022-09-26T10:07:38Z</time>
      </trkpt>
      <trkpt lat="41.7448020" lon="2.0346620">
        <ele>705.7</ele>
        <time>2022-09-26T10:07:39Z</time>
      </trkpt>
      <trkpt lat="41.7448030" lon="2.0346600">
        <ele>705.7</ele>
        <time>2022-09-26T10:07:40Z</time>
      </trkpt>
      <trkpt lat="41.7448040" lon="2.0346580">
        <ele>705.7</ele>
        <time>2022-09-26T10:07:41Z</time>
      </trkpt>
      <trkpt lat="41.7448040" lon="2.0346580">
        <ele>705.7</ele>
        <time>2022-09-26T10:07:42Z</time>
      </trkpt>
      <trkpt lat="41.7448050" lon="2.0346570">
        <ele>705.7</ele>
        <time>2022-09-26T10:07:43Z</time>
      </trkpt>
      <trkpt lat="41.7448050" lon="2.0346570">
        <ele>705.7</ele>
        <time>2022-09-26T10:07:44Z</time>
      </trkpt>
      <trkpt lat="41.7448050" lon="2.0346560">
        <ele>705.7</ele>
        <time>2022-09-26T10:07:45Z</time>
      </trkpt>
      <trkpt lat="41.7448050" lon="2.0346540">
        <ele>705.7</ele>
        <time>2022-09-26T10:07:46Z</time>
      </trkpt>
      <trkpt lat="41.7448030" lon="2.0346470">
        <ele>705.7</ele>
        <time>2022-09-26T10:07:47Z</time>
      </trkpt>
      <trkpt lat="41.7447970" lon="2.0346300">
        <ele>705.7</ele>
        <time>2022-09-26T10:07:49Z</time>
      </trkpt>
      <trkpt lat="41.7447900" lon="2.0346130">
        <ele>705.7</ele>
        <time>2022-09-26T10:07:50Z</time>
      </trkpt>
      <trkpt lat="41.7447850" lon="2.0345960">
        <ele>705.7</ele>
        <time>2022-09-26T10:07:51Z</time>
      </trkpt>
      <trkpt lat="41.7447810" lon="2.0345760">
        <ele>705.6</ele>
        <time>2022-09-26T10:07:52Z</time>
      </trkpt>
      <trkpt lat="41.7447790" lon="2.0345580">
        <ele>705.6</ele>
        <time>2022-09-26T10:07:53Z</time>
      </trkpt>
      <trkpt lat="41.7447760" lon="2.0345390">
        <ele>705.6</ele>
        <time>2022-09-26T10:07:54Z</time>
      </trkpt>
      <trkpt lat="41.7447710" lon="2.0345200">
        <ele>705.6</ele>
        <time>2022-09-26T10:07:55Z</time>
      </trkpt>
      <trkpt lat="41.7447660" lon="2.0345050">
        <ele>705.6</ele>
        <time>2022-09-26T10:07:56Z</time>
      </trkpt>
      <trkpt lat="41.7447600" lon="2.0344890">
        <ele>705.6</ele>
        <time>2022-09-26T10:07:58Z</time>
      </trkpt>
      <trkpt lat="41.7447570" lon="2.0344770">
        <ele>705.6</ele>
        <time>2022-09-26T10:07:59Z</time>
      </trkpt>
      <trkpt lat="41.7447500" lon="2.0344650">
        <ele>705.6</ele>
        <time>2022-09-26T10:08:00Z</time>
      </trkpt>
      <trkpt lat="41.7447450" lon="2.0344590">
        <ele>705.6</ele>
        <time>2022-09-26T10:08:01Z</time>
      </trkpt>
      <trkpt lat="41.7447430" lon="2.0344580">
        <ele>705.6</ele>
        <time>2022-09-26T10:08:02Z</time>
      </trkpt>
      <trkpt lat="41.7447410" lon="2.0344610">
        <ele>705.6</ele>
        <time>2022-09-26T10:08:03Z</time>
      </trkpt>
      <trkpt lat="41.7447400" lon="2.0344640">
        <ele>705.6</ele>
        <time>2022-09-26T10:08:04Z</time>
      </trkpt>
      <trkpt lat="41.7447410" lon="2.0344670">
        <ele>705.6</ele>
        <time>2022-09-26T10:08:05Z</time>
      </trkpt>
      <trkpt lat="41.7447410" lon="2.0344680">
        <ele>705.6</ele>
        <time>2022-09-26T10:08:06Z</time>
      </trkpt>
      <trkpt lat="41.7447420" lon="2.0344690">
        <ele>705.6</ele>
        <time>2022-09-26T10:08:07Z</time>
      </trkpt>
      <trkpt lat="41.7447430" lon="2.0344690">
        <ele>705.6</ele>
        <time>2022-09-26T10:08:08Z</time>
      </trkpt>
      <trkpt lat="41.7447430" lon="2.0344690">
        <ele>705.6</ele>
        <time>2022-09-26T10:08:09Z</time>
      </trkpt>
      <trkpt lat="41.7447430" lon="2.0344700">
        <ele>705.6</ele>
        <time>2022-09-26T10:08:10Z</time>
      </trkpt>
      <trkpt lat="41.7447440" lon="2.0344700">
        <ele>705.6</ele>
        <time>2022-09-26T10:08:11Z</time>
      </trkpt>
      <trkpt lat="41.7447440" lon="2.0344700">
        <ele>705.6</ele>
        <time>2022-09-26T10:08:12Z</time>
      </trkpt>
      <trkpt lat="41.7447430" lon="2.0344700">
        <ele>705.6</ele>
        <time>2022-09-26T10:08:13Z</time>
      </trkpt>
      <trkpt lat="41.7447500" lon="2.0345020">
        <ele>705.6</ele>
        <time>2022-09-26T10:08:20Z</time>
      </trkpt>
      <trkpt lat="41.7447590" lon="2.0345150">
        <ele>705.6</ele>
        <time>2022-09-26T10:08:22Z</time>
      </trkpt>
      <trkpt lat="41.7447650" lon="2.0345290">
        <ele>705.6</ele>
        <time>2022-09-26T10:08:23Z</time>
      </trkpt>
      <trkpt lat="41.7447690" lon="2.0345420">
        <ele>705.6</ele>
        <time>2022-09-26T10:08:24Z</time>
      </trkpt>
      <trkpt lat="41.7447710" lon="2.0345520">
        <ele>705.6</ele>
        <time>2022-09-26T10:08:25Z</time>
      </trkpt>
      <trkpt lat="41.7447760" lon="2.0345670">
        <ele>705.6</ele>
        <time>2022-09-26T10:08:27Z</time>
      </trkpt>
      <trkpt lat="41.7447810" lon="2.0345800">
        <ele>705.6</ele>
        <time>2022-09-26T10:08:28Z</time>
      </trkpt>
      <trkpt lat="41.7447880" lon="2.0345920">
        <ele>705.6</ele>
        <time>2022-09-26T10:08:29Z</time>
      </trkpt>
      <trkpt lat="41.7447920" lon="2.0346000">
        <ele>705.6</ele>
        <time>2022-09-26T10:08:30Z</time>
      </trkpt>
      <trkpt lat="41.7447930" lon="2.0346060">
        <ele>705.6</ele>
        <time>2022-09-26T10:08:31Z</time>
      </trkpt>
      <trkpt lat="41.7447860" lon="2.0346090">
        <ele>705.6</ele>
        <time>2022-09-26T10:08:33Z</time>
      </trkpt>
      <trkpt lat="41.7447860" lon="2.0346170">
        <ele>705.6</ele>
        <time>2022-09-26T10:08:34Z</time>
      </trkpt>
      <trkpt lat="41.7447880" lon="2.0346240">
        <ele>705.6</ele>
        <time>2022-09-26T10:08:35Z</time>
      </trkpt>
      <trkpt lat="41.7447890" lon="2.0346300">
        <ele>705.6</ele>
        <time>2022-09-26T10:08:36Z</time>
      </trkpt>
      <trkpt lat="41.7447900" lon="2.0346380">
        <ele>705.6</ele>
        <time>2022-09-26T10:08:37Z</time>
      </trkpt>
      <trkpt lat="41.7447920" lon="2.0346480">
        <ele>705.6</ele>
        <time>2022-09-26T10:08:38Z</time>
      </trkpt>
      <trkpt lat="41.7447930" lon="2.0346550">
        <ele>705.6</ele>
        <time>2022-09-26T10:08:39Z</time>
      </trkpt>
      <trkpt lat="41.7447950" lon="2.0346580">
        <ele>705.6</ele>
        <time>2022-09-26T10:08:40Z</time>
      </trkpt>
      <trkpt lat="41.7447940" lon="2.0346570">
        <ele>705.6</ele>
        <time>2022-09-26T10:08:41Z</time>
      </trkpt>
      <trkpt lat="41.7447940" lon="2.0346560">
        <ele>705.6</ele>
        <time>2022-09-26T10:08:42Z</time>
      </trkpt>
      <trkpt lat="41.7447940" lon="2.0346550">
        <ele>705.6</ele>
        <time>2022-09-26T10:08:43Z</time>
      </trkpt>
      <trkpt lat="41.7447940" lon="2.0346540">
        <ele>705.6</ele>
        <time>2022-09-26T10:08:44Z</time>
      </trkpt>
      <trkpt lat="41.7447940" lon="2.0346530">
        <ele>705.6</ele>
        <time>2022-09-26T10:08:45Z</time>
      </trkpt>
      <trkpt lat="41.7447940" lon="2.0346520">
        <ele>705.6</ele>
        <time>2022-09-26T10:08:46Z</time>
      </trkpt>
      <trkpt lat="41.7447930" lon="2.0346510">
        <ele>705.6</ele>
        <time>2022-09-26T10:08:47Z</time>
      </trkpt>
      <trkpt lat="41.7447930" lon="2.0346500">
        <ele>705.6</ele>
        <time>2022-09-26T10:08:48Z</time>
      </trkpt>
      <trkpt lat="41.7447930" lon="2.0346490">
        <ele>705.6</ele>
        <time>2022-09-26T10:08:49Z</time>
      </trkpt>
      <trkpt lat="41.7447930" lon="2.0346480">
        <ele>705.6</ele>
        <time>2022-09-26T10:08:50Z</time>
      </trkpt>
      <trkpt lat="41.7447930" lon="2.0346470">
        <ele>705.6</ele>
        <time>2022-09-26T10:08:51Z</time>
      </trkpt>
      <trkpt lat="41.7447930" lon="2.0346460">
        <ele>705.6</ele>
        <time>2022-09-26T10:08:52Z</time>
      </trkpt>
      <trkpt lat="41.7447920" lon="2.0346450">
        <ele>705.6</ele>
        <time>2022-09-26T10:08:53Z</time>
      </trkpt>
      <trkpt lat="41.7447920" lon="2.0346440">
        <ele>705.6</ele>
        <time>2022-09-26T10:08:54Z</time>
      </trkpt>
      <trkpt lat="41.7447920" lon="2.0346430">
        <ele>705.6</ele>
        <time>2022-09-26T10:08:55Z</time>
      </trkpt>
      <trkpt lat="41.7447920" lon="2.0346420">
        <ele>705.6</ele>
        <time>2022-09-26T10:08:56Z</time>
      </trkpt>
      <trkpt lat="41.7447920" lon="2.0346410">
        <ele>705.6</ele>
        <time>2022-09-26T10:08:57Z</time>
      </trkpt>
      <trkpt lat="41.7447920" lon="2.0346400">
        <ele>705.6</ele>
        <time>2022-09-26T10:08:59Z</time>
      </trkpt>
      <trkpt lat="41.7447910" lon="2.0346390">
        <ele>705.6</ele>
        <time>2022-09-26T10:09:00Z</time>
      </trkpt>
      <trkpt lat="41.7447910" lon="2.0346380">
        <ele>705.6</ele>
        <time>2022-09-26T10:09:01Z</time>
      </trkpt>
      <trkpt lat="41.7447910" lon="2.0346370">
        <ele>705.6</ele>
        <time>2022-09-26T10:09:02Z</time>
      </trkpt>
      <trkpt lat="41.7447910" lon="2.0346360">
        <ele>705.6</ele>
        <time>2022-09-26T10:09:03Z</time>
      </trkpt>
      <trkpt lat="41.7447910" lon="2.0346350">
        <ele>705.6</ele>
        <time>2022-09-26T10:09:04Z</time>
      </trkpt>
      <trkpt lat="41.7447910" lon="2.0346340">
        <ele>705.6</ele>
        <time>2022-09-26T10:09:05Z</time>
      </trkpt>
      <trkpt lat="41.7447900" lon="2.0346330">
        <ele>705.6</ele>
        <time>2022-09-26T10:09:06Z</time>
      </trkpt>
      <trkpt lat="41.7447900" lon="2.0346320">
        <ele>705.6</ele>
        <time>2022-09-26T10:09:07Z</time>
      </trkpt>
      <trkpt lat="41.7447900" lon="2.0346310">
        <ele>705.6</ele>
        <time>2022-09-26T10:09:08Z</time>
      </trkpt>
      <trkpt lat="41.7447900" lon="2.0346300">
        <ele>705.6</ele>
        <time>2022-09-26T10:09:09Z</time>
      </trkpt>
      <trkpt lat="41.7447900" lon="2.0346290">
        <ele>705.6</ele>
        <time>2022-09-26T10:09:10Z</time>
      </trkpt>
      <trkpt lat="41.7447900" lon="2.0346280">
        <ele>705.6</ele>
        <time>2022-09-26T10:10:43Z</time>
      </trkpt>
      <trkpt lat="41.7447890" lon="2.0346270">
        <ele>705.6</ele>
        <time>2022-09-26T10:10:44Z</time>
      </trkpt>
      <trkpt lat="41.7447890" lon="2.0346260">
        <ele>705.6</ele>
        <time>2022-09-26T10:10:45Z</time>
      </trkpt>
      <trkpt lat="41.7447890" lon="2.0346250">
        <ele>705.6</ele>
        <time>2022-09-26T10:10:46Z</time>
      </trkpt>
      <trkpt lat="41.7447890" lon="2.0346240">
        <ele>705.6</ele>
        <time>2022-09-26T10:10:47Z</time>
      </trkpt>
      <trkpt lat="41.7447890" lon="2.0346230">
        <ele>705.6</ele>
        <time>2022-09-26T10:10:48Z</time>
      </trkpt>
      <trkpt lat="41.7447890" lon="2.0346220">
        <ele>705.6</ele>
        <time>2022-09-26T10:10:49Z</time>
      </trkpt>
      <trkpt lat="41.7447880" lon="2.0346210">
        <ele>705.6</ele>
        <time>2022-09-26T10:10:51Z</time>
      </trkpt>
      <trkpt lat="41.7447880" lon="2.0346200">
        <ele>705.6</ele>
        <time>2022-09-26T10:10:53Z</time>
      </trkpt>
      <trkpt lat="41.7447880" lon="2.0346190">
        <ele>705.6</ele>
        <time>2022-09-26T10:10:54Z</time>
      </trkpt>
      <trkpt lat="41.7447880" lon="2.0346180">
        <ele>705.6</ele>
        <time>2022-09-26T10:10:55Z</time>
      </trkpt>
      <trkpt lat="41.7447880" lon="2.0346170">
        <ele>705.6</ele>
        <time>2022-09-26T10:10:56Z</time>
      </trkpt>
      <trkpt lat="41.7447880" lon="2.0346160">
        <ele>705.6</ele>
        <time>2022-09-26T10:10:57Z</time>
      </trkpt>
      <trkpt lat="41.7447870" lon="2.0346150">
        <ele>705.6</ele>
        <time>2022-09-26T10:10:59Z</time>
      </trkpt>
      <trkpt lat="41.7447870" lon="2.0346140">
        <ele>705.6</ele>
        <time>2022-09-26T10:11:00Z</time>
      </trkpt>
      <trkpt lat="41.7447870" lon="2.0346130">
        <ele>705.6</ele>
        <time>2022-09-26T10:11:01Z</time>
      </trkpt>
      <trkpt lat="41.7447870" lon="2.0346120">
        <ele>705.6</ele>
        <time>2022-09-26T10:11:02Z</time>
      </trkpt>
      <trkpt lat="41.7447870" lon="2.0346110">
        <ele>705.6</ele>
        <time>2022-09-26T10:11:03Z</time>
      </trkpt>
      <trkpt lat="41.7447870" lon="2.0346100">
        <ele>705.6</ele>
        <time>2022-09-26T10:11:04Z</time>
      </trkpt>
      <trkpt lat="41.7447860" lon="2.0346090">
        <ele>705.6</ele>
        <time>2022-09-26T10:11:05Z</time>
      </trkpt>
      <trkpt lat="41.7447860" lon="2.0346080">
        <ele>705.6</ele>
        <time>2022-09-26T10:11:06Z</time>
      </trkpt>
      <trkpt lat="41.7447860" lon="2.0346070">
        <ele>705.6</ele>
        <time>2022-09-26T10:11:07Z</time>
      </trkpt>
      <trkpt lat="41.7447860" lon="2.0346060">
        <ele>705.6</ele>
        <time>2022-09-26T10:11:08Z</time>
      </trkpt>
      <trkpt lat="41.7447860" lon="2.0346050">
        <ele>705.6</ele>
        <time>2022-09-26T10:11:09Z</time>
      </trkpt>
      <trkpt lat="41.7447860" lon="2.0346040">
        <ele>705.6</ele>
        <time>2022-09-26T10:11:10Z</time>
      </trkpt>
      <trkpt lat="41.7447850" lon="2.0346030">
        <ele>705.6</ele>
        <time>2022-09-26T10:11:11Z</time>
      </trkpt>
      <trkpt lat="41.7447850" lon="2.0346020">
        <ele>705.6</ele>
        <time>2022-09-26T10:11:12Z</time>
      </trkpt>
      <trkpt lat="41.7447850" lon="2.0346010">
        <ele>705.6</ele>
        <time>2022-09-26T10:11:13Z</time>
      </trkpt>
      <trkpt lat="41.7447850" lon="2.0346000">
        <ele>705.6</ele>
        <time>2022-09-26T10:11:14Z</time>
      </trkpt>
      <trkpt lat="41.7447850" lon="2.0345990">
        <ele>705.6</ele>
        <time>2022-09-26T10:11:15Z</time>
      </trkpt>
      <trkpt lat="41.7447850" lon="2.0345980">
        <ele>705.6</ele>
        <time>2022-09-26T10:11:16Z</time>
      </trkpt>
      <trkpt lat="41.7447840" lon="2.0345970">
        <ele>705.6</ele>
        <time>2022-09-26T10:11:17Z</time>
      </trkpt>
      <trkpt lat="41.7447840" lon="2.0345950">
        <ele>705.6</ele>
        <time>2022-09-26T10:11:18Z</time>
      </trkpt>
      <trkpt lat="41.7447840" lon="2.0345940">
        <ele>705.6</ele>
        <time>2022-09-26T10:11:19Z</time>
      </trkpt>
      <trkpt lat="41.7447840" lon="2.0345930">
        <ele>705.6</ele>
        <time>2022-09-26T10:11:20Z</time>
      </trkpt>
      <trkpt lat="41.7447840" lon="2.0345920">
        <ele>705.6</ele>
        <time>2022-09-26T10:11:21Z</time>
      </trkpt>
      <trkpt lat="41.7447840" lon="2.0345910">
        <ele>705.6</ele>
        <time>2022-09-26T10:11:22Z</time>
      </trkpt>
      <trkpt lat="41.7447830" lon="2.0345900">
        <ele>705.6</ele>
        <time>2022-09-26T10:11:23Z</time>
      </trkpt>
      <trkpt lat="41.7447830" lon="2.0345890">
        <ele>705.6</ele>
        <time>2022-09-26T10:11:24Z</time>
      </trkpt>
      <trkpt lat="41.7447830" lon="2.0345880">
        <ele>705.6</ele>
        <time>2022-09-26T10:11:25Z</time>
      </trkpt>
      <trkpt lat="41.7447830" lon="2.0345870">
        <ele>705.6</ele>
        <time>2022-09-26T10:11:26Z</time>
      </trkpt>
      <trkpt lat="41.7447830" lon="2.0345860">
        <ele>705.6</ele>
        <time>2022-09-26T10:11:27Z</time>
      </trkpt>
      <trkpt lat="41.7447830" lon="2.0345850">
        <ele>705.6</ele>
        <time>2022-09-26T10:11:28Z</time>
      </trkpt>
      <trkpt lat="41.7447820" lon="2.0345840">
        <ele>705.6</ele>
        <time>2022-09-26T10:11:29Z</time>
      </trkpt>
      <trkpt lat="41.7447820" lon="2.0345830">
        <ele>705.6</ele>
        <time>2022-09-26T10:11:30Z</time>
      </trkpt>
      <trkpt lat="41.7447820" lon="2.0345820">
        <ele>705.6</ele>
        <time>2022-09-26T10:11:31Z</time>
      </trkpt>
      <trkpt lat="41.7447820" lon="2.0345810">
        <ele>705.6</ele>
        <time>2022-09-26T10:11:32Z</time>
      </trkpt>
      <trkpt lat="41.7447820" lon="2.0345800">
        <ele>705.6</ele>
        <time>2022-09-26T10:11:33Z</time>
      </trkpt>
      <trkpt lat="41.7447820" lon="2.0345790">
        <ele>705.6</ele>
        <time>2022-09-26T10:11:34Z</time>
      </trkpt>
      <trkpt lat="41.7447810" lon="2.0345780">
        <ele>705.6</ele>
        <time>2022-09-26T10:11:35Z</time>
      </trkpt>
      <trkpt lat="41.7447810" lon="2.0345770">
        <ele>705.6</ele>
        <time>2022-09-26T10:11:36Z</time>
      </trkpt>
      <trkpt lat="41.7447810" lon="2.0345760">
        <ele>705.6</ele>
        <time>2022-09-26T10:11:37Z</time>
      </trkpt>
      <trkpt lat="41.7447810" lon="2.0345750">
        <ele>705.6</ele>
        <time>2022-09-26T10:11:38Z</time>
      </trkpt>
      <trkpt lat="41.7447810" lon="2.0345740">
        <ele>705.6</ele>
        <time>2022-09-26T10:11:39Z</time>
      </trkpt>
      <trkpt lat="41.7447810" lon="2.0345730">
        <ele>705.6</ele>
        <time>2022-09-26T10:11:40Z</time>
      </trkpt>
      <trkpt lat="41.7447800" lon="2.0345720">
        <ele>705.6</ele>
        <time>2022-09-26T10:11:41Z</time>
      </trkpt>
      <trkpt lat="41.7447800" lon="2.0345710">
        <ele>705.6</ele>
        <time>2022-09-26T10:11:42Z</time>
      </trkpt>
      <trkpt lat="41.7447800" lon="2.0345700">
        <ele>705.6</ele>
        <time>2022-09-26T10:11:43Z</time>
      </trkpt>
      <trkpt lat="41.7447800" lon="2.0345690">
        <ele>705.6</ele>
        <time>2022-09-26T10:11:44Z</time>
      </trkpt>
      <trkpt lat="41.7447800" lon="2.0345680">
        <ele>705.6</ele>
        <time>2022-09-26T10:11:45Z</time>
      </trkpt>
      <trkpt lat="41.7447800" lon="2.0345670">
        <ele>705.6</ele>
        <time>2022-09-26T10:11:46Z</time>
      </trkpt>
      <trkpt lat="41.7447790" lon="2.0345660">
        <ele>705.6</ele>
        <time>2022-09-26T10:12:35Z</time>
      </trkpt>
      <trkpt lat="41.7447790" lon="2.0345650">
        <ele>705.6</ele>
        <time>2022-09-26T10:12:36Z</time>
      </trkpt>
      <trkpt lat="41.7447790" lon="2.0345640">
        <ele>705.6</ele>
        <time>2022-09-26T10:12:37Z</time>
      </trkpt>
      <trkpt lat="41.7447800" lon="2.0345000">
        <ele>705.6</ele>
        <time>2022-09-26T10:12:38Z</time>
      </trkpt>
      <trkpt lat="41.7447910" lon="2.0344240">
        <ele>705.6</ele>
        <time>2022-09-26T10:12:40Z</time>
      </trkpt>
      <trkpt lat="41.7448020" lon="2.0343800">
        <ele>705.7</ele>
        <time>2022-09-26T10:12:41Z</time>
      </trkpt>
      <trkpt lat="41.7448140" lon="2.0343410">
        <ele>705.7</ele>
        <time>2022-09-26T10:12:42Z</time>
      </trkpt>
      <trkpt lat="41.7448310" lon="2.0343080">
        <ele>705.7</ele>
        <time>2022-09-26T10:12:43Z</time>
      </trkpt>
      <trkpt lat="41.7448530" lon="2.0342830">
        <ele>705.8</ele>
        <time>2022-09-26T10:12:44Z</time>
      </trkpt>
      <trkpt lat="41.7448860" lon="2.0342660">
        <ele>705.8</ele>
        <time>2022-09-26T10:12:45Z</time>
      </trkpt>
      <trkpt lat="41.7449150" lon="2.0342600">
        <ele>705.8</ele>
        <time>2022-09-26T10:12:46Z</time>
      </trkpt>
      <trkpt lat="41.7449420" lon="2.0342660">
        <ele>705.7</ele>
        <time>2022-09-26T10:12:47Z</time>
      </trkpt>
      <trkpt lat="41.7449660" lon="2.0342720">
        <ele>705.7</ele>
        <time>2022-09-26T10:12:48Z</time>
      </trkpt>
      <trkpt lat="41.7450010" lon="2.0342840">
        <ele>705.7</ele>
        <time>2022-09-26T10:12:50Z</time>
      </trkpt>
      <trkpt lat="41.7450280" lon="2.0342930">
        <ele>705.6</ele>
        <time>2022-09-26T10:12:51Z</time>
      </trkpt>
      <trkpt lat="41.7450680" lon="2.0343000">
        <ele>705.4</ele>
        <time>2022-09-26T10:12:52Z</time>
      </trkpt>
      <trkpt lat="41.7450830" lon="2.0343020">
        <ele>705.4</ele>
        <time>2022-09-26T10:12:53Z</time>
      </trkpt>
      <trkpt lat="41.7451100" lon="2.0343040">
        <ele>705.3</ele>
        <time>2022-09-26T10:12:54Z</time>
      </trkpt>
      <trkpt lat="41.7451550" lon="2.0343040">
        <ele>705.0</ele>
        <time>2022-09-26T10:12:56Z</time>
      </trkpt>
      <trkpt lat="41.7452140" lon="2.0343060">
        <ele>704.6</ele>
        <time>2022-09-26T10:12:57Z</time>
      </trkpt>
      <trkpt lat="41.7452680" lon="2.0343070">
        <ele>704.3</ele>
        <time>2022-09-26T10:12:58Z</time>
      </trkpt>
      <trkpt lat="41.7453190" lon="2.0343060">
        <ele>703.9</ele>
        <time>2022-09-26T10:12:59Z</time>
      </trkpt>
      <trkpt lat="41.7453710" lon="2.0343060">
        <ele>703.5</ele>
        <time>2022-09-26T10:13:00Z</time>
      </trkpt>
      <trkpt lat="41.7454280" lon="2.0343090">
        <ele>703.1</ele>
        <time>2022-09-26T10:13:01Z</time>
      </trkpt>
      <trkpt lat="41.7454870" lon="2.0343160">
        <ele>702.6</ele>
        <time>2022-09-26T10:13:02Z</time>
      </trkpt>
      <trkpt lat="41.7455460" lon="2.0343260">
        <ele>702.2</ele>
        <time>2022-09-26T10:13:03Z</time>
      </trkpt>
      <trkpt lat="41.7455910" lon="2.0343350">
        <ele>702.0</ele>
        <time>2022-09-26T10:13:04Z</time>
      </trkpt>
      <trkpt lat="41.7456200" lon="2.0343460">
        <ele>701.9</ele>
        <time>2022-09-26T10:13:05Z</time>
      </trkpt>
      <trkpt lat="41.7456370" lon="2.0343490">
        <ele>701.8</ele>
        <time>2022-09-26T10:13:06Z</time>
      </trkpt>
      <trkpt lat="41.7456710" lon="2.0343530">
        <ele>701.8</ele>
        <time>2022-09-26T10:13:07Z</time>
      </trkpt>
      <trkpt lat="41.7457030" lon="2.0343570">
        <ele>701.7</ele>
        <time>2022-09-26T10:13:08Z</time>
      </trkpt>
      <trkpt lat="41.7457540" lon="2.0343620">
        <ele>701.7</ele>
        <time>2022-09-26T10:13:10Z</time>
      </trkpt>
      <trkpt lat="41.7457930" lon="2.0343660">
        <ele>701.7</ele>
        <time>2022-09-26T10:13:11Z</time>
      </trkpt>
      <trkpt lat="41.7458370" lon="2.0343710">
        <ele>701.7</ele>
        <time>2022-09-26T10:13:12Z</time>
      </trkpt>
      <trkpt lat="41.7458750" lon="2.0343720">
        <ele>701.7</ele>
        <time>2022-09-26T10:13:14Z</time>
      </trkpt>
      <trkpt lat="41.7459130" lon="2.0343600">
        <ele>701.7</ele>
        <time>2022-09-26T10:13:15Z</time>
      </trkpt>
      <trkpt lat="41.7459250" lon="2.0343530">
        <ele>701.6</ele>
        <time>2022-09-26T10:13:16Z</time>
      </trkpt>
      <trkpt lat="41.7459600" lon="2.0343340">
        <ele>701.6</ele>
        <time>2022-09-26T10:13:17Z</time>
      </trkpt>
      <trkpt lat="41.7459750" lon="2.0343260">
        <ele>701.6</ele>
        <time>2022-09-26T10:13:18Z</time>
      </trkpt>
      <trkpt lat="41.7460050" lon="2.0343080">
        <ele>701.5</ele>
        <time>2022-09-26T10:13:19Z</time>
      </trkpt>
      <trkpt lat="41.7460140" lon="2.0343020">
        <ele>701.5</ele>
        <time>2022-09-26T10:13:20Z</time>
      </trkpt>
      <trkpt lat="41.7460490" lon="2.0342830">
        <ele>701.3</ele>
        <time>2022-09-26T10:13:21Z</time>
      </trkpt>
      <trkpt lat="41.7460620" lon="2.0342740">
        <ele>701.3</ele>
        <time>2022-09-26T10:13:22Z</time>
      </trkpt>
      <trkpt lat="41.7460860" lon="2.0342560">
        <ele>701.1</ele>
        <time>2022-09-26T10:13:23Z</time>
      </trkpt>
      <trkpt lat="41.7461220" lon="2.0342380">
        <ele>700.9</ele>
        <time>2022-09-26T10:13:24Z</time>
      </trkpt>
      <trkpt lat="41.7461330" lon="2.0342330">
        <ele>700.8</ele>
        <time>2022-09-26T10:13:25Z</time>
      </trkpt>
      <trkpt lat="41.7461590" lon="2.0342260">
        <ele>700.7</ele>
        <time>2022-09-26T10:13:26Z</time>
      </trkpt>
      <trkpt lat="41.7462230" lon="2.0342110">
        <ele>700.1</ele>
        <time>2022-09-26T10:13:28Z</time>
      </trkpt>
      <trkpt lat="41.7462580" lon="2.0342040">
        <ele>699.8</ele>
        <time>2022-09-26T10:13:29Z</time>
      </trkpt>
      <trkpt lat="41.7463010" lon="2.0342010">
        <ele>699.4</ele>
        <time>2022-09-26T10:13:31Z</time>
      </trkpt>
      <trkpt lat="41.7463580" lon="2.0341920">
        <ele>698.9</ele>
        <time>2022-09-26T10:13:32Z</time>
      </trkpt>
      <trkpt lat="41.7464230" lon="2.0341860">
        <ele>698.2</ele>
        <time>2022-09-26T10:13:34Z</time>
      </trkpt>
      <trkpt lat="41.7464890" lon="2.0341860">
        <ele>697.6</ele>
        <time>2022-09-26T10:13:35Z</time>
      </trkpt>
      <trkpt lat="41.7465510" lon="2.0341830">
        <ele>697.0</ele>
        <time>2022-09-26T10:13:36Z</time>
      </trkpt>
      <trkpt lat="41.7465950" lon="2.0341760">
        <ele>696.5</ele>
        <time>2022-09-26T10:13:37Z</time>
      </trkpt>
      <trkpt lat="41.7466520" lon="2.0341710">
        <ele>696.0</ele>
        <time>2022-09-26T10:13:39Z</time>
      </trkpt>
      <trkpt lat="41.7467310" lon="2.0341720">
        <ele>695.5</ele>
        <time>2022-09-26T10:13:40Z</time>
      </trkpt>
      <trkpt lat="41.7467880" lon="2.0341820">
        <ele>695.4</ele>
        <time>2022-09-26T10:13:41Z</time>
      </trkpt>
      <trkpt lat="41.7468450" lon="2.0342020">
        <ele>695.3</ele>
        <time>2022-09-26T10:13:42Z</time>
      </trkpt>
      <trkpt lat="41.7468980" lon="2.0342290">
        <ele>695.2</ele>
        <time>2022-09-26T10:13:43Z</time>
      </trkpt>
      <trkpt lat="41.7469490" lon="2.0342550">
        <ele>695.1</ele>
        <time>2022-09-26T10:13:44Z</time>
      </trkpt>
      <trkpt lat="41.7470000" lon="2.0342780">
        <ele>695.0</ele>
        <time>2022-09-26T10:13:45Z</time>
      </trkpt>
      <trkpt lat="41.7470500" lon="2.0342910">
        <ele>694.8</ele>
        <time>2022-09-26T10:13:46Z</time>
      </trkpt>
      <trkpt lat="41.7470990" lon="2.0342930">
        <ele>694.6</ele>
        <time>2022-09-26T10:13:47Z</time>
      </trkpt>
      <trkpt lat="41.7471490" lon="2.0342850">
        <ele>694.4</ele>
        <time>2022-09-26T10:13:48Z</time>
      </trkpt>
      <trkpt lat="41.7472000" lon="2.0342650">
        <ele>694.1</ele>
        <time>2022-09-26T10:13:49Z</time>
      </trkpt>
      <trkpt lat="41.7472500" lon="2.0342350">
        <ele>693.9</ele>
        <time>2022-09-26T10:13:50Z</time>
      </trkpt>
      <trkpt lat="41.7473020" lon="2.0342020">
        <ele>693.7</ele>
        <time>2022-09-26T10:13:51Z</time>
      </trkpt>
      <trkpt lat="41.7473540" lon="2.0341680">
        <ele>693.6</ele>
        <time>2022-09-26T10:13:52Z</time>
      </trkpt>
      <trkpt lat="41.7474090" lon="2.0341310">
        <ele>693.4</ele>
        <time>2022-09-26T10:13:53Z</time>
      </trkpt>
      <trkpt lat="41.7474620" lon="2.0340970">
        <ele>693.2</ele>
        <time>2022-09-26T10:13:54Z</time>
      </trkpt>
      <trkpt lat="41.7475130" lon="2.0340650">
        <ele>693.0</ele>
        <time>2022-09-26T10:13:55Z</time>
      </trkpt>
      <trkpt lat="41.7475570" lon="2.0340350">
        <ele>692.7</ele>
        <time>2022-09-26T10:13:56Z</time>
      </trkpt>
      <trkpt lat="41.7475980" lon="2.0340040">
        <ele>692.4</ele>
        <time>2022-09-26T10:13:57Z</time>
      </trkpt>
      <trkpt lat="41.7476360" lon="2.0339660">
        <ele>692.0</ele>
        <time>2022-09-26T10:13:58Z</time>
      </trkpt>
      <trkpt lat="41.7476710" lon="2.0339220">
        <ele>691.5</ele>
        <time>2022-09-26T10:13:59Z</time>
      </trkpt>
      <trkpt lat="41.7477000" lon="2.0338700">
        <ele>691.0</ele>
        <time>2022-09-26T10:14:00Z</time>
      </trkpt>
      <trkpt lat="41.7477270" lon="2.0338140">
        <ele>690.5</ele>
        <time>2022-09-26T10:14:01Z</time>
      </trkpt>
      <trkpt lat="41.7477550" lon="2.0337540">
        <ele>689.9</ele>
        <time>2022-09-26T10:14:02Z</time>
      </trkpt>
      <trkpt lat="41.7477810" lon="2.0336920">
        <ele>689.3</ele>
        <time>2022-09-26T10:14:03Z</time>
      </trkpt>
      <trkpt lat="41.7478070" lon="2.0336180">
        <ele>688.6</ele>
        <time>2022-09-26T10:14:04Z</time>
      </trkpt>
      <trkpt lat="41.7478310" lon="2.0335340">
        <ele>687.9</ele>
        <time>2022-09-26T10:14:05Z</time>
      </trkpt>
      <trkpt lat="41.7478530" lon="2.0334430">
        <ele>687.3</ele>
        <time>2022-09-26T10:14:06Z</time>
      </trkpt>
      <trkpt lat="41.7478810" lon="2.0333450">
        <ele>686.7</ele>
        <time>2022-09-26T10:14:07Z</time>
      </trkpt>
      <trkpt lat="41.7479060" lon="2.0332470">
        <ele>686.1</ele>
        <time>2022-09-26T10:14:08Z</time>
      </trkpt>
      <trkpt lat="41.7479180" lon="2.0331410">
        <ele>685.5</ele>
        <time>2022-09-26T10:14:09Z</time>
      </trkpt>
      <trkpt lat="41.7479220" lon="2.0330300">
        <ele>684.9</ele>
        <time>2022-09-26T10:14:10Z</time>
      </trkpt>
      <trkpt lat="41.7479230" lon="2.0329230">
        <ele>684.4</ele>
        <time>2022-09-26T10:14:11Z</time>
      </trkpt>
      <trkpt lat="41.7479260" lon="2.0328320">
        <ele>683.8</ele>
        <time>2022-09-26T10:14:12Z</time>
      </trkpt>
      <trkpt lat="41.7479340" lon="2.0327520">
        <ele>683.2</ele>
        <time>2022-09-26T10:14:13Z</time>
      </trkpt>
      <trkpt lat="41.7479480" lon="2.0326800">
        <ele>682.6</ele>
        <time>2022-09-26T10:14:14Z</time>
      </trkpt>
      <trkpt lat="41.7479680" lon="2.0326070">
        <ele>682.0</ele>
        <time>2022-09-26T10:14:15Z</time>
      </trkpt>
      <trkpt lat="41.7479990" lon="2.0325370">
        <ele>681.5</ele>
        <time>2022-09-26T10:14:16Z</time>
      </trkpt>
      <trkpt lat="41.7480440" lon="2.0324720">
        <ele>681.0</ele>
        <time>2022-09-26T10:14:17Z</time>
      </trkpt>
      <trkpt lat="41.7481000" lon="2.0324100">
        <ele>680.4</ele>
        <time>2022-09-26T10:14:18Z</time>
      </trkpt>
      <trkpt lat="41.7481620" lon="2.0323440">
        <ele>679.9</ele>
        <time>2022-09-26T10:14:19Z</time>
      </trkpt>
      <trkpt lat="41.7482230" lon="2.0322710">
        <ele>679.7</ele>
        <time>2022-09-26T10:14:20Z</time>
      </trkpt>
      <trkpt lat="41.7482820" lon="2.0321980">
        <ele>679.5</ele>
        <time>2022-09-26T10:14:21Z</time>
      </trkpt>
      <trkpt lat="41.7483360" lon="2.0321230">
        <ele>679.6</ele>
        <time>2022-09-26T10:14:22Z</time>
      </trkpt>
      <trkpt lat="41.7483810" lon="2.0320490">
        <ele>679.8</ele>
        <time>2022-09-26T10:14:23Z</time>
      </trkpt>
      <trkpt lat="41.7484260" lon="2.0319760">
        <ele>680.2</ele>
        <time>2022-09-26T10:14:24Z</time>
      </trkpt>
      <trkpt lat="41.7484700" lon="2.0319150">
        <ele>680.4</ele>
        <time>2022-09-26T10:14:25Z</time>
      </trkpt>
      <trkpt lat="41.7485120" lon="2.0318650">
        <ele>680.5</ele>
        <time>2022-09-26T10:14:26Z</time>
      </trkpt>
      <trkpt lat="41.7485400" lon="2.0318380">
        <ele>680.5</ele>
        <time>2022-09-26T10:14:27Z</time>
      </trkpt>
      <trkpt lat="41.7485730" lon="2.0318110">
        <ele>680.6</ele>
        <time>2022-09-26T10:14:28Z</time>
      </trkpt>
      <trkpt lat="41.7485850" lon="2.0318000">
        <ele>680.6</ele>
        <time>2022-09-26T10:14:29Z</time>
      </trkpt>
      <trkpt lat="41.7486100" lon="2.0317770">
        <ele>680.6</ele>
        <time>2022-09-26T10:14:30Z</time>
      </trkpt>
      <trkpt lat="41.7486190" lon="2.0317680">
        <ele>680.6</ele>
        <time>2022-09-26T10:14:31Z</time>
      </trkpt>
      <trkpt lat="41.7486460" lon="2.0317370">
        <ele>680.6</ele>
        <time>2022-09-26T10:14:32Z</time>
      </trkpt>
      <trkpt lat="41.7486570" lon="2.0317270">
        <ele>680.6</ele>
        <time>2022-09-26T10:14:33Z</time>
      </trkpt>
      <trkpt lat="41.7486780" lon="2.0317020">
        <ele>680.6</ele>
        <time>2022-09-26T10:14:34Z</time>
      </trkpt>
      <trkpt lat="41.7486970" lon="2.0316620">
        <ele>680.5</ele>
        <time>2022-09-26T10:14:35Z</time>
      </trkpt>
      <trkpt lat="41.7487160" lon="2.0316250">
        <ele>680.4</ele>
        <time>2022-09-26T10:14:36Z</time>
      </trkpt>
      <trkpt lat="41.7487360" lon="2.0315810">
        <ele>680.3</ele>
        <time>2022-09-26T10:14:37Z</time>
      </trkpt>
      <trkpt lat="41.7487600" lon="2.0315340">
        <ele>680.2</ele>
        <time>2022-09-26T10:14:38Z</time>
      </trkpt>
      <trkpt lat="41.7487860" lon="2.0315030">
        <ele>680.2</ele>
        <time>2022-09-26T10:14:39Z</time>
      </trkpt>
      <trkpt lat="41.7488380" lon="2.0314570">
        <ele>680.1</ele>
        <time>2022-09-26T10:14:41Z</time>
      </trkpt>
      <trkpt lat="41.7488760" lon="2.0314320">
        <ele>680.1</ele>
        <time>2022-09-26T10:14:42Z</time>
      </trkpt>
      <trkpt lat="41.7489090" lon="2.0314190">
        <ele>680.1</ele>
        <time>2022-09-26T10:14:43Z</time>
      </trkpt>
      <trkpt lat="41.7489400" lon="2.0314080">
        <ele>680.1</ele>
        <time>2022-09-26T10:14:44Z</time>
      </trkpt>
      <trkpt lat="41.7489680" lon="2.0314040">
        <ele>680.2</ele>
        <time>2022-09-26T10:14:45Z</time>
      </trkpt>
      <trkpt lat="41.7489970" lon="2.0314020">
        <ele>680.2</ele>
        <time>2022-09-26T10:14:46Z</time>
      </trkpt>
      <trkpt lat="41.7490280" lon="2.0313970">
        <ele>680.3</ele>
        <time>2022-09-26T10:14:47Z</time>
      </trkpt>
      <trkpt lat="41.7490570" lon="2.0313910">
        <ele>680.4</ele>
        <time>2022-09-26T10:14:48Z</time>
      </trkpt>
      <trkpt lat="41.7490940" lon="2.0313780">
        <ele>680.5</ele>
        <time>2022-09-26T10:14:49Z</time>
      </trkpt>
      <trkpt lat="41.7491060" lon="2.0313730">
        <ele>680.6</ele>
        <time>2022-09-26T10:14:50Z</time>
      </trkpt>
      <trkpt lat="41.7491330" lon="2.0313650">
        <ele>680.7</ele>
        <time>2022-09-26T10:14:52Z</time>
      </trkpt>
      <trkpt lat="41.7491680" lon="2.0313530">
        <ele>680.9</ele>
        <time>2022-09-26T10:14:53Z</time>
      </trkpt>
      <trkpt lat="41.7492030" lon="2.0313410">
        <ele>681.1</ele>
        <time>2022-09-26T10:14:54Z</time>
      </trkpt>
      <trkpt lat="41.7492140" lon="2.0313370">
        <ele>681.1</ele>
        <time>2022-09-26T10:14:55Z</time>
      </trkpt>
      <trkpt lat="41.7492360" lon="2.0313310">
        <ele>681.2</ele>
        <time>2022-09-26T10:14:56Z</time>
      </trkpt>
      <trkpt lat="41.7492660" lon="2.0313210">
        <ele>681.4</ele>
        <time>2022-09-26T10:14:58Z</time>
      </trkpt>
      <trkpt lat="41.7493050" lon="2.0313040">
        <ele>681.5</ele>
        <time>2022-09-26T10:14:59Z</time>
      </trkpt>
      <trkpt lat="41.7493300" lon="2.0312970">
        <ele>681.6</ele>
        <time>2022-09-26T10:15:00Z</time>
      </trkpt>
      <trkpt lat="41.7493560" lon="2.0312880">
        <ele>681.7</ele>
        <time>2022-09-26T10:15:02Z</time>
      </trkpt>
      <trkpt lat="41.7493870" lon="2.0312850">
        <ele>681.8</ele>
        <time>2022-09-26T10:15:03Z</time>
      </trkpt>
      <trkpt lat="41.7494220" lon="2.0312800">
        <ele>681.9</ele>
        <time>2022-09-26T10:15:04Z</time>
      </trkpt>
      <trkpt lat="41.7494550" lon="2.0312730">
        <ele>682.0</ele>
        <time>2022-09-26T10:15:05Z</time>
      </trkpt>
      <trkpt lat="41.7494670" lon="2.0312690">
        <ele>682.0</ele>
        <time>2022-09-26T10:15:06Z</time>
      </trkpt>
      <trkpt lat="41.7494880" lon="2.0312670">
        <ele>682.1</ele>
        <time>2022-09-26T10:15:07Z</time>
      </trkpt>
      <trkpt lat="41.7495220" lon="2.0312570">
        <ele>682.1</ele>
        <time>2022-09-26T10:15:09Z</time>
      </trkpt>
      <trkpt lat="41.7495490" lon="2.0312470">
        <ele>682.2</ele>
        <time>2022-09-26T10:15:10Z</time>
      </trkpt>
      <trkpt lat="41.7495820" lon="2.0312370">
        <ele>681.8</ele>
        <time>2022-09-26T10:15:11Z</time>
      </trkpt>
      <trkpt lat="41.7495950" lon="2.0312320">
        <ele>681.7</ele>
        <time>2022-09-26T10:15:12Z</time>
      </trkpt>
      <trkpt lat="41.7496320" lon="2.0312120">
        <ele>681.3</ele>
        <time>2022-09-26T10:15:13Z</time>
      </trkpt>
      <trkpt lat="41.7496430" lon="2.0312060">
        <ele>681.1</ele>
        <time>2022-09-26T10:15:14Z</time>
      </trkpt>
      <trkpt lat="41.7496680" lon="2.0311940">
        <ele>680.8</ele>
        <time>2022-09-26T10:15:15Z</time>
      </trkpt>
      <trkpt lat="41.7497160" lon="2.0311730">
        <ele>680.2</ele>
        <time>2022-09-26T10:15:17Z</time>
      </trkpt>
      <trkpt lat="41.7497510" lon="2.0311560">
        <ele>679.7</ele>
        <time>2022-09-26T10:15:18Z</time>
      </trkpt>
      <trkpt lat="41.7498040" lon="2.0311310">
        <ele>678.9</ele>
        <time>2022-09-26T10:15:20Z</time>
      </trkpt>
      <trkpt lat="41.7498450" lon="2.0311140">
        <ele>678.4</ele>
        <time>2022-09-26T10:15:21Z</time>
      </trkpt>
      <trkpt lat="41.7498880" lon="2.0310910">
        <ele>677.8</ele>
        <time>2022-09-26T10:15:22Z</time>
      </trkpt>
      <trkpt lat="41.7499220" lon="2.0310710">
        <ele>677.3</ele>
        <time>2022-09-26T10:15:23Z</time>
      </trkpt>
      <trkpt lat="41.7499590" lon="2.0310460">
        <ele>676.7</ele>
        <time>2022-09-26T10:15:24Z</time>
      </trkpt>
      <trkpt lat="41.7500020" lon="2.0310100">
        <ele>676.1</ele>
        <time>2022-09-26T10:15:25Z</time>
      </trkpt>
      <trkpt lat="41.7500300" lon="2.0309870">
        <ele>675.6</ele>
        <time>2022-09-26T10:15:26Z</time>
      </trkpt>
      <trkpt lat="41.7500580" lon="2.0309590">
        <ele>675.2</ele>
        <time>2022-09-26T10:15:28Z</time>
      </trkpt>
      <trkpt lat="41.7500780" lon="2.0309200">
        <ele>674.9</ele>
        <time>2022-09-26T10:15:29Z</time>
      </trkpt>
      <trkpt lat="41.7500820" lon="2.0308770">
        <ele>674.5</ele>
        <time>2022-09-26T10:15:30Z</time>
      </trkpt>
      <trkpt lat="41.7500840" lon="2.0308670">
        <ele>674.5</ele>
        <time>2022-09-26T10:15:31Z</time>
      </trkpt>
      <trkpt lat="41.7501000" lon="2.0308350">
        <ele>674.1</ele>
        <time>2022-09-26T10:15:33Z</time>
      </trkpt>
      <trkpt lat="41.7501090" lon="2.0308270">
        <ele>674.0</ele>
        <time>2022-09-26T10:15:34Z</time>
      </trkpt>
      <trkpt lat="41.7501380" lon="2.0308080">
        <ele>673.7</ele>
        <time>2022-09-26T10:15:35Z</time>
      </trkpt>
      <trkpt lat="41.7501680" lon="2.0307960">
        <ele>673.5</ele>
        <time>2022-09-26T10:15:36Z</time>
      </trkpt>
      <trkpt lat="41.7502200" lon="2.0308040">
        <ele>673.0</ele>
        <time>2022-09-26T10:15:38Z</time>
      </trkpt>
      <trkpt lat="41.7502710" lon="2.0308410">
        <ele>672.5</ele>
        <time>2022-09-26T10:15:39Z</time>
      </trkpt>
      <trkpt lat="41.7503050" lon="2.0308590">
        <ele>672.2</ele>
        <time>2022-09-26T10:15:40Z</time>
      </trkpt>
      <trkpt lat="41.7503470" lon="2.0308690">
        <ele>671.8</ele>
        <time>2022-09-26T10:15:41Z</time>
      </trkpt>
      <trkpt lat="41.7504020" lon="2.0308710">
        <ele>671.2</ele>
        <time>2022-09-26T10:15:43Z</time>
      </trkpt>
      <trkpt lat="41.7504560" lon="2.0308760">
        <ele>670.7</ele>
        <time>2022-09-26T10:15:44Z</time>
      </trkpt>
      <trkpt lat="41.7505010" lon="2.0308850">
        <ele>670.3</ele>
        <time>2022-09-26T10:15:45Z</time>
      </trkpt>
      <trkpt lat="41.7505690" lon="2.0308940">
        <ele>669.8</ele>
        <time>2022-09-26T10:15:47Z</time>
      </trkpt>
      <trkpt lat="41.7506250" lon="2.0308950">
        <ele>669.4</ele>
        <time>2022-09-26T10:15:48Z</time>
      </trkpt>
      <trkpt lat="41.7506920" lon="2.0308630">
        <ele>669.0</ele>
        <time>2022-09-26T10:15:49Z</time>
      </trkpt>
      <trkpt lat="41.7507380" lon="2.0308350">
        <ele>668.7</ele>
        <time>2022-09-26T10:15:50Z</time>
      </trkpt>
      <trkpt lat="41.7507840" lon="2.0308050">
        <ele>668.3</ele>
        <time>2022-09-26T10:15:51Z</time>
      </trkpt>
      <trkpt lat="41.7508300" lon="2.0307770">
        <ele>668.0</ele>
        <time>2022-09-26T10:15:52Z</time>
      </trkpt>
      <trkpt lat="41.7508810" lon="2.0307660">
        <ele>667.7</ele>
        <time>2022-09-26T10:15:53Z</time>
      </trkpt>
      <trkpt lat="41.7509330" lon="2.0307620">
        <ele>667.5</ele>
        <time>2022-09-26T10:15:54Z</time>
      </trkpt>
      <trkpt lat="41.7509860" lon="2.0307600">
        <ele>667.2</ele>
        <time>2022-09-26T10:15:55Z</time>
      </trkpt>
      <trkpt lat="41.7510370" lon="2.0307540">
        <ele>667.0</ele>
        <time>2022-09-26T10:15:56Z</time>
      </trkpt>
      <trkpt lat="41.7510900" lon="2.0307460">
        <ele>666.9</ele>
        <time>2022-09-26T10:15:57Z</time>
      </trkpt>
      <trkpt lat="41.7511430" lon="2.0307430">
        <ele>666.8</ele>
        <time>2022-09-26T10:15:58Z</time>
      </trkpt>
      <trkpt lat="41.7511970" lon="2.0307430">
        <ele>666.7</ele>
        <time>2022-09-26T10:15:59Z</time>
      </trkpt>
      <trkpt lat="41.7512470" lon="2.0307460">
        <ele>666.7</ele>
        <time>2022-09-26T10:16:00Z</time>
      </trkpt>
      <trkpt lat="41.7512890" lon="2.0307430">
        <ele>666.7</ele>
        <time>2022-09-26T10:16:01Z</time>
      </trkpt>
      <trkpt lat="41.7513280" lon="2.0307170">
        <ele>666.7</ele>
        <time>2022-09-26T10:16:02Z</time>
      </trkpt>
      <trkpt lat="41.7513420" lon="2.0307030">
        <ele>666.7</ele>
        <time>2022-09-26T10:16:03Z</time>
      </trkpt>
      <trkpt lat="41.7513690" lon="2.0306620">
        <ele>666.8</ele>
        <time>2022-09-26T10:16:04Z</time>
      </trkpt>
      <trkpt lat="41.7513960" lon="2.0306240">
        <ele>666.8</ele>
        <time>2022-09-26T10:16:05Z</time>
      </trkpt>
      <trkpt lat="41.7514240" lon="2.0305930">
        <ele>666.8</ele>
        <time>2022-09-26T10:16:06Z</time>
      </trkpt>
      <trkpt lat="41.7514510" lon="2.0305730">
        <ele>666.8</ele>
        <time>2022-09-26T10:16:07Z</time>
      </trkpt>
      <trkpt lat="41.7514730" lon="2.0305960">
        <ele>666.9</ele>
        <time>2022-09-26T10:16:09Z</time>
      </trkpt>
      <trkpt lat="41.7515030" lon="2.0305990">
        <ele>666.9</ele>
        <time>2022-09-26T10:16:10Z</time>
      </trkpt>
      <trkpt lat="41.7515310" lon="2.0306160">
        <ele>666.9</ele>
        <time>2022-09-26T10:16:11Z</time>
      </trkpt>
      <trkpt lat="41.7515370" lon="2.0306540">
        <ele>667.0</ele>
        <time>2022-09-26T10:16:12Z</time>
      </trkpt>
      <trkpt lat="41.7515430" lon="2.0306980">
        <ele>667.0</ele>
        <time>2022-09-26T10:16:13Z</time>
      </trkpt>
      <trkpt lat="41.7515530" lon="2.0307320">
        <ele>667.1</ele>
        <time>2022-09-26T10:16:14Z</time>
      </trkpt>
      <trkpt lat="41.7515780" lon="2.0307610">
        <ele>667.2</ele>
        <time>2022-09-26T10:16:15Z</time>
      </trkpt>
      <trkpt lat="41.7516100" lon="2.0307740">
        <ele>667.3</ele>
        <time>2022-09-26T10:16:16Z</time>
      </trkpt>
      <trkpt lat="41.7516450" lon="2.0307710">
        <ele>667.4</ele>
        <time>2022-09-26T10:16:17Z</time>
      </trkpt>
      <trkpt lat="41.7516770" lon="2.0307620">
        <ele>667.5</ele>
        <time>2022-09-26T10:16:18Z</time>
      </trkpt>
      <trkpt lat="41.7517110" lon="2.0307300">
        <ele>667.6</ele>
        <time>2022-09-26T10:16:20Z</time>
      </trkpt>
      <trkpt lat="41.7517350" lon="2.0307050">
        <ele>667.7</ele>
        <time>2022-09-26T10:16:21Z</time>
      </trkpt>
      <trkpt lat="41.7517630" lon="2.0306930">
        <ele>666.7</ele>
        <time>2022-09-26T10:16:22Z</time>
      </trkpt>
      <trkpt lat="41.7517990" lon="2.0306830">
        <ele>665.2</ele>
        <time>2022-09-26T10:16:23Z</time>
      </trkpt>
      <trkpt lat="41.7518290" lon="2.0306840">
        <ele>663.9</ele>
        <time>2022-09-26T10:16:24Z</time>
      </trkpt>
      <trkpt lat="41.7518540" lon="2.0306890">
        <ele>662.9</ele>
        <time>2022-09-26T10:16:25Z</time>
      </trkpt>
      <trkpt lat="41.7518790" lon="2.0307040">
        <ele>661.7</ele>
        <time>2022-09-26T10:16:27Z</time>
      </trkpt>
      <trkpt lat="41.7519110" lon="2.0307360">
        <ele>660.0</ele>
        <time>2022-09-26T10:16:28Z</time>
      </trkpt>
      <trkpt lat="41.7519230" lon="2.0307520">
        <ele>659.3</ele>
        <time>2022-09-26T10:16:29Z</time>
      </trkpt>
      <trkpt lat="41.7519270" lon="2.0307780">
        <ele>658.5</ele>
        <time>2022-09-26T10:16:30Z</time>
      </trkpt>
      <trkpt lat="41.7519250" lon="2.0307990">
        <ele>657.8</ele>
        <time>2022-09-26T10:16:31Z</time>
      </trkpt>
      <trkpt lat="41.7519240" lon="2.0308170">
        <ele>657.2</ele>
        <time>2022-09-26T10:16:32Z</time>
      </trkpt>
      <trkpt lat="41.7519250" lon="2.0308220">
        <ele>657.1</ele>
        <time>2022-09-26T10:16:34Z</time>
      </trkpt>
      <trkpt lat="41.7519270" lon="2.0308230">
        <ele>657.0</ele>
        <time>2022-09-26T10:16:35Z</time>
      </trkpt>
      <trkpt lat="41.7519270" lon="2.0308220">
        <ele>656.9</ele>
        <time>2022-09-26T10:16:36Z</time>
      </trkpt>
      <trkpt lat="41.7519270" lon="2.0308200">
        <ele>656.9</ele>
        <time>2022-09-26T10:16:37Z</time>
      </trkpt>
      <trkpt lat="41.7519270" lon="2.0308180">
        <ele>656.8</ele>
        <time>2022-09-26T10:16:38Z</time>
      </trkpt>
      <trkpt lat="41.7519270" lon="2.0308160">
        <ele>656.7</ele>
        <time>2022-09-26T10:16:39Z</time>
      </trkpt>
      <trkpt lat="41.7519280" lon="2.0308140">
        <ele>656.7</ele>
        <time>2022-09-26T10:16:41Z</time>
      </trkpt>
      <trkpt lat="41.7519290" lon="2.0308130">
        <ele>656.6</ele>
        <time>2022-09-26T10:16:42Z</time>
      </trkpt>
      <trkpt lat="41.7519290" lon="2.0308130">
        <ele>656.6</ele>
        <time>2022-09-26T10:16:43Z</time>
      </trkpt>
      <trkpt lat="41.7519290" lon="2.0308140">
        <ele>656.6</ele>
        <time>2022-09-26T10:16:44Z</time>
      </trkpt>
      <trkpt lat="41.7519510" lon="2.0308150">
        <ele>655.6</ele>
        <time>2022-09-26T10:16:54Z</time>
      </trkpt>
      <trkpt lat="41.7519540" lon="2.0308130">
        <ele>655.5</ele>
        <time>2022-09-26T10:16:55Z</time>
      </trkpt>
      <trkpt lat="41.7519560" lon="2.0308130">
        <ele>655.4</ele>
        <time>2022-09-26T10:16:56Z</time>
      </trkpt>
      <trkpt lat="41.7519580" lon="2.0308130">
        <ele>655.3</ele>
        <time>2022-09-26T10:16:57Z</time>
      </trkpt>
      <trkpt lat="41.7519590" lon="2.0308140">
        <ele>655.2</ele>
        <time>2022-09-26T10:16:58Z</time>
      </trkpt>
      <trkpt lat="41.7519610" lon="2.0308130">
        <ele>655.1</ele>
        <time>2022-09-26T10:16:59Z</time>
      </trkpt>
      <trkpt lat="41.7519620" lon="2.0308120">
        <ele>655.1</ele>
        <time>2022-09-26T10:17:00Z</time>
      </trkpt>
      <trkpt lat="41.7519640" lon="2.0308110">
        <ele>655.0</ele>
        <time>2022-09-26T10:17:01Z</time>
      </trkpt>
      <trkpt lat="41.7519660" lon="2.0308110">
        <ele>654.9</ele>
        <time>2022-09-26T10:17:02Z</time>
      </trkpt>
      <trkpt lat="41.7519740" lon="2.0308120">
        <ele>654.6</ele>
        <time>2022-09-26T10:17:04Z</time>
      </trkpt>
      <trkpt lat="41.7519810" lon="2.0308120">
        <ele>654.2</ele>
        <time>2022-09-26T10:17:05Z</time>
      </trkpt>
      <trkpt lat="41.7519880" lon="2.0308120">
        <ele>653.9</ele>
        <time>2022-09-26T10:17:06Z</time>
      </trkpt>
      <trkpt lat="41.7519910" lon="2.0308110">
        <ele>653.8</ele>
        <time>2022-09-26T10:17:07Z</time>
      </trkpt>
      <trkpt lat="41.7519920" lon="2.0308110">
        <ele>653.8</ele>
        <time>2022-09-26T10:17:08Z</time>
      </trkpt>
      <trkpt lat="41.7519970" lon="2.0308100">
        <ele>653.5</ele>
        <time>2022-09-26T10:17:09Z</time>
      </trkpt>
      <trkpt lat="41.7520080" lon="2.0308070">
        <ele>653.0</ele>
        <time>2022-09-26T10:17:10Z</time>
      </trkpt>
      <trkpt lat="41.7520190" lon="2.0308020">
        <ele>652.5</ele>
        <time>2022-09-26T10:17:11Z</time>
      </trkpt>
      <trkpt lat="41.7520260" lon="2.0307990">
        <ele>652.1</ele>
        <time>2022-09-26T10:17:12Z</time>
      </trkpt>
      <trkpt lat="41.7520300" lon="2.0308030">
        <ele>651.9</ele>
        <time>2022-09-26T10:17:13Z</time>
      </trkpt>
      <trkpt lat="41.7520330" lon="2.0308070">
        <ele>651.7</ele>
        <time>2022-09-26T10:17:15Z</time>
      </trkpt>
      <trkpt lat="41.7520350" lon="2.0308090">
        <ele>651.6</ele>
        <time>2022-09-26T10:17:16Z</time>
      </trkpt>
      <trkpt lat="41.7520370" lon="2.0308090">
        <ele>651.5</ele>
        <time>2022-09-26T10:17:17Z</time>
      </trkpt>
      <trkpt lat="41.7520390" lon="2.0308100">
        <ele>651.4</ele>
        <time>2022-09-26T10:17:18Z</time>
      </trkpt>
      <trkpt lat="41.7520400" lon="2.0308110">
        <ele>651.3</ele>
        <time>2022-09-26T10:17:19Z</time>
      </trkpt>
      <trkpt lat="41.7520420" lon="2.0308110">
        <ele>651.2</ele>
        <time>2022-09-26T10:17:21Z</time>
      </trkpt>
      <trkpt lat="41.7520440" lon="2.0308110">
        <ele>651.1</ele>
        <time>2022-09-26T10:17:22Z</time>
      </trkpt>
      <trkpt lat="41.7520700" lon="2.0308200">
        <ele>649.9</ele>
        <time>2022-09-26T10:17:43Z</time>
      </trkpt>
      <trkpt lat="41.7520830" lon="2.0308230">
        <ele>649.3</ele>
        <time>2022-09-26T10:17:44Z</time>
      </trkpt>
      <trkpt lat="41.7520890" lon="2.0308240">
        <ele>649.0</ele>
        <time>2022-09-26T10:17:45Z</time>
      </trkpt>
      <trkpt lat="41.7520960" lon="2.0308260">
        <ele>648.6</ele>
        <time>2022-09-26T10:17:46Z</time>
      </trkpt>
      <trkpt lat="41.7521010" lon="2.0308260">
        <ele>648.4</ele>
        <time>2022-09-26T10:17:47Z</time>
      </trkpt>
      <trkpt lat="41.7521070" lon="2.0308270">
        <ele>648.1</ele>
        <time>2022-09-26T10:17:48Z</time>
      </trkpt>
      <trkpt lat="41.7521120" lon="2.0308260">
        <ele>647.2</ele>
        <time>2022-09-26T10:17:49Z</time>
      </trkpt>
      <trkpt lat="41.7521160" lon="2.0308260">
        <ele>647.3</ele>
        <time>2022-09-26T10:17:50Z</time>
      </trkpt>
      <trkpt lat="41.7521190" lon="2.0308260">
        <ele>647.3</ele>
        <time>2022-09-26T10:17:51Z</time>
      </trkpt>
      <trkpt lat="41.7521210" lon="2.0308260">
        <ele>647.4</ele>
        <time>2022-09-26T10:17:52Z</time>
      </trkpt>
      <trkpt lat="41.7521230" lon="2.0308260">
        <ele>647.5</ele>
        <time>2022-09-26T10:17:53Z</time>
      </trkpt>
      <trkpt lat="41.7521240" lon="2.0308260">
        <ele>647.5</ele>
        <time>2022-09-26T10:17:54Z</time>
      </trkpt>
      <trkpt lat="41.7521260" lon="2.0308260">
        <ele>647.5</ele>
        <time>2022-09-26T10:17:56Z</time>
      </trkpt>
      <trkpt lat="41.7521260" lon="2.0308260">
        <ele>647.5</ele>
        <time>2022-09-26T10:17:57Z</time>
      </trkpt>
      <trkpt lat="41.7521260" lon="2.0308260">
        <ele>647.5</ele>
        <time>2022-09-26T10:17:58Z</time>
      </trkpt>
      <trkpt lat="41.7521270" lon="2.0308260">
        <ele>647.6</ele>
        <time>2022-09-26T10:17:59Z</time>
      </trkpt>
      <trkpt lat="41.7521270" lon="2.0308270">
        <ele>647.6</ele>
        <time>2022-09-26T10:18:00Z</time>
      </trkpt>
      <trkpt lat="41.7521280" lon="2.0308260">
        <ele>647.6</ele>
        <time>2022-09-26T10:18:01Z</time>
      </trkpt>
      <trkpt lat="41.7521290" lon="2.0308240">
        <ele>647.7</ele>
        <time>2022-09-26T10:18:02Z</time>
      </trkpt>
      <trkpt lat="41.7521330" lon="2.0308180">
        <ele>647.8</ele>
        <time>2022-09-26T10:18:03Z</time>
      </trkpt>
      <trkpt lat="41.7521410" lon="2.0308080">
        <ele>648.1</ele>
        <time>2022-09-26T10:18:04Z</time>
      </trkpt>
      <trkpt lat="41.7521490" lon="2.0308020">
        <ele>648.3</ele>
        <time>2022-09-26T10:18:05Z</time>
      </trkpt>
      <trkpt lat="41.7521640" lon="2.0307970">
        <ele>648.7</ele>
        <time>2022-09-26T10:18:07Z</time>
      </trkpt>
      <trkpt lat="41.7521770" lon="2.0307930">
        <ele>649.1</ele>
        <time>2022-09-26T10:18:08Z</time>
      </trkpt>
      <trkpt lat="41.7521910" lon="2.0307900">
        <ele>649.5</ele>
        <time>2022-09-26T10:18:09Z</time>
      </trkpt>
      <trkpt lat="41.7522000" lon="2.0307880">
        <ele>649.7</ele>
        <time>2022-09-26T10:18:11Z</time>
      </trkpt>
      <trkpt lat="41.7522080" lon="2.0307860">
        <ele>649.9</ele>
        <time>2022-09-26T10:18:12Z</time>
      </trkpt>
      <trkpt lat="41.7522160" lon="2.0307840">
        <ele>650.1</ele>
        <time>2022-09-26T10:18:13Z</time>
      </trkpt>
      <trkpt lat="41.7522280" lon="2.0307880">
        <ele>650.4</ele>
        <time>2022-09-26T10:18:15Z</time>
      </trkpt>
      <trkpt lat="41.7522310" lon="2.0307900">
        <ele>650.5</ele>
        <time>2022-09-26T10:18:16Z</time>
      </trkpt>
      <trkpt lat="41.7522340" lon="2.0307910">
        <ele>650.6</ele>
        <time>2022-09-26T10:18:17Z</time>
      </trkpt>
      <trkpt lat="41.7522350" lon="2.0307920">
        <ele>650.6</ele>
        <time>2022-09-26T10:18:18Z</time>
      </trkpt>
      <trkpt lat="41.7522370" lon="2.0307930">
        <ele>650.7</ele>
        <time>2022-09-26T10:18:19Z</time>
      </trkpt>
      <trkpt lat="41.7522410" lon="2.0307950">
        <ele>650.8</ele>
        <time>2022-09-26T10:18:21Z</time>
      </trkpt>
      <trkpt lat="41.7522420" lon="2.0307950">
        <ele>650.8</ele>
        <time>2022-09-26T10:18:22Z</time>
      </trkpt>
      <trkpt lat="41.7522420" lon="2.0307960">
        <ele>650.8</ele>
        <time>2022-09-26T10:18:23Z</time>
      </trkpt>
      <trkpt lat="41.7522700" lon="2.0307990">
        <ele>651.5</ele>
        <time>2022-09-26T10:18:43Z</time>
      </trkpt>
      <trkpt lat="41.7522740" lon="2.0307970">
        <ele>651.6</ele>
        <time>2022-09-26T10:18:44Z</time>
      </trkpt>
      <trkpt lat="41.7522750" lon="2.0307950">
        <ele>651.7</ele>
        <time>2022-09-26T10:18:45Z</time>
      </trkpt>
      <trkpt lat="41.7522680" lon="2.0307930">
        <ele>651.9</ele>
        <time>2022-09-26T10:18:46Z</time>
      </trkpt>
      <trkpt lat="41.7522690" lon="2.0307910">
        <ele>651.9</ele>
        <time>2022-09-26T10:18:47Z</time>
      </trkpt>
      <trkpt lat="41.7522710" lon="2.0307910">
        <ele>652.0</ele>
        <time>2022-09-26T10:18:48Z</time>
      </trkpt>
      <trkpt lat="41.7522720" lon="2.0307900">
        <ele>652.0</ele>
        <time>2022-09-26T10:18:49Z</time>
      </trkpt>
      <trkpt lat="41.7522730" lon="2.0307890">
        <ele>652.0</ele>
        <time>2022-09-26T10:18:50Z</time>
      </trkpt>
      <trkpt lat="41.7522730" lon="2.0307890">
        <ele>652.0</ele>
        <time>2022-09-26T10:18:51Z</time>
      </trkpt>
      <trkpt lat="41.7522740" lon="2.0307890">
        <ele>652.1</ele>
        <time>2022-09-26T10:18:52Z</time>
      </trkpt>
      <trkpt lat="41.7522750" lon="2.0307890">
        <ele>652.1</ele>
        <time>2022-09-26T10:18:53Z</time>
      </trkpt>
      <trkpt lat="41.7522750" lon="2.0307900">
        <ele>652.1</ele>
        <time>2022-09-26T10:18:54Z</time>
      </trkpt>
      <trkpt lat="41.7522720" lon="2.0308180">
        <ele>652.6</ele>
        <time>2022-09-26T10:20:53Z</time>
      </trkpt>
      <trkpt lat="41.7522500" lon="2.0308320">
        <ele>653.2</ele>
        <time>2022-09-26T10:20:55Z</time>
      </trkpt>
      <trkpt lat="41.7522420" lon="2.0308360">
        <ele>653.5</ele>
        <time>2022-09-26T10:20:56Z</time>
      </trkpt>
      <trkpt lat="41.7522390" lon="2.0308360">
        <ele>653.5</ele>
        <time>2022-09-26T10:20:57Z</time>
      </trkpt>
      <trkpt lat="41.7522370" lon="2.0308350">
        <ele>653.6</ele>
        <time>2022-09-26T10:20:58Z</time>
      </trkpt>
      <trkpt lat="41.7522310" lon="2.0308360">
        <ele>653.7</ele>
        <time>2022-09-26T10:20:59Z</time>
      </trkpt>
      <trkpt lat="41.7522240" lon="2.0308390">
        <ele>653.9</ele>
        <time>2022-09-26T10:21:00Z</time>
      </trkpt>
      <trkpt lat="41.7522180" lon="2.0308420">
        <ele>654.1</ele>
        <time>2022-09-26T10:21:01Z</time>
      </trkpt>
      <trkpt lat="41.7522150" lon="2.0308440">
        <ele>654.2</ele>
        <time>2022-09-26T10:21:02Z</time>
      </trkpt>
      <trkpt lat="41.7522120" lon="2.0308440">
        <ele>654.2</ele>
        <time>2022-09-26T10:21:03Z</time>
      </trkpt>
      <trkpt lat="41.7522080" lon="2.0308440">
        <ele>654.3</ele>
        <time>2022-09-26T10:21:04Z</time>
      </trkpt>
      <trkpt lat="41.7522050" lon="2.0308460">
        <ele>654.4</ele>
        <time>2022-09-26T10:21:05Z</time>
      </trkpt>
      <trkpt lat="41.7522040" lon="2.0308470">
        <ele>654.4</ele>
        <time>2022-09-26T10:21:06Z</time>
      </trkpt>
      <trkpt lat="41.7522040" lon="2.0308490">
        <ele>654.5</ele>
        <time>2022-09-26T10:21:07Z</time>
      </trkpt>
      <trkpt lat="41.7522040" lon="2.0308520">
        <ele>654.5</ele>
        <time>2022-09-26T10:21:08Z</time>
      </trkpt>
      <trkpt lat="41.7522080" lon="2.0308560">
        <ele>654.7</ele>
        <time>2022-09-26T10:21:10Z</time>
      </trkpt>
      <trkpt lat="41.7522050" lon="2.0308590">
        <ele>654.7</ele>
        <time>2022-09-26T10:21:11Z</time>
      </trkpt>
      <trkpt lat="41.7521980" lon="2.0308610">
        <ele>654.9</ele>
        <time>2022-09-26T10:21:12Z</time>
      </trkpt>
      <trkpt lat="41.7521860" lon="2.0308600">
        <ele>655.2</ele>
        <time>2022-09-26T10:21:13Z</time>
      </trkpt>
      <trkpt lat="41.7521710" lon="2.0308570">
        <ele>655.6</ele>
        <time>2022-09-26T10:21:14Z</time>
      </trkpt>
      <trkpt lat="41.7521670" lon="2.0308530">
        <ele>655.7</ele>
        <time>2022-09-26T10:21:15Z</time>
      </trkpt>
      <trkpt lat="41.7521640" lon="2.0308500">
        <ele>655.8</ele>
        <time>2022-09-26T10:21:16Z</time>
      </trkpt>
      <trkpt lat="41.7521600" lon="2.0308460">
        <ele>655.9</ele>
        <time>2022-09-26T10:21:17Z</time>
      </trkpt>
      <trkpt lat="41.7521480" lon="2.0308460">
        <ele>656.2</ele>
        <time>2022-09-26T10:21:18Z</time>
      </trkpt>
      <trkpt lat="41.7521330" lon="2.0308460">
        <ele>656.5</ele>
        <time>2022-09-26T10:21:20Z</time>
      </trkpt>
      <trkpt lat="41.7521240" lon="2.0308470">
        <ele>656.7</ele>
        <time>2022-09-26T10:21:21Z</time>
      </trkpt>
      <trkpt lat="41.7521170" lon="2.0308480">
        <ele>656.9</ele>
        <time>2022-09-26T10:21:22Z</time>
      </trkpt>
      <trkpt lat="41.7521140" lon="2.0308500">
        <ele>657.0</ele>
        <time>2022-09-26T10:21:23Z</time>
      </trkpt>
      <trkpt lat="41.7520970" lon="2.0308530">
        <ele>657.4</ele>
        <time>2022-09-26T10:21:24Z</time>
      </trkpt>
      <trkpt lat="41.7520770" lon="2.0308500">
        <ele>657.9</ele>
        <time>2022-09-26T10:21:26Z</time>
      </trkpt>
      <trkpt lat="41.7520690" lon="2.0308480">
        <ele>658.1</ele>
        <time>2022-09-26T10:21:27Z</time>
      </trkpt>
      <trkpt lat="41.7520610" lon="2.0308450">
        <ele>658.3</ele>
        <time>2022-09-26T10:21:28Z</time>
      </trkpt>
      <trkpt lat="41.7520480" lon="2.0308390">
        <ele>658.6</ele>
        <time>2022-09-26T10:21:29Z</time>
      </trkpt>
      <trkpt lat="41.7520350" lon="2.0308310">
        <ele>658.9</ele>
        <time>2022-09-26T10:21:30Z</time>
      </trkpt>
      <trkpt lat="41.7520220" lon="2.0308280">
        <ele>659.2</ele>
        <time>2022-09-26T10:21:32Z</time>
      </trkpt>
      <trkpt lat="41.7520100" lon="2.0308290">
        <ele>659.5</ele>
        <time>2022-09-26T10:21:33Z</time>
      </trkpt>
      <trkpt lat="41.7520010" lon="2.0308330">
        <ele>659.7</ele>
        <time>2022-09-26T10:21:34Z</time>
      </trkpt>
      <trkpt lat="41.7519900" lon="2.0308370">
        <ele>660.0</ele>
        <time>2022-09-26T10:21:35Z</time>
      </trkpt>
      <trkpt lat="41.7519810" lon="2.0308390">
        <ele>660.2</ele>
        <time>2022-09-26T10:21:36Z</time>
      </trkpt>
      <trkpt lat="41.7519680" lon="2.0308350">
        <ele>660.5</ele>
        <time>2022-09-26T10:21:37Z</time>
      </trkpt>
      <trkpt lat="41.7519600" lon="2.0308220">
        <ele>660.8</ele>
        <time>2022-09-26T10:21:39Z</time>
      </trkpt>
      <trkpt lat="41.7519530" lon="2.0308100">
        <ele>661.0</ele>
        <time>2022-09-26T10:21:40Z</time>
      </trkpt>
      <trkpt lat="41.7519460" lon="2.0307990">
        <ele>661.3</ele>
        <time>2022-09-26T10:21:41Z</time>
      </trkpt>
      <trkpt lat="41.7519370" lon="2.0307900">
        <ele>661.5</ele>
        <time>2022-09-26T10:21:42Z</time>
      </trkpt>
      <trkpt lat="41.7519280" lon="2.0307810">
        <ele>661.8</ele>
        <time>2022-09-26T10:21:43Z</time>
      </trkpt>
      <trkpt lat="41.7519200" lon="2.0307620">
        <ele>662.2</ele>
        <time>2022-09-26T10:21:45Z</time>
      </trkpt>
      <trkpt lat="41.7519220" lon="2.0307540">
        <ele>662.3</ele>
        <time>2022-09-26T10:21:46Z</time>
      </trkpt>
      <trkpt lat="41.7519170" lon="2.0307510">
        <ele>662.4</ele>
        <time>2022-09-26T10:21:47Z</time>
      </trkpt>
      <trkpt lat="41.7519060" lon="2.0307520">
        <ele>662.7</ele>
        <time>2022-09-26T10:21:48Z</time>
      </trkpt>
      <trkpt lat="41.7518930" lon="2.0307480">
        <ele>663.0</ele>
        <time>2022-09-26T10:21:50Z</time>
      </trkpt>
      <trkpt lat="41.7518760" lon="2.0307410">
        <ele>663.4</ele>
        <time>2022-09-26T10:21:51Z</time>
      </trkpt>
      <trkpt lat="41.7518580" lon="2.0307350">
        <ele>663.8</ele>
        <time>2022-09-26T10:21:52Z</time>
      </trkpt>
      <trkpt lat="41.7518280" lon="2.0307180">
        <ele>664.6</ele>
        <time>2022-09-26T10:21:53Z</time>
      </trkpt>
      <trkpt lat="41.7518040" lon="2.0307060">
        <ele>665.2</ele>
        <time>2022-09-26T10:21:54Z</time>
      </trkpt>
      <trkpt lat="41.7517660" lon="2.0307120">
        <ele>666.0</ele>
        <time>2022-09-26T10:21:56Z</time>
      </trkpt>
      <trkpt lat="41.7517220" lon="2.0307510">
        <ele>667.7</ele>
        <time>2022-09-26T10:21:57Z</time>
      </trkpt>
      <trkpt lat="41.7516870" lon="2.0307600">
        <ele>667.6</ele>
        <time>2022-09-26T10:21:58Z</time>
      </trkpt>
      <trkpt lat="41.7516420" lon="2.0307510">
        <ele>667.4</ele>
        <time>2022-09-26T10:21:59Z</time>
      </trkpt>
      <trkpt lat="41.7515950" lon="2.0307310">
        <ele>667.3</ele>
        <time>2022-09-26T10:22:00Z</time>
      </trkpt>
      <trkpt lat="41.7515590" lon="2.0307040">
        <ele>667.2</ele>
        <time>2022-09-26T10:22:01Z</time>
      </trkpt>
      <trkpt lat="41.7515480" lon="2.0306590">
        <ele>667.1</ele>
        <time>2022-09-26T10:22:02Z</time>
      </trkpt>
      <trkpt lat="41.7515480" lon="2.0306410">
        <ele>667.0</ele>
        <time>2022-09-26T10:22:03Z</time>
      </trkpt>
      <trkpt lat="41.7515400" lon="2.0305890">
        <ele>667.0</ele>
        <time>2022-09-26T10:22:04Z</time>
      </trkpt>
      <trkpt lat="41.7515370" lon="2.0305720">
        <ele>667.0</ele>
        <time>2022-09-26T10:22:05Z</time>
      </trkpt>
      <trkpt lat="41.7515110" lon="2.0305480">
        <ele>666.9</ele>
        <time>2022-09-26T10:22:07Z</time>
      </trkpt>
      <trkpt lat="41.7514710" lon="2.0305380">
        <ele>666.9</ele>
        <time>2022-09-26T10:22:08Z</time>
      </trkpt>
      <trkpt lat="41.7514330" lon="2.0305740">
        <ele>666.8</ele>
        <time>2022-09-26T10:22:09Z</time>
      </trkpt>
      <trkpt lat="41.7514080" lon="2.0306170">
        <ele>666.8</ele>
        <time>2022-09-26T10:22:10Z</time>
      </trkpt>
      <trkpt lat="41.7513780" lon="2.0306470">
        <ele>666.8</ele>
        <time>2022-09-26T10:22:11Z</time>
      </trkpt>
      <trkpt lat="41.7513400" lon="2.0306880">
        <ele>666.7</ele>
        <time>2022-09-26T10:22:13Z</time>
      </trkpt>
      <trkpt lat="41.7513040" lon="2.0307340">
        <ele>666.7</ele>
        <time>2022-09-26T10:22:14Z</time>
      </trkpt>
      <trkpt lat="41.7512670" lon="2.0307610">
        <ele>666.7</ele>
        <time>2022-09-26T10:22:15Z</time>
      </trkpt>
      <trkpt lat="41.7512340" lon="2.0307760">
        <ele>666.7</ele>
        <time>2022-09-26T10:22:16Z</time>
      </trkpt>
      <trkpt lat="41.7511970" lon="2.0307810">
        <ele>666.7</ele>
        <time>2022-09-26T10:22:17Z</time>
      </trkpt>
      <trkpt lat="41.7511490" lon="2.0307720">
        <ele>666.8</ele>
        <time>2022-09-26T10:22:19Z</time>
      </trkpt>
      <trkpt lat="41.7511140" lon="2.0307690">
        <ele>666.8</ele>
        <time>2022-09-26T10:22:20Z</time>
      </trkpt>
      <trkpt lat="41.7510610" lon="2.0307650">
        <ele>666.9</ele>
        <time>2022-09-26T10:22:21Z</time>
      </trkpt>
      <trkpt lat="41.7510230" lon="2.0307740">
        <ele>667.1</ele>
        <time>2022-09-26T10:22:22Z</time>
      </trkpt>
      <trkpt lat="41.7509870" lon="2.0307840">
        <ele>667.2</ele>
        <time>2022-09-26T10:22:24Z</time>
      </trkpt>
      <trkpt lat="41.7509520" lon="2.0307870">
        <ele>667.3</ele>
        <time>2022-09-26T10:22:25Z</time>
      </trkpt>
      <trkpt lat="41.7509100" lon="2.0307870">
        <ele>667.5</ele>
        <time>2022-09-26T10:22:26Z</time>
      </trkpt>
      <trkpt lat="41.7508860" lon="2.0307850">
        <ele>667.7</ele>
        <time>2022-09-26T10:22:27Z</time>
      </trkpt>
      <trkpt lat="41.7508410" lon="2.0307850">
        <ele>667.9</ele>
        <time>2022-09-26T10:22:29Z</time>
      </trkpt>
      <trkpt lat="41.7508060" lon="2.0307890">
        <ele>668.1</ele>
        <time>2022-09-26T10:22:30Z</time>
      </trkpt>
      <trkpt lat="41.7507760" lon="2.0308010">
        <ele>668.3</ele>
        <time>2022-09-26T10:22:31Z</time>
      </trkpt>
      <trkpt lat="41.7507440" lon="2.0308160">
        <ele>668.5</ele>
        <time>2022-09-26T10:22:32Z</time>
      </trkpt>
      <trkpt lat="41.7507150" lon="2.0308360">
        <ele>668.7</ele>
        <time>2022-09-26T10:22:34Z</time>
      </trkpt>
      <trkpt lat="41.7506860" lon="2.0308490">
        <ele>668.9</ele>
        <time>2022-09-26T10:22:35Z</time>
      </trkpt>
      <trkpt lat="41.7506580" lon="2.0308600">
        <ele>669.0</ele>
        <time>2022-09-26T10:22:36Z</time>
      </trkpt>
      <trkpt lat="41.7506270" lon="2.0308670">
        <ele>669.2</ele>
        <time>2022-09-26T10:22:37Z</time>
      </trkpt>
      <trkpt lat="41.7505820" lon="2.0308850">
        <ele>669.6</ele>
        <time>2022-09-26T10:22:38Z</time>
      </trkpt>
      <trkpt lat="41.7505530" lon="2.0308950">
        <ele>669.8</ele>
        <time>2022-09-26T10:22:39Z</time>
      </trkpt>
      <trkpt lat="41.7505190" lon="2.0308910">
        <ele>670.0</ele>
        <time>2022-09-26T10:22:40Z</time>
      </trkpt>
      <trkpt lat="41.7505070" lon="2.0308870">
        <ele>670.1</ele>
        <time>2022-09-26T10:22:41Z</time>
      </trkpt>
      <trkpt lat="41.7504780" lon="2.0308760">
        <ele>670.4</ele>
        <time>2022-09-26T10:22:42Z</time>
      </trkpt>
      <trkpt lat="41.7504670" lon="2.0308720">
        <ele>670.4</ele>
        <time>2022-09-26T10:22:43Z</time>
      </trkpt>
      <trkpt lat="41.7504380" lon="2.0308690">
        <ele>670.7</ele>
        <time>2022-09-26T10:22:44Z</time>
      </trkpt>
      <trkpt lat="41.7504310" lon="2.0308680">
        <ele>670.8</ele>
        <time>2022-09-26T10:22:45Z</time>
      </trkpt>
      <trkpt lat="41.7504040" lon="2.0308640">
        <ele>671.0</ele>
        <time>2022-09-26T10:22:46Z</time>
      </trkpt>
      <trkpt lat="41.7503920" lon="2.0308620">
        <ele>671.1</ele>
        <time>2022-09-26T10:22:47Z</time>
      </trkpt>
      <trkpt lat="41.7503730" lon="2.0308620">
        <ele>671.3</ele>
        <time>2022-09-26T10:22:48Z</time>
      </trkpt>
      <trkpt lat="41.7503560" lon="2.0308620">
        <ele>671.5</ele>
        <time>2022-09-26T10:22:49Z</time>
      </trkpt>
      <trkpt lat="41.7503200" lon="2.0308510">
        <ele>671.8</ele>
        <time>2022-09-26T10:22:51Z</time>
      </trkpt>
      <trkpt lat="41.7503100" lon="2.0308470">
        <ele>671.9</ele>
        <time>2022-09-26T10:22:52Z</time>
      </trkpt>
      <trkpt lat="41.7502740" lon="2.0308280">
        <ele>672.2</ele>
        <time>2022-09-26T10:22:53Z</time>
      </trkpt>
      <trkpt lat="41.7502610" lon="2.0308190">
        <ele>672.4</ele>
        <time>2022-09-26T10:22:54Z</time>
      </trkpt>
      <trkpt lat="41.7502380" lon="2.0307940">
        <ele>672.7</ele>
        <time>2022-09-26T10:22:55Z</time>
      </trkpt>
      <trkpt lat="41.7502090" lon="2.0307780">
        <ele>672.9</ele>
        <time>2022-09-26T10:22:56Z</time>
      </trkpt>
      <trkpt lat="41.7501980" lon="2.0307750">
        <ele>673.0</ele>
        <time>2022-09-26T10:22:57Z</time>
      </trkpt>
      <trkpt lat="41.7501590" lon="2.0307750">
        <ele>673.4</ele>
        <time>2022-09-26T10:22:59Z</time>
      </trkpt>
      <trkpt lat="41.7501310" lon="2.0307940">
        <ele>673.6</ele>
        <time>2022-09-26T10:23:00Z</time>
      </trkpt>
      <trkpt lat="41.7501190" lon="2.0308040">
        <ele>673.7</ele>
        <time>2022-09-26T10:23:01Z</time>
      </trkpt>
      <trkpt lat="41.7500970" lon="2.0308400">
        <ele>674.0</ele>
        <time>2022-09-26T10:23:02Z</time>
      </trkpt>
      <trkpt lat="41.7500910" lon="2.0308520">
        <ele>674.1</ele>
        <time>2022-09-26T10:23:03Z</time>
      </trkpt>
      <trkpt lat="41.7500750" lon="2.0308960">
        <ele>674.6</ele>
        <time>2022-09-26T10:23:04Z</time>
      </trkpt>
      <trkpt lat="41.7500690" lon="2.0309110">
        <ele>674.7</ele>
        <time>2022-09-26T10:23:05Z</time>
      </trkpt>
      <trkpt lat="41.7500440" lon="2.0309550">
        <ele>675.1</ele>
        <time>2022-09-26T10:23:07Z</time>
      </trkpt>
      <trkpt lat="41.7500150" lon="2.0309860">
        <ele>675.6</ele>
        <time>2022-09-26T10:23:09Z</time>
      </trkpt>
      <trkpt lat="41.7499800" lon="2.0310080">
        <ele>676.1</ele>
        <time>2022-09-26T10:23:10Z</time>
      </trkpt>
      <trkpt lat="41.7499660" lon="2.0310180">
        <ele>676.3</ele>
        <time>2022-09-26T10:23:11Z</time>
      </trkpt>
      <trkpt lat="41.7499400" lon="2.0310380">
        <ele>676.7</ele>
        <time>2022-09-26T10:23:12Z</time>
      </trkpt>
      <trkpt lat="41.7499330" lon="2.0310440">
        <ele>676.8</ele>
        <time>2022-09-26T10:23:13Z</time>
      </trkpt>
      <trkpt lat="41.7498950" lon="2.0310720">
        <ele>677.4</ele>
        <time>2022-09-26T10:23:15Z</time>
      </trkpt>
      <trkpt lat="41.7498790" lon="2.0310830">
        <ele>677.6</ele>
        <time>2022-09-26T10:23:16Z</time>
      </trkpt>
      <trkpt lat="41.7498510" lon="2.0310980">
        <ele>678.0</ele>
        <time>2022-09-26T10:23:17Z</time>
      </trkpt>
      <trkpt lat="41.7498430" lon="2.0311010">
        <ele>678.1</ele>
        <time>2022-09-26T10:23:18Z</time>
      </trkpt>
      <trkpt lat="41.7498170" lon="2.0311150">
        <ele>678.5</ele>
        <time>2022-09-26T10:23:19Z</time>
      </trkpt>
      <trkpt lat="41.7498070" lon="2.0311230">
        <ele>678.6</ele>
        <time>2022-09-26T10:23:20Z</time>
      </trkpt>
      <trkpt lat="41.7497780" lon="2.0311420">
        <ele>679.1</ele>
        <time>2022-09-26T10:23:21Z</time>
      </trkpt>
      <trkpt lat="41.7497680" lon="2.0311460">
        <ele>679.2</ele>
        <time>2022-09-26T10:23:22Z</time>
      </trkpt>
      <trkpt lat="41.7497380" lon="2.0311530">
        <ele>679.6</ele>
        <time>2022-09-26T10:23:23Z</time>
      </trkpt>
      <trkpt lat="41.7497280" lon="2.0311580">
        <ele>679.8</ele>
        <time>2022-09-26T10:23:24Z</time>
      </trkpt>
      <trkpt lat="41.7497000" lon="2.0311770">
        <ele>680.2</ele>
        <time>2022-09-26T10:23:25Z</time>
      </trkpt>
      <trkpt lat="41.7496910" lon="2.0311840">
        <ele>680.4</ele>
        <time>2022-09-26T10:23:26Z</time>
      </trkpt>
      <trkpt lat="41.7496720" lon="2.0311950">
        <ele>680.6</ele>
        <time>2022-09-26T10:23:27Z</time>
      </trkpt>
      <trkpt lat="41.7496340" lon="2.0312060">
        <ele>681.1</ele>
        <time>2022-09-26T10:23:29Z</time>
      </trkpt>
      <trkpt lat="41.7496020" lon="2.0312200">
        <ele>681.5</ele>
        <time>2022-09-26T10:23:30Z</time>
      </trkpt>
      <trkpt lat="41.7495910" lon="2.0312240">
        <ele>681.6</ele>
        <time>2022-09-26T10:23:31Z</time>
      </trkpt>
      <trkpt lat="41.7495730" lon="2.0312300">
        <ele>681.8</ele>
        <time>2022-09-26T10:23:32Z</time>
      </trkpt>
      <trkpt lat="41.7495590" lon="2.0312360">
        <ele>681.9</ele>
        <time>2022-09-26T10:23:33Z</time>
      </trkpt>
      <trkpt lat="41.7495250" lon="2.0312530">
        <ele>682.1</ele>
        <time>2022-09-26T10:23:35Z</time>
      </trkpt>
      <trkpt lat="41.7495140" lon="2.0312600">
        <ele>682.1</ele>
        <time>2022-09-26T10:23:36Z</time>
      </trkpt>
      <trkpt lat="41.7494820" lon="2.0312640">
        <ele>682.0</ele>
        <time>2022-09-26T10:23:37Z</time>
      </trkpt>
      <trkpt lat="41.7494670" lon="2.0312680">
        <ele>682.0</ele>
        <time>2022-09-26T10:23:38Z</time>
      </trkpt>
      <trkpt lat="41.7494460" lon="2.0312770">
        <ele>682.0</ele>
        <time>2022-09-26T10:23:40Z</time>
      </trkpt>
      <trkpt lat="41.7494020" lon="2.0312840">
        <ele>681.9</ele>
        <time>2022-09-26T10:23:42Z</time>
      </trkpt>
      <trkpt lat="41.7493470" lon="2.0312980">
        <ele>681.7</ele>
        <time>2022-09-26T10:23:44Z</time>
      </trkpt>
      <trkpt lat="41.7493060" lon="2.0313060">
        <ele>681.5</ele>
        <time>2022-09-26T10:23:46Z</time>
      </trkpt>
      <trkpt lat="41.7492640" lon="2.0313150">
        <ele>681.4</ele>
        <time>2022-09-26T10:23:47Z</time>
      </trkpt>
      <trkpt lat="41.7492150" lon="2.0313290">
        <ele>681.2</ele>
        <time>2022-09-26T10:23:48Z</time>
      </trkpt>
      <trkpt lat="41.7491390" lon="2.0313640">
        <ele>680.8</ele>
        <time>2022-09-26T10:23:49Z</time>
      </trkpt>
      <trkpt lat="41.7490770" lon="2.0313870">
        <ele>680.5</ele>
        <time>2022-09-26T10:23:50Z</time>
      </trkpt>
      <trkpt lat="41.7490060" lon="2.0314060">
        <ele>680.3</ele>
        <time>2022-09-26T10:23:51Z</time>
      </trkpt>
      <trkpt lat="41.7489370" lon="2.0314170">
        <ele>680.1</ele>
        <time>2022-09-26T10:23:52Z</time>
      </trkpt>
      <trkpt lat="41.7488660" lon="2.0314350">
        <ele>680.1</ele>
        <time>2022-09-26T10:23:53Z</time>
      </trkpt>
      <trkpt lat="41.7487980" lon="2.0314740">
        <ele>680.1</ele>
        <time>2022-09-26T10:23:54Z</time>
      </trkpt>
      <trkpt lat="41.7487380" lon="2.0315350">
        <ele>680.3</ele>
        <time>2022-09-26T10:23:55Z</time>
      </trkpt>
      <trkpt lat="41.7486890" lon="2.0316050">
        <ele>680.4</ele>
        <time>2022-09-26T10:23:56Z</time>
      </trkpt>
      <trkpt lat="41.7486520" lon="2.0316800">
        <ele>680.6</ele>
        <time>2022-09-26T10:23:57Z</time>
      </trkpt>
      <trkpt lat="41.7486150" lon="2.0317530">
        <ele>680.6</ele>
        <time>2022-09-26T10:23:58Z</time>
      </trkpt>
      <trkpt lat="41.7485760" lon="2.0318170">
        <ele>680.6</ele>
        <time>2022-09-26T10:23:59Z</time>
      </trkpt>
      <trkpt lat="41.7485320" lon="2.0318770">
        <ele>680.5</ele>
        <time>2022-09-26T10:24:00Z</time>
      </trkpt>
      <trkpt lat="41.7484810" lon="2.0319360">
        <ele>680.4</ele>
        <time>2022-09-26T10:24:01Z</time>
      </trkpt>
      <trkpt lat="41.7484240" lon="2.0319990">
        <ele>680.2</ele>
        <time>2022-09-26T10:24:02Z</time>
      </trkpt>
      <trkpt lat="41.7483670" lon="2.0320680">
        <ele>679.8</ele>
        <time>2022-09-26T10:24:03Z</time>
      </trkpt>
      <trkpt lat="41.7483140" lon="2.0321440">
        <ele>679.6</ele>
        <time>2022-09-26T10:24:04Z</time>
      </trkpt>
      <trkpt lat="41.7482690" lon="2.0322190">
        <ele>679.6</ele>
        <time>2022-09-26T10:24:05Z</time>
      </trkpt>
      <trkpt lat="41.7482260" lon="2.0322900">
        <ele>679.7</ele>
        <time>2022-09-26T10:24:06Z</time>
      </trkpt>
      <trkpt lat="41.7481830" lon="2.0323540">
        <ele>679.9</ele>
        <time>2022-09-26T10:24:07Z</time>
      </trkpt>
      <trkpt lat="41.7481430" lon="2.0324130">
        <ele>680.2</ele>
        <time>2022-09-26T10:24:08Z</time>
      </trkpt>
      <trkpt lat="41.7481110" lon="2.0324580">
        <ele>680.5</ele>
        <time>2022-09-26T10:24:09Z</time>
      </trkpt>
      <trkpt lat="41.7480830" lon="2.0324910">
        <ele>680.8</ele>
        <time>2022-09-26T10:24:10Z</time>
      </trkpt>
      <trkpt lat="41.7480530" lon="2.0325290">
        <ele>681.1</ele>
        <time>2022-09-26T10:24:11Z</time>
      </trkpt>
      <trkpt lat="41.7480400" lon="2.0325460">
        <ele>681.3</ele>
        <time>2022-09-26T10:24:12Z</time>
      </trkpt>
      <trkpt lat="41.7480170" lon="2.0325760">
        <ele>681.5</ele>
        <time>2022-09-26T10:24:13Z</time>
      </trkpt>
      <trkpt lat="41.7479950" lon="2.0326080">
        <ele>681.8</ele>
        <time>2022-09-26T10:24:14Z</time>
      </trkpt>
      <trkpt lat="41.7479740" lon="2.0326420">
        <ele>682.1</ele>
        <time>2022-09-26T10:24:15Z</time>
      </trkpt>
      <trkpt lat="41.7479540" lon="2.0326850">
        <ele>682.5</ele>
        <time>2022-09-26T10:24:16Z</time>
      </trkpt>
      <trkpt lat="41.7479460" lon="2.0327040">
        <ele>682.6</ele>
        <time>2022-09-26T10:24:17Z</time>
      </trkpt>
      <trkpt lat="41.7479380" lon="2.0327620">
        <ele>683.1</ele>
        <time>2022-09-26T10:24:19Z</time>
      </trkpt>
      <trkpt lat="41.7479240" lon="2.0327910">
        <ele>683.4</ele>
        <time>2022-09-26T10:24:20Z</time>
      </trkpt>
      <trkpt lat="41.7479140" lon="2.0328290">
        <ele>683.7</ele>
        <time>2022-09-26T10:24:21Z</time>
      </trkpt>
      <trkpt lat="41.7479040" lon="2.0328680">
        <ele>684.0</ele>
        <time>2022-09-26T10:24:22Z</time>
      </trkpt>
      <trkpt lat="41.7478980" lon="2.0329170">
        <ele>684.3</ele>
        <time>2022-09-26T10:24:23Z</time>
      </trkpt>
      <trkpt lat="41.7478970" lon="2.0329320">
        <ele>684.4</ele>
        <time>2022-09-26T10:24:24Z</time>
      </trkpt>
      <trkpt lat="41.7478970" lon="2.0329810">
        <ele>684.7</ele>
        <time>2022-09-26T10:24:25Z</time>
      </trkpt>
      <trkpt lat="41.7478980" lon="2.0329980">
        <ele>684.7</ele>
        <time>2022-09-26T10:24:26Z</time>
      </trkpt>
      <trkpt lat="41.7478980" lon="2.0330380">
        <ele>684.9</ele>
        <time>2022-09-26T10:24:27Z</time>
      </trkpt>
      <trkpt lat="41.7479020" lon="2.0330860">
        <ele>685.2</ele>
        <time>2022-09-26T10:24:29Z</time>
      </trkpt>
      <trkpt lat="41.7479000" lon="2.0331420">
        <ele>685.4</ele>
        <time>2022-09-26T10:24:30Z</time>
      </trkpt>
      <trkpt lat="41.7479000" lon="2.0331670">
        <ele>685.6</ele>
        <time>2022-09-26T10:24:31Z</time>
      </trkpt>
      <trkpt lat="41.7478980" lon="2.0331990">
        <ele>685.7</ele>
        <time>2022-09-26T10:24:32Z</time>
      </trkpt>
      <trkpt lat="41.7478950" lon="2.0332340">
        <ele>685.9</ele>
        <time>2022-09-26T10:24:34Z</time>
      </trkpt>
      <trkpt lat="41.7478850" lon="2.0332920">
        <ele>686.3</ele>
        <time>2022-09-26T10:24:35Z</time>
      </trkpt>
      <trkpt lat="41.7478810" lon="2.0333150">
        <ele>686.4</ele>
        <time>2022-09-26T10:24:36Z</time>
      </trkpt>
      <trkpt lat="41.7478700" lon="2.0333550">
        <ele>686.7</ele>
        <time>2022-09-26T10:24:37Z</time>
      </trkpt>
      <trkpt lat="41.7478680" lon="2.0333680">
        <ele>686.8</ele>
        <time>2022-09-26T10:24:38Z</time>
      </trkpt>
      <trkpt lat="41.7478530" lon="2.0334080">
        <ele>687.0</ele>
        <time>2022-09-26T10:24:40Z</time>
      </trkpt>
      <trkpt lat="41.7478420" lon="2.0334440">
        <ele>687.2</ele>
        <time>2022-09-26T10:24:41Z</time>
      </trkpt>
      <trkpt lat="41.7478260" lon="2.0334790">
        <ele>687.5</ele>
        <time>2022-09-26T10:24:42Z</time>
      </trkpt>
      <trkpt lat="41.7478100" lon="2.0335240">
        <ele>687.9</ele>
        <time>2022-09-26T10:24:43Z</time>
      </trkpt>
      <trkpt lat="41.7478050" lon="2.0335390">
        <ele>688.0</ele>
        <time>2022-09-26T10:24:44Z</time>
      </trkpt>
      <trkpt lat="41.7477890" lon="2.0335740">
        <ele>688.3</ele>
        <time>2022-09-26T10:24:46Z</time>
      </trkpt>
      <trkpt lat="41.7477760" lon="2.0336120">
        <ele>688.6</ele>
        <time>2022-09-26T10:24:47Z</time>
      </trkpt>
      <trkpt lat="41.7477670" lon="2.0336470">
        <ele>688.9</ele>
        <time>2022-09-26T10:24:48Z</time>
      </trkpt>
      <trkpt lat="41.7477560" lon="2.0336850">
        <ele>689.2</ele>
        <time>2022-09-26T10:24:49Z</time>
      </trkpt>
      <trkpt lat="41.7477410" lon="2.0337240">
        <ele>689.6</ele>
        <time>2022-09-26T10:24:50Z</time>
      </trkpt>
      <trkpt lat="41.7477360" lon="2.0337370">
        <ele>689.8</ele>
        <time>2022-09-26T10:24:51Z</time>
      </trkpt>
      <trkpt lat="41.7477210" lon="2.0337740">
        <ele>690.1</ele>
        <time>2022-09-26T10:24:52Z</time>
      </trkpt>
      <trkpt lat="41.7477160" lon="2.0337870">
        <ele>690.3</ele>
        <time>2022-09-26T10:24:53Z</time>
      </trkpt>
      <trkpt lat="41.7477080" lon="2.0338020">
        <ele>690.4</ele>
        <time>2022-09-26T10:24:54Z</time>
      </trkpt>
      <trkpt lat="41.7476960" lon="2.0338250">
        <ele>690.6</ele>
        <time>2022-09-26T10:24:56Z</time>
      </trkpt>
      <trkpt lat="41.7476810" lon="2.0338550">
        <ele>690.9</ele>
        <time>2022-09-26T10:24:57Z</time>
      </trkpt>
      <trkpt lat="41.7476610" lon="2.0338890">
        <ele>691.3</ele>
        <time>2022-09-26T10:24:58Z</time>
      </trkpt>
      <trkpt lat="41.7476550" lon="2.0338980">
        <ele>691.4</ele>
        <time>2022-09-26T10:24:59Z</time>
      </trkpt>
      <trkpt lat="41.7476260" lon="2.0339420">
        <ele>691.8</ele>
        <time>2022-09-26T10:25:01Z</time>
      </trkpt>
      <trkpt lat="41.7476140" lon="2.0339580">
        <ele>691.9</ele>
        <time>2022-09-26T10:25:02Z</time>
      </trkpt>
      <trkpt lat="41.7475870" lon="2.0339920">
        <ele>692.3</ele>
        <time>2022-09-26T10:25:03Z</time>
      </trkpt>
      <trkpt lat="41.7475790" lon="2.0340010">
        <ele>692.3</ele>
        <time>2022-09-26T10:25:04Z</time>
      </trkpt>
      <trkpt lat="41.7475540" lon="2.0340230">
        <ele>692.6</ele>
        <time>2022-09-26T10:25:05Z</time>
      </trkpt>
      <trkpt lat="41.7475440" lon="2.0340310">
        <ele>692.6</ele>
        <time>2022-09-26T10:25:06Z</time>
      </trkpt>
      <trkpt lat="41.7475000" lon="2.0340660">
        <ele>692.9</ele>
        <time>2022-09-26T10:25:08Z</time>
      </trkpt>
      <trkpt lat="41.7474710" lon="2.0340900">
        <ele>693.1</ele>
        <time>2022-09-26T10:25:09Z</time>
      </trkpt>
      <trkpt lat="41.7474600" lon="2.0340970">
        <ele>693.1</ele>
        <time>2022-09-26T10:25:10Z</time>
      </trkpt>
      <trkpt lat="41.7474120" lon="2.0341250">
        <ele>693.3</ele>
        <time>2022-09-26T10:25:12Z</time>
      </trkpt>
      <trkpt lat="41.7473940" lon="2.0341350">
        <ele>693.4</ele>
        <time>2022-09-26T10:25:13Z</time>
      </trkpt>
      <trkpt lat="41.7473760" lon="2.0341450">
        <ele>693.4</ele>
        <time>2022-09-26T10:25:14Z</time>
      </trkpt>
      <trkpt lat="41.7473410" lon="2.0341650">
        <ele>693.5</ele>
        <time>2022-09-26T10:25:15Z</time>
      </trkpt>
      <trkpt lat="41.7473300" lon="2.0341720">
        <ele>693.6</ele>
        <time>2022-09-26T10:25:16Z</time>
      </trkpt>
      <trkpt lat="41.7473050" lon="2.0341930">
        <ele>693.7</ele>
        <time>2022-09-26T10:25:17Z</time>
      </trkpt>
      <trkpt lat="41.7472580" lon="2.0342230">
        <ele>693.8</ele>
        <time>2022-09-26T10:25:19Z</time>
      </trkpt>
      <trkpt lat="41.7472410" lon="2.0342340">
        <ele>693.9</ele>
        <time>2022-09-26T10:25:20Z</time>
      </trkpt>
      <trkpt lat="41.7472230" lon="2.0342450">
        <ele>694.0</ele>
        <time>2022-09-26T10:25:21Z</time>
      </trkpt>
      <trkpt lat="41.7471960" lon="2.0342590">
        <ele>694.1</ele>
        <time>2022-09-26T10:25:22Z</time>
      </trkpt>
      <trkpt lat="41.7471750" lon="2.0342690">
        <ele>694.2</ele>
        <time>2022-09-26T10:25:23Z</time>
      </trkpt>
      <trkpt lat="41.7471460" lon="2.0342770">
        <ele>694.3</ele>
        <time>2022-09-26T10:25:25Z</time>
      </trkpt>
      <trkpt lat="41.7471140" lon="2.0342850">
        <ele>694.5</ele>
        <time>2022-09-26T10:25:26Z</time>
      </trkpt>
      <trkpt lat="41.7470770" lon="2.0342950">
        <ele>694.6</ele>
        <time>2022-09-26T10:25:28Z</time>
      </trkpt>
      <trkpt lat="41.7470490" lon="2.0342950">
        <ele>694.8</ele>
        <time>2022-09-26T10:25:29Z</time>
      </trkpt>
      <trkpt lat="41.7470200" lon="2.0342890">
        <ele>694.9</ele>
        <time>2022-09-26T10:25:31Z</time>
      </trkpt>
      <trkpt lat="41.7469900" lon="2.0342780">
        <ele>695.0</ele>
        <time>2022-09-26T10:25:32Z</time>
      </trkpt>
      <trkpt lat="41.7469510" lon="2.0342630">
        <ele>695.1</ele>
        <time>2022-09-26T10:25:33Z</time>
      </trkpt>
      <trkpt lat="41.7469240" lon="2.0342470">
        <ele>695.1</ele>
        <time>2022-09-26T10:25:34Z</time>
      </trkpt>
      <trkpt lat="41.7468930" lon="2.0342330">
        <ele>695.2</ele>
        <time>2022-09-26T10:25:36Z</time>
      </trkpt>
      <trkpt lat="41.7468610" lon="2.0342150">
        <ele>695.2</ele>
        <time>2022-09-26T10:25:37Z</time>
      </trkpt>
      <trkpt lat="41.7468260" lon="2.0341910">
        <ele>695.3</ele>
        <time>2022-09-26T10:25:38Z</time>
      </trkpt>
      <trkpt lat="41.7468000" lon="2.0341760">
        <ele>695.3</ele>
        <time>2022-09-26T10:25:39Z</time>
      </trkpt>
      <trkpt lat="41.7467600" lon="2.0341620">
        <ele>695.4</ele>
        <time>2022-09-26T10:25:41Z</time>
      </trkpt>
      <trkpt lat="41.7467270" lon="2.0341550">
        <ele>695.5</ele>
        <time>2022-09-26T10:25:42Z</time>
      </trkpt>
      <trkpt lat="41.7466820" lon="2.0341430">
        <ele>695.7</ele>
        <time>2022-09-26T10:25:43Z</time>
      </trkpt>
      <trkpt lat="41.7466620" lon="2.0341390">
        <ele>695.9</ele>
        <time>2022-09-26T10:25:44Z</time>
      </trkpt>
      <trkpt lat="41.7466350" lon="2.0341300">
        <ele>696.1</ele>
        <time>2022-09-26T10:25:45Z</time>
      </trkpt>
      <trkpt lat="41.7466140" lon="2.0341270">
        <ele>696.3</ele>
        <time>2022-09-26T10:25:46Z</time>
      </trkpt>
      <trkpt lat="41.7465870" lon="2.0341300">
        <ele>696.5</ele>
        <time>2022-09-26T10:25:48Z</time>
      </trkpt>
      <trkpt lat="41.7465570" lon="2.0341360">
        <ele>696.8</ele>
        <time>2022-09-26T10:25:49Z</time>
      </trkpt>
      <trkpt lat="41.7465250" lon="2.0341410">
        <ele>697.1</ele>
        <time>2022-09-26T10:25:50Z</time>
      </trkpt>
      <trkpt lat="41.7465150" lon="2.0341410">
        <ele>697.2</ele>
        <time>2022-09-26T10:25:51Z</time>
      </trkpt>
      <trkpt lat="41.7464930" lon="2.0341430">
        <ele>697.5</ele>
        <time>2022-09-26T10:25:52Z</time>
      </trkpt>
      <trkpt lat="41.7464660" lon="2.0341490">
        <ele>697.7</ele>
        <time>2022-09-26T10:25:54Z</time>
      </trkpt>
      <trkpt lat="41.7464350" lon="2.0341640">
        <ele>698.1</ele>
        <time>2022-09-26T10:25:55Z</time>
      </trkpt>
      <trkpt lat="41.7464250" lon="2.0341680">
        <ele>698.2</ele>
        <time>2022-09-26T10:25:56Z</time>
      </trkpt>
      <trkpt lat="41.7463950" lon="2.0341770">
        <ele>698.5</ele>
        <time>2022-09-26T10:25:57Z</time>
      </trkpt>
      <trkpt lat="41.7463860" lon="2.0341800">
        <ele>698.5</ele>
        <time>2022-09-26T10:25:58Z</time>
      </trkpt>
      <trkpt lat="41.7463510" lon="2.0341850">
        <ele>698.9</ele>
        <time>2022-09-26T10:26:00Z</time>
      </trkpt>
      <trkpt lat="41.7463410" lon="2.0341870">
        <ele>699.0</ele>
        <time>2022-09-26T10:26:01Z</time>
      </trkpt>
      <trkpt lat="41.7463120" lon="2.0341910">
        <ele>699.3</ele>
        <time>2022-09-26T10:26:02Z</time>
      </trkpt>
      <trkpt lat="41.7462830" lon="2.0341920">
        <ele>699.6</ele>
        <time>2022-09-26T10:26:03Z</time>
      </trkpt>
      <trkpt lat="41.7462740" lon="2.0341920">
        <ele>699.6</ele>
        <time>2022-09-26T10:26:04Z</time>
      </trkpt>
      <trkpt lat="41.7462440" lon="2.0341950">
        <ele>699.9</ele>
        <time>2022-09-26T10:26:05Z</time>
      </trkpt>
      <trkpt lat="41.7462330" lon="2.0341960">
        <ele>700.0</ele>
        <time>2022-09-26T10:26:06Z</time>
      </trkpt>
      <trkpt lat="41.7462050" lon="2.0342030">
        <ele>700.3</ele>
        <time>2022-09-26T10:26:07Z</time>
      </trkpt>
      <trkpt lat="41.7461960" lon="2.0342060">
        <ele>700.3</ele>
        <time>2022-09-26T10:26:08Z</time>
      </trkpt>
      <trkpt lat="41.7461790" lon="2.0342070">
        <ele>700.5</ele>
        <time>2022-09-26T10:26:09Z</time>
      </trkpt>
      <trkpt lat="41.7461620" lon="2.0342100">
        <ele>700.6</ele>
        <time>2022-09-26T10:26:10Z</time>
      </trkpt>
      <trkpt lat="41.7461420" lon="2.0342160">
        <ele>700.8</ele>
        <time>2022-09-26T10:26:11Z</time>
      </trkpt>
      <trkpt lat="41.7461100" lon="2.0342210">
        <ele>701.0</ele>
        <time>2022-09-26T10:26:13Z</time>
      </trkpt>
      <trkpt lat="41.7460750" lon="2.0342360">
        <ele>701.2</ele>
        <time>2022-09-26T10:26:14Z</time>
      </trkpt>
      <trkpt lat="41.7460630" lon="2.0342430">
        <ele>701.2</ele>
        <time>2022-09-26T10:26:15Z</time>
      </trkpt>
      <trkpt lat="41.7460350" lon="2.0342560">
        <ele>701.4</ele>
        <time>2022-09-26T10:26:16Z</time>
      </trkpt>
      <trkpt lat="41.7460080" lon="2.0342690">
        <ele>701.5</ele>
        <time>2022-09-26T10:26:17Z</time>
      </trkpt>
      <trkpt lat="41.7459890" lon="2.0342800">
        <ele>701.5</ele>
        <time>2022-09-26T10:26:18Z</time>
      </trkpt>
      <trkpt lat="41.7459600" lon="2.0342950">
        <ele>701.6</ele>
        <time>2022-09-26T10:26:20Z</time>
      </trkpt>
      <trkpt lat="41.7459230" lon="2.0343180">
        <ele>701.6</ele>
        <time>2022-09-26T10:26:21Z</time>
      </trkpt>
      <trkpt lat="41.7458980" lon="2.0343350">
        <ele>701.7</ele>
        <time>2022-09-26T10:26:22Z</time>
      </trkpt>
      <trkpt lat="41.7458690" lon="2.0343470">
        <ele>701.7</ele>
        <time>2022-09-26T10:26:24Z</time>
      </trkpt>
      <trkpt lat="41.7458380" lon="2.0343530">
        <ele>701.7</ele>
        <time>2022-09-26T10:26:25Z</time>
      </trkpt>
      <trkpt lat="41.7458070" lon="2.0343510">
        <ele>701.7</ele>
        <time>2022-09-26T10:26:26Z</time>
      </trkpt>
      <trkpt lat="41.7457730" lon="2.0343470">
        <ele>701.7</ele>
        <time>2022-09-26T10:26:27Z</time>
      </trkpt>
      <trkpt lat="41.7457440" lon="2.0343440">
        <ele>701.7</ele>
        <time>2022-09-26T10:26:28Z</time>
      </trkpt>
      <trkpt lat="41.7457170" lon="2.0343420">
        <ele>701.7</ele>
        <time>2022-09-26T10:26:29Z</time>
      </trkpt>
      <trkpt lat="41.7456810" lon="2.0343360">
        <ele>701.7</ele>
        <time>2022-09-26T10:26:30Z</time>
      </trkpt>
      <trkpt lat="41.7456410" lon="2.0343310">
        <ele>701.8</ele>
        <time>2022-09-26T10:26:31Z</time>
      </trkpt>
      <trkpt lat="41.7456260" lon="2.0343300">
        <ele>701.8</ele>
        <time>2022-09-26T10:26:32Z</time>
      </trkpt>
      <trkpt lat="41.7456010" lon="2.0343260">
        <ele>701.9</ele>
        <time>2022-09-26T10:26:33Z</time>
      </trkpt>
      <trkpt lat="41.7455610" lon="2.0343170">
        <ele>702.1</ele>
        <time>2022-09-26T10:26:35Z</time>
      </trkpt>
      <trkpt lat="41.7455310" lon="2.0343090">
        <ele>702.3</ele>
        <time>2022-09-26T10:26:36Z</time>
      </trkpt>
      <trkpt lat="41.7454990" lon="2.0342960">
        <ele>702.5</ele>
        <time>2022-09-26T10:26:37Z</time>
      </trkpt>
      <trkpt lat="41.7454880" lon="2.0342930">
        <ele>702.6</ele>
        <time>2022-09-26T10:26:38Z</time>
      </trkpt>
      <trkpt lat="41.7454590" lon="2.0342900">
        <ele>702.8</ele>
        <time>2022-09-26T10:26:39Z</time>
      </trkpt>
      <trkpt lat="41.7454370" lon="2.0342890">
        <ele>703.0</ele>
        <time>2022-09-26T10:26:40Z</time>
      </trkpt>
      <trkpt lat="41.7454100" lon="2.0342910">
        <ele>703.2</ele>
        <time>2022-09-26T10:26:42Z</time>
      </trkpt>
      <trkpt lat="41.7453820" lon="2.0342910">
        <ele>703.4</ele>
        <time>2022-09-26T10:26:43Z</time>
      </trkpt>
      <trkpt lat="41.7453480" lon="2.0342910">
        <ele>703.7</ele>
        <time>2022-09-26T10:26:44Z</time>
      </trkpt>
      <trkpt lat="41.7453330" lon="2.0342900">
        <ele>703.8</ele>
        <time>2022-09-26T10:26:45Z</time>
      </trkpt>
      <trkpt lat="41.7453070" lon="2.0342820">
        <ele>704.0</ele>
        <time>2022-09-26T10:26:46Z</time>
      </trkpt>
      <trkpt lat="41.7452710" lon="2.0342730">
        <ele>704.2</ele>
        <time>2022-09-26T10:26:48Z</time>
      </trkpt>
      <trkpt lat="41.7452410" lon="2.0342750">
        <ele>704.4</ele>
        <time>2022-09-26T10:26:49Z</time>
      </trkpt>
      <trkpt lat="41.7452120" lon="2.0342750">
        <ele>704.6</ele>
        <time>2022-09-26T10:26:50Z</time>
      </trkpt>
      <trkpt lat="41.7451750" lon="2.0342780">
        <ele>704.9</ele>
        <time>2022-09-26T10:26:52Z</time>
      </trkpt>
      <trkpt lat="41.7451360" lon="2.0342790">
        <ele>705.1</ele>
        <time>2022-09-26T10:26:53Z</time>
      </trkpt>
      <trkpt lat="41.7451230" lon="2.0342800">
        <ele>705.2</ele>
        <time>2022-09-26T10:26:54Z</time>
      </trkpt>
      <trkpt lat="41.7450930" lon="2.0342810">
        <ele>705.3</ele>
        <time>2022-09-26T10:26:55Z</time>
      </trkpt>
      <trkpt lat="41.7450660" lon="2.0342780">
        <ele>705.5</ele>
        <time>2022-09-26T10:26:56Z</time>
      </trkpt>
      <trkpt lat="41.7450320" lon="2.0342740">
        <ele>705.6</ele>
        <time>2022-09-26T10:26:57Z</time>
      </trkpt>
      <trkpt lat="41.7450200" lon="2.0342750">
        <ele>705.6</ele>
        <time>2022-09-26T10:26:58Z</time>
      </trkpt>
      <trkpt lat="41.7449820" lon="2.0342700">
        <ele>705.7</ele>
        <time>2022-09-26T10:26:59Z</time>
      </trkpt>
      <trkpt lat="41.7449680" lon="2.0342680">
        <ele>705.7</ele>
        <time>2022-09-26T10:27:00Z</time>
      </trkpt>
      <trkpt lat="41.7449320" lon="2.0342650">
        <ele>705.8</ele>
        <time>2022-09-26T10:27:01Z</time>
      </trkpt>
      <trkpt lat="41.7449210" lon="2.0342650">
        <ele>705.8</ele>
        <time>2022-09-26T10:27:02Z</time>
      </trkpt>
      <trkpt lat="41.7448780" lon="2.0342650">
        <ele>705.8</ele>
        <time>2022-09-26T10:27:03Z</time>
      </trkpt>
      <trkpt lat="41.7448610" lon="2.0342660">
        <ele>705.8</ele>
        <time>2022-09-26T10:27:04Z</time>
      </trkpt>
      <trkpt lat="41.7448280" lon="2.0342650">
        <ele>705.7</ele>
        <time>2022-09-26T10:27:05Z</time>
      </trkpt>
      <trkpt lat="41.7447970" lon="2.0342660">
        <ele>705.7</ele>
        <time>2022-09-26T10:27:06Z</time>
      </trkpt>
      <trkpt lat="41.7447630" lon="2.0342640">
        <ele>705.6</ele>
        <time>2022-09-26T10:27:07Z</time>
      </trkpt>
      <trkpt lat="41.7447270" lon="2.0342660">
        <ele>705.4</ele>
        <time>2022-09-26T10:27:09Z</time>
      </trkpt>
      <trkpt lat="41.7446990" lon="2.0342710">
        <ele>705.2</ele>
        <time>2022-09-26T10:27:10Z</time>
      </trkpt>
      <trkpt lat="41.7446510" lon="2.0342810">
        <ele>704.9</ele>
        <time>2022-09-26T10:27:11Z</time>
      </trkpt>
      <trkpt lat="41.7446250" lon="2.0342900">
        <ele>704.7</ele>
        <time>2022-09-26T10:27:12Z</time>
      </trkpt>
      <trkpt lat="41.7445920" lon="2.0343120">
        <ele>704.4</ele>
        <time>2022-09-26T10:27:13Z</time>
      </trkpt>
      <trkpt lat="41.7445720" lon="2.0343370">
        <ele>704.1</ele>
        <time>2022-09-26T10:27:14Z</time>
      </trkpt>
      <trkpt lat="41.7445580" lon="2.0343680">
        <ele>703.8</ele>
        <time>2022-09-26T10:27:15Z</time>
      </trkpt>
      <trkpt lat="41.7445600" lon="2.0344140">
        <ele>703.4</ele>
        <time>2022-09-26T10:27:16Z</time>
      </trkpt>
      <trkpt lat="41.7445700" lon="2.0344760">
        <ele>702.9</ele>
        <time>2022-09-26T10:27:17Z</time>
      </trkpt>
      <trkpt lat="41.7445830" lon="2.0345600">
        <ele>702.1</ele>
        <time>2022-09-26T10:27:18Z</time>
      </trkpt>
      <trkpt lat="41.7446000" lon="2.0346350">
        <ele>701.4</ele>
        <time>2022-09-26T10:27:19Z</time>
      </trkpt>
      <trkpt lat="41.7446170" lon="2.0347030">
        <ele>700.7</ele>
        <time>2022-09-26T10:27:20Z</time>
      </trkpt>
      <trkpt lat="41.7446310" lon="2.0347630">
        <ele>700.1</ele>
        <time>2022-09-26T10:27:21Z</time>
      </trkpt>
      <trkpt lat="41.7446300" lon="2.0348020">
        <ele>699.6</ele>
        <time>2022-09-26T10:27:22Z</time>
      </trkpt>
      <trkpt lat="41.7446150" lon="2.0348540">
        <ele>699.0</ele>
        <time>2022-09-26T10:27:23Z</time>
      </trkpt>
      <trkpt lat="41.7446050" lon="2.0349290">
        <ele>698.0</ele>
        <time>2022-09-26T10:27:25Z</time>
      </trkpt>
      <trkpt lat="41.7445620" lon="2.0349620">
        <ele>697.2</ele>
        <time>2022-09-26T10:27:26Z</time>
      </trkpt>
      <trkpt lat="41.7445260" lon="2.0349430">
        <ele>696.5</ele>
        <time>2022-09-26T10:27:27Z</time>
      </trkpt>
      <trkpt lat="41.7444930" lon="2.0349170">
        <ele>695.9</ele>
        <time>2022-09-26T10:27:28Z</time>
      </trkpt>
      <trkpt lat="41.7444500" lon="2.0348800">
        <ele>695.1</ele>
        <time>2022-09-26T10:27:30Z</time>
      </trkpt>
      <trkpt lat="41.7444130" lon="2.0348430">
        <ele>694.5</ele>
        <time>2022-09-26T10:27:31Z</time>
      </trkpt>
      <trkpt lat="41.7443620" lon="2.0348140">
        <ele>693.8</ele>
        <time>2022-09-26T10:27:32Z</time>
      </trkpt>
      <trkpt lat="41.7443290" lon="2.0348270">
        <ele>692.5</ele>
        <time>2022-09-26T10:27:33Z</time>
      </trkpt>
      <trkpt lat="41.7443210" lon="2.0348390">
        <ele>692.5</ele>
        <time>2022-09-26T10:27:34Z</time>
      </trkpt>
      <trkpt lat="41.7443230" lon="2.0348950">
        <ele>692.3</ele>
        <time>2022-09-26T10:27:35Z</time>
      </trkpt>
      <trkpt lat="41.7443290" lon="2.0349510">
        <ele>692.2</ele>
        <time>2022-09-26T10:27:36Z</time>
      </trkpt>
      <trkpt lat="41.7443560" lon="2.0350000">
        <ele>692.1</ele>
        <time>2022-09-26T10:27:37Z</time>
      </trkpt>
      <trkpt lat="41.7443830" lon="2.0350510">
        <ele>691.9</ele>
        <time>2022-09-26T10:27:38Z</time>
      </trkpt>
      <trkpt lat="41.7444080" lon="2.0351100">
        <ele>691.7</ele>
        <time>2022-09-26T10:27:39Z</time>
      </trkpt>
      <trkpt lat="41.7444300" lon="2.0351690">
        <ele>691.6</ele>
        <time>2022-09-26T10:27:41Z</time>
      </trkpt>
      <trkpt lat="41.7444640" lon="2.0352730">
        <ele>691.2</ele>
        <time>2022-09-26T10:27:42Z</time>
      </trkpt>
      <trkpt lat="41.7444620" lon="2.0353370">
        <ele>691.0</ele>
        <time>2022-09-26T10:27:43Z</time>
      </trkpt>
      <trkpt lat="41.7444530" lon="2.0354000">
        <ele>690.9</ele>
        <time>2022-09-26T10:27:44Z</time>
      </trkpt>
      <trkpt lat="41.7444480" lon="2.0354580">
        <ele>690.6</ele>
        <time>2022-09-26T10:27:45Z</time>
      </trkpt>
      <trkpt lat="41.7444720" lon="2.0355030">
        <ele>690.3</ele>
        <time>2022-09-26T10:27:46Z</time>
      </trkpt>
      <trkpt lat="41.7445020" lon="2.0355130">
        <ele>690.0</ele>
        <time>2022-09-26T10:27:47Z</time>
      </trkpt>
      <trkpt lat="41.7445630" lon="2.0355000">
        <ele>689.5</ele>
        <time>2022-09-26T10:27:48Z</time>
      </trkpt>
      <trkpt lat="41.7446210" lon="2.0354510">
        <ele>688.8</ele>
        <time>2022-09-26T10:27:49Z</time>
      </trkpt>
      <trkpt lat="41.7446710" lon="2.0353940">
        <ele>688.3</ele>
        <time>2022-09-26T10:27:50Z</time>
      </trkpt>
      <trkpt lat="41.7447230" lon="2.0353370">
        <ele>687.9</ele>
        <time>2022-09-26T10:27:51Z</time>
      </trkpt>
      <trkpt lat="41.7447710" lon="2.0352970">
        <ele>687.6</ele>
        <time>2022-09-26T10:27:52Z</time>
      </trkpt>
      <trkpt lat="41.7448230" lon="2.0352660">
        <ele>687.4</ele>
        <time>2022-09-26T10:27:53Z</time>
      </trkpt>
      <trkpt lat="41.7448740" lon="2.0352490">
        <ele>687.1</ele>
        <time>2022-09-26T10:27:54Z</time>
      </trkpt>
      <trkpt lat="41.7449220" lon="2.0352370">
        <ele>686.9</ele>
        <time>2022-09-26T10:27:55Z</time>
      </trkpt>
      <trkpt lat="41.7449670" lon="2.0352300">
        <ele>686.7</ele>
        <time>2022-09-26T10:27:56Z</time>
      </trkpt>
      <trkpt lat="41.7450110" lon="2.0352200">
        <ele>686.5</ele>
        <time>2022-09-26T10:27:57Z</time>
      </trkpt>
      <trkpt lat="41.7450430" lon="2.0352050">
        <ele>686.3</ele>
        <time>2022-09-26T10:27:58Z</time>
      </trkpt>
      <trkpt lat="41.7450640" lon="2.0351930">
        <ele>686.2</ele>
        <time>2022-09-26T10:27:59Z</time>
      </trkpt>
      <trkpt lat="41.7451400" lon="2.0352220">
        <ele>685.8</ele>
        <time>2022-09-26T10:28:00Z</time>
      </trkpt>
      <trkpt lat="41.7451860" lon="2.0352170">
        <ele>685.6</ele>
        <time>2022-09-26T10:28:01Z</time>
      </trkpt>
      <trkpt lat="41.7452360" lon="2.0352390">
        <ele>685.3</ele>
        <time>2022-09-26T10:28:03Z</time>
      </trkpt>
      <trkpt lat="41.7452950" lon="2.0352110">
        <ele>685.0</ele>
        <time>2022-09-26T10:28:04Z</time>
      </trkpt>
      <trkpt lat="41.7453200" lon="2.0352000">
        <ele>684.9</ele>
        <time>2022-09-26T10:28:06Z</time>
      </trkpt>
      <trkpt lat="41.7453320" lon="2.0351960">
        <ele>684.9</ele>
        <time>2022-09-26T10:28:07Z</time>
      </trkpt>
      <trkpt lat="41.7453660" lon="2.0351820">
        <ele>684.7</ele>
        <time>2022-09-26T10:28:08Z</time>
      </trkpt>
      <trkpt lat="41.7453770" lon="2.0351800">
        <ele>684.7</ele>
        <time>2022-09-26T10:28:09Z</time>
      </trkpt>
      <trkpt lat="41.7454250" lon="2.0351730">
        <ele>684.4</ele>
        <time>2022-09-26T10:28:10Z</time>
      </trkpt>
      <trkpt lat="41.7454480" lon="2.0351690">
        <ele>684.3</ele>
        <time>2022-09-26T10:28:11Z</time>
      </trkpt>
      <trkpt lat="41.7455270" lon="2.0351670">
        <ele>684.0</ele>
        <time>2022-09-26T10:28:13Z</time>
      </trkpt>
      <trkpt lat="41.7456030" lon="2.0351490">
        <ele>683.6</ele>
        <time>2022-09-26T10:28:14Z</time>
      </trkpt>
      <trkpt lat="41.7456520" lon="2.0351350">
        <ele>683.4</ele>
        <time>2022-09-26T10:28:15Z</time>
      </trkpt>
      <trkpt lat="41.7456990" lon="2.0351180">
        <ele>683.1</ele>
        <time>2022-09-26T10:28:16Z</time>
      </trkpt>
      <trkpt lat="41.7457400" lon="2.0351000">
        <ele>682.9</ele>
        <time>2022-09-26T10:28:17Z</time>
      </trkpt>
      <trkpt lat="41.7457850" lon="2.0350710">
        <ele>682.7</ele>
        <time>2022-09-26T10:28:18Z</time>
      </trkpt>
      <trkpt lat="41.7458070" lon="2.0350550">
        <ele>682.5</ele>
        <time>2022-09-26T10:28:19Z</time>
      </trkpt>
      <trkpt lat="41.7458630" lon="2.0350330">
        <ele>682.3</ele>
        <time>2022-09-26T10:28:20Z</time>
      </trkpt>
      <trkpt lat="41.7459180" lon="2.0350150">
        <ele>682.0</ele>
        <time>2022-09-26T10:28:21Z</time>
      </trkpt>
      <trkpt lat="41.7459740" lon="2.0350010">
        <ele>681.7</ele>
        <time>2022-09-26T10:28:22Z</time>
      </trkpt>
      <trkpt lat="41.7460310" lon="2.0349870">
        <ele>681.4</ele>
        <time>2022-09-26T10:28:23Z</time>
      </trkpt>
      <trkpt lat="41.7460850" lon="2.0349750">
        <ele>681.2</ele>
        <time>2022-09-26T10:28:24Z</time>
      </trkpt>
      <trkpt lat="41.7461400" lon="2.0349620">
        <ele>680.9</ele>
        <time>2022-09-26T10:28:25Z</time>
      </trkpt>
      <trkpt lat="41.7461980" lon="2.0349540">
        <ele>680.6</ele>
        <time>2022-09-26T10:28:26Z</time>
      </trkpt>
      <trkpt lat="41.7462540" lon="2.0349440">
        <ele>680.4</ele>
        <time>2022-09-26T10:28:27Z</time>
      </trkpt>
      <trkpt lat="41.7463100" lon="2.0349330">
        <ele>680.2</ele>
        <time>2022-09-26T10:28:28Z</time>
      </trkpt>
      <trkpt lat="41.7463660" lon="2.0349280">
        <ele>679.9</ele>
        <time>2022-09-26T10:28:29Z</time>
      </trkpt>
      <trkpt lat="41.7464240" lon="2.0349270">
        <ele>679.7</ele>
        <time>2022-09-26T10:28:30Z</time>
      </trkpt>
      <trkpt lat="41.7464810" lon="2.0349380">
        <ele>679.4</ele>
        <time>2022-09-26T10:28:31Z</time>
      </trkpt>
      <trkpt lat="41.7465370" lon="2.0349630">
        <ele>679.2</ele>
        <time>2022-09-26T10:28:32Z</time>
      </trkpt>
      <trkpt lat="41.7465960" lon="2.0349940">
        <ele>679.0</ele>
        <time>2022-09-26T10:28:33Z</time>
      </trkpt>
      <trkpt lat="41.7466550" lon="2.0350260">
        <ele>678.7</ele>
        <time>2022-09-26T10:28:34Z</time>
      </trkpt>
      <trkpt lat="41.7467110" lon="2.0350610">
        <ele>678.5</ele>
        <time>2022-09-26T10:28:35Z</time>
      </trkpt>
      <trkpt lat="41.7467620" lon="2.0351020">
        <ele>678.3</ele>
        <time>2022-09-26T10:28:36Z</time>
      </trkpt>
      <trkpt lat="41.7468100" lon="2.0351480">
        <ele>678.1</ele>
        <time>2022-09-26T10:28:37Z</time>
      </trkpt>
      <trkpt lat="41.7468520" lon="2.0351960">
        <ele>677.9</ele>
        <time>2022-09-26T10:28:38Z</time>
      </trkpt>
      <trkpt lat="41.7468960" lon="2.0352550">
        <ele>677.7</ele>
        <time>2022-09-26T10:28:39Z</time>
      </trkpt>
      <trkpt lat="41.7469400" lon="2.0353130">
        <ele>677.4</ele>
        <time>2022-09-26T10:28:40Z</time>
      </trkpt>
      <trkpt lat="41.7469890" lon="2.0353600">
        <ele>677.1</ele>
        <time>2022-09-26T10:28:41Z</time>
      </trkpt>
      <trkpt lat="41.7470420" lon="2.0353870">
        <ele>676.8</ele>
        <time>2022-09-26T10:28:42Z</time>
      </trkpt>
      <trkpt lat="41.7470960" lon="2.0353900">
        <ele>676.4</ele>
        <time>2022-09-26T10:28:43Z</time>
      </trkpt>
      <trkpt lat="41.7471510" lon="2.0353800">
        <ele>675.9</ele>
        <time>2022-09-26T10:28:44Z</time>
      </trkpt>
      <trkpt lat="41.7472060" lon="2.0353640">
        <ele>675.4</ele>
        <time>2022-09-26T10:28:45Z</time>
      </trkpt>
      <trkpt lat="41.7472660" lon="2.0353500">
        <ele>674.8</ele>
        <time>2022-09-26T10:28:46Z</time>
      </trkpt>
      <trkpt lat="41.7473340" lon="2.0353320">
        <ele>674.1</ele>
        <time>2022-09-26T10:28:47Z</time>
      </trkpt>
      <trkpt lat="41.7474010" lon="2.0353100">
        <ele>673.4</ele>
        <time>2022-09-26T10:28:48Z</time>
      </trkpt>
      <trkpt lat="41.7474700" lon="2.0352810">
        <ele>672.8</ele>
        <time>2022-09-26T10:28:49Z</time>
      </trkpt>
      <trkpt lat="41.7475370" lon="2.0352460">
        <ele>672.1</ele>
        <time>2022-09-26T10:28:50Z</time>
      </trkpt>
      <trkpt lat="41.7475990" lon="2.0352130">
        <ele>671.5</ele>
        <time>2022-09-26T10:28:51Z</time>
      </trkpt>
      <trkpt lat="41.7476470" lon="2.0351740">
        <ele>671.0</ele>
        <time>2022-09-26T10:28:52Z</time>
      </trkpt>
      <trkpt lat="41.7476830" lon="2.0351210">
        <ele>670.3</ele>
        <time>2022-09-26T10:28:53Z</time>
      </trkpt>
      <trkpt lat="41.7477080" lon="2.0350630">
        <ele>669.7</ele>
        <time>2022-09-26T10:28:54Z</time>
      </trkpt>
      <trkpt lat="41.7477250" lon="2.0349910">
        <ele>668.9</ele>
        <time>2022-09-26T10:28:55Z</time>
      </trkpt>
      <trkpt lat="41.7477370" lon="2.0349030">
        <ele>667.9</ele>
        <time>2022-09-26T10:28:56Z</time>
      </trkpt>
      <trkpt lat="41.7477620" lon="2.0348120">
        <ele>666.9</ele>
        <time>2022-09-26T10:28:57Z</time>
      </trkpt>
      <trkpt lat="41.7478060" lon="2.0347280">
        <ele>665.9</ele>
        <time>2022-09-26T10:28:58Z</time>
      </trkpt>
      <trkpt lat="41.7478620" lon="2.0346520">
        <ele>665.1</ele>
        <time>2022-09-26T10:28:59Z</time>
      </trkpt>
      <trkpt lat="41.7479210" lon="2.0345850">
        <ele>664.5</ele>
        <time>2022-09-26T10:29:00Z</time>
      </trkpt>
      <trkpt lat="41.7479800" lon="2.0345210">
        <ele>663.8</ele>
        <time>2022-09-26T10:29:01Z</time>
      </trkpt>
      <trkpt lat="41.7480400" lon="2.0344560">
        <ele>663.2</ele>
        <time>2022-09-26T10:29:02Z</time>
      </trkpt>
      <trkpt lat="41.7481050" lon="2.0343900">
        <ele>662.6</ele>
        <time>2022-09-26T10:29:03Z</time>
      </trkpt>
      <trkpt lat="41.7481780" lon="2.0343280">
        <ele>661.9</ele>
        <time>2022-09-26T10:29:04Z</time>
      </trkpt>
      <trkpt lat="41.7482450" lon="2.0342630">
        <ele>661.3</ele>
        <time>2022-09-26T10:29:05Z</time>
      </trkpt>
      <trkpt lat="41.7483060" lon="2.0341920">
        <ele>660.7</ele>
        <time>2022-09-26T10:29:06Z</time>
      </trkpt>
      <trkpt lat="41.7483680" lon="2.0341380">
        <ele>660.1</ele>
        <time>2022-09-26T10:29:07Z</time>
      </trkpt>
      <trkpt lat="41.7484370" lon="2.0341090">
        <ele>659.6</ele>
        <time>2022-09-26T10:29:08Z</time>
      </trkpt>
      <trkpt lat="41.7485080" lon="2.0340930">
        <ele>659.1</ele>
        <time>2022-09-26T10:29:09Z</time>
      </trkpt>
      <trkpt lat="41.7485770" lon="2.0340820">
        <ele>658.5</ele>
        <time>2022-09-26T10:29:10Z</time>
      </trkpt>
      <trkpt lat="41.7486450" lon="2.0340710">
        <ele>657.9</ele>
        <time>2022-09-26T10:29:11Z</time>
      </trkpt>
      <trkpt lat="41.7487110" lon="2.0340730">
        <ele>657.3</ele>
        <time>2022-09-26T10:29:12Z</time>
      </trkpt>
      <trkpt lat="41.7487660" lon="2.0340930">
        <ele>656.7</ele>
        <time>2022-09-26T10:29:13Z</time>
      </trkpt>
      <trkpt lat="41.7488140" lon="2.0341390">
        <ele>656.1</ele>
        <time>2022-09-26T10:29:14Z</time>
      </trkpt>
      <trkpt lat="41.7488630" lon="2.0341960">
        <ele>655.4</ele>
        <time>2022-09-26T10:29:15Z</time>
      </trkpt>
      <trkpt lat="41.7489170" lon="2.0342490">
        <ele>654.6</ele>
        <time>2022-09-26T10:29:16Z</time>
      </trkpt>
      <trkpt lat="41.7489800" lon="2.0342850">
        <ele>653.6</ele>
        <time>2022-09-26T10:29:17Z</time>
      </trkpt>
      <trkpt lat="41.7490420" lon="2.0342980">
        <ele>652.7</ele>
        <time>2022-09-26T10:29:18Z</time>
      </trkpt>
      <trkpt lat="41.7491090" lon="2.0342890">
        <ele>651.7</ele>
        <time>2022-09-26T10:29:19Z</time>
      </trkpt>
      <trkpt lat="41.7491760" lon="2.0342710">
        <ele>650.7</ele>
        <time>2022-09-26T10:29:20Z</time>
      </trkpt>
      <trkpt lat="41.7492400" lon="2.0342600">
        <ele>649.8</ele>
        <time>2022-09-26T10:29:21Z</time>
      </trkpt>
      <trkpt lat="41.7493030" lon="2.0342520">
        <ele>649.1</ele>
        <time>2022-09-26T10:29:22Z</time>
      </trkpt>
      <trkpt lat="41.7493500" lon="2.0342300">
        <ele>648.5</ele>
        <time>2022-09-26T10:29:23Z</time>
      </trkpt>
      <trkpt lat="41.7493720" lon="2.0341820">
        <ele>648.0</ele>
        <time>2022-09-26T10:29:24Z</time>
      </trkpt>
      <trkpt lat="41.7493820" lon="2.0341560">
        <ele>647.7</ele>
        <time>2022-09-26T10:29:25Z</time>
      </trkpt>
      <trkpt lat="41.7493830" lon="2.0341190">
        <ele>647.2</ele>
        <time>2022-09-26T10:29:26Z</time>
      </trkpt>
      <trkpt lat="41.7493730" lon="2.0340700">
        <ele>646.7</ele>
        <time>2022-09-26T10:29:27Z</time>
      </trkpt>
      <trkpt lat="41.7493590" lon="2.0340280">
        <ele>646.2</ele>
        <time>2022-09-26T10:29:28Z</time>
      </trkpt>
      <trkpt lat="41.7493460" lon="2.0339900">
        <ele>645.8</ele>
        <time>2022-09-26T10:29:29Z</time>
      </trkpt>
      <trkpt lat="41.7493350" lon="2.0339790">
        <ele>645.7</ele>
        <time>2022-09-26T10:29:30Z</time>
      </trkpt>
      <trkpt lat="41.7493110" lon="2.0339430">
        <ele>645.3</ele>
        <time>2022-09-26T10:29:32Z</time>
      </trkpt>
      <trkpt lat="41.7493170" lon="2.0338420">
        <ele>644.7</ele>
        <time>2022-09-26T10:29:33Z</time>
      </trkpt>
      <trkpt lat="41.7493230" lon="2.0337670">
        <ele>644.5</ele>
        <time>2022-09-26T10:29:34Z</time>
      </trkpt>
      <trkpt lat="41.7493260" lon="2.0336410">
        <ele>644.2</ele>
        <time>2022-09-26T10:29:35Z</time>
      </trkpt>
      <trkpt lat="41.7493210" lon="2.0335770">
        <ele>644.2</ele>
        <time>2022-09-26T10:29:36Z</time>
      </trkpt>
      <trkpt lat="41.7492950" lon="2.0335320">
        <ele>644.1</ele>
        <time>2022-09-26T10:29:38Z</time>
      </trkpt>
      <trkpt lat="41.7492890" lon="2.0334470">
        <ele>644.0</ele>
        <time>2022-09-26T10:29:39Z</time>
      </trkpt>
      <trkpt lat="41.7492820" lon="2.0333630">
        <ele>643.9</ele>
        <time>2022-09-26T10:29:40Z</time>
      </trkpt>
      <trkpt lat="41.7492610" lon="2.0332710">
        <ele>643.8</ele>
        <time>2022-09-26T10:29:41Z</time>
      </trkpt>
      <trkpt lat="41.7492440" lon="2.0331980">
        <ele>643.7</ele>
        <time>2022-09-26T10:29:42Z</time>
      </trkpt>
      <trkpt lat="41.7492310" lon="2.0331220">
        <ele>643.5</ele>
        <time>2022-09-26T10:29:43Z</time>
      </trkpt>
      <trkpt lat="41.7492210" lon="2.0330400">
        <ele>643.4</ele>
        <time>2022-09-26T10:29:44Z</time>
      </trkpt>
      <trkpt lat="41.7492130" lon="2.0329590">
        <ele>643.2</ele>
        <time>2022-09-26T10:29:45Z</time>
      </trkpt>
      <trkpt lat="41.7492070" lon="2.0328820">
        <ele>642.9</ele>
        <time>2022-09-26T10:29:46Z</time>
      </trkpt>
      <trkpt lat="41.7492060" lon="2.0328050">
        <ele>642.7</ele>
        <time>2022-09-26T10:29:47Z</time>
      </trkpt>
      <trkpt lat="41.7492100" lon="2.0327240">
        <ele>642.3</ele>
        <time>2022-09-26T10:29:48Z</time>
      </trkpt>
      <trkpt lat="41.7492210" lon="2.0326390">
        <ele>641.9</ele>
        <time>2022-09-26T10:29:49Z</time>
      </trkpt>
      <trkpt lat="41.7492390" lon="2.0325590">
        <ele>641.3</ele>
        <time>2022-09-26T10:29:50Z</time>
      </trkpt>
      <trkpt lat="41.7492650" lon="2.0324910">
        <ele>640.7</ele>
        <time>2022-09-26T10:29:51Z</time>
      </trkpt>
      <trkpt lat="41.7492970" lon="2.0324290">
        <ele>640.0</ele>
        <time>2022-09-26T10:29:52Z</time>
      </trkpt>
      <trkpt lat="41.7493360" lon="2.0323700">
        <ele>639.2</ele>
        <time>2022-09-26T10:29:53Z</time>
      </trkpt>
      <trkpt lat="41.7493750" lon="2.0323120">
        <ele>638.2</ele>
        <time>2022-09-26T10:29:54Z</time>
      </trkpt>
      <trkpt lat="41.7494130" lon="2.0322600">
        <ele>637.2</ele>
        <time>2022-09-26T10:29:55Z</time>
      </trkpt>
      <trkpt lat="41.7494580" lon="2.0322160">
        <ele>636.0</ele>
        <time>2022-09-26T10:29:56Z</time>
      </trkpt>
      <trkpt lat="41.7495110" lon="2.0321810">
        <ele>634.7</ele>
        <time>2022-09-26T10:29:57Z</time>
      </trkpt>
      <trkpt lat="41.7495720" lon="2.0321740">
        <ele>633.2</ele>
        <time>2022-09-26T10:29:58Z</time>
      </trkpt>
      <trkpt lat="41.7496450" lon="2.0321720">
        <ele>631.5</ele>
        <time>2022-09-26T10:29:59Z</time>
      </trkpt>
      <trkpt lat="41.7497310" lon="2.0321770">
        <ele>629.6</ele>
        <time>2022-09-26T10:30:00Z</time>
      </trkpt>
      <trkpt lat="41.7498190" lon="2.0321740">
        <ele>627.8</ele>
        <time>2022-09-26T10:30:01Z</time>
      </trkpt>
      <trkpt lat="41.7499050" lon="2.0321610">
        <ele>626.1</ele>
        <time>2022-09-26T10:30:02Z</time>
      </trkpt>
      <trkpt lat="41.7499890" lon="2.0321460">
        <ele>624.4</ele>
        <time>2022-09-26T10:30:03Z</time>
      </trkpt>
      <trkpt lat="41.7500730" lon="2.0321340">
        <ele>622.8</ele>
        <time>2022-09-26T10:30:04Z</time>
      </trkpt>
      <trkpt lat="41.7501600" lon="2.0321230">
        <ele>621.2</ele>
        <time>2022-09-26T10:30:05Z</time>
      </trkpt>
      <trkpt lat="41.7502410" lon="2.0321160">
        <ele>619.8</ele>
        <time>2022-09-26T10:30:06Z</time>
      </trkpt>
      <trkpt lat="41.7503220" lon="2.0321050">
        <ele>618.3</ele>
        <time>2022-09-26T10:30:07Z</time>
      </trkpt>
      <trkpt lat="41.7504060" lon="2.0321020">
        <ele>616.8</ele>
        <time>2022-09-26T10:30:08Z</time>
      </trkpt>
      <trkpt lat="41.7504910" lon="2.0321070">
        <ele>615.2</ele>
        <time>2022-09-26T10:30:09Z</time>
      </trkpt>
      <trkpt lat="41.7505800" lon="2.0321220">
        <ele>613.5</ele>
        <time>2022-09-26T10:30:10Z</time>
      </trkpt>
      <trkpt lat="41.7506670" lon="2.0321450">
        <ele>611.6</ele>
        <time>2022-09-26T10:30:11Z</time>
      </trkpt>
      <trkpt lat="41.7507510" lon="2.0321670">
        <ele>609.8</ele>
        <time>2022-09-26T10:30:12Z</time>
      </trkpt>
      <trkpt lat="41.7508290" lon="2.0321720">
        <ele>608.1</ele>
        <time>2022-09-26T10:30:13Z</time>
      </trkpt>
      <trkpt lat="41.7508990" lon="2.0321600">
        <ele>606.6</ele>
        <time>2022-09-26T10:30:14Z</time>
      </trkpt>
      <trkpt lat="41.7509690" lon="2.0321310">
        <ele>605.0</ele>
        <time>2022-09-26T10:30:15Z</time>
      </trkpt>
      <trkpt lat="41.7510410" lon="2.0320990">
        <ele>603.4</ele>
        <time>2022-09-26T10:30:16Z</time>
      </trkpt>
      <trkpt lat="41.7511150" lon="2.0320800">
        <ele>601.8</ele>
        <time>2022-09-26T10:30:17Z</time>
      </trkpt>
      <trkpt lat="41.7511870" lon="2.0320780">
        <ele>600.3</ele>
        <time>2022-09-26T10:30:18Z</time>
      </trkpt>
      <trkpt lat="41.7512650" lon="2.0321140">
        <ele>598.6</ele>
        <time>2022-09-26T10:30:19Z</time>
      </trkpt>
      <trkpt lat="41.7513490" lon="2.0321630">
        <ele>596.9</ele>
        <time>2022-09-26T10:30:20Z</time>
      </trkpt>
      <trkpt lat="41.7514290" lon="2.0322130">
        <ele>595.4</ele>
        <time>2022-09-26T10:30:21Z</time>
      </trkpt>
      <trkpt lat="41.7515070" lon="2.0322570">
        <ele>594.2</ele>
        <time>2022-09-26T10:30:22Z</time>
      </trkpt>
      <trkpt lat="41.7515770" lon="2.0323010">
        <ele>593.1</ele>
        <time>2022-09-26T10:30:23Z</time>
      </trkpt>
      <trkpt lat="41.7516410" lon="2.0323490">
        <ele>592.1</ele>
        <time>2022-09-26T10:30:24Z</time>
      </trkpt>
      <trkpt lat="41.7517020" lon="2.0323960">
        <ele>591.1</ele>
        <time>2022-09-26T10:30:25Z</time>
      </trkpt>
      <trkpt lat="41.7517540" lon="2.0324510">
        <ele>590.1</ele>
        <time>2022-09-26T10:30:26Z</time>
      </trkpt>
      <trkpt lat="41.7517950" lon="2.0325140">
        <ele>589.1</ele>
        <time>2022-09-26T10:30:27Z</time>
      </trkpt>
      <trkpt lat="41.7518360" lon="2.0325690">
        <ele>588.1</ele>
        <time>2022-09-26T10:30:28Z</time>
      </trkpt>
      <trkpt lat="41.7518840" lon="2.0325970">
        <ele>587.2</ele>
        <time>2022-09-26T10:30:29Z</time>
      </trkpt>
      <trkpt lat="41.7519330" lon="2.0326030">
        <ele>586.4</ele>
        <time>2022-09-26T10:30:30Z</time>
      </trkpt>
      <trkpt lat="41.7519880" lon="2.0325930">
        <ele>585.5</ele>
        <time>2022-09-26T10:30:31Z</time>
      </trkpt>
      <trkpt lat="41.7520390" lon="2.0325740">
        <ele>584.8</ele>
        <time>2022-09-26T10:30:32Z</time>
      </trkpt>
      <trkpt lat="41.7520860" lon="2.0325540">
        <ele>584.1</ele>
        <time>2022-09-26T10:30:33Z</time>
      </trkpt>
      <trkpt lat="41.7521320" lon="2.0325270">
        <ele>583.5</ele>
        <time>2022-09-26T10:30:34Z</time>
      </trkpt>
      <trkpt lat="41.7521830" lon="2.0325030">
        <ele>582.9</ele>
        <time>2022-09-26T10:30:35Z</time>
      </trkpt>
      <trkpt lat="41.7522330" lon="2.0324770">
        <ele>582.4</ele>
        <time>2022-09-26T10:30:36Z</time>
      </trkpt>
      <trkpt lat="41.7522810" lon="2.0324560">
        <ele>582.0</ele>
        <time>2022-09-26T10:30:37Z</time>
      </trkpt>
      <trkpt lat="41.7523310" lon="2.0324380">
        <ele>581.6</ele>
        <time>2022-09-26T10:30:38Z</time>
      </trkpt>
      <trkpt lat="41.7523850" lon="2.0324220">
        <ele>581.3</ele>
        <time>2022-09-26T10:30:39Z</time>
      </trkpt>
      <trkpt lat="41.7524430" lon="2.0324020">
        <ele>581.0</ele>
        <time>2022-09-26T10:30:40Z</time>
      </trkpt>
      <trkpt lat="41.7525000" lon="2.0323830">
        <ele>580.8</ele>
        <time>2022-09-26T10:30:41Z</time>
      </trkpt>
      <trkpt lat="41.7525570" lon="2.0323600">
        <ele>580.6</ele>
        <time>2022-09-26T10:30:42Z</time>
      </trkpt>
      <trkpt lat="41.7526100" lon="2.0323350">
        <ele>580.5</ele>
        <time>2022-09-26T10:30:43Z</time>
      </trkpt>
      <trkpt lat="41.7526620" lon="2.0323200">
        <ele>580.4</ele>
        <time>2022-09-26T10:30:44Z</time>
      </trkpt>
      <trkpt lat="41.7527110" lon="2.0323090">
        <ele>580.3</ele>
        <time>2022-09-26T10:30:45Z</time>
      </trkpt>
      <trkpt lat="41.7527590" lon="2.0323050">
        <ele>580.2</ele>
        <time>2022-09-26T10:30:46Z</time>
      </trkpt>
      <trkpt lat="41.7528100" lon="2.0323090">
        <ele>580.0</ele>
        <time>2022-09-26T10:30:47Z</time>
      </trkpt>
      <trkpt lat="41.7528640" lon="2.0323160">
        <ele>579.8</ele>
        <time>2022-09-26T10:30:48Z</time>
      </trkpt>
      <trkpt lat="41.7529190" lon="2.0323280">
        <ele>579.6</ele>
        <time>2022-09-26T10:30:49Z</time>
      </trkpt>
      <trkpt lat="41.7529790" lon="2.0323470">
        <ele>579.3</ele>
        <time>2022-09-26T10:30:50Z</time>
      </trkpt>
      <trkpt lat="41.7530370" lon="2.0323710">
        <ele>578.9</ele>
        <time>2022-09-26T10:30:51Z</time>
      </trkpt>
      <trkpt lat="41.7530840" lon="2.0324020">
        <ele>578.4</ele>
        <time>2022-09-26T10:30:52Z</time>
      </trkpt>
      <trkpt lat="41.7531210" lon="2.0324360">
        <ele>577.8</ele>
        <time>2022-09-26T10:30:53Z</time>
      </trkpt>
      <trkpt lat="41.7531440" lon="2.0324660">
        <ele>577.3</ele>
        <time>2022-09-26T10:30:54Z</time>
      </trkpt>
      <trkpt lat="41.7531540" lon="2.0324790">
        <ele>577.0</ele>
        <time>2022-09-26T10:30:55Z</time>
      </trkpt>
      <trkpt lat="41.7531580" lon="2.0325210">
        <ele>576.8</ele>
        <time>2022-09-26T10:30:56Z</time>
      </trkpt>
      <trkpt lat="41.7531550" lon="2.0325370">
        <ele>576.7</ele>
        <time>2022-09-26T10:30:57Z</time>
      </trkpt>
      <trkpt lat="41.7531130" lon="2.0325390">
        <ele>576.4</ele>
        <time>2022-09-26T10:30:58Z</time>
      </trkpt>
      <trkpt lat="41.7530890" lon="2.0325370">
        <ele>576.3</ele>
        <time>2022-09-26T10:30:59Z</time>
      </trkpt>
      <trkpt lat="41.7530440" lon="2.0325300">
        <ele>576.1</ele>
        <time>2022-09-26T10:31:00Z</time>
      </trkpt>
      <trkpt lat="41.7530050" lon="2.0325220">
        <ele>576.0</ele>
        <time>2022-09-26T10:31:01Z</time>
      </trkpt>
      <trkpt lat="41.7529660" lon="2.0325140">
        <ele>575.9</ele>
        <time>2022-09-26T10:31:02Z</time>
      </trkpt>
      <trkpt lat="41.7529260" lon="2.0325090">
        <ele>575.9</ele>
        <time>2022-09-26T10:31:03Z</time>
      </trkpt>
      <trkpt lat="41.7528780" lon="2.0325070">
        <ele>575.9</ele>
        <time>2022-09-26T10:31:04Z</time>
      </trkpt>
      <trkpt lat="41.7528400" lon="2.0325090">
        <ele>576.0</ele>
        <time>2022-09-26T10:31:05Z</time>
      </trkpt>
      <trkpt lat="41.7528020" lon="2.0325190">
        <ele>576.0</ele>
        <time>2022-09-26T10:31:06Z</time>
      </trkpt>
      <trkpt lat="41.7527910" lon="2.0325230">
        <ele>576.0</ele>
        <time>2022-09-26T10:31:07Z</time>
      </trkpt>
      <trkpt lat="41.7527580" lon="2.0325330">
        <ele>576.0</ele>
        <time>2022-09-26T10:31:08Z</time>
      </trkpt>
      <trkpt lat="41.7527310" lon="2.0325390">
        <ele>576.1</ele>
        <time>2022-09-26T10:31:09Z</time>
      </trkpt>
      <trkpt lat="41.7526870" lon="2.0325490">
        <ele>576.1</ele>
        <time>2022-09-26T10:31:10Z</time>
      </trkpt>
      <trkpt lat="41.7526400" lon="2.0325580">
        <ele>576.1</ele>
        <time>2022-09-26T10:31:11Z</time>
      </trkpt>
      <trkpt lat="41.7526190" lon="2.0325620">
        <ele>576.1</ele>
        <time>2022-09-26T10:31:12Z</time>
      </trkpt>
      <trkpt lat="41.7525810" lon="2.0325720">
        <ele>576.1</ele>
        <time>2022-09-26T10:31:13Z</time>
      </trkpt>
      <trkpt lat="41.7525540" lon="2.0325830">
        <ele>576.0</ele>
        <time>2022-09-26T10:31:14Z</time>
      </trkpt>
      <trkpt lat="41.7525290" lon="2.0325970">
        <ele>576.0</ele>
        <time>2022-09-26T10:31:15Z</time>
      </trkpt>
      <trkpt lat="41.7524920" lon="2.0326260">
        <ele>575.9</ele>
        <time>2022-09-26T10:31:16Z</time>
      </trkpt>
      <trkpt lat="41.7524690" lon="2.0326510">
        <ele>575.8</ele>
        <time>2022-09-26T10:31:17Z</time>
      </trkpt>
      <trkpt lat="41.7524400" lon="2.0326920">
        <ele>575.6</ele>
        <time>2022-09-26T10:31:18Z</time>
      </trkpt>
      <trkpt lat="41.7524160" lon="2.0327370">
        <ele>575.4</ele>
        <time>2022-09-26T10:31:19Z</time>
      </trkpt>
      <trkpt lat="41.7523960" lon="2.0327910">
        <ele>575.2</ele>
        <time>2022-09-26T10:31:20Z</time>
      </trkpt>
      <trkpt lat="41.7523800" lon="2.0328470">
        <ele>575.0</ele>
        <time>2022-09-26T10:31:21Z</time>
      </trkpt>
      <trkpt lat="41.7523700" lon="2.0328920">
        <ele>574.8</ele>
        <time>2022-09-26T10:31:22Z</time>
      </trkpt>
      <trkpt lat="41.7523600" lon="2.0329640">
        <ele>574.6</ele>
        <time>2022-09-26T10:31:23Z</time>
      </trkpt>
      <trkpt lat="41.7523540" lon="2.0330130">
        <ele>574.4</ele>
        <time>2022-09-26T10:31:24Z</time>
      </trkpt>
      <trkpt lat="41.7523380" lon="2.0330690">
        <ele>574.2</ele>
        <time>2022-09-26T10:31:25Z</time>
      </trkpt>
      <trkpt lat="41.7523120" lon="2.0331140">
        <ele>574.0</ele>
        <time>2022-09-26T10:31:26Z</time>
      </trkpt>
      <trkpt lat="41.7522790" lon="2.0331330">
        <ele>573.9</ele>
        <time>2022-09-26T10:31:27Z</time>
      </trkpt>
      <trkpt lat="41.7522250" lon="2.0331360">
        <ele>573.6</ele>
        <time>2022-09-26T10:31:28Z</time>
      </trkpt>
      <trkpt lat="41.7521730" lon="2.0331150">
        <ele>573.4</ele>
        <time>2022-09-26T10:31:29Z</time>
      </trkpt>
      <trkpt lat="41.7521280" lon="2.0330820">
        <ele>573.2</ele>
        <time>2022-09-26T10:31:30Z</time>
      </trkpt>
      <trkpt lat="41.7520810" lon="2.0330490">
        <ele>573.0</ele>
        <time>2022-09-26T10:31:31Z</time>
      </trkpt>
      <trkpt lat="41.7520260" lon="2.0330190">
        <ele>572.8</ele>
        <time>2022-09-26T10:31:32Z</time>
      </trkpt>
      <trkpt lat="41.7519670" lon="2.0330030">
        <ele>572.5</ele>
        <time>2022-09-26T10:31:33Z</time>
      </trkpt>
      <trkpt lat="41.7519060" lon="2.0329980">
        <ele>572.2</ele>
        <time>2022-09-26T10:31:34Z</time>
      </trkpt>
      <trkpt lat="41.7518510" lon="2.0329930">
        <ele>571.9</ele>
        <time>2022-09-26T10:31:35Z</time>
      </trkpt>
      <trkpt lat="41.7517930" lon="2.0329890">
        <ele>571.5</ele>
        <time>2022-09-26T10:31:36Z</time>
      </trkpt>
      <trkpt lat="41.7517350" lon="2.0329810">
        <ele>571.0</ele>
        <time>2022-09-26T10:31:37Z</time>
      </trkpt>
      <trkpt lat="41.7516720" lon="2.0329740">
        <ele>570.4</ele>
        <time>2022-09-26T10:31:38Z</time>
      </trkpt>
      <trkpt lat="41.7516120" lon="2.0329720">
        <ele>569.7</ele>
        <time>2022-09-26T10:31:39Z</time>
      </trkpt>
      <trkpt lat="41.7515540" lon="2.0329700">
        <ele>568.9</ele>
        <time>2022-09-26T10:31:40Z</time>
      </trkpt>
      <trkpt lat="41.7515010" lon="2.0329670">
        <ele>568.3</ele>
        <time>2022-09-26T10:31:41Z</time>
      </trkpt>
      <trkpt lat="41.7514480" lon="2.0329770">
        <ele>567.8</ele>
        <time>2022-09-26T10:31:42Z</time>
      </trkpt>
      <trkpt lat="41.7514000" lon="2.0329990">
        <ele>567.2</ele>
        <time>2022-09-26T10:31:43Z</time>
      </trkpt>
      <trkpt lat="41.7513530" lon="2.0330380">
        <ele>566.5</ele>
        <time>2022-09-26T10:31:44Z</time>
      </trkpt>
      <trkpt lat="41.7513100" lon="2.0330950">
        <ele>565.6</ele>
        <time>2022-09-26T10:31:45Z</time>
      </trkpt>
      <trkpt lat="41.7512660" lon="2.0331570">
        <ele>564.7</ele>
        <time>2022-09-26T10:31:46Z</time>
      </trkpt>
      <trkpt lat="41.7512280" lon="2.0332190">
        <ele>563.7</ele>
        <time>2022-09-26T10:31:47Z</time>
      </trkpt>
      <trkpt lat="41.7511940" lon="2.0332780">
        <ele>562.7</ele>
        <time>2022-09-26T10:31:48Z</time>
      </trkpt>
      <trkpt lat="41.7511620" lon="2.0333380">
        <ele>561.8</ele>
        <time>2022-09-26T10:31:49Z</time>
      </trkpt>
      <trkpt lat="41.7511380" lon="2.0334020">
        <ele>560.8</ele>
        <time>2022-09-26T10:31:50Z</time>
      </trkpt>
      <trkpt lat="41.7511250" lon="2.0334680">
        <ele>559.5</ele>
        <time>2022-09-26T10:31:51Z</time>
      </trkpt>
      <trkpt lat="41.7511260" lon="2.0335350">
        <ele>558.3</ele>
        <time>2022-09-26T10:31:52Z</time>
      </trkpt>
      <trkpt lat="41.7511370" lon="2.0336040">
        <ele>557.0</ele>
        <time>2022-09-26T10:31:53Z</time>
      </trkpt>
      <trkpt lat="41.7511600" lon="2.0336730">
        <ele>555.6</ele>
        <time>2022-09-26T10:31:54Z</time>
      </trkpt>
      <trkpt lat="41.7511950" lon="2.0337370">
        <ele>554.2</ele>
        <time>2022-09-26T10:31:55Z</time>
      </trkpt>
      <trkpt lat="41.7512460" lon="2.0338110">
        <ele>552.3</ele>
        <time>2022-09-26T10:31:56Z</time>
      </trkpt>
      <trkpt lat="41.7513060" lon="2.0338840">
        <ele>550.3</ele>
        <time>2022-09-26T10:31:57Z</time>
      </trkpt>
      <trkpt lat="41.7513670" lon="2.0339510">
        <ele>548.4</ele>
        <time>2022-09-26T10:31:58Z</time>
      </trkpt>
      <trkpt lat="41.7514290" lon="2.0340090">
        <ele>546.6</ele>
        <time>2022-09-26T10:31:59Z</time>
      </trkpt>
      <trkpt lat="41.7514870" lon="2.0340650">
        <ele>544.8</ele>
        <time>2022-09-26T10:32:00Z</time>
      </trkpt>
      <trkpt lat="41.7515360" lon="2.0341200">
        <ele>543.1</ele>
        <time>2022-09-26T10:32:01Z</time>
      </trkpt>
      <trkpt lat="41.7515750" lon="2.0341660">
        <ele>541.7</ele>
        <time>2022-09-26T10:32:02Z</time>
      </trkpt>
      <trkpt lat="41.7515980" lon="2.0342000">
        <ele>540.8</ele>
        <time>2022-09-26T10:32:03Z</time>
      </trkpt>
      <trkpt lat="41.7516150" lon="2.0342320">
        <ele>540.0</ele>
        <time>2022-09-26T10:32:04Z</time>
      </trkpt>
      <trkpt lat="41.7516320" lon="2.0342690">
        <ele>539.1</ele>
        <time>2022-09-26T10:32:05Z</time>
      </trkpt>
      <trkpt lat="41.7516440" lon="2.0343070">
        <ele>538.5</ele>
        <time>2022-09-26T10:32:06Z</time>
      </trkpt>
      <trkpt lat="41.7516480" lon="2.0343570">
        <ele>538.5</ele>
        <time>2022-09-26T10:32:07Z</time>
      </trkpt>
      <trkpt lat="41.7516460" lon="2.0343970">
        <ele>538.5</ele>
        <time>2022-09-26T10:32:08Z</time>
      </trkpt>
      <trkpt lat="41.7516470" lon="2.0344140">
        <ele>538.5</ele>
        <time>2022-09-26T10:32:09Z</time>
      </trkpt>
      <trkpt lat="41.7516540" lon="2.0344540">
        <ele>538.5</ele>
        <time>2022-09-26T10:32:11Z</time>
      </trkpt>
      <trkpt lat="41.7516560" lon="2.0345200">
        <ele>538.8</ele>
        <time>2022-09-26T10:32:12Z</time>
      </trkpt>
      <trkpt lat="41.7516580" lon="2.0345610">
        <ele>538.9</ele>
        <time>2022-09-26T10:32:13Z</time>
      </trkpt>
      <trkpt lat="41.7516600" lon="2.0345980">
        <ele>539.0</ele>
        <time>2022-09-26T10:32:14Z</time>
      </trkpt>
      <trkpt lat="41.7516620" lon="2.0346340">
        <ele>539.2</ele>
        <time>2022-09-26T10:32:15Z</time>
      </trkpt>
      <trkpt lat="41.7516690" lon="2.0346810">
        <ele>539.3</ele>
        <time>2022-09-26T10:32:16Z</time>
      </trkpt>
      <trkpt lat="41.7516710" lon="2.0346970">
        <ele>539.4</ele>
        <time>2022-09-26T10:32:17Z</time>
      </trkpt>
      <trkpt lat="41.7516820" lon="2.0347520">
        <ele>539.7</ele>
        <time>2022-09-26T10:32:18Z</time>
      </trkpt>
      <trkpt lat="41.7516870" lon="2.0347740">
        <ele>539.8</ele>
        <time>2022-09-26T10:32:19Z</time>
      </trkpt>
      <trkpt lat="41.7517000" lon="2.0348130">
        <ele>540.0</ele>
        <time>2022-09-26T10:32:20Z</time>
      </trkpt>
      <trkpt lat="41.7517180" lon="2.0348590">
        <ele>540.3</ele>
        <time>2022-09-26T10:32:21Z</time>
      </trkpt>
      <trkpt lat="41.7517250" lon="2.0348770">
        <ele>540.4</ele>
        <time>2022-09-26T10:32:22Z</time>
      </trkpt>
      <trkpt lat="41.7517420" lon="2.0349240">
        <ele>540.7</ele>
        <time>2022-09-26T10:32:24Z</time>
      </trkpt>
      <trkpt lat="41.7517560" lon="2.0349690">
        <ele>541.0</ele>
        <time>2022-09-26T10:32:25Z</time>
      </trkpt>
      <trkpt lat="41.7517640" lon="2.0350140">
        <ele>541.3</ele>
        <time>2022-09-26T10:32:27Z</time>
      </trkpt>
      <trkpt lat="41.7517690" lon="2.0350610">
        <ele>541.7</ele>
        <time>2022-09-26T10:32:28Z</time>
      </trkpt>
      <trkpt lat="41.7517710" lon="2.0351070">
        <ele>542.1</ele>
        <time>2022-09-26T10:32:29Z</time>
      </trkpt>
      <trkpt lat="41.7517720" lon="2.0351190">
        <ele>542.2</ele>
        <time>2022-09-26T10:32:30Z</time>
      </trkpt>
      <trkpt lat="41.7517780" lon="2.0351560">
        <ele>542.5</ele>
        <time>2022-09-26T10:32:31Z</time>
      </trkpt>
      <trkpt lat="41.7517810" lon="2.0351690">
        <ele>542.6</ele>
        <time>2022-09-26T10:32:32Z</time>
      </trkpt>
      <trkpt lat="41.7517850" lon="2.0352160">
        <ele>543.1</ele>
        <time>2022-09-26T10:32:34Z</time>
      </trkpt>
      <trkpt lat="41.7517870" lon="2.0352350">
        <ele>543.2</ele>
        <time>2022-09-26T10:32:35Z</time>
      </trkpt>
      <trkpt lat="41.7517920" lon="2.0352800">
        <ele>543.7</ele>
        <time>2022-09-26T10:32:36Z</time>
      </trkpt>
      <trkpt lat="41.7517930" lon="2.0352930">
        <ele>543.8</ele>
        <time>2022-09-26T10:32:37Z</time>
      </trkpt>
      <trkpt lat="41.7517950" lon="2.0353430">
        <ele>544.3</ele>
        <time>2022-09-26T10:32:39Z</time>
      </trkpt>
      <trkpt lat="41.7517900" lon="2.0353850">
        <ele>544.7</ele>
        <time>2022-09-26T10:32:40Z</time>
      </trkpt>
      <trkpt lat="41.7517890" lon="2.0354000">
        <ele>544.9</ele>
        <time>2022-09-26T10:32:41Z</time>
      </trkpt>
      <trkpt lat="41.7517870" lon="2.0354430">
        <ele>545.3</ele>
        <time>2022-09-26T10:32:42Z</time>
      </trkpt>
      <trkpt lat="41.7517870" lon="2.0354580">
        <ele>545.5</ele>
        <time>2022-09-26T10:32:43Z</time>
      </trkpt>
      <trkpt lat="41.7517850" lon="2.0354800">
        <ele>545.7</ele>
        <time>2022-09-26T10:32:44Z</time>
      </trkpt>
      <trkpt lat="41.7517780" lon="2.0355290">
        <ele>546.2</ele>
        <time>2022-09-26T10:32:46Z</time>
      </trkpt>
      <trkpt lat="41.7517720" lon="2.0355690">
        <ele>546.6</ele>
        <time>2022-09-26T10:32:47Z</time>
      </trkpt>
      <trkpt lat="41.7517700" lon="2.0355820">
        <ele>546.7</ele>
        <time>2022-09-26T10:32:48Z</time>
      </trkpt>
      <trkpt lat="41.7517620" lon="2.0356300">
        <ele>547.2</ele>
        <time>2022-09-26T10:32:50Z</time>
      </trkpt>
      <trkpt lat="41.7517590" lon="2.0356440">
        <ele>547.4</ele>
        <time>2022-09-26T10:32:51Z</time>
      </trkpt>
      <trkpt lat="41.7517540" lon="2.0356620">
        <ele>547.6</ele>
        <time>2022-09-26T10:32:52Z</time>
      </trkpt>
      <trkpt lat="41.7517490" lon="2.0356830">
        <ele>547.8</ele>
        <time>2022-09-26T10:32:53Z</time>
      </trkpt>
      <trkpt lat="41.7517460" lon="2.0357030">
        <ele>548.0</ele>
        <time>2022-09-26T10:32:54Z</time>
      </trkpt>
      <trkpt lat="41.7517440" lon="2.0357260">
        <ele>548.3</ele>
        <time>2022-09-26T10:32:55Z</time>
      </trkpt>
      <trkpt lat="41.7517250" lon="2.0357780">
        <ele>548.8</ele>
        <time>2022-09-26T10:32:57Z</time>
      </trkpt>
      <trkpt lat="41.7517090" lon="2.0358260">
        <ele>549.3</ele>
        <time>2022-09-26T10:32:58Z</time>
      </trkpt>
      <trkpt lat="41.7517020" lon="2.0358410">
        <ele>549.5</ele>
        <time>2022-09-26T10:32:59Z</time>
      </trkpt>
      <trkpt lat="41.7516890" lon="2.0358730">
        <ele>549.8</ele>
        <time>2022-09-26T10:33:00Z</time>
      </trkpt>
      <trkpt lat="41.7516680" lon="2.0359090">
        <ele>550.2</ele>
        <time>2022-09-26T10:33:01Z</time>
      </trkpt>
      <trkpt lat="41.7516610" lon="2.0359200">
        <ele>550.3</ele>
        <time>2022-09-26T10:33:02Z</time>
      </trkpt>
      <trkpt lat="41.7516340" lon="2.0359470">
        <ele>550.7</ele>
        <time>2022-09-26T10:33:03Z</time>
      </trkpt>
      <trkpt lat="41.7516250" lon="2.0359550">
        <ele>550.8</ele>
        <time>2022-09-26T10:33:04Z</time>
      </trkpt>
      <trkpt lat="41.7515930" lon="2.0359810">
        <ele>551.1</ele>
        <time>2022-09-26T10:33:05Z</time>
      </trkpt>
      <trkpt lat="41.7515830" lon="2.0359880">
        <ele>551.3</ele>
        <time>2022-09-26T10:33:06Z</time>
      </trkpt>
      <trkpt lat="41.7515570" lon="2.0360080">
        <ele>551.5</ele>
        <time>2022-09-26T10:33:07Z</time>
      </trkpt>
      <trkpt lat="41.7515490" lon="2.0360120">
        <ele>551.6</ele>
        <time>2022-09-26T10:33:08Z</time>
      </trkpt>
      <trkpt lat="41.7515170" lon="2.0360290">
        <ele>551.9</ele>
        <time>2022-09-26T10:33:09Z</time>
      </trkpt>
      <trkpt lat="41.7515050" lon="2.0360340">
        <ele>552.0</ele>
        <time>2022-09-26T10:33:10Z</time>
      </trkpt>
      <trkpt lat="41.7514730" lon="2.0360500">
        <ele>552.2</ele>
        <time>2022-09-26T10:33:11Z</time>
      </trkpt>
      <trkpt lat="41.7514620" lon="2.0360570">
        <ele>552.3</ele>
        <time>2022-09-26T10:33:12Z</time>
      </trkpt>
      <trkpt lat="41.7514260" lon="2.0360830">
        <ele>552.6</ele>
        <time>2022-09-26T10:33:14Z</time>
      </trkpt>
      <trkpt lat="41.7514020" lon="2.0361010">
        <ele>552.8</ele>
        <time>2022-09-26T10:33:15Z</time>
      </trkpt>
      <trkpt lat="41.7513950" lon="2.0361100">
        <ele>552.9</ele>
        <time>2022-09-26T10:33:16Z</time>
      </trkpt>
      <trkpt lat="41.7513680" lon="2.0361430">
        <ele>553.1</ele>
        <time>2022-09-26T10:33:17Z</time>
      </trkpt>
      <trkpt lat="41.7513580" lon="2.0361540">
        <ele>553.2</ele>
        <time>2022-09-26T10:33:18Z</time>
      </trkpt>
      <trkpt lat="41.7513330" lon="2.0361780">
        <ele>553.4</ele>
        <time>2022-09-26T10:33:19Z</time>
      </trkpt>
      <trkpt lat="41.7513230" lon="2.0361870">
        <ele>553.5</ele>
        <time>2022-09-26T10:33:20Z</time>
      </trkpt>
      <trkpt lat="41.7512990" lon="2.0362210">
        <ele>553.8</ele>
        <time>2022-09-26T10:33:21Z</time>
      </trkpt>
      <trkpt lat="41.7512910" lon="2.0362330">
        <ele>553.9</ele>
        <time>2022-09-26T10:33:22Z</time>
      </trkpt>
      <trkpt lat="41.7512670" lon="2.0362700">
        <ele>554.2</ele>
        <time>2022-09-26T10:33:23Z</time>
      </trkpt>
      <trkpt lat="41.7512600" lon="2.0362800">
        <ele>554.2</ele>
        <time>2022-09-26T10:33:24Z</time>
      </trkpt>
      <trkpt lat="41.7512360" lon="2.0363100">
        <ele>554.5</ele>
        <time>2022-09-26T10:33:25Z</time>
      </trkpt>
      <trkpt lat="41.7512290" lon="2.0363210">
        <ele>554.6</ele>
        <time>2022-09-26T10:33:26Z</time>
      </trkpt>
      <trkpt lat="41.7512060" lon="2.0363590">
        <ele>554.9</ele>
        <time>2022-09-26T10:33:27Z</time>
      </trkpt>
      <trkpt lat="41.7511990" lon="2.0363710">
        <ele>555.0</ele>
        <time>2022-09-26T10:33:28Z</time>
      </trkpt>
      <trkpt lat="41.7511760" lon="2.0364070">
        <ele>555.4</ele>
        <time>2022-09-26T10:33:30Z</time>
      </trkpt>
      <trkpt lat="41.7511670" lon="2.0364170">
        <ele>555.5</ele>
        <time>2022-09-26T10:33:31Z</time>
      </trkpt>
      <trkpt lat="41.7511400" lon="2.0364550">
        <ele>555.9</ele>
        <time>2022-09-26T10:33:32Z</time>
      </trkpt>
      <trkpt lat="41.7511310" lon="2.0364710">
        <ele>556.1</ele>
        <time>2022-09-26T10:33:33Z</time>
      </trkpt>
      <trkpt lat="41.7511210" lon="2.0364910">
        <ele>556.2</ele>
        <time>2022-09-26T10:33:34Z</time>
      </trkpt>
      <trkpt lat="41.7511130" lon="2.0365110">
        <ele>556.4</ele>
        <time>2022-09-26T10:33:35Z</time>
      </trkpt>
      <trkpt lat="41.7510910" lon="2.0365420">
        <ele>556.8</ele>
        <time>2022-09-26T10:33:36Z</time>
      </trkpt>
      <trkpt lat="41.7510830" lon="2.0365520">
        <ele>556.9</ele>
        <time>2022-09-26T10:33:37Z</time>
      </trkpt>
      <trkpt lat="41.7510640" lon="2.0365850">
        <ele>557.3</ele>
        <time>2022-09-26T10:33:38Z</time>
      </trkpt>
      <trkpt lat="41.7510570" lon="2.0365970">
        <ele>557.4</ele>
        <time>2022-09-26T10:33:39Z</time>
      </trkpt>
      <trkpt lat="41.7510510" lon="2.0366120">
        <ele>557.5</ele>
        <time>2022-09-26T10:33:40Z</time>
      </trkpt>
      <trkpt lat="41.7510390" lon="2.0366290">
        <ele>557.7</ele>
        <time>2022-09-26T10:33:41Z</time>
      </trkpt>
      <trkpt lat="41.7510180" lon="2.0366600">
        <ele>558.1</ele>
        <time>2022-09-26T10:33:42Z</time>
      </trkpt>
      <trkpt lat="41.7510110" lon="2.0366710">
        <ele>558.2</ele>
        <time>2022-09-26T10:33:43Z</time>
      </trkpt>
      <trkpt lat="41.7509950" lon="2.0366890">
        <ele>558.5</ele>
        <time>2022-09-26T10:33:44Z</time>
      </trkpt>
      <trkpt lat="41.7509860" lon="2.0367040">
        <ele>558.6</ele>
        <time>2022-09-26T10:33:45Z</time>
      </trkpt>
      <trkpt lat="41.7509760" lon="2.0367210">
        <ele>558.8</ele>
        <time>2022-09-26T10:33:46Z</time>
      </trkpt>
      <trkpt lat="41.7509640" lon="2.0367340">
        <ele>559.0</ele>
        <time>2022-09-26T10:33:47Z</time>
      </trkpt>
      <trkpt lat="41.7509460" lon="2.0367460">
        <ele>559.2</ele>
        <time>2022-09-26T10:33:48Z</time>
      </trkpt>
      <trkpt lat="41.7509310" lon="2.0367540">
        <ele>559.4</ele>
        <time>2022-09-26T10:33:49Z</time>
      </trkpt>
      <trkpt lat="41.7509160" lon="2.0367610">
        <ele>559.6</ele>
        <time>2022-09-26T10:33:50Z</time>
      </trkpt>
      <trkpt lat="41.7509020" lon="2.0367710">
        <ele>559.7</ele>
        <time>2022-09-26T10:33:51Z</time>
      </trkpt>
      <trkpt lat="41.7508760" lon="2.0367800">
        <ele>560.0</ele>
        <time>2022-09-26T10:33:52Z</time>
      </trkpt>
      <trkpt lat="41.7508660" lon="2.0367810">
        <ele>560.1</ele>
        <time>2022-09-26T10:33:53Z</time>
      </trkpt>
      <trkpt lat="41.7508440" lon="2.0367810">
        <ele>560.3</ele>
        <time>2022-09-26T10:33:54Z</time>
      </trkpt>
      <trkpt lat="41.7508060" lon="2.0367800">
        <ele>560.7</ele>
        <time>2022-09-26T10:33:56Z</time>
      </trkpt>
      <trkpt lat="41.7507900" lon="2.0367850">
        <ele>560.9</ele>
        <time>2022-09-26T10:33:57Z</time>
      </trkpt>
      <trkpt lat="41.7507760" lon="2.0367900">
        <ele>561.0</ele>
        <time>2022-09-26T10:33:58Z</time>
      </trkpt>
      <trkpt lat="41.7507610" lon="2.0367930">
        <ele>561.1</ele>
        <time>2022-09-26T10:33:59Z</time>
      </trkpt>
      <trkpt lat="41.7507410" lon="2.0367920">
        <ele>561.3</ele>
        <time>2022-09-26T10:34:00Z</time>
      </trkpt>
      <trkpt lat="41.7507120" lon="2.0367930">
        <ele>561.6</ele>
        <time>2022-09-26T10:34:01Z</time>
      </trkpt>
      <trkpt lat="41.7507010" lon="2.0367940">
        <ele>561.7</ele>
        <time>2022-09-26T10:34:02Z</time>
      </trkpt>
      <trkpt lat="41.7506690" lon="2.0367930">
        <ele>561.9</ele>
        <time>2022-09-26T10:34:03Z</time>
      </trkpt>
      <trkpt lat="41.7506590" lon="2.0367920">
        <ele>562.0</ele>
        <time>2022-09-26T10:34:04Z</time>
      </trkpt>
      <trkpt lat="41.7506320" lon="2.0367920">
        <ele>562.2</ele>
        <time>2022-09-26T10:34:05Z</time>
      </trkpt>
      <trkpt lat="41.7506220" lon="2.0367930">
        <ele>562.3</ele>
        <time>2022-09-26T10:34:06Z</time>
      </trkpt>
      <trkpt lat="41.7505920" lon="2.0368000">
        <ele>562.6</ele>
        <time>2022-09-26T10:34:07Z</time>
      </trkpt>
      <trkpt lat="41.7505820" lon="2.0368030">
        <ele>562.6</ele>
        <time>2022-09-26T10:34:08Z</time>
      </trkpt>
      <trkpt lat="41.7505540" lon="2.0368140">
        <ele>562.9</ele>
        <time>2022-09-26T10:34:09Z</time>
      </trkpt>
      <trkpt lat="41.7505440" lon="2.0368170">
        <ele>563.0</ele>
        <time>2022-09-26T10:34:10Z</time>
      </trkpt>
      <trkpt lat="41.7505140" lon="2.0368290">
        <ele>563.2</ele>
        <time>2022-09-26T10:34:11Z</time>
      </trkpt>
      <trkpt lat="41.7505030" lon="2.0368330">
        <ele>563.3</ele>
        <time>2022-09-26T10:34:12Z</time>
      </trkpt>
      <trkpt lat="41.7504730" lon="2.0368490">
        <ele>563.6</ele>
        <time>2022-09-26T10:34:13Z</time>
      </trkpt>
      <trkpt lat="41.7504630" lon="2.0368540">
        <ele>563.6</ele>
        <time>2022-09-26T10:34:14Z</time>
      </trkpt>
      <trkpt lat="41.7504400" lon="2.0368690">
        <ele>563.8</ele>
        <time>2022-09-26T10:34:15Z</time>
      </trkpt>
      <trkpt lat="41.7504290" lon="2.0368760">
        <ele>563.9</ele>
        <time>2022-09-26T10:34:16Z</time>
      </trkpt>
      <trkpt lat="41.7504010" lon="2.0368930">
        <ele>564.2</ele>
        <time>2022-09-26T10:34:17Z</time>
      </trkpt>
      <trkpt lat="41.7503930" lon="2.0368980">
        <ele>564.3</ele>
        <time>2022-09-26T10:34:18Z</time>
      </trkpt>
      <trkpt lat="41.7503670" lon="2.0369170">
        <ele>564.5</ele>
        <time>2022-09-26T10:34:19Z</time>
      </trkpt>
      <trkpt lat="41.7503590" lon="2.0369220">
        <ele>564.6</ele>
        <time>2022-09-26T10:34:20Z</time>
      </trkpt>
      <trkpt lat="41.7503310" lon="2.0369280">
        <ele>564.8</ele>
        <time>2022-09-26T10:34:21Z</time>
      </trkpt>
      <trkpt lat="41.7503210" lon="2.0369280">
        <ele>564.9</ele>
        <time>2022-09-26T10:34:22Z</time>
      </trkpt>
      <trkpt lat="41.7502900" lon="2.0369240">
        <ele>565.1</ele>
        <time>2022-09-26T10:34:23Z</time>
      </trkpt>
      <trkpt lat="41.7502800" lon="2.0369220">
        <ele>565.2</ele>
        <time>2022-09-26T10:34:24Z</time>
      </trkpt>
      <trkpt lat="41.7502530" lon="2.0369050">
        <ele>565.4</ele>
        <time>2022-09-26T10:34:25Z</time>
      </trkpt>
      <trkpt lat="41.7502440" lon="2.0368990">
        <ele>565.5</ele>
        <time>2022-09-26T10:34:26Z</time>
      </trkpt>
      <trkpt lat="41.7502180" lon="2.0368680">
        <ele>565.7</ele>
        <time>2022-09-26T10:34:27Z</time>
      </trkpt>
      <trkpt lat="41.7502110" lon="2.0368570">
        <ele>565.8</ele>
        <time>2022-09-26T10:34:28Z</time>
      </trkpt>
      <trkpt lat="41.7501950" lon="2.0368190">
        <ele>566.0</ele>
        <time>2022-09-26T10:34:29Z</time>
      </trkpt>
      <trkpt lat="41.7501900" lon="2.0368060">
        <ele>566.1</ele>
        <time>2022-09-26T10:34:30Z</time>
      </trkpt>
      <trkpt lat="41.7501780" lon="2.0367680">
        <ele>566.3</ele>
        <time>2022-09-26T10:34:31Z</time>
      </trkpt>
      <trkpt lat="41.7501750" lon="2.0367580">
        <ele>566.3</ele>
        <time>2022-09-26T10:34:32Z</time>
      </trkpt>
      <trkpt lat="41.7501610" lon="2.0367120">
        <ele>566.5</ele>
        <time>2022-09-26T10:34:33Z</time>
      </trkpt>
      <trkpt lat="41.7501550" lon="2.0366970">
        <ele>566.6</ele>
        <time>2022-09-26T10:34:34Z</time>
      </trkpt>
      <trkpt lat="41.7501410" lon="2.0366620">
        <ele>566.7</ele>
        <time>2022-09-26T10:34:35Z</time>
      </trkpt>
      <trkpt lat="41.7501350" lon="2.0366510">
        <ele>566.7</ele>
        <time>2022-09-26T10:34:36Z</time>
      </trkpt>
      <trkpt lat="41.7501100" lon="2.0366180">
        <ele>566.9</ele>
        <time>2022-09-26T10:34:37Z</time>
      </trkpt>
      <trkpt lat="41.7501000" lon="2.0366060">
        <ele>566.9</ele>
        <time>2022-09-26T10:34:38Z</time>
      </trkpt>
      <trkpt lat="41.7500710" lon="2.0365900">
        <ele>567.1</ele>
        <time>2022-09-26T10:34:39Z</time>
      </trkpt>
      <trkpt lat="41.7500610" lon="2.0365860">
        <ele>567.1</ele>
        <time>2022-09-26T10:34:40Z</time>
      </trkpt>
      <trkpt lat="41.7500260" lon="2.0365850">
        <ele>567.2</ele>
        <time>2022-09-26T10:34:41Z</time>
      </trkpt>
      <trkpt lat="41.7500130" lon="2.0365870">
        <ele>567.3</ele>
        <time>2022-09-26T10:34:42Z</time>
      </trkpt>
      <trkpt lat="41.7499850" lon="2.0365880">
        <ele>567.4</ele>
        <time>2022-09-26T10:34:43Z</time>
      </trkpt>
      <trkpt lat="41.7499570" lon="2.0365860">
        <ele>567.4</ele>
        <time>2022-09-26T10:34:44Z</time>
      </trkpt>
      <trkpt lat="41.7499290" lon="2.0365860">
        <ele>567.5</ele>
        <time>2022-09-26T10:34:45Z</time>
      </trkpt>
      <trkpt lat="41.7499200" lon="2.0365870">
        <ele>567.6</ele>
        <time>2022-09-26T10:34:46Z</time>
      </trkpt>
      <trkpt lat="41.7498870" lon="2.0365930">
        <ele>567.7</ele>
        <time>2022-09-26T10:34:47Z</time>
      </trkpt>
      <trkpt lat="41.7498750" lon="2.0365950">
        <ele>567.7</ele>
        <time>2022-09-26T10:34:48Z</time>
      </trkpt>
      <trkpt lat="41.7498370" lon="2.0365930">
        <ele>567.8</ele>
        <time>2022-09-26T10:34:49Z</time>
      </trkpt>
      <trkpt lat="41.7498250" lon="2.0365910">
        <ele>567.9</ele>
        <time>2022-09-26T10:34:50Z</time>
      </trkpt>
      <trkpt lat="41.7498070" lon="2.0365880">
        <ele>567.9</ele>
        <time>2022-09-26T10:34:51Z</time>
      </trkpt>
      <trkpt lat="41.7497900" lon="2.0365890">
        <ele>568.0</ele>
        <time>2022-09-26T10:34:52Z</time>
      </trkpt>
      <trkpt lat="41.7497560" lon="2.0365800">
        <ele>568.1</ele>
        <time>2022-09-26T10:34:53Z</time>
      </trkpt>
      <trkpt lat="41.7497440" lon="2.0365770">
        <ele>568.2</ele>
        <time>2022-09-26T10:34:54Z</time>
      </trkpt>
      <trkpt lat="41.7497040" lon="2.0365600">
        <ele>568.3</ele>
        <time>2022-09-26T10:34:55Z</time>
      </trkpt>
      <trkpt lat="41.7496870" lon="2.0365540">
        <ele>568.4</ele>
        <time>2022-09-26T10:34:56Z</time>
      </trkpt>
      <trkpt lat="41.7496530" lon="2.0365310">
        <ele>568.5</ele>
        <time>2022-09-26T10:34:57Z</time>
      </trkpt>
      <trkpt lat="41.7496400" lon="2.0365230">
        <ele>568.5</ele>
        <time>2022-09-26T10:34:58Z</time>
      </trkpt>
      <trkpt lat="41.7495920" lon="2.0364840">
        <ele>568.7</ele>
        <time>2022-09-26T10:35:00Z</time>
      </trkpt>
      <trkpt lat="41.7495460" lon="2.0364520">
        <ele>568.9</ele>
        <time>2022-09-26T10:35:02Z</time>
      </trkpt>
      <trkpt lat="41.7495170" lon="2.0364280">
        <ele>569.0</ele>
        <time>2022-09-26T10:35:03Z</time>
      </trkpt>
      <trkpt lat="41.7494820" lon="2.0363950">
        <ele>569.1</ele>
        <time>2022-09-26T10:35:04Z</time>
      </trkpt>
      <trkpt lat="41.7494690" lon="2.0363810">
        <ele>569.1</ele>
        <time>2022-09-26T10:35:05Z</time>
      </trkpt>
      <trkpt lat="41.7494490" lon="2.0363590">
        <ele>569.1</ele>
        <time>2022-09-26T10:35:06Z</time>
      </trkpt>
      <trkpt lat="41.7493960" lon="2.0363040">
        <ele>569.3</ele>
        <time>2022-09-26T10:35:08Z</time>
      </trkpt>
      <trkpt lat="41.7493710" lon="2.0362750">
        <ele>569.3</ele>
        <time>2022-09-26T10:35:09Z</time>
      </trkpt>
      <trkpt lat="41.7493420" lon="2.0362520">
        <ele>569.3</ele>
        <time>2022-09-26T10:35:10Z</time>
      </trkpt>
      <trkpt lat="41.7493100" lon="2.0362310">
        <ele>569.4</ele>
        <time>2022-09-26T10:35:11Z</time>
      </trkpt>
      <trkpt lat="41.7492860" lon="2.0362130">
        <ele>569.4</ele>
        <time>2022-09-26T10:35:12Z</time>
      </trkpt>
      <trkpt lat="41.7492630" lon="2.0361950">
        <ele>569.5</ele>
        <time>2022-09-26T10:35:13Z</time>
      </trkpt>
      <trkpt lat="41.7492390" lon="2.0361720">
        <ele>569.5</ele>
        <time>2022-09-26T10:35:14Z</time>
      </trkpt>
      <trkpt lat="41.7492150" lon="2.0361490">
        <ele>569.6</ele>
        <time>2022-09-26T10:35:15Z</time>
      </trkpt>
      <trkpt lat="41.7491880" lon="2.0361250">
        <ele>569.6</ele>
        <time>2022-09-26T10:35:16Z</time>
      </trkpt>
      <trkpt lat="41.7491520" lon="2.0361040">
        <ele>569.7</ele>
        <time>2022-09-26T10:35:17Z</time>
      </trkpt>
      <trkpt lat="41.7491400" lon="2.0360980">
        <ele>569.7</ele>
        <time>2022-09-26T10:35:18Z</time>
      </trkpt>
      <trkpt lat="41.7491110" lon="2.0360840">
        <ele>569.8</ele>
        <time>2022-09-26T10:35:19Z</time>
      </trkpt>
      <trkpt lat="41.7490830" lon="2.0360720">
        <ele>569.8</ele>
        <time>2022-09-26T10:35:20Z</time>
      </trkpt>
      <trkpt lat="41.7490480" lon="2.0360580">
        <ele>569.9</ele>
        <time>2022-09-26T10:35:21Z</time>
      </trkpt>
      <trkpt lat="41.7490360" lon="2.0360530">
        <ele>569.9</ele>
        <time>2022-09-26T10:35:22Z</time>
      </trkpt>
      <trkpt lat="41.7490130" lon="2.0360540">
        <ele>570.0</ele>
        <time>2022-09-26T10:35:23Z</time>
      </trkpt>
      <trkpt lat="41.7489550" lon="2.0360780">
        <ele>570.1</ele>
        <time>2022-09-26T10:35:25Z</time>
      </trkpt>
      <trkpt lat="41.7489270" lon="2.0361070">
        <ele>570.2</ele>
        <time>2022-09-26T10:35:26Z</time>
      </trkpt>
      <trkpt lat="41.7488990" lon="2.0361340">
        <ele>570.2</ele>
        <time>2022-09-26T10:35:27Z</time>
      </trkpt>
      <trkpt lat="41.7488620" lon="2.0361880">
        <ele>570.3</ele>
        <time>2022-09-26T10:35:29Z</time>
      </trkpt>
      <trkpt lat="41.7488450" lon="2.0362180">
        <ele>570.4</ele>
        <time>2022-09-26T10:35:30Z</time>
      </trkpt>
      <trkpt lat="41.7488270" lon="2.0362470">
        <ele>570.5</ele>
        <time>2022-09-26T10:35:31Z</time>
      </trkpt>
      <trkpt lat="41.7487980" lon="2.0362870">
        <ele>570.6</ele>
        <time>2022-09-26T10:35:32Z</time>
      </trkpt>
      <trkpt lat="41.7487860" lon="2.0363010">
        <ele>570.6</ele>
        <time>2022-09-26T10:35:33Z</time>
      </trkpt>
      <trkpt lat="41.7487640" lon="2.0363230">
        <ele>570.7</ele>
        <time>2022-09-26T10:35:34Z</time>
      </trkpt>
      <trkpt lat="41.7487360" lon="2.0363500">
        <ele>570.8</ele>
        <time>2022-09-26T10:35:35Z</time>
      </trkpt>
      <trkpt lat="41.7486940" lon="2.0364000">
        <ele>570.9</ele>
        <time>2022-09-26T10:35:37Z</time>
      </trkpt>
      <trkpt lat="41.7486760" lon="2.0364360">
        <ele>571.0</ele>
        <time>2022-09-26T10:35:38Z</time>
      </trkpt>
      <trkpt lat="41.7486680" lon="2.0364840">
        <ele>571.1</ele>
        <time>2022-09-26T10:35:39Z</time>
      </trkpt>
      <trkpt lat="41.7486660" lon="2.0364990">
        <ele>571.2</ele>
        <time>2022-09-26T10:35:40Z</time>
      </trkpt>
      <trkpt lat="41.7486580" lon="2.0365430">
        <ele>571.3</ele>
        <time>2022-09-26T10:35:41Z</time>
      </trkpt>
      <trkpt lat="41.7486560" lon="2.0365580">
        <ele>571.3</ele>
        <time>2022-09-26T10:35:42Z</time>
      </trkpt>
      <trkpt lat="41.7486550" lon="2.0365950">
        <ele>571.4</ele>
        <time>2022-09-26T10:35:43Z</time>
      </trkpt>
      <trkpt lat="41.7486580" lon="2.0366410">
        <ele>571.6</ele>
        <time>2022-09-26T10:35:44Z</time>
      </trkpt>
      <trkpt lat="41.7486610" lon="2.0366560">
        <ele>571.6</ele>
        <time>2022-09-26T10:35:45Z</time>
      </trkpt>
      <trkpt lat="41.7486750" lon="2.0366940">
        <ele>571.8</ele>
        <time>2022-09-26T10:35:46Z</time>
      </trkpt>
      <trkpt lat="41.7486820" lon="2.0367070">
        <ele>571.8</ele>
        <time>2022-09-26T10:35:47Z</time>
      </trkpt>
      <trkpt lat="41.7486960" lon="2.0367500">
        <ele>572.0</ele>
        <time>2022-09-26T10:35:48Z</time>
      </trkpt>
      <trkpt lat="41.7487010" lon="2.0367660">
        <ele>572.1</ele>
        <time>2022-09-26T10:35:49Z</time>
      </trkpt>
      <trkpt lat="41.7487070" lon="2.0367980">
        <ele>572.2</ele>
        <time>2022-09-26T10:35:50Z</time>
      </trkpt>
      <trkpt lat="41.7487170" lon="2.0368430">
        <ele>572.4</ele>
        <time>2022-09-26T10:35:52Z</time>
      </trkpt>
      <trkpt lat="41.7487280" lon="2.0369060">
        <ele>572.7</ele>
        <time>2022-09-26T10:35:53Z</time>
      </trkpt>
      <trkpt lat="41.7487330" lon="2.0369360">
        <ele>572.9</ele>
        <time>2022-09-26T10:35:54Z</time>
      </trkpt>
      <trkpt lat="41.7487340" lon="2.0369810">
        <ele>573.1</ele>
        <time>2022-09-26T10:35:55Z</time>
      </trkpt>
      <trkpt lat="41.7487320" lon="2.0370240">
        <ele>573.4</ele>
        <time>2022-09-26T10:35:56Z</time>
      </trkpt>
      <trkpt lat="41.7487250" lon="2.0370910">
        <ele>573.8</ele>
        <time>2022-09-26T10:35:58Z</time>
      </trkpt>
      <trkpt lat="41.7487140" lon="2.0371460">
        <ele>574.2</ele>
        <time>2022-09-26T10:35:59Z</time>
      </trkpt>
      <trkpt lat="41.7487100" lon="2.0371660">
        <ele>574.3</ele>
        <time>2022-09-26T10:36:00Z</time>
      </trkpt>
      <trkpt lat="41.7487060" lon="2.0371930">
        <ele>574.5</ele>
        <time>2022-09-26T10:36:01Z</time>
      </trkpt>
      <trkpt lat="41.7486940" lon="2.0372770">
        <ele>575.2</ele>
        <time>2022-09-26T10:36:03Z</time>
      </trkpt>
      <trkpt lat="41.7486770" lon="2.0373260">
        <ele>575.6</ele>
        <time>2022-09-26T10:36:04Z</time>
      </trkpt>
      <trkpt lat="41.7486690" lon="2.0373420">
        <ele>575.7</ele>
        <time>2022-09-26T10:36:05Z</time>
      </trkpt>
      <trkpt lat="41.7486470" lon="2.0373790">
        <ele>576.1</ele>
        <time>2022-09-26T10:36:06Z</time>
      </trkpt>
      <trkpt lat="41.7486380" lon="2.0373890">
        <ele>576.2</ele>
        <time>2022-09-26T10:36:07Z</time>
      </trkpt>
      <trkpt lat="41.7486190" lon="2.0374180">
        <ele>576.5</ele>
        <time>2022-09-26T10:36:09Z</time>
      </trkpt>
      <trkpt lat="41.7485900" lon="2.0374460">
        <ele>576.9</ele>
        <time>2022-09-26T10:36:10Z</time>
      </trkpt>
      <trkpt lat="41.7485610" lon="2.0374680">
        <ele>577.2</ele>
        <time>2022-09-26T10:36:11Z</time>
      </trkpt>
      <trkpt lat="41.7485510" lon="2.0374760">
        <ele>577.3</ele>
        <time>2022-09-26T10:36:12Z</time>
      </trkpt>
      <trkpt lat="41.7485180" lon="2.0374980">
        <ele>577.7</ele>
        <time>2022-09-26T10:36:13Z</time>
      </trkpt>
      <trkpt lat="41.7485090" lon="2.0375050">
        <ele>577.8</ele>
        <time>2022-09-26T10:36:14Z</time>
      </trkpt>
      <trkpt lat="41.7484860" lon="2.0375240">
        <ele>578.1</ele>
        <time>2022-09-26T10:36:15Z</time>
      </trkpt>
      <trkpt lat="41.7484550" lon="2.0375470">
        <ele>578.4</ele>
        <time>2022-09-26T10:36:16Z</time>
      </trkpt>
      <trkpt lat="41.7484440" lon="2.0375530">
        <ele>578.5</ele>
        <time>2022-09-26T10:36:17Z</time>
      </trkpt>
      <trkpt lat="41.7484140" lon="2.0375760">
        <ele>578.9</ele>
        <time>2022-09-26T10:36:18Z</time>
      </trkpt>
      <trkpt lat="41.7484050" lon="2.0375830">
        <ele>579.0</ele>
        <time>2022-09-26T10:36:19Z</time>
      </trkpt>
      <trkpt lat="41.7483890" lon="2.0375970">
        <ele>579.2</ele>
        <time>2022-09-26T10:36:20Z</time>
      </trkpt>
      <trkpt lat="41.7483760" lon="2.0376060">
        <ele>579.3</ele>
        <time>2022-09-26T10:36:21Z</time>
      </trkpt>
      <trkpt lat="41.7483640" lon="2.0376190">
        <ele>579.4</ele>
        <time>2022-09-26T10:36:22Z</time>
      </trkpt>
      <trkpt lat="41.7483490" lon="2.0376290">
        <ele>579.6</ele>
        <time>2022-09-26T10:36:23Z</time>
      </trkpt>
      <trkpt lat="41.7483370" lon="2.0376430">
        <ele>579.7</ele>
        <time>2022-09-26T10:36:24Z</time>
      </trkpt>
      <trkpt lat="41.7483250" lon="2.0376590">
        <ele>579.9</ele>
        <time>2022-09-26T10:36:25Z</time>
      </trkpt>
      <trkpt lat="41.7483010" lon="2.0376840">
        <ele>580.2</ele>
        <time>2022-09-26T10:36:26Z</time>
      </trkpt>
      <trkpt lat="41.7482930" lon="2.0376900">
        <ele>580.2</ele>
        <time>2022-09-26T10:36:27Z</time>
      </trkpt>
      <trkpt lat="41.7482660" lon="2.0377090">
        <ele>580.5</ele>
        <time>2022-09-26T10:36:28Z</time>
      </trkpt>
      <trkpt lat="41.7482560" lon="2.0377150">
        <ele>580.6</ele>
        <time>2022-09-26T10:36:29Z</time>
      </trkpt>
      <trkpt lat="41.7482430" lon="2.0377240">
        <ele>580.7</ele>
        <time>2022-09-26T10:36:30Z</time>
      </trkpt>
      <trkpt lat="41.7482300" lon="2.0377310">
        <ele>580.9</ele>
        <time>2022-09-26T10:36:31Z</time>
      </trkpt>
      <trkpt lat="41.7482040" lon="2.0377400">
        <ele>581.1</ele>
        <time>2022-09-26T10:36:32Z</time>
      </trkpt>
      <trkpt lat="41.7481930" lon="2.0377440">
        <ele>581.2</ele>
        <time>2022-09-26T10:36:33Z</time>
      </trkpt>
      <trkpt lat="41.7481570" lon="2.0377610">
        <ele>581.6</ele>
        <time>2022-09-26T10:36:35Z</time>
      </trkpt>
      <trkpt lat="41.7481150" lon="2.0377810">
        <ele>582.0</ele>
        <time>2022-09-26T10:36:37Z</time>
      </trkpt>
      <trkpt lat="41.7480990" lon="2.0377900">
        <ele>582.1</ele>
        <time>2022-09-26T10:36:38Z</time>
      </trkpt>
      <trkpt lat="41.7480830" lon="2.0377990">
        <ele>582.3</ele>
        <time>2022-09-26T10:36:39Z</time>
      </trkpt>
      <trkpt lat="41.7480430" lon="2.0378180">
        <ele>582.7</ele>
        <time>2022-09-26T10:36:41Z</time>
      </trkpt>
      <trkpt lat="41.7480320" lon="2.0378250">
        <ele>582.8</ele>
        <time>2022-09-26T10:36:42Z</time>
      </trkpt>
      <trkpt lat="41.7480200" lon="2.0378310">
        <ele>582.9</ele>
        <time>2022-09-26T10:36:43Z</time>
      </trkpt>
      <trkpt lat="41.7480000" lon="2.0378450">
        <ele>583.1</ele>
        <time>2022-09-26T10:36:44Z</time>
      </trkpt>
      <trkpt lat="41.7479620" lon="2.0378680">
        <ele>583.5</ele>
        <time>2022-09-26T10:36:46Z</time>
      </trkpt>
      <trkpt lat="41.7479370" lon="2.0378780">
        <ele>583.7</ele>
        <time>2022-09-26T10:36:47Z</time>
      </trkpt>
      <trkpt lat="41.7479020" lon="2.0378940">
        <ele>584.0</ele>
        <time>2022-09-26T10:36:49Z</time>
      </trkpt>
      <trkpt lat="41.7478880" lon="2.0379020">
        <ele>584.2</ele>
        <time>2022-09-26T10:36:50Z</time>
      </trkpt>
      <trkpt lat="41.7478510" lon="2.0379180">
        <ele>584.5</ele>
        <time>2022-09-26T10:36:52Z</time>
      </trkpt>
      <trkpt lat="41.7478180" lon="2.0379300">
        <ele>584.8</ele>
        <time>2022-09-26T10:36:53Z</time>
      </trkpt>
      <trkpt lat="41.7478070" lon="2.0379330">
        <ele>584.9</ele>
        <time>2022-09-26T10:36:54Z</time>
      </trkpt>
      <trkpt lat="41.7477750" lon="2.0379450">
        <ele>585.2</ele>
        <time>2022-09-26T10:36:55Z</time>
      </trkpt>
      <trkpt lat="41.7477640" lon="2.0379510">
        <ele>585.3</ele>
        <time>2022-09-26T10:36:56Z</time>
      </trkpt>
      <trkpt lat="41.7477340" lon="2.0379630">
        <ele>585.6</ele>
        <time>2022-09-26T10:36:57Z</time>
      </trkpt>
      <trkpt lat="41.7477230" lon="2.0379680">
        <ele>585.7</ele>
        <time>2022-09-26T10:36:58Z</time>
      </trkpt>
      <trkpt lat="41.7476900" lon="2.0379890">
        <ele>586.0</ele>
        <time>2022-09-26T10:36:59Z</time>
      </trkpt>
      <trkpt lat="41.7476800" lon="2.0379960">
        <ele>586.1</ele>
        <time>2022-09-26T10:37:00Z</time>
      </trkpt>
      <trkpt lat="41.7476640" lon="2.0380070">
        <ele>586.2</ele>
        <time>2022-09-26T10:37:01Z</time>
      </trkpt>
      <trkpt lat="41.7476500" lon="2.0380190">
        <ele>586.4</ele>
        <time>2022-09-26T10:37:02Z</time>
      </trkpt>
      <trkpt lat="41.7476170" lon="2.0380420">
        <ele>586.7</ele>
        <time>2022-09-26T10:37:03Z</time>
      </trkpt>
      <trkpt lat="41.7476070" lon="2.0380500">
        <ele>586.8</ele>
        <time>2022-09-26T10:37:04Z</time>
      </trkpt>
      <trkpt lat="41.7475890" lon="2.0380650">
        <ele>587.0</ele>
        <time>2022-09-26T10:37:05Z</time>
      </trkpt>
      <trkpt lat="41.7475580" lon="2.0380850">
        <ele>587.3</ele>
        <time>2022-09-26T10:37:07Z</time>
      </trkpt>
      <trkpt lat="41.7475300" lon="2.0381000">
        <ele>587.5</ele>
        <time>2022-09-26T10:37:08Z</time>
      </trkpt>
      <trkpt lat="41.7474990" lon="2.0381170">
        <ele>587.8</ele>
        <time>2022-09-26T10:37:09Z</time>
      </trkpt>
      <trkpt lat="41.7474890" lon="2.0381230">
        <ele>587.9</ele>
        <time>2022-09-26T10:37:10Z</time>
      </trkpt>
      <trkpt lat="41.7474640" lon="2.0381490">
        <ele>588.2</ele>
        <time>2022-09-26T10:37:11Z</time>
      </trkpt>
      <trkpt lat="41.7474560" lon="2.0381570">
        <ele>588.3</ele>
        <time>2022-09-26T10:37:12Z</time>
      </trkpt>
      <trkpt lat="41.7474320" lon="2.0381790">
        <ele>588.5</ele>
        <time>2022-09-26T10:37:13Z</time>
      </trkpt>
      <trkpt lat="41.7474240" lon="2.0381880">
        <ele>588.6</ele>
        <time>2022-09-26T10:37:14Z</time>
      </trkpt>
      <trkpt lat="41.7473980" lon="2.0382140">
        <ele>588.8</ele>
        <time>2022-09-26T10:37:15Z</time>
      </trkpt>
      <trkpt lat="41.7473900" lon="2.0382220">
        <ele>588.9</ele>
        <time>2022-09-26T10:37:16Z</time>
      </trkpt>
      <trkpt lat="41.7473760" lon="2.0382320">
        <ele>589.0</ele>
        <time>2022-09-26T10:37:17Z</time>
      </trkpt>
      <trkpt lat="41.7473420" lon="2.0382600">
        <ele>589.4</ele>
        <time>2022-09-26T10:37:19Z</time>
      </trkpt>
      <trkpt lat="41.7473070" lon="2.0382740">
        <ele>589.6</ele>
        <time>2022-09-26T10:37:20Z</time>
      </trkpt>
      <trkpt lat="41.7472960" lon="2.0382750">
        <ele>589.7</ele>
        <time>2022-09-26T10:37:21Z</time>
      </trkpt>
      <trkpt lat="41.7472610" lon="2.0382880">
        <ele>590.0</ele>
        <time>2022-09-26T10:37:23Z</time>
      </trkpt>
      <trkpt lat="41.7472290" lon="2.0383030">
        <ele>590.3</ele>
        <time>2022-09-26T10:37:24Z</time>
      </trkpt>
      <trkpt lat="41.7472200" lon="2.0383080">
        <ele>590.3</ele>
        <time>2022-09-26T10:37:25Z</time>
      </trkpt>
      <trkpt lat="41.7471910" lon="2.0383160">
        <ele>590.6</ele>
        <time>2022-09-26T10:37:26Z</time>
      </trkpt>
      <trkpt lat="41.7471810" lon="2.0383180">
        <ele>590.6</ele>
        <time>2022-09-26T10:37:27Z</time>
      </trkpt>
      <trkpt lat="41.7471640" lon="2.0383230">
        <ele>590.8</ele>
        <time>2022-09-26T10:37:28Z</time>
      </trkpt>
      <trkpt lat="41.7471190" lon="2.0383290">
        <ele>591.1</ele>
        <time>2022-09-26T10:37:30Z</time>
      </trkpt>
      <trkpt lat="41.7470840" lon="2.0383340">
        <ele>591.4</ele>
        <time>2022-09-26T10:37:31Z</time>
      </trkpt>
      <trkpt lat="41.7470720" lon="2.0383350">
        <ele>591.5</ele>
        <time>2022-09-26T10:37:32Z</time>
      </trkpt>
      <trkpt lat="41.7470270" lon="2.0383480">
        <ele>591.8</ele>
        <time>2022-09-26T10:37:34Z</time>
      </trkpt>
      <trkpt lat="41.7470070" lon="2.0383520">
        <ele>592.0</ele>
        <time>2022-09-26T10:37:35Z</time>
      </trkpt>
      <trkpt lat="41.7469740" lon="2.0383470">
        <ele>592.2</ele>
        <time>2022-09-26T10:37:36Z</time>
      </trkpt>
      <trkpt lat="41.7469610" lon="2.0383440">
        <ele>592.3</ele>
        <time>2022-09-26T10:37:37Z</time>
      </trkpt>
      <trkpt lat="41.7469320" lon="2.0383440">
        <ele>592.5</ele>
        <time>2022-09-26T10:37:39Z</time>
      </trkpt>
      <trkpt lat="41.7468950" lon="2.0383440">
        <ele>592.7</ele>
        <time>2022-09-26T10:37:40Z</time>
      </trkpt>
      <trkpt lat="41.7468650" lon="2.0383420">
        <ele>592.8</ele>
        <time>2022-09-26T10:37:41Z</time>
      </trkpt>
      <trkpt lat="41.7468320" lon="2.0383420">
        <ele>593.0</ele>
        <time>2022-09-26T10:37:42Z</time>
      </trkpt>
      <trkpt lat="41.7468200" lon="2.0383420">
        <ele>593.0</ele>
        <time>2022-09-26T10:37:43Z</time>
      </trkpt>
      <trkpt lat="41.7467840" lon="2.0383400">
        <ele>593.1</ele>
        <time>2022-09-26T10:37:44Z</time>
      </trkpt>
      <trkpt lat="41.7467710" lon="2.0383400">
        <ele>593.2</ele>
        <time>2022-09-26T10:37:45Z</time>
      </trkpt>
      <trkpt lat="41.7467420" lon="2.0383320">
        <ele>593.2</ele>
        <time>2022-09-26T10:37:46Z</time>
      </trkpt>
      <trkpt lat="41.7467120" lon="2.0383150">
        <ele>593.3</ele>
        <time>2022-09-26T10:37:47Z</time>
      </trkpt>
      <trkpt lat="41.7466760" lon="2.0382910">
        <ele>593.3</ele>
        <time>2022-09-26T10:37:48Z</time>
      </trkpt>
      <trkpt lat="41.7466470" lon="2.0382700">
        <ele>593.3</ele>
        <time>2022-09-26T10:37:49Z</time>
      </trkpt>
      <trkpt lat="41.7466150" lon="2.0382460">
        <ele>593.2</ele>
        <time>2022-09-26T10:37:50Z</time>
      </trkpt>
      <trkpt lat="41.7465830" lon="2.0382110">
        <ele>593.2</ele>
        <time>2022-09-26T10:37:51Z</time>
      </trkpt>
      <trkpt lat="41.7465570" lon="2.0381680">
        <ele>593.1</ele>
        <time>2022-09-26T10:37:52Z</time>
      </trkpt>
      <trkpt lat="41.7465240" lon="2.0381190">
        <ele>593.0</ele>
        <time>2022-09-26T10:37:53Z</time>
      </trkpt>
      <trkpt lat="41.7464860" lon="2.0380660">
        <ele>592.9</ele>
        <time>2022-09-26T10:37:55Z</time>
      </trkpt>
      <trkpt lat="41.7464280" lon="2.0379830">
        <ele>592.8</ele>
        <time>2022-09-26T10:37:56Z</time>
      </trkpt>
      <trkpt lat="41.7463930" lon="2.0379400">
        <ele>592.7</ele>
        <time>2022-09-26T10:37:57Z</time>
      </trkpt>
      <trkpt lat="41.7463570" lon="2.0379070">
        <ele>592.6</ele>
        <time>2022-09-26T10:37:58Z</time>
      </trkpt>
      <trkpt lat="41.7463270" lon="2.0378820">
        <ele>592.5</ele>
        <time>2022-09-26T10:37:59Z</time>
      </trkpt>
      <trkpt lat="41.7462930" lon="2.0378550">
        <ele>592.5</ele>
        <time>2022-09-26T10:38:00Z</time>
      </trkpt>
      <trkpt lat="41.7462600" lon="2.0378310">
        <ele>592.4</ele>
        <time>2022-09-26T10:38:01Z</time>
      </trkpt>
      <trkpt lat="41.7462320" lon="2.0378040">
        <ele>592.4</ele>
        <time>2022-09-26T10:38:02Z</time>
      </trkpt>
      <trkpt lat="41.7462010" lon="2.0377800">
        <ele>592.4</ele>
        <time>2022-09-26T10:38:03Z</time>
      </trkpt>
      <trkpt lat="41.7461700" lon="2.0377600">
        <ele>592.3</ele>
        <time>2022-09-26T10:38:04Z</time>
      </trkpt>
      <trkpt lat="41.7461070" lon="2.0377590">
        <ele>592.3</ele>
        <time>2022-09-26T10:38:06Z</time>
      </trkpt>
      <trkpt lat="41.7460760" lon="2.0377670">
        <ele>592.4</ele>
        <time>2022-09-26T10:38:07Z</time>
      </trkpt>
      <trkpt lat="41.7460490" lon="2.0377980">
        <ele>592.4</ele>
        <time>2022-09-26T10:38:08Z</time>
      </trkpt>
      <trkpt lat="41.7460260" lon="2.0378410">
        <ele>592.5</ele>
        <time>2022-09-26T10:38:09Z</time>
      </trkpt>
      <trkpt lat="41.7460090" lon="2.0378760">
        <ele>592.5</ele>
        <time>2022-09-26T10:38:10Z</time>
      </trkpt>
      <trkpt lat="41.7459920" lon="2.0379070">
        <ele>592.6</ele>
        <time>2022-09-26T10:38:11Z</time>
      </trkpt>
      <trkpt lat="41.7459670" lon="2.0379500">
        <ele>592.7</ele>
        <time>2022-09-26T10:38:12Z</time>
      </trkpt>
      <trkpt lat="41.7459580" lon="2.0379650">
        <ele>592.7</ele>
        <time>2022-09-26T10:38:13Z</time>
      </trkpt>
      <trkpt lat="41.7459430" lon="2.0380020">
        <ele>592.8</ele>
        <time>2022-09-26T10:38:14Z</time>
      </trkpt>
      <trkpt lat="41.7459220" lon="2.0380440">
        <ele>592.9</ele>
        <time>2022-09-26T10:38:15Z</time>
      </trkpt>
      <trkpt lat="41.7459140" lon="2.0380580">
        <ele>593.0</ele>
        <time>2022-09-26T10:38:16Z</time>
      </trkpt>
      <trkpt lat="41.7458970" lon="2.0380890">
        <ele>593.1</ele>
        <time>2022-09-26T10:38:17Z</time>
      </trkpt>
      <trkpt lat="41.7458810" lon="2.0381210">
        <ele>593.2</ele>
        <time>2022-09-26T10:38:18Z</time>
      </trkpt>
      <trkpt lat="41.7458590" lon="2.0381540">
        <ele>593.3</ele>
        <time>2022-09-26T10:38:19Z</time>
      </trkpt>
      <trkpt lat="41.7458400" lon="2.0381800">
        <ele>593.6</ele>
        <time>2022-09-26T10:38:20Z</time>
      </trkpt>
      <trkpt lat="41.7458200" lon="2.0382060">
        <ele>593.8</ele>
        <time>2022-09-26T10:38:21Z</time>
      </trkpt>
      <trkpt lat="41.7458020" lon="2.0382340">
        <ele>593.9</ele>
        <time>2022-09-26T10:38:22Z</time>
      </trkpt>
      <trkpt lat="41.7457830" lon="2.0382620">
        <ele>594.1</ele>
        <time>2022-09-26T10:38:23Z</time>
      </trkpt>
      <trkpt lat="41.7457620" lon="2.0382910">
        <ele>594.3</ele>
        <time>2022-09-26T10:38:24Z</time>
      </trkpt>
      <trkpt lat="41.7457420" lon="2.0383170">
        <ele>594.5</ele>
        <time>2022-09-26T10:38:25Z</time>
      </trkpt>
      <trkpt lat="41.7457240" lon="2.0383390">
        <ele>594.6</ele>
        <time>2022-09-26T10:38:26Z</time>
      </trkpt>
      <trkpt lat="41.7456990" lon="2.0383670">
        <ele>594.8</ele>
        <time>2022-09-26T10:38:28Z</time>
      </trkpt>
      <trkpt lat="41.7456680" lon="2.0383980">
        <ele>595.1</ele>
        <time>2022-09-26T10:38:29Z</time>
      </trkpt>
      <trkpt lat="41.7456360" lon="2.0384330">
        <ele>595.3</ele>
        <time>2022-09-26T10:38:30Z</time>
      </trkpt>
      <trkpt lat="41.7456250" lon="2.0384470">
        <ele>595.4</ele>
        <time>2022-09-26T10:38:31Z</time>
      </trkpt>
      <trkpt lat="41.7455970" lon="2.0384770">
        <ele>595.6</ele>
        <time>2022-09-26T10:38:32Z</time>
      </trkpt>
      <trkpt lat="41.7455870" lon="2.0384870">
        <ele>595.7</ele>
        <time>2022-09-26T10:38:33Z</time>
      </trkpt>
      <trkpt lat="41.7455560" lon="2.0385220">
        <ele>596.0</ele>
        <time>2022-09-26T10:38:34Z</time>
      </trkpt>
      <trkpt lat="41.7455450" lon="2.0385360">
        <ele>596.1</ele>
        <time>2022-09-26T10:38:35Z</time>
      </trkpt>
      <trkpt lat="41.7455210" lon="2.0385610">
        <ele>596.3</ele>
        <time>2022-09-26T10:38:36Z</time>
      </trkpt>
      <trkpt lat="41.7455010" lon="2.0385790">
        <ele>596.4</ele>
        <time>2022-09-26T10:38:37Z</time>
      </trkpt>
      <trkpt lat="41.7454680" lon="2.0386110">
        <ele>596.6</ele>
        <time>2022-09-26T10:38:39Z</time>
      </trkpt>
      <trkpt lat="41.7454350" lon="2.0386480">
        <ele>596.9</ele>
        <time>2022-09-26T10:38:40Z</time>
      </trkpt>
      <trkpt lat="41.7454130" lon="2.0386730">
        <ele>597.0</ele>
        <time>2022-09-26T10:38:41Z</time>
      </trkpt>
      <trkpt lat="41.7453850" lon="2.0387020">
        <ele>597.2</ele>
        <time>2022-09-26T10:38:42Z</time>
      </trkpt>
      <trkpt lat="41.7453740" lon="2.0387130">
        <ele>597.3</ele>
        <time>2022-09-26T10:38:43Z</time>
      </trkpt>
      <trkpt lat="41.7453500" lon="2.0387330">
        <ele>597.4</ele>
        <time>2022-09-26T10:38:44Z</time>
      </trkpt>
      <trkpt lat="41.7453230" lon="2.0387480">
        <ele>597.6</ele>
        <time>2022-09-26T10:38:45Z</time>
      </trkpt>
      <trkpt lat="41.7452970" lon="2.0387690">
        <ele>597.7</ele>
        <time>2022-09-26T10:38:46Z</time>
      </trkpt>
      <trkpt lat="41.7452730" lon="2.0387900">
        <ele>597.8</ele>
        <time>2022-09-26T10:38:47Z</time>
      </trkpt>
      <trkpt lat="41.7452470" lon="2.0388100">
        <ele>598.0</ele>
        <time>2022-09-26T10:38:48Z</time>
      </trkpt>
      <trkpt lat="41.7452160" lon="2.0388340">
        <ele>598.1</ele>
        <time>2022-09-26T10:38:49Z</time>
      </trkpt>
      <trkpt lat="41.7452060" lon="2.0388430">
        <ele>598.2</ele>
        <time>2022-09-26T10:38:50Z</time>
      </trkpt>
      <trkpt lat="41.7451700" lon="2.0388690">
        <ele>598.4</ele>
        <time>2022-09-26T10:38:51Z</time>
      </trkpt>
      <trkpt lat="41.7451570" lon="2.0388780">
        <ele>598.4</ele>
        <time>2022-09-26T10:38:52Z</time>
      </trkpt>
      <trkpt lat="41.7451300" lon="2.0388970">
        <ele>598.6</ele>
        <time>2022-09-26T10:38:53Z</time>
      </trkpt>
      <trkpt lat="41.7450970" lon="2.0389130">
        <ele>598.7</ele>
        <time>2022-09-26T10:38:54Z</time>
      </trkpt>
      <trkpt lat="41.7450870" lon="2.0389200">
        <ele>598.8</ele>
        <time>2022-09-26T10:38:55Z</time>
      </trkpt>
      <trkpt lat="41.7450500" lon="2.0389450">
        <ele>599.0</ele>
        <time>2022-09-26T10:38:56Z</time>
      </trkpt>
      <trkpt lat="41.7450360" lon="2.0389550">
        <ele>599.0</ele>
        <time>2022-09-26T10:38:57Z</time>
      </trkpt>
      <trkpt lat="41.7450090" lon="2.0389790">
        <ele>599.2</ele>
        <time>2022-09-26T10:38:58Z</time>
      </trkpt>
      <trkpt lat="41.7449840" lon="2.0390100">
        <ele>599.4</ele>
        <time>2022-09-26T10:38:59Z</time>
      </trkpt>
      <trkpt lat="41.7449610" lon="2.0390420">
        <ele>599.5</ele>
        <time>2022-09-26T10:39:00Z</time>
      </trkpt>
      <trkpt lat="41.7449370" lon="2.0390820">
        <ele>599.7</ele>
        <time>2022-09-26T10:39:01Z</time>
      </trkpt>
      <trkpt lat="41.7449280" lon="2.0390980">
        <ele>599.8</ele>
        <time>2022-09-26T10:39:02Z</time>
      </trkpt>
      <trkpt lat="41.7449140" lon="2.0391300">
        <ele>600.0</ele>
        <time>2022-09-26T10:39:03Z</time>
      </trkpt>
      <trkpt lat="41.7448980" lon="2.0391610">
        <ele>600.1</ele>
        <time>2022-09-26T10:39:04Z</time>
      </trkpt>
      <trkpt lat="41.7448800" lon="2.0391890">
        <ele>600.3</ele>
        <time>2022-09-26T10:39:05Z</time>
      </trkpt>
      <trkpt lat="41.7448500" lon="2.0392220">
        <ele>600.5</ele>
        <time>2022-09-26T10:39:06Z</time>
      </trkpt>
      <trkpt lat="41.7448410" lon="2.0392310">
        <ele>600.6</ele>
        <time>2022-09-26T10:39:07Z</time>
      </trkpt>
      <trkpt lat="41.7448090" lon="2.0392620">
        <ele>600.8</ele>
        <time>2022-09-26T10:39:08Z</time>
      </trkpt>
      <trkpt lat="41.7447970" lon="2.0392730">
        <ele>600.9</ele>
        <time>2022-09-26T10:39:09Z</time>
      </trkpt>
      <trkpt lat="41.7447730" lon="2.0392930">
        <ele>601.1</ele>
        <time>2022-09-26T10:39:10Z</time>
      </trkpt>
      <trkpt lat="41.7447480" lon="2.0393140">
        <ele>601.3</ele>
        <time>2022-09-26T10:39:11Z</time>
      </trkpt>
      <trkpt lat="41.7447200" lon="2.0393370">
        <ele>601.5</ele>
        <time>2022-09-26T10:39:12Z</time>
      </trkpt>
      <trkpt lat="41.7446870" lon="2.0393650">
        <ele>601.8</ele>
        <time>2022-09-26T10:39:13Z</time>
      </trkpt>
      <trkpt lat="41.7446760" lon="2.0393750">
        <ele>601.9</ele>
        <time>2022-09-26T10:39:14Z</time>
      </trkpt>
      <trkpt lat="41.7446450" lon="2.0394090">
        <ele>602.2</ele>
        <time>2022-09-26T10:39:15Z</time>
      </trkpt>
      <trkpt lat="41.7446340" lon="2.0394210">
        <ele>602.3</ele>
        <time>2022-09-26T10:39:16Z</time>
      </trkpt>
      <trkpt lat="41.7446140" lon="2.0394470">
        <ele>602.5</ele>
        <time>2022-09-26T10:39:17Z</time>
      </trkpt>
      <trkpt lat="41.7445910" lon="2.0394770">
        <ele>602.7</ele>
        <time>2022-09-26T10:39:18Z</time>
      </trkpt>
      <trkpt lat="41.7445830" lon="2.0394880">
        <ele>602.8</ele>
        <time>2022-09-26T10:39:19Z</time>
      </trkpt>
      <trkpt lat="41.7445550" lon="2.0395230">
        <ele>603.1</ele>
        <time>2022-09-26T10:39:20Z</time>
      </trkpt>
      <trkpt lat="41.7445460" lon="2.0395370">
        <ele>603.2</ele>
        <time>2022-09-26T10:39:21Z</time>
      </trkpt>
      <trkpt lat="41.7445180" lon="2.0395730">
        <ele>603.4</ele>
        <time>2022-09-26T10:39:22Z</time>
      </trkpt>
      <trkpt lat="41.7445090" lon="2.0395860">
        <ele>603.5</ele>
        <time>2022-09-26T10:39:23Z</time>
      </trkpt>
      <trkpt lat="41.7444810" lon="2.0396230">
        <ele>603.8</ele>
        <time>2022-09-26T10:39:24Z</time>
      </trkpt>
      <trkpt lat="41.7444720" lon="2.0396370">
        <ele>603.9</ele>
        <time>2022-09-26T10:39:25Z</time>
      </trkpt>
      <trkpt lat="41.7444520" lon="2.0396660">
        <ele>604.0</ele>
        <time>2022-09-26T10:39:26Z</time>
      </trkpt>
      <trkpt lat="41.7444350" lon="2.0396940">
        <ele>604.2</ele>
        <time>2022-09-26T10:39:27Z</time>
      </trkpt>
      <trkpt lat="41.7444150" lon="2.0397200">
        <ele>604.3</ele>
        <time>2022-09-26T10:39:28Z</time>
      </trkpt>
      <trkpt lat="41.7443900" lon="2.0397590">
        <ele>604.5</ele>
        <time>2022-09-26T10:39:29Z</time>
      </trkpt>
      <trkpt lat="41.7443820" lon="2.0397730">
        <ele>604.6</ele>
        <time>2022-09-26T10:39:30Z</time>
      </trkpt>
      <trkpt lat="41.7443520" lon="2.0398060">
        <ele>604.8</ele>
        <time>2022-09-26T10:39:31Z</time>
      </trkpt>
      <trkpt lat="41.7443420" lon="2.0398160">
        <ele>604.8</ele>
        <time>2022-09-26T10:39:32Z</time>
      </trkpt>
      <trkpt lat="41.7443210" lon="2.0398350">
        <ele>604.9</ele>
        <time>2022-09-26T10:39:33Z</time>
      </trkpt>
      <trkpt lat="41.7442780" lon="2.0398620">
        <ele>605.0</ele>
        <time>2022-09-26T10:39:35Z</time>
      </trkpt>
      <trkpt lat="41.7442420" lon="2.0398700">
        <ele>605.2</ele>
        <time>2022-09-26T10:39:36Z</time>
      </trkpt>
      <trkpt lat="41.7441910" lon="2.0398710">
        <ele>605.3</ele>
        <time>2022-09-26T10:39:37Z</time>
      </trkpt>
      <trkpt lat="41.7441630" lon="2.0398730">
        <ele>605.3</ele>
        <time>2022-09-26T10:39:38Z</time>
      </trkpt>
      <trkpt lat="41.7441340" lon="2.0398740">
        <ele>605.4</ele>
        <time>2022-09-26T10:39:39Z</time>
      </trkpt>
      <trkpt lat="41.7440950" lon="2.0398830">
        <ele>605.5</ele>
        <time>2022-09-26T10:39:40Z</time>
      </trkpt>
      <trkpt lat="41.7440810" lon="2.0398880">
        <ele>605.5</ele>
        <time>2022-09-26T10:39:41Z</time>
      </trkpt>
      <trkpt lat="41.7440510" lon="2.0399040">
        <ele>605.6</ele>
        <time>2022-09-26T10:39:42Z</time>
      </trkpt>
      <trkpt lat="41.7440250" lon="2.0399260">
        <ele>605.7</ele>
        <time>2022-09-26T10:39:43Z</time>
      </trkpt>
      <trkpt lat="41.7440080" lon="2.0399540">
        <ele>605.8</ele>
        <time>2022-09-26T10:39:44Z</time>
      </trkpt>
      <trkpt lat="41.7439900" lon="2.0399880">
        <ele>605.9</ele>
        <time>2022-09-26T10:39:45Z</time>
      </trkpt>
      <trkpt lat="41.7439700" lon="2.0400190">
        <ele>606.0</ele>
        <time>2022-09-26T10:39:46Z</time>
      </trkpt>
      <trkpt lat="41.7439520" lon="2.0400500">
        <ele>606.1</ele>
        <time>2022-09-26T10:39:47Z</time>
      </trkpt>
      <trkpt lat="41.7439300" lon="2.0400900">
        <ele>606.2</ele>
        <time>2022-09-26T10:39:48Z</time>
      </trkpt>
      <trkpt lat="41.7439230" lon="2.0401010">
        <ele>606.3</ele>
        <time>2022-09-26T10:39:49Z</time>
      </trkpt>
      <trkpt lat="41.7439020" lon="2.0401370">
        <ele>606.5</ele>
        <time>2022-09-26T10:39:50Z</time>
      </trkpt>
      <trkpt lat="41.7438940" lon="2.0401490">
        <ele>606.5</ele>
        <time>2022-09-26T10:39:51Z</time>
      </trkpt>
      <trkpt lat="41.7438760" lon="2.0401770">
        <ele>606.7</ele>
        <time>2022-09-26T10:39:52Z</time>
      </trkpt>
      <trkpt lat="41.7438590" lon="2.0402090">
        <ele>606.8</ele>
        <time>2022-09-26T10:39:53Z</time>
      </trkpt>
      <trkpt lat="41.7438360" lon="2.0402500">
        <ele>607.0</ele>
        <time>2022-09-26T10:39:54Z</time>
      </trkpt>
      <trkpt lat="41.7438280" lon="2.0402660">
        <ele>607.1</ele>
        <time>2022-09-26T10:39:55Z</time>
      </trkpt>
      <trkpt lat="41.7438100" lon="2.0402970">
        <ele>607.3</ele>
        <time>2022-09-26T10:39:56Z</time>
      </trkpt>
      <trkpt lat="41.7437710" lon="2.0403580">
        <ele>607.6</ele>
        <time>2022-09-26T10:39:58Z</time>
      </trkpt>
      <trkpt lat="41.7437440" lon="2.0403920">
        <ele>607.9</ele>
        <time>2022-09-26T10:39:59Z</time>
      </trkpt>
      <trkpt lat="41.7437360" lon="2.0404020">
        <ele>607.9</ele>
        <time>2022-09-26T10:40:00Z</time>
      </trkpt>
      <trkpt lat="41.7437110" lon="2.0404360">
        <ele>608.2</ele>
        <time>2022-09-26T10:40:01Z</time>
      </trkpt>
      <trkpt lat="41.7437020" lon="2.0404490">
        <ele>608.2</ele>
        <time>2022-09-26T10:40:02Z</time>
      </trkpt>
      <trkpt lat="41.7436730" lon="2.0404840">
        <ele>608.5</ele>
        <time>2022-09-26T10:40:03Z</time>
      </trkpt>
      <trkpt lat="41.7436640" lon="2.0404950">
        <ele>608.6</ele>
        <time>2022-09-26T10:40:04Z</time>
      </trkpt>
      <trkpt lat="41.7436360" lon="2.0405190">
        <ele>608.8</ele>
        <time>2022-09-26T10:40:05Z</time>
      </trkpt>
      <trkpt lat="41.7436260" lon="2.0405270">
        <ele>608.9</ele>
        <time>2022-09-26T10:40:06Z</time>
      </trkpt>
      <trkpt lat="41.7435980" lon="2.0405450">
        <ele>609.1</ele>
        <time>2022-09-26T10:40:07Z</time>
      </trkpt>
      <trkpt lat="41.7435750" lon="2.0405660">
        <ele>609.2</ele>
        <time>2022-09-26T10:40:08Z</time>
      </trkpt>
      <trkpt lat="41.7435450" lon="2.0405890">
        <ele>609.4</ele>
        <time>2022-09-26T10:40:09Z</time>
      </trkpt>
      <trkpt lat="41.7435370" lon="2.0405970">
        <ele>609.5</ele>
        <time>2022-09-26T10:40:10Z</time>
      </trkpt>
      <trkpt lat="41.7435080" lon="2.0406270">
        <ele>609.7</ele>
        <time>2022-09-26T10:40:12Z</time>
      </trkpt>
      <trkpt lat="41.7434720" lon="2.0406540">
        <ele>610.0</ele>
        <time>2022-09-26T10:40:13Z</time>
      </trkpt>
      <trkpt lat="41.7434580" lon="2.0406620">
        <ele>610.1</ele>
        <time>2022-09-26T10:40:14Z</time>
      </trkpt>
      <trkpt lat="41.7434290" lon="2.0406810">
        <ele>610.2</ele>
        <time>2022-09-26T10:40:15Z</time>
      </trkpt>
      <trkpt lat="41.7434030" lon="2.0406970">
        <ele>610.4</ele>
        <time>2022-09-26T10:40:16Z</time>
      </trkpt>
      <trkpt lat="41.7433760" lon="2.0407100">
        <ele>610.6</ele>
        <time>2022-09-26T10:40:17Z</time>
      </trkpt>
      <trkpt lat="41.7433120" lon="2.0407410">
        <ele>610.9</ele>
        <time>2022-09-26T10:40:19Z</time>
      </trkpt>
      <trkpt lat="41.7432790" lon="2.0407500">
        <ele>611.1</ele>
        <time>2022-09-26T10:40:20Z</time>
      </trkpt>
      <trkpt lat="41.7432440" lon="2.0407680">
        <ele>611.3</ele>
        <time>2022-09-26T10:40:21Z</time>
      </trkpt>
      <trkpt lat="41.7432290" lon="2.0407740">
        <ele>611.4</ele>
        <time>2022-09-26T10:40:22Z</time>
      </trkpt>
      <trkpt lat="41.7432020" lon="2.0407850">
        <ele>611.5</ele>
        <time>2022-09-26T10:40:23Z</time>
      </trkpt>
      <trkpt lat="41.7431660" lon="2.0408070">
        <ele>611.7</ele>
        <time>2022-09-26T10:40:24Z</time>
      </trkpt>
      <trkpt lat="41.7431530" lon="2.0408130">
        <ele>611.8</ele>
        <time>2022-09-26T10:40:25Z</time>
      </trkpt>
      <trkpt lat="41.7431280" lon="2.0408290">
        <ele>611.9</ele>
        <time>2022-09-26T10:40:26Z</time>
      </trkpt>
      <trkpt lat="41.7430950" lon="2.0408450">
        <ele>612.1</ele>
        <time>2022-09-26T10:40:27Z</time>
      </trkpt>
      <trkpt lat="41.7430840" lon="2.0408490">
        <ele>612.1</ele>
        <time>2022-09-26T10:40:28Z</time>
      </trkpt>
      <trkpt lat="41.7430570" lon="2.0408580">
        <ele>612.3</ele>
        <time>2022-09-26T10:40:29Z</time>
      </trkpt>
      <trkpt lat="41.7430300" lon="2.0408730">
        <ele>612.4</ele>
        <time>2022-09-26T10:40:30Z</time>
      </trkpt>
      <trkpt lat="41.7430030" lon="2.0408860">
        <ele>612.5</ele>
        <time>2022-09-26T10:40:31Z</time>
      </trkpt>
      <trkpt lat="41.7429710" lon="2.0409010">
        <ele>612.7</ele>
        <time>2022-09-26T10:40:32Z</time>
      </trkpt>
      <trkpt lat="41.7429610" lon="2.0409060">
        <ele>612.7</ele>
        <time>2022-09-26T10:40:33Z</time>
      </trkpt>
      <trkpt lat="41.7429330" lon="2.0409220">
        <ele>612.9</ele>
        <time>2022-09-26T10:40:34Z</time>
      </trkpt>
      <trkpt lat="41.7429240" lon="2.0409250">
        <ele>612.9</ele>
        <time>2022-09-26T10:40:35Z</time>
      </trkpt>
      <trkpt lat="41.7428900" lon="2.0409340">
        <ele>613.0</ele>
        <time>2022-09-26T10:40:36Z</time>
      </trkpt>
      <trkpt lat="41.7428780" lon="2.0409380">
        <ele>613.1</ele>
        <time>2022-09-26T10:40:37Z</time>
      </trkpt>
      <trkpt lat="41.7428410" lon="2.0409430">
        <ele>613.2</ele>
        <time>2022-09-26T10:40:38Z</time>
      </trkpt>
      <trkpt lat="41.7428290" lon="2.0409450">
        <ele>613.3</ele>
        <time>2022-09-26T10:40:39Z</time>
      </trkpt>
      <trkpt lat="41.7428010" lon="2.0409460">
        <ele>613.4</ele>
        <time>2022-09-26T10:40:40Z</time>
      </trkpt>
      <trkpt lat="41.7427730" lon="2.0409540">
        <ele>613.5</ele>
        <time>2022-09-26T10:40:41Z</time>
      </trkpt>
      <trkpt lat="41.7427410" lon="2.0409600">
        <ele>613.7</ele>
        <time>2022-09-26T10:40:42Z</time>
      </trkpt>
      <trkpt lat="41.7427030" lon="2.0409740">
        <ele>613.8</ele>
        <time>2022-09-26T10:40:43Z</time>
      </trkpt>
      <trkpt lat="41.7426900" lon="2.0409780">
        <ele>613.9</ele>
        <time>2022-09-26T10:40:44Z</time>
      </trkpt>
      <trkpt lat="41.7426510" lon="2.0409810">
        <ele>614.1</ele>
        <time>2022-09-26T10:40:45Z</time>
      </trkpt>
      <trkpt lat="41.7426380" lon="2.0409820">
        <ele>614.1</ele>
        <time>2022-09-26T10:40:46Z</time>
      </trkpt>
      <trkpt lat="41.7425990" lon="2.0409780">
        <ele>614.3</ele>
        <time>2022-09-26T10:40:47Z</time>
      </trkpt>
      <trkpt lat="41.7425850" lon="2.0409750">
        <ele>614.4</ele>
        <time>2022-09-26T10:40:48Z</time>
      </trkpt>
      <trkpt lat="41.7425500" lon="2.0409660">
        <ele>614.6</ele>
        <time>2022-09-26T10:40:49Z</time>
      </trkpt>
      <trkpt lat="41.7425370" lon="2.0409650">
        <ele>614.6</ele>
        <time>2022-09-26T10:40:50Z</time>
      </trkpt>
      <trkpt lat="41.7425090" lon="2.0409590">
        <ele>614.8</ele>
        <time>2022-09-26T10:40:51Z</time>
      </trkpt>
      <trkpt lat="41.7424710" lon="2.0409510">
        <ele>615.0</ele>
        <time>2022-09-26T10:40:52Z</time>
      </trkpt>
      <trkpt lat="41.7424580" lon="2.0409470">
        <ele>615.1</ele>
        <time>2022-09-26T10:40:53Z</time>
      </trkpt>
      <trkpt lat="41.7424250" lon="2.0409340">
        <ele>615.3</ele>
        <time>2022-09-26T10:40:54Z</time>
      </trkpt>
      <trkpt lat="41.7424140" lon="2.0409290">
        <ele>615.4</ele>
        <time>2022-09-26T10:40:55Z</time>
      </trkpt>
      <trkpt lat="41.7423800" lon="2.0409080">
        <ele>615.7</ele>
        <time>2022-09-26T10:40:56Z</time>
      </trkpt>
      <trkpt lat="41.7423690" lon="2.0408990">
        <ele>615.8</ele>
        <time>2022-09-26T10:40:57Z</time>
      </trkpt>
      <trkpt lat="41.7423370" lon="2.0408810">
        <ele>616.1</ele>
        <time>2022-09-26T10:40:58Z</time>
      </trkpt>
      <trkpt lat="41.7423290" lon="2.0408760">
        <ele>616.1</ele>
        <time>2022-09-26T10:40:59Z</time>
      </trkpt>
      <trkpt lat="41.7423140" lon="2.0408630">
        <ele>616.3</ele>
        <time>2022-09-26T10:41:00Z</time>
      </trkpt>
      <trkpt lat="41.7422930" lon="2.0408190">
        <ele>616.6</ele>
        <time>2022-09-26T10:41:02Z</time>
      </trkpt>
      <trkpt lat="41.7422750" lon="2.0407830">
        <ele>616.9</ele>
        <time>2022-09-26T10:41:03Z</time>
      </trkpt>
      <trkpt lat="41.7422680" lon="2.0407710">
        <ele>617.0</ele>
        <time>2022-09-26T10:41:04Z</time>
      </trkpt>
      <trkpt lat="41.7422570" lon="2.0407320">
        <ele>617.2</ele>
        <time>2022-09-26T10:41:05Z</time>
      </trkpt>
      <trkpt lat="41.7422530" lon="2.0407180">
        <ele>617.3</ele>
        <time>2022-09-26T10:41:06Z</time>
      </trkpt>
      <trkpt lat="41.7422460" lon="2.0406810">
        <ele>617.6</ele>
        <time>2022-09-26T10:41:07Z</time>
      </trkpt>
      <trkpt lat="41.7422430" lon="2.0406690">
        <ele>617.6</ele>
        <time>2022-09-26T10:41:08Z</time>
      </trkpt>
      <trkpt lat="41.7422400" lon="2.0406250">
        <ele>617.9</ele>
        <time>2022-09-26T10:41:09Z</time>
      </trkpt>
      <trkpt lat="41.7422400" lon="2.0406090">
        <ele>618.0</ele>
        <time>2022-09-26T10:41:10Z</time>
      </trkpt>
      <trkpt lat="41.7422410" lon="2.0405620">
        <ele>618.3</ele>
        <time>2022-09-26T10:41:11Z</time>
      </trkpt>
      <trkpt lat="41.7422420" lon="2.0405480">
        <ele>618.4</ele>
        <time>2022-09-26T10:41:12Z</time>
      </trkpt>
      <trkpt lat="41.7422390" lon="2.0405230">
        <ele>618.6</ele>
        <time>2022-09-26T10:41:13Z</time>
      </trkpt>
      <trkpt lat="41.7422250" lon="2.0404850">
        <ele>618.9</ele>
        <time>2022-09-26T10:41:15Z</time>
      </trkpt>
      <trkpt lat="41.7422010" lon="2.0404460">
        <ele>619.2</ele>
        <time>2022-09-26T10:41:16Z</time>
      </trkpt>
      <trkpt lat="41.7421940" lon="2.0404350">
        <ele>619.3</ele>
        <time>2022-09-26T10:41:17Z</time>
      </trkpt>
      <trkpt lat="41.7421650" lon="2.0404140">
        <ele>619.6</ele>
        <time>2022-09-26T10:41:18Z</time>
      </trkpt>
      <trkpt lat="41.7421550" lon="2.0404090">
        <ele>619.7</ele>
        <time>2022-09-26T10:41:19Z</time>
      </trkpt>
      <trkpt lat="41.7421120" lon="2.0403980">
        <ele>620.1</ele>
        <time>2022-09-26T10:41:21Z</time>
      </trkpt>
      <trkpt lat="41.7420800" lon="2.0403880">
        <ele>620.4</ele>
        <time>2022-09-26T10:41:22Z</time>
      </trkpt>
      <trkpt lat="41.7420700" lon="2.0403870">
        <ele>620.5</ele>
        <time>2022-09-26T10:41:23Z</time>
      </trkpt>
      <trkpt lat="41.7420350" lon="2.0404010">
        <ele>620.8</ele>
        <time>2022-09-26T10:41:24Z</time>
      </trkpt>
      <trkpt lat="41.7420250" lon="2.0404060">
        <ele>620.9</ele>
        <time>2022-09-26T10:41:25Z</time>
      </trkpt>
      <trkpt lat="41.7419920" lon="2.0404230">
        <ele>621.3</ele>
        <time>2022-09-26T10:41:26Z</time>
      </trkpt>
      <trkpt lat="41.7419800" lon="2.0404290">
        <ele>621.4</ele>
        <time>2022-09-26T10:41:27Z</time>
      </trkpt>
      <trkpt lat="41.7419450" lon="2.0404480">
        <ele>621.7</ele>
        <time>2022-09-26T10:41:28Z</time>
      </trkpt>
      <trkpt lat="41.7419330" lon="2.0404560">
        <ele>621.8</ele>
        <time>2022-09-26T10:41:29Z</time>
      </trkpt>
      <trkpt lat="41.7419060" lon="2.0404720">
        <ele>622.0</ele>
        <time>2022-09-26T10:41:30Z</time>
      </trkpt>
      <trkpt lat="41.7418950" lon="2.0404780">
        <ele>622.1</ele>
        <time>2022-09-26T10:41:31Z</time>
      </trkpt>
      <trkpt lat="41.7418640" lon="2.0404920">
        <ele>622.4</ele>
        <time>2022-09-26T10:41:32Z</time>
      </trkpt>
      <trkpt lat="41.7418520" lon="2.0404940">
        <ele>622.4</ele>
        <time>2022-09-26T10:41:33Z</time>
      </trkpt>
      <trkpt lat="41.7418190" lon="2.0405060">
        <ele>622.7</ele>
        <time>2022-09-26T10:41:34Z</time>
      </trkpt>
      <trkpt lat="41.7418080" lon="2.0405100">
        <ele>622.7</ele>
        <time>2022-09-26T10:41:35Z</time>
      </trkpt>
      <trkpt lat="41.7417740" lon="2.0405180">
        <ele>622.9</ele>
        <time>2022-09-26T10:41:36Z</time>
      </trkpt>
      <trkpt lat="41.7417610" lon="2.0405200">
        <ele>623.0</ele>
        <time>2022-09-26T10:41:37Z</time>
      </trkpt>
      <trkpt lat="41.7417190" lon="2.0405270">
        <ele>623.2</ele>
        <time>2022-09-26T10:41:38Z</time>
      </trkpt>
      <trkpt lat="41.7417040" lon="2.0405290">
        <ele>623.3</ele>
        <time>2022-09-26T10:41:39Z</time>
      </trkpt>
      <trkpt lat="41.7416770" lon="2.0405310">
        <ele>623.3</ele>
        <time>2022-09-26T10:41:40Z</time>
      </trkpt>
      <trkpt lat="41.7416390" lon="2.0405320">
        <ele>623.5</ele>
        <time>2022-09-26T10:41:41Z</time>
      </trkpt>
      <trkpt lat="41.7416260" lon="2.0405320">
        <ele>623.5</ele>
        <time>2022-09-26T10:41:42Z</time>
      </trkpt>
      <trkpt lat="41.7415990" lon="2.0405360">
        <ele>623.6</ele>
        <time>2022-09-26T10:41:43Z</time>
      </trkpt>
      <trkpt lat="41.7415650" lon="2.0405420">
        <ele>623.7</ele>
        <time>2022-09-26T10:41:44Z</time>
      </trkpt>
      <trkpt lat="41.7415550" lon="2.0405440">
        <ele>623.7</ele>
        <time>2022-09-26T10:41:45Z</time>
      </trkpt>
      <trkpt lat="41.7415090" lon="2.0405550">
        <ele>623.8</ele>
        <time>2022-09-26T10:41:47Z</time>
      </trkpt>
      <trkpt lat="41.7414830" lon="2.0405710">
        <ele>623.8</ele>
        <time>2022-09-26T10:41:48Z</time>
      </trkpt>
      <trkpt lat="41.7414560" lon="2.0405900">
        <ele>623.9</ele>
        <time>2022-09-26T10:41:49Z</time>
      </trkpt>
      <trkpt lat="41.7414310" lon="2.0406140">
        <ele>624.0</ele>
        <time>2022-09-26T10:41:50Z</time>
      </trkpt>
      <trkpt lat="41.7414110" lon="2.0406440">
        <ele>624.1</ele>
        <time>2022-09-26T10:41:51Z</time>
      </trkpt>
      <trkpt lat="41.7413860" lon="2.0406790">
        <ele>624.2</ele>
        <time>2022-09-26T10:41:52Z</time>
      </trkpt>
      <trkpt lat="41.7413780" lon="2.0406910">
        <ele>624.2</ele>
        <time>2022-09-26T10:41:53Z</time>
      </trkpt>
      <trkpt lat="41.7413580" lon="2.0407170">
        <ele>624.3</ele>
        <time>2022-09-26T10:41:54Z</time>
      </trkpt>
      <trkpt lat="41.7413360" lon="2.0407450">
        <ele>624.4</ele>
        <time>2022-09-26T10:41:55Z</time>
      </trkpt>
      <trkpt lat="41.7413310" lon="2.0407540">
        <ele>624.4</ele>
        <time>2022-09-26T10:41:56Z</time>
      </trkpt>
      <trkpt lat="41.7412960" lon="2.0407950">
        <ele>624.6</ele>
        <time>2022-09-26T10:41:58Z</time>
      </trkpt>
      <trkpt lat="41.7412690" lon="2.0408230">
        <ele>624.7</ele>
        <time>2022-09-26T10:41:59Z</time>
      </trkpt>
      <trkpt lat="41.7412610" lon="2.0408320">
        <ele>624.8</ele>
        <time>2022-09-26T10:42:00Z</time>
      </trkpt>
      <trkpt lat="41.7412360" lon="2.0408550">
        <ele>624.9</ele>
        <time>2022-09-26T10:42:01Z</time>
      </trkpt>
      <trkpt lat="41.7412270" lon="2.0408600">
        <ele>625.0</ele>
        <time>2022-09-26T10:42:02Z</time>
      </trkpt>
      <trkpt lat="41.7411860" lon="2.0408890">
        <ele>625.2</ele>
        <time>2022-09-26T10:42:04Z</time>
      </trkpt>
      <trkpt lat="41.7411650" lon="2.0409070">
        <ele>625.3</ele>
        <time>2022-09-26T10:42:05Z</time>
      </trkpt>
      <trkpt lat="41.7411370" lon="2.0409310">
        <ele>625.5</ele>
        <time>2022-09-26T10:42:07Z</time>
      </trkpt>
      <trkpt lat="41.7410990" lon="2.0409560">
        <ele>625.8</ele>
        <time>2022-09-26T10:42:08Z</time>
      </trkpt>
      <trkpt lat="41.7410710" lon="2.0409720">
        <ele>626.0</ele>
        <time>2022-09-26T10:42:09Z</time>
      </trkpt>
      <trkpt lat="41.7410450" lon="2.0409920">
        <ele>626.2</ele>
        <time>2022-09-26T10:42:10Z</time>
      </trkpt>
      <trkpt lat="41.7410060" lon="2.0410280">
        <ele>626.5</ele>
        <time>2022-09-26T10:42:12Z</time>
      </trkpt>
      <trkpt lat="41.7409760" lon="2.0410550">
        <ele>626.8</ele>
        <time>2022-09-26T10:42:13Z</time>
      </trkpt>
      <trkpt lat="41.7409650" lon="2.0410650">
        <ele>626.9</ele>
        <time>2022-09-26T10:42:14Z</time>
      </trkpt>
      <trkpt lat="41.7409440" lon="2.0410830">
        <ele>627.1</ele>
        <time>2022-09-26T10:42:15Z</time>
      </trkpt>
      <trkpt lat="41.7409020" lon="2.0411200">
        <ele>627.6</ele>
        <time>2022-09-26T10:42:17Z</time>
      </trkpt>
      <trkpt lat="41.7408780" lon="2.0411390">
        <ele>627.8</ele>
        <time>2022-09-26T10:42:18Z</time>
      </trkpt>
      <trkpt lat="41.7408520" lon="2.0411710">
        <ele>628.1</ele>
        <time>2022-09-26T10:42:19Z</time>
      </trkpt>
      <trkpt lat="41.7408440" lon="2.0411800">
        <ele>628.2</ele>
        <time>2022-09-26T10:42:20Z</time>
      </trkpt>
      <trkpt lat="41.7408260" lon="2.0411980">
        <ele>628.4</ele>
        <time>2022-09-26T10:42:21Z</time>
      </trkpt>
      <trkpt lat="41.7407950" lon="2.0412300">
        <ele>628.7</ele>
        <time>2022-09-26T10:42:23Z</time>
      </trkpt>
      <trkpt lat="41.7407640" lon="2.0412530">
        <ele>629.0</ele>
        <time>2022-09-26T10:42:24Z</time>
      </trkpt>
      <trkpt lat="41.7407540" lon="2.0412580">
        <ele>629.1</ele>
        <time>2022-09-26T10:42:25Z</time>
      </trkpt>
      <trkpt lat="41.7407290" lon="2.0412760">
        <ele>629.4</ele>
        <time>2022-09-26T10:42:26Z</time>
      </trkpt>
      <trkpt lat="41.7407090" lon="2.0412890">
        <ele>629.6</ele>
        <time>2022-09-26T10:42:27Z</time>
      </trkpt>
      <trkpt lat="41.7406610" lon="2.0413120">
        <ele>630.0</ele>
        <time>2022-09-26T10:42:29Z</time>
      </trkpt>
      <trkpt lat="41.7406240" lon="2.0413280">
        <ele>630.4</ele>
        <time>2022-09-26T10:42:30Z</time>
      </trkpt>
      <trkpt lat="41.7406120" lon="2.0413320">
        <ele>630.5</ele>
        <time>2022-09-26T10:42:31Z</time>
      </trkpt>
      <trkpt lat="41.7405900" lon="2.0413380">
        <ele>630.7</ele>
        <time>2022-09-26T10:42:32Z</time>
      </trkpt>
      <trkpt lat="41.7405470" lon="2.0413530">
        <ele>631.1</ele>
        <time>2022-09-26T10:42:34Z</time>
      </trkpt>
      <trkpt lat="41.7405150" lon="2.0413640">
        <ele>631.4</ele>
        <time>2022-09-26T10:42:35Z</time>
      </trkpt>
      <trkpt lat="41.7405040" lon="2.0413680">
        <ele>631.4</ele>
        <time>2022-09-26T10:42:36Z</time>
      </trkpt>
      <trkpt lat="41.7404890" lon="2.0413730">
        <ele>631.6</ele>
        <time>2022-09-26T10:42:37Z</time>
      </trkpt>
      <trkpt lat="41.7404730" lon="2.0413840">
        <ele>631.7</ele>
        <time>2022-09-26T10:42:38Z</time>
      </trkpt>
      <trkpt lat="41.7404450" lon="2.0413990">
        <ele>632.0</ele>
        <time>2022-09-26T10:42:39Z</time>
      </trkpt>
      <trkpt lat="41.7404360" lon="2.0414030">
        <ele>632.1</ele>
        <time>2022-09-26T10:42:40Z</time>
      </trkpt>
      <trkpt lat="41.7404090" lon="2.0414330">
        <ele>632.4</ele>
        <time>2022-09-26T10:42:41Z</time>
      </trkpt>
      <trkpt lat="41.7404010" lon="2.0414420">
        <ele>632.5</ele>
        <time>2022-09-26T10:42:42Z</time>
      </trkpt>
      <trkpt lat="41.7403730" lon="2.0414650">
        <ele>632.7</ele>
        <time>2022-09-26T10:42:43Z</time>
      </trkpt>
      <trkpt lat="41.7403640" lon="2.0414730">
        <ele>632.8</ele>
        <time>2022-09-26T10:42:44Z</time>
      </trkpt>
      <trkpt lat="41.7403360" lon="2.0415010">
        <ele>633.1</ele>
        <time>2022-09-26T10:42:45Z</time>
      </trkpt>
      <trkpt lat="41.7403260" lon="2.0415100">
        <ele>633.2</ele>
        <time>2022-09-26T10:42:46Z</time>
      </trkpt>
      <trkpt lat="41.7403010" lon="2.0415320">
        <ele>633.5</ele>
        <time>2022-09-26T10:42:47Z</time>
      </trkpt>
      <trkpt lat="41.7402900" lon="2.0415420">
        <ele>633.6</ele>
        <time>2022-09-26T10:42:48Z</time>
      </trkpt>
      <trkpt lat="41.7402630" lon="2.0415700">
        <ele>633.8</ele>
        <time>2022-09-26T10:42:49Z</time>
      </trkpt>
      <trkpt lat="41.7402550" lon="2.0415800">
        <ele>633.9</ele>
        <time>2022-09-26T10:42:50Z</time>
      </trkpt>
      <trkpt lat="41.7402300" lon="2.0416090">
        <ele>634.1</ele>
        <time>2022-09-26T10:42:51Z</time>
      </trkpt>
      <trkpt lat="41.7402230" lon="2.0416160">
        <ele>634.2</ele>
        <time>2022-09-26T10:42:52Z</time>
      </trkpt>
      <trkpt lat="41.7401940" lon="2.0416380">
        <ele>634.4</ele>
        <time>2022-09-26T10:42:53Z</time>
      </trkpt>
      <trkpt lat="41.7401830" lon="2.0416470">
        <ele>634.5</ele>
        <time>2022-09-26T10:42:54Z</time>
      </trkpt>
      <trkpt lat="41.7401480" lon="2.0416660">
        <ele>634.7</ele>
        <time>2022-09-26T10:42:55Z</time>
      </trkpt>
      <trkpt lat="41.7401340" lon="2.0416730">
        <ele>634.8</ele>
        <time>2022-09-26T10:42:56Z</time>
      </trkpt>
      <trkpt lat="41.7401140" lon="2.0416850">
        <ele>634.9</ele>
        <time>2022-09-26T10:42:57Z</time>
      </trkpt>
      <trkpt lat="41.7400650" lon="2.0417010">
        <ele>635.2</ele>
        <time>2022-09-26T10:42:59Z</time>
      </trkpt>
      <trkpt lat="41.7400370" lon="2.0417050">
        <ele>635.3</ele>
        <time>2022-09-26T10:43:00Z</time>
      </trkpt>
      <trkpt lat="41.7400100" lon="2.0417150">
        <ele>635.4</ele>
        <time>2022-09-26T10:43:01Z</time>
      </trkpt>
      <trkpt lat="41.7399720" lon="2.0417320">
        <ele>635.6</ele>
        <time>2022-09-26T10:43:02Z</time>
      </trkpt>
      <trkpt lat="41.7399590" lon="2.0417390">
        <ele>635.7</ele>
        <time>2022-09-26T10:43:03Z</time>
      </trkpt>
      <trkpt lat="41.7399290" lon="2.0417560">
        <ele>635.8</ele>
        <time>2022-09-26T10:43:04Z</time>
      </trkpt>
      <trkpt lat="41.7399170" lon="2.0417600">
        <ele>635.8</ele>
        <time>2022-09-26T10:43:05Z</time>
      </trkpt>
      <trkpt lat="41.7398890" lon="2.0417750">
        <ele>635.9</ele>
        <time>2022-09-26T10:43:06Z</time>
      </trkpt>
      <trkpt lat="41.7398330" lon="2.0418070">
        <ele>636.1</ele>
        <time>2022-09-26T10:43:08Z</time>
      </trkpt>
      <trkpt lat="41.7398070" lon="2.0418220">
        <ele>636.2</ele>
        <time>2022-09-26T10:43:09Z</time>
      </trkpt>
      <trkpt lat="41.7397740" lon="2.0418470">
        <ele>636.4</ele>
        <time>2022-09-26T10:43:10Z</time>
      </trkpt>
      <trkpt lat="41.7397630" lon="2.0418570">
        <ele>636.4</ele>
        <time>2022-09-26T10:43:11Z</time>
      </trkpt>
      <trkpt lat="41.7397390" lon="2.0418740">
        <ele>636.4</ele>
        <time>2022-09-26T10:43:12Z</time>
      </trkpt>
      <trkpt lat="41.7397140" lon="2.0418970">
        <ele>636.5</ele>
        <time>2022-09-26T10:43:13Z</time>
      </trkpt>
      <trkpt lat="41.7396890" lon="2.0419150">
        <ele>636.5</ele>
        <time>2022-09-26T10:43:14Z</time>
      </trkpt>
      <trkpt lat="41.7396680" lon="2.0419380">
        <ele>636.6</ele>
        <time>2022-09-26T10:43:15Z</time>
      </trkpt>
      <trkpt lat="41.7396470" lon="2.0419640">
        <ele>636.6</ele>
        <time>2022-09-26T10:43:16Z</time>
      </trkpt>
      <trkpt lat="41.7396250" lon="2.0419980">
        <ele>636.6</ele>
        <time>2022-09-26T10:43:17Z</time>
      </trkpt>
      <trkpt lat="41.7396160" lon="2.0420090">
        <ele>636.6</ele>
        <time>2022-09-26T10:43:18Z</time>
      </trkpt>
      <trkpt lat="41.7395960" lon="2.0420350">
        <ele>636.7</ele>
        <time>2022-09-26T10:43:19Z</time>
      </trkpt>
      <trkpt lat="41.7395780" lon="2.0420690">
        <ele>636.7</ele>
        <time>2022-09-26T10:43:20Z</time>
      </trkpt>
      <trkpt lat="41.7395580" lon="2.0421170">
        <ele>636.7</ele>
        <time>2022-09-26T10:43:21Z</time>
      </trkpt>
      <trkpt lat="41.7395510" lon="2.0421340">
        <ele>636.7</ele>
        <time>2022-09-26T10:43:22Z</time>
      </trkpt>
      <trkpt lat="41.7395370" lon="2.0421690">
        <ele>636.6</ele>
        <time>2022-09-26T10:43:23Z</time>
      </trkpt>
      <trkpt lat="41.7395220" lon="2.0422020">
        <ele>636.6</ele>
        <time>2022-09-26T10:43:24Z</time>
      </trkpt>
      <trkpt lat="41.7395120" lon="2.0422460">
        <ele>636.6</ele>
        <time>2022-09-26T10:43:25Z</time>
      </trkpt>
      <trkpt lat="41.7395000" lon="2.0422820">
        <ele>636.6</ele>
        <time>2022-09-26T10:43:26Z</time>
      </trkpt>
      <trkpt lat="41.7394800" lon="2.0423200">
        <ele>636.6</ele>
        <time>2022-09-26T10:43:27Z</time>
      </trkpt>
      <trkpt lat="41.7394640" lon="2.0423690">
        <ele>636.5</ele>
        <time>2022-09-26T10:43:28Z</time>
      </trkpt>
      <trkpt lat="41.7394490" lon="2.0424130">
        <ele>636.5</ele>
        <time>2022-09-26T10:43:29Z</time>
      </trkpt>
      <trkpt lat="41.7394430" lon="2.0424630">
        <ele>636.4</ele>
        <time>2022-09-26T10:43:30Z</time>
      </trkpt>
      <trkpt lat="41.7394290" lon="2.0425090">
        <ele>636.4</ele>
        <time>2022-09-26T10:43:31Z</time>
      </trkpt>
      <trkpt lat="41.7394170" lon="2.0425460">
        <ele>636.4</ele>
        <time>2022-09-26T10:43:32Z</time>
      </trkpt>
      <trkpt lat="41.7394050" lon="2.0425870">
        <ele>636.3</ele>
        <time>2022-09-26T10:43:33Z</time>
      </trkpt>
      <trkpt lat="41.7393990" lon="2.0426360">
        <ele>636.3</ele>
        <time>2022-09-26T10:43:34Z</time>
      </trkpt>
      <trkpt lat="41.7393910" lon="2.0426880">
        <ele>636.3</ele>
        <time>2022-09-26T10:43:35Z</time>
      </trkpt>
      <trkpt lat="41.7393860" lon="2.0427370">
        <ele>636.2</ele>
        <time>2022-09-26T10:43:36Z</time>
      </trkpt>
      <trkpt lat="41.7393840" lon="2.0427800">
        <ele>636.2</ele>
        <time>2022-09-26T10:43:37Z</time>
      </trkpt>
      <trkpt lat="41.7393820" lon="2.0428270">
        <ele>636.1</ele>
        <time>2022-09-26T10:43:38Z</time>
      </trkpt>
      <trkpt lat="41.7393780" lon="2.0428800">
        <ele>636.1</ele>
        <time>2022-09-26T10:43:39Z</time>
      </trkpt>
      <trkpt lat="41.7393660" lon="2.0429750">
        <ele>636.0</ele>
        <time>2022-09-26T10:43:41Z</time>
      </trkpt>
      <trkpt lat="41.7393490" lon="2.0430130">
        <ele>636.0</ele>
        <time>2022-09-26T10:43:42Z</time>
      </trkpt>
      <trkpt lat="41.7393290" lon="2.0430500">
        <ele>635.9</ele>
        <time>2022-09-26T10:43:43Z</time>
      </trkpt>
      <trkpt lat="41.7393000" lon="2.0430860">
        <ele>635.9</ele>
        <time>2022-09-26T10:43:44Z</time>
      </trkpt>
      <trkpt lat="41.7392860" lon="2.0431020">
        <ele>635.9</ele>
        <time>2022-09-26T10:43:45Z</time>
      </trkpt>
      <trkpt lat="41.7392520" lon="2.0431350">
        <ele>635.9</ele>
        <time>2022-09-26T10:43:46Z</time>
      </trkpt>
      <trkpt lat="41.7392240" lon="2.0431570">
        <ele>635.9</ele>
        <time>2022-09-26T10:43:47Z</time>
      </trkpt>
      <trkpt lat="41.7391940" lon="2.0431890">
        <ele>635.8</ele>
        <time>2022-09-26T10:43:48Z</time>
      </trkpt>
      <trkpt lat="41.7391600" lon="2.0432200">
        <ele>635.8</ele>
        <time>2022-09-26T10:43:49Z</time>
      </trkpt>
      <trkpt lat="41.7391210" lon="2.0432530">
        <ele>635.8</ele>
        <time>2022-09-26T10:43:50Z</time>
      </trkpt>
      <trkpt lat="41.7390890" lon="2.0432800">
        <ele>635.9</ele>
        <time>2022-09-26T10:43:51Z</time>
      </trkpt>
      <trkpt lat="41.7390550" lon="2.0433070">
        <ele>635.9</ele>
        <time>2022-09-26T10:43:52Z</time>
      </trkpt>
      <trkpt lat="41.7390250" lon="2.0433310">
        <ele>636.0</ele>
        <time>2022-09-26T10:43:53Z</time>
      </trkpt>
      <trkpt lat="41.7389950" lon="2.0433510">
        <ele>636.1</ele>
        <time>2022-09-26T10:43:54Z</time>
      </trkpt>
      <trkpt lat="41.7389670" lon="2.0433700">
        <ele>636.2</ele>
        <time>2022-09-26T10:43:55Z</time>
      </trkpt>
      <trkpt lat="41.7389340" lon="2.0433890">
        <ele>636.3</ele>
        <time>2022-09-26T10:43:56Z</time>
      </trkpt>
      <trkpt lat="41.7389100" lon="2.0434080">
        <ele>636.4</ele>
        <time>2022-09-26T10:43:57Z</time>
      </trkpt>
      <trkpt lat="41.7388800" lon="2.0434400">
        <ele>636.5</ele>
        <time>2022-09-26T10:43:58Z</time>
      </trkpt>
      <trkpt lat="41.7388680" lon="2.0434510">
        <ele>636.6</ele>
        <time>2022-09-26T10:43:59Z</time>
      </trkpt>
      <trkpt lat="41.7388320" lon="2.0434780">
        <ele>636.7</ele>
        <time>2022-09-26T10:44:00Z</time>
      </trkpt>
      <trkpt lat="41.7388200" lon="2.0434890">
        <ele>636.8</ele>
        <time>2022-09-26T10:44:01Z</time>
      </trkpt>
      <trkpt lat="41.7387940" lon="2.0435150">
        <ele>637.0</ele>
        <time>2022-09-26T10:44:02Z</time>
      </trkpt>
      <trkpt lat="41.7387870" lon="2.0435260">
        <ele>637.0</ele>
        <time>2022-09-26T10:44:03Z</time>
      </trkpt>
      <trkpt lat="41.7387590" lon="2.0435620">
        <ele>637.2</ele>
        <time>2022-09-26T10:44:04Z</time>
      </trkpt>
      <trkpt lat="41.7387500" lon="2.0435760">
        <ele>637.3</ele>
        <time>2022-09-26T10:44:05Z</time>
      </trkpt>
      <trkpt lat="41.7387310" lon="2.0436020">
        <ele>637.5</ele>
        <time>2022-09-26T10:44:06Z</time>
      </trkpt>
      <trkpt lat="41.7387100" lon="2.0436370">
        <ele>637.6</ele>
        <time>2022-09-26T10:44:07Z</time>
      </trkpt>
      <trkpt lat="41.7387040" lon="2.0436510">
        <ele>637.7</ele>
        <time>2022-09-26T10:44:08Z</time>
      </trkpt>
      <trkpt lat="41.7386890" lon="2.0436970">
        <ele>638.0</ele>
        <time>2022-09-26T10:44:09Z</time>
      </trkpt>
      <trkpt lat="41.7386820" lon="2.0437110">
        <ele>638.1</ele>
        <time>2022-09-26T10:44:10Z</time>
      </trkpt>
      <trkpt lat="41.7386680" lon="2.0437430">
        <ele>638.3</ele>
        <time>2022-09-26T10:44:11Z</time>
      </trkpt>
      <trkpt lat="41.7386520" lon="2.0437980">
        <ele>638.6</ele>
        <time>2022-09-26T10:44:13Z</time>
      </trkpt>
      <trkpt lat="41.7386350" lon="2.0438410">
        <ele>638.9</ele>
        <time>2022-09-26T10:44:14Z</time>
      </trkpt>
      <trkpt lat="41.7386300" lon="2.0438560">
        <ele>639.0</ele>
        <time>2022-09-26T10:44:15Z</time>
      </trkpt>
      <trkpt lat="41.7386140" lon="2.0438950">
        <ele>639.2</ele>
        <time>2022-09-26T10:44:16Z</time>
      </trkpt>
      <trkpt lat="41.7386090" lon="2.0439050">
        <ele>639.3</ele>
        <time>2022-09-26T10:44:17Z</time>
      </trkpt>
      <trkpt lat="41.7385890" lon="2.0439420">
        <ele>639.5</ele>
        <time>2022-09-26T10:44:18Z</time>
      </trkpt>
      <trkpt lat="41.7385820" lon="2.0439540">
        <ele>639.6</ele>
        <time>2022-09-26T10:44:19Z</time>
      </trkpt>
      <trkpt lat="41.7385610" lon="2.0439990">
        <ele>639.9</ele>
        <time>2022-09-26T10:44:20Z</time>
      </trkpt>
      <trkpt lat="41.7385550" lon="2.0440140">
        <ele>640.0</ele>
        <time>2022-09-26T10:44:21Z</time>
      </trkpt>
      <trkpt lat="41.7385450" lon="2.0440400">
        <ele>640.2</ele>
        <time>2022-09-26T10:44:22Z</time>
      </trkpt>
      <trkpt lat="41.7385190" lon="2.0440950">
        <ele>640.5</ele>
        <time>2022-09-26T10:44:24Z</time>
      </trkpt>
      <trkpt lat="41.7384900" lon="2.0441290">
        <ele>640.8</ele>
        <time>2022-09-26T10:44:25Z</time>
      </trkpt>
      <trkpt lat="41.7384790" lon="2.0441410">
        <ele>640.9</ele>
        <time>2022-09-26T10:44:26Z</time>
      </trkpt>
      <trkpt lat="41.7384600" lon="2.0441730">
        <ele>641.1</ele>
        <time>2022-09-26T10:44:27Z</time>
      </trkpt>
      <trkpt lat="41.7384520" lon="2.0441870">
        <ele>641.3</ele>
        <time>2022-09-26T10:44:28Z</time>
      </trkpt>
      <trkpt lat="41.7384300" lon="2.0442190">
        <ele>641.5</ele>
        <time>2022-09-26T10:44:29Z</time>
      </trkpt>
      <trkpt lat="41.7384220" lon="2.0442290">
        <ele>641.6</ele>
        <time>2022-09-26T10:44:30Z</time>
      </trkpt>
      <trkpt lat="41.7383980" lon="2.0442530">
        <ele>641.9</ele>
        <time>2022-09-26T10:44:31Z</time>
      </trkpt>
      <trkpt lat="41.7383700" lon="2.0442830">
        <ele>642.2</ele>
        <time>2022-09-26T10:44:32Z</time>
      </trkpt>
      <trkpt lat="41.7383620" lon="2.0442910">
        <ele>642.3</ele>
        <time>2022-09-26T10:44:33Z</time>
      </trkpt>
      <trkpt lat="41.7383380" lon="2.0443150">
        <ele>642.5</ele>
        <time>2022-09-26T10:44:35Z</time>
      </trkpt>
      <trkpt lat="41.7383100" lon="2.0443430">
        <ele>642.8</ele>
        <time>2022-09-26T10:44:36Z</time>
      </trkpt>
      <trkpt lat="41.7382790" lon="2.0443670">
        <ele>643.1</ele>
        <time>2022-09-26T10:44:37Z</time>
      </trkpt>
      <trkpt lat="41.7382660" lon="2.0443720">
        <ele>643.3</ele>
        <time>2022-09-26T10:44:38Z</time>
      </trkpt>
      <trkpt lat="41.7382500" lon="2.0443810">
        <ele>643.4</ele>
        <time>2022-09-26T10:44:39Z</time>
      </trkpt>
      <trkpt lat="41.7382340" lon="2.0443900">
        <ele>643.6</ele>
        <time>2022-09-26T10:44:40Z</time>
      </trkpt>
      <trkpt lat="41.7382060" lon="2.0444040">
        <ele>643.8</ele>
        <time>2022-09-26T10:44:41Z</time>
      </trkpt>
      <trkpt lat="41.7381960" lon="2.0444070">
        <ele>643.9</ele>
        <time>2022-09-26T10:44:42Z</time>
      </trkpt>
      <trkpt lat="41.7381550" lon="2.0444170">
        <ele>644.1</ele>
        <time>2022-09-26T10:44:44Z</time>
      </trkpt>
      <trkpt lat="41.7381280" lon="2.0444160">
        <ele>644.1</ele>
        <time>2022-09-26T10:44:45Z</time>
      </trkpt>
      <trkpt lat="41.7381010" lon="2.0444160">
        <ele>644.1</ele>
        <time>2022-09-26T10:44:46Z</time>
      </trkpt>
      <trkpt lat="41.7380660" lon="2.0444180">
        <ele>644.4</ele>
        <time>2022-09-26T10:44:47Z</time>
      </trkpt>
      <trkpt lat="41.7380550" lon="2.0444190">
        <ele>644.4</ele>
        <time>2022-09-26T10:44:48Z</time>
      </trkpt>
      <trkpt lat="41.7380180" lon="2.0444300">
        <ele>644.7</ele>
        <time>2022-09-26T10:44:49Z</time>
      </trkpt>
      <trkpt lat="41.7380070" lon="2.0444340">
        <ele>644.8</ele>
        <time>2022-09-26T10:44:50Z</time>
      </trkpt>
      <trkpt lat="41.7379710" lon="2.0444500">
        <ele>645.0</ele>
        <time>2022-09-26T10:44:51Z</time>
      </trkpt>
      <trkpt lat="41.7379600" lon="2.0444550">
        <ele>645.1</ele>
        <time>2022-09-26T10:44:52Z</time>
      </trkpt>
      <trkpt lat="41.7379250" lon="2.0444700">
        <ele>645.3</ele>
        <time>2022-09-26T10:44:53Z</time>
      </trkpt>
      <trkpt lat="41.7379140" lon="2.0444750">
        <ele>645.3</ele>
        <time>2022-09-26T10:44:54Z</time>
      </trkpt>
      <trkpt lat="41.7378870" lon="2.0444830">
        <ele>645.5</ele>
        <time>2022-09-26T10:44:55Z</time>
      </trkpt>
      <trkpt lat="41.7378630" lon="2.0444920">
        <ele>645.6</ele>
        <time>2022-09-26T10:44:56Z</time>
      </trkpt>
      <trkpt lat="41.7378220" lon="2.0445080">
        <ele>645.8</ele>
        <time>2022-09-26T10:44:58Z</time>
      </trkpt>
      <trkpt lat="41.7377870" lon="2.0445230">
        <ele>646.0</ele>
        <time>2022-09-26T10:44:59Z</time>
      </trkpt>
      <trkpt lat="41.7377620" lon="2.0445400">
        <ele>646.2</ele>
        <time>2022-09-26T10:45:00Z</time>
      </trkpt>
      <trkpt lat="41.7377370" lon="2.0445590">
        <ele>646.3</ele>
        <time>2022-09-26T10:45:01Z</time>
      </trkpt>
      <trkpt lat="41.7377090" lon="2.0445870">
        <ele>646.5</ele>
        <time>2022-09-26T10:45:02Z</time>
      </trkpt>
      <trkpt lat="41.7377000" lon="2.0445940">
        <ele>646.6</ele>
        <time>2022-09-26T10:45:03Z</time>
      </trkpt>
      <trkpt lat="41.7376730" lon="2.0446180">
        <ele>646.8</ele>
        <time>2022-09-26T10:45:04Z</time>
      </trkpt>
      <trkpt lat="41.7376650" lon="2.0446270">
        <ele>646.9</ele>
        <time>2022-09-26T10:45:05Z</time>
      </trkpt>
      <trkpt lat="41.7376400" lon="2.0446560">
        <ele>647.1</ele>
        <time>2022-09-26T10:45:06Z</time>
      </trkpt>
      <trkpt lat="41.7376330" lon="2.0446670">
        <ele>647.1</ele>
        <time>2022-09-26T10:45:07Z</time>
      </trkpt>
      <trkpt lat="41.7376260" lon="2.0446860">
        <ele>647.2</ele>
        <time>2022-09-26T10:45:08Z</time>
      </trkpt>
      <trkpt lat="41.7376150" lon="2.0447060">
        <ele>647.4</ele>
        <time>2022-09-26T10:45:09Z</time>
      </trkpt>
      <trkpt lat="41.7376000" lon="2.0447370">
        <ele>647.5</ele>
        <time>2022-09-26T10:45:10Z</time>
      </trkpt>
      <trkpt lat="41.7375950" lon="2.0447500">
        <ele>647.6</ele>
        <time>2022-09-26T10:45:11Z</time>
      </trkpt>
      <trkpt lat="41.7375870" lon="2.0447720">
        <ele>647.8</ele>
        <time>2022-09-26T10:45:12Z</time>
      </trkpt>
      <trkpt lat="41.7375820" lon="2.0447940">
        <ele>647.9</ele>
        <time>2022-09-26T10:45:13Z</time>
      </trkpt>
      <trkpt lat="41.7375770" lon="2.0448240">
        <ele>648.1</ele>
        <time>2022-09-26T10:45:14Z</time>
      </trkpt>
      <trkpt lat="41.7375740" lon="2.0448370">
        <ele>648.1</ele>
        <time>2022-09-26T10:45:15Z</time>
      </trkpt>
      <trkpt lat="41.7375720" lon="2.0448510">
        <ele>648.2</ele>
        <time>2022-09-26T10:45:16Z</time>
      </trkpt>
      <trkpt lat="41.7375630" lon="2.0448870">
        <ele>648.4</ele>
        <time>2022-09-26T10:45:17Z</time>
      </trkpt>
      <trkpt lat="41.7375610" lon="2.0448990">
        <ele>648.5</ele>
        <time>2022-09-26T10:45:18Z</time>
      </trkpt>
      <trkpt lat="41.7375500" lon="2.0449660">
        <ele>648.9</ele>
        <time>2022-09-26T10:45:20Z</time>
      </trkpt>
      <trkpt lat="41.7375460" lon="2.0449860">
        <ele>649.1</ele>
        <time>2022-09-26T10:45:21Z</time>
      </trkpt>
      <trkpt lat="41.7375410" lon="2.0450070">
        <ele>649.2</ele>
        <time>2022-09-26T10:45:22Z</time>
      </trkpt>
      <trkpt lat="41.7375330" lon="2.0450480">
        <ele>649.5</ele>
        <time>2022-09-26T10:45:23Z</time>
      </trkpt>
      <trkpt lat="41.7375300" lon="2.0450600">
        <ele>649.6</ele>
        <time>2022-09-26T10:45:24Z</time>
      </trkpt>
      <trkpt lat="41.7375270" lon="2.0450810">
        <ele>649.7</ele>
        <time>2022-09-26T10:45:25Z</time>
      </trkpt>
      <trkpt lat="41.7375200" lon="2.0451190">
        <ele>650.0</ele>
        <time>2022-09-26T10:45:27Z</time>
      </trkpt>
      <trkpt lat="41.7375120" lon="2.0451580">
        <ele>650.3</ele>
        <time>2022-09-26T10:45:28Z</time>
      </trkpt>
      <trkpt lat="41.7375100" lon="2.0451680">
        <ele>650.4</ele>
        <time>2022-09-26T10:45:29Z</time>
      </trkpt>
      <trkpt lat="41.7375050" lon="2.0451970">
        <ele>650.7</ele>
        <time>2022-09-26T10:45:30Z</time>
      </trkpt>
      <trkpt lat="41.7375020" lon="2.0452100">
        <ele>650.8</ele>
        <time>2022-09-26T10:45:31Z</time>
      </trkpt>
      <trkpt lat="41.7375000" lon="2.0452230">
        <ele>650.9</ele>
        <time>2022-09-26T10:45:32Z</time>
      </trkpt>
      <trkpt lat="41.7374950" lon="2.0452480">
        <ele>651.1</ele>
        <time>2022-09-26T10:45:33Z</time>
      </trkpt>
      <trkpt lat="41.7374930" lon="2.0452660">
        <ele>651.3</ele>
        <time>2022-09-26T10:45:34Z</time>
      </trkpt>
      <trkpt lat="41.7374880" lon="2.0452940">
        <ele>651.5</ele>
        <time>2022-09-26T10:45:35Z</time>
      </trkpt>
      <trkpt lat="41.7374860" lon="2.0453040">
        <ele>651.6</ele>
        <time>2022-09-26T10:45:37Z</time>
      </trkpt>
      <trkpt lat="41.7374850" lon="2.0453140">
        <ele>651.7</ele>
        <time>2022-09-26T10:45:38Z</time>
      </trkpt>
      <trkpt lat="41.7374830" lon="2.0453240">
        <ele>651.8</ele>
        <time>2022-09-26T10:45:39Z</time>
      </trkpt>
      <trkpt lat="41.7374810" lon="2.0453340">
        <ele>651.9</ele>
        <time>2022-09-26T10:45:40Z</time>
      </trkpt>
      <trkpt lat="41.7374800" lon="2.0453440">
        <ele>652.0</ele>
        <time>2022-09-26T10:45:41Z</time>
      </trkpt>
      <trkpt lat="41.7374780" lon="2.0453540">
        <ele>652.0</ele>
        <time>2022-09-26T10:45:42Z</time>
      </trkpt>
      <trkpt lat="41.7374720" lon="2.0454130">
        <ele>652.6</ele>
        <time>2022-09-26T10:45:44Z</time>
      </trkpt>
      <trkpt lat="41.7374720" lon="2.0454300">
        <ele>652.7</ele>
        <time>2022-09-26T10:45:45Z</time>
      </trkpt>
      <trkpt lat="41.7374720" lon="2.0454470">
        <ele>652.9</ele>
        <time>2022-09-26T10:45:46Z</time>
      </trkpt>
      <trkpt lat="41.7374730" lon="2.0454700">
        <ele>653.1</ele>
        <time>2022-09-26T10:45:47Z</time>
      </trkpt>
      <trkpt lat="41.7374720" lon="2.0454780">
        <ele>653.1</ele>
        <time>2022-09-26T10:45:48Z</time>
      </trkpt>
      <trkpt lat="41.7374720" lon="2.0454840">
        <ele>653.2</ele>
        <time>2022-09-26T10:45:49Z</time>
      </trkpt>
      <trkpt lat="41.7374720" lon="2.0454890">
        <ele>653.2</ele>
        <time>2022-09-26T10:45:50Z</time>
      </trkpt>
      <trkpt lat="41.7374730" lon="2.0455100">
        <ele>653.4</ele>
        <time>2022-09-26T10:45:51Z</time>
      </trkpt>
      <trkpt lat="41.7374740" lon="2.0455730">
        <ele>654.0</ele>
        <time>2022-09-26T10:45:53Z</time>
      </trkpt>
      <trkpt lat="41.7374720" lon="2.0456110">
        <ele>654.3</ele>
        <time>2022-09-26T10:45:54Z</time>
      </trkpt>
      <trkpt lat="41.7374710" lon="2.0456220">
        <ele>654.4</ele>
        <time>2022-09-26T10:45:55Z</time>
      </trkpt>
      <trkpt lat="41.7374660" lon="2.0456620">
        <ele>654.7</ele>
        <time>2022-09-26T10:45:56Z</time>
      </trkpt>
      <trkpt lat="41.7374650" lon="2.0456760">
        <ele>654.9</ele>
        <time>2022-09-26T10:45:57Z</time>
      </trkpt>
      <trkpt lat="41.7374620" lon="2.0456950">
        <ele>655.0</ele>
        <time>2022-09-26T10:45:58Z</time>
      </trkpt>
      <trkpt lat="41.7374590" lon="2.0457190">
        <ele>655.2</ele>
        <time>2022-09-26T10:45:59Z</time>
      </trkpt>
      <trkpt lat="41.7374510" lon="2.0457600">
        <ele>655.6</ele>
        <time>2022-09-26T10:46:00Z</time>
      </trkpt>
      <trkpt lat="41.7374470" lon="2.0457750">
        <ele>655.8</ele>
        <time>2022-09-26T10:46:01Z</time>
      </trkpt>
      <trkpt lat="41.7374370" lon="2.0458210">
        <ele>656.2</ele>
        <time>2022-09-26T10:46:02Z</time>
      </trkpt>
      <trkpt lat="41.7374340" lon="2.0458370">
        <ele>656.3</ele>
        <time>2022-09-26T10:46:03Z</time>
      </trkpt>
      <trkpt lat="41.7374270" lon="2.0458670">
        <ele>656.6</ele>
        <time>2022-09-26T10:46:04Z</time>
      </trkpt>
      <trkpt lat="41.7374190" lon="2.0459010">
        <ele>656.9</ele>
        <time>2022-09-26T10:46:06Z</time>
      </trkpt>
      <trkpt lat="41.7374100" lon="2.0459230">
        <ele>657.1</ele>
        <time>2022-09-26T10:46:07Z</time>
      </trkpt>
      <trkpt lat="41.7374030" lon="2.0459420">
        <ele>657.3</ele>
        <time>2022-09-26T10:46:08Z</time>
      </trkpt>
      <trkpt lat="41.7373950" lon="2.0459580">
        <ele>657.5</ele>
        <time>2022-09-26T10:46:09Z</time>
      </trkpt>
      <trkpt lat="41.7373790" lon="2.0459910">
        <ele>657.9</ele>
        <time>2022-09-26T10:46:11Z</time>
      </trkpt>
      <trkpt lat="41.7373680" lon="2.0460090">
        <ele>658.1</ele>
        <time>2022-09-26T10:46:12Z</time>
      </trkpt>
      <trkpt lat="41.7373510" lon="2.0460190">
        <ele>658.3</ele>
        <time>2022-09-26T10:46:13Z</time>
      </trkpt>
      <trkpt lat="41.7373340" lon="2.0460360">
        <ele>658.5</ele>
        <time>2022-09-26T10:46:14Z</time>
      </trkpt>
      <trkpt lat="41.7373260" lon="2.0460440">
        <ele>658.7</ele>
        <time>2022-09-26T10:46:15Z</time>
      </trkpt>
      <trkpt lat="41.7373190" lon="2.0460520">
        <ele>658.8</ele>
        <time>2022-09-26T10:46:16Z</time>
      </trkpt>
      <trkpt lat="41.7373060" lon="2.0460630">
        <ele>658.9</ele>
        <time>2022-09-26T10:46:17Z</time>
      </trkpt>
      <trkpt lat="41.7372930" lon="2.0460760">
        <ele>659.1</ele>
        <time>2022-09-26T10:46:18Z</time>
      </trkpt>
      <trkpt lat="41.7372780" lon="2.0460870">
        <ele>659.3</ele>
        <time>2022-09-26T10:46:19Z</time>
      </trkpt>
      <trkpt lat="41.7372650" lon="2.0460970">
        <ele>659.5</ele>
        <time>2022-09-26T10:46:20Z</time>
      </trkpt>
      <trkpt lat="41.7372530" lon="2.0461070">
        <ele>659.7</ele>
        <time>2022-09-26T10:46:21Z</time>
      </trkpt>
      <trkpt lat="41.7372230" lon="2.0461250">
        <ele>660.0</ele>
        <time>2022-09-26T10:46:23Z</time>
      </trkpt>
      <trkpt lat="41.7371990" lon="2.0461450">
        <ele>660.3</ele>
        <time>2022-09-26T10:46:24Z</time>
      </trkpt>
      <trkpt lat="41.7371930" lon="2.0461540">
        <ele>660.4</ele>
        <time>2022-09-26T10:46:25Z</time>
      </trkpt>
      <trkpt lat="41.7371850" lon="2.0461730">
        <ele>660.6</ele>
        <time>2022-09-26T10:46:26Z</time>
      </trkpt>
      <trkpt lat="41.7371660" lon="2.0461970">
        <ele>660.9</ele>
        <time>2022-09-26T10:46:28Z</time>
      </trkpt>
      <trkpt lat="41.7371600" lon="2.0462140">
        <ele>661.0</ele>
        <time>2022-09-26T10:46:29Z</time>
      </trkpt>
      <trkpt lat="41.7371560" lon="2.0462390">
        <ele>661.2</ele>
        <time>2022-09-26T10:46:30Z</time>
      </trkpt>
      <trkpt lat="41.7371520" lon="2.0462770">
        <ele>661.5</ele>
        <time>2022-09-26T10:46:31Z</time>
      </trkpt>
      <trkpt lat="41.7371510" lon="2.0462910">
        <ele>661.6</ele>
        <time>2022-09-26T10:46:32Z</time>
      </trkpt>
      <trkpt lat="41.7371480" lon="2.0463170">
        <ele>661.8</ele>
        <time>2022-09-26T10:46:33Z</time>
      </trkpt>
      <trkpt lat="41.7371480" lon="2.0463680">
        <ele>662.2</ele>
        <time>2022-09-26T10:46:35Z</time>
      </trkpt>
      <trkpt lat="41.7371500" lon="2.0464040">
        <ele>662.5</ele>
        <time>2022-09-26T10:46:36Z</time>
      </trkpt>
      <trkpt lat="41.7371570" lon="2.0464440">
        <ele>662.8</ele>
        <time>2022-09-26T10:46:37Z</time>
      </trkpt>
      <trkpt lat="41.7371580" lon="2.0464560">
        <ele>662.9</ele>
        <time>2022-09-26T10:46:38Z</time>
      </trkpt>
      <trkpt lat="41.7371680" lon="2.0464940">
        <ele>663.2</ele>
        <time>2022-09-26T10:46:39Z</time>
      </trkpt>
      <trkpt lat="41.7371710" lon="2.0465060">
        <ele>663.3</ele>
        <time>2022-09-26T10:46:40Z</time>
      </trkpt>
      <trkpt lat="41.7371750" lon="2.0465270">
        <ele>663.5</ele>
        <time>2022-09-26T10:46:41Z</time>
      </trkpt>
      <trkpt lat="41.7371840" lon="2.0465660">
        <ele>663.8</ele>
        <time>2022-09-26T10:46:43Z</time>
      </trkpt>
      <trkpt lat="41.7371850" lon="2.0466100">
        <ele>664.2</ele>
        <time>2022-09-26T10:46:44Z</time>
      </trkpt>
      <trkpt lat="41.7371850" lon="2.0466230">
        <ele>664.3</ele>
        <time>2022-09-26T10:46:45Z</time>
      </trkpt>
      <trkpt lat="41.7371840" lon="2.0466470">
        <ele>664.4</ele>
        <time>2022-09-26T10:46:46Z</time>
      </trkpt>
      <trkpt lat="41.7371790" lon="2.0466700">
        <ele>664.6</ele>
        <time>2022-09-26T10:46:47Z</time>
      </trkpt>
      <trkpt lat="41.7371660" lon="2.0467110">
        <ele>665.0</ele>
        <time>2022-09-26T10:46:49Z</time>
      </trkpt>
      <trkpt lat="41.7371600" lon="2.0467310">
        <ele>665.1</ele>
        <time>2022-09-26T10:46:50Z</time>
      </trkpt>
      <trkpt lat="41.7371530" lon="2.0467530">
        <ele>665.3</ele>
        <time>2022-09-26T10:46:51Z</time>
      </trkpt>
      <trkpt lat="41.7371390" lon="2.0467890">
        <ele>665.6</ele>
        <time>2022-09-26T10:46:52Z</time>
      </trkpt>
      <trkpt lat="41.7371350" lon="2.0467980">
        <ele>665.7</ele>
        <time>2022-09-26T10:46:53Z</time>
      </trkpt>
      <trkpt lat="41.7371290" lon="2.0468140">
        <ele>665.8</ele>
        <time>2022-09-26T10:46:54Z</time>
      </trkpt>
      <trkpt lat="41.7371220" lon="2.0468340">
        <ele>666.0</ele>
        <time>2022-09-26T10:46:55Z</time>
      </trkpt>
      <trkpt lat="41.7371160" lon="2.0468530">
        <ele>666.1</ele>
        <time>2022-09-26T10:46:56Z</time>
      </trkpt>
      <trkpt lat="41.7371080" lon="2.0468690">
        <ele>666.2</ele>
        <time>2022-09-26T10:46:57Z</time>
      </trkpt>
      <trkpt lat="41.7370970" lon="2.0468920">
        <ele>666.4</ele>
        <time>2022-09-26T10:46:58Z</time>
      </trkpt>
      <trkpt lat="41.7370940" lon="2.0469030">
        <ele>666.5</ele>
        <time>2022-09-26T10:46:59Z</time>
      </trkpt>
      <trkpt lat="41.7370900" lon="2.0469140">
        <ele>666.6</ele>
        <time>2022-09-26T10:47:00Z</time>
      </trkpt>
      <trkpt lat="41.7370770" lon="2.0469370">
        <ele>666.8</ele>
        <time>2022-09-26T10:47:01Z</time>
      </trkpt>
      <trkpt lat="41.7370720" lon="2.0469470">
        <ele>666.8</ele>
        <time>2022-09-26T10:47:02Z</time>
      </trkpt>
      <trkpt lat="41.7370670" lon="2.0469570">
        <ele>666.9</ele>
        <time>2022-09-26T10:47:03Z</time>
      </trkpt>
      <trkpt lat="41.7370600" lon="2.0469630">
        <ele>667.0</ele>
        <time>2022-09-26T10:47:04Z</time>
      </trkpt>
      <trkpt lat="41.7370510" lon="2.0469730">
        <ele>667.1</ele>
        <time>2022-09-26T10:47:05Z</time>
      </trkpt>
      <trkpt lat="41.7370420" lon="2.0469880">
        <ele>667.2</ele>
        <time>2022-09-26T10:47:06Z</time>
      </trkpt>
      <trkpt lat="41.7370330" lon="2.0470030">
        <ele>667.3</ele>
        <time>2022-09-26T10:47:07Z</time>
      </trkpt>
      <trkpt lat="41.7370220" lon="2.0470180">
        <ele>667.4</ele>
        <time>2022-09-26T10:47:08Z</time>
      </trkpt>
      <trkpt lat="41.7370160" lon="2.0470340">
        <ele>667.5</ele>
        <time>2022-09-26T10:47:09Z</time>
      </trkpt>
      <trkpt lat="41.7370040" lon="2.0470490">
        <ele>667.7</ele>
        <time>2022-09-26T10:47:10Z</time>
      </trkpt>
      <trkpt lat="41.7369840" lon="2.0470780">
        <ele>667.9</ele>
        <time>2022-09-26T10:47:11Z</time>
      </trkpt>
      <trkpt lat="41.7369770" lon="2.0470880">
        <ele>668.0</ele>
        <time>2022-09-26T10:47:12Z</time>
      </trkpt>
      <trkpt lat="41.7369630" lon="2.0471120">
        <ele>668.2</ele>
        <time>2022-09-26T10:47:13Z</time>
      </trkpt>
      <trkpt lat="41.7369370" lon="2.0471440">
        <ele>668.5</ele>
        <time>2022-09-26T10:47:15Z</time>
      </trkpt>
      <trkpt lat="41.7369230" lon="2.0471590">
        <ele>668.6</ele>
        <time>2022-09-26T10:47:16Z</time>
      </trkpt>
      <trkpt lat="41.7369090" lon="2.0471720">
        <ele>668.8</ele>
        <time>2022-09-26T10:47:17Z</time>
      </trkpt>
      <trkpt lat="41.7368960" lon="2.0471870">
        <ele>668.9</ele>
        <time>2022-09-26T10:47:18Z</time>
      </trkpt>
      <trkpt lat="41.7368810" lon="2.0471990">
        <ele>669.0</ele>
        <time>2022-09-26T10:47:19Z</time>
      </trkpt>
      <trkpt lat="41.7368420" lon="2.0472180">
        <ele>669.4</ele>
        <time>2022-09-26T10:47:21Z</time>
      </trkpt>
      <trkpt lat="41.7368280" lon="2.0472250">
        <ele>669.5</ele>
        <time>2022-09-26T10:47:22Z</time>
      </trkpt>
      <trkpt lat="41.7368150" lon="2.0472310">
        <ele>669.6</ele>
        <time>2022-09-26T10:47:23Z</time>
      </trkpt>
      <trkpt lat="41.7367870" lon="2.0472390">
        <ele>669.8</ele>
        <time>2022-09-26T10:47:24Z</time>
      </trkpt>
      <trkpt lat="41.7367790" lon="2.0472420">
        <ele>669.9</ele>
        <time>2022-09-26T10:47:25Z</time>
      </trkpt>
      <trkpt lat="41.7367500" lon="2.0472500">
        <ele>670.2</ele>
        <time>2022-09-26T10:47:26Z</time>
      </trkpt>
      <trkpt lat="41.7367390" lon="2.0472530">
        <ele>670.2</ele>
        <time>2022-09-26T10:47:27Z</time>
      </trkpt>
      <trkpt lat="41.7367100" lon="2.0472620">
        <ele>670.5</ele>
        <time>2022-09-26T10:47:28Z</time>
      </trkpt>
      <trkpt lat="41.7367010" lon="2.0472670">
        <ele>670.6</ele>
        <time>2022-09-26T10:47:29Z</time>
      </trkpt>
      <trkpt lat="41.7366840" lon="2.0472790">
        <ele>670.7</ele>
        <time>2022-09-26T10:47:30Z</time>
      </trkpt>
      <trkpt lat="41.7366520" lon="2.0473080">
        <ele>671.1</ele>
        <time>2022-09-26T10:47:32Z</time>
      </trkpt>
      <trkpt lat="41.7366330" lon="2.0473340">
        <ele>671.3</ele>
        <time>2022-09-26T10:47:33Z</time>
      </trkpt>
      <trkpt lat="41.7366290" lon="2.0473460">
        <ele>671.4</ele>
        <time>2022-09-26T10:47:34Z</time>
      </trkpt>
      <trkpt lat="41.7366170" lon="2.0473920">
        <ele>671.7</ele>
        <time>2022-09-26T10:47:36Z</time>
      </trkpt>
      <trkpt lat="41.7366020" lon="2.0474490">
        <ele>672.0</ele>
        <time>2022-09-26T10:47:38Z</time>
      </trkpt>
      <trkpt lat="41.7365950" lon="2.0474890">
        <ele>672.3</ele>
        <time>2022-09-26T10:47:39Z</time>
      </trkpt>
      <trkpt lat="41.7365940" lon="2.0475000">
        <ele>672.4</ele>
        <time>2022-09-26T10:47:40Z</time>
      </trkpt>
      <trkpt lat="41.7365940" lon="2.0475270">
        <ele>672.5</ele>
        <time>2022-09-26T10:47:41Z</time>
      </trkpt>
      <trkpt lat="41.7365980" lon="2.0475750">
        <ele>672.8</ele>
        <time>2022-09-26T10:47:43Z</time>
      </trkpt>
      <trkpt lat="41.7366120" lon="2.0476110">
        <ele>673.0</ele>
        <time>2022-09-26T10:47:44Z</time>
      </trkpt>
      <trkpt lat="41.7366180" lon="2.0476320">
        <ele>673.2</ele>
        <time>2022-09-26T10:47:45Z</time>
      </trkpt>
      <trkpt lat="41.7366260" lon="2.0476530">
        <ele>673.3</ele>
        <time>2022-09-26T10:47:46Z</time>
      </trkpt>
      <trkpt lat="41.7366400" lon="2.0476890">
        <ele>673.5</ele>
        <time>2022-09-26T10:47:47Z</time>
      </trkpt>
      <trkpt lat="41.7366460" lon="2.0477030">
        <ele>673.6</ele>
        <time>2022-09-26T10:47:48Z</time>
      </trkpt>
      <trkpt lat="41.7366600" lon="2.0477410">
        <ele>673.8</ele>
        <time>2022-09-26T10:47:49Z</time>
      </trkpt>
      <trkpt lat="41.7366630" lon="2.0477500">
        <ele>673.9</ele>
        <time>2022-09-26T10:47:50Z</time>
      </trkpt>
      <trkpt lat="41.7366680" lon="2.0477850">
        <ele>674.0</ele>
        <time>2022-09-26T10:47:51Z</time>
      </trkpt>
      <trkpt lat="41.7366700" lon="2.0477990">
        <ele>674.1</ele>
        <time>2022-09-26T10:47:52Z</time>
      </trkpt>
      <trkpt lat="41.7366770" lon="2.0478400">
        <ele>674.3</ele>
        <time>2022-09-26T10:47:53Z</time>
      </trkpt>
      <trkpt lat="41.7366790" lon="2.0478520">
        <ele>674.4</ele>
        <time>2022-09-26T10:47:54Z</time>
      </trkpt>
      <trkpt lat="41.7366830" lon="2.0478730">
        <ele>674.5</ele>
        <time>2022-09-26T10:47:55Z</time>
      </trkpt>
      <trkpt lat="41.7366870" lon="2.0478940">
        <ele>674.6</ele>
        <time>2022-09-26T10:47:56Z</time>
      </trkpt>
      <trkpt lat="41.7366930" lon="2.0479330">
        <ele>674.8</ele>
        <time>2022-09-26T10:47:57Z</time>
      </trkpt>
      <trkpt lat="41.7366950" lon="2.0479470">
        <ele>674.9</ele>
        <time>2022-09-26T10:47:58Z</time>
      </trkpt>
      <trkpt lat="41.7366960" lon="2.0479970">
        <ele>675.2</ele>
        <time>2022-09-26T10:47:59Z</time>
      </trkpt>
      <trkpt lat="41.7366950" lon="2.0480130">
        <ele>675.3</ele>
        <time>2022-09-26T10:48:00Z</time>
      </trkpt>
      <trkpt lat="41.7366890" lon="2.0480540">
        <ele>675.5</ele>
        <time>2022-09-26T10:48:01Z</time>
      </trkpt>
      <trkpt lat="41.7366870" lon="2.0480670">
        <ele>675.6</ele>
        <time>2022-09-26T10:48:02Z</time>
      </trkpt>
      <trkpt lat="41.7366800" lon="2.0481120">
        <ele>675.8</ele>
        <time>2022-09-26T10:48:03Z</time>
      </trkpt>
      <trkpt lat="41.7366760" lon="2.0481260">
        <ele>675.9</ele>
        <time>2022-09-26T10:48:04Z</time>
      </trkpt>
      <trkpt lat="41.7366610" lon="2.0481690">
        <ele>676.2</ele>
        <time>2022-09-26T10:48:05Z</time>
      </trkpt>
      <trkpt lat="41.7366550" lon="2.0481850">
        <ele>676.3</ele>
        <time>2022-09-26T10:48:06Z</time>
      </trkpt>
      <trkpt lat="41.7366470" lon="2.0482200">
        <ele>676.5</ele>
        <time>2022-09-26T10:48:07Z</time>
      </trkpt>
      <trkpt lat="41.7366440" lon="2.0482330">
        <ele>676.6</ele>
        <time>2022-09-26T10:48:08Z</time>
      </trkpt>
      <trkpt lat="41.7366300" lon="2.0482720">
        <ele>676.8</ele>
        <time>2022-09-26T10:48:09Z</time>
      </trkpt>
      <trkpt lat="41.7366250" lon="2.0482830">
        <ele>676.9</ele>
        <time>2022-09-26T10:48:10Z</time>
      </trkpt>
      <trkpt lat="41.7366030" lon="2.0483130">
        <ele>677.1</ele>
        <time>2022-09-26T10:48:11Z</time>
      </trkpt>
      <trkpt lat="41.7365970" lon="2.0483200">
        <ele>677.2</ele>
        <time>2022-09-26T10:48:12Z</time>
      </trkpt>
      <trkpt lat="41.7365720" lon="2.0483410">
        <ele>677.4</ele>
        <time>2022-09-26T10:48:13Z</time>
      </trkpt>
      <trkpt lat="41.7365640" lon="2.0483480">
        <ele>677.5</ele>
        <time>2022-09-26T10:48:14Z</time>
      </trkpt>
      <trkpt lat="41.7365410" lon="2.0483710">
        <ele>677.7</ele>
        <time>2022-09-26T10:48:15Z</time>
      </trkpt>
      <trkpt lat="41.7365320" lon="2.0483810">
        <ele>677.8</ele>
        <time>2022-09-26T10:48:16Z</time>
      </trkpt>
      <trkpt lat="41.7365080" lon="2.0484090">
        <ele>678.0</ele>
        <time>2022-09-26T10:48:17Z</time>
      </trkpt>
      <trkpt lat="41.7365000" lon="2.0484170">
        <ele>678.1</ele>
        <time>2022-09-26T10:48:18Z</time>
      </trkpt>
      <trkpt lat="41.7364800" lon="2.0484450">
        <ele>678.3</ele>
        <time>2022-09-26T10:48:19Z</time>
      </trkpt>
      <trkpt lat="41.7364720" lon="2.0484550">
        <ele>678.4</ele>
        <time>2022-09-26T10:48:20Z</time>
      </trkpt>
      <trkpt lat="41.7364540" lon="2.0485040">
        <ele>678.7</ele>
        <time>2022-09-26T10:48:22Z</time>
      </trkpt>
      <trkpt lat="41.7364400" lon="2.0485440">
        <ele>678.9</ele>
        <time>2022-09-26T10:48:23Z</time>
      </trkpt>
      <trkpt lat="41.7364300" lon="2.0485910">
        <ele>679.2</ele>
        <time>2022-09-26T10:48:24Z</time>
      </trkpt>
      <trkpt lat="41.7364280" lon="2.0486110">
        <ele>679.3</ele>
        <time>2022-09-26T10:48:25Z</time>
      </trkpt>
      <trkpt lat="41.7364330" lon="2.0486690">
        <ele>679.7</ele>
        <time>2022-09-26T10:48:27Z</time>
      </trkpt>
      <trkpt lat="41.7364370" lon="2.0487200">
        <ele>680.0</ele>
        <time>2022-09-26T10:48:28Z</time>
      </trkpt>
      <trkpt lat="41.7364390" lon="2.0487370">
        <ele>680.1</ele>
        <time>2022-09-26T10:48:29Z</time>
      </trkpt>
      <trkpt lat="41.7364530" lon="2.0487770">
        <ele>680.3</ele>
        <time>2022-09-26T10:48:30Z</time>
      </trkpt>
      <trkpt lat="41.7364580" lon="2.0487880">
        <ele>680.4</ele>
        <time>2022-09-26T10:48:31Z</time>
      </trkpt>
      <trkpt lat="41.7364680" lon="2.0488230">
        <ele>680.6</ele>
        <time>2022-09-26T10:48:32Z</time>
      </trkpt>
      <trkpt lat="41.7364720" lon="2.0488340">
        <ele>680.7</ele>
        <time>2022-09-26T10:48:33Z</time>
      </trkpt>
      <trkpt lat="41.7364820" lon="2.0488580">
        <ele>680.9</ele>
        <time>2022-09-26T10:48:34Z</time>
      </trkpt>
      <trkpt lat="41.7364850" lon="2.0488780">
        <ele>681.0</ele>
        <time>2022-09-26T10:48:35Z</time>
      </trkpt>
      <trkpt lat="41.7364890" lon="2.0488980">
        <ele>681.1</ele>
        <time>2022-09-26T10:48:36Z</time>
      </trkpt>
      <trkpt lat="41.7364960" lon="2.0489180">
        <ele>681.3</ele>
        <time>2022-09-26T10:48:37Z</time>
      </trkpt>
      <trkpt lat="41.7365100" lon="2.0489480">
        <ele>681.5</ele>
        <time>2022-09-26T10:48:38Z</time>
      </trkpt>
      <trkpt lat="41.7365150" lon="2.0489580">
        <ele>681.6</ele>
        <time>2022-09-26T10:48:39Z</time>
      </trkpt>
      <trkpt lat="41.7365250" lon="2.0489920">
        <ele>681.8</ele>
        <time>2022-09-26T10:48:40Z</time>
      </trkpt>
      <trkpt lat="41.7365270" lon="2.0490050">
        <ele>681.9</ele>
        <time>2022-09-26T10:48:41Z</time>
      </trkpt>
      <trkpt lat="41.7365320" lon="2.0490400">
        <ele>682.1</ele>
        <time>2022-09-26T10:48:42Z</time>
      </trkpt>
      <trkpt lat="41.7365330" lon="2.0490540">
        <ele>682.2</ele>
        <time>2022-09-26T10:48:43Z</time>
      </trkpt>
      <trkpt lat="41.7365380" lon="2.0490920">
        <ele>682.5</ele>
        <time>2022-09-26T10:48:44Z</time>
      </trkpt>
      <trkpt lat="41.7365380" lon="2.0491060">
        <ele>682.5</ele>
        <time>2022-09-26T10:48:45Z</time>
      </trkpt>
      <trkpt lat="41.7365430" lon="2.0491460">
        <ele>682.8</ele>
        <time>2022-09-26T10:48:46Z</time>
      </trkpt>
      <trkpt lat="41.7365430" lon="2.0491570">
        <ele>682.9</ele>
        <time>2022-09-26T10:48:47Z</time>
      </trkpt>
      <trkpt lat="41.7365400" lon="2.0491740">
        <ele>683.0</ele>
        <time>2022-09-26T10:48:48Z</time>
      </trkpt>
      <trkpt lat="41.7365390" lon="2.0491980">
        <ele>683.2</ele>
        <time>2022-09-26T10:48:49Z</time>
      </trkpt>
      <trkpt lat="41.7365330" lon="2.0492340">
        <ele>683.4</ele>
        <time>2022-09-26T10:48:50Z</time>
      </trkpt>
      <trkpt lat="41.7365290" lon="2.0492470">
        <ele>683.5</ele>
        <time>2022-09-26T10:48:51Z</time>
      </trkpt>
      <trkpt lat="41.7365240" lon="2.0492680">
        <ele>683.7</ele>
        <time>2022-09-26T10:48:52Z</time>
      </trkpt>
      <trkpt lat="41.7365200" lon="2.0492870">
        <ele>683.8</ele>
        <time>2022-09-26T10:48:53Z</time>
      </trkpt>
      <trkpt lat="41.7365120" lon="2.0493080">
        <ele>683.9</ele>
        <time>2022-09-26T10:48:54Z</time>
      </trkpt>
      <trkpt lat="41.7364930" lon="2.0493540">
        <ele>684.3</ele>
        <time>2022-09-26T10:48:56Z</time>
      </trkpt>
      <trkpt lat="41.7364880" lon="2.0493690">
        <ele>684.4</ele>
        <time>2022-09-26T10:48:57Z</time>
      </trkpt>
      <trkpt lat="41.7364780" lon="2.0493860">
        <ele>684.5</ele>
        <time>2022-09-26T10:48:58Z</time>
      </trkpt>
      <trkpt lat="41.7364700" lon="2.0493990">
        <ele>684.7</ele>
        <time>2022-09-26T10:48:59Z</time>
      </trkpt>
      <trkpt lat="41.7364610" lon="2.0494170">
        <ele>684.8</ele>
        <time>2022-09-26T10:49:00Z</time>
      </trkpt>
      <trkpt lat="41.7364500" lon="2.0494330">
        <ele>684.9</ele>
        <time>2022-09-26T10:49:01Z</time>
      </trkpt>
      <trkpt lat="41.7364400" lon="2.0494560">
        <ele>685.1</ele>
        <time>2022-09-26T10:49:02Z</time>
      </trkpt>
      <trkpt lat="41.7364320" lon="2.0494760">
        <ele>685.3</ele>
        <time>2022-09-26T10:49:03Z</time>
      </trkpt>
      <trkpt lat="41.7364230" lon="2.0495130">
        <ele>685.5</ele>
        <time>2022-09-26T10:49:05Z</time>
      </trkpt>
      <trkpt lat="41.7364150" lon="2.0495320">
        <ele>685.7</ele>
        <time>2022-09-26T10:49:06Z</time>
      </trkpt>
      <trkpt lat="41.7364040" lon="2.0495430">
        <ele>685.8</ele>
        <time>2022-09-26T10:49:07Z</time>
      </trkpt>
      <trkpt lat="41.7363840" lon="2.0495610">
        <ele>686.0</ele>
        <time>2022-09-26T10:49:08Z</time>
      </trkpt>
      <trkpt lat="41.7363780" lon="2.0495680">
        <ele>686.1</ele>
        <time>2022-09-26T10:49:09Z</time>
      </trkpt>
      <trkpt lat="41.7363710" lon="2.0495750">
        <ele>686.2</ele>
        <time>2022-09-26T10:49:10Z</time>
      </trkpt>
      <trkpt lat="41.7363480" lon="2.0495990">
        <ele>686.4</ele>
        <time>2022-09-26T10:49:11Z</time>
      </trkpt>
      <trkpt lat="41.7363410" lon="2.0496110">
        <ele>686.5</ele>
        <time>2022-09-26T10:49:12Z</time>
      </trkpt>
      <trkpt lat="41.7363180" lon="2.0496490">
        <ele>686.8</ele>
        <time>2022-09-26T10:49:13Z</time>
      </trkpt>
      <trkpt lat="41.7363100" lon="2.0496670">
        <ele>687.0</ele>
        <time>2022-09-26T10:49:14Z</time>
      </trkpt>
      <trkpt lat="41.7363000" lon="2.0496850">
        <ele>687.1</ele>
        <time>2022-09-26T10:49:15Z</time>
      </trkpt>
      <trkpt lat="41.7362890" lon="2.0497010">
        <ele>687.2</ele>
        <time>2022-09-26T10:49:16Z</time>
      </trkpt>
      <trkpt lat="41.7362650" lon="2.0497320">
        <ele>687.5</ele>
        <time>2022-09-26T10:49:17Z</time>
      </trkpt>
      <trkpt lat="41.7362590" lon="2.0497410">
        <ele>687.6</ele>
        <time>2022-09-26T10:49:18Z</time>
      </trkpt>
      <trkpt lat="41.7362440" lon="2.0497740">
        <ele>687.8</ele>
        <time>2022-09-26T10:49:19Z</time>
      </trkpt>
      <trkpt lat="41.7362400" lon="2.0497850">
        <ele>687.9</ele>
        <time>2022-09-26T10:49:20Z</time>
      </trkpt>
      <trkpt lat="41.7362280" lon="2.0498200">
        <ele>688.2</ele>
        <time>2022-09-26T10:49:21Z</time>
      </trkpt>
      <trkpt lat="41.7362260" lon="2.0498330">
        <ele>688.3</ele>
        <time>2022-09-26T10:49:22Z</time>
      </trkpt>
      <trkpt lat="41.7362240" lon="2.0498760">
        <ele>688.6</ele>
        <time>2022-09-26T10:49:23Z</time>
      </trkpt>
      <trkpt lat="41.7362250" lon="2.0498910">
        <ele>688.7</ele>
        <time>2022-09-26T10:49:24Z</time>
      </trkpt>
      <trkpt lat="41.7362330" lon="2.0499400">
        <ele>689.0</ele>
        <time>2022-09-26T10:49:25Z</time>
      </trkpt>
      <trkpt lat="41.7362370" lon="2.0499610">
        <ele>689.2</ele>
        <time>2022-09-26T10:49:26Z</time>
      </trkpt>
      <trkpt lat="41.7362460" lon="2.0499970">
        <ele>689.5</ele>
        <time>2022-09-26T10:49:27Z</time>
      </trkpt>
      <trkpt lat="41.7362490" lon="2.0500070">
        <ele>689.5</ele>
        <time>2022-09-26T10:49:28Z</time>
      </trkpt>
      <trkpt lat="41.7362550" lon="2.0500460">
        <ele>689.8</ele>
        <time>2022-09-26T10:49:29Z</time>
      </trkpt>
      <trkpt lat="41.7362570" lon="2.0500590">
        <ele>689.9</ele>
        <time>2022-09-26T10:49:30Z</time>
      </trkpt>
      <trkpt lat="41.7362580" lon="2.0500820">
        <ele>690.1</ele>
        <time>2022-09-26T10:49:31Z</time>
      </trkpt>
      <trkpt lat="41.7362570" lon="2.0501040">
        <ele>690.2</ele>
        <time>2022-09-26T10:49:32Z</time>
      </trkpt>
      <trkpt lat="41.7362590" lon="2.0501250">
        <ele>690.4</ele>
        <time>2022-09-26T10:49:33Z</time>
      </trkpt>
      <trkpt lat="41.7362620" lon="2.0501460">
        <ele>690.5</ele>
        <time>2022-09-26T10:49:34Z</time>
      </trkpt>
      <trkpt lat="41.7362690" lon="2.0501650">
        <ele>690.7</ele>
        <time>2022-09-26T10:49:35Z</time>
      </trkpt>
      <trkpt lat="41.7362730" lon="2.0501870">
        <ele>690.9</ele>
        <time>2022-09-26T10:49:36Z</time>
      </trkpt>
      <trkpt lat="41.7362900" lon="2.0502210">
        <ele>691.1</ele>
        <time>2022-09-26T10:49:37Z</time>
      </trkpt>
      <trkpt lat="41.7362970" lon="2.0502320">
        <ele>691.2</ele>
        <time>2022-09-26T10:49:38Z</time>
      </trkpt>
      <trkpt lat="41.7363110" lon="2.0502520">
        <ele>691.4</ele>
        <time>2022-09-26T10:49:39Z</time>
      </trkpt>
      <trkpt lat="41.7363200" lon="2.0502680">
        <ele>691.6</ele>
        <time>2022-09-26T10:49:40Z</time>
      </trkpt>
      <trkpt lat="41.7363300" lon="2.0502840">
        <ele>691.7</ele>
        <time>2022-09-26T10:49:41Z</time>
      </trkpt>
      <trkpt lat="41.7363380" lon="2.0502980">
        <ele>691.8</ele>
        <time>2022-09-26T10:49:42Z</time>
      </trkpt>
      <trkpt lat="41.7363440" lon="2.0503150">
        <ele>691.9</ele>
        <time>2022-09-26T10:49:43Z</time>
      </trkpt>
      <trkpt lat="41.7363520" lon="2.0503310">
        <ele>692.1</ele>
        <time>2022-09-26T10:49:44Z</time>
      </trkpt>
      <trkpt lat="41.7363640" lon="2.0503550">
        <ele>692.3</ele>
        <time>2022-09-26T10:49:45Z</time>
      </trkpt>
      <trkpt lat="41.7363690" lon="2.0503660">
        <ele>692.4</ele>
        <time>2022-09-26T10:49:46Z</time>
      </trkpt>
      <trkpt lat="41.7363730" lon="2.0503770">
        <ele>692.4</ele>
        <time>2022-09-26T10:49:47Z</time>
      </trkpt>
      <trkpt lat="41.7363780" lon="2.0503870">
        <ele>692.5</ele>
        <time>2022-09-26T10:49:48Z</time>
      </trkpt>
      <trkpt lat="41.7363820" lon="2.0503950">
        <ele>692.6</ele>
        <time>2022-09-26T10:49:49Z</time>
      </trkpt>
      <trkpt lat="41.7363870" lon="2.0504110">
        <ele>692.7</ele>
        <time>2022-09-26T10:49:50Z</time>
      </trkpt>
      <trkpt lat="41.7363900" lon="2.0504280">
        <ele>692.8</ele>
        <time>2022-09-26T10:49:51Z</time>
      </trkpt>
      <trkpt lat="41.7363930" lon="2.0504480">
        <ele>692.9</ele>
        <time>2022-09-26T10:49:52Z</time>
      </trkpt>
      <trkpt lat="41.7363990" lon="2.0504660">
        <ele>693.0</ele>
        <time>2022-09-26T10:49:53Z</time>
      </trkpt>
      <trkpt lat="41.7364060" lon="2.0504900">
        <ele>693.2</ele>
        <time>2022-09-26T10:49:54Z</time>
      </trkpt>
      <trkpt lat="41.7364120" lon="2.0505110">
        <ele>693.3</ele>
        <time>2022-09-26T10:49:55Z</time>
      </trkpt>
      <trkpt lat="41.7364170" lon="2.0505330">
        <ele>693.5</ele>
        <time>2022-09-26T10:49:56Z</time>
      </trkpt>
      <trkpt lat="41.7364250" lon="2.0505620">
        <ele>693.6</ele>
        <time>2022-09-26T10:49:57Z</time>
      </trkpt>
      <trkpt lat="41.7364290" lon="2.0505770">
        <ele>693.7</ele>
        <time>2022-09-26T10:49:58Z</time>
      </trkpt>
      <trkpt lat="41.7364340" lon="2.0505910">
        <ele>693.8</ele>
        <time>2022-09-26T10:49:59Z</time>
      </trkpt>
      <trkpt lat="41.7364380" lon="2.0506120">
        <ele>693.9</ele>
        <time>2022-09-26T10:50:00Z</time>
      </trkpt>
      <trkpt lat="41.7364440" lon="2.0506340">
        <ele>694.0</ele>
        <time>2022-09-26T10:50:01Z</time>
      </trkpt>
      <trkpt lat="41.7364530" lon="2.0506690">
        <ele>694.2</ele>
        <time>2022-09-26T10:50:02Z</time>
      </trkpt>
      <trkpt lat="41.7364560" lon="2.0506810">
        <ele>694.3</ele>
        <time>2022-09-26T10:50:03Z</time>
      </trkpt>
      <trkpt lat="41.7364650" lon="2.0506990">
        <ele>694.4</ele>
        <time>2022-09-26T10:50:04Z</time>
      </trkpt>
      <trkpt lat="41.7364770" lon="2.0507160">
        <ele>694.5</ele>
        <time>2022-09-26T10:50:05Z</time>
      </trkpt>
      <trkpt lat="41.7364950" lon="2.0507520">
        <ele>694.7</ele>
        <time>2022-09-26T10:50:06Z</time>
      </trkpt>
      <trkpt lat="41.7365000" lon="2.0507620">
        <ele>694.7</ele>
        <time>2022-09-26T10:50:07Z</time>
      </trkpt>
      <trkpt lat="41.7365140" lon="2.0507970">
        <ele>694.9</ele>
        <time>2022-09-26T10:50:08Z</time>
      </trkpt>
      <trkpt lat="41.7365190" lon="2.0508090">
        <ele>695.0</ele>
        <time>2022-09-26T10:50:09Z</time>
      </trkpt>
      <trkpt lat="41.7365290" lon="2.0508520">
        <ele>695.2</ele>
        <time>2022-09-26T10:50:10Z</time>
      </trkpt>
      <trkpt lat="41.7365310" lon="2.0508690">
        <ele>695.3</ele>
        <time>2022-09-26T10:50:11Z</time>
      </trkpt>
      <trkpt lat="41.7365370" lon="2.0509170">
        <ele>695.5</ele>
        <time>2022-09-26T10:50:12Z</time>
      </trkpt>
      <trkpt lat="41.7365380" lon="2.0509310">
        <ele>695.6</ele>
        <time>2022-09-26T10:50:13Z</time>
      </trkpt>
      <trkpt lat="41.7365400" lon="2.0509670">
        <ele>695.7</ele>
        <time>2022-09-26T10:50:14Z</time>
      </trkpt>
      <trkpt lat="41.7365400" lon="2.0509800">
        <ele>695.8</ele>
        <time>2022-09-26T10:50:15Z</time>
      </trkpt>
      <trkpt lat="41.7365370" lon="2.0510170">
        <ele>696.0</ele>
        <time>2022-09-26T10:50:16Z</time>
      </trkpt>
      <trkpt lat="41.7365360" lon="2.0510310">
        <ele>696.1</ele>
        <time>2022-09-26T10:50:17Z</time>
      </trkpt>
      <trkpt lat="41.7365280" lon="2.0510690">
        <ele>696.3</ele>
        <time>2022-09-26T10:50:18Z</time>
      </trkpt>
      <trkpt lat="41.7365260" lon="2.0510800">
        <ele>696.3</ele>
        <time>2022-09-26T10:50:19Z</time>
      </trkpt>
      <trkpt lat="41.7365200" lon="2.0511170">
        <ele>696.5</ele>
        <time>2022-09-26T10:50:20Z</time>
      </trkpt>
      <trkpt lat="41.7365180" lon="2.0511290">
        <ele>696.8</ele>
        <time>2022-09-26T10:50:21Z</time>
      </trkpt>
      <trkpt lat="41.7365040" lon="2.0511690">
        <ele>697.1</ele>
        <time>2022-09-26T10:50:22Z</time>
      </trkpt>
      <trkpt lat="41.7365000" lon="2.0511830">
        <ele>697.2</ele>
        <time>2022-09-26T10:50:23Z</time>
      </trkpt>
      <trkpt lat="41.7364880" lon="2.0512290">
        <ele>697.5</ele>
        <time>2022-09-26T10:50:24Z</time>
      </trkpt>
      <trkpt lat="41.7364850" lon="2.0512410">
        <ele>697.6</ele>
        <time>2022-09-26T10:50:25Z</time>
      </trkpt>
      <trkpt lat="41.7364800" lon="2.0512600">
        <ele>697.7</ele>
        <time>2022-09-26T10:50:26Z</time>
      </trkpt>
      <trkpt lat="41.7364750" lon="2.0512830">
        <ele>697.8</ele>
        <time>2022-09-26T10:50:27Z</time>
      </trkpt>
      <trkpt lat="41.7364660" lon="2.0513090">
        <ele>698.0</ele>
        <time>2022-09-26T10:50:28Z</time>
      </trkpt>
      <trkpt lat="41.7364450" lon="2.0513580">
        <ele>698.4</ele>
        <time>2022-09-26T10:50:30Z</time>
      </trkpt>
      <trkpt lat="41.7364300" lon="2.0513890">
        <ele>698.7</ele>
        <time>2022-09-26T10:50:31Z</time>
      </trkpt>
      <trkpt lat="41.7364250" lon="2.0513980">
        <ele>698.7</ele>
        <time>2022-09-26T10:50:32Z</time>
      </trkpt>
      <trkpt lat="41.7364170" lon="2.0514170">
        <ele>698.9</ele>
        <time>2022-09-26T10:50:33Z</time>
      </trkpt>
      <trkpt lat="41.7364080" lon="2.0514330">
        <ele>699.0</ele>
        <time>2022-09-26T10:50:34Z</time>
      </trkpt>
      <trkpt lat="41.7363900" lon="2.0514600">
        <ele>699.3</ele>
        <time>2022-09-26T10:50:35Z</time>
      </trkpt>
      <trkpt lat="41.7363820" lon="2.0514700">
        <ele>699.4</ele>
        <time>2022-09-26T10:50:36Z</time>
      </trkpt>
      <trkpt lat="41.7363690" lon="2.0514830">
        <ele>699.5</ele>
        <time>2022-09-26T10:50:37Z</time>
      </trkpt>
      <trkpt lat="41.7363550" lon="2.0514990">
        <ele>699.7</ele>
        <time>2022-09-26T10:50:38Z</time>
      </trkpt>
      <trkpt lat="41.7363370" lon="2.0515140">
        <ele>699.9</ele>
        <time>2022-09-26T10:50:39Z</time>
      </trkpt>
      <trkpt lat="41.7363260" lon="2.0515250">
        <ele>700.0</ele>
        <time>2022-09-26T10:50:40Z</time>
      </trkpt>
      <trkpt lat="41.7363070" lon="2.0515410">
        <ele>700.2</ele>
        <time>2022-09-26T10:50:41Z</time>
      </trkpt>
      <trkpt lat="41.7362990" lon="2.0515480">
        <ele>700.3</ele>
        <time>2022-09-26T10:50:42Z</time>
      </trkpt>
      <trkpt lat="41.7362920" lon="2.0515540">
        <ele>700.3</ele>
        <time>2022-09-26T10:50:43Z</time>
      </trkpt>
      <trkpt lat="41.7362760" lon="2.0515690">
        <ele>700.5</ele>
        <time>2022-09-26T10:50:44Z</time>
      </trkpt>
      <trkpt lat="41.7362680" lon="2.0515780">
        <ele>700.6</ele>
        <time>2022-09-26T10:50:45Z</time>
      </trkpt>
      <trkpt lat="41.7362610" lon="2.0515870">
        <ele>700.6</ele>
        <time>2022-09-26T10:50:46Z</time>
      </trkpt>
      <trkpt lat="41.7362360" lon="2.0516050">
        <ele>700.8</ele>
        <time>2022-09-26T10:50:47Z</time>
      </trkpt>
      <trkpt lat="41.7362260" lon="2.0516110">
        <ele>700.9</ele>
        <time>2022-09-26T10:50:48Z</time>
      </trkpt>
      <trkpt lat="41.7361980" lon="2.0516230">
        <ele>701.1</ele>
        <time>2022-09-26T10:50:49Z</time>
      </trkpt>
      <trkpt lat="41.7361610" lon="2.0516370">
        <ele>701.3</ele>
        <time>2022-09-26T10:50:50Z</time>
      </trkpt>
      <trkpt lat="41.7361500" lon="2.0516400">
        <ele>701.4</ele>
        <time>2022-09-26T10:50:51Z</time>
      </trkpt>
      <trkpt lat="41.7361150" lon="2.0516480">
        <ele>701.6</ele>
        <time>2022-09-26T10:50:52Z</time>
      </trkpt>
      <trkpt lat="41.7361050" lon="2.0516500">
        <ele>701.7</ele>
        <time>2022-09-26T10:50:53Z</time>
      </trkpt>
      <trkpt lat="41.7360600" lon="2.0516670">
        <ele>702.0</ele>
        <time>2022-09-26T10:50:55Z</time>
      </trkpt>
      <trkpt lat="41.7360460" lon="2.0516730">
        <ele>702.1</ele>
        <time>2022-09-26T10:50:56Z</time>
      </trkpt>
      <trkpt lat="41.7360310" lon="2.0516790">
        <ele>702.2</ele>
        <time>2022-09-26T10:50:57Z</time>
      </trkpt>
      <trkpt lat="41.7360130" lon="2.0516840">
        <ele>702.3</ele>
        <time>2022-09-26T10:50:58Z</time>
      </trkpt>
      <trkpt lat="41.7359980" lon="2.0516930">
        <ele>702.5</ele>
        <time>2022-09-26T10:50:59Z</time>
      </trkpt>
      <trkpt lat="41.7359860" lon="2.0517060">
        <ele>702.6</ele>
        <time>2022-09-26T10:51:00Z</time>
      </trkpt>
      <trkpt lat="41.7359780" lon="2.0517110">
        <ele>702.7</ele>
        <time>2022-09-26T10:51:01Z</time>
      </trkpt>
      <trkpt lat="41.7359680" lon="2.0517160">
        <ele>702.8</ele>
        <time>2022-09-26T10:51:02Z</time>
      </trkpt>
      <trkpt lat="41.7359320" lon="2.0517280">
        <ele>703.1</ele>
        <time>2022-09-26T10:51:04Z</time>
      </trkpt>
      <trkpt lat="41.7359200" lon="2.0517330">
        <ele>703.2</ele>
        <time>2022-09-26T10:51:05Z</time>
      </trkpt>
      <trkpt lat="41.7358880" lon="2.0517430">
        <ele>703.5</ele>
        <time>2022-09-26T10:51:06Z</time>
      </trkpt>
      <trkpt lat="41.7358770" lon="2.0517480">
        <ele>703.6</ele>
        <time>2022-09-26T10:51:07Z</time>
      </trkpt>
      <trkpt lat="41.7358430" lon="2.0517640">
        <ele>704.0</ele>
        <time>2022-09-26T10:51:08Z</time>
      </trkpt>
      <trkpt lat="41.7358320" lon="2.0517700">
        <ele>704.1</ele>
        <time>2022-09-26T10:51:09Z</time>
      </trkpt>
      <trkpt lat="41.7358060" lon="2.0517870">
        <ele>704.4</ele>
        <time>2022-09-26T10:51:10Z</time>
      </trkpt>
      <trkpt lat="41.7357770" lon="2.0518070">
        <ele>704.8</ele>
        <time>2022-09-26T10:51:11Z</time>
      </trkpt>
      <trkpt lat="41.7357710" lon="2.0518120">
        <ele>704.8</ele>
        <time>2022-09-26T10:51:12Z</time>
      </trkpt>
      <trkpt lat="41.7357470" lon="2.0518350">
        <ele>705.1</ele>
        <time>2022-09-26T10:51:13Z</time>
      </trkpt>
      <trkpt lat="41.7357390" lon="2.0518420">
        <ele>705.2</ele>
        <time>2022-09-26T10:51:14Z</time>
      </trkpt>
      <trkpt lat="41.7357240" lon="2.0518550">
        <ele>705.4</ele>
        <time>2022-09-26T10:51:15Z</time>
      </trkpt>
      <trkpt lat="41.7357100" lon="2.0518650">
        <ele>705.6</ele>
        <time>2022-09-26T10:51:16Z</time>
      </trkpt>
      <trkpt lat="41.7356940" lon="2.0518770">
        <ele>705.7</ele>
        <time>2022-09-26T10:51:17Z</time>
      </trkpt>
      <trkpt lat="41.7356630" lon="2.0519010">
        <ele>706.1</ele>
        <time>2022-09-26T10:51:19Z</time>
      </trkpt>
      <trkpt lat="41.7356280" lon="2.0519280">
        <ele>706.4</ele>
        <time>2022-09-26T10:51:21Z</time>
      </trkpt>
      <trkpt lat="41.7356160" lon="2.0519400">
        <ele>706.5</ele>
        <time>2022-09-26T10:51:22Z</time>
      </trkpt>
      <trkpt lat="41.7355820" lon="2.0519760">
        <ele>706.9</ele>
        <time>2022-09-26T10:51:24Z</time>
      </trkpt>
      <trkpt lat="41.7355710" lon="2.0519850">
        <ele>707.0</ele>
        <time>2022-09-26T10:51:25Z</time>
      </trkpt>
      <trkpt lat="41.7355610" lon="2.0519930">
        <ele>707.1</ele>
        <time>2022-09-26T10:51:26Z</time>
      </trkpt>
      <trkpt lat="41.7355460" lon="2.0520080">
        <ele>707.3</ele>
        <time>2022-09-26T10:51:27Z</time>
      </trkpt>
      <trkpt lat="41.7355370" lon="2.0520190">
        <ele>707.4</ele>
        <time>2022-09-26T10:51:28Z</time>
      </trkpt>
      <trkpt lat="41.7354960" lon="2.0520620">
        <ele>707.8</ele>
        <time>2022-09-26T10:51:30Z</time>
      </trkpt>
      <trkpt lat="41.7354810" lon="2.0520750">
        <ele>708.0</ele>
        <time>2022-09-26T10:51:32Z</time>
      </trkpt>
      <trkpt lat="41.7354660" lon="2.0520870">
        <ele>708.1</ele>
        <time>2022-09-26T10:51:34Z</time>
      </trkpt>
      <trkpt lat="41.7354510" lon="2.0521000">
        <ele>708.3</ele>
        <time>2022-09-26T10:51:35Z</time>
      </trkpt>
      <trkpt lat="41.7354260" lon="2.0521170">
        <ele>708.6</ele>
        <time>2022-09-26T10:51:36Z</time>
      </trkpt>
      <trkpt lat="41.7354000" lon="2.0521370">
        <ele>708.8</ele>
        <time>2022-09-26T10:51:37Z</time>
      </trkpt>
      <trkpt lat="41.7353920" lon="2.0521420">
        <ele>708.9</ele>
        <time>2022-09-26T10:51:38Z</time>
      </trkpt>
      <trkpt lat="41.7353770" lon="2.0521630">
        <ele>709.1</ele>
        <time>2022-09-26T10:51:39Z</time>
      </trkpt>
      <trkpt lat="41.7353700" lon="2.0521750">
        <ele>709.3</ele>
        <time>2022-09-26T10:51:40Z</time>
      </trkpt>
      <trkpt lat="41.7353630" lon="2.0521870">
        <ele>709.4</ele>
        <time>2022-09-26T10:51:41Z</time>
      </trkpt>
      <trkpt lat="41.7353520" lon="2.0522030">
        <ele>709.5</ele>
        <time>2022-09-26T10:51:42Z</time>
      </trkpt>
      <trkpt lat="41.7353400" lon="2.0522190">
        <ele>709.7</ele>
        <time>2022-09-26T10:51:43Z</time>
      </trkpt>
      <trkpt lat="41.7353300" lon="2.0522340">
        <ele>709.9</ele>
        <time>2022-09-26T10:51:44Z</time>
      </trkpt>
      <trkpt lat="41.7353220" lon="2.0522500">
        <ele>710.0</ele>
        <time>2022-09-26T10:51:45Z</time>
      </trkpt>
      <trkpt lat="41.7352980" lon="2.0522810">
        <ele>710.4</ele>
        <time>2022-09-26T10:51:47Z</time>
      </trkpt>
      <trkpt lat="41.7352870" lon="2.0522940">
        <ele>710.5</ele>
        <time>2022-09-26T10:51:48Z</time>
      </trkpt>
      <trkpt lat="41.7352790" lon="2.0523070">
        <ele>710.7</ele>
        <time>2022-09-26T10:51:49Z</time>
      </trkpt>
      <trkpt lat="41.7352710" lon="2.0523210">
        <ele>710.8</ele>
        <time>2022-09-26T10:51:50Z</time>
      </trkpt>
      <trkpt lat="41.7352600" lon="2.0523360">
        <ele>711.0</ele>
        <time>2022-09-26T10:51:51Z</time>
      </trkpt>
      <trkpt lat="41.7352510" lon="2.0523600">
        <ele>711.1</ele>
        <time>2022-09-26T10:51:52Z</time>
      </trkpt>
      <trkpt lat="41.7352450" lon="2.0523790">
        <ele>711.3</ele>
        <time>2022-09-26T10:51:53Z</time>
      </trkpt>
      <trkpt lat="41.7352290" lon="2.0524140">
        <ele>711.6</ele>
        <time>2022-09-26T10:51:54Z</time>
      </trkpt>
      <trkpt lat="41.7352250" lon="2.0524230">
        <ele>711.6</ele>
        <time>2022-09-26T10:51:55Z</time>
      </trkpt>
      <trkpt lat="41.7352150" lon="2.0524410">
        <ele>711.8</ele>
        <time>2022-09-26T10:51:56Z</time>
      </trkpt>
      <trkpt lat="41.7352050" lon="2.0524610">
        <ele>711.9</ele>
        <time>2022-09-26T10:51:57Z</time>
      </trkpt>
      <trkpt lat="41.7351960" lon="2.0524810">
        <ele>712.1</ele>
        <time>2022-09-26T10:51:58Z</time>
      </trkpt>
      <trkpt lat="41.7351830" lon="2.0524990">
        <ele>712.2</ele>
        <time>2022-09-26T10:51:59Z</time>
      </trkpt>
      <trkpt lat="41.7351620" lon="2.0525330">
        <ele>712.4</ele>
        <time>2022-09-26T10:52:01Z</time>
      </trkpt>
      <trkpt lat="41.7351560" lon="2.0525530">
        <ele>712.5</ele>
        <time>2022-09-26T10:52:02Z</time>
      </trkpt>
      <trkpt lat="41.7351520" lon="2.0525740">
        <ele>712.6</ele>
        <time>2022-09-26T10:52:03Z</time>
      </trkpt>
      <trkpt lat="41.7351380" lon="2.0526100">
        <ele>712.8</ele>
        <time>2022-09-26T10:52:04Z</time>
      </trkpt>
      <trkpt lat="41.7351330" lon="2.0526220">
        <ele>712.8</ele>
        <time>2022-09-26T10:52:05Z</time>
      </trkpt>
      <trkpt lat="41.7351120" lon="2.0526520">
        <ele>713.0</ele>
        <time>2022-09-26T10:52:06Z</time>
      </trkpt>
      <trkpt lat="41.7351050" lon="2.0526610">
        <ele>713.0</ele>
        <time>2022-09-26T10:52:07Z</time>
      </trkpt>
      <trkpt lat="41.7350800" lon="2.0526980">
        <ele>713.1</ele>
        <time>2022-09-26T10:52:08Z</time>
      </trkpt>
      <trkpt lat="41.7350710" lon="2.0527090">
        <ele>713.2</ele>
        <time>2022-09-26T10:52:09Z</time>
      </trkpt>
      <trkpt lat="41.7350400" lon="2.0527420">
        <ele>713.3</ele>
        <time>2022-09-26T10:52:11Z</time>
      </trkpt>
      <trkpt lat="41.7350190" lon="2.0527700">
        <ele>713.3</ele>
        <time>2022-09-26T10:52:12Z</time>
      </trkpt>
      <trkpt lat="41.7349910" lon="2.0528040">
        <ele>713.4</ele>
        <time>2022-09-26T10:52:13Z</time>
      </trkpt>
      <trkpt lat="41.7349820" lon="2.0528150">
        <ele>713.4</ele>
        <time>2022-09-26T10:52:14Z</time>
      </trkpt>
      <trkpt lat="41.7349560" lon="2.0528450">
        <ele>713.5</ele>
        <time>2022-09-26T10:52:15Z</time>
      </trkpt>
      <trkpt lat="41.7349490" lon="2.0528530">
        <ele>713.5</ele>
        <time>2022-09-26T10:52:16Z</time>
      </trkpt>
      <trkpt lat="41.7349150" lon="2.0529090">
        <ele>713.6</ele>
        <time>2022-09-26T10:52:18Z</time>
      </trkpt>
      <trkpt lat="41.7348970" lon="2.0529470">
        <ele>713.7</ele>
        <time>2022-09-26T10:52:19Z</time>
      </trkpt>
      <trkpt lat="41.7348810" lon="2.0529780">
        <ele>713.8</ele>
        <time>2022-09-26T10:52:20Z</time>
      </trkpt>
      <trkpt lat="41.7348540" lon="2.0530330">
        <ele>713.9</ele>
        <time>2022-09-26T10:52:22Z</time>
      </trkpt>
      <trkpt lat="41.7348230" lon="2.0530960">
        <ele>714.1</ele>
        <time>2022-09-26T10:52:24Z</time>
      </trkpt>
      <trkpt lat="41.7348020" lon="2.0531380">
        <ele>714.3</ele>
        <time>2022-09-26T10:52:25Z</time>
      </trkpt>
      <trkpt lat="41.7347950" lon="2.0531500">
        <ele>714.3</ele>
        <time>2022-09-26T10:52:26Z</time>
      </trkpt>
      <trkpt lat="41.7347810" lon="2.0531690">
        <ele>714.4</ele>
        <time>2022-09-26T10:52:27Z</time>
      </trkpt>
      <trkpt lat="41.7347590" lon="2.0532050">
        <ele>714.6</ele>
        <time>2022-09-26T10:52:29Z</time>
      </trkpt>
      <trkpt lat="41.7347360" lon="2.0532400">
        <ele>714.8</ele>
        <time>2022-09-26T10:52:30Z</time>
      </trkpt>
      <trkpt lat="41.7347290" lon="2.0532520">
        <ele>714.9</ele>
        <time>2022-09-26T10:52:31Z</time>
      </trkpt>
      <trkpt lat="41.7347210" lon="2.0532730">
        <ele>715.1</ele>
        <time>2022-09-26T10:52:32Z</time>
      </trkpt>
      <trkpt lat="41.7347140" lon="2.0532860">
        <ele>715.1</ele>
        <time>2022-09-26T10:52:33Z</time>
      </trkpt>
      <trkpt lat="41.7347060" lon="2.0533050">
        <ele>715.3</ele>
        <time>2022-09-26T10:52:34Z</time>
      </trkpt>
      <trkpt lat="41.7347000" lon="2.0533280">
        <ele>715.4</ele>
        <time>2022-09-26T10:52:35Z</time>
      </trkpt>
      <trkpt lat="41.7346880" lon="2.0533670">
        <ele>715.7</ele>
        <time>2022-09-26T10:52:36Z</time>
      </trkpt>
      <trkpt lat="41.7346830" lon="2.0533790">
        <ele>715.8</ele>
        <time>2022-09-26T10:52:37Z</time>
      </trkpt>
      <trkpt lat="41.7346750" lon="2.0533970">
        <ele>716.0</ele>
        <time>2022-09-26T10:52:38Z</time>
      </trkpt>
      <trkpt lat="41.7346650" lon="2.0534150">
        <ele>716.1</ele>
        <time>2022-09-26T10:52:39Z</time>
      </trkpt>
      <trkpt lat="41.7346360" lon="2.0534350">
        <ele>716.4</ele>
        <time>2022-09-26T10:52:40Z</time>
      </trkpt>
      <trkpt lat="41.7346240" lon="2.0534420">
        <ele>716.5</ele>
        <time>2022-09-26T10:52:41Z</time>
      </trkpt>
      <trkpt lat="41.7345940" lon="2.0534590">
        <ele>716.8</ele>
        <time>2022-09-26T10:52:42Z</time>
      </trkpt>
      <trkpt lat="41.7345840" lon="2.0534650">
        <ele>716.9</ele>
        <time>2022-09-26T10:52:43Z</time>
      </trkpt>
      <trkpt lat="41.7345550" lon="2.0534770">
        <ele>717.2</ele>
        <time>2022-09-26T10:52:44Z</time>
      </trkpt>
      <trkpt lat="41.7345460" lon="2.0534800">
        <ele>717.2</ele>
        <time>2022-09-26T10:52:45Z</time>
      </trkpt>
      <trkpt lat="41.7345130" lon="2.0534940">
        <ele>717.5</ele>
        <time>2022-09-26T10:52:46Z</time>
      </trkpt>
      <trkpt lat="41.7344990" lon="2.0534990">
        <ele>717.7</ele>
        <time>2022-09-26T10:52:47Z</time>
      </trkpt>
      <trkpt lat="41.7344710" lon="2.0535060">
        <ele>717.9</ele>
        <time>2022-09-26T10:52:48Z</time>
      </trkpt>
      <trkpt lat="41.7344260" lon="2.0535160">
        <ele>718.3</ele>
        <time>2022-09-26T10:52:50Z</time>
      </trkpt>
      <trkpt lat="41.7343980" lon="2.0535200">
        <ele>718.5</ele>
        <time>2022-09-26T10:52:51Z</time>
      </trkpt>
      <trkpt lat="41.7343880" lon="2.0535210">
        <ele>718.6</ele>
        <time>2022-09-26T10:52:52Z</time>
      </trkpt>
      <trkpt lat="41.7343720" lon="2.0535250">
        <ele>718.7</ele>
        <time>2022-09-26T10:52:53Z</time>
      </trkpt>
      <trkpt lat="41.7343290" lon="2.0535510">
        <ele>719.1</ele>
        <time>2022-09-26T10:52:56Z</time>
      </trkpt>
      <trkpt lat="41.7343090" lon="2.0535610">
        <ele>719.3</ele>
        <time>2022-09-26T10:52:57Z</time>
      </trkpt>
      <trkpt lat="41.7342830" lon="2.0535790">
        <ele>719.6</ele>
        <time>2022-09-26T10:52:58Z</time>
      </trkpt>
      <trkpt lat="41.7342760" lon="2.0535850">
        <ele>719.6</ele>
        <time>2022-09-26T10:52:59Z</time>
      </trkpt>
      <trkpt lat="41.7342680" lon="2.0535970">
        <ele>719.7</ele>
        <time>2022-09-26T10:53:00Z</time>
      </trkpt>
      <trkpt lat="41.7342540" lon="2.0536080">
        <ele>719.9</ele>
        <time>2022-09-26T10:53:01Z</time>
      </trkpt>
      <trkpt lat="41.7342420" lon="2.0536180">
        <ele>720.0</ele>
        <time>2022-09-26T10:53:02Z</time>
      </trkpt>
      <trkpt lat="41.7342220" lon="2.0536280">
        <ele>720.2</ele>
        <time>2022-09-26T10:53:03Z</time>
      </trkpt>
      <trkpt lat="41.7341730" lon="2.0536430">
        <ele>720.7</ele>
        <time>2022-09-26T10:53:05Z</time>
      </trkpt>
      <trkpt lat="41.7341410" lon="2.0536540">
        <ele>721.0</ele>
        <time>2022-09-26T10:53:06Z</time>
      </trkpt>
      <trkpt lat="41.7341290" lon="2.0536570">
        <ele>721.1</ele>
        <time>2022-09-26T10:53:07Z</time>
      </trkpt>
      <trkpt lat="41.7341120" lon="2.0536640">
        <ele>721.3</ele>
        <time>2022-09-26T10:53:08Z</time>
      </trkpt>
      <trkpt lat="41.7340970" lon="2.0536680">
        <ele>721.4</ele>
        <time>2022-09-26T10:53:09Z</time>
      </trkpt>
      <trkpt lat="41.7340720" lon="2.0536810">
        <ele>721.6</ele>
        <time>2022-09-26T10:53:10Z</time>
      </trkpt>
      <trkpt lat="41.7340620" lon="2.0536870">
        <ele>721.7</ele>
        <time>2022-09-26T10:53:11Z</time>
      </trkpt>
      <trkpt lat="41.7340250" lon="2.0537070">
        <ele>722.1</ele>
        <time>2022-09-26T10:53:12Z</time>
      </trkpt>
      <trkpt lat="41.7340120" lon="2.0537120">
        <ele>722.2</ele>
        <time>2022-09-26T10:53:13Z</time>
      </trkpt>
      <trkpt lat="41.7339770" lon="2.0537290">
        <ele>722.5</ele>
        <time>2022-09-26T10:53:14Z</time>
      </trkpt>
      <trkpt lat="41.7339640" lon="2.0537350">
        <ele>722.6</ele>
        <time>2022-09-26T10:53:15Z</time>
      </trkpt>
      <trkpt lat="41.7339180" lon="2.0537560">
        <ele>723.0</ele>
        <time>2022-09-26T10:53:17Z</time>
      </trkpt>
      <trkpt lat="41.7338830" lon="2.0537740">
        <ele>723.3</ele>
        <time>2022-09-26T10:53:18Z</time>
      </trkpt>
      <trkpt lat="41.7338730" lon="2.0537810">
        <ele>723.4</ele>
        <time>2022-09-26T10:53:19Z</time>
      </trkpt>
      <trkpt lat="41.7338480" lon="2.0538030">
        <ele>723.6</ele>
        <time>2022-09-26T10:53:20Z</time>
      </trkpt>
      <trkpt lat="41.7338410" lon="2.0538100">
        <ele>723.7</ele>
        <time>2022-09-26T10:53:21Z</time>
      </trkpt>
      <trkpt lat="41.7338090" lon="2.0538340">
        <ele>724.0</ele>
        <time>2022-09-26T10:53:22Z</time>
      </trkpt>
      <trkpt lat="41.7338000" lon="2.0538420">
        <ele>724.1</ele>
        <time>2022-09-26T10:53:23Z</time>
      </trkpt>
      <trkpt lat="41.7337750" lon="2.0538710">
        <ele>724.3</ele>
        <time>2022-09-26T10:53:24Z</time>
      </trkpt>
      <trkpt lat="41.7337670" lon="2.0538800">
        <ele>724.4</ele>
        <time>2022-09-26T10:53:25Z</time>
      </trkpt>
      <trkpt lat="41.7337400" lon="2.0539050">
        <ele>724.7</ele>
        <time>2022-09-26T10:53:26Z</time>
      </trkpt>
      <trkpt lat="41.7337310" lon="2.0539130">
        <ele>724.7</ele>
        <time>2022-09-26T10:53:27Z</time>
      </trkpt>
      <trkpt lat="41.7337060" lon="2.0539340">
        <ele>725.0</ele>
        <time>2022-09-26T10:53:28Z</time>
      </trkpt>
      <trkpt lat="41.7337000" lon="2.0539390">
        <ele>725.0</ele>
        <time>2022-09-26T10:53:29Z</time>
      </trkpt>
      <trkpt lat="41.7336860" lon="2.0539550">
        <ele>725.2</ele>
        <time>2022-09-26T10:53:30Z</time>
      </trkpt>
      <trkpt lat="41.7336720" lon="2.0539670">
        <ele>725.3</ele>
        <time>2022-09-26T10:53:31Z</time>
      </trkpt>
      <trkpt lat="41.7336470" lon="2.0539940">
        <ele>725.5</ele>
        <time>2022-09-26T10:53:32Z</time>
      </trkpt>
      <trkpt lat="41.7336380" lon="2.0540040">
        <ele>725.6</ele>
        <time>2022-09-26T10:53:33Z</time>
      </trkpt>
      <trkpt lat="41.7336130" lon="2.0540260">
        <ele>725.8</ele>
        <time>2022-09-26T10:53:34Z</time>
      </trkpt>
      <trkpt lat="41.7336050" lon="2.0540350">
        <ele>725.9</ele>
        <time>2022-09-26T10:53:35Z</time>
      </trkpt>
      <trkpt lat="41.7335790" lon="2.0540480">
        <ele>726.1</ele>
        <time>2022-09-26T10:53:36Z</time>
      </trkpt>
      <trkpt lat="41.7335500" lon="2.0540680">
        <ele>726.4</ele>
        <time>2022-09-26T10:53:37Z</time>
      </trkpt>
      <trkpt lat="41.7335430" lon="2.0540740">
        <ele>726.4</ele>
        <time>2022-09-26T10:53:38Z</time>
      </trkpt>
      <trkpt lat="41.7335280" lon="2.0540840">
        <ele>726.6</ele>
        <time>2022-09-26T10:53:39Z</time>
      </trkpt>
      <trkpt lat="41.7335030" lon="2.0541150">
        <ele>726.8</ele>
        <time>2022-09-26T10:53:41Z</time>
      </trkpt>
      <trkpt lat="41.7334800" lon="2.0541450">
        <ele>727.0</ele>
        <time>2022-09-26T10:53:42Z</time>
      </trkpt>
      <trkpt lat="41.7334700" lon="2.0541570">
        <ele>727.1</ele>
        <time>2022-09-26T10:53:43Z</time>
      </trkpt>
      <trkpt lat="41.7334560" lon="2.0541690">
        <ele>727.2</ele>
        <time>2022-09-26T10:53:44Z</time>
      </trkpt>
      <trkpt lat="41.7334420" lon="2.0541820">
        <ele>727.4</ele>
        <time>2022-09-26T10:53:45Z</time>
      </trkpt>
      <trkpt lat="41.7334270" lon="2.0541900">
        <ele>727.5</ele>
        <time>2022-09-26T10:53:46Z</time>
      </trkpt>
      <trkpt lat="41.7334090" lon="2.0541990">
        <ele>727.6</ele>
        <time>2022-09-26T10:53:47Z</time>
      </trkpt>
      <trkpt lat="41.7333940" lon="2.0542010">
        <ele>727.7</ele>
        <time>2022-09-26T10:53:48Z</time>
      </trkpt>
      <trkpt lat="41.7333810" lon="2.0542050">
        <ele>727.8</ele>
        <time>2022-09-26T10:53:49Z</time>
      </trkpt>
      <trkpt lat="41.7333450" lon="2.0542250">
        <ele>728.0</ele>
        <time>2022-09-26T10:53:51Z</time>
      </trkpt>
      <trkpt lat="41.7333090" lon="2.0542310">
        <ele>728.3</ele>
        <time>2022-09-26T10:53:52Z</time>
      </trkpt>
      <trkpt lat="41.7332960" lon="2.0542320">
        <ele>728.4</ele>
        <time>2022-09-26T10:53:53Z</time>
      </trkpt>
      <trkpt lat="41.7332680" lon="2.0542300">
        <ele>728.5</ele>
        <time>2022-09-26T10:53:54Z</time>
      </trkpt>
      <trkpt lat="41.7332310" lon="2.0542260">
        <ele>728.8</ele>
        <time>2022-09-26T10:53:55Z</time>
      </trkpt>
      <trkpt lat="41.7332180" lon="2.0542250">
        <ele>728.9</ele>
        <time>2022-09-26T10:53:56Z</time>
      </trkpt>
      <trkpt lat="41.7331790" lon="2.0542310">
        <ele>729.1</ele>
        <time>2022-09-26T10:53:57Z</time>
      </trkpt>
      <trkpt lat="41.7331650" lon="2.0542320">
        <ele>729.2</ele>
        <time>2022-09-26T10:53:58Z</time>
      </trkpt>
      <trkpt lat="41.7331390" lon="2.0542380">
        <ele>729.4</ele>
        <time>2022-09-26T10:53:59Z</time>
      </trkpt>
      <trkpt lat="41.7330990" lon="2.0542590">
        <ele>729.7</ele>
        <time>2022-09-26T10:54:01Z</time>
      </trkpt>
      <trkpt lat="41.7330720" lon="2.0542830">
        <ele>729.9</ele>
        <time>2022-09-26T10:54:02Z</time>
      </trkpt>
      <trkpt lat="41.7330660" lon="2.0542900">
        <ele>729.9</ele>
        <time>2022-09-26T10:54:03Z</time>
      </trkpt>
      <trkpt lat="41.7330350" lon="2.0543150">
        <ele>730.1</ele>
        <time>2022-09-26T10:54:04Z</time>
      </trkpt>
      <trkpt lat="41.7330260" lon="2.0543220">
        <ele>730.2</ele>
        <time>2022-09-26T10:54:05Z</time>
      </trkpt>
      <trkpt lat="41.7330010" lon="2.0543440">
        <ele>730.4</ele>
        <time>2022-09-26T10:54:06Z</time>
      </trkpt>
      <trkpt lat="41.7329940" lon="2.0543510">
        <ele>730.4</ele>
        <time>2022-09-26T10:54:07Z</time>
      </trkpt>
      <trkpt lat="41.7329780" lon="2.0543680">
        <ele>730.6</ele>
        <time>2022-09-26T10:54:08Z</time>
      </trkpt>
      <trkpt lat="41.7329480" lon="2.0544120">
        <ele>730.8</ele>
        <time>2022-09-26T10:54:10Z</time>
      </trkpt>
      <trkpt lat="41.7329320" lon="2.0544420">
        <ele>731.0</ele>
        <time>2022-09-26T10:54:11Z</time>
      </trkpt>
      <trkpt lat="41.7329110" lon="2.0544740">
        <ele>731.2</ele>
        <time>2022-09-26T10:54:12Z</time>
      </trkpt>
      <trkpt lat="41.7329050" lon="2.0544830">
        <ele>731.3</ele>
        <time>2022-09-26T10:54:13Z</time>
      </trkpt>
      <trkpt lat="41.7328750" lon="2.0545230">
        <ele>731.6</ele>
        <time>2022-09-26T10:54:15Z</time>
      </trkpt>
      <trkpt lat="41.7328450" lon="2.0545560">
        <ele>731.8</ele>
        <time>2022-09-26T10:54:16Z</time>
      </trkpt>
      <trkpt lat="41.7328350" lon="2.0545680">
        <ele>731.9</ele>
        <time>2022-09-26T10:54:17Z</time>
      </trkpt>
      <trkpt lat="41.7327950" lon="2.0546090">
        <ele>732.3</ele>
        <time>2022-09-26T10:54:19Z</time>
      </trkpt>
      <trkpt lat="41.7327710" lon="2.0546280">
        <ele>732.5</ele>
        <time>2022-09-26T10:54:20Z</time>
      </trkpt>
      <trkpt lat="41.7327610" lon="2.0546360">
        <ele>732.6</ele>
        <time>2022-09-26T10:54:21Z</time>
      </trkpt>
      <trkpt lat="41.7327330" lon="2.0546570">
        <ele>732.8</ele>
        <time>2022-09-26T10:54:22Z</time>
      </trkpt>
      <trkpt lat="41.7327250" lon="2.0546650">
        <ele>732.9</ele>
        <time>2022-09-26T10:54:23Z</time>
      </trkpt>
      <trkpt lat="41.7327110" lon="2.0546810">
        <ele>733.1</ele>
        <time>2022-09-26T10:54:24Z</time>
      </trkpt>
      <trkpt lat="41.7326720" lon="2.0547140">
        <ele>733.4</ele>
        <time>2022-09-26T10:54:26Z</time>
      </trkpt>
      <trkpt lat="41.7326470" lon="2.0547410">
        <ele>733.7</ele>
        <time>2022-09-26T10:54:27Z</time>
      </trkpt>
      <trkpt lat="41.7326380" lon="2.0547490">
        <ele>733.8</ele>
        <time>2022-09-26T10:54:28Z</time>
      </trkpt>
      <trkpt lat="41.7326150" lon="2.0547720">
        <ele>734.0</ele>
        <time>2022-09-26T10:54:29Z</time>
      </trkpt>
      <trkpt lat="41.7326090" lon="2.0547790">
        <ele>734.1</ele>
        <time>2022-09-26T10:54:30Z</time>
      </trkpt>
      <trkpt lat="41.7325850" lon="2.0548030">
        <ele>734.3</ele>
        <time>2022-09-26T10:54:31Z</time>
      </trkpt>
      <trkpt lat="41.7325760" lon="2.0548110">
        <ele>734.4</ele>
        <time>2022-09-26T10:54:32Z</time>
      </trkpt>
      <trkpt lat="41.7325490" lon="2.0548320">
        <ele>734.7</ele>
        <time>2022-09-26T10:54:33Z</time>
      </trkpt>
      <trkpt lat="41.7325400" lon="2.0548390">
        <ele>734.7</ele>
        <time>2022-09-26T10:54:34Z</time>
      </trkpt>
      <trkpt lat="41.7325290" lon="2.0548480">
        <ele>734.8</ele>
        <time>2022-09-26T10:54:35Z</time>
      </trkpt>
      <trkpt lat="41.7325140" lon="2.0548600">
        <ele>735.0</ele>
        <time>2022-09-26T10:54:36Z</time>
      </trkpt>
      <trkpt lat="41.7324960" lon="2.0548850">
        <ele>735.2</ele>
        <time>2022-09-26T10:54:37Z</time>
      </trkpt>
      <trkpt lat="41.7324890" lon="2.0548940">
        <ele>735.3</ele>
        <time>2022-09-26T10:54:38Z</time>
      </trkpt>
      <trkpt lat="41.7324720" lon="2.0549070">
        <ele>735.4</ele>
        <time>2022-09-26T10:54:39Z</time>
      </trkpt>
      <trkpt lat="41.7324570" lon="2.0549140">
        <ele>735.6</ele>
        <time>2022-09-26T10:54:40Z</time>
      </trkpt>
      <trkpt lat="41.7324440" lon="2.0549260">
        <ele>735.7</ele>
        <time>2022-09-26T10:54:41Z</time>
      </trkpt>
      <trkpt lat="41.7324310" lon="2.0549450">
        <ele>735.8</ele>
        <time>2022-09-26T10:54:42Z</time>
      </trkpt>
      <trkpt lat="41.7324080" lon="2.0549720">
        <ele>736.1</ele>
        <time>2022-09-26T10:54:43Z</time>
      </trkpt>
      <trkpt lat="41.7323990" lon="2.0549800">
        <ele>736.1</ele>
        <time>2022-09-26T10:54:44Z</time>
      </trkpt>
      <trkpt lat="41.7323870" lon="2.0549900">
        <ele>736.2</ele>
        <time>2022-09-26T10:54:45Z</time>
      </trkpt>
      <trkpt lat="41.7323710" lon="2.0550020">
        <ele>736.4</ele>
        <time>2022-09-26T10:54:46Z</time>
      </trkpt>
      <trkpt lat="41.7323410" lon="2.0550230">
        <ele>736.6</ele>
        <time>2022-09-26T10:54:47Z</time>
      </trkpt>
      <trkpt lat="41.7323330" lon="2.0550300">
        <ele>736.7</ele>
        <time>2022-09-26T10:54:48Z</time>
      </trkpt>
      <trkpt lat="41.7323120" lon="2.0550540">
        <ele>736.9</ele>
        <time>2022-09-26T10:54:49Z</time>
      </trkpt>
      <trkpt lat="41.7323040" lon="2.0550610">
        <ele>737.0</ele>
        <time>2022-09-26T10:54:50Z</time>
      </trkpt>
      <trkpt lat="41.7322780" lon="2.0550800">
        <ele>737.2</ele>
        <time>2022-09-26T10:54:51Z</time>
      </trkpt>
      <trkpt lat="41.7322670" lon="2.0550850">
        <ele>737.3</ele>
        <time>2022-09-26T10:54:52Z</time>
      </trkpt>
      <trkpt lat="41.7322340" lon="2.0551050">
        <ele>737.5</ele>
        <time>2022-09-26T10:54:53Z</time>
      </trkpt>
      <trkpt lat="41.7322230" lon="2.0551120">
        <ele>737.6</ele>
        <time>2022-09-26T10:54:54Z</time>
      </trkpt>
      <trkpt lat="41.7322000" lon="2.0551340">
        <ele>737.8</ele>
        <time>2022-09-26T10:54:55Z</time>
      </trkpt>
      <trkpt lat="41.7321930" lon="2.0551400">
        <ele>737.9</ele>
        <time>2022-09-26T10:54:56Z</time>
      </trkpt>
      <trkpt lat="41.7321730" lon="2.0551650">
        <ele>738.1</ele>
        <time>2022-09-26T10:54:57Z</time>
      </trkpt>
      <trkpt lat="41.7321640" lon="2.0551780">
        <ele>738.2</ele>
        <time>2022-09-26T10:54:58Z</time>
      </trkpt>
      <trkpt lat="41.7321400" lon="2.0552030">
        <ele>738.4</ele>
        <time>2022-09-26T10:54:59Z</time>
      </trkpt>
      <trkpt lat="41.7321320" lon="2.0552110">
        <ele>738.5</ele>
        <time>2022-09-26T10:55:00Z</time>
      </trkpt>
      <trkpt lat="41.7321120" lon="2.0552400">
        <ele>738.7</ele>
        <time>2022-09-26T10:55:01Z</time>
      </trkpt>
      <trkpt lat="41.7321040" lon="2.0552510">
        <ele>738.8</ele>
        <time>2022-09-26T10:55:02Z</time>
      </trkpt>
      <trkpt lat="41.7320800" lon="2.0552900">
        <ele>739.1</ele>
        <time>2022-09-26T10:55:03Z</time>
      </trkpt>
      <trkpt lat="41.7320730" lon="2.0553020">
        <ele>739.2</ele>
        <time>2022-09-26T10:55:04Z</time>
      </trkpt>
      <trkpt lat="41.7320540" lon="2.0553320">
        <ele>739.4</ele>
        <time>2022-09-26T10:55:05Z</time>
      </trkpt>
      <trkpt lat="41.7320470" lon="2.0553420">
        <ele>739.4</ele>
        <time>2022-09-26T10:55:06Z</time>
      </trkpt>
      <trkpt lat="41.7320250" lon="2.0553670">
        <ele>739.6</ele>
        <time>2022-09-26T10:55:07Z</time>
      </trkpt>
      <trkpt lat="41.7319990" lon="2.0553930">
        <ele>739.8</ele>
        <time>2022-09-26T10:55:08Z</time>
      </trkpt>
      <trkpt lat="41.7319930" lon="2.0554000">
        <ele>739.9</ele>
        <time>2022-09-26T10:55:09Z</time>
      </trkpt>
      <trkpt lat="41.7319710" lon="2.0554330">
        <ele>740.1</ele>
        <time>2022-09-26T10:55:10Z</time>
      </trkpt>
      <trkpt lat="41.7319470" lon="2.0554660">
        <ele>740.3</ele>
        <time>2022-09-26T10:55:11Z</time>
      </trkpt>
      <trkpt lat="41.7319400" lon="2.0554750">
        <ele>740.4</ele>
        <time>2022-09-26T10:55:12Z</time>
      </trkpt>
      <trkpt lat="41.7319090" lon="2.0555150">
        <ele>740.7</ele>
        <time>2022-09-26T10:55:14Z</time>
      </trkpt>
      <trkpt lat="41.7318870" lon="2.0555440">
        <ele>740.9</ele>
        <time>2022-09-26T10:55:15Z</time>
      </trkpt>
      <trkpt lat="41.7318790" lon="2.0555520">
        <ele>741.0</ele>
        <time>2022-09-26T10:55:16Z</time>
      </trkpt>
      <trkpt lat="41.7318540" lon="2.0555780">
        <ele>741.2</ele>
        <time>2022-09-26T10:55:17Z</time>
      </trkpt>
      <trkpt lat="41.7318470" lon="2.0555870">
        <ele>741.3</ele>
        <time>2022-09-26T10:55:18Z</time>
      </trkpt>
      <trkpt lat="41.7318270" lon="2.0556190">
        <ele>741.5</ele>
        <time>2022-09-26T10:55:19Z</time>
      </trkpt>
      <trkpt lat="41.7318190" lon="2.0556290">
        <ele>741.6</ele>
        <time>2022-09-26T10:55:20Z</time>
      </trkpt>
      <trkpt lat="41.7318000" lon="2.0556640">
        <ele>741.8</ele>
        <time>2022-09-26T10:55:21Z</time>
      </trkpt>
      <trkpt lat="41.7317940" lon="2.0556750">
        <ele>741.9</ele>
        <time>2022-09-26T10:55:22Z</time>
      </trkpt>
      <trkpt lat="41.7317830" lon="2.0556920">
        <ele>742.0</ele>
        <time>2022-09-26T10:55:23Z</time>
      </trkpt>
      <trkpt lat="41.7317580" lon="2.0557350">
        <ele>742.3</ele>
        <time>2022-09-26T10:55:25Z</time>
      </trkpt>
      <trkpt lat="41.7317370" lon="2.0557640">
        <ele>742.5</ele>
        <time>2022-09-26T10:55:26Z</time>
      </trkpt>
      <trkpt lat="41.7317290" lon="2.0557740">
        <ele>742.6</ele>
        <time>2022-09-26T10:55:27Z</time>
      </trkpt>
      <trkpt lat="41.7317050" lon="2.0558020">
        <ele>742.8</ele>
        <time>2022-09-26T10:55:28Z</time>
      </trkpt>
      <trkpt lat="41.7316990" lon="2.0558110">
        <ele>742.9</ele>
        <time>2022-09-26T10:55:29Z</time>
      </trkpt>
      <trkpt lat="41.7316850" lon="2.0558350">
        <ele>743.0</ele>
        <time>2022-09-26T10:55:30Z</time>
      </trkpt>
      <trkpt lat="41.7316790" lon="2.0558420">
        <ele>743.1</ele>
        <time>2022-09-26T10:55:31Z</time>
      </trkpt>
      <trkpt lat="41.7316730" lon="2.0558490">
        <ele>743.1</ele>
        <time>2022-09-26T10:55:32Z</time>
      </trkpt>
      <trkpt lat="41.7316610" lon="2.0558580">
        <ele>743.2</ele>
        <time>2022-09-26T10:55:33Z</time>
      </trkpt>
      <trkpt lat="41.7316300" lon="2.0558840">
        <ele>743.5</ele>
        <time>2022-09-26T10:55:35Z</time>
      </trkpt>
      <trkpt lat="41.7316010" lon="2.0559210">
        <ele>743.8</ele>
        <time>2022-09-26T10:55:37Z</time>
      </trkpt>
      <trkpt lat="41.7315900" lon="2.0559380">
        <ele>743.9</ele>
        <time>2022-09-26T10:55:38Z</time>
      </trkpt>
      <trkpt lat="41.7315810" lon="2.0559580">
        <ele>744.0</ele>
        <time>2022-09-26T10:55:39Z</time>
      </trkpt>
      <trkpt lat="41.7315570" lon="2.0559820">
        <ele>744.2</ele>
        <time>2022-09-26T10:55:40Z</time>
      </trkpt>
      <trkpt lat="41.7315490" lon="2.0559900">
        <ele>744.3</ele>
        <time>2022-09-26T10:55:41Z</time>
      </trkpt>
      <trkpt lat="41.7315200" lon="2.0560100">
        <ele>744.5</ele>
        <time>2022-09-26T10:55:42Z</time>
      </trkpt>
      <trkpt lat="41.7315100" lon="2.0560180">
        <ele>744.6</ele>
        <time>2022-09-26T10:55:43Z</time>
      </trkpt>
      <trkpt lat="41.7314870" lon="2.0560400">
        <ele>744.8</ele>
        <time>2022-09-26T10:55:44Z</time>
      </trkpt>
      <trkpt lat="41.7314800" lon="2.0560470">
        <ele>744.9</ele>
        <time>2022-09-26T10:55:45Z</time>
      </trkpt>
      <trkpt lat="41.7314520" lon="2.0560670">
        <ele>745.1</ele>
        <time>2022-09-26T10:55:46Z</time>
      </trkpt>
      <trkpt lat="41.7314440" lon="2.0560740">
        <ele>745.2</ele>
        <time>2022-09-26T10:55:47Z</time>
      </trkpt>
      <trkpt lat="41.7314180" lon="2.0560910">
        <ele>745.4</ele>
        <time>2022-09-26T10:55:48Z</time>
      </trkpt>
      <trkpt lat="41.7314100" lon="2.0560960">
        <ele>745.4</ele>
        <time>2022-09-26T10:55:49Z</time>
      </trkpt>
      <trkpt lat="41.7313820" lon="2.0561060">
        <ele>745.6</ele>
        <time>2022-09-26T10:55:50Z</time>
      </trkpt>
      <trkpt lat="41.7313540" lon="2.0561180">
        <ele>745.8</ele>
        <time>2022-09-26T10:55:51Z</time>
      </trkpt>
      <trkpt lat="41.7313440" lon="2.0561210">
        <ele>745.9</ele>
        <time>2022-09-26T10:55:52Z</time>
      </trkpt>
      <trkpt lat="41.7313320" lon="2.0561300">
        <ele>745.9</ele>
        <time>2022-09-26T10:55:53Z</time>
      </trkpt>
      <trkpt lat="41.7313180" lon="2.0561500">
        <ele>746.1</ele>
        <time>2022-09-26T10:55:54Z</time>
      </trkpt>
      <trkpt lat="41.7312980" lon="2.0561760">
        <ele>746.2</ele>
        <time>2022-09-26T10:55:55Z</time>
      </trkpt>
      <trkpt lat="41.7312690" lon="2.0562030">
        <ele>746.4</ele>
        <time>2022-09-26T10:55:56Z</time>
      </trkpt>
      <trkpt lat="41.7312580" lon="2.0562110">
        <ele>746.5</ele>
        <time>2022-09-26T10:55:57Z</time>
      </trkpt>
      <trkpt lat="41.7312100" lon="2.0562350">
        <ele>746.8</ele>
        <time>2022-09-26T10:55:59Z</time>
      </trkpt>
      <trkpt lat="41.7311800" lon="2.0562400">
        <ele>746.9</ele>
        <time>2022-09-26T10:56:00Z</time>
      </trkpt>
      <trkpt lat="41.7311700" lon="2.0562410">
        <ele>747.0</ele>
        <time>2022-09-26T10:56:01Z</time>
      </trkpt>
      <trkpt lat="41.7311400" lon="2.0562470">
        <ele>747.1</ele>
        <time>2022-09-26T10:56:03Z</time>
      </trkpt>
      <trkpt lat="41.7311240" lon="2.0562530">
        <ele>747.2</ele>
        <time>2022-09-26T10:56:04Z</time>
      </trkpt>
      <trkpt lat="41.7311090" lon="2.0562600">
        <ele>747.3</ele>
        <time>2022-09-26T10:56:05Z</time>
      </trkpt>
      <trkpt lat="41.7310930" lon="2.0562620">
        <ele>747.4</ele>
        <time>2022-09-26T10:56:06Z</time>
      </trkpt>
      <trkpt lat="41.7310470" lon="2.0562580">
        <ele>747.6</ele>
        <time>2022-09-26T10:56:08Z</time>
      </trkpt>
      <trkpt lat="41.7310180" lon="2.0562550">
        <ele>747.8</ele>
        <time>2022-09-26T10:56:09Z</time>
      </trkpt>
      <trkpt lat="41.7310000" lon="2.0562550">
        <ele>747.9</ele>
        <time>2022-09-26T10:56:10Z</time>
      </trkpt>
      <trkpt lat="41.7309850" lon="2.0562670">
        <ele>748.0</ele>
        <time>2022-09-26T10:56:11Z</time>
      </trkpt>
      <trkpt lat="41.7309770" lon="2.0562690">
        <ele>748.0</ele>
        <time>2022-09-26T10:56:12Z</time>
      </trkpt>
      <trkpt lat="41.7309670" lon="2.0562670">
        <ele>748.1</ele>
        <time>2022-09-26T10:56:13Z</time>
      </trkpt>
      <trkpt lat="41.7309560" lon="2.0562620">
        <ele>748.1</ele>
        <time>2022-09-26T10:56:14Z</time>
      </trkpt>
      <trkpt lat="41.7309460" lon="2.0562590">
        <ele>748.2</ele>
        <time>2022-09-26T10:56:15Z</time>
      </trkpt>
      <trkpt lat="41.7309350" lon="2.0562550">
        <ele>748.2</ele>
        <time>2022-09-26T10:56:16Z</time>
      </trkpt>
      <trkpt lat="41.7309040" lon="2.0562410">
        <ele>748.4</ele>
        <time>2022-09-26T10:56:18Z</time>
      </trkpt>
      <trkpt lat="41.7308730" lon="2.0562270">
        <ele>748.6</ele>
        <time>2022-09-26T10:56:19Z</time>
      </trkpt>
      <trkpt lat="41.7308610" lon="2.0562210">
        <ele>748.7</ele>
        <time>2022-09-26T10:56:20Z</time>
      </trkpt>
      <trkpt lat="41.7308320" lon="2.0562000">
        <ele>748.9</ele>
        <time>2022-09-26T10:56:21Z</time>
      </trkpt>
      <trkpt lat="41.7308220" lon="2.0561920">
        <ele>748.9</ele>
        <time>2022-09-26T10:56:22Z</time>
      </trkpt>
      <trkpt lat="41.7307880" lon="2.0561630">
        <ele>749.1</ele>
        <time>2022-09-26T10:56:23Z</time>
      </trkpt>
      <trkpt lat="41.7307770" lon="2.0561530">
        <ele>749.2</ele>
        <time>2022-09-26T10:56:24Z</time>
      </trkpt>
      <trkpt lat="41.7307490" lon="2.0561360">
        <ele>749.4</ele>
        <time>2022-09-26T10:56:25Z</time>
      </trkpt>
      <trkpt lat="41.7307120" lon="2.0561170">
        <ele>749.6</ele>
        <time>2022-09-26T10:56:26Z</time>
      </trkpt>
      <trkpt lat="41.7306720" lon="2.0560980">
        <ele>749.8</ele>
        <time>2022-09-26T10:56:27Z</time>
      </trkpt>
      <trkpt lat="41.7306440" lon="2.0560850">
        <ele>750.0</ele>
        <time>2022-09-26T10:56:28Z</time>
      </trkpt>
      <trkpt lat="41.7306120" lon="2.0560720">
        <ele>750.2</ele>
        <time>2022-09-26T10:56:29Z</time>
      </trkpt>
      <trkpt lat="41.7305720" lon="2.0560550">
        <ele>750.4</ele>
        <time>2022-09-26T10:56:30Z</time>
      </trkpt>
      <trkpt lat="41.7305570" lon="2.0560490">
        <ele>750.5</ele>
        <time>2022-09-26T10:56:31Z</time>
      </trkpt>
      <trkpt lat="41.7305310" lon="2.0560370">
        <ele>750.6</ele>
        <time>2022-09-26T10:56:32Z</time>
      </trkpt>
      <trkpt lat="41.7305030" lon="2.0560260">
        <ele>750.8</ele>
        <time>2022-09-26T10:56:33Z</time>
      </trkpt>
      <trkpt lat="41.7304670" lon="2.0560200">
        <ele>751.0</ele>
        <time>2022-09-26T10:56:34Z</time>
      </trkpt>
      <trkpt lat="41.7304340" lon="2.0560190">
        <ele>751.2</ele>
        <time>2022-09-26T10:56:35Z</time>
      </trkpt>
      <trkpt lat="41.7303990" lon="2.0560200">
        <ele>751.4</ele>
        <time>2022-09-26T10:56:36Z</time>
      </trkpt>
      <trkpt lat="41.7303640" lon="2.0560290">
        <ele>751.5</ele>
        <time>2022-09-26T10:56:37Z</time>
      </trkpt>
      <trkpt lat="41.7303300" lon="2.0560430">
        <ele>751.7</ele>
        <time>2022-09-26T10:56:38Z</time>
      </trkpt>
      <trkpt lat="41.7303000" lon="2.0560540">
        <ele>751.9</ele>
        <time>2022-09-26T10:56:39Z</time>
      </trkpt>
      <trkpt lat="41.7302610" lon="2.0560680">
        <ele>752.1</ele>
        <time>2022-09-26T10:56:40Z</time>
      </trkpt>
      <trkpt lat="41.7302470" lon="2.0560730">
        <ele>752.1</ele>
        <time>2022-09-26T10:56:41Z</time>
      </trkpt>
      <trkpt lat="41.7302180" lon="2.0560810">
        <ele>752.3</ele>
        <time>2022-09-26T10:56:42Z</time>
      </trkpt>
      <trkpt lat="41.7301880" lon="2.0560850">
        <ele>752.4</ele>
        <time>2022-09-26T10:56:43Z</time>
      </trkpt>
      <trkpt lat="41.7301540" lon="2.0560960">
        <ele>752.6</ele>
        <time>2022-09-26T10:56:44Z</time>
      </trkpt>
      <trkpt lat="41.7301440" lon="2.0561000">
        <ele>752.7</ele>
        <time>2022-09-26T10:56:45Z</time>
      </trkpt>
      <trkpt lat="41.7301130" lon="2.0561110">
        <ele>752.8</ele>
        <time>2022-09-26T10:56:46Z</time>
      </trkpt>
      <trkpt lat="41.7301040" lon="2.0561160">
        <ele>752.9</ele>
        <time>2022-09-26T10:56:47Z</time>
      </trkpt>
      <trkpt lat="41.7300590" lon="2.0561300">
        <ele>753.1</ele>
        <time>2022-09-26T10:56:49Z</time>
      </trkpt>
      <trkpt lat="41.7300280" lon="2.0561400">
        <ele>753.3</ele>
        <time>2022-09-26T10:56:50Z</time>
      </trkpt>
      <trkpt lat="41.7300190" lon="2.0561430">
        <ele>753.3</ele>
        <time>2022-09-26T10:56:51Z</time>
      </trkpt>
      <trkpt lat="41.7299860" lon="2.0561530">
        <ele>753.5</ele>
        <time>2022-09-26T10:56:52Z</time>
      </trkpt>
      <trkpt lat="41.7299750" lon="2.0561560">
        <ele>753.6</ele>
        <time>2022-09-26T10:56:53Z</time>
      </trkpt>
      <trkpt lat="41.7299370" lon="2.0561590">
        <ele>753.8</ele>
        <time>2022-09-26T10:56:54Z</time>
      </trkpt>
      <trkpt lat="41.7299260" lon="2.0561590">
        <ele>753.8</ele>
        <time>2022-09-26T10:56:55Z</time>
      </trkpt>
      <trkpt lat="41.7298890" lon="2.0561630">
        <ele>754.1</ele>
        <time>2022-09-26T10:56:56Z</time>
      </trkpt>
      <trkpt lat="41.7298790" lon="2.0561650">
        <ele>754.1</ele>
        <time>2022-09-26T10:56:57Z</time>
      </trkpt>
      <trkpt lat="41.7298440" lon="2.0561730">
        <ele>754.3</ele>
        <time>2022-09-26T10:56:58Z</time>
      </trkpt>
      <trkpt lat="41.7298320" lon="2.0561750">
        <ele>754.4</ele>
        <time>2022-09-26T10:56:59Z</time>
      </trkpt>
      <trkpt lat="41.7297990" lon="2.0561880">
        <ele>754.6</ele>
        <time>2022-09-26T10:57:00Z</time>
      </trkpt>
      <trkpt lat="41.7297870" lon="2.0561920">
        <ele>754.7</ele>
        <time>2022-09-26T10:57:01Z</time>
      </trkpt>
      <trkpt lat="41.7297400" lon="2.0562070">
        <ele>755.0</ele>
        <time>2022-09-26T10:57:03Z</time>
      </trkpt>
      <trkpt lat="41.7297150" lon="2.0562330">
        <ele>755.1</ele>
        <time>2022-09-26T10:57:04Z</time>
      </trkpt>
      <trkpt lat="41.7297070" lon="2.0562450">
        <ele>755.2</ele>
        <time>2022-09-26T10:57:05Z</time>
      </trkpt>
      <trkpt lat="41.7296890" lon="2.0562720">
        <ele>755.4</ele>
        <time>2022-09-26T10:57:06Z</time>
      </trkpt>
      <trkpt lat="41.7296730" lon="2.0562910">
        <ele>755.5</ele>
        <time>2022-09-26T10:57:07Z</time>
      </trkpt>
      <trkpt lat="41.7296360" lon="2.0563490">
        <ele>755.8</ele>
        <time>2022-09-26T10:57:09Z</time>
      </trkpt>
      <trkpt lat="41.7296170" lon="2.0563770">
        <ele>756.0</ele>
        <time>2022-09-26T10:57:10Z</time>
      </trkpt>
      <trkpt lat="41.7295980" lon="2.0564020">
        <ele>756.2</ele>
        <time>2022-09-26T10:57:11Z</time>
      </trkpt>
      <trkpt lat="41.7295760" lon="2.0564400">
        <ele>756.4</ele>
        <time>2022-09-26T10:57:13Z</time>
      </trkpt>
      <trkpt lat="41.7295560" lon="2.0564730">
        <ele>756.6</ele>
        <time>2022-09-26T10:57:14Z</time>
      </trkpt>
      <trkpt lat="41.7295370" lon="2.0565030">
        <ele>756.7</ele>
        <time>2022-09-26T10:57:15Z</time>
      </trkpt>
      <trkpt lat="41.7295170" lon="2.0565370">
        <ele>756.9</ele>
        <time>2022-09-26T10:57:16Z</time>
      </trkpt>
      <trkpt lat="41.7295100" lon="2.0565470">
        <ele>757.0</ele>
        <time>2022-09-26T10:57:17Z</time>
      </trkpt>
      <trkpt lat="41.7294840" lon="2.0565710">
        <ele>757.2</ele>
        <time>2022-09-26T10:57:18Z</time>
      </trkpt>
      <trkpt lat="41.7294760" lon="2.0565780">
        <ele>757.2</ele>
        <time>2022-09-26T10:57:19Z</time>
      </trkpt>
      <trkpt lat="41.7294510" lon="2.0565930">
        <ele>757.4</ele>
        <time>2022-09-26T10:57:20Z</time>
      </trkpt>
      <trkpt lat="41.7294280" lon="2.0566120">
        <ele>757.5</ele>
        <time>2022-09-26T10:57:21Z</time>
      </trkpt>
      <trkpt lat="41.7293980" lon="2.0566390">
        <ele>757.7</ele>
        <time>2022-09-26T10:57:23Z</time>
      </trkpt>
      <trkpt lat="41.7293640" lon="2.0566700">
        <ele>757.9</ele>
        <time>2022-09-26T10:57:24Z</time>
      </trkpt>
      <trkpt lat="41.7293410" lon="2.0566960">
        <ele>758.0</ele>
        <time>2022-09-26T10:57:25Z</time>
      </trkpt>
      <trkpt lat="41.7293190" lon="2.0567230">
        <ele>758.1</ele>
        <time>2022-09-26T10:57:26Z</time>
      </trkpt>
      <trkpt lat="41.7292970" lon="2.0567440">
        <ele>758.2</ele>
        <time>2022-09-26T10:57:27Z</time>
      </trkpt>
      <trkpt lat="41.7292500" lon="2.0567870">
        <ele>758.5</ele>
        <time>2022-09-26T10:57:29Z</time>
      </trkpt>
      <trkpt lat="41.7292260" lon="2.0568120">
        <ele>758.6</ele>
        <time>2022-09-26T10:57:30Z</time>
      </trkpt>
      <trkpt lat="41.7291970" lon="2.0568520">
        <ele>758.8</ele>
        <time>2022-09-26T10:57:31Z</time>
      </trkpt>
      <trkpt lat="41.7291860" lon="2.0568690">
        <ele>758.9</ele>
        <time>2022-09-26T10:57:32Z</time>
      </trkpt>
      <trkpt lat="41.7291610" lon="2.0569130">
        <ele>759.0</ele>
        <time>2022-09-26T10:57:33Z</time>
      </trkpt>
      <trkpt lat="41.7291510" lon="2.0569290">
        <ele>759.1</ele>
        <time>2022-09-26T10:57:34Z</time>
      </trkpt>
      <trkpt lat="41.7291300" lon="2.0569630">
        <ele>759.2</ele>
        <time>2022-09-26T10:57:35Z</time>
      </trkpt>
      <trkpt lat="41.7291090" lon="2.0569940">
        <ele>759.3</ele>
        <time>2022-09-26T10:57:36Z</time>
      </trkpt>
      <trkpt lat="41.7290900" lon="2.0570330">
        <ele>759.5</ele>
        <time>2022-09-26T10:57:37Z</time>
      </trkpt>
      <trkpt lat="41.7290660" lon="2.0570990">
        <ele>759.7</ele>
        <time>2022-09-26T10:57:39Z</time>
      </trkpt>
      <trkpt lat="41.7290490" lon="2.0571270">
        <ele>759.8</ele>
        <time>2022-09-26T10:57:40Z</time>
      </trkpt>
      <trkpt lat="41.7290310" lon="2.0571610">
        <ele>760.0</ele>
        <time>2022-09-26T10:57:41Z</time>
      </trkpt>
      <trkpt lat="41.7290240" lon="2.0571740">
        <ele>760.0</ele>
        <time>2022-09-26T10:57:42Z</time>
      </trkpt>
      <trkpt lat="41.7290140" lon="2.0571980">
        <ele>760.1</ele>
        <time>2022-09-26T10:57:43Z</time>
      </trkpt>
      <trkpt lat="41.7289950" lon="2.0572600">
        <ele>760.3</ele>
        <time>2022-09-26T10:57:45Z</time>
      </trkpt>
      <trkpt lat="41.7289790" lon="2.0572940">
        <ele>760.5</ele>
        <time>2022-09-26T10:57:46Z</time>
      </trkpt>
      <trkpt lat="41.7289570" lon="2.0573450">
        <ele>760.7</ele>
        <time>2022-09-26T10:57:47Z</time>
      </trkpt>
      <trkpt lat="41.7289410" lon="2.0573820">
        <ele>760.8</ele>
        <time>2022-09-26T10:57:48Z</time>
      </trkpt>
      <trkpt lat="41.7289260" lon="2.0574130">
        <ele>760.9</ele>
        <time>2022-09-26T10:57:49Z</time>
      </trkpt>
      <trkpt lat="41.7289130" lon="2.0574500">
        <ele>761.1</ele>
        <time>2022-09-26T10:57:51Z</time>
      </trkpt>
      <trkpt lat="41.7289000" lon="2.0574930">
        <ele>761.2</ele>
        <time>2022-09-26T10:57:52Z</time>
      </trkpt>
      <trkpt lat="41.7288860" lon="2.0575330">
        <ele>761.4</ele>
        <time>2022-09-26T10:57:53Z</time>
      </trkpt>
      <trkpt lat="41.7288820" lon="2.0575460">
        <ele>761.4</ele>
        <time>2022-09-26T10:57:54Z</time>
      </trkpt>
      <trkpt lat="41.7288620" lon="2.0575850">
        <ele>761.5</ele>
        <time>2022-09-26T10:57:55Z</time>
      </trkpt>
      <trkpt lat="41.7288530" lon="2.0575990">
        <ele>761.6</ele>
        <time>2022-09-26T10:57:56Z</time>
      </trkpt>
      <trkpt lat="41.7288310" lon="2.0576340">
        <ele>761.7</ele>
        <time>2022-09-26T10:57:57Z</time>
      </trkpt>
      <trkpt lat="41.7288070" lon="2.0576670">
        <ele>761.9</ele>
        <time>2022-09-26T10:57:58Z</time>
      </trkpt>
      <trkpt lat="41.7287810" lon="2.0577080">
        <ele>762.0</ele>
        <time>2022-09-26T10:57:59Z</time>
      </trkpt>
      <trkpt lat="41.7287440" lon="2.0577610">
        <ele>762.2</ele>
        <time>2022-09-26T10:58:01Z</time>
      </trkpt>
      <trkpt lat="41.7287110" lon="2.0577930">
        <ele>762.4</ele>
        <time>2022-09-26T10:58:02Z</time>
      </trkpt>
      <trkpt lat="41.7286980" lon="2.0578040">
        <ele>762.5</ele>
        <time>2022-09-26T10:58:03Z</time>
      </trkpt>
      <trkpt lat="41.7286690" lon="2.0578310">
        <ele>762.6</ele>
        <time>2022-09-26T10:58:04Z</time>
      </trkpt>
      <trkpt lat="41.7286380" lon="2.0578660">
        <ele>762.8</ele>
        <time>2022-09-26T10:58:05Z</time>
      </trkpt>
      <trkpt lat="41.7286130" lon="2.0579010">
        <ele>763.0</ele>
        <time>2022-09-26T10:58:06Z</time>
      </trkpt>
      <trkpt lat="41.7285910" lon="2.0579350">
        <ele>763.2</ele>
        <time>2022-09-26T10:58:07Z</time>
      </trkpt>
      <trkpt lat="41.7285720" lon="2.0579690">
        <ele>763.4</ele>
        <time>2022-09-26T10:58:08Z</time>
      </trkpt>
      <trkpt lat="41.7285560" lon="2.0580010">
        <ele>763.5</ele>
        <time>2022-09-26T10:58:09Z</time>
      </trkpt>
      <trkpt lat="41.7285330" lon="2.0580640">
        <ele>763.8</ele>
        <time>2022-09-26T10:58:11Z</time>
      </trkpt>
      <trkpt lat="41.7285130" lon="2.0581020">
        <ele>764.0</ele>
        <time>2022-09-26T10:58:12Z</time>
      </trkpt>
      <trkpt lat="41.7285080" lon="2.0581140">
        <ele>764.0</ele>
        <time>2022-09-26T10:58:13Z</time>
      </trkpt>
      <trkpt lat="41.7285070" lon="2.0581580">
        <ele>764.2</ele>
        <time>2022-09-26T10:58:14Z</time>
      </trkpt>
      <trkpt lat="41.7285080" lon="2.0581740">
        <ele>764.2</ele>
        <time>2022-09-26T10:58:15Z</time>
      </trkpt>
      <trkpt lat="41.7284910" lon="2.0582180">
        <ele>764.5</ele>
        <time>2022-09-26T10:58:16Z</time>
      </trkpt>
      <trkpt lat="41.7284840" lon="2.0582300">
        <ele>764.5</ele>
        <time>2022-09-26T10:58:17Z</time>
      </trkpt>
      <trkpt lat="41.7284720" lon="2.0582640">
        <ele>764.7</ele>
        <time>2022-09-26T10:58:18Z</time>
      </trkpt>
      <trkpt lat="41.7284560" lon="2.0582960">
        <ele>764.9</ele>
        <time>2022-09-26T10:58:19Z</time>
      </trkpt>
      <trkpt lat="41.7284400" lon="2.0583260">
        <ele>765.0</ele>
        <time>2022-09-26T10:58:20Z</time>
      </trkpt>
      <trkpt lat="41.7284210" lon="2.0583610">
        <ele>765.2</ele>
        <time>2022-09-26T10:58:21Z</time>
      </trkpt>
      <trkpt lat="41.7284130" lon="2.0583760">
        <ele>765.3</ele>
        <time>2022-09-26T10:58:22Z</time>
      </trkpt>
      <trkpt lat="41.7283890" lon="2.0584200">
        <ele>765.5</ele>
        <time>2022-09-26T10:58:23Z</time>
      </trkpt>
      <trkpt lat="41.7283790" lon="2.0584330">
        <ele>765.6</ele>
        <time>2022-09-26T10:58:24Z</time>
      </trkpt>
      <trkpt lat="41.7283580" lon="2.0584670">
        <ele>765.8</ele>
        <time>2022-09-26T10:58:26Z</time>
      </trkpt>
      <trkpt lat="41.7283360" lon="2.0585020">
        <ele>766.0</ele>
        <time>2022-09-26T10:58:27Z</time>
      </trkpt>
      <trkpt lat="41.7283140" lon="2.0585350">
        <ele>766.2</ele>
        <time>2022-09-26T10:58:28Z</time>
      </trkpt>
      <trkpt lat="41.7282940" lon="2.0585720">
        <ele>766.4</ele>
        <time>2022-09-26T10:58:29Z</time>
      </trkpt>
      <trkpt lat="41.7282760" lon="2.0586160">
        <ele>766.6</ele>
        <time>2022-09-26T10:58:30Z</time>
      </trkpt>
      <trkpt lat="41.7282710" lon="2.0586280">
        <ele>766.6</ele>
        <time>2022-09-26T10:58:31Z</time>
      </trkpt>
      <trkpt lat="41.7282520" lon="2.0586720">
        <ele>766.9</ele>
        <time>2022-09-26T10:58:33Z</time>
      </trkpt>
      <trkpt lat="41.7282410" lon="2.0587070">
        <ele>767.0</ele>
        <time>2022-09-26T10:58:34Z</time>
      </trkpt>
      <trkpt lat="41.7282220" lon="2.0587580">
        <ele>767.2</ele>
        <time>2022-09-26T10:58:36Z</time>
      </trkpt>
      <trkpt lat="41.7281990" lon="2.0588050">
        <ele>767.5</ele>
        <time>2022-09-26T10:58:37Z</time>
      </trkpt>
      <trkpt lat="41.7281820" lon="2.0588330">
        <ele>767.6</ele>
        <time>2022-09-26T10:58:38Z</time>
      </trkpt>
      <trkpt lat="41.7281580" lon="2.0588610">
        <ele>767.8</ele>
        <time>2022-09-26T10:58:40Z</time>
      </trkpt>
      <trkpt lat="41.7281260" lon="2.0588940">
        <ele>768.0</ele>
        <time>2022-09-26T10:58:41Z</time>
      </trkpt>
      <trkpt lat="41.7280960" lon="2.0589180">
        <ele>768.2</ele>
        <time>2022-09-26T10:58:42Z</time>
      </trkpt>
      <trkpt lat="41.7280670" lon="2.0589310">
        <ele>768.4</ele>
        <time>2022-09-26T10:58:43Z</time>
      </trkpt>
      <trkpt lat="41.7280440" lon="2.0589470">
        <ele>768.5</ele>
        <time>2022-09-26T10:58:44Z</time>
      </trkpt>
      <trkpt lat="41.7280220" lon="2.0589680">
        <ele>768.7</ele>
        <time>2022-09-26T10:58:46Z</time>
      </trkpt>
      <trkpt lat="41.7279970" lon="2.0589920">
        <ele>768.8</ele>
        <time>2022-09-26T10:58:47Z</time>
      </trkpt>
      <trkpt lat="41.7279640" lon="2.0590180">
        <ele>769.0</ele>
        <time>2022-09-26T10:58:48Z</time>
      </trkpt>
      <trkpt lat="41.7279350" lon="2.0590400">
        <ele>769.2</ele>
        <time>2022-09-26T10:58:49Z</time>
      </trkpt>
      <trkpt lat="41.7279250" lon="2.0590480">
        <ele>769.3</ele>
        <time>2022-09-26T10:58:50Z</time>
      </trkpt>
      <trkpt lat="41.7278870" lon="2.0590820">
        <ele>769.6</ele>
        <time>2022-09-26T10:58:52Z</time>
      </trkpt>
      <trkpt lat="41.7278700" lon="2.0590940">
        <ele>769.7</ele>
        <time>2022-09-26T10:58:53Z</time>
      </trkpt>
      <trkpt lat="41.7278440" lon="2.0591120">
        <ele>769.9</ele>
        <time>2022-09-26T10:58:54Z</time>
      </trkpt>
      <trkpt lat="41.7278350" lon="2.0591180">
        <ele>770.0</ele>
        <time>2022-09-26T10:58:55Z</time>
      </trkpt>
      <trkpt lat="41.7278180" lon="2.0591250">
        <ele>770.2</ele>
        <time>2022-09-26T10:58:56Z</time>
      </trkpt>
      <trkpt lat="41.7278020" lon="2.0591250">
        <ele>770.3</ele>
        <time>2022-09-26T10:58:57Z</time>
      </trkpt>
      <trkpt lat="41.7277710" lon="2.0591260">
        <ele>770.5</ele>
        <time>2022-09-26T10:58:58Z</time>
      </trkpt>
      <trkpt lat="41.7277610" lon="2.0591270">
        <ele>770.6</ele>
        <time>2022-09-26T10:58:59Z</time>
      </trkpt>
      <trkpt lat="41.7277290" lon="2.0591350">
        <ele>770.9</ele>
        <time>2022-09-26T10:59:00Z</time>
      </trkpt>
      <trkpt lat="41.7277170" lon="2.0591390">
        <ele>771.0</ele>
        <time>2022-09-26T10:59:01Z</time>
      </trkpt>
      <trkpt lat="41.7276770" lon="2.0591500">
        <ele>771.3</ele>
        <time>2022-09-26T10:59:03Z</time>
      </trkpt>
      <trkpt lat="41.7276620" lon="2.0591530">
        <ele>771.4</ele>
        <time>2022-09-26T10:59:04Z</time>
      </trkpt>
      <trkpt lat="41.7276310" lon="2.0591590">
        <ele>771.7</ele>
        <time>2022-09-26T10:59:05Z</time>
      </trkpt>
      <trkpt lat="41.7276210" lon="2.0591620">
        <ele>771.8</ele>
        <time>2022-09-26T10:59:06Z</time>
      </trkpt>
      <trkpt lat="41.7276040" lon="2.0591670">
        <ele>772.0</ele>
        <time>2022-09-26T10:59:07Z</time>
      </trkpt>
      <trkpt lat="41.7275650" lon="2.0591890">
        <ele>772.4</ele>
        <time>2022-09-26T10:59:09Z</time>
      </trkpt>
      <trkpt lat="41.7275350" lon="2.0592150">
        <ele>772.7</ele>
        <time>2022-09-26T10:59:10Z</time>
      </trkpt>
      <trkpt lat="41.7275080" lon="2.0592510">
        <ele>773.1</ele>
        <time>2022-09-26T10:59:12Z</time>
      </trkpt>
      <trkpt lat="41.7274990" lon="2.0592630">
        <ele>773.3</ele>
        <time>2022-09-26T10:59:13Z</time>
      </trkpt>
      <trkpt lat="41.7274830" lon="2.0593070">
        <ele>774.1</ele>
        <time>2022-09-26T10:59:14Z</time>
      </trkpt>
      <trkpt lat="41.7274820" lon="2.0593220">
        <ele>774.2</ele>
        <time>2022-09-26T10:59:15Z</time>
      </trkpt>
      <trkpt lat="41.7274840" lon="2.0593580">
        <ele>774.3</ele>
        <time>2022-09-26T10:59:17Z</time>
      </trkpt>
      <trkpt lat="41.7274920" lon="2.0593810">
        <ele>774.4</ele>
        <time>2022-09-26T10:59:18Z</time>
      </trkpt>
      <trkpt lat="41.7275030" lon="2.0593960">
        <ele>774.5</ele>
        <time>2022-09-26T10:59:19Z</time>
      </trkpt>
      <trkpt lat="41.7275150" lon="2.0594070">
        <ele>774.6</ele>
        <time>2022-09-26T10:59:20Z</time>
      </trkpt>
      <trkpt lat="41.7275270" lon="2.0594180">
        <ele>774.6</ele>
        <time>2022-09-26T10:59:21Z</time>
      </trkpt>
      <trkpt lat="41.7275550" lon="2.0594170">
        <ele>774.8</ele>
        <time>2022-09-26T10:59:23Z</time>
      </trkpt>
      <trkpt lat="41.7275730" lon="2.0594090">
        <ele>774.9</ele>
        <time>2022-09-26T10:59:24Z</time>
      </trkpt>
      <trkpt lat="41.7275870" lon="2.0594040">
        <ele>774.9</ele>
        <time>2022-09-26T10:59:25Z</time>
      </trkpt>
      <trkpt lat="41.7276000" lon="2.0593950">
        <ele>775.0</ele>
        <time>2022-09-26T10:59:26Z</time>
      </trkpt>
      <trkpt lat="41.7276110" lon="2.0593850">
        <ele>775.1</ele>
        <time>2022-09-26T10:59:27Z</time>
      </trkpt>
      <trkpt lat="41.7276100" lon="2.0593930">
        <ele>775.1</ele>
        <time>2022-09-26T10:59:28Z</time>
      </trkpt>
      <trkpt lat="41.7276040" lon="2.0594010">
        <ele>775.2</ele>
        <time>2022-09-26T10:59:29Z</time>
      </trkpt>
      <trkpt lat="41.7275980" lon="2.0594100">
        <ele>775.2</ele>
        <time>2022-09-26T10:59:31Z</time>
      </trkpt>
      <trkpt lat="41.7275910" lon="2.0594180">
        <ele>775.2</ele>
        <time>2022-09-26T10:59:32Z</time>
      </trkpt>
      <trkpt lat="41.7275850" lon="2.0594270">
        <ele>775.3</ele>
        <time>2022-09-26T10:59:33Z</time>
      </trkpt>
      <trkpt lat="41.7275790" lon="2.0594350">
        <ele>775.3</ele>
        <time>2022-09-26T10:59:34Z</time>
      </trkpt>
      <trkpt lat="41.7275730" lon="2.0594440">
        <ele>775.4</ele>
        <time>2022-09-26T10:59:35Z</time>
      </trkpt>
      <trkpt lat="41.7275660" lon="2.0594530">
        <ele>775.4</ele>
        <time>2022-09-26T10:59:36Z</time>
      </trkpt>
      <trkpt lat="41.7275600" lon="2.0594610">
        <ele>775.5</ele>
        <time>2022-09-26T10:59:37Z</time>
      </trkpt>
      <trkpt lat="41.7275540" lon="2.0594700">
        <ele>775.5</ele>
        <time>2022-09-26T10:59:38Z</time>
      </trkpt>
      <trkpt lat="41.7275470" lon="2.0594780">
        <ele>775.6</ele>
        <time>2022-09-26T10:59:39Z</time>
      </trkpt>
      <trkpt lat="41.7275410" lon="2.0594870">
        <ele>775.6</ele>
        <time>2022-09-26T10:59:40Z</time>
      </trkpt>
      <trkpt lat="41.7275350" lon="2.0594950">
        <ele>775.6</ele>
        <time>2022-09-26T10:59:41Z</time>
      </trkpt>
      <trkpt lat="41.7275280" lon="2.0595040">
        <ele>775.6</ele>
        <time>2022-09-26T11:04:07Z</time>
      </trkpt>
      <trkpt lat="41.7275220" lon="2.0595120">
        <ele>775.6</ele>
        <time>2022-09-26T11:04:08Z</time>
      </trkpt>
      <trkpt lat="41.7274800" lon="2.0595710">
        <ele>775.5</ele>
        <time>2022-09-26T11:04:09Z</time>
      </trkpt>
      <trkpt lat="41.7274340" lon="2.0596320">
        <ele>775.3</ele>
        <time>2022-09-26T11:04:10Z</time>
      </trkpt>
      <trkpt lat="41.7273910" lon="2.0596920">
        <ele>775.2</ele>
        <time>2022-09-26T11:04:11Z</time>
      </trkpt>
      <trkpt lat="41.7273540" lon="2.0597530">
        <ele>775.0</ele>
        <time>2022-09-26T11:04:12Z</time>
      </trkpt>
      <trkpt lat="41.7273150" lon="2.0598090">
        <ele>774.9</ele>
        <time>2022-09-26T11:04:13Z</time>
      </trkpt>
      <trkpt lat="41.7272710" lon="2.0598560">
        <ele>774.8</ele>
        <time>2022-09-26T11:04:14Z</time>
      </trkpt>
      <trkpt lat="41.7272190" lon="2.0598940">
        <ele>774.7</ele>
        <time>2022-09-26T11:04:15Z</time>
      </trkpt>
      <trkpt lat="41.7271620" lon="2.0599260">
        <ele>774.6</ele>
        <time>2022-09-26T11:04:16Z</time>
      </trkpt>
      <trkpt lat="41.7271060" lon="2.0599510">
        <ele>774.5</ele>
        <time>2022-09-26T11:04:17Z</time>
      </trkpt>
      <trkpt lat="41.7270530" lon="2.0599740">
        <ele>774.5</ele>
        <time>2022-09-26T11:04:18Z</time>
      </trkpt>
      <trkpt lat="41.7270000" lon="2.0599980">
        <ele>774.4</ele>
        <time>2022-09-26T11:04:19Z</time>
      </trkpt>
      <trkpt lat="41.7269470" lon="2.0600240">
        <ele>774.4</ele>
        <time>2022-09-26T11:04:20Z</time>
      </trkpt>
      <trkpt lat="41.7268980" lon="2.0600600">
        <ele>774.4</ele>
        <time>2022-09-26T11:04:21Z</time>
      </trkpt>
      <trkpt lat="41.7268580" lon="2.0601110">
        <ele>774.3</ele>
        <time>2022-09-26T11:04:22Z</time>
      </trkpt>
      <trkpt lat="41.7268270" lon="2.0601730">
        <ele>774.3</ele>
        <time>2022-09-26T11:04:23Z</time>
      </trkpt>
      <trkpt lat="41.7268060" lon="2.0602400">
        <ele>774.3</ele>
        <time>2022-09-26T11:04:24Z</time>
      </trkpt>
      <trkpt lat="41.7267920" lon="2.0603130">
        <ele>774.3</ele>
        <time>2022-09-26T11:04:25Z</time>
      </trkpt>
      <trkpt lat="41.7267830" lon="2.0603840">
        <ele>774.3</ele>
        <time>2022-09-26T11:04:26Z</time>
      </trkpt>
      <trkpt lat="41.7267750" lon="2.0604560">
        <ele>774.3</ele>
        <time>2022-09-26T11:04:27Z</time>
      </trkpt>
      <trkpt lat="41.7267660" lon="2.0605280">
        <ele>774.3</ele>
        <time>2022-09-26T11:04:28Z</time>
      </trkpt>
      <trkpt lat="41.7267550" lon="2.0605960">
        <ele>774.3</ele>
        <time>2022-09-26T11:04:29Z</time>
      </trkpt>
      <trkpt lat="41.7267460" lon="2.0606610">
        <ele>774.3</ele>
        <time>2022-09-26T11:04:30Z</time>
      </trkpt>
      <trkpt lat="41.7267370" lon="2.0607280">
        <ele>774.3</ele>
        <time>2022-09-26T11:04:31Z</time>
      </trkpt>
      <trkpt lat="41.7267310" lon="2.0607910">
        <ele>774.2</ele>
        <time>2022-09-26T11:04:32Z</time>
      </trkpt>
      <trkpt lat="41.7267300" lon="2.0608520">
        <ele>774.2</ele>
        <time>2022-09-26T11:04:33Z</time>
      </trkpt>
      <trkpt lat="41.7267320" lon="2.0608960">
        <ele>774.1</ele>
        <time>2022-09-26T11:04:34Z</time>
      </trkpt>
      <trkpt lat="41.7267290" lon="2.0609650">
        <ele>774.1</ele>
        <time>2022-09-26T11:04:35Z</time>
      </trkpt>
      <trkpt lat="41.7267210" lon="2.0610330">
        <ele>774.0</ele>
        <time>2022-09-26T11:04:36Z</time>
      </trkpt>
      <trkpt lat="41.7267060" lon="2.0611000">
        <ele>773.8</ele>
        <time>2022-09-26T11:04:37Z</time>
      </trkpt>
      <trkpt lat="41.7266830" lon="2.0611640">
        <ele>773.7</ele>
        <time>2022-09-26T11:04:38Z</time>
      </trkpt>
      <trkpt lat="41.7266430" lon="2.0612270">
        <ele>773.5</ele>
        <time>2022-09-26T11:04:39Z</time>
      </trkpt>
      <trkpt lat="41.7265970" lon="2.0612820">
        <ele>773.3</ele>
        <time>2022-09-26T11:04:40Z</time>
      </trkpt>
      <trkpt lat="41.7265460" lon="2.0613340">
        <ele>773.0</ele>
        <time>2022-09-26T11:04:41Z</time>
      </trkpt>
      <trkpt lat="41.7264910" lon="2.0613840">
        <ele>772.6</ele>
        <time>2022-09-26T11:04:42Z</time>
      </trkpt>
      <trkpt lat="41.7264410" lon="2.0614260">
        <ele>772.3</ele>
        <time>2022-09-26T11:04:43Z</time>
      </trkpt>
      <trkpt lat="41.7263910" lon="2.0614620">
        <ele>772.0</ele>
        <time>2022-09-26T11:04:44Z</time>
      </trkpt>
      <trkpt lat="41.7263350" lon="2.0614850">
        <ele>771.6</ele>
        <time>2022-09-26T11:04:45Z</time>
      </trkpt>
      <trkpt lat="41.7262730" lon="2.0614990">
        <ele>771.3</ele>
        <time>2022-09-26T11:04:46Z</time>
      </trkpt>
      <trkpt lat="41.7262090" lon="2.0615120">
        <ele>770.9</ele>
        <time>2022-09-26T11:04:47Z</time>
      </trkpt>
      <trkpt lat="41.7261390" lon="2.0615300">
        <ele>770.5</ele>
        <time>2022-09-26T11:04:48Z</time>
      </trkpt>
      <trkpt lat="41.7260700" lon="2.0615490">
        <ele>770.1</ele>
        <time>2022-09-26T11:04:49Z</time>
      </trkpt>
      <trkpt lat="41.7260020" lon="2.0615670">
        <ele>769.7</ele>
        <time>2022-09-26T11:04:50Z</time>
      </trkpt>
      <trkpt lat="41.7259390" lon="2.0615880">
        <ele>769.3</ele>
        <time>2022-09-26T11:04:51Z</time>
      </trkpt>
      <trkpt lat="41.7258740" lon="2.0616040">
        <ele>768.9</ele>
        <time>2022-09-26T11:04:52Z</time>
      </trkpt>
      <trkpt lat="41.7258120" lon="2.0616140">
        <ele>768.5</ele>
        <time>2022-09-26T11:04:53Z</time>
      </trkpt>
      <trkpt lat="41.7257470" lon="2.0616170">
        <ele>768.1</ele>
        <time>2022-09-26T11:04:54Z</time>
      </trkpt>
      <trkpt lat="41.7256800" lon="2.0616080">
        <ele>767.8</ele>
        <time>2022-09-26T11:04:55Z</time>
      </trkpt>
      <trkpt lat="41.7256190" lon="2.0615860">
        <ele>767.5</ele>
        <time>2022-09-26T11:04:56Z</time>
      </trkpt>
      <trkpt lat="41.7255580" lon="2.0615490">
        <ele>767.0</ele>
        <time>2022-09-26T11:04:57Z</time>
      </trkpt>
      <trkpt lat="41.7254970" lon="2.0614940">
        <ele>766.4</ele>
        <time>2022-09-26T11:04:58Z</time>
      </trkpt>
      <trkpt lat="41.7254290" lon="2.0614370">
        <ele>765.7</ele>
        <time>2022-09-26T11:04:59Z</time>
      </trkpt>
      <trkpt lat="41.7253580" lon="2.0613780">
        <ele>764.9</ele>
        <time>2022-09-26T11:05:00Z</time>
      </trkpt>
      <trkpt lat="41.7252880" lon="2.0613070">
        <ele>764.1</ele>
        <time>2022-09-26T11:05:01Z</time>
      </trkpt>
      <trkpt lat="41.7252150" lon="2.0612310">
        <ele>763.4</ele>
        <time>2022-09-26T11:05:02Z</time>
      </trkpt>
      <trkpt lat="41.7251370" lon="2.0611550">
        <ele>762.8</ele>
        <time>2022-09-26T11:05:03Z</time>
      </trkpt>
      <trkpt lat="41.7250560" lon="2.0610830">
        <ele>762.2</ele>
        <time>2022-09-26T11:05:04Z</time>
      </trkpt>
      <trkpt lat="41.7249710" lon="2.0610320">
        <ele>761.7</ele>
        <time>2022-09-26T11:05:05Z</time>
      </trkpt>
      <trkpt lat="41.7248850" lon="2.0609940">
        <ele>761.7</ele>
        <time>2022-09-26T11:05:06Z</time>
      </trkpt>
      <trkpt lat="41.7248050" lon="2.0609580">
        <ele>761.6</ele>
        <time>2022-09-26T11:05:07Z</time>
      </trkpt>
      <trkpt lat="41.7247320" lon="2.0609150">
        <ele>761.5</ele>
        <time>2022-09-26T11:05:08Z</time>
      </trkpt>
      <trkpt lat="41.7246640" lon="2.0608650">
        <ele>761.5</ele>
        <time>2022-09-26T11:05:09Z</time>
      </trkpt>
      <trkpt lat="41.7246030" lon="2.0608100">
        <ele>761.4</ele>
        <time>2022-09-26T11:05:10Z</time>
      </trkpt>
      <trkpt lat="41.7245420" lon="2.0607600">
        <ele>761.3</ele>
        <time>2022-09-26T11:05:11Z</time>
      </trkpt>
      <trkpt lat="41.7244830" lon="2.0607110">
        <ele>761.2</ele>
        <time>2022-09-26T11:05:12Z</time>
      </trkpt>
      <trkpt lat="41.7244280" lon="2.0606660">
        <ele>761.1</ele>
        <time>2022-09-26T11:05:13Z</time>
      </trkpt>
      <trkpt lat="41.7243720" lon="2.0606330">
        <ele>760.9</ele>
        <time>2022-09-26T11:05:14Z</time>
      </trkpt>
      <trkpt lat="41.7243100" lon="2.0606250">
        <ele>760.7</ele>
        <time>2022-09-26T11:05:15Z</time>
      </trkpt>
      <trkpt lat="41.7242440" lon="2.0606300">
        <ele>760.5</ele>
        <time>2022-09-26T11:05:16Z</time>
      </trkpt>
      <trkpt lat="41.7241720" lon="2.0606390">
        <ele>760.2</ele>
        <time>2022-09-26T11:05:17Z</time>
      </trkpt>
      <trkpt lat="41.7241050" lon="2.0606460">
        <ele>760.0</ele>
        <time>2022-09-26T11:05:18Z</time>
      </trkpt>
      <trkpt lat="41.7240330" lon="2.0606540">
        <ele>759.8</ele>
        <time>2022-09-26T11:05:19Z</time>
      </trkpt>
      <trkpt lat="41.7239640" lon="2.0606720">
        <ele>759.5</ele>
        <time>2022-09-26T11:05:20Z</time>
      </trkpt>
      <trkpt lat="41.7238960" lon="2.0606920">
        <ele>759.3</ele>
        <time>2022-09-26T11:05:21Z</time>
      </trkpt>
      <trkpt lat="41.7238260" lon="2.0607110">
        <ele>759.0</ele>
        <time>2022-09-26T11:05:22Z</time>
      </trkpt>
      <trkpt lat="41.7237570" lon="2.0607270">
        <ele>758.8</ele>
        <time>2022-09-26T11:05:23Z</time>
      </trkpt>
      <trkpt lat="41.7236970" lon="2.0607460">
        <ele>758.7</ele>
        <time>2022-09-26T11:05:24Z</time>
      </trkpt>
      <trkpt lat="41.7236500" lon="2.0607700">
        <ele>758.3</ele>
        <time>2022-09-26T11:05:25Z</time>
      </trkpt>
      <trkpt lat="41.7236070" lon="2.0607930">
        <ele>758.0</ele>
        <time>2022-09-26T11:05:26Z</time>
      </trkpt>
      <trkpt lat="41.7235860" lon="2.0608020">
        <ele>757.8</ele>
        <time>2022-09-26T11:05:27Z</time>
      </trkpt>
      <trkpt lat="41.7235430" lon="2.0608160">
        <ele>757.6</ele>
        <time>2022-09-26T11:05:28Z</time>
      </trkpt>
      <trkpt lat="41.7234830" lon="2.0608170">
        <ele>757.2</ele>
        <time>2022-09-26T11:05:29Z</time>
      </trkpt>
      <trkpt lat="41.7234290" lon="2.0608050">
        <ele>756.9</ele>
        <time>2022-09-26T11:05:30Z</time>
      </trkpt>
      <trkpt lat="41.7233750" lon="2.0607940">
        <ele>756.5</ele>
        <time>2022-09-26T11:05:31Z</time>
      </trkpt>
      <trkpt lat="41.7233250" lon="2.0607910">
        <ele>756.2</ele>
        <time>2022-09-26T11:05:32Z</time>
      </trkpt>
      <trkpt lat="41.7232750" lon="2.0607960">
        <ele>755.9</ele>
        <time>2022-09-26T11:05:33Z</time>
      </trkpt>
      <trkpt lat="41.7232220" lon="2.0608020">
        <ele>755.5</ele>
        <time>2022-09-26T11:05:34Z</time>
      </trkpt>
      <trkpt lat="41.7231700" lon="2.0608080">
        <ele>755.1</ele>
        <time>2022-09-26T11:05:35Z</time>
      </trkpt>
      <trkpt lat="41.7231170" lon="2.0608120">
        <ele>754.7</ele>
        <time>2022-09-26T11:05:36Z</time>
      </trkpt>
      <trkpt lat="41.7230650" lon="2.0608180">
        <ele>754.2</ele>
        <time>2022-09-26T11:05:37Z</time>
      </trkpt>
      <trkpt lat="41.7230160" lon="2.0608260">
        <ele>753.8</ele>
        <time>2022-09-26T11:05:38Z</time>
      </trkpt>
      <trkpt lat="41.7229650" lon="2.0608370">
        <ele>753.2</ele>
        <time>2022-09-26T11:05:39Z</time>
      </trkpt>
      <trkpt lat="41.7229150" lon="2.0608530">
        <ele>752.6</ele>
        <time>2022-09-26T11:05:40Z</time>
      </trkpt>
      <trkpt lat="41.7228630" lon="2.0608760">
        <ele>752.0</ele>
        <time>2022-09-26T11:05:41Z</time>
      </trkpt>
      <trkpt lat="41.7227990" lon="2.0609060">
        <ele>751.2</ele>
        <time>2022-09-26T11:05:42Z</time>
      </trkpt>
      <trkpt lat="41.7227290" lon="2.0609350">
        <ele>750.4</ele>
        <time>2022-09-26T11:05:43Z</time>
      </trkpt>
      <trkpt lat="41.7226450" lon="2.0609610">
        <ele>749.5</ele>
        <time>2022-09-26T11:05:44Z</time>
      </trkpt>
      <trkpt lat="41.7225530" lon="2.0609820">
        <ele>748.7</ele>
        <time>2022-09-26T11:05:45Z</time>
      </trkpt>
      <trkpt lat="41.7224580" lon="2.0609910">
        <ele>747.9</ele>
        <time>2022-09-26T11:05:46Z</time>
      </trkpt>
      <trkpt lat="41.7223710" lon="2.0609990">
        <ele>747.2</ele>
        <time>2022-09-26T11:05:47Z</time>
      </trkpt>
      <trkpt lat="41.7222860" lon="2.0610060">
        <ele>746.5</ele>
        <time>2022-09-26T11:05:48Z</time>
      </trkpt>
      <trkpt lat="41.7222030" lon="2.0610170">
        <ele>745.7</ele>
        <time>2022-09-26T11:05:49Z</time>
      </trkpt>
      <trkpt lat="41.7221230" lon="2.0610410">
        <ele>745.1</ele>
        <time>2022-09-26T11:05:50Z</time>
      </trkpt>
      <trkpt lat="41.7220570" lon="2.0610620">
        <ele>744.5</ele>
        <time>2022-09-26T11:05:51Z</time>
      </trkpt>
      <trkpt lat="41.7219900" lon="2.0610590">
        <ele>743.9</ele>
        <time>2022-09-26T11:05:52Z</time>
      </trkpt>
      <trkpt lat="41.7219160" lon="2.0610440">
        <ele>743.9</ele>
        <time>2022-09-26T11:05:53Z</time>
      </trkpt>
      <trkpt lat="41.7218370" lon="2.0610290">
        <ele>743.5</ele>
        <time>2022-09-26T11:05:54Z</time>
      </trkpt>
      <trkpt lat="41.7217530" lon="2.0610230">
        <ele>743.0</ele>
        <time>2022-09-26T11:05:55Z</time>
      </trkpt>
      <trkpt lat="41.7216690" lon="2.0610300">
        <ele>742.5</ele>
        <time>2022-09-26T11:05:56Z</time>
      </trkpt>
      <trkpt lat="41.7215890" lon="2.0610500">
        <ele>742.0</ele>
        <time>2022-09-26T11:05:57Z</time>
      </trkpt>
      <trkpt lat="41.7215150" lon="2.0610720">
        <ele>741.6</ele>
        <time>2022-09-26T11:05:58Z</time>
      </trkpt>
      <trkpt lat="41.7214430" lon="2.0610930">
        <ele>741.1</ele>
        <time>2022-09-26T11:05:59Z</time>
      </trkpt>
      <trkpt lat="41.7213710" lon="2.0611170">
        <ele>740.7</ele>
        <time>2022-09-26T11:06:00Z</time>
      </trkpt>
      <trkpt lat="41.7213030" lon="2.0611420">
        <ele>740.2</ele>
        <time>2022-09-26T11:06:01Z</time>
      </trkpt>
      <trkpt lat="41.7212280" lon="2.0611710">
        <ele>739.9</ele>
        <time>2022-09-26T11:06:02Z</time>
      </trkpt>
      <trkpt lat="41.7211570" lon="2.0612110">
        <ele>739.6</ele>
        <time>2022-09-26T11:06:03Z</time>
      </trkpt>
      <trkpt lat="41.7210960" lon="2.0612540">
        <ele>739.5</ele>
        <time>2022-09-26T11:06:04Z</time>
      </trkpt>
      <trkpt lat="41.7210390" lon="2.0612940">
        <ele>739.4</ele>
        <time>2022-09-26T11:06:05Z</time>
      </trkpt>
      <trkpt lat="41.7209920" lon="2.0613170">
        <ele>739.2</ele>
        <time>2022-09-26T11:06:06Z</time>
      </trkpt>
      <trkpt lat="41.7209590" lon="2.0613180">
        <ele>739.1</ele>
        <time>2022-09-26T11:06:07Z</time>
      </trkpt>
      <trkpt lat="41.7209200" lon="2.0613010">
        <ele>738.8</ele>
        <time>2022-09-26T11:06:08Z</time>
      </trkpt>
      <trkpt lat="41.7208730" lon="2.0612630">
        <ele>738.4</ele>
        <time>2022-09-26T11:06:09Z</time>
      </trkpt>
      <trkpt lat="41.7208200" lon="2.0612180">
        <ele>737.7</ele>
        <time>2022-09-26T11:06:10Z</time>
      </trkpt>
      <trkpt lat="41.7207620" lon="2.0611780">
        <ele>737.0</ele>
        <time>2022-09-26T11:06:11Z</time>
      </trkpt>
      <trkpt lat="41.7207010" lon="2.0611500">
        <ele>736.2</ele>
        <time>2022-09-26T11:06:12Z</time>
      </trkpt>
      <trkpt lat="41.7206370" lon="2.0611410">
        <ele>735.5</ele>
        <time>2022-09-26T11:06:13Z</time>
      </trkpt>
      <trkpt lat="41.7205660" lon="2.0611430">
        <ele>734.9</ele>
        <time>2022-09-26T11:06:14Z</time>
      </trkpt>
      <trkpt lat="41.7204930" lon="2.0611610">
        <ele>734.3</ele>
        <time>2022-09-26T11:06:15Z</time>
      </trkpt>
      <trkpt lat="41.7204230" lon="2.0611970">
        <ele>733.9</ele>
        <time>2022-09-26T11:06:16Z</time>
      </trkpt>
      <trkpt lat="41.7203570" lon="2.0612540">
        <ele>733.4</ele>
        <time>2022-09-26T11:06:17Z</time>
      </trkpt>
      <trkpt lat="41.7202950" lon="2.0613250">
        <ele>733.1</ele>
        <time>2022-09-26T11:06:18Z</time>
      </trkpt>
      <trkpt lat="41.7202330" lon="2.0614050">
        <ele>732.7</ele>
        <time>2022-09-26T11:06:19Z</time>
      </trkpt>
      <trkpt lat="41.7201760" lon="2.0614850">
        <ele>732.4</ele>
        <time>2022-09-26T11:06:20Z</time>
      </trkpt>
      <trkpt lat="41.7201210" lon="2.0615620">
        <ele>732.2</ele>
        <time>2022-09-26T11:06:21Z</time>
      </trkpt>
      <trkpt lat="41.7200670" lon="2.0616330">
        <ele>732.1</ele>
        <time>2022-09-26T11:06:22Z</time>
      </trkpt>
      <trkpt lat="41.7200150" lon="2.0616980">
        <ele>732.0</ele>
        <time>2022-09-26T11:06:23Z</time>
      </trkpt>
      <trkpt lat="41.7199600" lon="2.0617510">
        <ele>732.0</ele>
        <time>2022-09-26T11:06:24Z</time>
      </trkpt>
      <trkpt lat="41.7199030" lon="2.0617970">
        <ele>732.0</ele>
        <time>2022-09-26T11:06:25Z</time>
      </trkpt>
      <trkpt lat="41.7198510" lon="2.0618360">
        <ele>732.0</ele>
        <time>2022-09-26T11:06:26Z</time>
      </trkpt>
      <trkpt lat="41.7197980" lon="2.0618700">
        <ele>732.1</ele>
        <time>2022-09-26T11:06:27Z</time>
      </trkpt>
      <trkpt lat="41.7197430" lon="2.0619010">
        <ele>732.2</ele>
        <time>2022-09-26T11:06:28Z</time>
      </trkpt>
      <trkpt lat="41.7196900" lon="2.0619330">
        <ele>732.3</ele>
        <time>2022-09-26T11:06:29Z</time>
      </trkpt>
      <trkpt lat="41.7196380" lon="2.0619660">
        <ele>732.5</ele>
        <time>2022-09-26T11:06:30Z</time>
      </trkpt>
      <trkpt lat="41.7195910" lon="2.0619990">
        <ele>732.6</ele>
        <time>2022-09-26T11:06:31Z</time>
      </trkpt>
      <trkpt lat="41.7195460" lon="2.0620360">
        <ele>732.7</ele>
        <time>2022-09-26T11:06:32Z</time>
      </trkpt>
      <trkpt lat="41.7195010" lon="2.0620720">
        <ele>732.9</ele>
        <time>2022-09-26T11:06:33Z</time>
      </trkpt>
      <trkpt lat="41.7194530" lon="2.0621090">
        <ele>733.1</ele>
        <time>2022-09-26T11:06:34Z</time>
      </trkpt>
      <trkpt lat="41.7194090" lon="2.0621480">
        <ele>733.3</ele>
        <time>2022-09-26T11:06:35Z</time>
      </trkpt>
      <trkpt lat="41.7193700" lon="2.0621840">
        <ele>733.4</ele>
        <time>2022-09-26T11:06:36Z</time>
      </trkpt>
      <trkpt lat="41.7193340" lon="2.0622160">
        <ele>733.6</ele>
        <time>2022-09-26T11:06:37Z</time>
      </trkpt>
      <trkpt lat="41.7193110" lon="2.0622430">
        <ele>733.8</ele>
        <time>2022-09-26T11:06:38Z</time>
      </trkpt>
      <trkpt lat="41.7192800" lon="2.0622870">
        <ele>734.0</ele>
        <time>2022-09-26T11:06:39Z</time>
      </trkpt>
      <trkpt lat="41.7192520" lon="2.0623220">
        <ele>734.2</ele>
        <time>2022-09-26T11:06:40Z</time>
      </trkpt>
      <trkpt lat="41.7192300" lon="2.0623480">
        <ele>734.3</ele>
        <time>2022-09-26T11:06:41Z</time>
      </trkpt>
      <trkpt lat="41.7191970" lon="2.0623890">
        <ele>734.6</ele>
        <time>2022-09-26T11:06:42Z</time>
      </trkpt>
      <trkpt lat="41.7191740" lon="2.0624170">
        <ele>734.8</ele>
        <time>2022-09-26T11:06:43Z</time>
      </trkpt>
      <trkpt lat="41.7191440" lon="2.0624470">
        <ele>735.1</ele>
        <time>2022-09-26T11:06:44Z</time>
      </trkpt>
      <trkpt lat="41.7191090" lon="2.0624760">
        <ele>735.4</ele>
        <time>2022-09-26T11:06:45Z</time>
      </trkpt>
      <trkpt lat="41.7190970" lon="2.0624860">
        <ele>735.5</ele>
        <time>2022-09-26T11:06:46Z</time>
      </trkpt>
      <trkpt lat="41.7190730" lon="2.0625030">
        <ele>735.7</ele>
        <time>2022-09-26T11:06:47Z</time>
      </trkpt>
      <trkpt lat="41.7190380" lon="2.0625230">
        <ele>736.0</ele>
        <time>2022-09-26T11:06:48Z</time>
      </trkpt>
      <trkpt lat="41.7190260" lon="2.0625290">
        <ele>736.1</ele>
        <time>2022-09-26T11:06:49Z</time>
      </trkpt>
      <trkpt lat="41.7189940" lon="2.0625460">
        <ele>736.3</ele>
        <time>2022-09-26T11:06:50Z</time>
      </trkpt>
      <trkpt lat="41.7189810" lon="2.0625540">
        <ele>736.4</ele>
        <time>2022-09-26T11:06:51Z</time>
      </trkpt>
      <trkpt lat="41.7189540" lon="2.0625690">
        <ele>736.7</ele>
        <time>2022-09-26T11:06:52Z</time>
      </trkpt>
      <trkpt lat="41.7189430" lon="2.0625760">
        <ele>736.7</ele>
        <time>2022-09-26T11:06:53Z</time>
      </trkpt>
      <trkpt lat="41.7189090" lon="2.0625990">
        <ele>737.0</ele>
        <time>2022-09-26T11:06:54Z</time>
      </trkpt>
      <trkpt lat="41.7188990" lon="2.0626060">
        <ele>737.0</ele>
        <time>2022-09-26T11:06:55Z</time>
      </trkpt>
      <trkpt lat="41.7188680" lon="2.0626290">
        <ele>737.2</ele>
        <time>2022-09-26T11:06:56Z</time>
      </trkpt>
      <trkpt lat="41.7188600" lon="2.0626360">
        <ele>737.2</ele>
        <time>2022-09-26T11:06:57Z</time>
      </trkpt>
      <trkpt lat="41.7188360" lon="2.0626560">
        <ele>737.4</ele>
        <time>2022-09-26T11:06:58Z</time>
      </trkpt>
      <trkpt lat="41.7188040" lon="2.0626860">
        <ele>737.4</ele>
        <time>2022-09-26T11:06:59Z</time>
      </trkpt>
      <trkpt lat="41.7187620" lon="2.0627190">
        <ele>737.4</ele>
        <time>2022-09-26T11:07:00Z</time>
      </trkpt>
      <trkpt lat="41.7187380" lon="2.0627400">
        <ele>737.3</ele>
        <time>2022-09-26T11:07:01Z</time>
      </trkpt>
      <trkpt lat="41.7186990" lon="2.0627790">
        <ele>737.3</ele>
        <time>2022-09-26T11:07:02Z</time>
      </trkpt>
      <trkpt lat="41.7186740" lon="2.0628010">
        <ele>737.3</ele>
        <time>2022-09-26T11:07:03Z</time>
      </trkpt>
      <trkpt lat="41.7186380" lon="2.0628260">
        <ele>737.2</ele>
        <time>2022-09-26T11:07:04Z</time>
      </trkpt>
      <trkpt lat="41.7185990" lon="2.0628490">
        <ele>737.1</ele>
        <time>2022-09-26T11:07:05Z</time>
      </trkpt>
      <trkpt lat="41.7185440" lon="2.0628830">
        <ele>736.9</ele>
        <time>2022-09-26T11:07:06Z</time>
      </trkpt>
      <trkpt lat="41.7184850" lon="2.0629090">
        <ele>736.7</ele>
        <time>2022-09-26T11:07:07Z</time>
      </trkpt>
      <trkpt lat="41.7184310" lon="2.0629300">
        <ele>736.5</ele>
        <time>2022-09-26T11:07:08Z</time>
      </trkpt>
      <trkpt lat="41.7183760" lon="2.0629340">
        <ele>736.3</ele>
        <time>2022-09-26T11:07:09Z</time>
      </trkpt>
      <trkpt lat="41.7183440" lon="2.0629250">
        <ele>736.2</ele>
        <time>2022-09-26T11:07:10Z</time>
      </trkpt>
      <trkpt lat="41.7182890" lon="2.0628960">
        <ele>736.0</ele>
        <time>2022-09-26T11:07:11Z</time>
      </trkpt>
      <trkpt lat="41.7182510" lon="2.0628430">
        <ele>735.7</ele>
        <time>2022-09-26T11:07:12Z</time>
      </trkpt>
      <trkpt lat="41.7182060" lon="2.0627810">
        <ele>735.5</ele>
        <time>2022-09-26T11:07:13Z</time>
      </trkpt>
      <trkpt lat="41.7181500" lon="2.0627130">
        <ele>735.1</ele>
        <time>2022-09-26T11:07:14Z</time>
      </trkpt>
      <trkpt lat="41.7180840" lon="2.0626420">
        <ele>734.8</ele>
        <time>2022-09-26T11:07:15Z</time>
      </trkpt>
      <trkpt lat="41.7180120" lon="2.0625890">
        <ele>734.5</ele>
        <time>2022-09-26T11:07:16Z</time>
      </trkpt>
      <trkpt lat="41.7179340" lon="2.0625660">
        <ele>734.3</ele>
        <time>2022-09-26T11:07:17Z</time>
      </trkpt>
      <trkpt lat="41.7178570" lon="2.0625600">
        <ele>734.2</ele>
        <time>2022-09-26T11:07:18Z</time>
      </trkpt>
      <trkpt lat="41.7177850" lon="2.0625800">
        <ele>734.1</ele>
        <time>2022-09-26T11:07:19Z</time>
      </trkpt>
      <trkpt lat="41.7177210" lon="2.0626160">
        <ele>734.1</ele>
        <time>2022-09-26T11:07:20Z</time>
      </trkpt>
      <trkpt lat="41.7176570" lon="2.0626470">
        <ele>734.0</ele>
        <time>2022-09-26T11:07:21Z</time>
      </trkpt>
      <trkpt lat="41.7176000" lon="2.0626520">
        <ele>734.0</ele>
        <time>2022-09-26T11:07:22Z</time>
      </trkpt>
      <trkpt lat="41.7175450" lon="2.0626410">
        <ele>734.0</ele>
        <time>2022-09-26T11:07:23Z</time>
      </trkpt>
      <trkpt lat="41.7174950" lon="2.0626210">
        <ele>734.0</ele>
        <time>2022-09-26T11:07:24Z</time>
      </trkpt>
      <trkpt lat="41.7174500" lon="2.0625930">
        <ele>734.0</ele>
        <time>2022-09-26T11:07:25Z</time>
      </trkpt>
      <trkpt lat="41.7174090" lon="2.0625560">
        <ele>734.0</ele>
        <time>2022-09-26T11:07:26Z</time>
      </trkpt>
      <trkpt lat="41.7173700" lon="2.0625140">
        <ele>734.0</ele>
        <time>2022-09-26T11:07:27Z</time>
      </trkpt>
      <trkpt lat="41.7173290" lon="2.0624680">
        <ele>734.0</ele>
        <time>2022-09-26T11:07:28Z</time>
      </trkpt>
      <trkpt lat="41.7172860" lon="2.0624210">
        <ele>734.0</ele>
        <time>2022-09-26T11:07:29Z</time>
      </trkpt>
      <trkpt lat="41.7172430" lon="2.0623730">
        <ele>734.0</ele>
        <time>2022-09-26T11:07:30Z</time>
      </trkpt>
      <trkpt lat="41.7172060" lon="2.0623250">
        <ele>734.0</ele>
        <time>2022-09-26T11:07:31Z</time>
      </trkpt>
      <trkpt lat="41.7171640" lon="2.0622790">
        <ele>734.0</ele>
        <time>2022-09-26T11:07:32Z</time>
      </trkpt>
      <trkpt lat="41.7171240" lon="2.0622450">
        <ele>734.0</ele>
        <time>2022-09-26T11:07:33Z</time>
      </trkpt>
      <trkpt lat="41.7170790" lon="2.0622220">
        <ele>734.0</ele>
        <time>2022-09-26T11:07:34Z</time>
      </trkpt>
      <trkpt lat="41.7170330" lon="2.0622050">
        <ele>734.0</ele>
        <time>2022-09-26T11:07:35Z</time>
      </trkpt>
      <trkpt lat="41.7169900" lon="2.0621910">
        <ele>734.0</ele>
        <time>2022-09-26T11:07:36Z</time>
      </trkpt>
      <trkpt lat="41.7169470" lon="2.0621800">
        <ele>734.0</ele>
        <time>2022-09-26T11:07:37Z</time>
      </trkpt>
      <trkpt lat="41.7169130" lon="2.0621720">
        <ele>734.0</ele>
        <time>2022-09-26T11:07:38Z</time>
      </trkpt>
      <trkpt lat="41.7168680" lon="2.0621630">
        <ele>734.0</ele>
        <time>2022-09-26T11:07:39Z</time>
      </trkpt>
      <trkpt lat="41.7168290" lon="2.0621560">
        <ele>733.9</ele>
        <time>2022-09-26T11:07:40Z</time>
      </trkpt>
      <trkpt lat="41.7167870" lon="2.0621450">
        <ele>733.8</ele>
        <time>2022-09-26T11:07:41Z</time>
      </trkpt>
      <trkpt lat="41.7167700" lon="2.0621400">
        <ele>733.8</ele>
        <time>2022-09-26T11:07:42Z</time>
      </trkpt>
      <trkpt lat="41.7167270" lon="2.0621280">
        <ele>733.6</ele>
        <time>2022-09-26T11:07:43Z</time>
      </trkpt>
      <trkpt lat="41.7166780" lon="2.0621190">
        <ele>733.4</ele>
        <time>2022-09-26T11:07:44Z</time>
      </trkpt>
      <trkpt lat="41.7166290" lon="2.0621100">
        <ele>733.2</ele>
        <time>2022-09-26T11:07:45Z</time>
      </trkpt>
      <trkpt lat="41.7165790" lon="2.0621010">
        <ele>733.0</ele>
        <time>2022-09-26T11:07:46Z</time>
      </trkpt>
      <trkpt lat="41.7165280" lon="2.0620920">
        <ele>732.8</ele>
        <time>2022-09-26T11:07:47Z</time>
      </trkpt>
      <trkpt lat="41.7164750" lon="2.0620840">
        <ele>732.5</ele>
        <time>2022-09-26T11:07:48Z</time>
      </trkpt>
      <trkpt lat="41.7164230" lon="2.0620760">
        <ele>732.2</ele>
        <time>2022-09-26T11:07:49Z</time>
      </trkpt>
      <trkpt lat="41.7163700" lon="2.0620650">
        <ele>731.8</ele>
        <time>2022-09-26T11:07:50Z</time>
      </trkpt>
      <trkpt lat="41.7163130" lon="2.0620490">
        <ele>731.5</ele>
        <time>2022-09-26T11:07:51Z</time>
      </trkpt>
      <trkpt lat="41.7162550" lon="2.0620250">
        <ele>731.1</ele>
        <time>2022-09-26T11:07:52Z</time>
      </trkpt>
      <trkpt lat="41.7161920" lon="2.0619930">
        <ele>730.7</ele>
        <time>2022-09-26T11:07:53Z</time>
      </trkpt>
      <trkpt lat="41.7161260" lon="2.0619550">
        <ele>730.3</ele>
        <time>2022-09-26T11:07:54Z</time>
      </trkpt>
      <trkpt lat="41.7160590" lon="2.0619210">
        <ele>730.0</ele>
        <time>2022-09-26T11:07:55Z</time>
      </trkpt>
      <trkpt lat="41.7159910" lon="2.0618970">
        <ele>729.7</ele>
        <time>2022-09-26T11:07:56Z</time>
      </trkpt>
      <trkpt lat="41.7159210" lon="2.0618820">
        <ele>729.4</ele>
        <time>2022-09-26T11:07:57Z</time>
      </trkpt>
      <trkpt lat="41.7158560" lon="2.0618770">
        <ele>729.1</ele>
        <time>2022-09-26T11:07:58Z</time>
      </trkpt>
      <trkpt lat="41.7157910" lon="2.0618730">
        <ele>728.7</ele>
        <time>2022-09-26T11:07:59Z</time>
      </trkpt>
      <trkpt lat="41.7157250" lon="2.0618670">
        <ele>728.2</ele>
        <time>2022-09-26T11:08:00Z</time>
      </trkpt>
      <trkpt lat="41.7156660" lon="2.0618680">
        <ele>727.8</ele>
        <time>2022-09-26T11:08:01Z</time>
      </trkpt>
      <trkpt lat="41.7156130" lon="2.0618780">
        <ele>727.4</ele>
        <time>2022-09-26T11:08:02Z</time>
      </trkpt>
      <trkpt lat="41.7155590" lon="2.0619000">
        <ele>726.9</ele>
        <time>2022-09-26T11:08:03Z</time>
      </trkpt>
      <trkpt lat="41.7155010" lon="2.0619330">
        <ele>726.5</ele>
        <time>2022-09-26T11:08:04Z</time>
      </trkpt>
      <trkpt lat="41.7154420" lon="2.0619720">
        <ele>726.0</ele>
        <time>2022-09-26T11:08:05Z</time>
      </trkpt>
      <trkpt lat="41.7153880" lon="2.0620170">
        <ele>725.7</ele>
        <time>2022-09-26T11:08:06Z</time>
      </trkpt>
      <trkpt lat="41.7153420" lon="2.0620690">
        <ele>725.3</ele>
        <time>2022-09-26T11:08:07Z</time>
      </trkpt>
      <trkpt lat="41.7153030" lon="2.0621320">
        <ele>725.0</ele>
        <time>2022-09-26T11:08:08Z</time>
      </trkpt>
      <trkpt lat="41.7152800" lon="2.0622030">
        <ele>724.8</ele>
        <time>2022-09-26T11:08:09Z</time>
      </trkpt>
      <trkpt lat="41.7152800" lon="2.0622840">
        <ele>724.5</ele>
        <time>2022-09-26T11:08:10Z</time>
      </trkpt>
      <trkpt lat="41.7152820" lon="2.0623650">
        <ele>724.2</ele>
        <time>2022-09-26T11:08:11Z</time>
      </trkpt>
      <trkpt lat="41.7152790" lon="2.0624470">
        <ele>723.9</ele>
        <time>2022-09-26T11:08:12Z</time>
      </trkpt>
      <trkpt lat="41.7152650" lon="2.0625170">
        <ele>723.6</ele>
        <time>2022-09-26T11:08:13Z</time>
      </trkpt>
      <trkpt lat="41.7152330" lon="2.0625700">
        <ele>723.3</ele>
        <time>2022-09-26T11:08:14Z</time>
      </trkpt>
      <trkpt lat="41.7151860" lon="2.0626130">
        <ele>723.0</ele>
        <time>2022-09-26T11:08:15Z</time>
      </trkpt>
      <trkpt lat="41.7151310" lon="2.0626530">
        <ele>722.6</ele>
        <time>2022-09-26T11:08:16Z</time>
      </trkpt>
      <trkpt lat="41.7150750" lon="2.0626960">
        <ele>722.3</ele>
        <time>2022-09-26T11:08:17Z</time>
      </trkpt>
      <trkpt lat="41.7150220" lon="2.0627410">
        <ele>722.0</ele>
        <time>2022-09-26T11:08:18Z</time>
      </trkpt>
      <trkpt lat="41.7149680" lon="2.0627830">
        <ele>721.8</ele>
        <time>2022-09-26T11:08:19Z</time>
      </trkpt>
      <trkpt lat="41.7149170" lon="2.0628170">
        <ele>721.6</ele>
        <time>2022-09-26T11:08:20Z</time>
      </trkpt>
      <trkpt lat="41.7148640" lon="2.0628370">
        <ele>721.4</ele>
        <time>2022-09-26T11:08:21Z</time>
      </trkpt>
      <trkpt lat="41.7148070" lon="2.0628370">
        <ele>721.2</ele>
        <time>2022-09-26T11:08:22Z</time>
      </trkpt>
      <trkpt lat="41.7147460" lon="2.0628240">
        <ele>721.0</ele>
        <time>2022-09-26T11:08:23Z</time>
      </trkpt>
      <trkpt lat="41.7146830" lon="2.0627960">
        <ele>720.8</ele>
        <time>2022-09-26T11:08:24Z</time>
      </trkpt>
      <trkpt lat="41.7146220" lon="2.0627630">
        <ele>720.6</ele>
        <time>2022-09-26T11:08:25Z</time>
      </trkpt>
      <trkpt lat="41.7145650" lon="2.0627260">
        <ele>720.4</ele>
        <time>2022-09-26T11:08:26Z</time>
      </trkpt>
      <trkpt lat="41.7145130" lon="2.0626840">
        <ele>720.2</ele>
        <time>2022-09-26T11:08:27Z</time>
      </trkpt>
      <trkpt lat="41.7144620" lon="2.0626350">
        <ele>720.0</ele>
        <time>2022-09-26T11:08:28Z</time>
      </trkpt>
      <trkpt lat="41.7144150" lon="2.0625830">
        <ele>719.8</ele>
        <time>2022-09-26T11:08:29Z</time>
      </trkpt>
      <trkpt lat="41.7143740" lon="2.0625310">
        <ele>719.7</ele>
        <time>2022-09-26T11:08:30Z</time>
      </trkpt>
      <trkpt lat="41.7143260" lon="2.0624870">
        <ele>719.4</ele>
        <time>2022-09-26T11:08:31Z</time>
      </trkpt>
      <trkpt lat="41.7142750" lon="2.0624590">
        <ele>719.2</ele>
        <time>2022-09-26T11:08:32Z</time>
      </trkpt>
      <trkpt lat="41.7142260" lon="2.0624560">
        <ele>718.9</ele>
        <time>2022-09-26T11:08:33Z</time>
      </trkpt>
      <trkpt lat="41.7141790" lon="2.0624570">
        <ele>718.6</ele>
        <time>2022-09-26T11:08:34Z</time>
      </trkpt>
      <trkpt lat="41.7141260" lon="2.0624650">
        <ele>718.2</ele>
        <time>2022-09-26T11:08:35Z</time>
      </trkpt>
      <trkpt lat="41.7140670" lon="2.0624750">
        <ele>717.9</ele>
        <time>2022-09-26T11:08:36Z</time>
      </trkpt>
      <trkpt lat="41.7140040" lon="2.0624800">
        <ele>717.5</ele>
        <time>2022-09-26T11:08:37Z</time>
      </trkpt>
      <trkpt lat="41.7139420" lon="2.0624790">
        <ele>717.2</ele>
        <time>2022-09-26T11:08:38Z</time>
      </trkpt>
      <trkpt lat="41.7138770" lon="2.0624630">
        <ele>717.0</ele>
        <time>2022-09-26T11:08:39Z</time>
      </trkpt>
      <trkpt lat="41.7138140" lon="2.0624340">
        <ele>716.8</ele>
        <time>2022-09-26T11:08:40Z</time>
      </trkpt>
      <trkpt lat="41.7137570" lon="2.0623870">
        <ele>716.6</ele>
        <time>2022-09-26T11:08:41Z</time>
      </trkpt>
      <trkpt lat="41.7137020" lon="2.0623330">
        <ele>716.5</ele>
        <time>2022-09-26T11:08:42Z</time>
      </trkpt>
      <trkpt lat="41.7136510" lon="2.0622820">
        <ele>716.3</ele>
        <time>2022-09-26T11:08:43Z</time>
      </trkpt>
      <trkpt lat="41.7136050" lon="2.0622310">
        <ele>716.2</ele>
        <time>2022-09-26T11:08:44Z</time>
      </trkpt>
      <trkpt lat="41.7135690" lon="2.0621830">
        <ele>716.0</ele>
        <time>2022-09-26T11:08:45Z</time>
      </trkpt>
      <trkpt lat="41.7135410" lon="2.0621320">
        <ele>715.9</ele>
        <time>2022-09-26T11:08:46Z</time>
      </trkpt>
      <trkpt lat="41.7135220" lon="2.0620720">
        <ele>715.8</ele>
        <time>2022-09-26T11:08:47Z</time>
      </trkpt>
      <trkpt lat="41.7135120" lon="2.0620080">
        <ele>715.6</ele>
        <time>2022-09-26T11:08:48Z</time>
      </trkpt>
      <trkpt lat="41.7135060" lon="2.0619390">
        <ele>715.4</ele>
        <time>2022-09-26T11:08:49Z</time>
      </trkpt>
      <trkpt lat="41.7134910" lon="2.0618630">
        <ele>715.2</ele>
        <time>2022-09-26T11:08:50Z</time>
      </trkpt>
      <trkpt lat="41.7134690" lon="2.0617810">
        <ele>715.0</ele>
        <time>2022-09-26T11:08:51Z</time>
      </trkpt>
      <trkpt lat="41.7134410" lon="2.0617040">
        <ele>714.8</ele>
        <time>2022-09-26T11:08:52Z</time>
      </trkpt>
      <trkpt lat="41.7134130" lon="2.0616290">
        <ele>714.6</ele>
        <time>2022-09-26T11:08:53Z</time>
      </trkpt>
      <trkpt lat="41.7133860" lon="2.0615590">
        <ele>714.4</ele>
        <time>2022-09-26T11:08:54Z</time>
      </trkpt>
      <trkpt lat="41.7133530" lon="2.0614940">
        <ele>714.2</ele>
        <time>2022-09-26T11:08:55Z</time>
      </trkpt>
      <trkpt lat="41.7133150" lon="2.0614320">
        <ele>714.0</ele>
        <time>2022-09-26T11:08:56Z</time>
      </trkpt>
      <trkpt lat="41.7132760" lon="2.0613710">
        <ele>713.7</ele>
        <time>2022-09-26T11:08:57Z</time>
      </trkpt>
      <trkpt lat="41.7132370" lon="2.0613110">
        <ele>713.5</ele>
        <time>2022-09-26T11:08:58Z</time>
      </trkpt>
      <trkpt lat="41.7132000" lon="2.0612480">
        <ele>713.2</ele>
        <time>2022-09-26T11:08:59Z</time>
      </trkpt>
      <trkpt lat="41.7131630" lon="2.0611850">
        <ele>712.9</ele>
        <time>2022-09-26T11:09:00Z</time>
      </trkpt>
      <trkpt lat="41.7131280" lon="2.0611240">
        <ele>712.7</ele>
        <time>2022-09-26T11:09:01Z</time>
      </trkpt>
      <trkpt lat="41.7130940" lon="2.0610650">
        <ele>712.4</ele>
        <time>2022-09-26T11:09:02Z</time>
      </trkpt>
      <trkpt lat="41.7130620" lon="2.0610100">
        <ele>712.2</ele>
        <time>2022-09-26T11:09:03Z</time>
      </trkpt>
      <trkpt lat="41.7130340" lon="2.0609530">
        <ele>711.8</ele>
        <time>2022-09-26T11:09:04Z</time>
      </trkpt>
      <trkpt lat="41.7130060" lon="2.0608920">
        <ele>711.4</ele>
        <time>2022-09-26T11:09:05Z</time>
      </trkpt>
      <trkpt lat="41.7129820" lon="2.0608290">
        <ele>711.0</ele>
        <time>2022-09-26T11:09:06Z</time>
      </trkpt>
      <trkpt lat="41.7129600" lon="2.0607660">
        <ele>710.7</ele>
        <time>2022-09-26T11:09:07Z</time>
      </trkpt>
      <trkpt lat="41.7129390" lon="2.0606990">
        <ele>710.4</ele>
        <time>2022-09-26T11:09:08Z</time>
      </trkpt>
      <trkpt lat="41.7129210" lon="2.0606300">
        <ele>710.0</ele>
        <time>2022-09-26T11:09:09Z</time>
      </trkpt>
      <trkpt lat="41.7129050" lon="2.0605570">
        <ele>709.6</ele>
        <time>2022-09-26T11:09:10Z</time>
      </trkpt>
      <trkpt lat="41.7128910" lon="2.0604820">
        <ele>709.2</ele>
        <time>2022-09-26T11:09:11Z</time>
      </trkpt>
      <trkpt lat="41.7128800" lon="2.0603980">
        <ele>708.8</ele>
        <time>2022-09-26T11:09:12Z</time>
      </trkpt>
      <trkpt lat="41.7128720" lon="2.0603110">
        <ele>708.3</ele>
        <time>2022-09-26T11:09:13Z</time>
      </trkpt>
      <trkpt lat="41.7128660" lon="2.0602280">
        <ele>707.9</ele>
        <time>2022-09-26T11:09:14Z</time>
      </trkpt>
      <trkpt lat="41.7128560" lon="2.0601500">
        <ele>707.6</ele>
        <time>2022-09-26T11:09:15Z</time>
      </trkpt>
      <trkpt lat="41.7128370" lon="2.0600860">
        <ele>707.2</ele>
        <time>2022-09-26T11:09:16Z</time>
      </trkpt>
      <trkpt lat="41.7128040" lon="2.0600400">
        <ele>706.9</ele>
        <time>2022-09-26T11:09:17Z</time>
      </trkpt>
      <trkpt lat="41.7127580" lon="2.0600050">
        <ele>706.5</ele>
        <time>2022-09-26T11:09:18Z</time>
      </trkpt>
      <trkpt lat="41.7127030" lon="2.0599810">
        <ele>706.0</ele>
        <time>2022-09-26T11:09:19Z</time>
      </trkpt>
      <trkpt lat="41.7126370" lon="2.0599650">
        <ele>705.3</ele>
        <time>2022-09-26T11:09:20Z</time>
      </trkpt>
      <trkpt lat="41.7125680" lon="2.0599550">
        <ele>704.6</ele>
        <time>2022-09-26T11:09:21Z</time>
      </trkpt>
      <trkpt lat="41.7124950" lon="2.0599460">
        <ele>703.9</ele>
        <time>2022-09-26T11:09:22Z</time>
      </trkpt>
      <trkpt lat="41.7124190" lon="2.0599380">
        <ele>703.1</ele>
        <time>2022-09-26T11:09:23Z</time>
      </trkpt>
      <trkpt lat="41.7123410" lon="2.0599390">
        <ele>702.4</ele>
        <time>2022-09-26T11:09:24Z</time>
      </trkpt>
      <trkpt lat="41.7122640" lon="2.0599390">
        <ele>701.7</ele>
        <time>2022-09-26T11:09:25Z</time>
      </trkpt>
      <trkpt lat="41.7121850" lon="2.0599440">
        <ele>701.0</ele>
        <time>2022-09-26T11:09:26Z</time>
      </trkpt>
      <trkpt lat="41.7121000" lon="2.0599530">
        <ele>700.3</ele>
        <time>2022-09-26T11:09:27Z</time>
      </trkpt>
      <trkpt lat="41.7120180" lon="2.0599740">
        <ele>699.7</ele>
        <time>2022-09-26T11:09:28Z</time>
      </trkpt>
      <trkpt lat="41.7119440" lon="2.0600030">
        <ele>699.3</ele>
        <time>2022-09-26T11:09:29Z</time>
      </trkpt>
      <trkpt lat="41.7118730" lon="2.0600280">
        <ele>698.9</ele>
        <time>2022-09-26T11:09:30Z</time>
      </trkpt>
      <trkpt lat="41.7118060" lon="2.0600430">
        <ele>698.6</ele>
        <time>2022-09-26T11:09:31Z</time>
      </trkpt>
      <trkpt lat="41.7117490" lon="2.0600490">
        <ele>698.2</ele>
        <time>2022-09-26T11:09:32Z</time>
      </trkpt>
      <trkpt lat="41.7116990" lon="2.0600380">
        <ele>697.9</ele>
        <time>2022-09-26T11:09:33Z</time>
      </trkpt>
      <trkpt lat="41.7116570" lon="2.0600060">
        <ele>697.4</ele>
        <time>2022-09-26T11:09:34Z</time>
      </trkpt>
      <trkpt lat="41.7116160" lon="2.0599550">
        <ele>696.9</ele>
        <time>2022-09-26T11:09:35Z</time>
      </trkpt>
      <trkpt lat="41.7115780" lon="2.0598910">
        <ele>696.3</ele>
        <time>2022-09-26T11:09:36Z</time>
      </trkpt>
      <trkpt lat="41.7115450" lon="2.0598220">
        <ele>695.7</ele>
        <time>2022-09-26T11:09:37Z</time>
      </trkpt>
      <trkpt lat="41.7115240" lon="2.0597460">
        <ele>695.1</ele>
        <time>2022-09-26T11:09:38Z</time>
      </trkpt>
      <trkpt lat="41.7115120" lon="2.0596680">
        <ele>694.7</ele>
        <time>2022-09-26T11:09:39Z</time>
      </trkpt>
      <trkpt lat="41.7115080" lon="2.0595760">
        <ele>694.2</ele>
        <time>2022-09-26T11:09:40Z</time>
      </trkpt>
      <trkpt lat="41.7115050" lon="2.0594860">
        <ele>693.7</ele>
        <time>2022-09-26T11:09:41Z</time>
      </trkpt>
      <trkpt lat="41.7115010" lon="2.0593990">
        <ele>693.2</ele>
        <time>2022-09-26T11:09:42Z</time>
      </trkpt>
      <trkpt lat="41.7114920" lon="2.0593140">
        <ele>692.8</ele>
        <time>2022-09-26T11:09:43Z</time>
      </trkpt>
      <trkpt lat="41.7114810" lon="2.0592290">
        <ele>692.3</ele>
        <time>2022-09-26T11:09:44Z</time>
      </trkpt>
      <trkpt lat="41.7114720" lon="2.0591430">
        <ele>691.8</ele>
        <time>2022-09-26T11:09:45Z</time>
      </trkpt>
      <trkpt lat="41.7114640" lon="2.0590510">
        <ele>691.2</ele>
        <time>2022-09-26T11:09:46Z</time>
      </trkpt>
      <trkpt lat="41.7114500" lon="2.0589500">
        <ele>690.7</ele>
        <time>2022-09-26T11:09:47Z</time>
      </trkpt>
      <trkpt lat="41.7114330" lon="2.0588490">
        <ele>690.2</ele>
        <time>2022-09-26T11:09:48Z</time>
      </trkpt>
      <trkpt lat="41.7114170" lon="2.0587460">
        <ele>689.7</ele>
        <time>2022-09-26T11:09:49Z</time>
      </trkpt>
      <trkpt lat="41.7114060" lon="2.0586370">
        <ele>689.2</ele>
        <time>2022-09-26T11:09:50Z</time>
      </trkpt>
      <trkpt lat="41.7113950" lon="2.0585350">
        <ele>688.8</ele>
        <time>2022-09-26T11:09:51Z</time>
      </trkpt>
      <trkpt lat="41.7113870" lon="2.0584340">
        <ele>688.4</ele>
        <time>2022-09-26T11:09:52Z</time>
      </trkpt>
      <trkpt lat="41.7113830" lon="2.0583400">
        <ele>687.9</ele>
        <time>2022-09-26T11:09:53Z</time>
      </trkpt>
      <trkpt lat="41.7113830" lon="2.0582480">
        <ele>687.4</ele>
        <time>2022-09-26T11:09:54Z</time>
      </trkpt>
      <trkpt lat="41.7113850" lon="2.0581490">
        <ele>686.8</ele>
        <time>2022-09-26T11:09:55Z</time>
      </trkpt>
      <trkpt lat="41.7113920" lon="2.0580540">
        <ele>686.2</ele>
        <time>2022-09-26T11:09:56Z</time>
      </trkpt>
      <trkpt lat="41.7114010" lon="2.0579650">
        <ele>685.6</ele>
        <time>2022-09-26T11:09:57Z</time>
      </trkpt>
      <trkpt lat="41.7114060" lon="2.0578680">
        <ele>684.9</ele>
        <time>2022-09-26T11:09:58Z</time>
      </trkpt>
      <trkpt lat="41.7114060" lon="2.0577670">
        <ele>684.2</ele>
        <time>2022-09-26T11:09:59Z</time>
      </trkpt>
      <trkpt lat="41.7114040" lon="2.0576590">
        <ele>683.4</ele>
        <time>2022-09-26T11:10:00Z</time>
      </trkpt>
      <trkpt lat="41.7114080" lon="2.0575470">
        <ele>682.6</ele>
        <time>2022-09-26T11:10:01Z</time>
      </trkpt>
      <trkpt lat="41.7114220" lon="2.0574340">
        <ele>681.8</ele>
        <time>2022-09-26T11:10:02Z</time>
      </trkpt>
      <trkpt lat="41.7114390" lon="2.0573160">
        <ele>681.0</ele>
        <time>2022-09-26T11:10:03Z</time>
      </trkpt>
      <trkpt lat="41.7114550" lon="2.0571950">
        <ele>680.0</ele>
        <time>2022-09-26T11:10:04Z</time>
      </trkpt>
      <trkpt lat="41.7114700" lon="2.0570760">
        <ele>679.1</ele>
        <time>2022-09-26T11:10:05Z</time>
      </trkpt>
      <trkpt lat="41.7114820" lon="2.0569490">
        <ele>678.1</ele>
        <time>2022-09-26T11:10:06Z</time>
      </trkpt>
      <trkpt lat="41.7114960" lon="2.0568190">
        <ele>677.1</ele>
        <time>2022-09-26T11:10:07Z</time>
      </trkpt>
      <trkpt lat="41.7115200" lon="2.0566880">
        <ele>676.3</ele>
        <time>2022-09-26T11:10:08Z</time>
      </trkpt>
      <trkpt lat="41.7115520" lon="2.0565650">
        <ele>676.1</ele>
        <time>2022-09-26T11:10:09Z</time>
      </trkpt>
      <trkpt lat="41.7115860" lon="2.0564430">
        <ele>675.9</ele>
        <time>2022-09-26T11:10:10Z</time>
      </trkpt>
      <trkpt lat="41.7116250" lon="2.0563270">
        <ele>675.7</ele>
        <time>2022-09-26T11:10:11Z</time>
      </trkpt>
      <trkpt lat="41.7116690" lon="2.0562240">
        <ele>675.5</ele>
        <time>2022-09-26T11:10:12Z</time>
      </trkpt>
      <trkpt lat="41.7117070" lon="2.0561330">
        <ele>675.1</ele>
        <time>2022-09-26T11:10:13Z</time>
      </trkpt>
      <trkpt lat="41.7117350" lon="2.0560610">
        <ele>674.9</ele>
        <time>2022-09-26T11:10:14Z</time>
      </trkpt>
      <trkpt lat="41.7117540" lon="2.0559960">
        <ele>674.6</ele>
        <time>2022-09-26T11:10:15Z</time>
      </trkpt>
      <trkpt lat="41.7117720" lon="2.0559170">
        <ele>674.4</ele>
        <time>2022-09-26T11:10:16Z</time>
      </trkpt>
      <trkpt lat="41.7117880" lon="2.0558340">
        <ele>674.2</ele>
        <time>2022-09-26T11:10:17Z</time>
      </trkpt>
      <trkpt lat="41.7118010" lon="2.0557520">
        <ele>674.2</ele>
        <time>2022-09-26T11:10:18Z</time>
      </trkpt>
      <trkpt lat="41.7118140" lon="2.0556810">
        <ele>674.2</ele>
        <time>2022-09-26T11:10:19Z</time>
      </trkpt>
      <trkpt lat="41.7118290" lon="2.0556220">
        <ele>674.3</ele>
        <time>2022-09-26T11:10:20Z</time>
      </trkpt>
      <trkpt lat="41.7118410" lon="2.0555870">
        <ele>674.3</ele>
        <time>2022-09-26T11:10:21Z</time>
      </trkpt>
      <trkpt lat="41.7118590" lon="2.0555340">
        <ele>674.5</ele>
        <time>2022-09-26T11:10:22Z</time>
      </trkpt>
      <trkpt lat="41.7118750" lon="2.0554880">
        <ele>674.6</ele>
        <time>2022-09-26T11:10:23Z</time>
      </trkpt>
      <trkpt lat="41.7118810" lon="2.0554680">
        <ele>674.7</ele>
        <time>2022-09-26T11:10:24Z</time>
      </trkpt>
      <trkpt lat="41.7118920" lon="2.0554330">
        <ele>674.8</ele>
        <time>2022-09-26T11:10:25Z</time>
      </trkpt>
      <trkpt lat="41.7119040" lon="2.0553960">
        <ele>674.8</ele>
        <time>2022-09-26T11:10:26Z</time>
      </trkpt>
      <trkpt lat="41.7119080" lon="2.0553830">
        <ele>674.9</ele>
        <time>2022-09-26T11:10:27Z</time>
      </trkpt>
      <trkpt lat="41.7119200" lon="2.0553940">
        <ele>674.9</ele>
        <time>2022-09-26T11:10:28Z</time>
      </trkpt>
      <trkpt lat="41.7119400" lon="2.0553220">
        <ele>675.0</ele>
        <time>2022-09-26T11:10:30Z</time>
      </trkpt>
      <trkpt lat="41.7119630" lon="2.0552500">
        <ele>675.0</ele>
        <time>2022-09-26T11:10:31Z</time>
      </trkpt>
      <trkpt lat="41.7119850" lon="2.0551740">
        <ele>675.0</ele>
        <time>2022-09-26T11:10:32Z</time>
      </trkpt>
      <trkpt lat="41.7119930" lon="2.0551200">
        <ele>675.0</ele>
        <time>2022-09-26T11:10:34Z</time>
      </trkpt>
      <trkpt lat="41.7119980" lon="2.0550700">
        <ele>675.0</ele>
        <time>2022-09-26T11:10:35Z</time>
      </trkpt>
      <trkpt lat="41.7119990" lon="2.0550260">
        <ele>675.1</ele>
        <time>2022-09-26T11:10:36Z</time>
      </trkpt>
      <trkpt lat="41.7119990" lon="2.0549740">
        <ele>675.1</ele>
        <time>2022-09-26T11:10:37Z</time>
      </trkpt>
      <trkpt lat="41.7119980" lon="2.0549230">
        <ele>675.1</ele>
        <time>2022-09-26T11:10:38Z</time>
      </trkpt>
      <trkpt lat="41.7119990" lon="2.0548660">
        <ele>675.1</ele>
        <time>2022-09-26T11:10:39Z</time>
      </trkpt>
      <trkpt lat="41.7120000" lon="2.0548450">
        <ele>675.2</ele>
        <time>2022-09-26T11:10:40Z</time>
      </trkpt>
      <trkpt lat="41.7119930" lon="2.0548090">
        <ele>675.2</ele>
        <time>2022-09-26T11:10:41Z</time>
      </trkpt>
      <trkpt lat="41.7119670" lon="2.0547920">
        <ele>675.2</ele>
        <time>2022-09-26T11:10:42Z</time>
      </trkpt>
      <trkpt lat="41.7119340" lon="2.0547960">
        <ele>674.7</ele>
        <time>2022-09-26T11:10:43Z</time>
      </trkpt>
      <trkpt lat="41.7119050" lon="2.0548230">
        <ele>674.2</ele>
        <time>2022-09-26T11:10:45Z</time>
      </trkpt>
      <trkpt lat="41.7118850" lon="2.0548590">
        <ele>673.7</ele>
        <time>2022-09-26T11:10:46Z</time>
      </trkpt>
      <trkpt lat="41.7118700" lon="2.0548940">
        <ele>673.3</ele>
        <time>2022-09-26T11:10:47Z</time>
      </trkpt>
      <trkpt lat="41.7118430" lon="2.0549410">
        <ele>672.7</ele>
        <time>2022-09-26T11:10:48Z</time>
      </trkpt>
      <trkpt lat="41.7118120" lon="2.0550000">
        <ele>672.0</ele>
        <time>2022-09-26T11:10:49Z</time>
      </trkpt>
      <trkpt lat="41.7117690" lon="2.0550650">
        <ele>671.3</ele>
        <time>2022-09-26T11:10:50Z</time>
      </trkpt>
      <trkpt lat="41.7117260" lon="2.0551220">
        <ele>670.7</ele>
        <time>2022-09-26T11:10:51Z</time>
      </trkpt>
      <trkpt lat="41.7116900" lon="2.0551800">
        <ele>670.2</ele>
        <time>2022-09-26T11:10:52Z</time>
      </trkpt>
      <trkpt lat="41.7116650" lon="2.0552160">
        <ele>669.9</ele>
        <time>2022-09-26T11:10:53Z</time>
      </trkpt>
      <trkpt lat="41.7116250" lon="2.0552440">
        <ele>669.7</ele>
        <time>2022-09-26T11:10:54Z</time>
      </trkpt>
      <trkpt lat="41.7116110" lon="2.0552600">
        <ele>669.6</ele>
        <time>2022-09-26T11:10:55Z</time>
      </trkpt>
      <trkpt lat="41.7115750" lon="2.0553400">
        <ele>669.3</ele>
        <time>2022-09-26T11:10:56Z</time>
      </trkpt>
      <trkpt lat="41.7115500" lon="2.0553980">
        <ele>669.1</ele>
        <time>2022-09-26T11:10:58Z</time>
      </trkpt>
      <trkpt lat="41.7115340" lon="2.0554520">
        <ele>668.9</ele>
        <time>2022-09-26T11:10:59Z</time>
      </trkpt>
      <trkpt lat="41.7115250" lon="2.0555110">
        <ele>668.6</ele>
        <time>2022-09-26T11:11:00Z</time>
      </trkpt>
      <trkpt lat="41.7115170" lon="2.0555560">
        <ele>668.4</ele>
        <time>2022-09-26T11:11:01Z</time>
      </trkpt>
      <trkpt lat="41.7115160" lon="2.0555660">
        <ele>668.3</ele>
        <time>2022-09-26T11:11:02Z</time>
      </trkpt>
      <trkpt lat="41.7115110" lon="2.0556080">
        <ele>667.9</ele>
        <time>2022-09-26T11:11:03Z</time>
      </trkpt>
      <trkpt lat="41.7115110" lon="2.0556250">
        <ele>667.7</ele>
        <time>2022-09-26T11:11:04Z</time>
      </trkpt>
      <trkpt lat="41.7115070" lon="2.0556830">
        <ele>667.2</ele>
        <time>2022-09-26T11:11:05Z</time>
      </trkpt>
      <trkpt lat="41.7115010" lon="2.0557290">
        <ele>666.8</ele>
        <time>2022-09-26T11:11:06Z</time>
      </trkpt>
      <trkpt lat="41.7114880" lon="2.0557830">
        <ele>666.3</ele>
        <time>2022-09-26T11:11:07Z</time>
      </trkpt>
      <trkpt lat="41.7114810" lon="2.0558040">
        <ele>666.1</ele>
        <time>2022-09-26T11:11:08Z</time>
      </trkpt>
      <trkpt lat="41.7114650" lon="2.0558610">
        <ele>665.5</ele>
        <time>2022-09-26T11:11:09Z</time>
      </trkpt>
      <trkpt lat="41.7114540" lon="2.0559120">
        <ele>665.1</ele>
        <time>2022-09-26T11:11:10Z</time>
      </trkpt>
      <trkpt lat="41.7114490" lon="2.0559410">
        <ele>664.8</ele>
        <time>2022-09-26T11:11:11Z</time>
      </trkpt>
      <trkpt lat="41.7114460" lon="2.0559410">
        <ele>664.7</ele>
        <time>2022-09-26T11:11:12Z</time>
      </trkpt>
      <trkpt lat="41.7114450" lon="2.0559410">
        <ele>664.7</ele>
        <time>2022-09-26T11:11:13Z</time>
      </trkpt>
      <trkpt lat="41.7114410" lon="2.0559470">
        <ele>664.7</ele>
        <time>2022-09-26T11:11:14Z</time>
      </trkpt>
      <trkpt lat="41.7114380" lon="2.0559550">
        <ele>664.6</ele>
        <time>2022-09-26T11:11:15Z</time>
      </trkpt>
      <trkpt lat="41.7114350" lon="2.0559660">
        <ele>664.5</ele>
        <time>2022-09-26T11:11:17Z</time>
      </trkpt>
      <trkpt lat="41.7114270" lon="2.0559810">
        <ele>664.3</ele>
        <time>2022-09-26T11:11:18Z</time>
      </trkpt>
      <trkpt lat="41.7114110" lon="2.0560270">
        <ele>663.7</ele>
        <time>2022-09-26T11:11:19Z</time>
      </trkpt>
      <trkpt lat="41.7114080" lon="2.0560440">
        <ele>663.5</ele>
        <time>2022-09-26T11:11:20Z</time>
      </trkpt>
      <trkpt lat="41.7113910" lon="2.0560900">
        <ele>663.0</ele>
        <time>2022-09-26T11:11:21Z</time>
      </trkpt>
      <trkpt lat="41.7113820" lon="2.0561100">
        <ele>662.8</ele>
        <time>2022-09-26T11:11:22Z</time>
      </trkpt>
      <trkpt lat="41.7113600" lon="2.0561600">
        <ele>662.1</ele>
        <time>2022-09-26T11:11:24Z</time>
      </trkpt>
      <trkpt lat="41.7113400" lon="2.0562110">
        <ele>661.5</ele>
        <time>2022-09-26T11:11:25Z</time>
      </trkpt>
      <trkpt lat="41.7113310" lon="2.0562320">
        <ele>661.2</ele>
        <time>2022-09-26T11:11:26Z</time>
      </trkpt>
      <trkpt lat="41.7113130" lon="2.0562700">
        <ele>660.7</ele>
        <time>2022-09-26T11:11:28Z</time>
      </trkpt>
      <trkpt lat="41.7112940" lon="2.0563100">
        <ele>660.2</ele>
        <time>2022-09-26T11:11:29Z</time>
      </trkpt>
      <trkpt lat="41.7112630" lon="2.0563710">
        <ele>659.4</ele>
        <time>2022-09-26T11:11:30Z</time>
      </trkpt>
      <trkpt lat="41.7112380" lon="2.0564170">
        <ele>658.8</ele>
        <time>2022-09-26T11:11:31Z</time>
      </trkpt>
      <trkpt lat="41.7112130" lon="2.0564730">
        <ele>658.2</ele>
        <time>2022-09-26T11:11:32Z</time>
      </trkpt>
      <trkpt lat="41.7111850" lon="2.0565280">
        <ele>657.6</ele>
        <time>2022-09-26T11:11:33Z</time>
      </trkpt>
      <trkpt lat="41.7111400" lon="2.0566190">
        <ele>656.7</ele>
        <time>2022-09-26T11:11:35Z</time>
      </trkpt>
      <trkpt lat="41.7111130" lon="2.0566570">
        <ele>656.2</ele>
        <time>2022-09-26T11:11:36Z</time>
      </trkpt>
      <trkpt lat="41.7111020" lon="2.0566710">
        <ele>656.1</ele>
        <time>2022-09-26T11:11:37Z</time>
      </trkpt>
      <trkpt lat="41.7110790" lon="2.0567240">
        <ele>655.6</ele>
        <time>2022-09-26T11:11:38Z</time>
      </trkpt>
      <trkpt lat="41.7110600" lon="2.0567610">
        <ele>655.2</ele>
        <time>2022-09-26T11:11:39Z</time>
      </trkpt>
      <trkpt lat="41.7110400" lon="2.0567900">
        <ele>654.8</ele>
        <time>2022-09-26T11:11:40Z</time>
      </trkpt>
      <trkpt lat="41.7110150" lon="2.0568350">
        <ele>654.4</ele>
        <time>2022-09-26T11:11:42Z</time>
      </trkpt>
      <trkpt lat="41.7110020" lon="2.0568690">
        <ele>654.0</ele>
        <time>2022-09-26T11:11:43Z</time>
      </trkpt>
      <trkpt lat="41.7109920" lon="2.0569120">
        <ele>653.6</ele>
        <time>2022-09-26T11:11:44Z</time>
      </trkpt>
      <trkpt lat="41.7109710" lon="2.0569810">
        <ele>652.9</ele>
        <time>2022-09-26T11:11:46Z</time>
      </trkpt>
      <trkpt lat="41.7109630" lon="2.0570040">
        <ele>652.7</ele>
        <time>2022-09-26T11:11:47Z</time>
      </trkpt>
      <trkpt lat="41.7109540" lon="2.0570270">
        <ele>652.4</ele>
        <time>2022-09-26T11:11:48Z</time>
      </trkpt>
      <trkpt lat="41.7109360" lon="2.0570720">
        <ele>651.9</ele>
        <time>2022-09-26T11:11:49Z</time>
      </trkpt>
      <trkpt lat="41.7109180" lon="2.0571250">
        <ele>651.3</ele>
        <time>2022-09-26T11:11:50Z</time>
      </trkpt>
      <trkpt lat="41.7108970" lon="2.0571820">
        <ele>650.6</ele>
        <time>2022-09-26T11:11:51Z</time>
      </trkpt>
      <trkpt lat="41.7108680" lon="2.0572390">
        <ele>649.9</ele>
        <time>2022-09-26T11:11:52Z</time>
      </trkpt>
      <trkpt lat="41.7108270" lon="2.0572920">
        <ele>649.1</ele>
        <time>2022-09-26T11:11:53Z</time>
      </trkpt>
      <trkpt lat="41.7107710" lon="2.0573420">
        <ele>648.2</ele>
        <time>2022-09-26T11:11:54Z</time>
      </trkpt>
      <trkpt lat="41.7107060" lon="2.0573890">
        <ele>647.4</ele>
        <time>2022-09-26T11:11:55Z</time>
      </trkpt>
      <trkpt lat="41.7106370" lon="2.0574320">
        <ele>646.7</ele>
        <time>2022-09-26T11:11:56Z</time>
      </trkpt>
      <trkpt lat="41.7105700" lon="2.0574650">
        <ele>646.1</ele>
        <time>2022-09-26T11:11:57Z</time>
      </trkpt>
      <trkpt lat="41.7105120" lon="2.0574930">
        <ele>645.6</ele>
        <time>2022-09-26T11:11:58Z</time>
      </trkpt>
      <trkpt lat="41.7104680" lon="2.0575250">
        <ele>645.2</ele>
        <time>2022-09-26T11:11:59Z</time>
      </trkpt>
      <trkpt lat="41.7104650" lon="2.0575640">
        <ele>644.9</ele>
        <time>2022-09-26T11:12:00Z</time>
      </trkpt>
      <trkpt lat="41.7104580" lon="2.0575870">
        <ele>644.8</ele>
        <time>2022-09-26T11:12:01Z</time>
      </trkpt>
      <trkpt lat="41.7104340" lon="2.0576590">
        <ele>644.3</ele>
        <time>2022-09-26T11:12:02Z</time>
      </trkpt>
      <trkpt lat="41.7104270" lon="2.0577250">
        <ele>643.8</ele>
        <time>2022-09-26T11:12:03Z</time>
      </trkpt>
      <trkpt lat="41.7104200" lon="2.0578020">
        <ele>643.2</ele>
        <time>2022-09-26T11:12:04Z</time>
      </trkpt>
      <trkpt lat="41.7104070" lon="2.0578890">
        <ele>642.5</ele>
        <time>2022-09-26T11:12:05Z</time>
      </trkpt>
      <trkpt lat="41.7103870" lon="2.0579770">
        <ele>642.0</ele>
        <time>2022-09-26T11:12:06Z</time>
      </trkpt>
      <trkpt lat="41.7103560" lon="2.0580530">
        <ele>641.5</ele>
        <time>2022-09-26T11:12:07Z</time>
      </trkpt>
      <trkpt lat="41.7103160" lon="2.0581220">
        <ele>641.1</ele>
        <time>2022-09-26T11:12:08Z</time>
      </trkpt>
      <trkpt lat="41.7102650" lon="2.0581830">
        <ele>640.7</ele>
        <time>2022-09-26T11:12:09Z</time>
      </trkpt>
      <trkpt lat="41.7102120" lon="2.0582370">
        <ele>640.4</ele>
        <time>2022-09-26T11:12:10Z</time>
      </trkpt>
      <trkpt lat="41.7101640" lon="2.0582930">
        <ele>640.2</ele>
        <time>2022-09-26T11:12:11Z</time>
      </trkpt>
      <trkpt lat="41.7101240" lon="2.0583580">
        <ele>640.1</ele>
        <time>2022-09-26T11:12:12Z</time>
      </trkpt>
      <trkpt lat="41.7101020" lon="2.0584310">
        <ele>639.9</ele>
        <time>2022-09-26T11:12:13Z</time>
      </trkpt>
      <trkpt lat="41.7100990" lon="2.0585070">
        <ele>639.8</ele>
        <time>2022-09-26T11:12:14Z</time>
      </trkpt>
      <trkpt lat="41.7101030" lon="2.0585840">
        <ele>639.7</ele>
        <time>2022-09-26T11:12:15Z</time>
      </trkpt>
      <trkpt lat="41.7101130" lon="2.0586580">
        <ele>639.6</ele>
        <time>2022-09-26T11:12:16Z</time>
      </trkpt>
      <trkpt lat="41.7101260" lon="2.0587290">
        <ele>639.4</ele>
        <time>2022-09-26T11:12:17Z</time>
      </trkpt>
      <trkpt lat="41.7101410" lon="2.0587970">
        <ele>639.3</ele>
        <time>2022-09-26T11:12:18Z</time>
      </trkpt>
      <trkpt lat="41.7101580" lon="2.0588680">
        <ele>639.1</ele>
        <time>2022-09-26T11:12:19Z</time>
      </trkpt>
      <trkpt lat="41.7101740" lon="2.0589500">
        <ele>638.9</ele>
        <time>2022-09-26T11:12:20Z</time>
      </trkpt>
      <trkpt lat="41.7101870" lon="2.0590360">
        <ele>638.7</ele>
        <time>2022-09-26T11:12:21Z</time>
      </trkpt>
      <trkpt lat="41.7101990" lon="2.0591200">
        <ele>638.6</ele>
        <time>2022-09-26T11:12:22Z</time>
      </trkpt>
      <trkpt lat="41.7102070" lon="2.0592020">
        <ele>638.5</ele>
        <time>2022-09-26T11:12:23Z</time>
      </trkpt>
      <trkpt lat="41.7102090" lon="2.0592810">
        <ele>638.5</ele>
        <time>2022-09-26T11:12:24Z</time>
      </trkpt>
      <trkpt lat="41.7102070" lon="2.0593550">
        <ele>638.5</ele>
        <time>2022-09-26T11:12:25Z</time>
      </trkpt>
      <trkpt lat="41.7102030" lon="2.0594270">
        <ele>638.5</ele>
        <time>2022-09-26T11:12:26Z</time>
      </trkpt>
      <trkpt lat="41.7101990" lon="2.0594940">
        <ele>638.6</ele>
        <time>2022-09-26T11:12:27Z</time>
      </trkpt>
      <trkpt lat="41.7101940" lon="2.0595560">
        <ele>638.7</ele>
        <time>2022-09-26T11:12:28Z</time>
      </trkpt>
      <trkpt lat="41.7101860" lon="2.0596130">
        <ele>638.8</ele>
        <time>2022-09-26T11:12:29Z</time>
      </trkpt>
      <trkpt lat="41.7101770" lon="2.0596470">
        <ele>638.8</ele>
        <time>2022-09-26T11:12:30Z</time>
      </trkpt>
      <trkpt lat="41.7101600" lon="2.0597170">
        <ele>638.9</ele>
        <time>2022-09-26T11:12:31Z</time>
      </trkpt>
      <trkpt lat="41.7101360" lon="2.0597780">
        <ele>638.9</ele>
        <time>2022-09-26T11:12:32Z</time>
      </trkpt>
      <trkpt lat="41.7101040" lon="2.0598290">
        <ele>638.9</ele>
        <time>2022-09-26T11:12:33Z</time>
      </trkpt>
      <trkpt lat="41.7100670" lon="2.0598730">
        <ele>639.0</ele>
        <time>2022-09-26T11:12:34Z</time>
      </trkpt>
      <trkpt lat="41.7100250" lon="2.0599170">
        <ele>639.0</ele>
        <time>2022-09-26T11:12:35Z</time>
      </trkpt>
      <trkpt lat="41.7099800" lon="2.0599520">
        <ele>639.1</ele>
        <time>2022-09-26T11:12:36Z</time>
      </trkpt>
      <trkpt lat="41.7099340" lon="2.0599800">
        <ele>639.1</ele>
        <time>2022-09-26T11:12:37Z</time>
      </trkpt>
      <trkpt lat="41.7099040" lon="2.0599890">
        <ele>639.1</ele>
        <time>2022-09-26T11:12:38Z</time>
      </trkpt>
      <trkpt lat="41.7098610" lon="2.0600190">
        <ele>639.2</ele>
        <time>2022-09-26T11:12:39Z</time>
      </trkpt>
      <trkpt lat="41.7098280" lon="2.0600400">
        <ele>639.2</ele>
        <time>2022-09-26T11:12:40Z</time>
      </trkpt>
      <trkpt lat="41.7097920" lon="2.0600680">
        <ele>639.3</ele>
        <time>2022-09-26T11:12:41Z</time>
      </trkpt>
      <trkpt lat="41.7097550" lon="2.0600970">
        <ele>639.3</ele>
        <time>2022-09-26T11:12:42Z</time>
      </trkpt>
      <trkpt lat="41.7097120" lon="2.0601310">
        <ele>639.4</ele>
        <time>2022-09-26T11:12:43Z</time>
      </trkpt>
      <trkpt lat="41.7096660" lon="2.0601670">
        <ele>639.4</ele>
        <time>2022-09-26T11:12:44Z</time>
      </trkpt>
      <trkpt lat="41.7096200" lon="2.0602100">
        <ele>639.5</ele>
        <time>2022-09-26T11:12:45Z</time>
      </trkpt>
      <trkpt lat="41.7095790" lon="2.0602550">
        <ele>639.5</ele>
        <time>2022-09-26T11:12:46Z</time>
      </trkpt>
      <trkpt lat="41.7095400" lon="2.0603010">
        <ele>639.6</ele>
        <time>2022-09-26T11:12:47Z</time>
      </trkpt>
      <trkpt lat="41.7095020" lon="2.0603430">
        <ele>639.7</ele>
        <time>2022-09-26T11:12:48Z</time>
      </trkpt>
      <trkpt lat="41.7094700" lon="2.0603820">
        <ele>639.8</ele>
        <time>2022-09-26T11:12:49Z</time>
      </trkpt>
      <trkpt lat="41.7094420" lon="2.0604070">
        <ele>639.9</ele>
        <time>2022-09-26T11:12:50Z</time>
      </trkpt>
      <trkpt lat="41.7094290" lon="2.0604200">
        <ele>639.9</ele>
        <time>2022-09-26T11:12:51Z</time>
      </trkpt>
      <trkpt lat="41.7093730" lon="2.0604390">
        <ele>640.0</ele>
        <time>2022-09-26T11:12:52Z</time>
      </trkpt>
      <trkpt lat="41.7093350" lon="2.0605030">
        <ele>640.2</ele>
        <time>2022-09-26T11:12:54Z</time>
      </trkpt>
      <trkpt lat="41.7093040" lon="2.0605640">
        <ele>640.3</ele>
        <time>2022-09-26T11:12:55Z</time>
      </trkpt>
      <trkpt lat="41.7092770" lon="2.0606110">
        <ele>640.4</ele>
        <time>2022-09-26T11:12:56Z</time>
      </trkpt>
      <trkpt lat="41.7092560" lon="2.0606420">
        <ele>640.5</ele>
        <time>2022-09-26T11:12:57Z</time>
      </trkpt>
      <trkpt lat="41.7092280" lon="2.0606760">
        <ele>640.6</ele>
        <time>2022-09-26T11:12:58Z</time>
      </trkpt>
      <trkpt lat="41.7092020" lon="2.0607050">
        <ele>640.7</ele>
        <time>2022-09-26T11:12:59Z</time>
      </trkpt>
      <trkpt lat="41.7091800" lon="2.0607290">
        <ele>640.8</ele>
        <time>2022-09-26T11:13:00Z</time>
      </trkpt>
      <trkpt lat="41.7091420" lon="2.0607670">
        <ele>640.9</ele>
        <time>2022-09-26T11:13:02Z</time>
      </trkpt>
      <trkpt lat="41.7091100" lon="2.0608030">
        <ele>640.9</ele>
        <time>2022-09-26T11:13:03Z</time>
      </trkpt>
      <trkpt lat="41.7090730" lon="2.0608480">
        <ele>641.0</ele>
        <time>2022-09-26T11:13:04Z</time>
      </trkpt>
      <trkpt lat="41.7090350" lon="2.0608870">
        <ele>641.0</ele>
        <time>2022-09-26T11:13:05Z</time>
      </trkpt>
      <trkpt lat="41.7090000" lon="2.0609190">
        <ele>641.0</ele>
        <time>2022-09-26T11:13:06Z</time>
      </trkpt>
      <trkpt lat="41.7089130" lon="2.0609780">
        <ele>641.1</ele>
        <time>2022-09-26T11:13:08Z</time>
      </trkpt>
      <trkpt lat="41.7088720" lon="2.0609940">
        <ele>641.1</ele>
        <time>2022-09-26T11:13:09Z</time>
      </trkpt>
      <trkpt lat="41.7088300" lon="2.0610040">
        <ele>641.1</ele>
        <time>2022-09-26T11:13:10Z</time>
      </trkpt>
      <trkpt lat="41.7087930" lon="2.0610000">
        <ele>641.1</ele>
        <time>2022-09-26T11:13:11Z</time>
      </trkpt>
      <trkpt lat="41.7087640" lon="2.0609940">
        <ele>641.0</ele>
        <time>2022-09-26T11:13:12Z</time>
      </trkpt>
      <trkpt lat="41.7087030" lon="2.0609720">
        <ele>640.9</ele>
        <time>2022-09-26T11:13:14Z</time>
      </trkpt>
      <trkpt lat="41.7086590" lon="2.0609460">
        <ele>640.7</ele>
        <time>2022-09-26T11:13:15Z</time>
      </trkpt>
      <trkpt lat="41.7086310" lon="2.0609240">
        <ele>640.6</ele>
        <time>2022-09-26T11:13:16Z</time>
      </trkpt>
      <trkpt lat="41.7085990" lon="2.0608930">
        <ele>640.3</ele>
        <time>2022-09-26T11:13:17Z</time>
      </trkpt>
      <trkpt lat="41.7085660" lon="2.0608680">
        <ele>640.1</ele>
        <time>2022-09-26T11:13:18Z</time>
      </trkpt>
      <trkpt lat="41.7085240" lon="2.0608340">
        <ele>639.8</ele>
        <time>2022-09-26T11:13:19Z</time>
      </trkpt>
      <trkpt lat="41.7084770" lon="2.0607990">
        <ele>639.4</ele>
        <time>2022-09-26T11:13:20Z</time>
      </trkpt>
      <trkpt lat="41.7084220" lon="2.0607590">
        <ele>639.0</ele>
        <time>2022-09-26T11:13:21Z</time>
      </trkpt>
      <trkpt lat="41.7083630" lon="2.0607090">
        <ele>638.6</ele>
        <time>2022-09-26T11:13:22Z</time>
      </trkpt>
      <trkpt lat="41.7083020" lon="2.0606570">
        <ele>638.2</ele>
        <time>2022-09-26T11:13:23Z</time>
      </trkpt>
      <trkpt lat="41.7082420" lon="2.0606050">
        <ele>638.0</ele>
        <time>2022-09-26T11:13:24Z</time>
      </trkpt>
      <trkpt lat="41.7081820" lon="2.0605550">
        <ele>637.8</ele>
        <time>2022-09-26T11:13:25Z</time>
      </trkpt>
      <trkpt lat="41.7081220" lon="2.0605130">
        <ele>637.8</ele>
        <time>2022-09-26T11:13:26Z</time>
      </trkpt>
      <trkpt lat="41.7080690" lon="2.0604800">
        <ele>637.7</ele>
        <time>2022-09-26T11:13:27Z</time>
      </trkpt>
      <trkpt lat="41.7080180" lon="2.0604560">
        <ele>637.7</ele>
        <time>2022-09-26T11:13:28Z</time>
      </trkpt>
      <trkpt lat="41.7079690" lon="2.0604510">
        <ele>637.7</ele>
        <time>2022-09-26T11:13:29Z</time>
      </trkpt>
      <trkpt lat="41.7079220" lon="2.0604560">
        <ele>637.6</ele>
        <time>2022-09-26T11:13:30Z</time>
      </trkpt>
      <trkpt lat="41.7078810" lon="2.0604850">
        <ele>637.5</ele>
        <time>2022-09-26T11:13:31Z</time>
      </trkpt>
      <trkpt lat="41.7078460" lon="2.0605310">
        <ele>637.4</ele>
        <time>2022-09-26T11:13:32Z</time>
      </trkpt>
      <trkpt lat="41.7078200" lon="2.0605910">
        <ele>637.3</ele>
        <time>2022-09-26T11:13:33Z</time>
      </trkpt>
      <trkpt lat="41.7077960" lon="2.0606540">
        <ele>637.1</ele>
        <time>2022-09-26T11:13:34Z</time>
      </trkpt>
      <trkpt lat="41.7077850" lon="2.0607030">
        <ele>637.0</ele>
        <time>2022-09-26T11:13:35Z</time>
      </trkpt>
      <trkpt lat="41.7077600" lon="2.0607490">
        <ele>636.9</ele>
        <time>2022-09-26T11:13:36Z</time>
      </trkpt>
      <trkpt lat="41.7077260" lon="2.0608110">
        <ele>636.8</ele>
        <time>2022-09-26T11:13:37Z</time>
      </trkpt>
      <trkpt lat="41.7077020" lon="2.0608710">
        <ele>636.7</ele>
        <time>2022-09-26T11:13:38Z</time>
      </trkpt>
      <trkpt lat="41.7076890" lon="2.0609230">
        <ele>636.7</ele>
        <time>2022-09-26T11:13:39Z</time>
      </trkpt>
      <trkpt lat="41.7076840" lon="2.0609870">
        <ele>636.8</ele>
        <time>2022-09-26T11:13:40Z</time>
      </trkpt>
      <trkpt lat="41.7076910" lon="2.0610240">
        <ele>636.9</ele>
        <time>2022-09-26T11:13:41Z</time>
      </trkpt>
      <trkpt lat="41.7076960" lon="2.0610460">
        <ele>636.9</ele>
        <time>2022-09-26T11:13:42Z</time>
      </trkpt>
      <trkpt lat="41.7077230" lon="2.0610880">
        <ele>637.0</ele>
        <time>2022-09-26T11:13:43Z</time>
      </trkpt>
      <trkpt lat="41.7077450" lon="2.0611120">
        <ele>637.1</ele>
        <time>2022-09-26T11:13:44Z</time>
      </trkpt>
      <trkpt lat="41.7077740" lon="2.0611390">
        <ele>637.2</ele>
        <time>2022-09-26T11:13:45Z</time>
      </trkpt>
      <trkpt lat="41.7078150" lon="2.0611830">
        <ele>637.4</ele>
        <time>2022-09-26T11:13:47Z</time>
      </trkpt>
      <trkpt lat="41.7078390" lon="2.0612110">
        <ele>637.5</ele>
        <time>2022-09-26T11:13:48Z</time>
      </trkpt>
      <trkpt lat="41.7078650" lon="2.0612570">
        <ele>637.6</ele>
        <time>2022-09-26T11:13:49Z</time>
      </trkpt>
      <trkpt lat="41.7078820" lon="2.0612920">
        <ele>637.7</ele>
        <time>2022-09-26T11:13:50Z</time>
      </trkpt>
      <trkpt lat="41.7079110" lon="2.0613750">
        <ele>637.8</ele>
        <time>2022-09-26T11:13:52Z</time>
      </trkpt>
      <trkpt lat="41.7079210" lon="2.0614250">
        <ele>637.9</ele>
        <time>2022-09-26T11:13:53Z</time>
      </trkpt>
      <trkpt lat="41.7079270" lon="2.0614700">
        <ele>638.0</ele>
        <time>2022-09-26T11:13:54Z</time>
      </trkpt>
      <trkpt lat="41.7079330" lon="2.0615390">
        <ele>638.1</ele>
        <time>2022-09-26T11:13:56Z</time>
      </trkpt>
      <trkpt lat="41.7079370" lon="2.0616000">
        <ele>638.2</ele>
        <time>2022-09-26T11:13:57Z</time>
      </trkpt>
      <trkpt lat="41.7079410" lon="2.0616730">
        <ele>638.3</ele>
        <time>2022-09-26T11:13:58Z</time>
      </trkpt>
      <trkpt lat="41.7079470" lon="2.0617070">
        <ele>638.3</ele>
        <time>2022-09-26T11:13:59Z</time>
      </trkpt>
      <trkpt lat="41.7079540" lon="2.0617390">
        <ele>638.4</ele>
        <time>2022-09-26T11:14:01Z</time>
      </trkpt>
      <trkpt lat="41.7079640" lon="2.0617860">
        <ele>638.4</ele>
        <time>2022-09-26T11:14:02Z</time>
      </trkpt>
      <trkpt lat="41.7079760" lon="2.0618260">
        <ele>638.4</ele>
        <time>2022-09-26T11:14:04Z</time>
      </trkpt>
      <trkpt lat="41.7079900" lon="2.0618670">
        <ele>638.4</ele>
        <time>2022-09-26T11:14:05Z</time>
      </trkpt>
      <trkpt lat="41.7080020" lon="2.0618920">
        <ele>638.3</ele>
        <time>2022-09-26T11:14:06Z</time>
      </trkpt>
      <trkpt lat="41.7080320" lon="2.0619290">
        <ele>638.2</ele>
        <time>2022-09-26T11:14:08Z</time>
      </trkpt>
      <trkpt lat="41.7080530" lon="2.0619610">
        <ele>638.0</ele>
        <time>2022-09-26T11:14:09Z</time>
      </trkpt>
      <trkpt lat="41.7080780" lon="2.0620040">
        <ele>637.8</ele>
        <time>2022-09-26T11:14:10Z</time>
      </trkpt>
      <trkpt lat="41.7080870" lon="2.0620220">
        <ele>637.7</ele>
        <time>2022-09-26T11:14:11Z</time>
      </trkpt>
      <trkpt lat="41.7081310" lon="2.0620760">
        <ele>637.3</ele>
        <time>2022-09-26T11:14:13Z</time>
      </trkpt>
      <trkpt lat="41.7081550" lon="2.0621080">
        <ele>637.0</ele>
        <time>2022-09-26T11:14:14Z</time>
      </trkpt>
      <trkpt lat="41.7081860" lon="2.0621410">
        <ele>636.7</ele>
        <time>2022-09-26T11:14:15Z</time>
      </trkpt>
      <trkpt lat="41.7081960" lon="2.0621510">
        <ele>636.5</ele>
        <time>2022-09-26T11:14:16Z</time>
      </trkpt>
      <trkpt lat="41.7082450" lon="2.0621920">
        <ele>636.0</ele>
        <time>2022-09-26T11:14:17Z</time>
      </trkpt>
      <trkpt lat="41.7082880" lon="2.0622150">
        <ele>635.6</ele>
        <time>2022-09-26T11:14:18Z</time>
      </trkpt>
      <trkpt lat="41.7083190" lon="2.0622200">
        <ele>635.2</ele>
        <time>2022-09-26T11:14:19Z</time>
      </trkpt>
      <trkpt lat="41.7083390" lon="2.0622230">
        <ele>635.0</ele>
        <time>2022-09-26T11:14:20Z</time>
      </trkpt>
      <trkpt lat="41.7083930" lon="2.0622230">
        <ele>634.5</ele>
        <time>2022-09-26T11:14:21Z</time>
      </trkpt>
      <trkpt lat="41.7084410" lon="2.0622130">
        <ele>634.0</ele>
        <time>2022-09-26T11:14:22Z</time>
      </trkpt>
      <trkpt lat="41.7084900" lon="2.0622030">
        <ele>633.5</ele>
        <time>2022-09-26T11:14:23Z</time>
      </trkpt>
      <trkpt lat="41.7085440" lon="2.0621930">
        <ele>633.0</ele>
        <time>2022-09-26T11:14:24Z</time>
      </trkpt>
      <trkpt lat="41.7085980" lon="2.0621880">
        <ele>632.5</ele>
        <time>2022-09-26T11:14:25Z</time>
      </trkpt>
      <trkpt lat="41.7086550" lon="2.0621890">
        <ele>632.0</ele>
        <time>2022-09-26T11:14:26Z</time>
      </trkpt>
      <trkpt lat="41.7087250" lon="2.0621940">
        <ele>631.4</ele>
        <time>2022-09-26T11:14:27Z</time>
      </trkpt>
      <trkpt lat="41.7088040" lon="2.0622080">
        <ele>630.9</ele>
        <time>2022-09-26T11:14:28Z</time>
      </trkpt>
      <trkpt lat="41.7088770" lon="2.0622300">
        <ele>630.5</ele>
        <time>2022-09-26T11:14:29Z</time>
      </trkpt>
      <trkpt lat="41.7089440" lon="2.0622500">
        <ele>630.1</ele>
        <time>2022-09-26T11:14:30Z</time>
      </trkpt>
      <trkpt lat="41.7089960" lon="2.0622530">
        <ele>629.9</ele>
        <time>2022-09-26T11:14:31Z</time>
      </trkpt>
      <trkpt lat="41.7090460" lon="2.0622430">
        <ele>629.6</ele>
        <time>2022-09-26T11:14:32Z</time>
      </trkpt>
      <trkpt lat="41.7090970" lon="2.0622150">
        <ele>629.2</ele>
        <time>2022-09-26T11:14:33Z</time>
      </trkpt>
      <trkpt lat="41.7091500" lon="2.0621760">
        <ele>628.9</ele>
        <time>2022-09-26T11:14:34Z</time>
      </trkpt>
      <trkpt lat="41.7092110" lon="2.0621300">
        <ele>628.5</ele>
        <time>2022-09-26T11:14:35Z</time>
      </trkpt>
      <trkpt lat="41.7092730" lon="2.0620930">
        <ele>628.2</ele>
        <time>2022-09-26T11:14:36Z</time>
      </trkpt>
      <trkpt lat="41.7093370" lon="2.0620700">
        <ele>628.0</ele>
        <time>2022-09-26T11:14:37Z</time>
      </trkpt>
      <trkpt lat="41.7093970" lon="2.0620570">
        <ele>627.7</ele>
        <time>2022-09-26T11:14:38Z</time>
      </trkpt>
      <trkpt lat="41.7094620" lon="2.0620550">
        <ele>627.5</ele>
        <time>2022-09-26T11:14:39Z</time>
      </trkpt>
      <trkpt lat="41.7095210" lon="2.0620580">
        <ele>627.3</ele>
        <time>2022-09-26T11:14:40Z</time>
      </trkpt>
      <trkpt lat="41.7095820" lon="2.0620670">
        <ele>627.1</ele>
        <time>2022-09-26T11:14:41Z</time>
      </trkpt>
      <trkpt lat="41.7096460" lon="2.0620940">
        <ele>627.0</ele>
        <time>2022-09-26T11:14:42Z</time>
      </trkpt>
      <trkpt lat="41.7097090" lon="2.0621340">
        <ele>626.9</ele>
        <time>2022-09-26T11:14:43Z</time>
      </trkpt>
      <trkpt lat="41.7097700" lon="2.0621780">
        <ele>626.9</ele>
        <time>2022-09-26T11:14:44Z</time>
      </trkpt>
      <trkpt lat="41.7098350" lon="2.0622240">
        <ele>627.0</ele>
        <time>2022-09-26T11:14:45Z</time>
      </trkpt>
      <trkpt lat="41.7099040" lon="2.0622710">
        <ele>627.1</ele>
        <time>2022-09-26T11:14:46Z</time>
      </trkpt>
      <trkpt lat="41.7099690" lon="2.0623200">
        <ele>627.3</ele>
        <time>2022-09-26T11:14:47Z</time>
      </trkpt>
      <trkpt lat="41.7100280" lon="2.0623680">
        <ele>627.6</ele>
        <time>2022-09-26T11:14:48Z</time>
      </trkpt>
      <trkpt lat="41.7100770" lon="2.0624200">
        <ele>627.8</ele>
        <time>2022-09-26T11:14:49Z</time>
      </trkpt>
      <trkpt lat="41.7101270" lon="2.0624770">
        <ele>628.1</ele>
        <time>2022-09-26T11:14:50Z</time>
      </trkpt>
      <trkpt lat="41.7101710" lon="2.0625380">
        <ele>628.5</ele>
        <time>2022-09-26T11:14:51Z</time>
      </trkpt>
      <trkpt lat="41.7102030" lon="2.0625910">
        <ele>628.8</ele>
        <time>2022-09-26T11:14:52Z</time>
      </trkpt>
      <trkpt lat="41.7102260" lon="2.0626360">
        <ele>629.2</ele>
        <time>2022-09-26T11:14:53Z</time>
      </trkpt>
      <trkpt lat="41.7102450" lon="2.0626670">
        <ele>629.4</ele>
        <time>2022-09-26T11:14:54Z</time>
      </trkpt>
      <trkpt lat="41.7102700" lon="2.0627080">
        <ele>629.7</ele>
        <time>2022-09-26T11:14:55Z</time>
      </trkpt>
      <trkpt lat="41.7102890" lon="2.0627370">
        <ele>630.0</ele>
        <time>2022-09-26T11:14:56Z</time>
      </trkpt>
      <trkpt lat="41.7103110" lon="2.0627610">
        <ele>630.3</ele>
        <time>2022-09-26T11:14:57Z</time>
      </trkpt>
      <trkpt lat="41.7103390" lon="2.0627900">
        <ele>630.7</ele>
        <time>2022-09-26T11:14:58Z</time>
      </trkpt>
      <trkpt lat="41.7103470" lon="2.0628000">
        <ele>630.8</ele>
        <time>2022-09-26T11:14:59Z</time>
      </trkpt>
      <trkpt lat="41.7103530" lon="2.0628210">
        <ele>631.0</ele>
        <time>2022-09-26T11:15:00Z</time>
      </trkpt>
      <trkpt lat="41.7103610" lon="2.0628530">
        <ele>631.2</ele>
        <time>2022-09-26T11:15:02Z</time>
      </trkpt>
      <trkpt lat="41.7103940" lon="2.0628910">
        <ele>631.7</ele>
        <time>2022-09-26T11:15:03Z</time>
      </trkpt>
      <trkpt lat="41.7104070" lon="2.0629130">
        <ele>631.9</ele>
        <time>2022-09-26T11:15:04Z</time>
      </trkpt>
      <trkpt lat="41.7104150" lon="2.0629290">
        <ele>632.1</ele>
        <time>2022-09-26T11:15:05Z</time>
      </trkpt>
      <trkpt lat="41.7104250" lon="2.0629420">
        <ele>632.2</ele>
        <time>2022-09-26T11:15:06Z</time>
      </trkpt>
      <trkpt lat="41.7104300" lon="2.0629700">
        <ele>632.3</ele>
        <time>2022-09-26T11:15:07Z</time>
      </trkpt>
      <trkpt lat="41.7104370" lon="2.0630120">
        <ele>632.5</ele>
        <time>2022-09-26T11:15:08Z</time>
      </trkpt>
      <trkpt lat="41.7104430" lon="2.0630480">
        <ele>632.7</ele>
        <time>2022-09-26T11:15:09Z</time>
      </trkpt>
      <trkpt lat="41.7104450" lon="2.0630840">
        <ele>632.9</ele>
        <time>2022-09-26T11:15:10Z</time>
      </trkpt>
      <trkpt lat="41.7104410" lon="2.0631240">
        <ele>633.1</ele>
        <time>2022-09-26T11:15:12Z</time>
      </trkpt>
      <trkpt lat="41.7104330" lon="2.0631750">
        <ele>633.4</ele>
        <time>2022-09-26T11:15:13Z</time>
      </trkpt>
      <trkpt lat="41.7104300" lon="2.0631920">
        <ele>633.5</ele>
        <time>2022-09-26T11:15:14Z</time>
      </trkpt>
      <trkpt lat="41.7104190" lon="2.0632540">
        <ele>633.8</ele>
        <time>2022-09-26T11:15:15Z</time>
      </trkpt>
      <trkpt lat="41.7104110" lon="2.0632950">
        <ele>634.1</ele>
        <time>2022-09-26T11:15:16Z</time>
      </trkpt>
      <trkpt lat="41.7104010" lon="2.0633600">
        <ele>634.4</ele>
        <time>2022-09-26T11:15:18Z</time>
      </trkpt>
      <trkpt lat="41.7103950" lon="2.0633870">
        <ele>634.6</ele>
        <time>2022-09-26T11:15:19Z</time>
      </trkpt>
      <trkpt lat="41.7103900" lon="2.0634140">
        <ele>634.7</ele>
        <time>2022-09-26T11:15:20Z</time>
      </trkpt>
      <trkpt lat="41.7103840" lon="2.0634550">
        <ele>634.9</ele>
        <time>2022-09-26T11:15:21Z</time>
      </trkpt>
      <trkpt lat="41.7103830" lon="2.0634690">
        <ele>635.0</ele>
        <time>2022-09-26T11:15:22Z</time>
      </trkpt>
      <trkpt lat="41.7103770" lon="2.0635130">
        <ele>635.2</ele>
        <time>2022-09-26T11:15:23Z</time>
      </trkpt>
      <trkpt lat="41.7103740" lon="2.0635260">
        <ele>635.2</ele>
        <time>2022-09-26T11:15:24Z</time>
      </trkpt>
      <trkpt lat="41.7103650" lon="2.0635650">
        <ele>635.4</ele>
        <time>2022-09-26T11:15:25Z</time>
      </trkpt>
      <trkpt lat="41.7103520" lon="2.0636070">
        <ele>635.5</ele>
        <time>2022-09-26T11:15:26Z</time>
      </trkpt>
      <trkpt lat="41.7103360" lon="2.0636480">
        <ele>635.7</ele>
        <time>2022-09-26T11:15:27Z</time>
      </trkpt>
      <trkpt lat="41.7103160" lon="2.0636990">
        <ele>635.9</ele>
        <time>2022-09-26T11:15:28Z</time>
      </trkpt>
      <trkpt lat="41.7103070" lon="2.0637180">
        <ele>636.0</ele>
        <time>2022-09-26T11:15:29Z</time>
      </trkpt>
      <trkpt lat="41.7102930" lon="2.0637490">
        <ele>636.2</ele>
        <time>2022-09-26T11:15:30Z</time>
      </trkpt>
      <trkpt lat="41.7102750" lon="2.0637860">
        <ele>636.4</ele>
        <time>2022-09-26T11:15:31Z</time>
      </trkpt>
      <trkpt lat="41.7102690" lon="2.0637980">
        <ele>636.5</ele>
        <time>2022-09-26T11:15:32Z</time>
      </trkpt>
      <trkpt lat="41.7102430" lon="2.0638400">
        <ele>636.8</ele>
        <time>2022-09-26T11:15:33Z</time>
      </trkpt>
      <trkpt lat="41.7102340" lon="2.0638550">
        <ele>636.9</ele>
        <time>2022-09-26T11:15:34Z</time>
      </trkpt>
      <trkpt lat="41.7102100" lon="2.0638880">
        <ele>637.2</ele>
        <time>2022-09-26T11:15:35Z</time>
      </trkpt>
      <trkpt lat="41.7102030" lon="2.0638990">
        <ele>637.3</ele>
        <time>2022-09-26T11:15:36Z</time>
      </trkpt>
      <trkpt lat="41.7101790" lon="2.0639320">
        <ele>637.6</ele>
        <time>2022-09-26T11:15:37Z</time>
      </trkpt>
      <trkpt lat="41.7101720" lon="2.0639400">
        <ele>637.6</ele>
        <time>2022-09-26T11:15:38Z</time>
      </trkpt>
      <trkpt lat="41.7101490" lon="2.0639640">
        <ele>637.9</ele>
        <time>2022-09-26T11:15:39Z</time>
      </trkpt>
      <trkpt lat="41.7101400" lon="2.0639740">
        <ele>638.0</ele>
        <time>2022-09-26T11:15:40Z</time>
      </trkpt>
      <trkpt lat="41.7101270" lon="2.0639840">
        <ele>638.2</ele>
        <time>2022-09-26T11:15:41Z</time>
      </trkpt>
      <trkpt lat="41.7101130" lon="2.0639990">
        <ele>638.3</ele>
        <time>2022-09-26T11:15:42Z</time>
      </trkpt>
      <trkpt lat="41.7100980" lon="2.0640150">
        <ele>638.5</ele>
        <time>2022-09-26T11:15:43Z</time>
      </trkpt>
      <trkpt lat="41.7100850" lon="2.0640270">
        <ele>638.6</ele>
        <time>2022-09-26T11:15:44Z</time>
      </trkpt>
      <trkpt lat="41.7100720" lon="2.0640410">
        <ele>638.8</ele>
        <time>2022-09-26T11:15:45Z</time>
      </trkpt>
      <trkpt lat="41.7100580" lon="2.0640560">
        <ele>639.0</ele>
        <time>2022-09-26T11:15:46Z</time>
      </trkpt>
      <trkpt lat="41.7100310" lon="2.0640870">
        <ele>639.3</ele>
        <time>2022-09-26T11:15:47Z</time>
      </trkpt>
      <trkpt lat="41.7100230" lon="2.0640970">
        <ele>639.4</ele>
        <time>2022-09-26T11:15:48Z</time>
      </trkpt>
      <trkpt lat="41.7099970" lon="2.0641270">
        <ele>639.7</ele>
        <time>2022-09-26T11:15:49Z</time>
      </trkpt>
      <trkpt lat="41.7099890" lon="2.0641360">
        <ele>639.8</ele>
        <time>2022-09-26T11:15:50Z</time>
      </trkpt>
      <trkpt lat="41.7099710" lon="2.0641650">
        <ele>640.0</ele>
        <time>2022-09-26T11:15:51Z</time>
      </trkpt>
      <trkpt lat="41.7099640" lon="2.0641770">
        <ele>640.1</ele>
        <time>2022-09-26T11:15:52Z</time>
      </trkpt>
      <trkpt lat="41.7099550" lon="2.0642120">
        <ele>640.3</ele>
        <time>2022-09-26T11:15:53Z</time>
      </trkpt>
      <trkpt lat="41.7099510" lon="2.0642270">
        <ele>640.4</ele>
        <time>2022-09-26T11:15:54Z</time>
      </trkpt>
      <trkpt lat="41.7099420" lon="2.0642700">
        <ele>640.6</ele>
        <time>2022-09-26T11:15:55Z</time>
      </trkpt>
      <trkpt lat="41.7099390" lon="2.0642870">
        <ele>640.7</ele>
        <time>2022-09-26T11:15:56Z</time>
      </trkpt>
      <trkpt lat="41.7099340" lon="2.0643240">
        <ele>640.9</ele>
        <time>2022-09-26T11:15:57Z</time>
      </trkpt>
      <trkpt lat="41.7099260" lon="2.0643600">
        <ele>641.1</ele>
        <time>2022-09-26T11:15:58Z</time>
      </trkpt>
      <trkpt lat="41.7099230" lon="2.0643730">
        <ele>641.1</ele>
        <time>2022-09-26T11:15:59Z</time>
      </trkpt>
      <trkpt lat="41.7099090" lon="2.0644150">
        <ele>641.3</ele>
        <time>2022-09-26T11:16:00Z</time>
      </trkpt>
      <trkpt lat="41.7099040" lon="2.0644260">
        <ele>641.4</ele>
        <time>2022-09-26T11:16:01Z</time>
      </trkpt>
      <trkpt lat="41.7098850" lon="2.0644630">
        <ele>641.5</ele>
        <time>2022-09-26T11:16:02Z</time>
      </trkpt>
      <trkpt lat="41.7098790" lon="2.0644730">
        <ele>641.6</ele>
        <time>2022-09-26T11:16:03Z</time>
      </trkpt>
      <trkpt lat="41.7098530" lon="2.0645060">
        <ele>641.7</ele>
        <time>2022-09-26T11:16:04Z</time>
      </trkpt>
      <trkpt lat="41.7098450" lon="2.0645150">
        <ele>641.8</ele>
        <time>2022-09-26T11:16:05Z</time>
      </trkpt>
      <trkpt lat="41.7098170" lon="2.0645380">
        <ele>641.9</ele>
        <time>2022-09-26T11:16:06Z</time>
      </trkpt>
      <trkpt lat="41.7098090" lon="2.0645440">
        <ele>641.9</ele>
        <time>2022-09-26T11:16:07Z</time>
      </trkpt>
      <trkpt lat="41.7097960" lon="2.0645510">
        <ele>641.9</ele>
        <time>2022-09-26T11:16:08Z</time>
      </trkpt>
      <trkpt lat="41.7097780" lon="2.0645610">
        <ele>641.9</ele>
        <time>2022-09-26T11:16:09Z</time>
      </trkpt>
      <trkpt lat="41.7097600" lon="2.0645720">
        <ele>641.9</ele>
        <time>2022-09-26T11:16:10Z</time>
      </trkpt>
      <trkpt lat="41.7097500" lon="2.0645820">
        <ele>641.9</ele>
        <time>2022-09-26T11:16:11Z</time>
      </trkpt>
      <trkpt lat="41.7097260" lon="2.0646060">
        <ele>641.8</ele>
        <time>2022-09-26T11:16:12Z</time>
      </trkpt>
      <trkpt lat="41.7097190" lon="2.0646120">
        <ele>641.7</ele>
        <time>2022-09-26T11:16:13Z</time>
      </trkpt>
      <trkpt lat="41.7096850" lon="2.0646460">
        <ele>641.5</ele>
        <time>2022-09-26T11:16:14Z</time>
      </trkpt>
      <trkpt lat="41.7096710" lon="2.0646610">
        <ele>641.3</ele>
        <time>2022-09-26T11:16:15Z</time>
      </trkpt>
      <trkpt lat="41.7096430" lon="2.0646900">
        <ele>641.0</ele>
        <time>2022-09-26T11:16:16Z</time>
      </trkpt>
      <trkpt lat="41.7095870" lon="2.0647550">
        <ele>640.2</ele>
        <time>2022-09-26T11:16:17Z</time>
      </trkpt>
      <trkpt lat="41.7095380" lon="2.0648050">
        <ele>639.5</ele>
        <time>2022-09-26T11:16:18Z</time>
      </trkpt>
      <trkpt lat="41.7094950" lon="2.0648480">
        <ele>638.9</ele>
        <time>2022-09-26T11:16:19Z</time>
      </trkpt>
      <trkpt lat="41.7094470" lon="2.0648940">
        <ele>638.2</ele>
        <time>2022-09-26T11:16:20Z</time>
      </trkpt>
      <trkpt lat="41.7093910" lon="2.0649470">
        <ele>637.4</ele>
        <time>2022-09-26T11:16:21Z</time>
      </trkpt>
      <trkpt lat="41.7093250" lon="2.0649860">
        <ele>636.6</ele>
        <time>2022-09-26T11:16:22Z</time>
      </trkpt>
      <trkpt lat="41.7092520" lon="2.0650150">
        <ele>635.8</ele>
        <time>2022-09-26T11:16:23Z</time>
      </trkpt>
      <trkpt lat="41.7091790" lon="2.0650420">
        <ele>635.2</ele>
        <time>2022-09-26T11:16:24Z</time>
      </trkpt>
      <trkpt lat="41.7091100" lon="2.0650730">
        <ele>634.7</ele>
        <time>2022-09-26T11:16:25Z</time>
      </trkpt>
      <trkpt lat="41.7090430" lon="2.0651090">
        <ele>634.2</ele>
        <time>2022-09-26T11:16:26Z</time>
      </trkpt>
      <trkpt lat="41.7089780" lon="2.0651530">
        <ele>633.9</ele>
        <time>2022-09-26T11:16:27Z</time>
      </trkpt>
      <trkpt lat="41.7089160" lon="2.0652160">
        <ele>633.7</ele>
        <time>2022-09-26T11:16:28Z</time>
      </trkpt>
      <trkpt lat="41.7088610" lon="2.0652880">
        <ele>633.6</ele>
        <time>2022-09-26T11:16:29Z</time>
      </trkpt>
      <trkpt lat="41.7088170" lon="2.0653650">
        <ele>633.6</ele>
        <time>2022-09-26T11:16:30Z</time>
      </trkpt>
      <trkpt lat="41.7087890" lon="2.0654420">
        <ele>633.6</ele>
        <time>2022-09-26T11:16:31Z</time>
      </trkpt>
      <trkpt lat="41.7087810" lon="2.0655120">
        <ele>633.7</ele>
        <time>2022-09-26T11:16:32Z</time>
      </trkpt>
      <trkpt lat="41.7087830" lon="2.0655710">
        <ele>633.7</ele>
        <time>2022-09-26T11:16:33Z</time>
      </trkpt>
      <trkpt lat="41.7087980" lon="2.0656110">
        <ele>633.7</ele>
        <time>2022-09-26T11:16:34Z</time>
      </trkpt>
      <trkpt lat="41.7088200" lon="2.0656350">
        <ele>633.7</ele>
        <time>2022-09-26T11:16:35Z</time>
      </trkpt>
      <trkpt lat="41.7088500" lon="2.0656520">
        <ele>633.7</ele>
        <time>2022-09-26T11:16:36Z</time>
      </trkpt>
      <trkpt lat="41.7088900" lon="2.0656690">
        <ele>633.6</ele>
        <time>2022-09-26T11:16:37Z</time>
      </trkpt>
      <trkpt lat="41.7089210" lon="2.0656810">
        <ele>633.6</ele>
        <time>2022-09-26T11:16:38Z</time>
      </trkpt>
      <trkpt lat="41.7089760" lon="2.0656960">
        <ele>633.4</ele>
        <time>2022-09-26T11:16:39Z</time>
      </trkpt>
      <trkpt lat="41.7090200" lon="2.0657210">
        <ele>633.2</ele>
        <time>2022-09-26T11:16:40Z</time>
      </trkpt>
      <trkpt lat="41.7090640" lon="2.0657230">
        <ele>633.0</ele>
        <time>2022-09-26T11:16:41Z</time>
      </trkpt>
      <trkpt lat="41.7091040" lon="2.0657390">
        <ele>632.8</ele>
        <time>2022-09-26T11:16:42Z</time>
      </trkpt>
      <trkpt lat="41.7091550" lon="2.0657230">
        <ele>632.5</ele>
        <time>2022-09-26T11:16:43Z</time>
      </trkpt>
      <trkpt lat="41.7092070" lon="2.0657320">
        <ele>632.3</ele>
        <time>2022-09-26T11:16:44Z</time>
      </trkpt>
      <trkpt lat="41.7092610" lon="2.0657450">
        <ele>632.0</ele>
        <time>2022-09-26T11:16:45Z</time>
      </trkpt>
      <trkpt lat="41.7093190" lon="2.0657560">
        <ele>631.8</ele>
        <time>2022-09-26T11:16:46Z</time>
      </trkpt>
      <trkpt lat="41.7093780" lon="2.0657650">
        <ele>631.5</ele>
        <time>2022-09-26T11:16:47Z</time>
      </trkpt>
      <trkpt lat="41.7094370" lon="2.0657680">
        <ele>631.3</ele>
        <time>2022-09-26T11:16:48Z</time>
      </trkpt>
      <trkpt lat="41.7094920" lon="2.0657710">
        <ele>631.1</ele>
        <time>2022-09-26T11:16:49Z</time>
      </trkpt>
      <trkpt lat="41.7095480" lon="2.0657630">
        <ele>631.0</ele>
        <time>2022-09-26T11:16:50Z</time>
      </trkpt>
      <trkpt lat="41.7096050" lon="2.0657480">
        <ele>630.8</ele>
        <time>2022-09-26T11:16:51Z</time>
      </trkpt>
      <trkpt lat="41.7096620" lon="2.0657210">
        <ele>630.7</ele>
        <time>2022-09-26T11:16:52Z</time>
      </trkpt>
      <trkpt lat="41.7097180" lon="2.0656950">
        <ele>630.7</ele>
        <time>2022-09-26T11:16:53Z</time>
      </trkpt>
      <trkpt lat="41.7097710" lon="2.0656850">
        <ele>630.7</ele>
        <time>2022-09-26T11:16:54Z</time>
      </trkpt>
      <trkpt lat="41.7098200" lon="2.0656930">
        <ele>630.8</ele>
        <time>2022-09-26T11:16:55Z</time>
      </trkpt>
      <trkpt lat="41.7098640" lon="2.0657180">
        <ele>630.9</ele>
        <time>2022-09-26T11:16:56Z</time>
      </trkpt>
      <trkpt lat="41.7098980" lon="2.0657590">
        <ele>631.0</ele>
        <time>2022-09-26T11:16:57Z</time>
      </trkpt>
      <trkpt lat="41.7099260" lon="2.0658090">
        <ele>631.1</ele>
        <time>2022-09-26T11:16:58Z</time>
      </trkpt>
      <trkpt lat="41.7099390" lon="2.0658690">
        <ele>631.3</ele>
        <time>2022-09-26T11:16:59Z</time>
      </trkpt>
      <trkpt lat="41.7099350" lon="2.0659410">
        <ele>631.5</ele>
        <time>2022-09-26T11:17:00Z</time>
      </trkpt>
      <trkpt lat="41.7099220" lon="2.0659990">
        <ele>631.7</ele>
        <time>2022-09-26T11:17:01Z</time>
      </trkpt>
      <trkpt lat="41.7099100" lon="2.0660470">
        <ele>631.9</ele>
        <time>2022-09-26T11:17:02Z</time>
      </trkpt>
      <trkpt lat="41.7099030" lon="2.0661040">
        <ele>632.2</ele>
        <time>2022-09-26T11:17:03Z</time>
      </trkpt>
      <trkpt lat="41.7099020" lon="2.0661260">
        <ele>632.2</ele>
        <time>2022-09-26T11:17:04Z</time>
      </trkpt>
      <trkpt lat="41.7098990" lon="2.0661850">
        <ele>632.5</ele>
        <time>2022-09-26T11:17:05Z</time>
      </trkpt>
      <trkpt lat="41.7098990" lon="2.0662120">
        <ele>632.6</ele>
        <time>2022-09-26T11:17:06Z</time>
      </trkpt>
      <trkpt lat="41.7098980" lon="2.0662090">
        <ele>632.7</ele>
        <time>2022-09-26T11:17:07Z</time>
      </trkpt>
      <trkpt lat="41.7098880" lon="2.0662680">
        <ele>632.9</ele>
        <time>2022-09-26T11:17:09Z</time>
      </trkpt>
      <trkpt lat="41.7098850" lon="2.0663480">
        <ele>633.3</ele>
        <time>2022-09-26T11:17:10Z</time>
      </trkpt>
      <trkpt lat="41.7098770" lon="2.0663910">
        <ele>633.6</ele>
        <time>2022-09-26T11:17:11Z</time>
      </trkpt>
      <trkpt lat="41.7098660" lon="2.0664170">
        <ele>633.7</ele>
        <time>2022-09-26T11:17:12Z</time>
      </trkpt>
      <trkpt lat="41.7098460" lon="2.0664650">
        <ele>634.0</ele>
        <time>2022-09-26T11:17:14Z</time>
      </trkpt>
      <trkpt lat="41.7098300" lon="2.0665080">
        <ele>634.3</ele>
        <time>2022-09-26T11:17:15Z</time>
      </trkpt>
      <trkpt lat="41.7098140" lon="2.0665600">
        <ele>634.6</ele>
        <time>2022-09-26T11:17:17Z</time>
      </trkpt>
      <trkpt lat="41.7097970" lon="2.0665950">
        <ele>634.8</ele>
        <time>2022-09-26T11:17:18Z</time>
      </trkpt>
      <trkpt lat="41.7097790" lon="2.0666360">
        <ele>635.1</ele>
        <time>2022-09-26T11:17:20Z</time>
      </trkpt>
      <trkpt lat="41.7097740" lon="2.0666490">
        <ele>635.2</ele>
        <time>2022-09-26T11:17:21Z</time>
      </trkpt>
      <trkpt lat="41.7097710" lon="2.0666980">
        <ele>635.5</ele>
        <time>2022-09-26T11:17:22Z</time>
      </trkpt>
      <trkpt lat="41.7097720" lon="2.0667200">
        <ele>635.6</ele>
        <time>2022-09-26T11:17:23Z</time>
      </trkpt>
      <trkpt lat="41.7097950" lon="2.0667790">
        <ele>635.9</ele>
        <time>2022-09-26T11:17:25Z</time>
      </trkpt>
      <trkpt lat="41.7098060" lon="2.0667940">
        <ele>636.0</ele>
        <time>2022-09-26T11:17:26Z</time>
      </trkpt>
      <trkpt lat="41.7098170" lon="2.0668090">
        <ele>636.1</ele>
        <time>2022-09-26T11:17:27Z</time>
      </trkpt>
      <trkpt lat="41.7098340" lon="2.0668300">
        <ele>636.2</ele>
        <time>2022-09-26T11:17:28Z</time>
      </trkpt>
      <trkpt lat="41.7098570" lon="2.0668650">
        <ele>636.3</ele>
        <time>2022-09-26T11:17:30Z</time>
      </trkpt>
      <trkpt lat="41.7098850" lon="2.0669050">
        <ele>636.4</ele>
        <time>2022-09-26T11:17:31Z</time>
      </trkpt>
      <trkpt lat="41.7098970" lon="2.0669200">
        <ele>636.4</ele>
        <time>2022-09-26T11:17:32Z</time>
      </trkpt>
      <trkpt lat="41.7099310" lon="2.0669500">
        <ele>636.4</ele>
        <time>2022-09-26T11:17:33Z</time>
      </trkpt>
      <trkpt lat="41.7099490" lon="2.0669630">
        <ele>636.4</ele>
        <time>2022-09-26T11:17:34Z</time>
      </trkpt>
      <trkpt lat="41.7099820" lon="2.0669790">
        <ele>636.4</ele>
        <time>2022-09-26T11:17:35Z</time>
      </trkpt>
      <trkpt lat="41.7100060" lon="2.0669920">
        <ele>636.3</ele>
        <time>2022-09-26T11:17:36Z</time>
      </trkpt>
      <trkpt lat="41.7100710" lon="2.0670270">
        <ele>636.2</ele>
        <time>2022-09-26T11:17:38Z</time>
      </trkpt>
      <trkpt lat="41.7101140" lon="2.0670480">
        <ele>636.1</ele>
        <time>2022-09-26T11:17:39Z</time>
      </trkpt>
      <trkpt lat="41.7101570" lon="2.0670690">
        <ele>636.0</ele>
        <time>2022-09-26T11:17:40Z</time>
      </trkpt>
      <trkpt lat="41.7102000" lon="2.0670920">
        <ele>635.9</ele>
        <time>2022-09-26T11:17:41Z</time>
      </trkpt>
      <trkpt lat="41.7102450" lon="2.0671200">
        <ele>635.8</ele>
        <time>2022-09-26T11:17:43Z</time>
      </trkpt>
      <trkpt lat="41.7102850" lon="2.0671340">
        <ele>635.7</ele>
        <time>2022-09-26T11:17:44Z</time>
      </trkpt>
      <trkpt lat="41.7103220" lon="2.0671450">
        <ele>635.6</ele>
        <time>2022-09-26T11:17:45Z</time>
      </trkpt>
      <trkpt lat="41.7103710" lon="2.0671590">
        <ele>635.5</ele>
        <time>2022-09-26T11:17:46Z</time>
      </trkpt>
      <trkpt lat="41.7104140" lon="2.0671690">
        <ele>635.3</ele>
        <time>2022-09-26T11:17:47Z</time>
      </trkpt>
      <trkpt lat="41.7104680" lon="2.0671760">
        <ele>635.1</ele>
        <time>2022-09-26T11:17:49Z</time>
      </trkpt>
      <trkpt lat="41.7105220" lon="2.0671760">
        <ele>634.8</ele>
        <time>2022-09-26T11:17:50Z</time>
      </trkpt>
      <trkpt lat="41.7105990" lon="2.0671840">
        <ele>634.5</ele>
        <time>2022-09-26T11:17:51Z</time>
      </trkpt>
      <trkpt lat="41.7106520" lon="2.0671940">
        <ele>634.2</ele>
        <time>2022-09-26T11:17:52Z</time>
      </trkpt>
      <trkpt lat="41.7107070" lon="2.0672110">
        <ele>633.9</ele>
        <time>2022-09-26T11:17:53Z</time>
      </trkpt>
      <trkpt lat="41.7107630" lon="2.0672310">
        <ele>633.7</ele>
        <time>2022-09-26T11:17:54Z</time>
      </trkpt>
      <trkpt lat="41.7108190" lon="2.0672570">
        <ele>633.5</ele>
        <time>2022-09-26T11:17:55Z</time>
      </trkpt>
      <trkpt lat="41.7108710" lon="2.0672790">
        <ele>633.3</ele>
        <time>2022-09-26T11:17:56Z</time>
      </trkpt>
      <trkpt lat="41.7109290" lon="2.0672940">
        <ele>633.0</ele>
        <time>2022-09-26T11:17:57Z</time>
      </trkpt>
      <trkpt lat="41.7109920" lon="2.0672990">
        <ele>632.8</ele>
        <time>2022-09-26T11:17:58Z</time>
      </trkpt>
      <trkpt lat="41.7110540" lon="2.0672940">
        <ele>632.6</ele>
        <time>2022-09-26T11:17:59Z</time>
      </trkpt>
      <trkpt lat="41.7111110" lon="2.0672930">
        <ele>632.5</ele>
        <time>2022-09-26T11:18:00Z</time>
      </trkpt>
      <trkpt lat="41.7111520" lon="2.0673130">
        <ele>632.4</ele>
        <time>2022-09-26T11:18:01Z</time>
      </trkpt>
      <trkpt lat="41.7111770" lon="2.0673380">
        <ele>632.4</ele>
        <time>2022-09-26T11:18:02Z</time>
      </trkpt>
      <trkpt lat="41.7111850" lon="2.0673490">
        <ele>632.4</ele>
        <time>2022-09-26T11:18:03Z</time>
      </trkpt>
      <trkpt lat="41.7111990" lon="2.0674490">
        <ele>632.4</ele>
        <time>2022-09-26T11:18:04Z</time>
      </trkpt>
      <trkpt lat="41.7111800" lon="2.0675160">
        <ele>632.4</ele>
        <time>2022-09-26T11:18:05Z</time>
      </trkpt>
      <trkpt lat="41.7111510" lon="2.0675630">
        <ele>632.5</ele>
        <time>2022-09-26T11:18:07Z</time>
      </trkpt>
      <trkpt lat="41.7110980" lon="2.0676070">
        <ele>632.6</ele>
        <time>2022-09-26T11:18:08Z</time>
      </trkpt>
      <trkpt lat="41.7110520" lon="2.0676300">
        <ele>632.6</ele>
        <time>2022-09-26T11:18:09Z</time>
      </trkpt>
      <trkpt lat="41.7109740" lon="2.0676780">
        <ele>632.9</ele>
        <time>2022-09-26T11:18:11Z</time>
      </trkpt>
      <trkpt lat="41.7109490" lon="2.0677020">
        <ele>632.9</ele>
        <time>2022-09-26T11:18:12Z</time>
      </trkpt>
      <trkpt lat="41.7109230" lon="2.0677320">
        <ele>633.0</ele>
        <time>2022-09-26T11:18:13Z</time>
      </trkpt>
      <trkpt lat="41.7108970" lon="2.0677660">
        <ele>633.2</ele>
        <time>2022-09-26T11:18:14Z</time>
      </trkpt>
      <trkpt lat="41.7108740" lon="2.0678010">
        <ele>633.3</ele>
        <time>2022-09-26T11:18:15Z</time>
      </trkpt>
      <trkpt lat="41.7108510" lon="2.0678440">
        <ele>633.4</ele>
        <time>2022-09-26T11:18:16Z</time>
      </trkpt>
      <trkpt lat="41.7108310" lon="2.0679040">
        <ele>633.4</ele>
        <time>2022-09-26T11:18:17Z</time>
      </trkpt>
      <trkpt lat="41.7108230" lon="2.0679470">
        <ele>633.4</ele>
        <time>2022-09-26T11:18:18Z</time>
      </trkpt>
      <trkpt lat="41.7108610" lon="2.0680260">
        <ele>633.5</ele>
        <time>2022-09-26T11:18:20Z</time>
      </trkpt>
      <trkpt lat="41.7109290" lon="2.0680780">
        <ele>633.5</ele>
        <time>2022-09-26T11:18:21Z</time>
      </trkpt>
      <trkpt lat="41.7109580" lon="2.0680850">
        <ele>633.5</ele>
        <time>2022-09-26T11:18:22Z</time>
      </trkpt>
      <trkpt lat="41.7110030" lon="2.0681070">
        <ele>633.6</ele>
        <time>2022-09-26T11:18:23Z</time>
      </trkpt>
      <trkpt lat="41.7110480" lon="2.0681400">
        <ele>633.6</ele>
        <time>2022-09-26T11:18:24Z</time>
      </trkpt>
      <trkpt lat="41.7110870" lon="2.0681800">
        <ele>633.7</ele>
        <time>2022-09-26T11:18:25Z</time>
      </trkpt>
      <trkpt lat="41.7111220" lon="2.0682270">
        <ele>633.8</ele>
        <time>2022-09-26T11:18:26Z</time>
      </trkpt>
      <trkpt lat="41.7111460" lon="2.0682840">
        <ele>633.9</ele>
        <time>2022-09-26T11:18:27Z</time>
      </trkpt>
      <trkpt lat="41.7111620" lon="2.0683470">
        <ele>634.1</ele>
        <time>2022-09-26T11:18:28Z</time>
      </trkpt>
      <trkpt lat="41.7111370" lon="2.0683850">
        <ele>634.3</ele>
        <time>2022-09-26T11:18:29Z</time>
      </trkpt>
      <trkpt lat="41.7111180" lon="2.0684360">
        <ele>634.6</ele>
        <time>2022-09-26T11:18:30Z</time>
      </trkpt>
      <trkpt lat="41.7110950" lon="2.0684830">
        <ele>634.8</ele>
        <time>2022-09-26T11:18:31Z</time>
      </trkpt>
      <trkpt lat="41.7110710" lon="2.0685130">
        <ele>635.0</ele>
        <time>2022-09-26T11:18:32Z</time>
      </trkpt>
      <trkpt lat="41.7110180" lon="2.0685360">
        <ele>635.4</ele>
        <time>2022-09-26T11:18:34Z</time>
      </trkpt>
      <trkpt lat="41.7109590" lon="2.0685740">
        <ele>635.9</ele>
        <time>2022-09-26T11:18:35Z</time>
      </trkpt>
      <trkpt lat="41.7109270" lon="2.0686050">
        <ele>636.1</ele>
        <time>2022-09-26T11:18:36Z</time>
      </trkpt>
      <trkpt lat="41.7109020" lon="2.0686370">
        <ele>636.4</ele>
        <time>2022-09-26T11:18:37Z</time>
      </trkpt>
      <trkpt lat="41.7108810" lon="2.0686760">
        <ele>636.7</ele>
        <time>2022-09-26T11:18:39Z</time>
      </trkpt>
      <trkpt lat="41.7108660" lon="2.0687190">
        <ele>636.9</ele>
        <time>2022-09-26T11:18:40Z</time>
      </trkpt>
      <trkpt lat="41.7108540" lon="2.0687690">
        <ele>637.2</ele>
        <time>2022-09-26T11:18:41Z</time>
      </trkpt>
      <trkpt lat="41.7108480" lon="2.0688080">
        <ele>637.5</ele>
        <time>2022-09-26T11:18:42Z</time>
      </trkpt>
      <trkpt lat="41.7108460" lon="2.0688510">
        <ele>637.7</ele>
        <time>2022-09-26T11:18:43Z</time>
      </trkpt>
      <trkpt lat="41.7108510" lon="2.0688900">
        <ele>638.0</ele>
        <time>2022-09-26T11:18:44Z</time>
      </trkpt>
      <trkpt lat="41.7108580" lon="2.0689330">
        <ele>638.2</ele>
        <time>2022-09-26T11:18:45Z</time>
      </trkpt>
      <trkpt lat="41.7108630" lon="2.0689900">
        <ele>638.6</ele>
        <time>2022-09-26T11:18:46Z</time>
      </trkpt>
      <trkpt lat="41.7108640" lon="2.0690120">
        <ele>638.7</ele>
        <time>2022-09-26T11:18:47Z</time>
      </trkpt>
      <trkpt lat="41.7108580" lon="2.0690680">
        <ele>639.1</ele>
        <time>2022-09-26T11:18:49Z</time>
      </trkpt>
      <trkpt lat="41.7108490" lon="2.0691220">
        <ele>639.4</ele>
        <time>2022-09-26T11:18:50Z</time>
      </trkpt>
      <trkpt lat="41.7108500" lon="2.0691420">
        <ele>639.6</ele>
        <time>2022-09-26T11:18:51Z</time>
      </trkpt>
      <trkpt lat="41.7108600" lon="2.0691780">
        <ele>639.8</ele>
        <time>2022-09-26T11:18:52Z</time>
      </trkpt>
      <trkpt lat="41.7108650" lon="2.0692390">
        <ele>640.2</ele>
        <time>2022-09-26T11:18:54Z</time>
      </trkpt>
      <trkpt lat="41.7108570" lon="2.0692600">
        <ele>640.3</ele>
        <time>2022-09-26T11:18:55Z</time>
      </trkpt>
      <trkpt lat="41.7108490" lon="2.0692810">
        <ele>640.4</ele>
        <time>2022-09-26T11:18:56Z</time>
      </trkpt>
      <trkpt lat="41.7108250" lon="2.0693260">
        <ele>640.8</ele>
        <time>2022-09-26T11:18:58Z</time>
      </trkpt>
      <trkpt lat="41.7108020" lon="2.0693580">
        <ele>641.0</ele>
        <time>2022-09-26T11:18:59Z</time>
      </trkpt>
      <trkpt lat="41.7107800" lon="2.0693780">
        <ele>641.2</ele>
        <time>2022-09-26T11:19:00Z</time>
      </trkpt>
      <trkpt lat="41.7107460" lon="2.0693770">
        <ele>641.4</ele>
        <time>2022-09-26T11:19:02Z</time>
      </trkpt>
      <trkpt lat="41.7107330" lon="2.0693740">
        <ele>641.5</ele>
        <time>2022-09-26T11:19:03Z</time>
      </trkpt>
      <trkpt lat="41.7106920" lon="2.0693490">
        <ele>641.7</ele>
        <time>2022-09-26T11:19:04Z</time>
      </trkpt>
      <trkpt lat="41.7106660" lon="2.0693280">
        <ele>641.9</ele>
        <time>2022-09-26T11:19:05Z</time>
      </trkpt>
      <trkpt lat="41.7106390" lon="2.0693070">
        <ele>642.0</ele>
        <time>2022-09-26T11:19:06Z</time>
      </trkpt>
      <trkpt lat="41.7106110" lon="2.0692780">
        <ele>642.2</ele>
        <time>2022-09-26T11:19:08Z</time>
      </trkpt>
      <trkpt lat="41.7105790" lon="2.0692450">
        <ele>642.5</ele>
        <time>2022-09-26T11:19:09Z</time>
      </trkpt>
      <trkpt lat="41.7105470" lon="2.0692170">
        <ele>642.7</ele>
        <time>2022-09-26T11:19:10Z</time>
      </trkpt>
      <trkpt lat="41.7105160" lon="2.0691910">
        <ele>642.9</ele>
        <time>2022-09-26T11:19:12Z</time>
      </trkpt>
      <trkpt lat="41.7104870" lon="2.0691630">
        <ele>643.2</ele>
        <time>2022-09-26T11:19:13Z</time>
      </trkpt>
      <trkpt lat="41.7104570" lon="2.0691440">
        <ele>643.4</ele>
        <time>2022-09-26T11:19:14Z</time>
      </trkpt>
      <trkpt lat="41.7104210" lon="2.0691240">
        <ele>643.7</ele>
        <time>2022-09-26T11:19:15Z</time>
      </trkpt>
      <trkpt lat="41.7103830" lon="2.0691020">
        <ele>643.9</ele>
        <time>2022-09-26T11:19:16Z</time>
      </trkpt>
      <trkpt lat="41.7103700" lon="2.0690950">
        <ele>644.0</ele>
        <time>2022-09-26T11:19:17Z</time>
      </trkpt>
      <trkpt lat="41.7103240" lon="2.0690890">
        <ele>644.4</ele>
        <time>2022-09-26T11:19:19Z</time>
      </trkpt>
      <trkpt lat="41.7103070" lon="2.0690930">
        <ele>644.5</ele>
        <time>2022-09-26T11:19:20Z</time>
      </trkpt>
      <trkpt lat="41.7102910" lon="2.0690970">
        <ele>644.6</ele>
        <time>2022-09-26T11:19:21Z</time>
      </trkpt>
      <trkpt lat="41.7102580" lon="2.0691080">
        <ele>644.9</ele>
        <time>2022-09-26T11:19:22Z</time>
      </trkpt>
      <trkpt lat="41.7102440" lon="2.0691140">
        <ele>645.0</ele>
        <time>2022-09-26T11:19:23Z</time>
      </trkpt>
      <trkpt lat="41.7102100" lon="2.0691460">
        <ele>645.3</ele>
        <time>2022-09-26T11:19:25Z</time>
      </trkpt>
      <trkpt lat="41.7101970" lon="2.0691580">
        <ele>645.4</ele>
        <time>2022-09-26T11:19:26Z</time>
      </trkpt>
      <trkpt lat="41.7101710" lon="2.0691890">
        <ele>645.7</ele>
        <time>2022-09-26T11:19:27Z</time>
      </trkpt>
      <trkpt lat="41.7101630" lon="2.0691990">
        <ele>645.7</ele>
        <time>2022-09-26T11:19:28Z</time>
      </trkpt>
      <trkpt lat="41.7101440" lon="2.0692290">
        <ele>646.0</ele>
        <time>2022-09-26T11:19:29Z</time>
      </trkpt>
      <trkpt lat="41.7101370" lon="2.0692380">
        <ele>646.0</ele>
        <time>2022-09-26T11:19:30Z</time>
      </trkpt>
      <trkpt lat="41.7101060" lon="2.0692750">
        <ele>646.4</ele>
        <time>2022-09-26T11:19:32Z</time>
      </trkpt>
      <trkpt lat="41.7100950" lon="2.0692880">
        <ele>646.5</ele>
        <time>2022-09-26T11:19:33Z</time>
      </trkpt>
      <trkpt lat="41.7100840" lon="2.0693010">
        <ele>646.6</ele>
        <time>2022-09-26T11:19:34Z</time>
      </trkpt>
      <trkpt lat="41.7100580" lon="2.0693280">
        <ele>646.9</ele>
        <time>2022-09-26T11:19:35Z</time>
      </trkpt>
      <trkpt lat="41.7100480" lon="2.0693370">
        <ele>647.0</ele>
        <time>2022-09-26T11:19:36Z</time>
      </trkpt>
      <trkpt lat="41.7100340" lon="2.0693470">
        <ele>647.1</ele>
        <time>2022-09-26T11:19:37Z</time>
      </trkpt>
      <trkpt lat="41.7100170" lon="2.0693560">
        <ele>647.2</ele>
        <time>2022-09-26T11:19:38Z</time>
      </trkpt>
      <trkpt lat="41.7099910" lon="2.0693680">
        <ele>647.5</ele>
        <time>2022-09-26T11:19:39Z</time>
      </trkpt>
      <trkpt lat="41.7099820" lon="2.0693720">
        <ele>647.6</ele>
        <time>2022-09-26T11:19:40Z</time>
      </trkpt>
      <trkpt lat="41.7099560" lon="2.0693770">
        <ele>647.8</ele>
        <time>2022-09-26T11:19:41Z</time>
      </trkpt>
      <trkpt lat="41.7099450" lon="2.0693780">
        <ele>647.9</ele>
        <time>2022-09-26T11:19:42Z</time>
      </trkpt>
      <trkpt lat="41.7099060" lon="2.0693770">
        <ele>648.2</ele>
        <time>2022-09-26T11:19:44Z</time>
      </trkpt>
      <trkpt lat="41.7098930" lon="2.0693760">
        <ele>648.4</ele>
        <time>2022-09-26T11:19:45Z</time>
      </trkpt>
      <trkpt lat="41.7098620" lon="2.0693700">
        <ele>648.6</ele>
        <time>2022-09-26T11:19:46Z</time>
      </trkpt>
      <trkpt lat="41.7098530" lon="2.0693670">
        <ele>648.7</ele>
        <time>2022-09-26T11:19:47Z</time>
      </trkpt>
      <trkpt lat="41.7098120" lon="2.0693510">
        <ele>649.1</ele>
        <time>2022-09-26T11:19:49Z</time>
      </trkpt>
      <trkpt lat="41.7097960" lon="2.0693500">
        <ele>649.2</ele>
        <time>2022-09-26T11:19:50Z</time>
      </trkpt>
      <trkpt lat="41.7097810" lon="2.0693480">
        <ele>649.4</ele>
        <time>2022-09-26T11:19:51Z</time>
      </trkpt>
      <trkpt lat="41.7097460" lon="2.0693590">
        <ele>649.7</ele>
        <time>2022-09-26T11:19:52Z</time>
      </trkpt>
      <trkpt lat="41.7097360" lon="2.0693640">
        <ele>649.8</ele>
        <time>2022-09-26T11:19:53Z</time>
      </trkpt>
      <trkpt lat="41.7097040" lon="2.0693750">
        <ele>650.1</ele>
        <time>2022-09-26T11:19:54Z</time>
      </trkpt>
      <trkpt lat="41.7096930" lon="2.0693780">
        <ele>650.2</ele>
        <time>2022-09-26T11:19:55Z</time>
      </trkpt>
      <trkpt lat="41.7096730" lon="2.0693870">
        <ele>650.4</ele>
        <time>2022-09-26T11:19:56Z</time>
      </trkpt>
      <trkpt lat="41.7096550" lon="2.0694010">
        <ele>650.6</ele>
        <time>2022-09-26T11:19:58Z</time>
      </trkpt>
      <trkpt lat="41.7096260" lon="2.0694250">
        <ele>650.9</ele>
        <time>2022-09-26T11:19:59Z</time>
      </trkpt>
      <trkpt lat="41.7096120" lon="2.0694350">
        <ele>651.0</ele>
        <time>2022-09-26T11:20:00Z</time>
      </trkpt>
      <trkpt lat="41.7095870" lon="2.0694550">
        <ele>651.3</ele>
        <time>2022-09-26T11:20:01Z</time>
      </trkpt>
      <trkpt lat="41.7095800" lon="2.0694590">
        <ele>651.4</ele>
        <time>2022-09-26T11:20:02Z</time>
      </trkpt>
      <trkpt lat="41.7095520" lon="2.0694800">
        <ele>651.6</ele>
        <time>2022-09-26T11:20:04Z</time>
      </trkpt>
      <trkpt lat="41.7095450" lon="2.0694850">
        <ele>651.7</ele>
        <time>2022-09-26T11:20:05Z</time>
      </trkpt>
      <trkpt lat="41.7095270" lon="2.0695000">
        <ele>651.9</ele>
        <time>2022-09-26T11:20:06Z</time>
      </trkpt>
      <trkpt lat="41.7095100" lon="2.0695130">
        <ele>652.0</ele>
        <time>2022-09-26T11:20:08Z</time>
      </trkpt>
      <trkpt lat="41.7094880" lon="2.0695370">
        <ele>652.3</ele>
        <time>2022-09-26T11:20:09Z</time>
      </trkpt>
      <trkpt lat="41.7094810" lon="2.0695460">
        <ele>652.3</ele>
        <time>2022-09-26T11:20:10Z</time>
      </trkpt>
      <trkpt lat="41.7094630" lon="2.0695730">
        <ele>652.6</ele>
        <time>2022-09-26T11:20:11Z</time>
      </trkpt>
      <trkpt lat="41.7094560" lon="2.0695820">
        <ele>652.7</ele>
        <time>2022-09-26T11:20:12Z</time>
      </trkpt>
      <trkpt lat="41.7094430" lon="2.0695990">
        <ele>652.8</ele>
        <time>2022-09-26T11:20:13Z</time>
      </trkpt>
      <trkpt lat="41.7094250" lon="2.0696220">
        <ele>653.0</ele>
        <time>2022-09-26T11:20:15Z</time>
      </trkpt>
      <trkpt lat="41.7094040" lon="2.0696530">
        <ele>653.3</ele>
        <time>2022-09-26T11:20:16Z</time>
      </trkpt>
      <trkpt lat="41.7093980" lon="2.0696640">
        <ele>653.4</ele>
        <time>2022-09-26T11:20:17Z</time>
      </trkpt>
      <trkpt lat="41.7093770" lon="2.0697030">
        <ele>653.6</ele>
        <time>2022-09-26T11:20:18Z</time>
      </trkpt>
      <trkpt lat="41.7093710" lon="2.0697140">
        <ele>653.7</ele>
        <time>2022-09-26T11:20:19Z</time>
      </trkpt>
      <trkpt lat="41.7093550" lon="2.0697500">
        <ele>654.0</ele>
        <time>2022-09-26T11:20:20Z</time>
      </trkpt>
      <trkpt lat="41.7093470" lon="2.0697690">
        <ele>654.1</ele>
        <time>2022-09-26T11:20:22Z</time>
      </trkpt>
      <trkpt lat="41.7093390" lon="2.0697880">
        <ele>654.2</ele>
        <time>2022-09-26T11:20:23Z</time>
      </trkpt>
      <trkpt lat="41.7093320" lon="2.0698070">
        <ele>654.3</ele>
        <time>2022-09-26T11:20:24Z</time>
      </trkpt>
      <trkpt lat="41.7093200" lon="2.0698460">
        <ele>654.6</ele>
        <time>2022-09-26T11:20:25Z</time>
      </trkpt>
      <trkpt lat="41.7093150" lon="2.0698580">
        <ele>654.6</ele>
        <time>2022-09-26T11:20:26Z</time>
      </trkpt>
      <trkpt lat="41.7093070" lon="2.0698950">
        <ele>654.8</ele>
        <time>2022-09-26T11:20:27Z</time>
      </trkpt>
      <trkpt lat="41.7093050" lon="2.0699080">
        <ele>654.9</ele>
        <time>2022-09-26T11:20:28Z</time>
      </trkpt>
      <trkpt lat="41.7093030" lon="2.0699320">
        <ele>655.0</ele>
        <time>2022-09-26T11:20:29Z</time>
      </trkpt>
      <trkpt lat="41.7093030" lon="2.0699600">
        <ele>655.1</ele>
        <time>2022-09-26T11:20:31Z</time>
      </trkpt>
      <trkpt lat="41.7093020" lon="2.0699980">
        <ele>655.3</ele>
        <time>2022-09-26T11:20:32Z</time>
      </trkpt>
      <trkpt lat="41.7093020" lon="2.0700090">
        <ele>655.3</ele>
        <time>2022-09-26T11:20:33Z</time>
      </trkpt>
      <trkpt lat="41.7093060" lon="2.0700490">
        <ele>655.5</ele>
        <time>2022-09-26T11:20:34Z</time>
      </trkpt>
      <trkpt lat="41.7093080" lon="2.0700650">
        <ele>655.5</ele>
        <time>2022-09-26T11:20:35Z</time>
      </trkpt>
      <trkpt lat="41.7093100" lon="2.0701040">
        <ele>655.7</ele>
        <time>2022-09-26T11:20:36Z</time>
      </trkpt>
      <trkpt lat="41.7093190" lon="2.0701420">
        <ele>655.8</ele>
        <time>2022-09-26T11:20:38Z</time>
      </trkpt>
      <trkpt lat="41.7093220" lon="2.0701550">
        <ele>655.8</ele>
        <time>2022-09-26T11:20:39Z</time>
      </trkpt>
      <trkpt lat="41.7093330" lon="2.0701890">
        <ele>655.9</ele>
        <time>2022-09-26T11:20:40Z</time>
      </trkpt>
      <trkpt lat="41.7093580" lon="2.0702220">
        <ele>656.0</ele>
        <time>2022-09-26T11:20:41Z</time>
      </trkpt>
      <trkpt lat="41.7093730" lon="2.0702410">
        <ele>656.0</ele>
        <time>2022-09-26T11:20:42Z</time>
      </trkpt>
      <trkpt lat="41.7093950" lon="2.0702760">
        <ele>656.1</ele>
        <time>2022-09-26T11:20:44Z</time>
      </trkpt>
      <trkpt lat="41.7094210" lon="2.0703120">
        <ele>656.2</ele>
        <time>2022-09-26T11:20:46Z</time>
      </trkpt>
      <trkpt lat="41.7094460" lon="2.0703460">
        <ele>656.2</ele>
        <time>2022-09-26T11:20:47Z</time>
      </trkpt>
      <trkpt lat="41.7094520" lon="2.0703550">
        <ele>656.2</ele>
        <time>2022-09-26T11:20:48Z</time>
      </trkpt>
      <trkpt lat="41.7094700" lon="2.0703790">
        <ele>656.3</ele>
        <time>2022-09-26T11:20:49Z</time>
      </trkpt>
      <trkpt lat="41.7094900" lon="2.0704040">
        <ele>656.3</ele>
        <time>2022-09-26T11:20:51Z</time>
      </trkpt>
      <trkpt lat="41.7095140" lon="2.0704450">
        <ele>656.4</ele>
        <time>2022-09-26T11:20:52Z</time>
      </trkpt>
      <trkpt lat="41.7095220" lon="2.0704590">
        <ele>656.4</ele>
        <time>2022-09-26T11:20:53Z</time>
      </trkpt>
      <trkpt lat="41.7095370" lon="2.0704890">
        <ele>656.4</ele>
        <time>2022-09-26T11:20:54Z</time>
      </trkpt>
      <trkpt lat="41.7095590" lon="2.0705260">
        <ele>656.5</ele>
        <time>2022-09-26T11:20:55Z</time>
      </trkpt>
      <trkpt lat="41.7095650" lon="2.0705340">
        <ele>656.5</ele>
        <time>2022-09-26T11:20:56Z</time>
      </trkpt>
      <trkpt lat="41.7095890" lon="2.0705720">
        <ele>656.6</ele>
        <time>2022-09-26T11:20:58Z</time>
      </trkpt>
      <trkpt lat="41.7096080" lon="2.0706010">
        <ele>656.6</ele>
        <time>2022-09-26T11:20:59Z</time>
      </trkpt>
      <trkpt lat="41.7096340" lon="2.0706380">
        <ele>656.7</ele>
        <time>2022-09-26T11:21:00Z</time>
      </trkpt>
      <trkpt lat="41.7096530" lon="2.0706670">
        <ele>656.7</ele>
        <time>2022-09-26T11:21:02Z</time>
      </trkpt>
      <trkpt lat="41.7096740" lon="2.0706980">
        <ele>656.8</ele>
        <time>2022-09-26T11:21:03Z</time>
      </trkpt>
      <trkpt lat="41.7096930" lon="2.0707340">
        <ele>656.9</ele>
        <time>2022-09-26T11:21:04Z</time>
      </trkpt>
      <trkpt lat="41.7097130" lon="2.0707660">
        <ele>656.9</ele>
        <time>2022-09-26T11:21:05Z</time>
      </trkpt>
      <trkpt lat="41.7097380" lon="2.0708040">
        <ele>657.0</ele>
        <time>2022-09-26T11:21:06Z</time>
      </trkpt>
      <trkpt lat="41.7097450" lon="2.0708170">
        <ele>657.1</ele>
        <time>2022-09-26T11:21:07Z</time>
      </trkpt>
      <trkpt lat="41.7097690" lon="2.0708530">
        <ele>657.1</ele>
        <time>2022-09-26T11:21:08Z</time>
      </trkpt>
      <trkpt lat="41.7097790" lon="2.0708670">
        <ele>657.2</ele>
        <time>2022-09-26T11:21:09Z</time>
      </trkpt>
      <trkpt lat="41.7097990" lon="2.0708980">
        <ele>657.3</ele>
        <time>2022-09-26T11:21:10Z</time>
      </trkpt>
      <trkpt lat="41.7098240" lon="2.0709430">
        <ele>657.4</ele>
        <time>2022-09-26T11:21:12Z</time>
      </trkpt>
      <trkpt lat="41.7098460" lon="2.0709850">
        <ele>657.5</ele>
        <time>2022-09-26T11:21:13Z</time>
      </trkpt>
      <trkpt lat="41.7098610" lon="2.0710160">
        <ele>657.6</ele>
        <time>2022-09-26T11:21:14Z</time>
      </trkpt>
      <trkpt lat="41.7098800" lon="2.0710570">
        <ele>657.8</ele>
        <time>2022-09-26T11:21:15Z</time>
      </trkpt>
      <trkpt lat="41.7098870" lon="2.0710720">
        <ele>657.8</ele>
        <time>2022-09-26T11:21:16Z</time>
      </trkpt>
      <trkpt lat="41.7099020" lon="2.0711060">
        <ele>658.0</ele>
        <time>2022-09-26T11:21:17Z</time>
      </trkpt>
      <trkpt lat="41.7099130" lon="2.0711420">
        <ele>658.1</ele>
        <time>2022-09-26T11:21:18Z</time>
      </trkpt>
      <trkpt lat="41.7099270" lon="2.0711850">
        <ele>658.3</ele>
        <time>2022-09-26T11:21:20Z</time>
      </trkpt>
      <trkpt lat="41.7099410" lon="2.0712420">
        <ele>658.6</ele>
        <time>2022-09-26T11:21:21Z</time>
      </trkpt>
      <trkpt lat="41.7099530" lon="2.0712880">
        <ele>658.8</ele>
        <time>2022-09-26T11:21:22Z</time>
      </trkpt>
      <trkpt lat="41.7099620" lon="2.0713300">
        <ele>659.1</ele>
        <time>2022-09-26T11:21:23Z</time>
      </trkpt>
      <trkpt lat="41.7099620" lon="2.0713810">
        <ele>659.4</ele>
        <time>2022-09-26T11:21:24Z</time>
      </trkpt>
      <trkpt lat="41.7099600" lon="2.0713960">
        <ele>659.6</ele>
        <time>2022-09-26T11:21:25Z</time>
      </trkpt>
      <trkpt lat="41.7099540" lon="2.0714490">
        <ele>659.9</ele>
        <time>2022-09-26T11:21:27Z</time>
      </trkpt>
      <trkpt lat="41.7099520" lon="2.0714660">
        <ele>660.1</ele>
        <time>2022-09-26T11:21:28Z</time>
      </trkpt>
      <trkpt lat="41.7099500" lon="2.0714820">
        <ele>660.2</ele>
        <time>2022-09-26T11:21:29Z</time>
      </trkpt>
      <trkpt lat="41.7099470" lon="2.0715060">
        <ele>660.4</ele>
        <time>2022-09-26T11:21:30Z</time>
      </trkpt>
      <trkpt lat="41.7099450" lon="2.0715300">
        <ele>660.6</ele>
        <time>2022-09-26T11:21:32Z</time>
      </trkpt>
      <trkpt lat="41.7099320" lon="2.0715660">
        <ele>660.9</ele>
        <time>2022-09-26T11:21:33Z</time>
      </trkpt>
      <trkpt lat="41.7099270" lon="2.0715770">
        <ele>661.0</ele>
        <time>2022-09-26T11:21:34Z</time>
      </trkpt>
      <trkpt lat="41.7099130" lon="2.0716100">
        <ele>661.3</ele>
        <time>2022-09-26T11:21:35Z</time>
      </trkpt>
      <trkpt lat="41.7099100" lon="2.0716210">
        <ele>661.4</ele>
        <time>2022-09-26T11:21:36Z</time>
      </trkpt>
      <trkpt lat="41.7098980" lon="2.0716590">
        <ele>661.7</ele>
        <time>2022-09-26T11:21:37Z</time>
      </trkpt>
      <trkpt lat="41.7098930" lon="2.0716680">
        <ele>661.8</ele>
        <time>2022-09-26T11:21:38Z</time>
      </trkpt>
      <trkpt lat="41.7098750" lon="2.0716960">
        <ele>662.1</ele>
        <time>2022-09-26T11:21:39Z</time>
      </trkpt>
      <trkpt lat="41.7098690" lon="2.0717080">
        <ele>662.2</ele>
        <time>2022-09-26T11:21:40Z</time>
      </trkpt>
      <trkpt lat="41.7098580" lon="2.0717370">
        <ele>662.4</ele>
        <time>2022-09-26T11:21:41Z</time>
      </trkpt>
      <trkpt lat="41.7098420" lon="2.0717810">
        <ele>662.8</ele>
        <time>2022-09-26T11:21:43Z</time>
      </trkpt>
      <trkpt lat="41.7098300" lon="2.0718160">
        <ele>663.1</ele>
        <time>2022-09-26T11:21:44Z</time>
      </trkpt>
      <trkpt lat="41.7098180" lon="2.0718600">
        <ele>663.5</ele>
        <time>2022-09-26T11:21:45Z</time>
      </trkpt>
      <trkpt lat="41.7098160" lon="2.0718710">
        <ele>663.6</ele>
        <time>2022-09-26T11:21:46Z</time>
      </trkpt>
      <trkpt lat="41.7098070" lon="2.0719300">
        <ele>664.1</ele>
        <time>2022-09-26T11:21:48Z</time>
      </trkpt>
      <trkpt lat="41.7098020" lon="2.0719510">
        <ele>664.2</ele>
        <time>2022-09-26T11:21:49Z</time>
      </trkpt>
      <trkpt lat="41.7097980" lon="2.0719720">
        <ele>664.4</ele>
        <time>2022-09-26T11:21:50Z</time>
      </trkpt>
      <trkpt lat="41.7097850" lon="2.0720050">
        <ele>664.7</ele>
        <time>2022-09-26T11:21:51Z</time>
      </trkpt>
      <trkpt lat="41.7097800" lon="2.0720140">
        <ele>664.7</ele>
        <time>2022-09-26T11:21:52Z</time>
      </trkpt>
      <trkpt lat="41.7097590" lon="2.0720460">
        <ele>665.0</ele>
        <time>2022-09-26T11:21:54Z</time>
      </trkpt>
      <trkpt lat="41.7097510" lon="2.0720560">
        <ele>665.1</ele>
        <time>2022-09-26T11:21:55Z</time>
      </trkpt>
      <trkpt lat="41.7097250" lon="2.0720710">
        <ele>665.3</ele>
        <time>2022-09-26T11:21:56Z</time>
      </trkpt>
      <trkpt lat="41.7097150" lon="2.0720730">
        <ele>665.4</ele>
        <time>2022-09-26T11:21:57Z</time>
      </trkpt>
      <trkpt lat="41.7096960" lon="2.0720790">
        <ele>665.6</ele>
        <time>2022-09-26T11:21:58Z</time>
      </trkpt>
      <trkpt lat="41.7096800" lon="2.0720790">
        <ele>665.7</ele>
        <time>2022-09-26T11:21:59Z</time>
      </trkpt>
      <trkpt lat="41.7096510" lon="2.0720760">
        <ele>665.9</ele>
        <time>2022-09-26T11:22:00Z</time>
      </trkpt>
      <trkpt lat="41.7096420" lon="2.0720750">
        <ele>666.0</ele>
        <time>2022-09-26T11:22:01Z</time>
      </trkpt>
      <trkpt lat="41.7096130" lon="2.0720640">
        <ele>666.2</ele>
        <time>2022-09-26T11:22:02Z</time>
      </trkpt>
      <trkpt lat="41.7096030" lon="2.0720580">
        <ele>666.3</ele>
        <time>2022-09-26T11:22:03Z</time>
      </trkpt>
      <trkpt lat="41.7095880" lon="2.0720510">
        <ele>666.4</ele>
        <time>2022-09-26T11:22:04Z</time>
      </trkpt>
      <trkpt lat="41.7095570" lon="2.0720420">
        <ele>666.6</ele>
        <time>2022-09-26T11:22:06Z</time>
      </trkpt>
      <trkpt lat="41.7095300" lon="2.0720330">
        <ele>666.8</ele>
        <time>2022-09-26T11:22:07Z</time>
      </trkpt>
      <trkpt lat="41.7094960" lon="2.0720190">
        <ele>667.1</ele>
        <time>2022-09-26T11:22:08Z</time>
      </trkpt>
      <trkpt lat="41.7094880" lon="2.0720150">
        <ele>667.1</ele>
        <time>2022-09-26T11:22:09Z</time>
      </trkpt>
      <trkpt lat="41.7094600" lon="2.0719970">
        <ele>667.3</ele>
        <time>2022-09-26T11:22:10Z</time>
      </trkpt>
      <trkpt lat="41.7094510" lon="2.0719910">
        <ele>667.4</ele>
        <time>2022-09-26T11:22:11Z</time>
      </trkpt>
      <trkpt lat="41.7094250" lon="2.0719730">
        <ele>667.6</ele>
        <time>2022-09-26T11:22:12Z</time>
      </trkpt>
      <trkpt lat="41.7094000" lon="2.0719560">
        <ele>667.8</ele>
        <time>2022-09-26T11:22:13Z</time>
      </trkpt>
      <trkpt lat="41.7093710" lon="2.0719370">
        <ele>668.0</ele>
        <time>2022-09-26T11:22:15Z</time>
      </trkpt>
      <trkpt lat="41.7093400" lon="2.0719120">
        <ele>668.3</ele>
        <time>2022-09-26T11:22:16Z</time>
      </trkpt>
      <trkpt lat="41.7093080" lon="2.0718960">
        <ele>668.6</ele>
        <time>2022-09-26T11:22:17Z</time>
      </trkpt>
      <trkpt lat="41.7092800" lon="2.0718870">
        <ele>668.8</ele>
        <time>2022-09-26T11:22:18Z</time>
      </trkpt>
      <trkpt lat="41.7092690" lon="2.0718880">
        <ele>668.8</ele>
        <time>2022-09-26T11:22:19Z</time>
      </trkpt>
      <trkpt lat="41.7092430" lon="2.0719170">
        <ele>669.1</ele>
        <time>2022-09-26T11:22:20Z</time>
      </trkpt>
      <trkpt lat="41.7092370" lon="2.0719310">
        <ele>669.1</ele>
        <time>2022-09-26T11:22:21Z</time>
      </trkpt>
      <trkpt lat="41.7092380" lon="2.0719780">
        <ele>669.3</ele>
        <time>2022-09-26T11:22:22Z</time>
      </trkpt>
      <trkpt lat="41.7092410" lon="2.0719910">
        <ele>669.4</ele>
        <time>2022-09-26T11:22:23Z</time>
      </trkpt>
      <trkpt lat="41.7092670" lon="2.0720230">
        <ele>669.5</ele>
        <time>2022-09-26T11:22:25Z</time>
      </trkpt>
      <trkpt lat="41.7092760" lon="2.0720300">
        <ele>669.5</ele>
        <time>2022-09-26T11:22:26Z</time>
      </trkpt>
      <trkpt lat="41.7092850" lon="2.0720400">
        <ele>669.5</ele>
        <time>2022-09-26T11:22:27Z</time>
      </trkpt>
      <trkpt lat="41.7093010" lon="2.0720550">
        <ele>669.6</ele>
        <time>2022-09-26T11:22:28Z</time>
      </trkpt>
      <trkpt lat="41.7093130" lon="2.0720680">
        <ele>669.6</ele>
        <time>2022-09-26T11:22:29Z</time>
      </trkpt>
      <trkpt lat="41.7093290" lon="2.0720830">
        <ele>669.6</ele>
        <time>2022-09-26T11:22:31Z</time>
      </trkpt>
      <trkpt lat="41.7093450" lon="2.0721090">
        <ele>669.6</ele>
        <time>2022-09-26T11:22:32Z</time>
      </trkpt>
      <trkpt lat="41.7093480" lon="2.0721490">
        <ele>669.6</ele>
        <time>2022-09-26T11:22:34Z</time>
      </trkpt>
      <trkpt lat="41.7093460" lon="2.0721710">
        <ele>669.6</ele>
        <time>2022-09-26T11:22:35Z</time>
      </trkpt>
      <trkpt lat="41.7093450" lon="2.0721970">
        <ele>669.5</ele>
        <time>2022-09-26T11:22:36Z</time>
      </trkpt>
      <trkpt lat="41.7093360" lon="2.0722400">
        <ele>669.4</ele>
        <time>2022-09-26T11:22:37Z</time>
      </trkpt>
      <trkpt lat="41.7093320" lon="2.0722560">
        <ele>669.4</ele>
        <time>2022-09-26T11:22:38Z</time>
      </trkpt>
      <trkpt lat="41.7093210" lon="2.0723060">
        <ele>669.2</ele>
        <time>2022-09-26T11:22:39Z</time>
      </trkpt>
      <trkpt lat="41.7093160" lon="2.0723220">
        <ele>669.2</ele>
        <time>2022-09-26T11:22:40Z</time>
      </trkpt>
      <trkpt lat="41.7093090" lon="2.0723450">
        <ele>669.1</ele>
        <time>2022-09-26T11:22:41Z</time>
      </trkpt>
      <trkpt lat="41.7092970" lon="2.0723630">
        <ele>669.0</ele>
        <time>2022-09-26T11:22:42Z</time>
      </trkpt>
      <trkpt lat="41.7092720" lon="2.0724280">
        <ele>668.8</ele>
        <time>2022-09-26T11:22:43Z</time>
      </trkpt>
      <trkpt lat="41.7092410" lon="2.0724960">
        <ele>668.6</ele>
        <time>2022-09-26T11:22:44Z</time>
      </trkpt>
      <trkpt lat="41.7092050" lon="2.0725760">
        <ele>668.5</ele>
        <time>2022-09-26T11:22:45Z</time>
      </trkpt>
      <trkpt lat="41.7091630" lon="2.0726560">
        <ele>668.6</ele>
        <time>2022-09-26T11:22:46Z</time>
      </trkpt>
      <trkpt lat="41.7091260" lon="2.0727310">
        <ele>668.8</ele>
        <time>2022-09-26T11:22:47Z</time>
      </trkpt>
      <trkpt lat="41.7091010" lon="2.0727970">
        <ele>669.1</ele>
        <time>2022-09-26T11:22:48Z</time>
      </trkpt>
      <trkpt lat="41.7090860" lon="2.0728540">
        <ele>669.3</ele>
        <time>2022-09-26T11:22:49Z</time>
      </trkpt>
      <trkpt lat="41.7090740" lon="2.0729090">
        <ele>669.5</ele>
        <time>2022-09-26T11:22:50Z</time>
      </trkpt>
      <trkpt lat="41.7090710" lon="2.0729340">
        <ele>669.6</ele>
        <time>2022-09-26T11:22:51Z</time>
      </trkpt>
      <trkpt lat="41.7090670" lon="2.0729860">
        <ele>669.7</ele>
        <time>2022-09-26T11:22:52Z</time>
      </trkpt>
      <trkpt lat="41.7090720" lon="2.0730330">
        <ele>669.8</ele>
        <time>2022-09-26T11:22:53Z</time>
      </trkpt>
      <trkpt lat="41.7090760" lon="2.0730460">
        <ele>669.9</ele>
        <time>2022-09-26T11:22:54Z</time>
      </trkpt>
      <trkpt lat="41.7091020" lon="2.0730870">
        <ele>670.0</ele>
        <time>2022-09-26T11:22:56Z</time>
      </trkpt>
      <trkpt lat="41.7091250" lon="2.0731120">
        <ele>670.0</ele>
        <time>2022-09-26T11:22:57Z</time>
      </trkpt>
      <trkpt lat="41.7091470" lon="2.0731440">
        <ele>670.1</ele>
        <time>2022-09-26T11:22:58Z</time>
      </trkpt>
      <trkpt lat="41.7091660" lon="2.0731900">
        <ele>670.2</ele>
        <time>2022-09-26T11:22:59Z</time>
      </trkpt>
      <trkpt lat="41.7091930" lon="2.0732320">
        <ele>670.2</ele>
        <time>2022-09-26T11:23:01Z</time>
      </trkpt>
      <trkpt lat="41.7092190" lon="2.0732760">
        <ele>670.2</ele>
        <time>2022-09-26T11:23:02Z</time>
      </trkpt>
      <trkpt lat="41.7092310" lon="2.0732940">
        <ele>670.3</ele>
        <time>2022-09-26T11:23:03Z</time>
      </trkpt>
      <trkpt lat="41.7092470" lon="2.0733280">
        <ele>670.3</ele>
        <time>2022-09-26T11:23:04Z</time>
      </trkpt>
      <trkpt lat="41.7092640" lon="2.0733700">
        <ele>670.2</ele>
        <time>2022-09-26T11:23:05Z</time>
      </trkpt>
      <trkpt lat="41.7092680" lon="2.0733820">
        <ele>670.2</ele>
        <time>2022-09-26T11:23:06Z</time>
      </trkpt>
      <trkpt lat="41.7092830" lon="2.0734330">
        <ele>670.2</ele>
        <time>2022-09-26T11:23:08Z</time>
      </trkpt>
      <trkpt lat="41.7092920" lon="2.0734760">
        <ele>670.1</ele>
        <time>2022-09-26T11:23:09Z</time>
      </trkpt>
      <trkpt lat="41.7092880" lon="2.0735280">
        <ele>670.1</ele>
        <time>2022-09-26T11:23:10Z</time>
      </trkpt>
      <trkpt lat="41.7092820" lon="2.0735690">
        <ele>670.0</ele>
        <time>2022-09-26T11:23:12Z</time>
      </trkpt>
      <trkpt lat="41.7092770" lon="2.0736110">
        <ele>669.8</ele>
        <time>2022-09-26T11:23:13Z</time>
      </trkpt>
      <trkpt lat="41.7092620" lon="2.0736590">
        <ele>669.6</ele>
        <time>2022-09-26T11:23:14Z</time>
      </trkpt>
      <trkpt lat="41.7092490" lon="2.0736990">
        <ele>669.5</ele>
        <time>2022-09-26T11:23:15Z</time>
      </trkpt>
      <trkpt lat="41.7092380" lon="2.0737460">
        <ele>669.3</ele>
        <time>2022-09-26T11:23:16Z</time>
      </trkpt>
      <trkpt lat="41.7092360" lon="2.0737830">
        <ele>669.1</ele>
        <time>2022-09-26T11:23:17Z</time>
      </trkpt>
      <trkpt lat="41.7092400" lon="2.0738650">
        <ele>668.7</ele>
        <time>2022-09-26T11:23:19Z</time>
      </trkpt>
      <trkpt lat="41.7092260" lon="2.0739640">
        <ele>668.3</ele>
        <time>2022-09-26T11:23:20Z</time>
      </trkpt>
      <trkpt lat="41.7092010" lon="2.0740260">
        <ele>668.0</ele>
        <time>2022-09-26T11:23:21Z</time>
      </trkpt>
      <trkpt lat="41.7091690" lon="2.0740570">
        <ele>667.8</ele>
        <time>2022-09-26T11:23:22Z</time>
      </trkpt>
      <trkpt lat="41.7091500" lon="2.0740780">
        <ele>667.6</ele>
        <time>2022-09-26T11:23:23Z</time>
      </trkpt>
      <trkpt lat="41.7091010" lon="2.0740910">
        <ele>667.4</ele>
        <time>2022-09-26T11:23:24Z</time>
      </trkpt>
      <trkpt lat="41.7090360" lon="2.0741020">
        <ele>667.0</ele>
        <time>2022-09-26T11:23:25Z</time>
      </trkpt>
      <trkpt lat="41.7089680" lon="2.0741170">
        <ele>666.8</ele>
        <time>2022-09-26T11:23:26Z</time>
      </trkpt>
      <trkpt lat="41.7089010" lon="2.0741240">
        <ele>666.6</ele>
        <time>2022-09-26T11:23:27Z</time>
      </trkpt>
      <trkpt lat="41.7088370" lon="2.0741120">
        <ele>666.5</ele>
        <time>2022-09-26T11:23:28Z</time>
      </trkpt>
      <trkpt lat="41.7087750" lon="2.0740790">
        <ele>666.5</ele>
        <time>2022-09-26T11:23:29Z</time>
      </trkpt>
      <trkpt lat="41.7087230" lon="2.0740370">
        <ele>666.4</ele>
        <time>2022-09-26T11:23:30Z</time>
      </trkpt>
      <trkpt lat="41.7086860" lon="2.0739930">
        <ele>666.3</ele>
        <time>2022-09-26T11:23:31Z</time>
      </trkpt>
      <trkpt lat="41.7086600" lon="2.0739520">
        <ele>666.1</ele>
        <time>2022-09-26T11:23:32Z</time>
      </trkpt>
      <trkpt lat="41.7086370" lon="2.0739280">
        <ele>666.0</ele>
        <time>2022-09-26T11:23:33Z</time>
      </trkpt>
      <trkpt lat="41.7086180" lon="2.0739090">
        <ele>665.9</ele>
        <time>2022-09-26T11:23:34Z</time>
      </trkpt>
      <trkpt lat="41.7085650" lon="2.0738470">
        <ele>665.5</ele>
        <time>2022-09-26T11:23:35Z</time>
      </trkpt>
      <trkpt lat="41.7085180" lon="2.0738200">
        <ele>665.1</ele>
        <time>2022-09-26T11:23:36Z</time>
      </trkpt>
      <trkpt lat="41.7084620" lon="2.0738090">
        <ele>664.7</ele>
        <time>2022-09-26T11:23:37Z</time>
      </trkpt>
      <trkpt lat="41.7084020" lon="2.0738120">
        <ele>664.3</ele>
        <time>2022-09-26T11:23:38Z</time>
      </trkpt>
      <trkpt lat="41.7083370" lon="2.0738300">
        <ele>664.0</ele>
        <time>2022-09-26T11:23:39Z</time>
      </trkpt>
      <trkpt lat="41.7082710" lon="2.0738540">
        <ele>663.8</ele>
        <time>2022-09-26T11:23:40Z</time>
      </trkpt>
      <trkpt lat="41.7082050" lon="2.0738560">
        <ele>663.6</ele>
        <time>2022-09-26T11:23:41Z</time>
      </trkpt>
      <trkpt lat="41.7081390" lon="2.0738350">
        <ele>663.4</ele>
        <time>2022-09-26T11:23:42Z</time>
      </trkpt>
      <trkpt lat="41.7080760" lon="2.0737960">
        <ele>663.2</ele>
        <time>2022-09-26T11:23:43Z</time>
      </trkpt>
      <trkpt lat="41.7080160" lon="2.0737530">
        <ele>663.0</ele>
        <time>2022-09-26T11:23:44Z</time>
      </trkpt>
      <trkpt lat="41.7079760" lon="2.0736980">
        <ele>662.8</ele>
        <time>2022-09-26T11:23:45Z</time>
      </trkpt>
      <trkpt lat="41.7079530" lon="2.0736290">
        <ele>662.7</ele>
        <time>2022-09-26T11:23:46Z</time>
      </trkpt>
      <trkpt lat="41.7079460" lon="2.0735470">
        <ele>662.5</ele>
        <time>2022-09-26T11:23:47Z</time>
      </trkpt>
      <trkpt lat="41.7079540" lon="2.0734570">
        <ele>662.3</ele>
        <time>2022-09-26T11:23:48Z</time>
      </trkpt>
      <trkpt lat="41.7079630" lon="2.0733590">
        <ele>662.1</ele>
        <time>2022-09-26T11:23:49Z</time>
      </trkpt>
      <trkpt lat="41.7079700" lon="2.0732580">
        <ele>662.0</ele>
        <time>2022-09-26T11:23:50Z</time>
      </trkpt>
      <trkpt lat="41.7079680" lon="2.0731590">
        <ele>661.9</ele>
        <time>2022-09-26T11:23:51Z</time>
      </trkpt>
      <trkpt lat="41.7079540" lon="2.0730700">
        <ele>661.8</ele>
        <time>2022-09-26T11:23:52Z</time>
      </trkpt>
      <trkpt lat="41.7079290" lon="2.0729890">
        <ele>661.8</ele>
        <time>2022-09-26T11:23:53Z</time>
      </trkpt>
      <trkpt lat="41.7078960" lon="2.0729160">
        <ele>661.7</ele>
        <time>2022-09-26T11:23:54Z</time>
      </trkpt>
      <trkpt lat="41.7078550" lon="2.0728540">
        <ele>661.7</ele>
        <time>2022-09-26T11:23:55Z</time>
      </trkpt>
      <trkpt lat="41.7078060" lon="2.0728050">
        <ele>661.7</ele>
        <time>2022-09-26T11:23:56Z</time>
      </trkpt>
      <trkpt lat="41.7077560" lon="2.0727630">
        <ele>661.7</ele>
        <time>2022-09-26T11:23:57Z</time>
      </trkpt>
      <trkpt lat="41.7077070" lon="2.0727260">
        <ele>661.7</ele>
        <time>2022-09-26T11:23:58Z</time>
      </trkpt>
      <trkpt lat="41.7076570" lon="2.0726900">
        <ele>661.7</ele>
        <time>2022-09-26T11:23:59Z</time>
      </trkpt>
      <trkpt lat="41.7076120" lon="2.0726550">
        <ele>661.7</ele>
        <time>2022-09-26T11:24:00Z</time>
      </trkpt>
      <trkpt lat="41.7075710" lon="2.0726180">
        <ele>661.7</ele>
        <time>2022-09-26T11:24:01Z</time>
      </trkpt>
      <trkpt lat="41.7075480" lon="2.0725960">
        <ele>661.7</ele>
        <time>2022-09-26T11:24:02Z</time>
      </trkpt>
      <trkpt lat="41.7075130" lon="2.0725520">
        <ele>661.7</ele>
        <time>2022-09-26T11:24:03Z</time>
      </trkpt>
      <trkpt lat="41.7074880" lon="2.0725100">
        <ele>661.6</ele>
        <time>2022-09-26T11:24:04Z</time>
      </trkpt>
      <trkpt lat="41.7074680" lon="2.0724700">
        <ele>661.5</ele>
        <time>2022-09-26T11:24:05Z</time>
      </trkpt>
      <trkpt lat="41.7074520" lon="2.0724310">
        <ele>661.3</ele>
        <time>2022-09-26T11:24:06Z</time>
      </trkpt>
      <trkpt lat="41.7074420" lon="2.0723930">
        <ele>661.2</ele>
        <time>2022-09-26T11:24:07Z</time>
      </trkpt>
      <trkpt lat="41.7074310" lon="2.0723460">
        <ele>661.0</ele>
        <time>2022-09-26T11:24:08Z</time>
      </trkpt>
      <trkpt lat="41.7074160" lon="2.0723370">
        <ele>661.0</ele>
        <time>2022-09-26T11:24:09Z</time>
      </trkpt>
      <trkpt lat="41.7074080" lon="2.0723000">
        <ele>660.8</ele>
        <time>2022-09-26T11:24:10Z</time>
      </trkpt>
      <trkpt lat="41.7073920" lon="2.0722340">
        <ele>660.6</ele>
        <time>2022-09-26T11:24:11Z</time>
      </trkpt>
      <trkpt lat="41.7073760" lon="2.0721540">
        <ele>660.3</ele>
        <time>2022-09-26T11:24:12Z</time>
      </trkpt>
      <trkpt lat="41.7073570" lon="2.0720670">
        <ele>660.0</ele>
        <time>2022-09-26T11:24:13Z</time>
      </trkpt>
      <trkpt lat="41.7073360" lon="2.0719790">
        <ele>659.7</ele>
        <time>2022-09-26T11:24:14Z</time>
      </trkpt>
      <trkpt lat="41.7073100" lon="2.0718940">
        <ele>659.5</ele>
        <time>2022-09-26T11:24:15Z</time>
      </trkpt>
      <trkpt lat="41.7072780" lon="2.0718170">
        <ele>659.3</ele>
        <time>2022-09-26T11:24:16Z</time>
      </trkpt>
      <trkpt lat="41.7072400" lon="2.0717460">
        <ele>659.0</ele>
        <time>2022-09-26T11:24:17Z</time>
      </trkpt>
      <trkpt lat="41.7072000" lon="2.0716830">
        <ele>658.8</ele>
        <time>2022-09-26T11:24:18Z</time>
      </trkpt>
      <trkpt lat="41.7071610" lon="2.0716240">
        <ele>658.6</ele>
        <time>2022-09-26T11:24:19Z</time>
      </trkpt>
      <trkpt lat="41.7071240" lon="2.0715590">
        <ele>658.3</ele>
        <time>2022-09-26T11:24:20Z</time>
      </trkpt>
      <trkpt lat="41.7070870" lon="2.0714890">
        <ele>658.1</ele>
        <time>2022-09-26T11:24:21Z</time>
      </trkpt>
      <trkpt lat="41.7070510" lon="2.0714180">
        <ele>657.8</ele>
        <time>2022-09-26T11:24:22Z</time>
      </trkpt>
      <trkpt lat="41.7070190" lon="2.0713450">
        <ele>657.6</ele>
        <time>2022-09-26T11:24:23Z</time>
      </trkpt>
      <trkpt lat="41.7069880" lon="2.0712730">
        <ele>657.3</ele>
        <time>2022-09-26T11:24:24Z</time>
      </trkpt>
      <trkpt lat="41.7069610" lon="2.0711980">
        <ele>657.1</ele>
        <time>2022-09-26T11:24:25Z</time>
      </trkpt>
      <trkpt lat="41.7069390" lon="2.0711170">
        <ele>656.8</ele>
        <time>2022-09-26T11:24:26Z</time>
      </trkpt>
      <trkpt lat="41.7069190" lon="2.0710360">
        <ele>656.5</ele>
        <time>2022-09-26T11:24:27Z</time>
      </trkpt>
      <trkpt lat="41.7068970" lon="2.0709560">
        <ele>656.1</ele>
        <time>2022-09-26T11:24:28Z</time>
      </trkpt>
      <trkpt lat="41.7068770" lon="2.0708780">
        <ele>655.8</ele>
        <time>2022-09-26T11:24:29Z</time>
      </trkpt>
      <trkpt lat="41.7068570" lon="2.0708020">
        <ele>655.4</ele>
        <time>2022-09-26T11:24:30Z</time>
      </trkpt>
      <trkpt lat="41.7068360" lon="2.0707200">
        <ele>655.0</ele>
        <time>2022-09-26T11:24:31Z</time>
      </trkpt>
      <trkpt lat="41.7068100" lon="2.0706250">
        <ele>654.6</ele>
        <time>2022-09-26T11:24:32Z</time>
      </trkpt>
      <trkpt lat="41.7067820" lon="2.0705330">
        <ele>654.2</ele>
        <time>2022-09-26T11:24:33Z</time>
      </trkpt>
      <trkpt lat="41.7067520" lon="2.0704370">
        <ele>653.9</ele>
        <time>2022-09-26T11:24:34Z</time>
      </trkpt>
      <trkpt lat="41.7067170" lon="2.0703480">
        <ele>653.7</ele>
        <time>2022-09-26T11:24:35Z</time>
      </trkpt>
      <trkpt lat="41.7066740" lon="2.0702670">
        <ele>653.5</ele>
        <time>2022-09-26T11:24:36Z</time>
      </trkpt>
      <trkpt lat="41.7066250" lon="2.0701810">
        <ele>653.7</ele>
        <time>2022-09-26T11:24:37Z</time>
      </trkpt>
      <trkpt lat="41.7065690" lon="2.0701070">
        <ele>654.2</ele>
        <time>2022-09-26T11:24:38Z</time>
      </trkpt>
      <trkpt lat="41.7065140" lon="2.0700560">
        <ele>654.6</ele>
        <time>2022-09-26T11:24:39Z</time>
      </trkpt>
      <trkpt lat="41.7064590" lon="2.0700320">
        <ele>655.1</ele>
        <time>2022-09-26T11:24:40Z</time>
      </trkpt>
      <trkpt lat="41.7064010" lon="2.0700180">
        <ele>655.6</ele>
        <time>2022-09-26T11:24:41Z</time>
      </trkpt>
      <trkpt lat="41.7063390" lon="2.0700210">
        <ele>656.2</ele>
        <time>2022-09-26T11:24:42Z</time>
      </trkpt>
      <trkpt lat="41.7062820" lon="2.0700490">
        <ele>656.7</ele>
        <time>2022-09-26T11:24:43Z</time>
      </trkpt>
      <trkpt lat="41.7062420" lon="2.0700920">
        <ele>657.2</ele>
        <time>2022-09-26T11:24:44Z</time>
      </trkpt>
      <trkpt lat="41.7062190" lon="2.0701440">
        <ele>657.5</ele>
        <time>2022-09-26T11:24:45Z</time>
      </trkpt>
      <trkpt lat="41.7062040" lon="2.0702120">
        <ele>657.9</ele>
        <time>2022-09-26T11:24:46Z</time>
      </trkpt>
      <trkpt lat="41.7061960" lon="2.0702480">
        <ele>658.1</ele>
        <time>2022-09-26T11:24:47Z</time>
      </trkpt>
      <trkpt lat="41.7061930" lon="2.0702960">
        <ele>658.3</ele>
        <time>2022-09-26T11:24:48Z</time>
      </trkpt>
      <trkpt lat="41.7062050" lon="2.0703560">
        <ele>658.6</ele>
        <time>2022-09-26T11:24:49Z</time>
      </trkpt>
      <trkpt lat="41.7062230" lon="2.0703970">
        <ele>658.8</ele>
        <time>2022-09-26T11:24:50Z</time>
      </trkpt>
      <trkpt lat="41.7062450" lon="2.0704350">
        <ele>658.9</ele>
        <time>2022-09-26T11:24:51Z</time>
      </trkpt>
      <trkpt lat="41.7062650" lon="2.0704700">
        <ele>659.1</ele>
        <time>2022-09-26T11:24:52Z</time>
      </trkpt>
      <trkpt lat="41.7062770" lon="2.0704740">
        <ele>659.1</ele>
        <time>2022-09-26T11:24:53Z</time>
      </trkpt>
      <trkpt lat="41.7062950" lon="2.0705090">
        <ele>659.3</ele>
        <time>2022-09-26T11:24:55Z</time>
      </trkpt>
      <trkpt lat="41.7063160" lon="2.0705600">
        <ele>659.5</ele>
        <time>2022-09-26T11:24:56Z</time>
      </trkpt>
      <trkpt lat="41.7063470" lon="2.0706340">
        <ele>659.7</ele>
        <time>2022-09-26T11:24:57Z</time>
      </trkpt>
      <trkpt lat="41.7063620" lon="2.0706720">
        <ele>659.9</ele>
        <time>2022-09-26T11:24:58Z</time>
      </trkpt>
      <trkpt lat="41.7063770" lon="2.0707160">
        <ele>660.0</ele>
        <time>2022-09-26T11:24:59Z</time>
      </trkpt>
      <trkpt lat="41.7063970" lon="2.0707490">
        <ele>660.2</ele>
        <time>2022-09-26T11:25:01Z</time>
      </trkpt>
      <trkpt lat="41.7064140" lon="2.0707830">
        <ele>660.4</ele>
        <time>2022-09-26T11:25:02Z</time>
      </trkpt>
      <trkpt lat="41.7064320" lon="2.0708230">
        <ele>660.5</ele>
        <time>2022-09-26T11:25:03Z</time>
      </trkpt>
      <trkpt lat="41.7064510" lon="2.0708640">
        <ele>660.7</ele>
        <time>2022-09-26T11:25:04Z</time>
      </trkpt>
      <trkpt lat="41.7064600" lon="2.0708790">
        <ele>660.8</ele>
        <time>2022-09-26T11:25:05Z</time>
      </trkpt>
      <trkpt lat="41.7064810" lon="2.0709220">
        <ele>661.0</ele>
        <time>2022-09-26T11:25:06Z</time>
      </trkpt>
      <trkpt lat="41.7064880" lon="2.0709350">
        <ele>661.1</ele>
        <time>2022-09-26T11:25:07Z</time>
      </trkpt>
      <trkpt lat="41.7065020" lon="2.0709620">
        <ele>661.3</ele>
        <time>2022-09-26T11:25:08Z</time>
      </trkpt>
      <trkpt lat="41.7065160" lon="2.0709920">
        <ele>661.5</ele>
        <time>2022-09-26T11:25:10Z</time>
      </trkpt>
      <trkpt lat="41.7065370" lon="2.0710350">
        <ele>661.7</ele>
        <time>2022-09-26T11:25:11Z</time>
      </trkpt>
      <trkpt lat="41.7065440" lon="2.0710500">
        <ele>661.8</ele>
        <time>2022-09-26T11:25:12Z</time>
      </trkpt>
      <trkpt lat="41.7065570" lon="2.0710880">
        <ele>662.0</ele>
        <time>2022-09-26T11:25:13Z</time>
      </trkpt>
      <trkpt lat="41.7065720" lon="2.0711290">
        <ele>662.3</ele>
        <time>2022-09-26T11:25:14Z</time>
      </trkpt>
      <trkpt lat="41.7065980" lon="2.0711890">
        <ele>662.6</ele>
        <time>2022-09-26T11:25:16Z</time>
      </trkpt>
      <trkpt lat="41.7066150" lon="2.0712330">
        <ele>662.9</ele>
        <time>2022-09-26T11:25:17Z</time>
      </trkpt>
      <trkpt lat="41.7066190" lon="2.0712460">
        <ele>663.0</ele>
        <time>2022-09-26T11:25:18Z</time>
      </trkpt>
      <trkpt lat="41.7066350" lon="2.0712840">
        <ele>663.2</ele>
        <time>2022-09-26T11:25:19Z</time>
      </trkpt>
      <trkpt lat="41.7066410" lon="2.0712970">
        <ele>663.3</ele>
        <time>2022-09-26T11:25:20Z</time>
      </trkpt>
      <trkpt lat="41.7066580" lon="2.0713330">
        <ele>663.5</ele>
        <time>2022-09-26T11:25:21Z</time>
      </trkpt>
      <trkpt lat="41.7066610" lon="2.0713440">
        <ele>663.6</ele>
        <time>2022-09-26T11:25:22Z</time>
      </trkpt>
      <trkpt lat="41.7066680" lon="2.0713640">
        <ele>663.7</ele>
        <time>2022-09-26T11:25:23Z</time>
      </trkpt>
      <trkpt lat="41.7066760" lon="2.0713850">
        <ele>663.8</ele>
        <time>2022-09-26T11:25:24Z</time>
      </trkpt>
      <trkpt lat="41.7066800" lon="2.0714100">
        <ele>663.9</ele>
        <time>2022-09-26T11:25:25Z</time>
      </trkpt>
      <trkpt lat="41.7066840" lon="2.0714320">
        <ele>664.0</ele>
        <time>2022-09-26T11:25:26Z</time>
      </trkpt>
      <trkpt lat="41.7066940" lon="2.0714700">
        <ele>664.2</ele>
        <time>2022-09-26T11:25:27Z</time>
      </trkpt>
      <trkpt lat="41.7066990" lon="2.0714840">
        <ele>664.3</ele>
        <time>2022-09-26T11:25:28Z</time>
      </trkpt>
      <trkpt lat="41.7067070" lon="2.0715230">
        <ele>664.5</ele>
        <time>2022-09-26T11:25:29Z</time>
      </trkpt>
      <trkpt lat="41.7067100" lon="2.0715370">
        <ele>664.5</ele>
        <time>2022-09-26T11:25:30Z</time>
      </trkpt>
      <trkpt lat="41.7067110" lon="2.0715770">
        <ele>664.7</ele>
        <time>2022-09-26T11:25:32Z</time>
      </trkpt>
      <trkpt lat="41.7067220" lon="2.0716350">
        <ele>664.9</ele>
        <time>2022-09-26T11:25:33Z</time>
      </trkpt>
      <trkpt lat="41.7067290" lon="2.0716810">
        <ele>665.1</ele>
        <time>2022-09-26T11:25:34Z</time>
      </trkpt>
      <trkpt lat="41.7067310" lon="2.0716960">
        <ele>665.1</ele>
        <time>2022-09-26T11:25:35Z</time>
      </trkpt>
      <trkpt lat="41.7067320" lon="2.0717550">
        <ele>665.4</ele>
        <time>2022-09-26T11:25:37Z</time>
      </trkpt>
      <trkpt lat="41.7067340" lon="2.0717920">
        <ele>665.5</ele>
        <time>2022-09-26T11:25:38Z</time>
      </trkpt>
      <trkpt lat="41.7067370" lon="2.0718320">
        <ele>665.6</ele>
        <time>2022-09-26T11:25:39Z</time>
      </trkpt>
      <trkpt lat="41.7067390" lon="2.0718810">
        <ele>665.8</ele>
        <time>2022-09-26T11:25:40Z</time>
      </trkpt>
      <trkpt lat="41.7067390" lon="2.0718950">
        <ele>665.8</ele>
        <time>2022-09-26T11:25:41Z</time>
      </trkpt>
      <trkpt lat="41.7067440" lon="2.0719250">
        <ele>665.9</ele>
        <time>2022-09-26T11:25:42Z</time>
      </trkpt>
      <trkpt lat="41.7067400" lon="2.0719640">
        <ele>666.0</ele>
        <time>2022-09-26T11:25:44Z</time>
      </trkpt>
      <trkpt lat="41.7067340" lon="2.0720100">
        <ele>666.2</ele>
        <time>2022-09-26T11:25:45Z</time>
      </trkpt>
      <trkpt lat="41.7067230" lon="2.0720440">
        <ele>666.3</ele>
        <time>2022-09-26T11:25:47Z</time>
      </trkpt>
      <trkpt lat="41.7067170" lon="2.0720850">
        <ele>666.4</ele>
        <time>2022-09-26T11:25:48Z</time>
      </trkpt>
      <trkpt lat="41.7067130" lon="2.0721350">
        <ele>666.5</ele>
        <time>2022-09-26T11:25:49Z</time>
      </trkpt>
      <trkpt lat="41.7067120" lon="2.0721500">
        <ele>666.6</ele>
        <time>2022-09-26T11:25:50Z</time>
      </trkpt>
      <trkpt lat="41.7067090" lon="2.0721900">
        <ele>666.7</ele>
        <time>2022-09-26T11:25:51Z</time>
      </trkpt>
      <trkpt lat="41.7067090" lon="2.0722040">
        <ele>666.7</ele>
        <time>2022-09-26T11:25:52Z</time>
      </trkpt>
      <trkpt lat="41.7067030" lon="2.0722510">
        <ele>666.9</ele>
        <time>2022-09-26T11:25:53Z</time>
      </trkpt>
      <trkpt lat="41.7067010" lon="2.0722690">
        <ele>667.0</ele>
        <time>2022-09-26T11:25:54Z</time>
      </trkpt>
      <trkpt lat="41.7066980" lon="2.0722990">
        <ele>667.1</ele>
        <time>2022-09-26T11:25:55Z</time>
      </trkpt>
      <trkpt lat="41.7066920" lon="2.0723490">
        <ele>667.2</ele>
        <time>2022-09-26T11:25:57Z</time>
      </trkpt>
      <trkpt lat="41.7066860" lon="2.0723930">
        <ele>667.4</ele>
        <time>2022-09-26T11:25:58Z</time>
      </trkpt>
      <trkpt lat="41.7066800" lon="2.0724460">
        <ele>667.6</ele>
        <time>2022-09-26T11:25:59Z</time>
      </trkpt>
      <trkpt lat="41.7066790" lon="2.0724760">
        <ele>667.7</ele>
        <time>2022-09-26T11:26:00Z</time>
      </trkpt>
      <trkpt lat="41.7066790" lon="2.0725110">
        <ele>667.9</ele>
        <time>2022-09-26T11:26:02Z</time>
      </trkpt>
      <trkpt lat="41.7066770" lon="2.0725620">
        <ele>668.1</ele>
        <time>2022-09-26T11:26:03Z</time>
      </trkpt>
      <trkpt lat="41.7066760" lon="2.0725780">
        <ele>668.1</ele>
        <time>2022-09-26T11:26:04Z</time>
      </trkpt>
      <trkpt lat="41.7066740" lon="2.0726150">
        <ele>668.3</ele>
        <time>2022-09-26T11:26:05Z</time>
      </trkpt>
      <trkpt lat="41.7066700" lon="2.0726670">
        <ele>668.5</ele>
        <time>2022-09-26T11:26:06Z</time>
      </trkpt>
      <trkpt lat="41.7066680" lon="2.0726850">
        <ele>668.6</ele>
        <time>2022-09-26T11:26:07Z</time>
      </trkpt>
      <trkpt lat="41.7066600" lon="2.0727500">
        <ele>668.8</ele>
        <time>2022-09-26T11:26:09Z</time>
      </trkpt>
      <trkpt lat="41.7066570" lon="2.0727700">
        <ele>668.9</ele>
        <time>2022-09-26T11:26:10Z</time>
      </trkpt>
      <trkpt lat="41.7066550" lon="2.0727900">
        <ele>669.0</ele>
        <time>2022-09-26T11:26:11Z</time>
      </trkpt>
      <trkpt lat="41.7066500" lon="2.0728310">
        <ele>669.1</ele>
        <time>2022-09-26T11:26:12Z</time>
      </trkpt>
      <trkpt lat="41.7066470" lon="2.0728460">
        <ele>669.2</ele>
        <time>2022-09-26T11:26:13Z</time>
      </trkpt>
      <trkpt lat="41.7066380" lon="2.0728870">
        <ele>669.3</ele>
        <time>2022-09-26T11:26:14Z</time>
      </trkpt>
      <trkpt lat="41.7066200" lon="2.0729570">
        <ele>669.6</ele>
        <time>2022-09-26T11:26:16Z</time>
      </trkpt>
      <trkpt lat="41.7066120" lon="2.0729920">
        <ele>669.7</ele>
        <time>2022-09-26T11:26:17Z</time>
      </trkpt>
      <trkpt lat="41.7066030" lon="2.0730300">
        <ele>669.9</ele>
        <time>2022-09-26T11:26:18Z</time>
      </trkpt>
      <trkpt lat="41.7065940" lon="2.0730850">
        <ele>670.0</ele>
        <time>2022-09-26T11:26:20Z</time>
      </trkpt>
      <trkpt lat="41.7065830" lon="2.0731380">
        <ele>670.2</ele>
        <time>2022-09-26T11:26:21Z</time>
      </trkpt>
      <trkpt lat="41.7065730" lon="2.0731750">
        <ele>670.3</ele>
        <time>2022-09-26T11:26:22Z</time>
      </trkpt>
      <trkpt lat="41.7065610" lon="2.0732080">
        <ele>670.4</ele>
        <time>2022-09-26T11:26:23Z</time>
      </trkpt>
      <trkpt lat="41.7065430" lon="2.0732510">
        <ele>670.5</ele>
        <time>2022-09-26T11:26:25Z</time>
      </trkpt>
      <trkpt lat="41.7065220" lon="2.0732790">
        <ele>670.6</ele>
        <time>2022-09-26T11:26:26Z</time>
      </trkpt>
      <trkpt lat="41.7064900" lon="2.0732990">
        <ele>670.7</ele>
        <time>2022-09-26T11:26:27Z</time>
      </trkpt>
      <trkpt lat="41.7064470" lon="2.0733070">
        <ele>670.9</ele>
        <time>2022-09-26T11:26:28Z</time>
      </trkpt>
      <trkpt lat="41.7064290" lon="2.0733090">
        <ele>671.0</ele>
        <time>2022-09-26T11:26:29Z</time>
      </trkpt>
      <trkpt lat="41.7063830" lon="2.0733120">
        <ele>671.2</ele>
        <time>2022-09-26T11:26:31Z</time>
      </trkpt>
      <trkpt lat="41.7063450" lon="2.0733100">
        <ele>671.4</ele>
        <time>2022-09-26T11:26:32Z</time>
      </trkpt>
      <trkpt lat="41.7063110" lon="2.0733090">
        <ele>671.5</ele>
        <time>2022-09-26T11:26:33Z</time>
      </trkpt>
      <trkpt lat="41.7062760" lon="2.0733070">
        <ele>671.8</ele>
        <time>2022-09-26T11:26:34Z</time>
      </trkpt>
      <trkpt lat="41.7062450" lon="2.0733050">
        <ele>671.9</ele>
        <time>2022-09-26T11:26:35Z</time>
      </trkpt>
      <trkpt lat="41.7062180" lon="2.0733000">
        <ele>672.1</ele>
        <time>2022-09-26T11:26:36Z</time>
      </trkpt>
      <trkpt lat="41.7061730" lon="2.0732930">
        <ele>672.4</ele>
        <time>2022-09-26T11:26:38Z</time>
      </trkpt>
      <trkpt lat="41.7061550" lon="2.0732900">
        <ele>672.5</ele>
        <time>2022-09-26T11:26:39Z</time>
      </trkpt>
      <trkpt lat="41.7061360" lon="2.0732880">
        <ele>672.6</ele>
        <time>2022-09-26T11:26:40Z</time>
      </trkpt>
      <trkpt lat="41.7061190" lon="2.0732770">
        <ele>672.7</ele>
        <time>2022-09-26T11:26:41Z</time>
      </trkpt>
      <trkpt lat="41.7060980" lon="2.0732670">
        <ele>672.8</ele>
        <time>2022-09-26T11:26:43Z</time>
      </trkpt>
      <trkpt lat="41.7060650" lon="2.0732580">
        <ele>673.0</ele>
        <time>2022-09-26T11:26:44Z</time>
      </trkpt>
      <trkpt lat="41.7060540" lon="2.0732570">
        <ele>673.1</ele>
        <time>2022-09-26T11:26:45Z</time>
      </trkpt>
      <trkpt lat="41.7060260" lon="2.0732550">
        <ele>673.3</ele>
        <time>2022-09-26T11:26:46Z</time>
      </trkpt>
      <trkpt lat="41.7059910" lon="2.0732490">
        <ele>673.4</ele>
        <time>2022-09-26T11:26:48Z</time>
      </trkpt>
      <trkpt lat="41.7059590" lon="2.0732410">
        <ele>673.6</ele>
        <time>2022-09-26T11:26:49Z</time>
      </trkpt>
      <trkpt lat="41.7059280" lon="2.0732340">
        <ele>673.8</ele>
        <time>2022-09-26T11:26:50Z</time>
      </trkpt>
      <trkpt lat="41.7059010" lon="2.0732290">
        <ele>673.9</ele>
        <time>2022-09-26T11:26:51Z</time>
      </trkpt>
      <trkpt lat="41.7058640" lon="2.0732140">
        <ele>674.1</ele>
        <time>2022-09-26T11:26:52Z</time>
      </trkpt>
      <trkpt lat="41.7058510" lon="2.0732080">
        <ele>674.1</ele>
        <time>2022-09-26T11:26:53Z</time>
      </trkpt>
      <trkpt lat="41.7058240" lon="2.0731970">
        <ele>674.3</ele>
        <time>2022-09-26T11:26:54Z</time>
      </trkpt>
      <trkpt lat="41.7057890" lon="2.0731870">
        <ele>674.4</ele>
        <time>2022-09-26T11:26:55Z</time>
      </trkpt>
      <trkpt lat="41.7057760" lon="2.0731830">
        <ele>674.5</ele>
        <time>2022-09-26T11:26:56Z</time>
      </trkpt>
      <trkpt lat="41.7057400" lon="2.0731710">
        <ele>674.7</ele>
        <time>2022-09-26T11:26:58Z</time>
      </trkpt>
      <trkpt lat="41.7057000" lon="2.0731560">
        <ele>674.8</ele>
        <time>2022-09-26T11:26:59Z</time>
      </trkpt>
      <trkpt lat="41.7056840" lon="2.0731510">
        <ele>674.9</ele>
        <time>2022-09-26T11:27:00Z</time>
      </trkpt>
      <trkpt lat="41.7056530" lon="2.0731430">
        <ele>675.1</ele>
        <time>2022-09-26T11:27:01Z</time>
      </trkpt>
      <trkpt lat="41.7056190" lon="2.0731370">
        <ele>675.3</ele>
        <time>2022-09-26T11:27:02Z</time>
      </trkpt>
      <trkpt lat="41.7055870" lon="2.0731240">
        <ele>675.4</ele>
        <time>2022-09-26T11:27:03Z</time>
      </trkpt>
      <trkpt lat="41.7055530" lon="2.0731160">
        <ele>675.7</ele>
        <time>2022-09-26T11:27:04Z</time>
      </trkpt>
      <trkpt lat="41.7055240" lon="2.0731060">
        <ele>675.9</ele>
        <time>2022-09-26T11:27:05Z</time>
      </trkpt>
      <trkpt lat="41.7054950" lon="2.0730990">
        <ele>676.1</ele>
        <time>2022-09-26T11:27:06Z</time>
      </trkpt>
      <trkpt lat="41.7054590" lon="2.0730940">
        <ele>676.3</ele>
        <time>2022-09-26T11:27:08Z</time>
      </trkpt>
      <trkpt lat="41.7054200" lon="2.0730850">
        <ele>676.6</ele>
        <time>2022-09-26T11:27:09Z</time>
      </trkpt>
      <trkpt lat="41.7053900" lon="2.0730790">
        <ele>676.9</ele>
        <time>2022-09-26T11:27:10Z</time>
      </trkpt>
      <trkpt lat="41.7053530" lon="2.0730740">
        <ele>677.1</ele>
        <time>2022-09-26T11:27:11Z</time>
      </trkpt>
      <trkpt lat="41.7053420" lon="2.0730720">
        <ele>677.2</ele>
        <time>2022-09-26T11:27:12Z</time>
      </trkpt>
      <trkpt lat="41.7053070" lon="2.0730750">
        <ele>677.5</ele>
        <time>2022-09-26T11:27:13Z</time>
      </trkpt>
      <trkpt lat="41.7052950" lon="2.0730760">
        <ele>677.6</ele>
        <time>2022-09-26T11:27:14Z</time>
      </trkpt>
      <trkpt lat="41.7052650" lon="2.0730830">
        <ele>677.8</ele>
        <time>2022-09-26T11:27:15Z</time>
      </trkpt>
      <trkpt lat="41.7052320" lon="2.0730920">
        <ele>678.0</ele>
        <time>2022-09-26T11:27:16Z</time>
      </trkpt>
      <trkpt lat="41.7052050" lon="2.0730980">
        <ele>678.2</ele>
        <time>2022-09-26T11:27:17Z</time>
      </trkpt>
      <trkpt lat="41.7051750" lon="2.0731090">
        <ele>678.4</ele>
        <time>2022-09-26T11:27:18Z</time>
      </trkpt>
      <trkpt lat="41.7051630" lon="2.0731150">
        <ele>678.5</ele>
        <time>2022-09-26T11:27:19Z</time>
      </trkpt>
      <trkpt lat="41.7051330" lon="2.0731400">
        <ele>678.7</ele>
        <time>2022-09-26T11:27:20Z</time>
      </trkpt>
      <trkpt lat="41.7051230" lon="2.0731470">
        <ele>678.8</ele>
        <time>2022-09-26T11:27:21Z</time>
      </trkpt>
      <trkpt lat="41.7051050" lon="2.0731690">
        <ele>678.9</ele>
        <time>2022-09-26T11:27:22Z</time>
      </trkpt>
      <trkpt lat="41.7050860" lon="2.0731980">
        <ele>679.1</ele>
        <time>2022-09-26T11:27:24Z</time>
      </trkpt>
      <trkpt lat="41.7050600" lon="2.0732410">
        <ele>679.3</ele>
        <time>2022-09-26T11:27:25Z</time>
      </trkpt>
      <trkpt lat="41.7050510" lon="2.0732590">
        <ele>679.4</ele>
        <time>2022-09-26T11:27:26Z</time>
      </trkpt>
      <trkpt lat="41.7050330" lon="2.0733020">
        <ele>679.5</ele>
        <time>2022-09-26T11:27:27Z</time>
      </trkpt>
      <trkpt lat="41.7050210" lon="2.0733450">
        <ele>679.7</ele>
        <time>2022-09-26T11:27:28Z</time>
      </trkpt>
      <trkpt lat="41.7050170" lon="2.0733580">
        <ele>679.8</ele>
        <time>2022-09-26T11:27:29Z</time>
      </trkpt>
      <trkpt lat="41.7050100" lon="2.0734060">
        <ele>679.9</ele>
        <time>2022-09-26T11:27:30Z</time>
      </trkpt>
      <trkpt lat="41.7050080" lon="2.0734230">
        <ele>680.0</ele>
        <time>2022-09-26T11:27:31Z</time>
      </trkpt>
      <trkpt lat="41.7050020" lon="2.0734720">
        <ele>680.1</ele>
        <time>2022-09-26T11:27:32Z</time>
      </trkpt>
      <trkpt lat="41.7050010" lon="2.0734870">
        <ele>680.2</ele>
        <time>2022-09-26T11:27:33Z</time>
      </trkpt>
      <trkpt lat="41.7050030" lon="2.0735330">
        <ele>680.3</ele>
        <time>2022-09-26T11:27:34Z</time>
      </trkpt>
      <trkpt lat="41.7050040" lon="2.0735490">
        <ele>680.3</ele>
        <time>2022-09-26T11:27:35Z</time>
      </trkpt>
      <trkpt lat="41.7050120" lon="2.0735860">
        <ele>680.4</ele>
        <time>2022-09-26T11:27:37Z</time>
      </trkpt>
      <trkpt lat="41.7050240" lon="2.0736290">
        <ele>680.5</ele>
        <time>2022-09-26T11:27:38Z</time>
      </trkpt>
      <trkpt lat="41.7050390" lon="2.0736580">
        <ele>680.5</ele>
        <time>2022-09-26T11:27:39Z</time>
      </trkpt>
      <trkpt lat="41.7050570" lon="2.0736920">
        <ele>680.6</ele>
        <time>2022-09-26T11:27:41Z</time>
      </trkpt>
      <trkpt lat="41.7050820" lon="2.0737320">
        <ele>680.7</ele>
        <time>2022-09-26T11:27:42Z</time>
      </trkpt>
      <trkpt lat="41.7051060" lon="2.0737640">
        <ele>680.7</ele>
        <time>2022-09-26T11:27:43Z</time>
      </trkpt>
      <trkpt lat="41.7051150" lon="2.0737750">
        <ele>680.7</ele>
        <time>2022-09-26T11:27:44Z</time>
      </trkpt>
      <trkpt lat="41.7051320" lon="2.0737970">
        <ele>680.8</ele>
        <time>2022-09-26T11:27:45Z</time>
      </trkpt>
      <trkpt lat="41.7051550" lon="2.0738220">
        <ele>680.8</ele>
        <time>2022-09-26T11:27:47Z</time>
      </trkpt>
      <trkpt lat="41.7051830" lon="2.0738550">
        <ele>680.8</ele>
        <time>2022-09-26T11:27:48Z</time>
      </trkpt>
      <trkpt lat="41.7052130" lon="2.0738870">
        <ele>680.8</ele>
        <time>2022-09-26T11:27:49Z</time>
      </trkpt>
      <trkpt lat="41.7052220" lon="2.0738970">
        <ele>680.8</ele>
        <time>2022-09-26T11:27:50Z</time>
      </trkpt>
      <trkpt lat="41.7052410" lon="2.0739170">
        <ele>680.8</ele>
        <time>2022-09-26T11:27:51Z</time>
      </trkpt>
      <trkpt lat="41.7052600" lon="2.0739410">
        <ele>680.8</ele>
        <time>2022-09-26T11:27:53Z</time>
      </trkpt>
      <trkpt lat="41.7052810" lon="2.0739680">
        <ele>680.7</ele>
        <time>2022-09-26T11:27:54Z</time>
      </trkpt>
      <trkpt lat="41.7053050" lon="2.0739950">
        <ele>680.7</ele>
        <time>2022-09-26T11:27:55Z</time>
      </trkpt>
      <trkpt lat="41.7053260" lon="2.0740250">
        <ele>680.7</ele>
        <time>2022-09-26T11:27:56Z</time>
      </trkpt>
      <trkpt lat="41.7053450" lon="2.0740580">
        <ele>680.7</ele>
        <time>2022-09-26T11:27:57Z</time>
      </trkpt>
      <trkpt lat="41.7053680" lon="2.0740960">
        <ele>680.7</ele>
        <time>2022-09-26T11:27:58Z</time>
      </trkpt>
      <trkpt lat="41.7053860" lon="2.0741270">
        <ele>680.6</ele>
        <time>2022-09-26T11:27:59Z</time>
      </trkpt>
      <trkpt lat="41.7054050" lon="2.0741560">
        <ele>680.6</ele>
        <time>2022-09-26T11:28:00Z</time>
      </trkpt>
      <trkpt lat="41.7054260" lon="2.0741940">
        <ele>680.6</ele>
        <time>2022-09-26T11:28:01Z</time>
      </trkpt>
      <trkpt lat="41.7054530" lon="2.0742420">
        <ele>680.6</ele>
        <time>2022-09-26T11:28:02Z</time>
      </trkpt>
      <trkpt lat="41.7054840" lon="2.0742840">
        <ele>680.6</ele>
        <time>2022-09-26T11:28:04Z</time>
      </trkpt>
      <trkpt lat="41.7055200" lon="2.0743230">
        <ele>680.6</ele>
        <time>2022-09-26T11:28:05Z</time>
      </trkpt>
      <trkpt lat="41.7055560" lon="2.0743550">
        <ele>680.6</ele>
        <time>2022-09-26T11:28:06Z</time>
      </trkpt>
      <trkpt lat="41.7055870" lon="2.0743830">
        <ele>680.6</ele>
        <time>2022-09-26T11:28:07Z</time>
      </trkpt>
      <trkpt lat="41.7056220" lon="2.0744110">
        <ele>680.6</ele>
        <time>2022-09-26T11:28:08Z</time>
      </trkpt>
      <trkpt lat="41.7056340" lon="2.0744210">
        <ele>680.6</ele>
        <time>2022-09-26T11:28:09Z</time>
      </trkpt>
      <trkpt lat="41.7056830" lon="2.0744600">
        <ele>680.6</ele>
        <time>2022-09-26T11:28:11Z</time>
      </trkpt>
      <trkpt lat="41.7057170" lon="2.0744800">
        <ele>680.6</ele>
        <time>2022-09-26T11:28:12Z</time>
      </trkpt>
      <trkpt lat="41.7057570" lon="2.0745150">
        <ele>680.7</ele>
        <time>2022-09-26T11:28:13Z</time>
      </trkpt>
      <trkpt lat="41.7057810" lon="2.0745410">
        <ele>680.7</ele>
        <time>2022-09-26T11:28:14Z</time>
      </trkpt>
      <trkpt lat="41.7058050" lon="2.0745670">
        <ele>680.8</ele>
        <time>2022-09-26T11:28:15Z</time>
      </trkpt>
      <trkpt lat="41.7058350" lon="2.0745930">
        <ele>680.8</ele>
        <time>2022-09-26T11:28:16Z</time>
      </trkpt>
      <trkpt lat="41.7058580" lon="2.0746110">
        <ele>680.9</ele>
        <time>2022-09-26T11:28:17Z</time>
      </trkpt>
      <trkpt lat="41.7059020" lon="2.0746640">
        <ele>680.9</ele>
        <time>2022-09-26T11:28:19Z</time>
      </trkpt>
      <trkpt lat="41.7059290" lon="2.0746870">
        <ele>681.0</ele>
        <time>2022-09-26T11:28:20Z</time>
      </trkpt>
      <trkpt lat="41.7059590" lon="2.0747220">
        <ele>681.0</ele>
        <time>2022-09-26T11:28:21Z</time>
      </trkpt>
      <trkpt lat="41.7059840" lon="2.0747640">
        <ele>681.1</ele>
        <time>2022-09-26T11:28:22Z</time>
      </trkpt>
      <trkpt lat="41.7060210" lon="2.0748160">
        <ele>681.2</ele>
        <time>2022-09-26T11:28:24Z</time>
      </trkpt>
      <trkpt lat="41.7060530" lon="2.0748650">
        <ele>681.3</ele>
        <time>2022-09-26T11:28:25Z</time>
      </trkpt>
      <trkpt lat="41.7060780" lon="2.0749120">
        <ele>681.3</ele>
        <time>2022-09-26T11:28:26Z</time>
      </trkpt>
      <trkpt lat="41.7061010" lon="2.0749600">
        <ele>681.4</ele>
        <time>2022-09-26T11:28:27Z</time>
      </trkpt>
      <trkpt lat="41.7061200" lon="2.0749950">
        <ele>681.5</ele>
        <time>2022-09-26T11:28:28Z</time>
      </trkpt>
      <trkpt lat="41.7061350" lon="2.0750380">
        <ele>681.7</ele>
        <time>2022-09-26T11:28:29Z</time>
      </trkpt>
      <trkpt lat="41.7061510" lon="2.0751020">
        <ele>681.9</ele>
        <time>2022-09-26T11:28:31Z</time>
      </trkpt>
      <trkpt lat="41.7061540" lon="2.0751520">
        <ele>682.1</ele>
        <time>2022-09-26T11:28:32Z</time>
      </trkpt>
      <trkpt lat="41.7061530" lon="2.0752050">
        <ele>682.4</ele>
        <time>2022-09-26T11:28:33Z</time>
      </trkpt>
      <trkpt lat="41.7061540" lon="2.0752490">
        <ele>682.5</ele>
        <time>2022-09-26T11:28:34Z</time>
      </trkpt>
      <trkpt lat="41.7061560" lon="2.0752620">
        <ele>682.6</ele>
        <time>2022-09-26T11:28:35Z</time>
      </trkpt>
      <trkpt lat="41.7061600" lon="2.0753140">
        <ele>682.8</ele>
        <time>2022-09-26T11:28:36Z</time>
      </trkpt>
      <trkpt lat="41.7061600" lon="2.0753350">
        <ele>682.9</ele>
        <time>2022-09-26T11:28:37Z</time>
      </trkpt>
      <trkpt lat="41.7061580" lon="2.0753650">
        <ele>683.0</ele>
        <time>2022-09-26T11:28:38Z</time>
      </trkpt>
      <trkpt lat="41.7061530" lon="2.0754310">
        <ele>683.2</ele>
        <time>2022-09-26T11:28:40Z</time>
      </trkpt>
      <trkpt lat="41.7061500" lon="2.0754780">
        <ele>683.4</ele>
        <time>2022-09-26T11:28:41Z</time>
      </trkpt>
      <trkpt lat="41.7061480" lon="2.0755220">
        <ele>683.6</ele>
        <time>2022-09-26T11:28:42Z</time>
      </trkpt>
      <trkpt lat="41.7061390" lon="2.0755600">
        <ele>683.7</ele>
        <time>2022-09-26T11:28:43Z</time>
      </trkpt>
      <trkpt lat="41.7061340" lon="2.0755870">
        <ele>683.9</ele>
        <time>2022-09-26T11:28:44Z</time>
      </trkpt>
      <trkpt lat="41.7061330" lon="2.0756320">
        <ele>684.0</ele>
        <time>2022-09-26T11:28:46Z</time>
      </trkpt>
      <trkpt lat="41.7061370" lon="2.0756780">
        <ele>684.2</ele>
        <time>2022-09-26T11:28:47Z</time>
      </trkpt>
      <trkpt lat="41.7061420" lon="2.0757310">
        <ele>684.4</ele>
        <time>2022-09-26T11:28:48Z</time>
      </trkpt>
      <trkpt lat="41.7061450" lon="2.0757930">
        <ele>684.5</ele>
        <time>2022-09-26T11:28:50Z</time>
      </trkpt>
      <trkpt lat="41.7061560" lon="2.0758470">
        <ele>684.7</ele>
        <time>2022-09-26T11:28:51Z</time>
      </trkpt>
      <trkpt lat="41.7061570" lon="2.0758680">
        <ele>684.8</ele>
        <time>2022-09-26T11:28:52Z</time>
      </trkpt>
      <trkpt lat="41.7061570" lon="2.0759180">
        <ele>684.9</ele>
        <time>2022-09-26T11:28:53Z</time>
      </trkpt>
      <trkpt lat="41.7061620" lon="2.0759640">
        <ele>685.1</ele>
        <time>2022-09-26T11:28:54Z</time>
      </trkpt>
      <trkpt lat="41.7061620" lon="2.0759780">
        <ele>685.1</ele>
        <time>2022-09-26T11:28:55Z</time>
      </trkpt>
      <trkpt lat="41.7061630" lon="2.0760160">
        <ele>685.2</ele>
        <time>2022-09-26T11:28:56Z</time>
      </trkpt>
      <trkpt lat="41.7061550" lon="2.0760660">
        <ele>685.4</ele>
        <time>2022-09-26T11:28:57Z</time>
      </trkpt>
      <trkpt lat="41.7061440" lon="2.0761090">
        <ele>685.6</ele>
        <time>2022-09-26T11:28:58Z</time>
      </trkpt>
      <trkpt lat="41.7061320" lon="2.0761500">
        <ele>685.7</ele>
        <time>2022-09-26T11:28:59Z</time>
      </trkpt>
      <trkpt lat="41.7061090" lon="2.0762050">
        <ele>686.0</ele>
        <time>2022-09-26T11:29:01Z</time>
      </trkpt>
      <trkpt lat="41.7060980" lon="2.0762420">
        <ele>686.1</ele>
        <time>2022-09-26T11:29:02Z</time>
      </trkpt>
      <trkpt lat="41.7060850" lon="2.0762930">
        <ele>686.4</ele>
        <time>2022-09-26T11:29:03Z</time>
      </trkpt>
      <trkpt lat="41.7060810" lon="2.0763100">
        <ele>686.5</ele>
        <time>2022-09-26T11:29:04Z</time>
      </trkpt>
      <trkpt lat="41.7060670" lon="2.0763510">
        <ele>686.7</ele>
        <time>2022-09-26T11:29:06Z</time>
      </trkpt>
      <trkpt lat="41.7060570" lon="2.0763910">
        <ele>686.8</ele>
        <time>2022-09-26T11:29:07Z</time>
      </trkpt>
      <trkpt lat="41.7060520" lon="2.0764340">
        <ele>687.0</ele>
        <time>2022-09-26T11:29:08Z</time>
      </trkpt>
      <trkpt lat="41.7060490" lon="2.0764710">
        <ele>687.2</ele>
        <time>2022-09-26T11:29:09Z</time>
      </trkpt>
      <trkpt lat="41.7060460" lon="2.0765320">
        <ele>687.4</ele>
        <time>2022-09-26T11:29:11Z</time>
      </trkpt>
      <trkpt lat="41.7060410" lon="2.0765780">
        <ele>687.6</ele>
        <time>2022-09-26T11:29:12Z</time>
      </trkpt>
      <trkpt lat="41.7060390" lon="2.0765930">
        <ele>687.7</ele>
        <time>2022-09-26T11:29:13Z</time>
      </trkpt>
      <trkpt lat="41.7060350" lon="2.0766480">
        <ele>687.9</ele>
        <time>2022-09-26T11:29:15Z</time>
      </trkpt>
      <trkpt lat="41.7060340" lon="2.0766730">
        <ele>688.0</ele>
        <time>2022-09-26T11:29:16Z</time>
      </trkpt>
      <trkpt lat="41.7060330" lon="2.0767100">
        <ele>688.1</ele>
        <time>2022-09-26T11:29:17Z</time>
      </trkpt>
      <trkpt lat="41.7060370" lon="2.0767530">
        <ele>688.3</ele>
        <time>2022-09-26T11:29:18Z</time>
      </trkpt>
      <trkpt lat="41.7060390" lon="2.0767650">
        <ele>688.3</ele>
        <time>2022-09-26T11:29:19Z</time>
      </trkpt>
      <trkpt lat="41.7060390" lon="2.0767900">
        <ele>688.4</ele>
        <time>2022-09-26T11:29:20Z</time>
      </trkpt>
      <trkpt lat="41.7060370" lon="2.0768470">
        <ele>688.6</ele>
        <time>2022-09-26T11:29:22Z</time>
      </trkpt>
      <trkpt lat="41.7060420" lon="2.0768920">
        <ele>688.7</ele>
        <time>2022-09-26T11:29:23Z</time>
      </trkpt>
      <trkpt lat="41.7060440" lon="2.0769060">
        <ele>688.7</ele>
        <time>2022-09-26T11:29:24Z</time>
      </trkpt>
      <trkpt lat="41.7060640" lon="2.0769550">
        <ele>688.9</ele>
        <time>2022-09-26T11:29:26Z</time>
      </trkpt>
      <trkpt lat="41.7060710" lon="2.0769710">
        <ele>688.9</ele>
        <time>2022-09-26T11:29:27Z</time>
      </trkpt>
      <trkpt lat="41.7060770" lon="2.0769880">
        <ele>688.9</ele>
        <time>2022-09-26T11:29:28Z</time>
      </trkpt>
      <trkpt lat="41.7061000" lon="2.0770140">
        <ele>689.0</ele>
        <time>2022-09-26T11:29:29Z</time>
      </trkpt>
      <trkpt lat="41.7061080" lon="2.0770230">
        <ele>689.0</ele>
        <time>2022-09-26T11:29:30Z</time>
      </trkpt>
      <trkpt lat="41.7061370" lon="2.0770520">
        <ele>689.0</ele>
        <time>2022-09-26T11:29:32Z</time>
      </trkpt>
      <trkpt lat="41.7061470" lon="2.0770610">
        <ele>689.0</ele>
        <time>2022-09-26T11:29:33Z</time>
      </trkpt>
      <trkpt lat="41.7061860" lon="2.0770840">
        <ele>689.0</ele>
        <time>2022-09-26T11:29:34Z</time>
      </trkpt>
      <trkpt lat="41.7062020" lon="2.0770920">
        <ele>689.0</ele>
        <time>2022-09-26T11:29:35Z</time>
      </trkpt>
      <trkpt lat="41.7062200" lon="2.0770950">
        <ele>689.0</ele>
        <time>2022-09-26T11:29:36Z</time>
      </trkpt>
      <trkpt lat="41.7062610" lon="2.0771030">
        <ele>688.9</ele>
        <time>2022-09-26T11:29:38Z</time>
      </trkpt>
      <trkpt lat="41.7062910" lon="2.0771110">
        <ele>688.8</ele>
        <time>2022-09-26T11:29:39Z</time>
      </trkpt>
      <trkpt lat="41.7063210" lon="2.0771160">
        <ele>688.8</ele>
        <time>2022-09-26T11:29:40Z</time>
      </trkpt>
      <trkpt lat="41.7063630" lon="2.0771240">
        <ele>688.7</ele>
        <time>2022-09-26T11:29:42Z</time>
      </trkpt>
      <trkpt lat="41.7064030" lon="2.0771300">
        <ele>688.6</ele>
        <time>2022-09-26T11:29:43Z</time>
      </trkpt>
      <trkpt lat="41.7064530" lon="2.0771400">
        <ele>688.5</ele>
        <time>2022-09-26T11:29:44Z</time>
      </trkpt>
      <trkpt lat="41.7065240" lon="2.0771720">
        <ele>688.3</ele>
        <time>2022-09-26T11:29:45Z</time>
      </trkpt>
      <trkpt lat="41.7065520" lon="2.0771850">
        <ele>688.3</ele>
        <time>2022-09-26T11:29:46Z</time>
      </trkpt>
      <trkpt lat="41.7066020" lon="2.0772110">
        <ele>688.3</ele>
        <time>2022-09-26T11:29:47Z</time>
      </trkpt>
      <trkpt lat="41.7066490" lon="2.0772340">
        <ele>688.3</ele>
        <time>2022-09-26T11:29:48Z</time>
      </trkpt>
      <trkpt lat="41.7066930" lon="2.0772520">
        <ele>688.3</ele>
        <time>2022-09-26T11:29:49Z</time>
      </trkpt>
      <trkpt lat="41.7067220" lon="2.0772570">
        <ele>688.4</ele>
        <time>2022-09-26T11:29:50Z</time>
      </trkpt>
      <trkpt lat="41.7067700" lon="2.0772630">
        <ele>688.5</ele>
        <time>2022-09-26T11:29:51Z</time>
      </trkpt>
      <trkpt lat="41.7068170" lon="2.0772660">
        <ele>688.6</ele>
        <time>2022-09-26T11:29:52Z</time>
      </trkpt>
      <trkpt lat="41.7068480" lon="2.0772700">
        <ele>688.7</ele>
        <time>2022-09-26T11:29:53Z</time>
      </trkpt>
      <trkpt lat="41.7068910" lon="2.0772640">
        <ele>688.8</ele>
        <time>2022-09-26T11:29:55Z</time>
      </trkpt>
      <trkpt lat="41.7069410" lon="2.0772570">
        <ele>689.0</ele>
        <time>2022-09-26T11:29:56Z</time>
      </trkpt>
      <trkpt lat="41.7069760" lon="2.0772540">
        <ele>689.1</ele>
        <time>2022-09-26T11:29:57Z</time>
      </trkpt>
      <trkpt lat="41.7070180" lon="2.0772500">
        <ele>689.3</ele>
        <time>2022-09-26T11:29:58Z</time>
      </trkpt>
      <trkpt lat="41.7070600" lon="2.0772410">
        <ele>689.5</ele>
        <time>2022-09-26T11:30:00Z</time>
      </trkpt>
      <trkpt lat="41.7071090" lon="2.0772340">
        <ele>689.7</ele>
        <time>2022-09-26T11:30:01Z</time>
      </trkpt>
      <trkpt lat="41.7071560" lon="2.0772220">
        <ele>689.8</ele>
        <time>2022-09-26T11:30:03Z</time>
      </trkpt>
      <trkpt lat="41.7071930" lon="2.0772160">
        <ele>689.9</ele>
        <time>2022-09-26T11:30:04Z</time>
      </trkpt>
      <trkpt lat="41.7072290" lon="2.0772180">
        <ele>690.0</ele>
        <time>2022-09-26T11:30:05Z</time>
      </trkpt>
      <trkpt lat="41.7072640" lon="2.0772330">
        <ele>690.1</ele>
        <time>2022-09-26T11:30:06Z</time>
      </trkpt>
      <trkpt lat="41.7073040" lon="2.0772770">
        <ele>690.2</ele>
        <time>2022-09-26T11:30:07Z</time>
      </trkpt>
      <trkpt lat="41.7073290" lon="2.0773360">
        <ele>690.3</ele>
        <time>2022-09-26T11:30:08Z</time>
      </trkpt>
      <trkpt lat="41.7073350" lon="2.0773900">
        <ele>690.3</ele>
        <time>2022-09-26T11:30:09Z</time>
      </trkpt>
      <trkpt lat="41.7073260" lon="2.0774310">
        <ele>690.4</ele>
        <time>2022-09-26T11:30:10Z</time>
      </trkpt>
      <trkpt lat="41.7073170" lon="2.0774810">
        <ele>690.5</ele>
        <time>2022-09-26T11:30:12Z</time>
      </trkpt>
      <trkpt lat="41.7073030" lon="2.0775240">
        <ele>690.6</ele>
        <time>2022-09-26T11:30:13Z</time>
      </trkpt>
      <trkpt lat="41.7072770" lon="2.0775970">
        <ele>690.7</ele>
        <time>2022-09-26T11:30:14Z</time>
      </trkpt>
      <trkpt lat="41.7072590" lon="2.0776410">
        <ele>690.9</ele>
        <time>2022-09-26T11:30:15Z</time>
      </trkpt>
      <trkpt lat="41.7072470" lon="2.0776860">
        <ele>691.0</ele>
        <time>2022-09-26T11:30:17Z</time>
      </trkpt>
      <trkpt lat="41.7072400" lon="2.0777250">
        <ele>691.2</ele>
        <time>2022-09-26T11:30:18Z</time>
      </trkpt>
      <trkpt lat="41.7072320" lon="2.0777600">
        <ele>691.3</ele>
        <time>2022-09-26T11:30:19Z</time>
      </trkpt>
      <trkpt lat="41.7072270" lon="2.0778000">
        <ele>691.4</ele>
        <time>2022-09-26T11:30:20Z</time>
      </trkpt>
      <trkpt lat="41.7072250" lon="2.0778400">
        <ele>691.6</ele>
        <time>2022-09-26T11:30:21Z</time>
      </trkpt>
      <trkpt lat="41.7072340" lon="2.0778910">
        <ele>691.7</ele>
        <time>2022-09-26T11:30:23Z</time>
      </trkpt>
      <trkpt lat="41.7072360" lon="2.0779080">
        <ele>691.8</ele>
        <time>2022-09-26T11:30:24Z</time>
      </trkpt>
      <trkpt lat="41.7072400" lon="2.0779630">
        <ele>692.0</ele>
        <time>2022-09-26T11:30:25Z</time>
      </trkpt>
      <trkpt lat="41.7072420" lon="2.0779820">
        <ele>692.0</ele>
        <time>2022-09-26T11:30:26Z</time>
      </trkpt>
      <trkpt lat="41.7072520" lon="2.0780220">
        <ele>692.1</ele>
        <time>2022-09-26T11:30:27Z</time>
      </trkpt>
      <trkpt lat="41.7072550" lon="2.0780510">
        <ele>692.2</ele>
        <time>2022-09-26T11:30:28Z</time>
      </trkpt>
      <trkpt lat="41.7072630" lon="2.0781170">
        <ele>692.4</ele>
        <time>2022-09-26T11:30:30Z</time>
      </trkpt>
      <trkpt lat="41.7072670" lon="2.0781570">
        <ele>692.5</ele>
        <time>2022-09-26T11:30:31Z</time>
      </trkpt>
      <trkpt lat="41.7072740" lon="2.0782080">
        <ele>692.6</ele>
        <time>2022-09-26T11:30:32Z</time>
      </trkpt>
      <trkpt lat="41.7072790" lon="2.0782550">
        <ele>692.7</ele>
        <time>2022-09-26T11:30:33Z</time>
      </trkpt>
      <trkpt lat="41.7072840" lon="2.0782960">
        <ele>692.9</ele>
        <time>2022-09-26T11:30:34Z</time>
      </trkpt>
      <trkpt lat="41.7072870" lon="2.0783550">
        <ele>693.0</ele>
        <time>2022-09-26T11:30:35Z</time>
      </trkpt>
      <trkpt lat="41.7072890" lon="2.0783980">
        <ele>693.2</ele>
        <time>2022-09-26T11:30:36Z</time>
      </trkpt>
      <trkpt lat="41.7072880" lon="2.0784350">
        <ele>693.3</ele>
        <time>2022-09-26T11:30:37Z</time>
      </trkpt>
      <trkpt lat="41.7072840" lon="2.0784760">
        <ele>693.4</ele>
        <time>2022-09-26T11:30:38Z</time>
      </trkpt>
      <trkpt lat="41.7072750" lon="2.0785300">
        <ele>693.6</ele>
        <time>2022-09-26T11:30:40Z</time>
      </trkpt>
      <trkpt lat="41.7072670" lon="2.0785640">
        <ele>693.7</ele>
        <time>2022-09-26T11:30:41Z</time>
      </trkpt>
      <trkpt lat="41.7072550" lon="2.0785990">
        <ele>693.9</ele>
        <time>2022-09-26T11:30:42Z</time>
      </trkpt>
      <trkpt lat="41.7072420" lon="2.0786450">
        <ele>694.0</ele>
        <time>2022-09-26T11:30:43Z</time>
      </trkpt>
      <trkpt lat="41.7072370" lon="2.0786600">
        <ele>694.1</ele>
        <time>2022-09-26T11:30:44Z</time>
      </trkpt>
      <trkpt lat="41.7072250" lon="2.0787100">
        <ele>694.2</ele>
        <time>2022-09-26T11:30:45Z</time>
      </trkpt>
      <trkpt lat="41.7072220" lon="2.0787260">
        <ele>694.3</ele>
        <time>2022-09-26T11:30:46Z</time>
      </trkpt>
      <trkpt lat="41.7072110" lon="2.0787890">
        <ele>694.4</ele>
        <time>2022-09-26T11:30:48Z</time>
      </trkpt>
      <trkpt lat="41.7072020" lon="2.0788460">
        <ele>694.6</ele>
        <time>2022-09-26T11:30:49Z</time>
      </trkpt>
      <trkpt lat="41.7072010" lon="2.0788900">
        <ele>694.7</ele>
        <time>2022-09-26T11:30:50Z</time>
      </trkpt>
      <trkpt lat="41.7072010" lon="2.0789310">
        <ele>694.8</ele>
        <time>2022-09-26T11:30:51Z</time>
      </trkpt>
      <trkpt lat="41.7071980" lon="2.0789700">
        <ele>694.9</ele>
        <time>2022-09-26T11:30:52Z</time>
      </trkpt>
      <trkpt lat="41.7071990" lon="2.0790150">
        <ele>694.9</ele>
        <time>2022-09-26T11:30:53Z</time>
      </trkpt>
      <trkpt lat="41.7072050" lon="2.0790510">
        <ele>695.0</ele>
        <time>2022-09-26T11:30:54Z</time>
      </trkpt>
      <trkpt lat="41.7072140" lon="2.0790820">
        <ele>695.1</ele>
        <time>2022-09-26T11:30:55Z</time>
      </trkpt>
      <trkpt lat="41.7072290" lon="2.0791250">
        <ele>695.1</ele>
        <time>2022-09-26T11:30:57Z</time>
      </trkpt>
      <trkpt lat="41.7072420" lon="2.0791620">
        <ele>695.2</ele>
        <time>2022-09-26T11:30:58Z</time>
      </trkpt>
      <trkpt lat="41.7072570" lon="2.0792090">
        <ele>695.2</ele>
        <time>2022-09-26T11:30:59Z</time>
      </trkpt>
      <trkpt lat="41.7072720" lon="2.0792530">
        <ele>695.3</ele>
        <time>2022-09-26T11:31:00Z</time>
      </trkpt>
      <trkpt lat="41.7072890" lon="2.0792990">
        <ele>695.3</ele>
        <time>2022-09-26T11:31:01Z</time>
      </trkpt>
      <trkpt lat="41.7072940" lon="2.0793140">
        <ele>695.3</ele>
        <time>2022-09-26T11:31:02Z</time>
      </trkpt>
      <trkpt lat="41.7073110" lon="2.0793580">
        <ele>695.3</ele>
        <time>2022-09-26T11:31:04Z</time>
      </trkpt>
      <trkpt lat="41.7073230" lon="2.0793920">
        <ele>695.3</ele>
        <time>2022-09-26T11:31:05Z</time>
      </trkpt>
      <trkpt lat="41.7073340" lon="2.0794290">
        <ele>695.3</ele>
        <time>2022-09-26T11:31:06Z</time>
      </trkpt>
      <trkpt lat="41.7073440" lon="2.0794790">
        <ele>695.2</ele>
        <time>2022-09-26T11:31:07Z</time>
      </trkpt>
      <trkpt lat="41.7073460" lon="2.0794970">
        <ele>695.2</ele>
        <time>2022-09-26T11:31:08Z</time>
      </trkpt>
      <trkpt lat="41.7073520" lon="2.0795460">
        <ele>695.2</ele>
        <time>2022-09-26T11:31:09Z</time>
      </trkpt>
      <trkpt lat="41.7073640" lon="2.0796090">
        <ele>695.1</ele>
        <time>2022-09-26T11:31:10Z</time>
      </trkpt>
      <trkpt lat="41.7073710" lon="2.0796620">
        <ele>695.1</ele>
        <time>2022-09-26T11:31:11Z</time>
      </trkpt>
      <trkpt lat="41.7073700" lon="2.0797080">
        <ele>695.1</ele>
        <time>2022-09-26T11:31:12Z</time>
      </trkpt>
      <trkpt lat="41.7073670" lon="2.0797980">
        <ele>695.1</ele>
        <time>2022-09-26T11:31:14Z</time>
      </trkpt>
      <trkpt lat="41.7073700" lon="2.0798800">
        <ele>695.2</ele>
        <time>2022-09-26T11:31:15Z</time>
      </trkpt>
      <trkpt lat="41.7073790" lon="2.0799450">
        <ele>695.2</ele>
        <time>2022-09-26T11:31:16Z</time>
      </trkpt>
      <trkpt lat="41.7073910" lon="2.0799970">
        <ele>695.3</ele>
        <time>2022-09-26T11:31:17Z</time>
      </trkpt>
      <trkpt lat="41.7074030" lon="2.0800410">
        <ele>695.3</ele>
        <time>2022-09-26T11:31:18Z</time>
      </trkpt>
      <trkpt lat="41.7074170" lon="2.0800900">
        <ele>695.4</ele>
        <time>2022-09-26T11:31:19Z</time>
      </trkpt>
      <trkpt lat="41.7074350" lon="2.0801490">
        <ele>695.5</ele>
        <time>2022-09-26T11:31:20Z</time>
      </trkpt>
      <trkpt lat="41.7074460" lon="2.0802130">
        <ele>695.5</ele>
        <time>2022-09-26T11:31:21Z</time>
      </trkpt>
      <trkpt lat="41.7074560" lon="2.0802740">
        <ele>695.7</ele>
        <time>2022-09-26T11:31:22Z</time>
      </trkpt>
      <trkpt lat="41.7074620" lon="2.0803230">
        <ele>695.8</ele>
        <time>2022-09-26T11:31:23Z</time>
      </trkpt>
      <trkpt lat="41.7074650" lon="2.0803700">
        <ele>696.0</ele>
        <time>2022-09-26T11:31:24Z</time>
      </trkpt>
      <trkpt lat="41.7074670" lon="2.0804220">
        <ele>696.2</ele>
        <time>2022-09-26T11:31:26Z</time>
      </trkpt>
      <trkpt lat="41.7074660" lon="2.0804610">
        <ele>696.3</ele>
        <time>2022-09-26T11:31:27Z</time>
      </trkpt>
      <trkpt lat="41.7074560" lon="2.0805110">
        <ele>696.5</ele>
        <time>2022-09-26T11:31:28Z</time>
      </trkpt>
      <trkpt lat="41.7074520" lon="2.0805300">
        <ele>696.6</ele>
        <time>2022-09-26T11:31:29Z</time>
      </trkpt>
      <trkpt lat="41.7074450" lon="2.0805560">
        <ele>696.7</ele>
        <time>2022-09-26T11:31:30Z</time>
      </trkpt>
      <trkpt lat="41.7074360" lon="2.0806160">
        <ele>696.9</ele>
        <time>2022-09-26T11:31:32Z</time>
      </trkpt>
      <trkpt lat="41.7074270" lon="2.0806770">
        <ele>697.1</ele>
        <time>2022-09-26T11:31:33Z</time>
      </trkpt>
      <trkpt lat="41.7074220" lon="2.0807130">
        <ele>697.2</ele>
        <time>2022-09-26T11:31:34Z</time>
      </trkpt>
      <trkpt lat="41.7074160" lon="2.0807810">
        <ele>697.4</ele>
        <time>2022-09-26T11:31:36Z</time>
      </trkpt>
      <trkpt lat="41.7074170" lon="2.0808040">
        <ele>697.5</ele>
        <time>2022-09-26T11:31:37Z</time>
      </trkpt>
      <trkpt lat="41.7074170" lon="2.0808270">
        <ele>697.6</ele>
        <time>2022-09-26T11:31:38Z</time>
      </trkpt>
      <trkpt lat="41.7074250" lon="2.0808690">
        <ele>697.7</ele>
        <time>2022-09-26T11:31:39Z</time>
      </trkpt>
      <trkpt lat="41.7074290" lon="2.0808820">
        <ele>697.7</ele>
        <time>2022-09-26T11:31:40Z</time>
      </trkpt>
      <trkpt lat="41.7074390" lon="2.0809150">
        <ele>697.8</ele>
        <time>2022-09-26T11:31:41Z</time>
      </trkpt>
      <trkpt lat="41.7074530" lon="2.0809650">
        <ele>697.9</ele>
        <time>2022-09-26T11:31:43Z</time>
      </trkpt>
      <trkpt lat="41.7074700" lon="2.0810070">
        <ele>698.0</ele>
        <time>2022-09-26T11:31:44Z</time>
      </trkpt>
      <trkpt lat="41.7074860" lon="2.0810390">
        <ele>698.1</ele>
        <time>2022-09-26T11:31:45Z</time>
      </trkpt>
      <trkpt lat="41.7075070" lon="2.0810740">
        <ele>698.2</ele>
        <time>2022-09-26T11:31:46Z</time>
      </trkpt>
      <trkpt lat="41.7075270" lon="2.0810970">
        <ele>698.3</ele>
        <time>2022-09-26T11:31:47Z</time>
      </trkpt>
      <trkpt lat="41.7075560" lon="2.0811300">
        <ele>698.4</ele>
        <time>2022-09-26T11:31:49Z</time>
      </trkpt>
      <trkpt lat="41.7075900" lon="2.0811690">
        <ele>698.5</ele>
        <time>2022-09-26T11:31:50Z</time>
      </trkpt>
      <trkpt lat="41.7076130" lon="2.0811880">
        <ele>698.6</ele>
        <time>2022-09-26T11:31:51Z</time>
      </trkpt>
      <trkpt lat="41.7076460" lon="2.0812120">
        <ele>698.7</ele>
        <time>2022-09-26T11:31:53Z</time>
      </trkpt>
      <trkpt lat="41.7076740" lon="2.0812340">
        <ele>698.8</ele>
        <time>2022-09-26T11:31:54Z</time>
      </trkpt>
      <trkpt lat="41.7076990" lon="2.0812510">
        <ele>698.8</ele>
        <time>2022-09-26T11:31:55Z</time>
      </trkpt>
      <trkpt lat="41.7077260" lon="2.0812660">
        <ele>698.9</ele>
        <time>2022-09-26T11:31:56Z</time>
      </trkpt>
      <trkpt lat="41.7077510" lon="2.0812800">
        <ele>699.0</ele>
        <time>2022-09-26T11:31:57Z</time>
      </trkpt>
      <trkpt lat="41.7077840" lon="2.0812950">
        <ele>699.1</ele>
        <time>2022-09-26T11:31:59Z</time>
      </trkpt>
      <trkpt lat="41.7078250" lon="2.0813160">
        <ele>699.2</ele>
        <time>2022-09-26T11:32:00Z</time>
      </trkpt>
      <trkpt lat="41.7078430" lon="2.0813250">
        <ele>699.3</ele>
        <time>2022-09-26T11:32:01Z</time>
      </trkpt>
      <trkpt lat="41.7078690" lon="2.0813430">
        <ele>699.4</ele>
        <time>2022-09-26T11:32:02Z</time>
      </trkpt>
      <trkpt lat="41.7078910" lon="2.0813590">
        <ele>699.5</ele>
        <time>2022-09-26T11:32:03Z</time>
      </trkpt>
      <trkpt lat="41.7079160" lon="2.0813860">
        <ele>699.5</ele>
        <time>2022-09-26T11:32:05Z</time>
      </trkpt>
      <trkpt lat="41.7079410" lon="2.0814220">
        <ele>699.6</ele>
        <time>2022-09-26T11:32:06Z</time>
      </trkpt>
      <trkpt lat="41.7079510" lon="2.0814630">
        <ele>699.7</ele>
        <time>2022-09-26T11:32:07Z</time>
      </trkpt>
      <trkpt lat="41.7079540" lon="2.0814820">
        <ele>699.7</ele>
        <time>2022-09-26T11:32:08Z</time>
      </trkpt>
      <trkpt lat="41.7079600" lon="2.0815140">
        <ele>699.8</ele>
        <time>2022-09-26T11:32:09Z</time>
      </trkpt>
      <trkpt lat="41.7079760" lon="2.0815780">
        <ele>699.9</ele>
        <time>2022-09-26T11:32:11Z</time>
      </trkpt>
      <trkpt lat="41.7079840" lon="2.0816060">
        <ele>699.9</ele>
        <time>2022-09-26T11:32:12Z</time>
      </trkpt>
      <trkpt lat="41.7080060" lon="2.0816580">
        <ele>700.0</ele>
        <time>2022-09-26T11:32:14Z</time>
      </trkpt>
      <trkpt lat="41.7080240" lon="2.0816950">
        <ele>700.0</ele>
        <time>2022-09-26T11:32:15Z</time>
      </trkpt>
      <trkpt lat="41.7080410" lon="2.0817370">
        <ele>700.0</ele>
        <time>2022-09-26T11:32:16Z</time>
      </trkpt>
      <trkpt lat="41.7080560" lon="2.0817750">
        <ele>700.0</ele>
        <time>2022-09-26T11:32:17Z</time>
      </trkpt>
      <trkpt lat="41.7080690" lon="2.0818150">
        <ele>700.0</ele>
        <time>2022-09-26T11:32:18Z</time>
      </trkpt>
      <trkpt lat="41.7080860" lon="2.0818600">
        <ele>700.0</ele>
        <time>2022-09-26T11:32:19Z</time>
      </trkpt>
      <trkpt lat="41.7081070" lon="2.0819050">
        <ele>700.0</ele>
        <time>2022-09-26T11:32:21Z</time>
      </trkpt>
      <trkpt lat="41.7081340" lon="2.0819490">
        <ele>700.0</ele>
        <time>2022-09-26T11:32:22Z</time>
      </trkpt>
      <trkpt lat="41.7081580" lon="2.0819930">
        <ele>700.1</ele>
        <time>2022-09-26T11:32:23Z</time>
      </trkpt>
      <trkpt lat="41.7081800" lon="2.0820430">
        <ele>700.1</ele>
        <time>2022-09-26T11:32:24Z</time>
      </trkpt>
      <trkpt lat="41.7082010" lon="2.0821000">
        <ele>700.2</ele>
        <time>2022-09-26T11:32:25Z</time>
      </trkpt>
      <trkpt lat="41.7082260" lon="2.0821610">
        <ele>700.3</ele>
        <time>2022-09-26T11:32:26Z</time>
      </trkpt>
      <trkpt lat="41.7082560" lon="2.0822210">
        <ele>700.6</ele>
        <time>2022-09-26T11:32:27Z</time>
      </trkpt>
      <trkpt lat="41.7082790" lon="2.0822580">
        <ele>700.7</ele>
        <time>2022-09-26T11:32:28Z</time>
      </trkpt>
      <trkpt lat="41.7082990" lon="2.0822820">
        <ele>700.9</ele>
        <time>2022-09-26T11:32:29Z</time>
      </trkpt>
      <trkpt lat="41.7083200" lon="2.0823120">
        <ele>701.1</ele>
        <time>2022-09-26T11:32:30Z</time>
      </trkpt>
      <trkpt lat="41.7083240" lon="2.0823200">
        <ele>701.2</ele>
        <time>2022-09-26T11:32:31Z</time>
      </trkpt>
      <trkpt lat="41.7083270" lon="2.0823330">
        <ele>701.3</ele>
        <time>2022-09-26T11:32:32Z</time>
      </trkpt>
      <trkpt lat="41.7083300" lon="2.0823600">
        <ele>701.4</ele>
        <time>2022-09-26T11:32:34Z</time>
      </trkpt>
      <trkpt lat="41.7083380" lon="2.0823780">
        <ele>701.6</ele>
        <time>2022-09-26T11:32:35Z</time>
      </trkpt>
      <trkpt lat="41.7083490" lon="2.0823970">
        <ele>701.7</ele>
        <time>2022-09-26T11:32:36Z</time>
      </trkpt>
      <trkpt lat="41.7083720" lon="2.0824390">
        <ele>702.0</ele>
        <time>2022-09-26T11:32:38Z</time>
      </trkpt>
      <trkpt lat="41.7083770" lon="2.0824570">
        <ele>702.1</ele>
        <time>2022-09-26T11:32:39Z</time>
      </trkpt>
      <trkpt lat="41.7083680" lon="2.0825140">
        <ele>702.5</ele>
        <time>2022-09-26T11:32:40Z</time>
      </trkpt>
      <trkpt lat="41.7083500" lon="2.0825450">
        <ele>702.6</ele>
        <time>2022-09-26T11:32:41Z</time>
      </trkpt>
      <trkpt lat="41.7083250" lon="2.0825720">
        <ele>702.8</ele>
        <time>2022-09-26T11:32:43Z</time>
      </trkpt>
      <trkpt lat="41.7082890" lon="2.0825860">
        <ele>702.9</ele>
        <time>2022-09-26T11:32:44Z</time>
      </trkpt>
      <trkpt lat="41.7082530" lon="2.0825910">
        <ele>703.0</ele>
        <time>2022-09-26T11:32:45Z</time>
      </trkpt>
      <trkpt lat="41.7082390" lon="2.0825910">
        <ele>703.1</ele>
        <time>2022-09-26T11:32:46Z</time>
      </trkpt>
      <trkpt lat="41.7082070" lon="2.0825880">
        <ele>703.2</ele>
        <time>2022-09-26T11:32:48Z</time>
      </trkpt>
      <trkpt lat="41.7081760" lon="2.0825770">
        <ele>703.3</ele>
        <time>2022-09-26T11:32:49Z</time>
      </trkpt>
      <trkpt lat="41.7081370" lon="2.0825600">
        <ele>703.4</ele>
        <time>2022-09-26T11:32:50Z</time>
      </trkpt>
      <trkpt lat="41.7081030" lon="2.0825420">
        <ele>703.5</ele>
        <time>2022-09-26T11:32:51Z</time>
      </trkpt>
      <trkpt lat="41.7080610" lon="2.0825270">
        <ele>703.7</ele>
        <time>2022-09-26T11:32:52Z</time>
      </trkpt>
      <trkpt lat="41.7080300" lon="2.0825160">
        <ele>703.9</ele>
        <time>2022-09-26T11:32:53Z</time>
      </trkpt>
      <trkpt lat="41.7079840" lon="2.0825080">
        <ele>704.1</ele>
        <time>2022-09-26T11:32:55Z</time>
      </trkpt>
      <trkpt lat="41.7079530" lon="2.0825030">
        <ele>704.3</ele>
        <time>2022-09-26T11:32:56Z</time>
      </trkpt>
      <trkpt lat="41.7079210" lon="2.0824990">
        <ele>704.6</ele>
        <time>2022-09-26T11:32:57Z</time>
      </trkpt>
      <trkpt lat="41.7078940" lon="2.0824940">
        <ele>704.8</ele>
        <time>2022-09-26T11:32:58Z</time>
      </trkpt>
      <trkpt lat="41.7078650" lon="2.0824900">
        <ele>705.1</ele>
        <time>2022-09-26T11:32:59Z</time>
      </trkpt>
      <trkpt lat="41.7078340" lon="2.0824900">
        <ele>705.4</ele>
        <time>2022-09-26T11:33:00Z</time>
      </trkpt>
      <trkpt lat="41.7078250" lon="2.0824920">
        <ele>705.5</ele>
        <time>2022-09-26T11:33:01Z</time>
      </trkpt>
      <trkpt lat="41.7077970" lon="2.0825020">
        <ele>705.8</ele>
        <time>2022-09-26T11:33:02Z</time>
      </trkpt>
      <trkpt lat="41.7077860" lon="2.0825040">
        <ele>705.9</ele>
        <time>2022-09-26T11:33:03Z</time>
      </trkpt>
      <trkpt lat="41.7077690" lon="2.0825110">
        <ele>706.1</ele>
        <time>2022-09-26T11:33:04Z</time>
      </trkpt>
      <trkpt lat="41.7077540" lon="2.0825180">
        <ele>706.3</ele>
        <time>2022-09-26T11:33:05Z</time>
      </trkpt>
      <trkpt lat="41.7077240" lon="2.0825320">
        <ele>706.6</ele>
        <time>2022-09-26T11:33:07Z</time>
      </trkpt>
      <trkpt lat="41.7077160" lon="2.0825350">
        <ele>706.7</ele>
        <time>2022-09-26T11:33:08Z</time>
      </trkpt>
      <trkpt lat="41.7076870" lon="2.0825490">
        <ele>707.1</ele>
        <time>2022-09-26T11:33:09Z</time>
      </trkpt>
      <trkpt lat="41.7076800" lon="2.0825530">
        <ele>707.2</ele>
        <time>2022-09-26T11:33:10Z</time>
      </trkpt>
      <trkpt lat="41.7076650" lon="2.0825610">
        <ele>707.3</ele>
        <time>2022-09-26T11:33:11Z</time>
      </trkpt>
      <trkpt lat="41.7076510" lon="2.0825690">
        <ele>707.5</ele>
        <time>2022-09-26T11:33:12Z</time>
      </trkpt>
      <trkpt lat="41.7076380" lon="2.0825780">
        <ele>707.6</ele>
        <time>2022-09-26T11:33:13Z</time>
      </trkpt>
      <trkpt lat="41.7076230" lon="2.0825870">
        <ele>707.8</ele>
        <time>2022-09-26T11:33:14Z</time>
      </trkpt>
      <trkpt lat="41.7075950" lon="2.0826010">
        <ele>708.1</ele>
        <time>2022-09-26T11:33:15Z</time>
      </trkpt>
      <trkpt lat="41.7075870" lon="2.0826040">
        <ele>708.2</ele>
        <time>2022-09-26T11:33:16Z</time>
      </trkpt>
      <trkpt lat="41.7075730" lon="2.0826080">
        <ele>708.4</ele>
        <time>2022-09-26T11:33:18Z</time>
      </trkpt>
      <trkpt lat="41.7075610" lon="2.0826130">
        <ele>708.5</ele>
        <time>2022-09-26T11:33:19Z</time>
      </trkpt>
      <trkpt lat="41.7075580" lon="2.0826140">
        <ele>708.5</ele>
        <time>2022-09-26T11:33:20Z</time>
      </trkpt>
      <trkpt lat="41.7075590" lon="2.0826120">
        <ele>708.5</ele>
        <time>2022-09-26T11:33:21Z</time>
      </trkpt>
      <trkpt lat="41.7075590" lon="2.0826100">
        <ele>708.5</ele>
        <time>2022-09-26T11:33:22Z</time>
      </trkpt>
      <trkpt lat="41.7075600" lon="2.0826110">
        <ele>708.5</ele>
        <time>2022-09-26T11:33:23Z</time>
      </trkpt>
      <trkpt lat="41.7075600" lon="2.0826110">
        <ele>708.5</ele>
        <time>2022-09-26T11:33:24Z</time>
      </trkpt>
      <trkpt lat="41.7075600" lon="2.0826120">
        <ele>708.6</ele>
        <time>2022-09-26T11:33:25Z</time>
      </trkpt>
      <trkpt lat="41.7075600" lon="2.0826130">
        <ele>708.6</ele>
        <time>2022-09-26T11:33:26Z</time>
      </trkpt>
      <trkpt lat="41.7075600" lon="2.0826150">
        <ele>708.6</ele>
        <time>2022-09-26T11:33:27Z</time>
      </trkpt>
      <trkpt lat="41.7075600" lon="2.0826170">
        <ele>708.6</ele>
        <time>2022-09-26T11:33:28Z</time>
      </trkpt>
      <trkpt lat="41.7075610" lon="2.0826180">
        <ele>708.6</ele>
        <time>2022-09-26T11:33:29Z</time>
      </trkpt>
      <trkpt lat="41.7075620" lon="2.0826190">
        <ele>708.6</ele>
        <time>2022-09-26T11:33:30Z</time>
      </trkpt>
      <trkpt lat="41.7075330" lon="2.0826340">
        <ele>708.9</ele>
        <time>2022-09-26T11:34:44Z</time>
      </trkpt>
      <trkpt lat="41.7075180" lon="2.0826400">
        <ele>709.1</ele>
        <time>2022-09-26T11:34:45Z</time>
      </trkpt>
      <trkpt lat="41.7075030" lon="2.0826430">
        <ele>709.2</ele>
        <time>2022-09-26T11:34:46Z</time>
      </trkpt>
      <trkpt lat="41.7074980" lon="2.0826420">
        <ele>709.2</ele>
        <time>2022-09-26T11:34:47Z</time>
      </trkpt>
      <trkpt lat="41.7074880" lon="2.0826370">
        <ele>709.3</ele>
        <time>2022-09-26T11:34:49Z</time>
      </trkpt>
      <trkpt lat="41.7074750" lon="2.0826290">
        <ele>709.5</ele>
        <time>2022-09-26T11:34:50Z</time>
      </trkpt>
      <trkpt lat="41.7074590" lon="2.0826180">
        <ele>709.6</ele>
        <time>2022-09-26T11:34:51Z</time>
      </trkpt>
      <trkpt lat="41.7074460" lon="2.0826080">
        <ele>709.7</ele>
        <time>2022-09-26T11:34:52Z</time>
      </trkpt>
      <trkpt lat="41.7074190" lon="2.0825930">
        <ele>710.0</ele>
        <time>2022-09-26T11:34:53Z</time>
      </trkpt>
      <trkpt lat="41.7074120" lon="2.0825900">
        <ele>710.1</ele>
        <time>2022-09-26T11:34:54Z</time>
      </trkpt>
      <trkpt lat="41.7073790" lon="2.0825800">
        <ele>710.3</ele>
        <time>2022-09-26T11:34:56Z</time>
      </trkpt>
      <trkpt lat="41.7073490" lon="2.0825610">
        <ele>710.6</ele>
        <time>2022-09-26T11:34:57Z</time>
      </trkpt>
      <trkpt lat="41.7073180" lon="2.0825430">
        <ele>710.8</ele>
        <time>2022-09-26T11:34:58Z</time>
      </trkpt>
      <trkpt lat="41.7072870" lon="2.0825280">
        <ele>711.1</ele>
        <time>2022-09-26T11:34:59Z</time>
      </trkpt>
      <trkpt lat="41.7072790" lon="2.0825230">
        <ele>711.1</ele>
        <time>2022-09-26T11:35:00Z</time>
      </trkpt>
      <trkpt lat="41.7072530" lon="2.0825110">
        <ele>711.3</ele>
        <time>2022-09-26T11:35:01Z</time>
      </trkpt>
      <trkpt lat="41.7072440" lon="2.0825090">
        <ele>711.4</ele>
        <time>2022-09-26T11:35:02Z</time>
      </trkpt>
      <trkpt lat="41.7072160" lon="2.0824940">
        <ele>711.6</ele>
        <time>2022-09-26T11:35:03Z</time>
      </trkpt>
      <trkpt lat="41.7072090" lon="2.0824910">
        <ele>711.7</ele>
        <time>2022-09-26T11:35:04Z</time>
      </trkpt>
      <trkpt lat="41.7071910" lon="2.0824830">
        <ele>711.8</ele>
        <time>2022-09-26T11:35:05Z</time>
      </trkpt>
      <trkpt lat="41.7071550" lon="2.0824770">
        <ele>712.1</ele>
        <time>2022-09-26T11:35:07Z</time>
      </trkpt>
      <trkpt lat="41.7071180" lon="2.0824710">
        <ele>712.4</ele>
        <time>2022-09-26T11:35:08Z</time>
      </trkpt>
      <trkpt lat="41.7071060" lon="2.0824690">
        <ele>712.5</ele>
        <time>2022-09-26T11:35:09Z</time>
      </trkpt>
      <trkpt lat="41.7070720" lon="2.0824550">
        <ele>712.8</ele>
        <time>2022-09-26T11:35:10Z</time>
      </trkpt>
      <trkpt lat="41.7070630" lon="2.0824510">
        <ele>712.9</ele>
        <time>2022-09-26T11:35:11Z</time>
      </trkpt>
      <trkpt lat="41.7070380" lon="2.0824340">
        <ele>713.2</ele>
        <time>2022-09-26T11:35:12Z</time>
      </trkpt>
      <trkpt lat="41.7070300" lon="2.0824290">
        <ele>713.3</ele>
        <time>2022-09-26T11:35:13Z</time>
      </trkpt>
      <trkpt lat="41.7070030" lon="2.0824130">
        <ele>713.6</ele>
        <time>2022-09-26T11:35:14Z</time>
      </trkpt>
      <trkpt lat="41.7069940" lon="2.0824070">
        <ele>713.7</ele>
        <time>2022-09-26T11:35:15Z</time>
      </trkpt>
      <trkpt lat="41.7069780" lon="2.0823970">
        <ele>713.9</ele>
        <time>2022-09-26T11:35:16Z</time>
      </trkpt>
      <trkpt lat="41.7069610" lon="2.0823850">
        <ele>714.1</ele>
        <time>2022-09-26T11:35:18Z</time>
      </trkpt>
      <trkpt lat="41.7069450" lon="2.0823780">
        <ele>714.3</ele>
        <time>2022-09-26T11:35:19Z</time>
      </trkpt>
      <trkpt lat="41.7069290" lon="2.0823760">
        <ele>714.4</ele>
        <time>2022-09-26T11:35:20Z</time>
      </trkpt>
      <trkpt lat="41.7069130" lon="2.0823670">
        <ele>714.6</ele>
        <time>2022-09-26T11:35:21Z</time>
      </trkpt>
      <trkpt lat="41.7068860" lon="2.0823500">
        <ele>715.0</ele>
        <time>2022-09-26T11:35:23Z</time>
      </trkpt>
      <trkpt lat="41.7068570" lon="2.0823300">
        <ele>715.3</ele>
        <time>2022-09-26T11:35:24Z</time>
      </trkpt>
      <trkpt lat="41.7068450" lon="2.0823220">
        <ele>715.5</ele>
        <time>2022-09-26T11:35:25Z</time>
      </trkpt>
      <trkpt lat="41.7068190" lon="2.0823040">
        <ele>715.9</ele>
        <time>2022-09-26T11:35:26Z</time>
      </trkpt>
      <trkpt lat="41.7068090" lon="2.0822970">
        <ele>716.0</ele>
        <time>2022-09-26T11:35:27Z</time>
      </trkpt>
      <trkpt lat="41.7067800" lon="2.0822660">
        <ele>716.5</ele>
        <time>2022-09-26T11:35:29Z</time>
      </trkpt>
      <trkpt lat="41.7067710" lon="2.0822570">
        <ele>716.6</ele>
        <time>2022-09-26T11:35:30Z</time>
      </trkpt>
      <trkpt lat="41.7067590" lon="2.0822420">
        <ele>716.8</ele>
        <time>2022-09-26T11:35:31Z</time>
      </trkpt>
      <trkpt lat="41.7067440" lon="2.0822270">
        <ele>717.1</ele>
        <time>2022-09-26T11:35:32Z</time>
      </trkpt>
      <trkpt lat="41.7067250" lon="2.0822210">
        <ele>717.3</ele>
        <time>2022-09-26T11:35:33Z</time>
      </trkpt>
      <trkpt lat="41.7067090" lon="2.0822170">
        <ele>717.5</ele>
        <time>2022-09-26T11:35:35Z</time>
      </trkpt>
      <trkpt lat="41.7066980" lon="2.0822080">
        <ele>717.7</ele>
        <time>2022-09-26T11:35:36Z</time>
      </trkpt>
      <trkpt lat="41.7066790" lon="2.0821970">
        <ele>718.0</ele>
        <time>2022-09-26T11:35:37Z</time>
      </trkpt>
      <trkpt lat="41.7066460" lon="2.0821930">
        <ele>718.4</ele>
        <time>2022-09-26T11:35:38Z</time>
      </trkpt>
      <trkpt lat="41.7066370" lon="2.0821930">
        <ele>718.5</ele>
        <time>2022-09-26T11:35:39Z</time>
      </trkpt>
      <trkpt lat="41.7066100" lon="2.0821980">
        <ele>718.9</ele>
        <time>2022-09-26T11:35:40Z</time>
      </trkpt>
      <trkpt lat="41.7066010" lon="2.0822000">
        <ele>719.0</ele>
        <time>2022-09-26T11:35:41Z</time>
      </trkpt>
      <trkpt lat="41.7065660" lon="2.0822010">
        <ele>719.2</ele>
        <time>2022-09-26T11:35:42Z</time>
      </trkpt>
      <trkpt lat="41.7065560" lon="2.0822020">
        <ele>719.3</ele>
        <time>2022-09-26T11:35:43Z</time>
      </trkpt>
      <trkpt lat="41.7065270" lon="2.0822100">
        <ele>719.5</ele>
        <time>2022-09-26T11:35:45Z</time>
      </trkpt>
      <trkpt lat="41.7065050" lon="2.0822150">
        <ele>719.7</ele>
        <time>2022-09-26T11:35:46Z</time>
      </trkpt>
      <trkpt lat="41.7064710" lon="2.0822320">
        <ele>720.0</ele>
        <time>2022-09-26T11:35:48Z</time>
      </trkpt>
      <trkpt lat="41.7064480" lon="2.0822610">
        <ele>720.2</ele>
        <time>2022-09-26T11:35:49Z</time>
      </trkpt>
      <trkpt lat="41.7064430" lon="2.0822680">
        <ele>720.2</ele>
        <time>2022-09-26T11:35:50Z</time>
      </trkpt>
      <trkpt lat="41.7064230" lon="2.0822970">
        <ele>720.5</ele>
        <time>2022-09-26T11:35:51Z</time>
      </trkpt>
      <trkpt lat="41.7064120" lon="2.0823110">
        <ele>720.6</ele>
        <time>2022-09-26T11:35:52Z</time>
      </trkpt>
      <trkpt lat="41.7064060" lon="2.0823290">
        <ele>720.7</ele>
        <time>2022-09-26T11:35:53Z</time>
      </trkpt>
      <trkpt lat="41.7063760" lon="2.0823760">
        <ele>721.0</ele>
        <time>2022-09-26T11:35:55Z</time>
      </trkpt>
      <trkpt lat="41.7063670" lon="2.0823890">
        <ele>721.2</ele>
        <time>2022-09-26T11:35:56Z</time>
      </trkpt>
      <trkpt lat="41.7063570" lon="2.0824030">
        <ele>721.3</ele>
        <time>2022-09-26T11:35:57Z</time>
      </trkpt>
      <trkpt lat="41.7063350" lon="2.0824580">
        <ele>721.7</ele>
        <time>2022-09-26T11:35:59Z</time>
      </trkpt>
      <trkpt lat="41.7063280" lon="2.0824760">
        <ele>721.8</ele>
        <time>2022-09-26T11:36:00Z</time>
      </trkpt>
      <trkpt lat="41.7063200" lon="2.0824940">
        <ele>722.0</ele>
        <time>2022-09-26T11:36:01Z</time>
      </trkpt>
      <trkpt lat="41.7063010" lon="2.0825410">
        <ele>722.3</ele>
        <time>2022-09-26T11:36:03Z</time>
      </trkpt>
      <trkpt lat="41.7062960" lon="2.0825570">
        <ele>722.4</ele>
        <time>2022-09-26T11:36:04Z</time>
      </trkpt>
      <trkpt lat="41.7062910" lon="2.0825730">
        <ele>722.6</ele>
        <time>2022-09-26T11:36:05Z</time>
      </trkpt>
      <trkpt lat="41.7062770" lon="2.0826080">
        <ele>722.8</ele>
        <time>2022-09-26T11:36:06Z</time>
      </trkpt>
      <trkpt lat="41.7062730" lon="2.0826190">
        <ele>722.9</ele>
        <time>2022-09-26T11:36:07Z</time>
      </trkpt>
      <trkpt lat="41.7062700" lon="2.0826420">
        <ele>723.1</ele>
        <time>2022-09-26T11:36:08Z</time>
      </trkpt>
      <trkpt lat="41.7062660" lon="2.0826690">
        <ele>723.3</ele>
        <time>2022-09-26T11:36:10Z</time>
      </trkpt>
      <trkpt lat="41.7062630" lon="2.0827140">
        <ele>723.5</ele>
        <time>2022-09-26T11:36:11Z</time>
      </trkpt>
      <trkpt lat="41.7062630" lon="2.0827260">
        <ele>723.6</ele>
        <time>2022-09-26T11:36:12Z</time>
      </trkpt>
      <trkpt lat="41.7062710" lon="2.0827610">
        <ele>723.8</ele>
        <time>2022-09-26T11:36:13Z</time>
      </trkpt>
      <trkpt lat="41.7062830" lon="2.0827910">
        <ele>724.0</ele>
        <time>2022-09-26T11:36:15Z</time>
      </trkpt>
      <trkpt lat="41.7063080" lon="2.0828170">
        <ele>724.3</ele>
        <time>2022-09-26T11:36:16Z</time>
      </trkpt>
      <trkpt lat="41.7063170" lon="2.0828250">
        <ele>724.4</ele>
        <time>2022-09-26T11:36:17Z</time>
      </trkpt>
      <trkpt lat="41.7063270" lon="2.0828330">
        <ele>724.5</ele>
        <time>2022-09-26T11:36:18Z</time>
      </trkpt>
      <trkpt lat="41.7063380" lon="2.0828420">
        <ele>724.6</ele>
        <time>2022-09-26T11:36:19Z</time>
      </trkpt>
      <trkpt lat="41.7063490" lon="2.0828540">
        <ele>724.7</ele>
        <time>2022-09-26T11:36:21Z</time>
      </trkpt>
      <trkpt lat="41.7063720" lon="2.0828760">
        <ele>724.9</ele>
        <time>2022-09-26T11:36:22Z</time>
      </trkpt>
      <trkpt lat="41.7063790" lon="2.0828840">
        <ele>725.0</ele>
        <time>2022-09-26T11:36:23Z</time>
      </trkpt>
      <trkpt lat="41.7063900" lon="2.0828970">
        <ele>725.2</ele>
        <time>2022-09-26T11:36:24Z</time>
      </trkpt>
      <trkpt lat="41.7064010" lon="2.0829090">
        <ele>725.3</ele>
        <time>2022-09-26T11:36:25Z</time>
      </trkpt>
      <trkpt lat="41.7064070" lon="2.0829150">
        <ele>725.4</ele>
        <time>2022-09-26T11:36:26Z</time>
      </trkpt>
      <trkpt lat="41.7064170" lon="2.0829250">
        <ele>725.5</ele>
        <time>2022-09-26T11:36:27Z</time>
      </trkpt>
      <trkpt lat="41.7064260" lon="2.0829370">
        <ele>725.6</ele>
        <time>2022-09-26T11:36:28Z</time>
      </trkpt>
      <trkpt lat="41.7064380" lon="2.0829580">
        <ele>725.8</ele>
        <time>2022-09-26T11:36:29Z</time>
      </trkpt>
      <trkpt lat="41.7064420" lon="2.0829670">
        <ele>725.9</ele>
        <time>2022-09-26T11:36:30Z</time>
      </trkpt>
      <trkpt lat="41.7064470" lon="2.0829760">
        <ele>726.0</ele>
        <time>2022-09-26T11:36:31Z</time>
      </trkpt>
      <trkpt lat="41.7064570" lon="2.0829970">
        <ele>726.2</ele>
        <time>2022-09-26T11:36:32Z</time>
      </trkpt>
      <trkpt lat="41.7064610" lon="2.0830070">
        <ele>726.3</ele>
        <time>2022-09-26T11:36:33Z</time>
      </trkpt>
      <trkpt lat="41.7064660" lon="2.0830180">
        <ele>726.4</ele>
        <time>2022-09-26T11:36:34Z</time>
      </trkpt>
      <trkpt lat="41.7064680" lon="2.0830230">
        <ele>726.5</ele>
        <time>2022-09-26T11:36:36Z</time>
      </trkpt>
      <trkpt lat="41.7064680" lon="2.0830270">
        <ele>726.5</ele>
        <time>2022-09-26T11:36:37Z</time>
      </trkpt>
      <trkpt lat="41.7064790" lon="2.0830400">
        <ele>726.7</ele>
        <time>2022-09-26T11:36:38Z</time>
      </trkpt>
      <trkpt lat="41.7064950" lon="2.0830570">
        <ele>727.0</ele>
        <time>2022-09-26T11:36:40Z</time>
      </trkpt>
      <trkpt lat="41.7065080" lon="2.0830700">
        <ele>727.2</ele>
        <time>2022-09-26T11:36:41Z</time>
      </trkpt>
      <trkpt lat="41.7065150" lon="2.0830760">
        <ele>727.3</ele>
        <time>2022-09-26T11:36:42Z</time>
      </trkpt>
      <trkpt lat="41.7065240" lon="2.0830910">
        <ele>727.4</ele>
        <time>2022-09-26T11:36:44Z</time>
      </trkpt>
      <trkpt lat="41.7065390" lon="2.0831230">
        <ele>727.8</ele>
        <time>2022-09-26T11:36:45Z</time>
      </trkpt>
      <trkpt lat="41.7065470" lon="2.0831440">
        <ele>728.0</ele>
        <time>2022-09-26T11:36:46Z</time>
      </trkpt>
      <trkpt lat="41.7065590" lon="2.0831760">
        <ele>728.3</ele>
        <time>2022-09-26T11:36:48Z</time>
      </trkpt>
      <trkpt lat="41.7065750" lon="2.0832170">
        <ele>728.7</ele>
        <time>2022-09-26T11:36:49Z</time>
      </trkpt>
      <trkpt lat="41.7065810" lon="2.0832320">
        <ele>728.8</ele>
        <time>2022-09-26T11:36:50Z</time>
      </trkpt>
      <trkpt lat="41.7065870" lon="2.0832540">
        <ele>729.0</ele>
        <time>2022-09-26T11:36:51Z</time>
      </trkpt>
      <trkpt lat="41.7065900" lon="2.0832710">
        <ele>729.1</ele>
        <time>2022-09-26T11:36:52Z</time>
      </trkpt>
      <trkpt lat="41.7065920" lon="2.0833190">
        <ele>729.5</ele>
        <time>2022-09-26T11:36:54Z</time>
      </trkpt>
      <trkpt lat="41.7065930" lon="2.0833320">
        <ele>729.5</ele>
        <time>2022-09-26T11:36:55Z</time>
      </trkpt>
      <trkpt lat="41.7065930" lon="2.0833680">
        <ele>729.7</ele>
        <time>2022-09-26T11:36:56Z</time>
      </trkpt>
      <trkpt lat="41.7065920" lon="2.0834070">
        <ele>729.9</ele>
        <time>2022-09-26T11:36:57Z</time>
      </trkpt>
      <trkpt lat="41.7065860" lon="2.0834410">
        <ele>730.1</ele>
        <time>2022-09-26T11:36:58Z</time>
      </trkpt>
      <trkpt lat="41.7065810" lon="2.0834710">
        <ele>730.2</ele>
        <time>2022-09-26T11:37:00Z</time>
      </trkpt>
      <trkpt lat="41.7065740" lon="2.0835050">
        <ele>730.3</ele>
        <time>2022-09-26T11:37:01Z</time>
      </trkpt>
      <trkpt lat="41.7065710" lon="2.0835170">
        <ele>730.4</ele>
        <time>2022-09-26T11:37:02Z</time>
      </trkpt>
      <trkpt lat="41.7065710" lon="2.0835230">
        <ele>730.4</ele>
        <time>2022-09-26T11:37:03Z</time>
      </trkpt>
      <trkpt lat="41.7065660" lon="2.0835430">
        <ele>730.5</ele>
        <time>2022-09-26T11:37:04Z</time>
      </trkpt>
      <trkpt lat="41.7065620" lon="2.0835590">
        <ele>730.5</ele>
        <time>2022-09-26T11:37:05Z</time>
      </trkpt>
      <trkpt lat="41.7065440" lon="2.0835880">
        <ele>730.6</ele>
        <time>2022-09-26T11:37:07Z</time>
      </trkpt>
      <trkpt lat="41.7065170" lon="2.0836130">
        <ele>730.7</ele>
        <time>2022-09-26T11:37:08Z</time>
      </trkpt>
      <trkpt lat="41.7064960" lon="2.0836380">
        <ele>730.8</ele>
        <time>2022-09-26T11:37:09Z</time>
      </trkpt>
      <trkpt lat="41.7064680" lon="2.0836570">
        <ele>730.8</ele>
        <time>2022-09-26T11:37:10Z</time>
      </trkpt>
      <trkpt lat="41.7064600" lon="2.0836620">
        <ele>730.9</ele>
        <time>2022-09-26T11:37:11Z</time>
      </trkpt>
      <trkpt lat="41.7064350" lon="2.0836800">
        <ele>730.9</ele>
        <time>2022-09-26T11:37:12Z</time>
      </trkpt>
      <trkpt lat="41.7064020" lon="2.0837010">
        <ele>731.0</ele>
        <time>2022-09-26T11:37:13Z</time>
      </trkpt>
      <trkpt lat="41.7063910" lon="2.0837100">
        <ele>731.1</ele>
        <time>2022-09-26T11:37:14Z</time>
      </trkpt>
      <trkpt lat="41.7063640" lon="2.0837220">
        <ele>731.1</ele>
        <time>2022-09-26T11:37:16Z</time>
      </trkpt>
      <trkpt lat="41.7063330" lon="2.0837350">
        <ele>731.2</ele>
        <time>2022-09-26T11:37:17Z</time>
      </trkpt>
      <trkpt lat="41.7062910" lon="2.0837530">
        <ele>731.3</ele>
        <time>2022-09-26T11:37:18Z</time>
      </trkpt>
      <trkpt lat="41.7062650" lon="2.0837650">
        <ele>731.4</ele>
        <time>2022-09-26T11:37:19Z</time>
      </trkpt>
      <trkpt lat="41.7062420" lon="2.0837740">
        <ele>731.5</ele>
        <time>2022-09-26T11:37:20Z</time>
      </trkpt>
      <trkpt lat="41.7062010" lon="2.0837920">
        <ele>731.6</ele>
        <time>2022-09-26T11:37:22Z</time>
      </trkpt>
      <trkpt lat="41.7061740" lon="2.0838070">
        <ele>731.7</ele>
        <time>2022-09-26T11:37:23Z</time>
      </trkpt>
      <trkpt lat="41.7061380" lon="2.0838370">
        <ele>731.8</ele>
        <time>2022-09-26T11:37:24Z</time>
      </trkpt>
      <trkpt lat="41.7061160" lon="2.0838670">
        <ele>731.9</ele>
        <time>2022-09-26T11:37:26Z</time>
      </trkpt>
      <trkpt lat="41.7060990" lon="2.0838970">
        <ele>732.0</ele>
        <time>2022-09-26T11:37:27Z</time>
      </trkpt>
      <trkpt lat="41.7060750" lon="2.0839440">
        <ele>732.1</ele>
        <time>2022-09-26T11:37:28Z</time>
      </trkpt>
      <trkpt lat="41.7060560" lon="2.0839810">
        <ele>732.3</ele>
        <time>2022-09-26T11:37:29Z</time>
      </trkpt>
      <trkpt lat="41.7060390" lon="2.0840200">
        <ele>732.4</ele>
        <time>2022-09-26T11:37:30Z</time>
      </trkpt>
      <trkpt lat="41.7060220" lon="2.0840720">
        <ele>732.6</ele>
        <time>2022-09-26T11:37:31Z</time>
      </trkpt>
      <trkpt lat="41.7060170" lon="2.0840920">
        <ele>732.6</ele>
        <time>2022-09-26T11:37:32Z</time>
      </trkpt>
      <trkpt lat="41.7060100" lon="2.0841330">
        <ele>732.8</ele>
        <time>2022-09-26T11:37:33Z</time>
      </trkpt>
      <trkpt lat="41.7060060" lon="2.0841750">
        <ele>732.9</ele>
        <time>2022-09-26T11:37:34Z</time>
      </trkpt>
      <trkpt lat="41.7060040" lon="2.0842130">
        <ele>733.1</ele>
        <time>2022-09-26T11:37:35Z</time>
      </trkpt>
      <trkpt lat="41.7060080" lon="2.0842530">
        <ele>733.3</ele>
        <time>2022-09-26T11:37:37Z</time>
      </trkpt>
      <trkpt lat="41.7060160" lon="2.0842880">
        <ele>733.5</ele>
        <time>2022-09-26T11:37:38Z</time>
      </trkpt>
      <trkpt lat="41.7060220" lon="2.0843280">
        <ele>733.7</ele>
        <time>2022-09-26T11:37:39Z</time>
      </trkpt>
      <trkpt lat="41.7060270" lon="2.0843790">
        <ele>734.0</ele>
        <time>2022-09-26T11:37:40Z</time>
      </trkpt>
      <trkpt lat="41.7060290" lon="2.0844000">
        <ele>734.1</ele>
        <time>2022-09-26T11:37:41Z</time>
      </trkpt>
      <trkpt lat="41.7060350" lon="2.0844440">
        <ele>734.3</ele>
        <time>2022-09-26T11:37:43Z</time>
      </trkpt>
      <trkpt lat="41.7060440" lon="2.0844830">
        <ele>734.6</ele>
        <time>2022-09-26T11:37:44Z</time>
      </trkpt>
      <trkpt lat="41.7060510" lon="2.0845290">
        <ele>734.9</ele>
        <time>2022-09-26T11:37:45Z</time>
      </trkpt>
      <trkpt lat="41.7060540" lon="2.0845770">
        <ele>735.2</ele>
        <time>2022-09-26T11:37:46Z</time>
      </trkpt>
      <trkpt lat="41.7060550" lon="2.0845910">
        <ele>735.3</ele>
        <time>2022-09-26T11:37:47Z</time>
      </trkpt>
      <trkpt lat="41.7060540" lon="2.0846230">
        <ele>735.5</ele>
        <time>2022-09-26T11:37:48Z</time>
      </trkpt>
      <trkpt lat="41.7060520" lon="2.0846600">
        <ele>735.7</ele>
        <time>2022-09-26T11:37:50Z</time>
      </trkpt>
      <trkpt lat="41.7060470" lon="2.0847040">
        <ele>736.0</ele>
        <time>2022-09-26T11:37:51Z</time>
      </trkpt>
      <trkpt lat="41.7060440" lon="2.0847170">
        <ele>736.0</ele>
        <time>2022-09-26T11:37:52Z</time>
      </trkpt>
      <trkpt lat="41.7060350" lon="2.0847440">
        <ele>736.2</ele>
        <time>2022-09-26T11:37:53Z</time>
      </trkpt>
      <trkpt lat="41.7060210" lon="2.0847760">
        <ele>736.4</ele>
        <time>2022-09-26T11:37:55Z</time>
      </trkpt>
      <trkpt lat="41.7060110" lon="2.0848150">
        <ele>736.6</ele>
        <time>2022-09-26T11:37:56Z</time>
      </trkpt>
      <trkpt lat="41.7060080" lon="2.0848290">
        <ele>736.6</ele>
        <time>2022-09-26T11:37:57Z</time>
      </trkpt>
      <trkpt lat="41.7059980" lon="2.0848520">
        <ele>736.7</ele>
        <time>2022-09-26T11:37:58Z</time>
      </trkpt>
      <trkpt lat="41.7059790" lon="2.0848860">
        <ele>736.8</ele>
        <time>2022-09-26T11:38:00Z</time>
      </trkpt>
      <trkpt lat="41.7059590" lon="2.0849260">
        <ele>737.0</ele>
        <time>2022-09-26T11:38:01Z</time>
      </trkpt>
      <trkpt lat="41.7059410" lon="2.0849600">
        <ele>737.0</ele>
        <time>2022-09-26T11:38:02Z</time>
      </trkpt>
      <trkpt lat="41.7059140" lon="2.0849790">
        <ele>737.1</ele>
        <time>2022-09-26T11:38:03Z</time>
      </trkpt>
      <trkpt lat="41.7059010" lon="2.0849880">
        <ele>737.1</ele>
        <time>2022-09-26T11:38:05Z</time>
      </trkpt>
      <trkpt lat="41.7058870" lon="2.0849970">
        <ele>737.1</ele>
        <time>2022-09-26T11:38:06Z</time>
      </trkpt>
      <trkpt lat="41.7058740" lon="2.0850060">
        <ele>737.1</ele>
        <time>2022-09-26T11:38:07Z</time>
      </trkpt>
      <trkpt lat="41.7058400" lon="2.0850090">
        <ele>737.2</ele>
        <time>2022-09-26T11:38:08Z</time>
      </trkpt>
      <trkpt lat="41.7058080" lon="2.0850170">
        <ele>737.2</ele>
        <time>2022-09-26T11:38:09Z</time>
      </trkpt>
      <trkpt lat="41.7058010" lon="2.0850190">
        <ele>737.2</ele>
        <time>2022-09-26T11:38:10Z</time>
      </trkpt>
      <trkpt lat="41.7057710" lon="2.0850110">
        <ele>737.2</ele>
        <time>2022-09-26T11:38:12Z</time>
      </trkpt>
      <trkpt lat="41.7057420" lon="2.0850030">
        <ele>737.3</ele>
        <time>2022-09-26T11:38:13Z</time>
      </trkpt>
      <trkpt lat="41.7057060" lon="2.0849830">
        <ele>737.4</ele>
        <time>2022-09-26T11:38:14Z</time>
      </trkpt>
      <trkpt lat="41.7056660" lon="2.0849540">
        <ele>737.5</ele>
        <time>2022-09-26T11:38:15Z</time>
      </trkpt>
      <trkpt lat="41.7056280" lon="2.0849320">
        <ele>737.7</ele>
        <time>2022-09-26T11:38:16Z</time>
      </trkpt>
      <trkpt lat="41.7055830" lon="2.0849090">
        <ele>738.0</ele>
        <time>2022-09-26T11:38:17Z</time>
      </trkpt>
      <trkpt lat="41.7055540" lon="2.0848930">
        <ele>738.1</ele>
        <time>2022-09-26T11:38:18Z</time>
      </trkpt>
      <trkpt lat="41.7055300" lon="2.0848810">
        <ele>738.3</ele>
        <time>2022-09-26T11:38:19Z</time>
      </trkpt>
      <trkpt lat="41.7055030" lon="2.0848640">
        <ele>738.4</ele>
        <time>2022-09-26T11:38:21Z</time>
      </trkpt>
      <trkpt lat="41.7054680" lon="2.0848450">
        <ele>738.6</ele>
        <time>2022-09-26T11:38:22Z</time>
      </trkpt>
      <trkpt lat="41.7054570" lon="2.0848390">
        <ele>738.7</ele>
        <time>2022-09-26T11:38:23Z</time>
      </trkpt>
      <trkpt lat="41.7054310" lon="2.0848280">
        <ele>738.8</ele>
        <time>2022-09-26T11:38:24Z</time>
      </trkpt>
      <trkpt lat="41.7054010" lon="2.0848170">
        <ele>738.8</ele>
        <time>2022-09-26T11:38:25Z</time>
      </trkpt>
      <trkpt lat="41.7053910" lon="2.0848130">
        <ele>738.8</ele>
        <time>2022-09-26T11:38:26Z</time>
      </trkpt>
      <trkpt lat="41.7053630" lon="2.0848030">
        <ele>738.9</ele>
        <time>2022-09-26T11:38:27Z</time>
      </trkpt>
      <trkpt lat="41.7053500" lon="2.0847980">
        <ele>738.9</ele>
        <time>2022-09-26T11:38:28Z</time>
      </trkpt>
      <trkpt lat="41.7053210" lon="2.0847870">
        <ele>739.0</ele>
        <time>2022-09-26T11:38:29Z</time>
      </trkpt>
      <trkpt lat="41.7053130" lon="2.0847840">
        <ele>739.0</ele>
        <time>2022-09-26T11:38:30Z</time>
      </trkpt>
      <trkpt lat="41.7052840" lon="2.0847700">
        <ele>739.0</ele>
        <time>2022-09-26T11:38:31Z</time>
      </trkpt>
      <trkpt lat="41.7052380" lon="2.0847440">
        <ele>739.0</ele>
        <time>2022-09-26T11:38:33Z</time>
      </trkpt>
      <trkpt lat="41.7051920" lon="2.0847150">
        <ele>739.0</ele>
        <time>2022-09-26T11:38:34Z</time>
      </trkpt>
      <trkpt lat="41.7051570" lon="2.0846940">
        <ele>739.0</ele>
        <time>2022-09-26T11:38:35Z</time>
      </trkpt>
      <trkpt lat="41.7051470" lon="2.0846870">
        <ele>739.0</ele>
        <time>2022-09-26T11:38:36Z</time>
      </trkpt>
      <trkpt lat="41.7051030" lon="2.0846480">
        <ele>739.0</ele>
        <time>2022-09-26T11:38:38Z</time>
      </trkpt>
      <trkpt lat="41.7050740" lon="2.0846280">
        <ele>739.0</ele>
        <time>2022-09-26T11:38:39Z</time>
      </trkpt>
      <trkpt lat="41.7050390" lon="2.0846060">
        <ele>739.0</ele>
        <time>2022-09-26T11:38:40Z</time>
      </trkpt>
      <trkpt lat="41.7050270" lon="2.0845980">
        <ele>739.0</ele>
        <time>2022-09-26T11:38:41Z</time>
      </trkpt>
      <trkpt lat="41.7049800" lon="2.0845590">
        <ele>738.9</ele>
        <time>2022-09-26T11:38:43Z</time>
      </trkpt>
      <trkpt lat="41.7049510" lon="2.0845380">
        <ele>738.9</ele>
        <time>2022-09-26T11:38:44Z</time>
      </trkpt>
      <trkpt lat="41.7049110" lon="2.0845070">
        <ele>739.0</ele>
        <time>2022-09-26T11:38:46Z</time>
      </trkpt>
      <trkpt lat="41.7048750" lon="2.0844850">
        <ele>739.0</ele>
        <time>2022-09-26T11:38:47Z</time>
      </trkpt>
      <trkpt lat="41.7048380" lon="2.0844630">
        <ele>739.0</ele>
        <time>2022-09-26T11:38:48Z</time>
      </trkpt>
      <trkpt lat="41.7048040" lon="2.0844460">
        <ele>739.1</ele>
        <time>2022-09-26T11:38:49Z</time>
      </trkpt>
      <trkpt lat="41.7047660" lon="2.0844280">
        <ele>739.1</ele>
        <time>2022-09-26T11:38:50Z</time>
      </trkpt>
      <trkpt lat="41.7047110" lon="2.0844200">
        <ele>739.2</ele>
        <time>2022-09-26T11:38:52Z</time>
      </trkpt>
      <trkpt lat="41.7046730" lon="2.0844240">
        <ele>739.3</ele>
        <time>2022-09-26T11:38:53Z</time>
      </trkpt>
      <trkpt lat="41.7046310" lon="2.0844310">
        <ele>739.3</ele>
        <time>2022-09-26T11:38:55Z</time>
      </trkpt>
      <trkpt lat="41.7046000" lon="2.0844490">
        <ele>739.4</ele>
        <time>2022-09-26T11:38:56Z</time>
      </trkpt>
      <trkpt lat="41.7045650" lon="2.0844660">
        <ele>739.5</ele>
        <time>2022-09-26T11:38:57Z</time>
      </trkpt>
      <trkpt lat="41.7045350" lon="2.0844760">
        <ele>739.5</ele>
        <time>2022-09-26T11:38:58Z</time>
      </trkpt>
      <trkpt lat="41.7044970" lon="2.0844800">
        <ele>739.6</ele>
        <time>2022-09-26T11:38:59Z</time>
      </trkpt>
      <trkpt lat="41.7044860" lon="2.0844820">
        <ele>739.6</ele>
        <time>2022-09-26T11:39:00Z</time>
      </trkpt>
      <trkpt lat="41.7044510" lon="2.0844770">
        <ele>739.7</ele>
        <time>2022-09-26T11:39:02Z</time>
      </trkpt>
      <trkpt lat="41.7044200" lon="2.0844660">
        <ele>739.8</ele>
        <time>2022-09-26T11:39:03Z</time>
      </trkpt>
      <trkpt lat="41.7043960" lon="2.0844430">
        <ele>739.8</ele>
        <time>2022-09-26T11:39:04Z</time>
      </trkpt>
      <trkpt lat="41.7043760" lon="2.0844080">
        <ele>739.9</ele>
        <time>2022-09-26T11:39:05Z</time>
      </trkpt>
      <trkpt lat="41.7043480" lon="2.0843470">
        <ele>740.0</ele>
        <time>2022-09-26T11:39:07Z</time>
      </trkpt>
      <trkpt lat="41.7043280" lon="2.0842980">
        <ele>740.1</ele>
        <time>2022-09-26T11:39:08Z</time>
      </trkpt>
      <trkpt lat="41.7043030" lon="2.0842460">
        <ele>740.3</ele>
        <time>2022-09-26T11:39:09Z</time>
      </trkpt>
      <trkpt lat="41.7042730" lon="2.0841640">
        <ele>740.5</ele>
        <time>2022-09-26T11:39:11Z</time>
      </trkpt>
      <trkpt lat="41.7042580" lon="2.0841210">
        <ele>740.6</ele>
        <time>2022-09-26T11:39:12Z</time>
      </trkpt>
      <trkpt lat="41.7042450" lon="2.0840830">
        <ele>740.7</ele>
        <time>2022-09-26T11:39:13Z</time>
      </trkpt>
      <trkpt lat="41.7042320" lon="2.0840400">
        <ele>740.8</ele>
        <time>2022-09-26T11:39:14Z</time>
      </trkpt>
      <trkpt lat="41.7042200" lon="2.0840040">
        <ele>740.9</ele>
        <time>2022-09-26T11:39:15Z</time>
      </trkpt>
      <trkpt lat="41.7042040" lon="2.0839640">
        <ele>741.0</ele>
        <time>2022-09-26T11:39:16Z</time>
      </trkpt>
      <trkpt lat="41.7041890" lon="2.0839290">
        <ele>741.1</ele>
        <time>2022-09-26T11:39:17Z</time>
      </trkpt>
      <trkpt lat="41.7041730" lon="2.0838930">
        <ele>741.2</ele>
        <time>2022-09-26T11:39:18Z</time>
      </trkpt>
      <trkpt lat="41.7041510" lon="2.0838510">
        <ele>741.3</ele>
        <time>2022-09-26T11:39:20Z</time>
      </trkpt>
      <trkpt lat="41.7041290" lon="2.0838100">
        <ele>741.4</ele>
        <time>2022-09-26T11:39:21Z</time>
      </trkpt>
      <trkpt lat="41.7041010" lon="2.0837580">
        <ele>741.5</ele>
        <time>2022-09-26T11:39:22Z</time>
      </trkpt>
      <trkpt lat="41.7040730" lon="2.0837140">
        <ele>741.6</ele>
        <time>2022-09-26T11:39:23Z</time>
      </trkpt>
      <trkpt lat="41.7040620" lon="2.0836950">
        <ele>741.7</ele>
        <time>2022-09-26T11:39:24Z</time>
      </trkpt>
      <trkpt lat="41.7040370" lon="2.0836640">
        <ele>741.8</ele>
        <time>2022-09-26T11:39:25Z</time>
      </trkpt>
      <trkpt lat="41.7040090" lon="2.0836330">
        <ele>741.9</ele>
        <time>2022-09-26T11:39:26Z</time>
      </trkpt>
      <trkpt lat="41.7039790" lon="2.0836040">
        <ele>742.1</ele>
        <time>2022-09-26T11:39:27Z</time>
      </trkpt>
      <trkpt lat="41.7039420" lon="2.0835750">
        <ele>742.2</ele>
        <time>2022-09-26T11:39:29Z</time>
      </trkpt>
      <trkpt lat="41.7039090" lon="2.0835550">
        <ele>742.4</ele>
        <time>2022-09-26T11:39:30Z</time>
      </trkpt>
      <trkpt lat="41.7038690" lon="2.0835350">
        <ele>742.6</ele>
        <time>2022-09-26T11:39:31Z</time>
      </trkpt>
      <trkpt lat="41.7038370" lon="2.0835240">
        <ele>742.8</ele>
        <time>2022-09-26T11:39:32Z</time>
      </trkpt>
      <trkpt lat="41.7037990" lon="2.0835140">
        <ele>743.0</ele>
        <time>2022-09-26T11:39:33Z</time>
      </trkpt>
      <trkpt lat="41.7037610" lon="2.0835070">
        <ele>743.3</ele>
        <time>2022-09-26T11:39:35Z</time>
      </trkpt>
      <trkpt lat="41.7037310" lon="2.0835010">
        <ele>743.4</ele>
        <time>2022-09-26T11:39:36Z</time>
      </trkpt>
      <trkpt lat="41.7037030" lon="2.0834980">
        <ele>743.6</ele>
        <time>2022-09-26T11:39:37Z</time>
      </trkpt>
      <trkpt lat="41.7036620" lon="2.0834990">
        <ele>743.9</ele>
        <time>2022-09-26T11:39:38Z</time>
      </trkpt>
      <trkpt lat="41.7036230" lon="2.0834940">
        <ele>744.1</ele>
        <time>2022-09-26T11:39:39Z</time>
      </trkpt>
      <trkpt lat="41.7036080" lon="2.0834920">
        <ele>744.2</ele>
        <time>2022-09-26T11:39:40Z</time>
      </trkpt>
      <trkpt lat="41.7035770" lon="2.0834840">
        <ele>744.4</ele>
        <time>2022-09-26T11:39:41Z</time>
      </trkpt>
      <trkpt lat="41.7035460" lon="2.0834780">
        <ele>744.5</ele>
        <time>2022-09-26T11:39:42Z</time>
      </trkpt>
      <trkpt lat="41.7035140" lon="2.0834740">
        <ele>744.7</ele>
        <time>2022-09-26T11:39:43Z</time>
      </trkpt>
      <trkpt lat="41.7034850" lon="2.0834730">
        <ele>744.9</ele>
        <time>2022-09-26T11:39:44Z</time>
      </trkpt>
      <trkpt lat="41.7034540" lon="2.0834710">
        <ele>745.0</ele>
        <time>2022-09-26T11:39:46Z</time>
      </trkpt>
      <trkpt lat="41.7034250" lon="2.0834660">
        <ele>745.1</ele>
        <time>2022-09-26T11:39:47Z</time>
      </trkpt>
      <trkpt lat="41.7033940" lon="2.0834560">
        <ele>745.2</ele>
        <time>2022-09-26T11:39:48Z</time>
      </trkpt>
      <trkpt lat="41.7033610" lon="2.0834520">
        <ele>745.3</ele>
        <time>2022-09-26T11:39:49Z</time>
      </trkpt>
      <trkpt lat="41.7033280" lon="2.0834490">
        <ele>745.4</ele>
        <time>2022-09-26T11:39:50Z</time>
      </trkpt>
      <trkpt lat="41.7033160" lon="2.0834470">
        <ele>745.4</ele>
        <time>2022-09-26T11:39:51Z</time>
      </trkpt>
      <trkpt lat="41.7032890" lon="2.0834420">
        <ele>745.4</ele>
        <time>2022-09-26T11:39:52Z</time>
      </trkpt>
      <trkpt lat="41.7032630" lon="2.0834320">
        <ele>745.4</ele>
        <time>2022-09-26T11:39:53Z</time>
      </trkpt>
      <trkpt lat="41.7032370" lon="2.0834220">
        <ele>745.4</ele>
        <time>2022-09-26T11:39:54Z</time>
      </trkpt>
      <trkpt lat="41.7032080" lon="2.0834160">
        <ele>745.4</ele>
        <time>2022-09-26T11:39:56Z</time>
      </trkpt>
      <trkpt lat="41.7031780" lon="2.0834120">
        <ele>745.3</ele>
        <time>2022-09-26T11:39:57Z</time>
      </trkpt>
      <trkpt lat="41.7031420" lon="2.0834100">
        <ele>745.3</ele>
        <time>2022-09-26T11:39:58Z</time>
      </trkpt>
      <trkpt lat="41.7031040" lon="2.0834110">
        <ele>745.3</ele>
        <time>2022-09-26T11:39:59Z</time>
      </trkpt>
      <trkpt lat="41.7030500" lon="2.0834180">
        <ele>745.4</ele>
        <time>2022-09-26T11:40:00Z</time>
      </trkpt>
      <trkpt lat="41.7029960" lon="2.0834240">
        <ele>745.5</ele>
        <time>2022-09-26T11:40:01Z</time>
      </trkpt>
      <trkpt lat="41.7029490" lon="2.0834260">
        <ele>745.7</ele>
        <time>2022-09-26T11:40:02Z</time>
      </trkpt>
      <trkpt lat="41.7029130" lon="2.0834260">
        <ele>745.8</ele>
        <time>2022-09-26T11:40:03Z</time>
      </trkpt>
      <trkpt lat="41.7028750" lon="2.0834180">
        <ele>746.0</ele>
        <time>2022-09-26T11:40:04Z</time>
      </trkpt>
      <trkpt lat="41.7028430" lon="2.0833930">
        <ele>746.2</ele>
        <time>2022-09-26T11:40:05Z</time>
      </trkpt>
      <trkpt lat="41.7028110" lon="2.0833560">
        <ele>746.3</ele>
        <time>2022-09-26T11:40:07Z</time>
      </trkpt>
      <trkpt lat="41.7027850" lon="2.0833290">
        <ele>746.5</ele>
        <time>2022-09-26T11:40:08Z</time>
      </trkpt>
      <trkpt lat="41.7027510" lon="2.0832960">
        <ele>746.6</ele>
        <time>2022-09-26T11:40:09Z</time>
      </trkpt>
      <trkpt lat="41.7027270" lon="2.0832670">
        <ele>746.7</ele>
        <time>2022-09-26T11:40:10Z</time>
      </trkpt>
      <trkpt lat="41.7026990" lon="2.0832320">
        <ele>746.8</ele>
        <time>2022-09-26T11:40:12Z</time>
      </trkpt>
      <trkpt lat="41.7026760" lon="2.0832040">
        <ele>746.9</ele>
        <time>2022-09-26T11:40:13Z</time>
      </trkpt>
      <trkpt lat="41.7026520" lon="2.0831820">
        <ele>747.0</ele>
        <time>2022-09-26T11:40:14Z</time>
      </trkpt>
      <trkpt lat="41.7026240" lon="2.0831650">
        <ele>747.1</ele>
        <time>2022-09-26T11:40:15Z</time>
      </trkpt>
      <trkpt lat="41.7025840" lon="2.0831470">
        <ele>747.1</ele>
        <time>2022-09-26T11:40:16Z</time>
      </trkpt>
      <trkpt lat="41.7025520" lon="2.0831360">
        <ele>747.2</ele>
        <time>2022-09-26T11:40:17Z</time>
      </trkpt>
      <trkpt lat="41.7025010" lon="2.0831260">
        <ele>747.4</ele>
        <time>2022-09-26T11:40:19Z</time>
      </trkpt>
      <trkpt lat="41.7024610" lon="2.0831260">
        <ele>747.6</ele>
        <time>2022-09-26T11:40:20Z</time>
      </trkpt>
      <trkpt lat="41.7024140" lon="2.0831320">
        <ele>747.8</ele>
        <time>2022-09-26T11:40:21Z</time>
      </trkpt>
      <trkpt lat="41.7023800" lon="2.0831350">
        <ele>747.9</ele>
        <time>2022-09-26T11:40:22Z</time>
      </trkpt>
      <trkpt lat="41.7023500" lon="2.0831350">
        <ele>748.1</ele>
        <time>2022-09-26T11:40:23Z</time>
      </trkpt>
      <trkpt lat="41.7023170" lon="2.0831340">
        <ele>748.3</ele>
        <time>2022-09-26T11:40:24Z</time>
      </trkpt>
      <trkpt lat="41.7023040" lon="2.0831330">
        <ele>748.3</ele>
        <time>2022-09-26T11:40:25Z</time>
      </trkpt>
      <trkpt lat="41.7022630" lon="2.0831320">
        <ele>748.6</ele>
        <time>2022-09-26T11:40:26Z</time>
      </trkpt>
      <trkpt lat="41.7022480" lon="2.0831330">
        <ele>748.7</ele>
        <time>2022-09-26T11:40:27Z</time>
      </trkpt>
      <trkpt lat="41.7022150" lon="2.0831370">
        <ele>748.9</ele>
        <time>2022-09-26T11:40:28Z</time>
      </trkpt>
      <trkpt lat="41.7021860" lon="2.0831370">
        <ele>749.1</ele>
        <time>2022-09-26T11:40:29Z</time>
      </trkpt>
      <trkpt lat="41.7021410" lon="2.0831320">
        <ele>749.4</ele>
        <time>2022-09-26T11:40:31Z</time>
      </trkpt>
      <trkpt lat="41.7020960" lon="2.0831270">
        <ele>749.8</ele>
        <time>2022-09-26T11:40:32Z</time>
      </trkpt>
      <trkpt lat="41.7020630" lon="2.0831290">
        <ele>750.1</ele>
        <time>2022-09-26T11:40:33Z</time>
      </trkpt>
      <trkpt lat="41.7020160" lon="2.0831380">
        <ele>750.6</ele>
        <time>2022-09-26T11:40:35Z</time>
      </trkpt>
      <trkpt lat="41.7019840" lon="2.0831480">
        <ele>751.0</ele>
        <time>2022-09-26T11:40:36Z</time>
      </trkpt>
      <trkpt lat="41.7019540" lon="2.0831590">
        <ele>751.3</ele>
        <time>2022-09-26T11:40:37Z</time>
      </trkpt>
      <trkpt lat="41.7019320" lon="2.0831720">
        <ele>751.6</ele>
        <time>2022-09-26T11:40:38Z</time>
      </trkpt>
      <trkpt lat="41.7019020" lon="2.0831870">
        <ele>752.0</ele>
        <time>2022-09-26T11:40:40Z</time>
      </trkpt>
      <trkpt lat="41.7018690" lon="2.0832040">
        <ele>752.4</ele>
        <time>2022-09-26T11:40:41Z</time>
      </trkpt>
      <trkpt lat="41.7018550" lon="2.0832120">
        <ele>752.5</ele>
        <time>2022-09-26T11:40:42Z</time>
      </trkpt>
      <trkpt lat="41.7018220" lon="2.0832350">
        <ele>752.9</ele>
        <time>2022-09-26T11:40:43Z</time>
      </trkpt>
      <trkpt lat="41.7018120" lon="2.0832430">
        <ele>753.0</ele>
        <time>2022-09-26T11:40:44Z</time>
      </trkpt>
      <trkpt lat="41.7017870" lon="2.0832600">
        <ele>753.3</ele>
        <time>2022-09-26T11:40:46Z</time>
      </trkpt>
      <trkpt lat="41.7017610" lon="2.0832790">
        <ele>753.6</ele>
        <time>2022-09-26T11:40:47Z</time>
      </trkpt>
      <trkpt lat="41.7017360" lon="2.0833100">
        <ele>753.9</ele>
        <time>2022-09-26T11:40:48Z</time>
      </trkpt>
      <trkpt lat="41.7017270" lon="2.0833210">
        <ele>754.0</ele>
        <time>2022-09-26T11:40:49Z</time>
      </trkpt>
      <trkpt lat="41.7017070" lon="2.0833460">
        <ele>754.3</ele>
        <time>2022-09-26T11:40:50Z</time>
      </trkpt>
      <trkpt lat="41.7016860" lon="2.0833700">
        <ele>754.5</ele>
        <time>2022-09-26T11:40:52Z</time>
      </trkpt>
      <trkpt lat="41.7016680" lon="2.0833970">
        <ele>754.7</ele>
        <time>2022-09-26T11:40:53Z</time>
      </trkpt>
      <trkpt lat="41.7016480" lon="2.0834310">
        <ele>755.0</ele>
        <time>2022-09-26T11:40:54Z</time>
      </trkpt>
      <trkpt lat="41.7016410" lon="2.0834440">
        <ele>755.1</ele>
        <time>2022-09-26T11:40:55Z</time>
      </trkpt>
      <trkpt lat="41.7016260" lon="2.0835010">
        <ele>755.4</ele>
        <time>2022-09-26T11:40:57Z</time>
      </trkpt>
      <trkpt lat="41.7016210" lon="2.0835210">
        <ele>755.5</ele>
        <time>2022-09-26T11:40:58Z</time>
      </trkpt>
      <trkpt lat="41.7016160" lon="2.0835420">
        <ele>755.7</ele>
        <time>2022-09-26T11:40:59Z</time>
      </trkpt>
      <trkpt lat="41.7016070" lon="2.0835850">
        <ele>755.9</ele>
        <time>2022-09-26T11:41:00Z</time>
      </trkpt>
      <trkpt lat="41.7016050" lon="2.0835960">
        <ele>756.0</ele>
        <time>2022-09-26T11:41:01Z</time>
      </trkpt>
      <trkpt lat="41.7016030" lon="2.0836150">
        <ele>756.1</ele>
        <time>2022-09-26T11:41:02Z</time>
      </trkpt>
      <trkpt lat="41.7015970" lon="2.0836390">
        <ele>756.3</ele>
        <time>2022-09-26T11:41:03Z</time>
      </trkpt>
      <trkpt lat="41.7015940" lon="2.0836840">
        <ele>756.6</ele>
        <time>2022-09-26T11:41:04Z</time>
      </trkpt>
      <trkpt lat="41.7015930" lon="2.0836960">
        <ele>756.7</ele>
        <time>2022-09-26T11:41:05Z</time>
      </trkpt>
      <trkpt lat="41.7015880" lon="2.0837380">
        <ele>756.9</ele>
        <time>2022-09-26T11:41:06Z</time>
      </trkpt>
      <trkpt lat="41.7015870" lon="2.0837510">
        <ele>757.0</ele>
        <time>2022-09-26T11:41:07Z</time>
      </trkpt>
      <trkpt lat="41.7015730" lon="2.0837910">
        <ele>757.4</ele>
        <time>2022-09-26T11:41:09Z</time>
      </trkpt>
      <trkpt lat="41.7015600" lon="2.0838310">
        <ele>757.7</ele>
        <time>2022-09-26T11:41:10Z</time>
      </trkpt>
      <trkpt lat="41.7015480" lon="2.0838730">
        <ele>758.1</ele>
        <time>2022-09-26T11:41:12Z</time>
      </trkpt>
      <trkpt lat="41.7015430" lon="2.0838870">
        <ele>758.2</ele>
        <time>2022-09-26T11:41:13Z</time>
      </trkpt>
      <trkpt lat="41.7015350" lon="2.0839240">
        <ele>758.5</ele>
        <time>2022-09-26T11:41:14Z</time>
      </trkpt>
      <trkpt lat="41.7015310" lon="2.0839350">
        <ele>758.6</ele>
        <time>2022-09-26T11:41:15Z</time>
      </trkpt>
      <trkpt lat="41.7015240" lon="2.0839550">
        <ele>758.8</ele>
        <time>2022-09-26T11:41:16Z</time>
      </trkpt>
      <trkpt lat="41.7015180" lon="2.0839800">
        <ele>759.0</ele>
        <time>2022-09-26T11:41:18Z</time>
      </trkpt>
      <trkpt lat="41.7015080" lon="2.0840210">
        <ele>759.4</ele>
        <time>2022-09-26T11:41:19Z</time>
      </trkpt>
      <trkpt lat="41.7015030" lon="2.0840400">
        <ele>759.6</ele>
        <time>2022-09-26T11:41:20Z</time>
      </trkpt>
      <trkpt lat="41.7014910" lon="2.0840740">
        <ele>759.9</ele>
        <time>2022-09-26T11:41:21Z</time>
      </trkpt>
      <trkpt lat="41.7014880" lon="2.0840840">
        <ele>760.0</ele>
        <time>2022-09-26T11:41:22Z</time>
      </trkpt>
      <trkpt lat="41.7014740" lon="2.0841210">
        <ele>760.4</ele>
        <time>2022-09-26T11:41:24Z</time>
      </trkpt>
      <trkpt lat="41.7014690" lon="2.0841320">
        <ele>760.5</ele>
        <time>2022-09-26T11:41:25Z</time>
      </trkpt>
      <trkpt lat="41.7014470" lon="2.0841680">
        <ele>760.9</ele>
        <time>2022-09-26T11:41:26Z</time>
      </trkpt>
      <trkpt lat="41.7014420" lon="2.0841760">
        <ele>761.0</ele>
        <time>2022-09-26T11:41:27Z</time>
      </trkpt>
      <trkpt lat="41.7014230" lon="2.0842060">
        <ele>761.4</ele>
        <time>2022-09-26T11:41:28Z</time>
      </trkpt>
      <trkpt lat="41.7014160" lon="2.0842150">
        <ele>761.5</ele>
        <time>2022-09-26T11:41:29Z</time>
      </trkpt>
      <trkpt lat="41.7014070" lon="2.0842310">
        <ele>761.7</ele>
        <time>2022-09-26T11:41:30Z</time>
      </trkpt>
      <trkpt lat="41.7013980" lon="2.0842520">
        <ele>761.9</ele>
        <time>2022-09-26T11:41:31Z</time>
      </trkpt>
      <trkpt lat="41.7013800" lon="2.0842820">
        <ele>762.3</ele>
        <time>2022-09-26T11:41:32Z</time>
      </trkpt>
      <trkpt lat="41.7013730" lon="2.0842920">
        <ele>762.4</ele>
        <time>2022-09-26T11:41:33Z</time>
      </trkpt>
      <trkpt lat="41.7013650" lon="2.0843040">
        <ele>762.6</ele>
        <time>2022-09-26T11:41:34Z</time>
      </trkpt>
      <trkpt lat="41.7013500" lon="2.0843160">
        <ele>762.8</ele>
        <time>2022-09-26T11:41:36Z</time>
      </trkpt>
      <trkpt lat="41.7013360" lon="2.0843280">
        <ele>762.9</ele>
        <time>2022-09-26T11:41:37Z</time>
      </trkpt>
      <trkpt lat="41.7013230" lon="2.0843410">
        <ele>763.1</ele>
        <time>2022-09-26T11:41:38Z</time>
      </trkpt>
      <trkpt lat="41.7013070" lon="2.0843630">
        <ele>763.3</ele>
        <time>2022-09-26T11:41:39Z</time>
      </trkpt>
      <trkpt lat="41.7013020" lon="2.0843720">
        <ele>763.4</ele>
        <time>2022-09-26T11:41:40Z</time>
      </trkpt>
      <trkpt lat="41.7012970" lon="2.0843810">
        <ele>763.5</ele>
        <time>2022-09-26T11:41:41Z</time>
      </trkpt>
      <trkpt lat="41.7012810" lon="2.0844000">
        <ele>763.7</ele>
        <time>2022-09-26T11:41:42Z</time>
      </trkpt>
      <trkpt lat="41.7012750" lon="2.0844070">
        <ele>763.7</ele>
        <time>2022-09-26T11:41:43Z</time>
      </trkpt>
      <trkpt lat="41.7012700" lon="2.0844140">
        <ele>763.8</ele>
        <time>2022-09-26T11:41:44Z</time>
      </trkpt>
      <trkpt lat="41.7012610" lon="2.0844280">
        <ele>763.9</ele>
        <time>2022-09-26T11:41:45Z</time>
      </trkpt>
      <trkpt lat="41.7012500" lon="2.0844460">
        <ele>764.0</ele>
        <time>2022-09-26T11:41:46Z</time>
      </trkpt>
      <trkpt lat="41.7012410" lon="2.0844580">
        <ele>764.0</ele>
        <time>2022-09-26T11:41:47Z</time>
      </trkpt>
      <trkpt lat="41.7012310" lon="2.0844690">
        <ele>764.1</ele>
        <time>2022-09-26T11:41:48Z</time>
      </trkpt>
      <trkpt lat="41.7012220" lon="2.0844750">
        <ele>764.1</ele>
        <time>2022-09-26T11:41:49Z</time>
      </trkpt>
      <trkpt lat="41.7012020" lon="2.0844870">
        <ele>764.2</ele>
        <time>2022-09-26T11:41:50Z</time>
      </trkpt>
      <trkpt lat="41.7011930" lon="2.0844920">
        <ele>764.2</ele>
        <time>2022-09-26T11:41:51Z</time>
      </trkpt>
      <trkpt lat="41.7011850" lon="2.0844970">
        <ele>764.2</ele>
        <time>2022-09-26T11:41:52Z</time>
      </trkpt>
      <trkpt lat="41.7011720" lon="2.0845030">
        <ele>764.2</ele>
        <time>2022-09-26T11:41:53Z</time>
      </trkpt>
      <trkpt lat="41.7011470" lon="2.0845150">
        <ele>764.2</ele>
        <time>2022-09-26T11:41:55Z</time>
      </trkpt>
      <trkpt lat="41.7011330" lon="2.0845120">
        <ele>764.2</ele>
        <time>2022-09-26T11:41:56Z</time>
      </trkpt>
      <trkpt lat="41.7011150" lon="2.0845070">
        <ele>764.2</ele>
        <time>2022-09-26T11:41:57Z</time>
      </trkpt>
      <trkpt lat="41.7010860" lon="2.0844970">
        <ele>764.2</ele>
        <time>2022-09-26T11:41:58Z</time>
      </trkpt>
      <trkpt lat="41.7010760" lon="2.0844920">
        <ele>764.2</ele>
        <time>2022-09-26T11:41:59Z</time>
      </trkpt>
      <trkpt lat="41.7010480" lon="2.0844900">
        <ele>764.1</ele>
        <time>2022-09-26T11:42:00Z</time>
      </trkpt>
      <trkpt lat="41.7010380" lon="2.0844900">
        <ele>764.1</ele>
        <time>2022-09-26T11:42:01Z</time>
      </trkpt>
      <trkpt lat="41.7010100" lon="2.0844920">
        <ele>764.0</ele>
        <time>2022-09-26T11:42:02Z</time>
      </trkpt>
      <trkpt lat="41.7009980" lon="2.0844950">
        <ele>764.0</ele>
        <time>2022-09-26T11:42:03Z</time>
      </trkpt>
      <trkpt lat="41.7009610" lon="2.0844920">
        <ele>763.8</ele>
        <time>2022-09-26T11:42:04Z</time>
      </trkpt>
      <trkpt lat="41.7009480" lon="2.0844920">
        <ele>763.8</ele>
        <time>2022-09-26T11:42:05Z</time>
      </trkpt>
      <trkpt lat="41.7008990" lon="2.0844960">
        <ele>763.6</ele>
        <time>2022-09-26T11:42:07Z</time>
      </trkpt>
      <trkpt lat="41.7008840" lon="2.0844990">
        <ele>763.6</ele>
        <time>2022-09-26T11:42:08Z</time>
      </trkpt>
      <trkpt lat="41.7008690" lon="2.0845010">
        <ele>763.5</ele>
        <time>2022-09-26T11:42:09Z</time>
      </trkpt>
      <trkpt lat="41.7008250" lon="2.0844920">
        <ele>763.3</ele>
        <time>2022-09-26T11:42:10Z</time>
      </trkpt>
      <trkpt lat="41.7007850" lon="2.0844930">
        <ele>763.1</ele>
        <time>2022-09-26T11:42:11Z</time>
      </trkpt>
      <trkpt lat="41.7007690" lon="2.0844930">
        <ele>763.0</ele>
        <time>2022-09-26T11:42:12Z</time>
      </trkpt>
      <trkpt lat="41.7007390" lon="2.0844920">
        <ele>762.8</ele>
        <time>2022-09-26T11:42:13Z</time>
      </trkpt>
      <trkpt lat="41.7006840" lon="2.0844790">
        <ele>762.5</ele>
        <time>2022-09-26T11:42:15Z</time>
      </trkpt>
      <trkpt lat="41.7006380" lon="2.0844750">
        <ele>762.1</ele>
        <time>2022-09-26T11:42:16Z</time>
      </trkpt>
      <trkpt lat="41.7005900" lon="2.0844710">
        <ele>761.8</ele>
        <time>2022-09-26T11:42:17Z</time>
      </trkpt>
      <trkpt lat="41.7005340" lon="2.0844670">
        <ele>761.2</ele>
        <time>2022-09-26T11:42:18Z</time>
      </trkpt>
      <trkpt lat="41.7004670" lon="2.0844580">
        <ele>760.6</ele>
        <time>2022-09-26T11:42:19Z</time>
      </trkpt>
      <trkpt lat="41.7004100" lon="2.0844570">
        <ele>760.0</ele>
        <time>2022-09-26T11:42:20Z</time>
      </trkpt>
      <trkpt lat="41.7003510" lon="2.0844540">
        <ele>759.4</ele>
        <time>2022-09-26T11:42:21Z</time>
      </trkpt>
      <trkpt lat="41.7002880" lon="2.0844510">
        <ele>758.8</ele>
        <time>2022-09-26T11:42:22Z</time>
      </trkpt>
      <trkpt lat="41.7002170" lon="2.0844500">
        <ele>758.1</ele>
        <time>2022-09-26T11:42:23Z</time>
      </trkpt>
      <trkpt lat="41.7001390" lon="2.0844490">
        <ele>757.5</ele>
        <time>2022-09-26T11:42:24Z</time>
      </trkpt>
      <trkpt lat="41.7000560" lon="2.0844450">
        <ele>756.8</ele>
        <time>2022-09-26T11:42:25Z</time>
      </trkpt>
      <trkpt lat="41.6999640" lon="2.0844380">
        <ele>756.2</ele>
        <time>2022-09-26T11:42:26Z</time>
      </trkpt>
      <trkpt lat="41.6998670" lon="2.0844300">
        <ele>755.7</ele>
        <time>2022-09-26T11:42:27Z</time>
      </trkpt>
      <trkpt lat="41.6997680" lon="2.0844220">
        <ele>755.3</ele>
        <time>2022-09-26T11:42:28Z</time>
      </trkpt>
      <trkpt lat="41.6996700" lon="2.0844180">
        <ele>755.1</ele>
        <time>2022-09-26T11:42:29Z</time>
      </trkpt>
      <trkpt lat="41.6995760" lon="2.0844160">
        <ele>754.9</ele>
        <time>2022-09-26T11:42:30Z</time>
      </trkpt>
      <trkpt lat="41.6994850" lon="2.0844160">
        <ele>754.8</ele>
        <time>2022-09-26T11:42:31Z</time>
      </trkpt>
      <trkpt lat="41.6993980" lon="2.0844160">
        <ele>754.8</ele>
        <time>2022-09-26T11:42:32Z</time>
      </trkpt>
      <trkpt lat="41.6993160" lon="2.0844170">
        <ele>754.9</ele>
        <time>2022-09-26T11:42:33Z</time>
      </trkpt>
      <trkpt lat="41.6992400" lon="2.0844240">
        <ele>755.1</ele>
        <time>2022-09-26T11:42:34Z</time>
      </trkpt>
      <trkpt lat="41.6991720" lon="2.0844330">
        <ele>755.3</ele>
        <time>2022-09-26T11:42:35Z</time>
      </trkpt>
      <trkpt lat="41.6991130" lon="2.0844450">
        <ele>755.5</ele>
        <time>2022-09-26T11:42:36Z</time>
      </trkpt>
      <trkpt lat="41.6990610" lon="2.0844590">
        <ele>755.7</ele>
        <time>2022-09-26T11:42:37Z</time>
      </trkpt>
      <trkpt lat="41.6990150" lon="2.0844760">
        <ele>755.9</ele>
        <time>2022-09-26T11:42:38Z</time>
      </trkpt>
      <trkpt lat="41.6989890" lon="2.0844860">
        <ele>756.0</ele>
        <time>2022-09-26T11:42:39Z</time>
      </trkpt>
      <trkpt lat="41.6989540" lon="2.0844990">
        <ele>756.1</ele>
        <time>2022-09-26T11:42:40Z</time>
      </trkpt>
      <trkpt lat="41.6989060" lon="2.0845200">
        <ele>756.2</ele>
        <time>2022-09-26T11:42:41Z</time>
      </trkpt>
      <trkpt lat="41.6988780" lon="2.0845350">
        <ele>756.2</ele>
        <time>2022-09-26T11:42:42Z</time>
      </trkpt>
      <trkpt lat="41.6988370" lon="2.0845550">
        <ele>756.3</ele>
        <time>2022-09-26T11:42:43Z</time>
      </trkpt>
      <trkpt lat="41.6988150" lon="2.0845740">
        <ele>756.4</ele>
        <time>2022-09-26T11:42:44Z</time>
      </trkpt>
      <trkpt lat="41.6987780" lon="2.0845970">
        <ele>756.4</ele>
        <time>2022-09-26T11:42:46Z</time>
      </trkpt>
      <trkpt lat="41.6987240" lon="2.0846040">
        <ele>756.5</ele>
        <time>2022-09-26T11:42:47Z</time>
      </trkpt>
      <trkpt lat="41.6986810" lon="2.0846250">
        <ele>756.6</ele>
        <time>2022-09-26T11:42:48Z</time>
      </trkpt>
      <trkpt lat="41.6986480" lon="2.0846420">
        <ele>756.6</ele>
        <time>2022-09-26T11:42:49Z</time>
      </trkpt>
      <trkpt lat="41.6986250" lon="2.0846500">
        <ele>756.7</ele>
        <time>2022-09-26T11:42:50Z</time>
      </trkpt>
      <trkpt lat="41.6985960" lon="2.0846570">
        <ele>756.7</ele>
        <time>2022-09-26T11:42:52Z</time>
      </trkpt>
      <trkpt lat="41.6985540" lon="2.0846670">
        <ele>756.8</ele>
        <time>2022-09-26T11:42:53Z</time>
      </trkpt>
      <trkpt lat="41.6985370" lon="2.0846710">
        <ele>756.9</ele>
        <time>2022-09-26T11:42:54Z</time>
      </trkpt>
      <trkpt lat="41.6984940" lon="2.0846930">
        <ele>757.0</ele>
        <time>2022-09-26T11:42:56Z</time>
      </trkpt>
      <trkpt lat="41.6984770" lon="2.0847000">
        <ele>757.0</ele>
        <time>2022-09-26T11:42:57Z</time>
      </trkpt>
      <trkpt lat="41.6984600" lon="2.0847060">
        <ele>757.1</ele>
        <time>2022-09-26T11:42:58Z</time>
      </trkpt>
      <trkpt lat="41.6984120" lon="2.0847200">
        <ele>757.2</ele>
        <time>2022-09-26T11:42:59Z</time>
      </trkpt>
      <trkpt lat="41.6983850" lon="2.0847290">
        <ele>757.3</ele>
        <time>2022-09-26T11:43:00Z</time>
      </trkpt>
      <trkpt lat="41.6983580" lon="2.0847370">
        <ele>757.4</ele>
        <time>2022-09-26T11:43:01Z</time>
      </trkpt>
      <trkpt lat="41.6983280" lon="2.0847460">
        <ele>757.5</ele>
        <time>2022-09-26T11:43:02Z</time>
      </trkpt>
      <trkpt lat="41.6982890" lon="2.0847590">
        <ele>757.6</ele>
        <time>2022-09-26T11:43:03Z</time>
      </trkpt>
      <trkpt lat="41.6982440" lon="2.0847760">
        <ele>757.7</ele>
        <time>2022-09-26T11:43:04Z</time>
      </trkpt>
      <trkpt lat="41.6982230" lon="2.0847830">
        <ele>757.8</ele>
        <time>2022-09-26T11:43:05Z</time>
      </trkpt>
      <trkpt lat="41.6981800" lon="2.0848050">
        <ele>757.9</ele>
        <time>2022-09-26T11:43:06Z</time>
      </trkpt>
      <trkpt lat="41.6981590" lon="2.0848150">
        <ele>758.0</ele>
        <time>2022-09-26T11:43:07Z</time>
      </trkpt>
      <trkpt lat="41.6981320" lon="2.0848310">
        <ele>758.1</ele>
        <time>2022-09-26T11:43:08Z</time>
      </trkpt>
      <trkpt lat="41.6980910" lon="2.0848560">
        <ele>758.2</ele>
        <time>2022-09-26T11:43:09Z</time>
      </trkpt>
      <trkpt lat="41.6980640" lon="2.0848740">
        <ele>758.3</ele>
        <time>2022-09-26T11:43:10Z</time>
      </trkpt>
      <trkpt lat="41.6980270" lon="2.0848980">
        <ele>758.4</ele>
        <time>2022-09-26T11:43:11Z</time>
      </trkpt>
      <trkpt lat="41.6979930" lon="2.0849200">
        <ele>758.5</ele>
        <time>2022-09-26T11:43:12Z</time>
      </trkpt>
      <trkpt lat="41.6979510" lon="2.0849480">
        <ele>758.6</ele>
        <time>2022-09-26T11:43:13Z</time>
      </trkpt>
      <trkpt lat="41.6979310" lon="2.0849620">
        <ele>758.7</ele>
        <time>2022-09-26T11:43:14Z</time>
      </trkpt>
      <trkpt lat="41.6979030" lon="2.0849810">
        <ele>758.7</ele>
        <time>2022-09-26T11:43:15Z</time>
      </trkpt>
      <trkpt lat="41.6978720" lon="2.0850050">
        <ele>758.9</ele>
        <time>2022-09-26T11:43:16Z</time>
      </trkpt>
      <trkpt lat="41.6978430" lon="2.0850270">
        <ele>759.0</ele>
        <time>2022-09-26T11:43:17Z</time>
      </trkpt>
      <trkpt lat="41.6978190" lon="2.0850480">
        <ele>759.0</ele>
        <time>2022-09-26T11:43:18Z</time>
      </trkpt>
      <trkpt lat="41.6977880" lon="2.0850740">
        <ele>759.2</ele>
        <time>2022-09-26T11:43:19Z</time>
      </trkpt>
      <trkpt lat="41.6977650" lon="2.0850940">
        <ele>759.3</ele>
        <time>2022-09-26T11:43:20Z</time>
      </trkpt>
      <trkpt lat="41.6977410" lon="2.0851160">
        <ele>759.4</ele>
        <time>2022-09-26T11:43:21Z</time>
      </trkpt>
      <trkpt lat="41.6977190" lon="2.0851380">
        <ele>759.5</ele>
        <time>2022-09-26T11:43:22Z</time>
      </trkpt>
      <trkpt lat="41.6976930" lon="2.0851640">
        <ele>759.6</ele>
        <time>2022-09-26T11:43:23Z</time>
      </trkpt>
      <trkpt lat="41.6976640" lon="2.0851940">
        <ele>759.7</ele>
        <time>2022-09-26T11:43:24Z</time>
      </trkpt>
      <trkpt lat="41.6976540" lon="2.0852060">
        <ele>759.7</ele>
        <time>2022-09-26T11:43:25Z</time>
      </trkpt>
      <trkpt lat="41.6976330" lon="2.0852320">
        <ele>759.8</ele>
        <time>2022-09-26T11:43:26Z</time>
      </trkpt>
      <trkpt lat="41.6976050" lon="2.0852680">
        <ele>759.9</ele>
        <time>2022-09-26T11:43:27Z</time>
      </trkpt>
      <trkpt lat="41.6975930" lon="2.0852850">
        <ele>759.9</ele>
        <time>2022-09-26T11:43:28Z</time>
      </trkpt>
      <trkpt lat="41.6975740" lon="2.0853180">
        <ele>759.9</ele>
        <time>2022-09-26T11:43:29Z</time>
      </trkpt>
      <trkpt lat="41.6975560" lon="2.0853580">
        <ele>759.9</ele>
        <time>2022-09-26T11:43:30Z</time>
      </trkpt>
      <trkpt lat="41.6975370" lon="2.0854080">
        <ele>759.9</ele>
        <time>2022-09-26T11:43:31Z</time>
      </trkpt>
      <trkpt lat="41.6975290" lon="2.0854260">
        <ele>759.9</ele>
        <time>2022-09-26T11:43:32Z</time>
      </trkpt>
      <trkpt lat="41.6975140" lon="2.0854580">
        <ele>759.9</ele>
        <time>2022-09-26T11:43:33Z</time>
      </trkpt>
      <trkpt lat="41.6974920" lon="2.0855030">
        <ele>759.8</ele>
        <time>2022-09-26T11:43:34Z</time>
      </trkpt>
      <trkpt lat="41.6974710" lon="2.0855420">
        <ele>759.8</ele>
        <time>2022-09-26T11:43:35Z</time>
      </trkpt>
      <trkpt lat="41.6974320" lon="2.0856030">
        <ele>759.6</ele>
        <time>2022-09-26T11:43:37Z</time>
      </trkpt>
      <trkpt lat="41.6974050" lon="2.0856460">
        <ele>759.5</ele>
        <time>2022-09-26T11:43:38Z</time>
      </trkpt>
      <trkpt lat="41.6973700" lon="2.0856980">
        <ele>759.4</ele>
        <time>2022-09-26T11:43:39Z</time>
      </trkpt>
      <trkpt lat="41.6973360" lon="2.0857310">
        <ele>759.3</ele>
        <time>2022-09-26T11:43:40Z</time>
      </trkpt>
      <trkpt lat="41.6973080" lon="2.0857540">
        <ele>759.2</ele>
        <time>2022-09-26T11:43:41Z</time>
      </trkpt>
      <trkpt lat="41.6972690" lon="2.0857840">
        <ele>759.1</ele>
        <time>2022-09-26T11:43:43Z</time>
      </trkpt>
      <trkpt lat="41.6972440" lon="2.0858030">
        <ele>759.0</ele>
        <time>2022-09-26T11:43:44Z</time>
      </trkpt>
      <trkpt lat="41.6972200" lon="2.0858280">
        <ele>758.9</ele>
        <time>2022-09-26T11:43:45Z</time>
      </trkpt>
      <trkpt lat="41.6972150" lon="2.0858280">
        <ele>758.9</ele>
        <time>2022-09-26T11:43:46Z</time>
      </trkpt>
      <trkpt lat="41.6972080" lon="2.0858320">
        <ele>758.9</ele>
        <time>2022-09-26T11:43:47Z</time>
      </trkpt>
      <trkpt lat="41.6972010" lon="2.0858360">
        <ele>758.8</ele>
        <time>2022-09-26T11:43:48Z</time>
      </trkpt>
      <trkpt lat="41.6971940" lon="2.0858390">
        <ele>758.8</ele>
        <time>2022-09-26T11:43:49Z</time>
      </trkpt>
      <trkpt lat="41.6971870" lon="2.0858430">
        <ele>758.8</ele>
        <time>2022-09-26T11:43:50Z</time>
      </trkpt>
      <trkpt lat="41.6971800" lon="2.0858470">
        <ele>758.8</ele>
        <time>2022-09-26T11:43:51Z</time>
      </trkpt>
      <trkpt lat="41.6971730" lon="2.0858510">
        <ele>758.7</ele>
        <time>2022-09-26T11:43:52Z</time>
      </trkpt>
      <trkpt lat="41.6971660" lon="2.0858540">
        <ele>758.7</ele>
        <time>2022-09-26T11:43:53Z</time>
      </trkpt>
      <trkpt lat="41.6971590" lon="2.0858580">
        <ele>758.7</ele>
        <time>2022-09-26T11:43:54Z</time>
      </trkpt>
      <trkpt lat="41.6971520" lon="2.0858620">
        <ele>758.7</ele>
        <time>2022-09-26T11:43:55Z</time>
      </trkpt>
      <trkpt lat="41.6971450" lon="2.0858660">
        <ele>758.6</ele>
        <time>2022-09-26T11:43:56Z</time>
      </trkpt>
      <trkpt lat="41.6971380" lon="2.0858690">
        <ele>758.6</ele>
        <time>2022-09-26T11:44:18Z</time>
      </trkpt>
      <trkpt lat="41.6971310" lon="2.0858730">
        <ele>758.6</ele>
        <time>2022-09-26T11:44:19Z</time>
      </trkpt>
      <trkpt lat="41.6971020" lon="2.0858940">
        <ele>758.4</ele>
        <time>2022-09-26T11:44:20Z</time>
      </trkpt>
      <trkpt lat="41.6970710" lon="2.0859290">
        <ele>758.3</ele>
        <time>2022-09-26T11:44:21Z</time>
      </trkpt>
      <trkpt lat="41.6970600" lon="2.0859480">
        <ele>758.2</ele>
        <time>2022-09-26T11:44:22Z</time>
      </trkpt>
      <trkpt lat="41.6970360" lon="2.0859880">
        <ele>758.0</ele>
        <time>2022-09-26T11:44:23Z</time>
      </trkpt>
      <trkpt lat="41.6970080" lon="2.0860350">
        <ele>757.8</ele>
        <time>2022-09-26T11:44:24Z</time>
      </trkpt>
      <trkpt lat="41.6969790" lon="2.0860810">
        <ele>757.6</ele>
        <time>2022-09-26T11:44:25Z</time>
      </trkpt>
      <trkpt lat="41.6969510" lon="2.0861270">
        <ele>757.4</ele>
        <time>2022-09-26T11:44:26Z</time>
      </trkpt>
      <trkpt lat="41.6969210" lon="2.0861750">
        <ele>757.2</ele>
        <time>2022-09-26T11:44:28Z</time>
      </trkpt>
      <trkpt lat="41.6968680" lon="2.0862740">
        <ele>756.8</ele>
        <time>2022-09-26T11:44:29Z</time>
      </trkpt>
      <trkpt lat="41.6968430" lon="2.0863310">
        <ele>756.5</ele>
        <time>2022-09-26T11:44:30Z</time>
      </trkpt>
      <trkpt lat="41.6968150" lon="2.0863860">
        <ele>756.3</ele>
        <time>2022-09-26T11:44:31Z</time>
      </trkpt>
      <trkpt lat="41.6967820" lon="2.0864390">
        <ele>756.0</ele>
        <time>2022-09-26T11:44:32Z</time>
      </trkpt>
      <trkpt lat="41.6967410" lon="2.0864880">
        <ele>755.7</ele>
        <time>2022-09-26T11:44:33Z</time>
      </trkpt>
      <trkpt lat="41.6966920" lon="2.0865240">
        <ele>755.5</ele>
        <time>2022-09-26T11:44:34Z</time>
      </trkpt>
      <trkpt lat="41.6966380" lon="2.0865500">
        <ele>755.2</ele>
        <time>2022-09-26T11:44:35Z</time>
      </trkpt>
      <trkpt lat="41.6965790" lon="2.0865570">
        <ele>754.8</ele>
        <time>2022-09-26T11:44:36Z</time>
      </trkpt>
      <trkpt lat="41.6965180" lon="2.0865400">
        <ele>754.4</ele>
        <time>2022-09-26T11:44:37Z</time>
      </trkpt>
      <trkpt lat="41.6964600" lon="2.0864970">
        <ele>754.0</ele>
        <time>2022-09-26T11:44:38Z</time>
      </trkpt>
      <trkpt lat="41.6964140" lon="2.0864300">
        <ele>753.6</ele>
        <time>2022-09-26T11:44:39Z</time>
      </trkpt>
      <trkpt lat="41.6963720" lon="2.0863580">
        <ele>753.1</ele>
        <time>2022-09-26T11:44:40Z</time>
      </trkpt>
      <trkpt lat="41.6963160" lon="2.0862970">
        <ele>752.7</ele>
        <time>2022-09-26T11:44:41Z</time>
      </trkpt>
      <trkpt lat="41.6962470" lon="2.0862540">
        <ele>752.2</ele>
        <time>2022-09-26T11:44:42Z</time>
      </trkpt>
      <trkpt lat="41.6961770" lon="2.0862210">
        <ele>751.7</ele>
        <time>2022-09-26T11:44:43Z</time>
      </trkpt>
      <trkpt lat="41.6961070" lon="2.0861950">
        <ele>751.3</ele>
        <time>2022-09-26T11:44:44Z</time>
      </trkpt>
      <trkpt lat="41.6960360" lon="2.0861860">
        <ele>750.8</ele>
        <time>2022-09-26T11:44:45Z</time>
      </trkpt>
      <trkpt lat="41.6959610" lon="2.0861820">
        <ele>750.3</ele>
        <time>2022-09-26T11:44:46Z</time>
      </trkpt>
      <trkpt lat="41.6958860" lon="2.0861880">
        <ele>749.9</ele>
        <time>2022-09-26T11:44:47Z</time>
      </trkpt>
      <trkpt lat="41.6958140" lon="2.0861970">
        <ele>749.4</ele>
        <time>2022-09-26T11:44:48Z</time>
      </trkpt>
      <trkpt lat="41.6957380" lon="2.0862100">
        <ele>749.0</ele>
        <time>2022-09-26T11:44:49Z</time>
      </trkpt>
      <trkpt lat="41.6956620" lon="2.0862290">
        <ele>748.6</ele>
        <time>2022-09-26T11:44:50Z</time>
      </trkpt>
      <trkpt lat="41.6955860" lon="2.0862550">
        <ele>748.2</ele>
        <time>2022-09-26T11:44:51Z</time>
      </trkpt>
      <trkpt lat="41.6955080" lon="2.0862860">
        <ele>747.7</ele>
        <time>2022-09-26T11:44:52Z</time>
      </trkpt>
      <trkpt lat="41.6954350" lon="2.0863280">
        <ele>747.3</ele>
        <time>2022-09-26T11:44:53Z</time>
      </trkpt>
      <trkpt lat="41.6953650" lon="2.0863760">
        <ele>746.8</ele>
        <time>2022-09-26T11:44:54Z</time>
      </trkpt>
      <trkpt lat="41.6953000" lon="2.0864310">
        <ele>746.3</ele>
        <time>2022-09-26T11:44:55Z</time>
      </trkpt>
      <trkpt lat="41.6952390" lon="2.0864950">
        <ele>745.8</ele>
        <time>2022-09-26T11:44:56Z</time>
      </trkpt>
      <trkpt lat="41.6951790" lon="2.0865640">
        <ele>745.3</ele>
        <time>2022-09-26T11:44:57Z</time>
      </trkpt>
      <trkpt lat="41.6951180" lon="2.0866350">
        <ele>744.8</ele>
        <time>2022-09-26T11:44:58Z</time>
      </trkpt>
      <trkpt lat="41.6950590" lon="2.0867090">
        <ele>744.4</ele>
        <time>2022-09-26T11:44:59Z</time>
      </trkpt>
      <trkpt lat="41.6950030" lon="2.0867860">
        <ele>743.9</ele>
        <time>2022-09-26T11:45:00Z</time>
      </trkpt>
      <trkpt lat="41.6949560" lon="2.0868730">
        <ele>743.5</ele>
        <time>2022-09-26T11:45:01Z</time>
      </trkpt>
      <trkpt lat="41.6949260" lon="2.0869720">
        <ele>743.3</ele>
        <time>2022-09-26T11:45:02Z</time>
      </trkpt>
      <trkpt lat="41.6949030" lon="2.0870790">
        <ele>743.3</ele>
        <time>2022-09-26T11:45:03Z</time>
      </trkpt>
      <trkpt lat="41.6948840" lon="2.0871850">
        <ele>743.5</ele>
        <time>2022-09-26T11:45:04Z</time>
      </trkpt>
      <trkpt lat="41.6948680" lon="2.0872840">
        <ele>743.7</ele>
        <time>2022-09-26T11:45:05Z</time>
      </trkpt>
      <trkpt lat="41.6948550" lon="2.0873800">
        <ele>743.9</ele>
        <time>2022-09-26T11:45:06Z</time>
      </trkpt>
      <trkpt lat="41.6948450" lon="2.0874630">
        <ele>744.1</ele>
        <time>2022-09-26T11:45:07Z</time>
      </trkpt>
      <trkpt lat="41.6948360" lon="2.0875370">
        <ele>744.1</ele>
        <time>2022-09-26T11:45:08Z</time>
      </trkpt>
      <trkpt lat="41.6948240" lon="2.0876030">
        <ele>744.2</ele>
        <time>2022-09-26T11:45:09Z</time>
      </trkpt>
      <trkpt lat="41.6948150" lon="2.0876730">
        <ele>744.1</ele>
        <time>2022-09-26T11:45:10Z</time>
      </trkpt>
      <trkpt lat="41.6948050" lon="2.0877430">
        <ele>744.1</ele>
        <time>2022-09-26T11:45:11Z</time>
      </trkpt>
      <trkpt lat="41.6947920" lon="2.0878150">
        <ele>744.1</ele>
        <time>2022-09-26T11:45:12Z</time>
      </trkpt>
      <trkpt lat="41.6947740" lon="2.0878910">
        <ele>744.1</ele>
        <time>2022-09-26T11:45:13Z</time>
      </trkpt>
      <trkpt lat="41.6947550" lon="2.0879660">
        <ele>744.1</ele>
        <time>2022-09-26T11:45:14Z</time>
      </trkpt>
      <trkpt lat="41.6947360" lon="2.0880420">
        <ele>744.2</ele>
        <time>2022-09-26T11:45:15Z</time>
      </trkpt>
      <trkpt lat="41.6947160" lon="2.0881160">
        <ele>744.3</ele>
        <time>2022-09-26T11:45:16Z</time>
      </trkpt>
      <trkpt lat="41.6946980" lon="2.0881900">
        <ele>744.4</ele>
        <time>2022-09-26T11:45:17Z</time>
      </trkpt>
      <trkpt lat="41.6946790" lon="2.0882590">
        <ele>744.5</ele>
        <time>2022-09-26T11:45:18Z</time>
      </trkpt>
      <trkpt lat="41.6946620" lon="2.0883220">
        <ele>744.6</ele>
        <time>2022-09-26T11:45:19Z</time>
      </trkpt>
      <trkpt lat="41.6946440" lon="2.0883860">
        <ele>744.7</ele>
        <time>2022-09-26T11:45:20Z</time>
      </trkpt>
      <trkpt lat="41.6946250" lon="2.0884460">
        <ele>744.8</ele>
        <time>2022-09-26T11:45:21Z</time>
      </trkpt>
      <trkpt lat="41.6946060" lon="2.0885040">
        <ele>744.9</ele>
        <time>2022-09-26T11:45:22Z</time>
      </trkpt>
      <trkpt lat="41.6945890" lon="2.0885600">
        <ele>745.0</ele>
        <time>2022-09-26T11:45:23Z</time>
      </trkpt>
      <trkpt lat="41.6945720" lon="2.0886150">
        <ele>745.0</ele>
        <time>2022-09-26T11:45:24Z</time>
      </trkpt>
      <trkpt lat="41.6945620" lon="2.0886510">
        <ele>745.0</ele>
        <time>2022-09-26T11:45:25Z</time>
      </trkpt>
      <trkpt lat="41.6945520" lon="2.0887060">
        <ele>745.0</ele>
        <time>2022-09-26T11:45:26Z</time>
      </trkpt>
      <trkpt lat="41.6945450" lon="2.0887710">
        <ele>745.0</ele>
        <time>2022-09-26T11:45:27Z</time>
      </trkpt>
      <trkpt lat="41.6945410" lon="2.0888290">
        <ele>744.9</ele>
        <time>2022-09-26T11:45:28Z</time>
      </trkpt>
      <trkpt lat="41.6945380" lon="2.0888920">
        <ele>744.8</ele>
        <time>2022-09-26T11:45:29Z</time>
      </trkpt>
      <trkpt lat="41.6945360" lon="2.0889560">
        <ele>744.6</ele>
        <time>2022-09-26T11:45:30Z</time>
      </trkpt>
      <trkpt lat="41.6945340" lon="2.0890180">
        <ele>744.4</ele>
        <time>2022-09-26T11:45:31Z</time>
      </trkpt>
      <trkpt lat="41.6945320" lon="2.0890870">
        <ele>744.1</ele>
        <time>2022-09-26T11:45:32Z</time>
      </trkpt>
      <trkpt lat="41.6945300" lon="2.0891270">
        <ele>743.9</ele>
        <time>2022-09-26T11:45:33Z</time>
      </trkpt>
      <trkpt lat="41.6945240" lon="2.0891990">
        <ele>743.5</ele>
        <time>2022-09-26T11:45:34Z</time>
      </trkpt>
      <trkpt lat="41.6945170" lon="2.0892750">
        <ele>743.2</ele>
        <time>2022-09-26T11:45:35Z</time>
      </trkpt>
      <trkpt lat="41.6945060" lon="2.0893610">
        <ele>742.7</ele>
        <time>2022-09-26T11:45:36Z</time>
      </trkpt>
      <trkpt lat="41.6944900" lon="2.0894560">
        <ele>742.3</ele>
        <time>2022-09-26T11:45:37Z</time>
      </trkpt>
      <trkpt lat="41.6944680" lon="2.0895570">
        <ele>742.0</ele>
        <time>2022-09-26T11:45:38Z</time>
      </trkpt>
      <trkpt lat="41.6944430" lon="2.0896640">
        <ele>741.8</ele>
        <time>2022-09-26T11:45:39Z</time>
      </trkpt>
      <trkpt lat="41.6944240" lon="2.0897730">
        <ele>741.7</ele>
        <time>2022-09-26T11:45:40Z</time>
      </trkpt>
      <trkpt lat="41.6944100" lon="2.0898800">
        <ele>741.6</ele>
        <time>2022-09-26T11:45:41Z</time>
      </trkpt>
      <trkpt lat="41.6943990" lon="2.0899850">
        <ele>741.6</ele>
        <time>2022-09-26T11:45:42Z</time>
      </trkpt>
      <trkpt lat="41.6943900" lon="2.0900810">
        <ele>741.7</ele>
        <time>2022-09-26T11:45:43Z</time>
      </trkpt>
      <trkpt lat="41.6943790" lon="2.0901710">
        <ele>741.8</ele>
        <time>2022-09-26T11:45:44Z</time>
      </trkpt>
      <trkpt lat="41.6943660" lon="2.0902560">
        <ele>741.8</ele>
        <time>2022-09-26T11:45:45Z</time>
      </trkpt>
      <trkpt lat="41.6943530" lon="2.0903310">
        <ele>741.8</ele>
        <time>2022-09-26T11:45:46Z</time>
      </trkpt>
      <trkpt lat="41.6943380" lon="2.0903950">
        <ele>741.7</ele>
        <time>2022-09-26T11:45:47Z</time>
      </trkpt>
      <trkpt lat="41.6943210" lon="2.0904490">
        <ele>741.6</ele>
        <time>2022-09-26T11:45:48Z</time>
      </trkpt>
      <trkpt lat="41.6943020" lon="2.0905010">
        <ele>741.5</ele>
        <time>2022-09-26T11:45:49Z</time>
      </trkpt>
      <trkpt lat="41.6942870" lon="2.0905310">
        <ele>741.4</ele>
        <time>2022-09-26T11:45:50Z</time>
      </trkpt>
      <trkpt lat="41.6942670" lon="2.0905810">
        <ele>741.2</ele>
        <time>2022-09-26T11:45:51Z</time>
      </trkpt>
      <trkpt lat="41.6942400" lon="2.0906480">
        <ele>741.0</ele>
        <time>2022-09-26T11:45:52Z</time>
      </trkpt>
      <trkpt lat="41.6942110" lon="2.0907130">
        <ele>740.8</ele>
        <time>2022-09-26T11:45:53Z</time>
      </trkpt>
      <trkpt lat="41.6941790" lon="2.0907800">
        <ele>740.6</ele>
        <time>2022-09-26T11:45:54Z</time>
      </trkpt>
      <trkpt lat="41.6941420" lon="2.0908460">
        <ele>740.3</ele>
        <time>2022-09-26T11:45:55Z</time>
      </trkpt>
      <trkpt lat="41.6941010" lon="2.0909080">
        <ele>740.1</ele>
        <time>2022-09-26T11:45:56Z</time>
      </trkpt>
      <trkpt lat="41.6940570" lon="2.0909760">
        <ele>739.8</ele>
        <time>2022-09-26T11:45:57Z</time>
      </trkpt>
      <trkpt lat="41.6940140" lon="2.0910430">
        <ele>739.6</ele>
        <time>2022-09-26T11:45:58Z</time>
      </trkpt>
      <trkpt lat="41.6939700" lon="2.0911100">
        <ele>739.4</ele>
        <time>2022-09-26T11:45:59Z</time>
      </trkpt>
      <trkpt lat="41.6939270" lon="2.0911710">
        <ele>739.0</ele>
        <time>2022-09-26T11:46:00Z</time>
      </trkpt>
      <trkpt lat="41.6938890" lon="2.0912350">
        <ele>738.7</ele>
        <time>2022-09-26T11:46:01Z</time>
      </trkpt>
      <trkpt lat="41.6938500" lon="2.0913000">
        <ele>738.2</ele>
        <time>2022-09-26T11:46:02Z</time>
      </trkpt>
      <trkpt lat="41.6938100" lon="2.0913660">
        <ele>737.7</ele>
        <time>2022-09-26T11:46:03Z</time>
      </trkpt>
      <trkpt lat="41.6937660" lon="2.0914320">
        <ele>737.2</ele>
        <time>2022-09-26T11:46:04Z</time>
      </trkpt>
      <trkpt lat="41.6937160" lon="2.0914990">
        <ele>736.7</ele>
        <time>2022-09-26T11:46:05Z</time>
      </trkpt>
      <trkpt lat="41.6936610" lon="2.0915650">
        <ele>736.0</ele>
        <time>2022-09-26T11:46:06Z</time>
      </trkpt>
      <trkpt lat="41.6936000" lon="2.0916280">
        <ele>735.4</ele>
        <time>2022-09-26T11:46:07Z</time>
      </trkpt>
      <trkpt lat="41.6935330" lon="2.0916860">
        <ele>734.6</ele>
        <time>2022-09-26T11:46:08Z</time>
      </trkpt>
      <trkpt lat="41.6934570" lon="2.0917440">
        <ele>733.8</ele>
        <time>2022-09-26T11:46:09Z</time>
      </trkpt>
      <trkpt lat="41.6933800" lon="2.0918070">
        <ele>732.9</ele>
        <time>2022-09-26T11:46:10Z</time>
      </trkpt>
      <trkpt lat="41.6933060" lon="2.0918740">
        <ele>732.0</ele>
        <time>2022-09-26T11:46:11Z</time>
      </trkpt>
      <trkpt lat="41.6932400" lon="2.0919540">
        <ele>731.0</ele>
        <time>2022-09-26T11:46:12Z</time>
      </trkpt>
      <trkpt lat="41.6931890" lon="2.0920480">
        <ele>730.1</ele>
        <time>2022-09-26T11:46:13Z</time>
      </trkpt>
      <trkpt lat="41.6931550" lon="2.0921550">
        <ele>729.1</ele>
        <time>2022-09-26T11:46:14Z</time>
      </trkpt>
      <trkpt lat="41.6931350" lon="2.0922730">
        <ele>728.1</ele>
        <time>2022-09-26T11:46:15Z</time>
      </trkpt>
      <trkpt lat="41.6931090" lon="2.0923900">
        <ele>727.2</ele>
        <time>2022-09-26T11:46:16Z</time>
      </trkpt>
      <trkpt lat="41.6930630" lon="2.0924990">
        <ele>726.4</ele>
        <time>2022-09-26T11:46:17Z</time>
      </trkpt>
      <trkpt lat="41.6929950" lon="2.0925920">
        <ele>725.6</ele>
        <time>2022-09-26T11:46:18Z</time>
      </trkpt>
      <trkpt lat="41.6929120" lon="2.0926770">
        <ele>724.8</ele>
        <time>2022-09-26T11:46:19Z</time>
      </trkpt>
      <trkpt lat="41.6928260" lon="2.0927560">
        <ele>723.9</ele>
        <time>2022-09-26T11:46:20Z</time>
      </trkpt>
      <trkpt lat="41.6927440" lon="2.0928330">
        <ele>722.9</ele>
        <time>2022-09-26T11:46:21Z</time>
      </trkpt>
      <trkpt lat="41.6926690" lon="2.0929110">
        <ele>721.8</ele>
        <time>2022-09-26T11:46:22Z</time>
      </trkpt>
      <trkpt lat="41.6926060" lon="2.0929890">
        <ele>720.8</ele>
        <time>2022-09-26T11:46:23Z</time>
      </trkpt>
      <trkpt lat="41.6925660" lon="2.0930730">
        <ele>720.0</ele>
        <time>2022-09-26T11:46:24Z</time>
      </trkpt>
      <trkpt lat="41.6925620" lon="2.0931680">
        <ele>719.4</ele>
        <time>2022-09-26T11:46:25Z</time>
      </trkpt>
      <trkpt lat="41.6925770" lon="2.0932750">
        <ele>718.8</ele>
        <time>2022-09-26T11:46:26Z</time>
      </trkpt>
      <trkpt lat="41.6926180" lon="2.0933830">
        <ele>718.3</ele>
        <time>2022-09-26T11:46:27Z</time>
      </trkpt>
      <trkpt lat="41.6926760" lon="2.0934820">
        <ele>717.9</ele>
        <time>2022-09-26T11:46:28Z</time>
      </trkpt>
      <trkpt lat="41.6927390" lon="2.0935750">
        <ele>717.6</ele>
        <time>2022-09-26T11:46:29Z</time>
      </trkpt>
      <trkpt lat="41.6928110" lon="2.0936540">
        <ele>717.4</ele>
        <time>2022-09-26T11:46:30Z</time>
      </trkpt>
      <trkpt lat="41.6928860" lon="2.0937160">
        <ele>717.4</ele>
        <time>2022-09-26T11:46:31Z</time>
      </trkpt>
      <trkpt lat="41.6929590" lon="2.0937780">
        <ele>717.4</ele>
        <time>2022-09-26T11:46:32Z</time>
      </trkpt>
      <trkpt lat="41.6930260" lon="2.0938510">
        <ele>717.5</ele>
        <time>2022-09-26T11:46:33Z</time>
      </trkpt>
      <trkpt lat="41.6930820" lon="2.0939410">
        <ele>717.7</ele>
        <time>2022-09-26T11:46:34Z</time>
      </trkpt>
      <trkpt lat="41.6931110" lon="2.0940460">
        <ele>718.0</ele>
        <time>2022-09-26T11:46:35Z</time>
      </trkpt>
      <trkpt lat="41.6931050" lon="2.0941470">
        <ele>718.3</ele>
        <time>2022-09-26T11:46:36Z</time>
      </trkpt>
      <trkpt lat="41.6930670" lon="2.0942270">
        <ele>718.7</ele>
        <time>2022-09-26T11:46:37Z</time>
      </trkpt>
      <trkpt lat="41.6930120" lon="2.0942750">
        <ele>719.0</ele>
        <time>2022-09-26T11:46:38Z</time>
      </trkpt>
      <trkpt lat="41.6929590" lon="2.0943160">
        <ele>719.3</ele>
        <time>2022-09-26T11:46:39Z</time>
      </trkpt>
      <trkpt lat="41.6929090" lon="2.0943450">
        <ele>719.6</ele>
        <time>2022-09-26T11:46:40Z</time>
      </trkpt>
      <trkpt lat="41.6928620" lon="2.0943720">
        <ele>719.8</ele>
        <time>2022-09-26T11:46:41Z</time>
      </trkpt>
      <trkpt lat="41.6928160" lon="2.0943960">
        <ele>720.0</ele>
        <time>2022-09-26T11:46:42Z</time>
      </trkpt>
      <trkpt lat="41.6927710" lon="2.0944210">
        <ele>720.2</ele>
        <time>2022-09-26T11:46:43Z</time>
      </trkpt>
      <trkpt lat="41.6927290" lon="2.0944500">
        <ele>720.4</ele>
        <time>2022-09-26T11:46:44Z</time>
      </trkpt>
      <trkpt lat="41.6926870" lon="2.0944790">
        <ele>720.6</ele>
        <time>2022-09-26T11:46:45Z</time>
      </trkpt>
      <trkpt lat="41.6926460" lon="2.0945050">
        <ele>720.8</ele>
        <time>2022-09-26T11:46:46Z</time>
      </trkpt>
      <trkpt lat="41.6926160" lon="2.0945230">
        <ele>720.9</ele>
        <time>2022-09-26T11:46:47Z</time>
      </trkpt>
      <trkpt lat="41.6925810" lon="2.0945380">
        <ele>721.1</ele>
        <time>2022-09-26T11:46:48Z</time>
      </trkpt>
      <trkpt lat="41.6925200" lon="2.0945510">
        <ele>721.4</ele>
        <time>2022-09-26T11:46:49Z</time>
      </trkpt>
      <trkpt lat="41.6924670" lon="2.0945510">
        <ele>721.6</ele>
        <time>2022-09-26T11:46:50Z</time>
      </trkpt>
      <trkpt lat="41.6924370" lon="2.0945430">
        <ele>721.7</ele>
        <time>2022-09-26T11:46:51Z</time>
      </trkpt>
      <trkpt lat="41.6923890" lon="2.0945230">
        <ele>721.9</ele>
        <time>2022-09-26T11:46:52Z</time>
      </trkpt>
      <trkpt lat="41.6923330" lon="2.0945000">
        <ele>722.2</ele>
        <time>2022-09-26T11:46:53Z</time>
      </trkpt>
      <trkpt lat="41.6923080" lon="2.0945100">
        <ele>722.2</ele>
        <time>2022-09-26T11:46:54Z</time>
      </trkpt>
      <trkpt lat="41.6922870" lon="2.0945000">
        <ele>722.3</ele>
        <time>2022-09-26T11:46:55Z</time>
      </trkpt>
      <trkpt lat="41.6922340" lon="2.0944550">
        <ele>722.5</ele>
        <time>2022-09-26T11:46:56Z</time>
      </trkpt>
      <trkpt lat="41.6921870" lon="2.0944360">
        <ele>722.6</ele>
        <time>2022-09-26T11:46:57Z</time>
      </trkpt>
      <trkpt lat="41.6921400" lon="2.0944200">
        <ele>722.7</ele>
        <time>2022-09-26T11:46:58Z</time>
      </trkpt>
      <trkpt lat="41.6921010" lon="2.0944040">
        <ele>722.7</ele>
        <time>2022-09-26T11:46:59Z</time>
      </trkpt>
      <trkpt lat="41.6920600" lon="2.0943870">
        <ele>722.8</ele>
        <time>2022-09-26T11:47:00Z</time>
      </trkpt>
      <trkpt lat="41.6920190" lon="2.0943720">
        <ele>722.8</ele>
        <time>2022-09-26T11:47:01Z</time>
      </trkpt>
      <trkpt lat="41.6919830" lon="2.0943600">
        <ele>722.9</ele>
        <time>2022-09-26T11:47:02Z</time>
      </trkpt>
      <trkpt lat="41.6919300" lon="2.0943480">
        <ele>722.9</ele>
        <time>2022-09-26T11:47:03Z</time>
      </trkpt>
      <trkpt lat="41.6918940" lon="2.0943470">
        <ele>722.9</ele>
        <time>2022-09-26T11:47:04Z</time>
      </trkpt>
      <trkpt lat="41.6918480" lon="2.0943540">
        <ele>722.9</ele>
        <time>2022-09-26T11:47:05Z</time>
      </trkpt>
      <trkpt lat="41.6918090" lon="2.0943640">
        <ele>722.9</ele>
        <time>2022-09-26T11:47:06Z</time>
      </trkpt>
      <trkpt lat="41.6917490" lon="2.0943810">
        <ele>722.9</ele>
        <time>2022-09-26T11:47:07Z</time>
      </trkpt>
      <trkpt lat="41.6916980" lon="2.0944020">
        <ele>722.9</ele>
        <time>2022-09-26T11:47:08Z</time>
      </trkpt>
      <trkpt lat="41.6916480" lon="2.0944270">
        <ele>722.9</ele>
        <time>2022-09-26T11:47:09Z</time>
      </trkpt>
      <trkpt lat="41.6916050" lon="2.0944550">
        <ele>722.9</ele>
        <time>2022-09-26T11:47:10Z</time>
      </trkpt>
      <trkpt lat="41.6915670" lon="2.0944930">
        <ele>722.8</ele>
        <time>2022-09-26T11:47:11Z</time>
      </trkpt>
      <trkpt lat="41.6915510" lon="2.0945110">
        <ele>722.8</ele>
        <time>2022-09-26T11:47:12Z</time>
      </trkpt>
      <trkpt lat="41.6915140" lon="2.0945580">
        <ele>722.6</ele>
        <time>2022-09-26T11:47:13Z</time>
      </trkpt>
      <trkpt lat="41.6914900" lon="2.0945910">
        <ele>722.5</ele>
        <time>2022-09-26T11:47:14Z</time>
      </trkpt>
      <trkpt lat="41.6914530" lon="2.0946340">
        <ele>722.3</ele>
        <time>2022-09-26T11:47:15Z</time>
      </trkpt>
      <trkpt lat="41.6914080" lon="2.0946680">
        <ele>722.2</ele>
        <time>2022-09-26T11:47:16Z</time>
      </trkpt>
      <trkpt lat="41.6913570" lon="2.0946840">
        <ele>722.0</ele>
        <time>2022-09-26T11:47:17Z</time>
      </trkpt>
      <trkpt lat="41.6912990" lon="2.0946810">
        <ele>721.9</ele>
        <time>2022-09-26T11:47:18Z</time>
      </trkpt>
      <trkpt lat="41.6912410" lon="2.0946580">
        <ele>721.8</ele>
        <time>2022-09-26T11:47:19Z</time>
      </trkpt>
      <trkpt lat="41.6911820" lon="2.0946320">
        <ele>721.6</ele>
        <time>2022-09-26T11:47:20Z</time>
      </trkpt>
      <trkpt lat="41.6911230" lon="2.0946200">
        <ele>721.5</ele>
        <time>2022-09-26T11:47:21Z</time>
      </trkpt>
      <trkpt lat="41.6910690" lon="2.0946300">
        <ele>721.4</ele>
        <time>2022-09-26T11:47:22Z</time>
      </trkpt>
      <trkpt lat="41.6910180" lon="2.0946550">
        <ele>721.4</ele>
        <time>2022-09-26T11:47:23Z</time>
      </trkpt>
      <trkpt lat="41.6909630" lon="2.0946850">
        <ele>721.3</ele>
        <time>2022-09-26T11:47:24Z</time>
      </trkpt>
      <trkpt lat="41.6909100" lon="2.0947140">
        <ele>721.2</ele>
        <time>2022-09-26T11:47:25Z</time>
      </trkpt>
      <trkpt lat="41.6908610" lon="2.0947470">
        <ele>721.1</ele>
        <time>2022-09-26T11:47:26Z</time>
      </trkpt>
      <trkpt lat="41.6908090" lon="2.0947820">
        <ele>721.0</ele>
        <time>2022-09-26T11:47:27Z</time>
      </trkpt>
      <trkpt lat="41.6907590" lon="2.0948160">
        <ele>720.9</ele>
        <time>2022-09-26T11:47:28Z</time>
      </trkpt>
      <trkpt lat="41.6907070" lon="2.0948520">
        <ele>720.8</ele>
        <time>2022-09-26T11:47:29Z</time>
      </trkpt>
      <trkpt lat="41.6906560" lon="2.0948890">
        <ele>720.7</ele>
        <time>2022-09-26T11:47:30Z</time>
      </trkpt>
      <trkpt lat="41.6906060" lon="2.0949250">
        <ele>720.5</ele>
        <time>2022-09-26T11:47:31Z</time>
      </trkpt>
      <trkpt lat="41.6905580" lon="2.0949610">
        <ele>720.4</ele>
        <time>2022-09-26T11:47:32Z</time>
      </trkpt>
      <trkpt lat="41.6905110" lon="2.0950030">
        <ele>720.2</ele>
        <time>2022-09-26T11:47:33Z</time>
      </trkpt>
      <trkpt lat="41.6904660" lon="2.0950510">
        <ele>720.0</ele>
        <time>2022-09-26T11:47:34Z</time>
      </trkpt>
      <trkpt lat="41.6904240" lon="2.0951010">
        <ele>719.7</ele>
        <time>2022-09-26T11:47:35Z</time>
      </trkpt>
      <trkpt lat="41.6903820" lon="2.0951510">
        <ele>719.3</ele>
        <time>2022-09-26T11:47:36Z</time>
      </trkpt>
      <trkpt lat="41.6903400" lon="2.0952050">
        <ele>718.7</ele>
        <time>2022-09-26T11:47:37Z</time>
      </trkpt>
      <trkpt lat="41.6902940" lon="2.0952590">
        <ele>718.1</ele>
        <time>2022-09-26T11:47:38Z</time>
      </trkpt>
      <trkpt lat="41.6902460" lon="2.0953170">
        <ele>717.2</ele>
        <time>2022-09-26T11:47:39Z</time>
      </trkpt>
      <trkpt lat="41.6902020" lon="2.0953930">
        <ele>716.2</ele>
        <time>2022-09-26T11:47:40Z</time>
      </trkpt>
      <trkpt lat="41.6901630" lon="2.0954860">
        <ele>714.9</ele>
        <time>2022-09-26T11:47:41Z</time>
      </trkpt>
      <trkpt lat="41.6901340" lon="2.0955880">
        <ele>713.7</ele>
        <time>2022-09-26T11:47:42Z</time>
      </trkpt>
      <trkpt lat="41.6901140" lon="2.0957020">
        <ele>712.3</ele>
        <time>2022-09-26T11:47:43Z</time>
      </trkpt>
      <trkpt lat="41.6900970" lon="2.0958240">
        <ele>710.9</ele>
        <time>2022-09-26T11:47:44Z</time>
      </trkpt>
      <trkpt lat="41.6900800" lon="2.0959480">
        <ele>709.7</ele>
        <time>2022-09-26T11:47:45Z</time>
      </trkpt>
      <trkpt lat="41.6900620" lon="2.0960690">
        <ele>708.5</ele>
        <time>2022-09-26T11:47:46Z</time>
      </trkpt>
      <trkpt lat="41.6900370" lon="2.0961820">
        <ele>707.5</ele>
        <time>2022-09-26T11:47:47Z</time>
      </trkpt>
      <trkpt lat="41.6899930" lon="2.0962880">
        <ele>706.6</ele>
        <time>2022-09-26T11:47:48Z</time>
      </trkpt>
      <trkpt lat="41.6899230" lon="2.0963870">
        <ele>705.6</ele>
        <time>2022-09-26T11:47:49Z</time>
      </trkpt>
      <trkpt lat="41.6898480" lon="2.0964710">
        <ele>704.6</ele>
        <time>2022-09-26T11:47:50Z</time>
      </trkpt>
      <trkpt lat="41.6897770" lon="2.0965400">
        <ele>703.5</ele>
        <time>2022-09-26T11:47:51Z</time>
      </trkpt>
      <trkpt lat="41.6897030" lon="2.0965770">
        <ele>702.5</ele>
        <time>2022-09-26T11:47:52Z</time>
      </trkpt>
      <trkpt lat="41.6896180" lon="2.0965900">
        <ele>701.3</ele>
        <time>2022-09-26T11:47:53Z</time>
      </trkpt>
      <trkpt lat="41.6895320" lon="2.0965950">
        <ele>700.2</ele>
        <time>2022-09-26T11:47:54Z</time>
      </trkpt>
      <trkpt lat="41.6894360" lon="2.0965950">
        <ele>699.0</ele>
        <time>2022-09-26T11:47:55Z</time>
      </trkpt>
      <trkpt lat="41.6893380" lon="2.0965750">
        <ele>697.8</ele>
        <time>2022-09-26T11:47:56Z</time>
      </trkpt>
      <trkpt lat="41.6892250" lon="2.0965320">
        <ele>696.7</ele>
        <time>2022-09-26T11:47:57Z</time>
      </trkpt>
      <trkpt lat="41.6891080" lon="2.0964900">
        <ele>695.9</ele>
        <time>2022-09-26T11:47:58Z</time>
      </trkpt>
      <trkpt lat="41.6889990" lon="2.0964550">
        <ele>695.2</ele>
        <time>2022-09-26T11:47:59Z</time>
      </trkpt>
      <trkpt lat="41.6889000" lon="2.0964320">
        <ele>694.6</ele>
        <time>2022-09-26T11:48:00Z</time>
      </trkpt>
      <trkpt lat="41.6888170" lon="2.0964280">
        <ele>694.1</ele>
        <time>2022-09-26T11:48:01Z</time>
      </trkpt>
      <trkpt lat="41.6887390" lon="2.0964480">
        <ele>693.6</ele>
        <time>2022-09-26T11:48:02Z</time>
      </trkpt>
      <trkpt lat="41.6886660" lon="2.0965050">
        <ele>693.1</ele>
        <time>2022-09-26T11:48:03Z</time>
      </trkpt>
      <trkpt lat="41.6886120" lon="2.0965920">
        <ele>692.6</ele>
        <time>2022-09-26T11:48:04Z</time>
      </trkpt>
      <trkpt lat="41.6885620" lon="2.0966910">
        <ele>692.0</ele>
        <time>2022-09-26T11:48:05Z</time>
      </trkpt>
      <trkpt lat="41.6885140" lon="2.0967840">
        <ele>691.4</ele>
        <time>2022-09-26T11:48:06Z</time>
      </trkpt>
      <trkpt lat="41.6884670" lon="2.0968710">
        <ele>690.7</ele>
        <time>2022-09-26T11:48:07Z</time>
      </trkpt>
      <trkpt lat="41.6884370" lon="2.0969520">
        <ele>690.0</ele>
        <time>2022-09-26T11:48:08Z</time>
      </trkpt>
      <trkpt lat="41.6884310" lon="2.0970510">
        <ele>689.2</ele>
        <time>2022-09-26T11:48:09Z</time>
      </trkpt>
      <trkpt lat="41.6884570" lon="2.0971550">
        <ele>688.4</ele>
        <time>2022-09-26T11:48:10Z</time>
      </trkpt>
      <trkpt lat="41.6885150" lon="2.0972470">
        <ele>687.6</ele>
        <time>2022-09-26T11:48:11Z</time>
      </trkpt>
      <trkpt lat="41.6885900" lon="2.0973250">
        <ele>686.8</ele>
        <time>2022-09-26T11:48:12Z</time>
      </trkpt>
      <trkpt lat="41.6886510" lon="2.0974100">
        <ele>686.2</ele>
        <time>2022-09-26T11:48:13Z</time>
      </trkpt>
      <trkpt lat="41.6886840" lon="2.0975040">
        <ele>685.6</ele>
        <time>2022-09-26T11:48:14Z</time>
      </trkpt>
      <trkpt lat="41.6886860" lon="2.0976070">
        <ele>685.0</ele>
        <time>2022-09-26T11:48:15Z</time>
      </trkpt>
      <trkpt lat="41.6886590" lon="2.0977180">
        <ele>684.3</ele>
        <time>2022-09-26T11:48:16Z</time>
      </trkpt>
      <trkpt lat="41.6886260" lon="2.0978310">
        <ele>683.6</ele>
        <time>2022-09-26T11:48:17Z</time>
      </trkpt>
      <trkpt lat="41.6885930" lon="2.0979520">
        <ele>682.9</ele>
        <time>2022-09-26T11:48:18Z</time>
      </trkpt>
      <trkpt lat="41.6885650" lon="2.0980730">
        <ele>682.0</ele>
        <time>2022-09-26T11:48:19Z</time>
      </trkpt>
      <trkpt lat="41.6885490" lon="2.0981780">
        <ele>681.1</ele>
        <time>2022-09-26T11:48:20Z</time>
      </trkpt>
      <trkpt lat="41.6885620" lon="2.0982650">
        <ele>680.2</ele>
        <time>2022-09-26T11:48:21Z</time>
      </trkpt>
      <trkpt lat="41.6886160" lon="2.0983300">
        <ele>679.2</ele>
        <time>2022-09-26T11:48:22Z</time>
      </trkpt>
      <trkpt lat="41.6886970" lon="2.0983670">
        <ele>677.9</ele>
        <time>2022-09-26T11:48:23Z</time>
      </trkpt>
      <trkpt lat="41.6887860" lon="2.0983950">
        <ele>676.5</ele>
        <time>2022-09-26T11:48:24Z</time>
      </trkpt>
      <trkpt lat="41.6888730" lon="2.0984260">
        <ele>675.2</ele>
        <time>2022-09-26T11:48:25Z</time>
      </trkpt>
      <trkpt lat="41.6889560" lon="2.0984690">
        <ele>674.0</ele>
        <time>2022-09-26T11:48:26Z</time>
      </trkpt>
      <trkpt lat="41.6890310" lon="2.0985370">
        <ele>673.1</ele>
        <time>2022-09-26T11:48:27Z</time>
      </trkpt>
      <trkpt lat="41.6890830" lon="2.0986510">
        <ele>672.2</ele>
        <time>2022-09-26T11:48:28Z</time>
      </trkpt>
      <trkpt lat="41.6891270" lon="2.0987810">
        <ele>671.4</ele>
        <time>2022-09-26T11:48:29Z</time>
      </trkpt>
      <trkpt lat="41.6891700" lon="2.0989080">
        <ele>670.5</ele>
        <time>2022-09-26T11:48:30Z</time>
      </trkpt>
      <trkpt lat="41.6892160" lon="2.0990260">
        <ele>669.6</ele>
        <time>2022-09-26T11:48:31Z</time>
      </trkpt>
      <trkpt lat="41.6892630" lon="2.0991420">
        <ele>668.6</ele>
        <time>2022-09-26T11:48:32Z</time>
      </trkpt>
      <trkpt lat="41.6893090" lon="2.0992620">
        <ele>667.5</ele>
        <time>2022-09-26T11:48:33Z</time>
      </trkpt>
      <trkpt lat="41.6893520" lon="2.0993790">
        <ele>666.3</ele>
        <time>2022-09-26T11:48:34Z</time>
      </trkpt>
      <trkpt lat="41.6893970" lon="2.0995030">
        <ele>665.1</ele>
        <time>2022-09-26T11:48:35Z</time>
      </trkpt>
      <trkpt lat="41.6894360" lon="2.0996130">
        <ele>663.9</ele>
        <time>2022-09-26T11:48:36Z</time>
      </trkpt>
      <trkpt lat="41.6894720" lon="2.0997090">
        <ele>662.9</ele>
        <time>2022-09-26T11:48:37Z</time>
      </trkpt>
      <trkpt lat="41.6895000" lon="2.0997910">
        <ele>661.9</ele>
        <time>2022-09-26T11:48:38Z</time>
      </trkpt>
      <trkpt lat="41.6895210" lon="2.0998720">
        <ele>660.9</ele>
        <time>2022-09-26T11:48:39Z</time>
      </trkpt>
      <trkpt lat="41.6895200" lon="2.0999490">
        <ele>660.1</ele>
        <time>2022-09-26T11:48:40Z</time>
      </trkpt>
      <trkpt lat="41.6894930" lon="2.1000240">
        <ele>659.2</ele>
        <time>2022-09-26T11:48:41Z</time>
      </trkpt>
      <trkpt lat="41.6894360" lon="2.1000950">
        <ele>658.2</ele>
        <time>2022-09-26T11:48:42Z</time>
      </trkpt>
      <trkpt lat="41.6893540" lon="2.1001610">
        <ele>657.1</ele>
        <time>2022-09-26T11:48:43Z</time>
      </trkpt>
      <trkpt lat="41.6892660" lon="2.1002250">
        <ele>656.0</ele>
        <time>2022-09-26T11:48:44Z</time>
      </trkpt>
      <trkpt lat="41.6891810" lon="2.1002980">
        <ele>655.1</ele>
        <time>2022-09-26T11:48:45Z</time>
      </trkpt>
      <trkpt lat="41.6891000" lon="2.1003780">
        <ele>654.1</ele>
        <time>2022-09-26T11:48:46Z</time>
      </trkpt>
      <trkpt lat="41.6890150" lon="2.1004630">
        <ele>653.2</ele>
        <time>2022-09-26T11:48:47Z</time>
      </trkpt>
      <trkpt lat="41.6889210" lon="2.1005350">
        <ele>652.3</ele>
        <time>2022-09-26T11:48:48Z</time>
      </trkpt>
      <trkpt lat="41.6888190" lon="2.1005810">
        <ele>651.5</ele>
        <time>2022-09-26T11:48:49Z</time>
      </trkpt>
      <trkpt lat="41.6887110" lon="2.1005950">
        <ele>650.6</ele>
        <time>2022-09-26T11:48:50Z</time>
      </trkpt>
      <trkpt lat="41.6885950" lon="2.1005840">
        <ele>649.6</ele>
        <time>2022-09-26T11:48:51Z</time>
      </trkpt>
      <trkpt lat="41.6884800" lon="2.1005580">
        <ele>648.6</ele>
        <time>2022-09-26T11:48:52Z</time>
      </trkpt>
      <trkpt lat="41.6883680" lon="2.1005140">
        <ele>647.3</ele>
        <time>2022-09-26T11:48:53Z</time>
      </trkpt>
      <trkpt lat="41.6882570" lon="2.1004600">
        <ele>645.9</ele>
        <time>2022-09-26T11:48:54Z</time>
      </trkpt>
      <trkpt lat="41.6881440" lon="2.1004080">
        <ele>644.5</ele>
        <time>2022-09-26T11:48:55Z</time>
      </trkpt>
      <trkpt lat="41.6880200" lon="2.1003600">
        <ele>643.1</ele>
        <time>2022-09-26T11:48:56Z</time>
      </trkpt>
      <trkpt lat="41.6878970" lon="2.1003060">
        <ele>641.8</ele>
        <time>2022-09-26T11:48:57Z</time>
      </trkpt>
      <trkpt lat="41.6877740" lon="2.1002230">
        <ele>640.4</ele>
        <time>2022-09-26T11:48:58Z</time>
      </trkpt>
      <trkpt lat="41.6876590" lon="2.1001130">
        <ele>639.0</ele>
        <time>2022-09-26T11:48:59Z</time>
      </trkpt>
      <trkpt lat="41.6875550" lon="2.1000010">
        <ele>637.7</ele>
        <time>2022-09-26T11:49:00Z</time>
      </trkpt>
      <trkpt lat="41.6874600" lon="2.0999040">
        <ele>636.8</ele>
        <time>2022-09-26T11:49:01Z</time>
      </trkpt>
      <trkpt lat="41.6873790" lon="2.0998160">
        <ele>636.2</ele>
        <time>2022-09-26T11:49:02Z</time>
      </trkpt>
      <trkpt lat="41.6873070" lon="2.0997360">
        <ele>635.9</ele>
        <time>2022-09-26T11:49:03Z</time>
      </trkpt>
      <trkpt lat="41.6872460" lon="2.0996700">
        <ele>635.5</ele>
        <time>2022-09-26T11:49:04Z</time>
      </trkpt>
      <trkpt lat="41.6872000" lon="2.0996120">
        <ele>634.8</ele>
        <time>2022-09-26T11:49:05Z</time>
      </trkpt>
      <trkpt lat="41.6871650" lon="2.0995580">
        <ele>634.7</ele>
        <time>2022-09-26T11:49:06Z</time>
      </trkpt>
      <trkpt lat="41.6871330" lon="2.0994990">
        <ele>634.6</ele>
        <time>2022-09-26T11:49:07Z</time>
      </trkpt>
      <trkpt lat="41.6871090" lon="2.0994280">
        <ele>634.5</ele>
        <time>2022-09-26T11:49:08Z</time>
      </trkpt>
      <trkpt lat="41.6870850" lon="2.0993490">
        <ele>634.4</ele>
        <time>2022-09-26T11:49:09Z</time>
      </trkpt>
      <trkpt lat="41.6870560" lon="2.0992660">
        <ele>634.3</ele>
        <time>2022-09-26T11:49:10Z</time>
      </trkpt>
      <trkpt lat="41.6870230" lon="2.0991840">
        <ele>634.2</ele>
        <time>2022-09-26T11:49:11Z</time>
      </trkpt>
      <trkpt lat="41.6869870" lon="2.0991050">
        <ele>634.1</ele>
        <time>2022-09-26T11:49:12Z</time>
      </trkpt>
      <trkpt lat="41.6869500" lon="2.0990270">
        <ele>634.0</ele>
        <time>2022-09-26T11:49:13Z</time>
      </trkpt>
      <trkpt lat="41.6869040" lon="2.0989550">
        <ele>634.0</ele>
        <time>2022-09-26T11:49:14Z</time>
      </trkpt>
      <trkpt lat="41.6868470" lon="2.0988920">
        <ele>633.9</ele>
        <time>2022-09-26T11:49:15Z</time>
      </trkpt>
      <trkpt lat="41.6867870" lon="2.0988360">
        <ele>633.9</ele>
        <time>2022-09-26T11:49:16Z</time>
      </trkpt>
      <trkpt lat="41.6867250" lon="2.0987940">
        <ele>633.9</ele>
        <time>2022-09-26T11:49:17Z</time>
      </trkpt>
      <trkpt lat="41.6866640" lon="2.0987590">
        <ele>633.8</ele>
        <time>2022-09-26T11:49:18Z</time>
      </trkpt>
      <trkpt lat="41.6866080" lon="2.0987340">
        <ele>633.8</ele>
        <time>2022-09-26T11:49:19Z</time>
      </trkpt>
      <trkpt lat="41.6865530" lon="2.0987040">
        <ele>633.8</ele>
        <time>2022-09-26T11:49:20Z</time>
      </trkpt>
      <trkpt lat="41.6864990" lon="2.0986730">
        <ele>633.7</ele>
        <time>2022-09-26T11:49:21Z</time>
      </trkpt>
      <trkpt lat="41.6864520" lon="2.0986440">
        <ele>633.6</ele>
        <time>2022-09-26T11:49:22Z</time>
      </trkpt>
      <trkpt lat="41.6864080" lon="2.0986130">
        <ele>633.5</ele>
        <time>2022-09-26T11:49:23Z</time>
      </trkpt>
      <trkpt lat="41.6863660" lon="2.0985830">
        <ele>633.4</ele>
        <time>2022-09-26T11:49:24Z</time>
      </trkpt>
      <trkpt lat="41.6863270" lon="2.0985470">
        <ele>633.2</ele>
        <time>2022-09-26T11:49:25Z</time>
      </trkpt>
      <trkpt lat="41.6862890" lon="2.0985070">
        <ele>633.1</ele>
        <time>2022-09-26T11:49:26Z</time>
      </trkpt>
      <trkpt lat="41.6862480" lon="2.0984630">
        <ele>632.8</ele>
        <time>2022-09-26T11:49:27Z</time>
      </trkpt>
      <trkpt lat="41.6862040" lon="2.0984210">
        <ele>632.6</ele>
        <time>2022-09-26T11:49:28Z</time>
      </trkpt>
      <trkpt lat="41.6861620" lon="2.0983760">
        <ele>632.4</ele>
        <time>2022-09-26T11:49:29Z</time>
      </trkpt>
      <trkpt lat="41.6861180" lon="2.0983310">
        <ele>632.1</ele>
        <time>2022-09-26T11:49:30Z</time>
      </trkpt>
      <trkpt lat="41.6860730" lon="2.0982830">
        <ele>631.8</ele>
        <time>2022-09-26T11:49:31Z</time>
      </trkpt>
      <trkpt lat="41.6860290" lon="2.0982290">
        <ele>631.5</ele>
        <time>2022-09-26T11:49:32Z</time>
      </trkpt>
      <trkpt lat="41.6859860" lon="2.0981710">
        <ele>631.2</ele>
        <time>2022-09-26T11:49:33Z</time>
      </trkpt>
      <trkpt lat="41.6859430" lon="2.0981120">
        <ele>630.8</ele>
        <time>2022-09-26T11:49:34Z</time>
      </trkpt>
      <trkpt lat="41.6858970" lon="2.0980530">
        <ele>630.5</ele>
        <time>2022-09-26T11:49:35Z</time>
      </trkpt>
      <trkpt lat="41.6858490" lon="2.0979960">
        <ele>630.2</ele>
        <time>2022-09-26T11:49:36Z</time>
      </trkpt>
      <trkpt lat="41.6858000" lon="2.0979370">
        <ele>629.8</ele>
        <time>2022-09-26T11:49:37Z</time>
      </trkpt>
      <trkpt lat="41.6857500" lon="2.0978780">
        <ele>629.5</ele>
        <time>2022-09-26T11:49:38Z</time>
      </trkpt>
      <trkpt lat="41.6856990" lon="2.0978190">
        <ele>629.1</ele>
        <time>2022-09-26T11:49:39Z</time>
      </trkpt>
      <trkpt lat="41.6856500" lon="2.0977570">
        <ele>628.7</ele>
        <time>2022-09-26T11:49:40Z</time>
      </trkpt>
      <trkpt lat="41.6856070" lon="2.0976940">
        <ele>628.4</ele>
        <time>2022-09-26T11:49:41Z</time>
      </trkpt>
      <trkpt lat="41.6855720" lon="2.0976290">
        <ele>628.1</ele>
        <time>2022-09-26T11:49:42Z</time>
      </trkpt>
      <trkpt lat="41.6855460" lon="2.0975690">
        <ele>627.8</ele>
        <time>2022-09-26T11:49:43Z</time>
      </trkpt>
      <trkpt lat="41.6855240" lon="2.0975170">
        <ele>627.5</ele>
        <time>2022-09-26T11:49:44Z</time>
      </trkpt>
      <trkpt lat="41.6855020" lon="2.0974720">
        <ele>627.1</ele>
        <time>2022-09-26T11:49:45Z</time>
      </trkpt>
      <trkpt lat="41.6854920" lon="2.0974580">
        <ele>627.1</ele>
        <time>2022-09-26T11:49:46Z</time>
      </trkpt>
      <trkpt lat="41.6854550" lon="2.0974300">
        <ele>626.9</ele>
        <time>2022-09-26T11:49:47Z</time>
      </trkpt>
      <trkpt lat="41.6854170" lon="2.0974150">
        <ele>626.8</ele>
        <time>2022-09-26T11:49:48Z</time>
      </trkpt>
      <trkpt lat="41.6853780" lon="2.0973920">
        <ele>626.7</ele>
        <time>2022-09-26T11:49:49Z</time>
      </trkpt>
      <trkpt lat="41.6853410" lon="2.0973630">
        <ele>626.5</ele>
        <time>2022-09-26T11:49:50Z</time>
      </trkpt>
      <trkpt lat="41.6852990" lon="2.0973240">
        <ele>626.4</ele>
        <time>2022-09-26T11:49:51Z</time>
      </trkpt>
      <trkpt lat="41.6852570" lon="2.0972950">
        <ele>626.4</ele>
        <time>2022-09-26T11:49:52Z</time>
      </trkpt>
      <trkpt lat="41.6852160" lon="2.0972740">
        <ele>626.3</ele>
        <time>2022-09-26T11:49:53Z</time>
      </trkpt>
      <trkpt lat="41.6851800" lon="2.0972590">
        <ele>626.3</ele>
        <time>2022-09-26T11:49:54Z</time>
      </trkpt>
      <trkpt lat="41.6851320" lon="2.0972490">
        <ele>626.3</ele>
        <time>2022-09-26T11:49:55Z</time>
      </trkpt>
      <trkpt lat="41.6850760" lon="2.0972480">
        <ele>626.3</ele>
        <time>2022-09-26T11:49:56Z</time>
      </trkpt>
      <trkpt lat="41.6850200" lon="2.0972570">
        <ele>626.4</ele>
        <time>2022-09-26T11:49:57Z</time>
      </trkpt>
      <trkpt lat="41.6849860" lon="2.0972730">
        <ele>626.5</ele>
        <time>2022-09-26T11:49:58Z</time>
      </trkpt>
      <trkpt lat="41.6849430" lon="2.0972900">
        <ele>626.6</ele>
        <time>2022-09-26T11:49:59Z</time>
      </trkpt>
      <trkpt lat="41.6848920" lon="2.0973100">
        <ele>626.8</ele>
        <time>2022-09-26T11:50:00Z</time>
      </trkpt>
      <trkpt lat="41.6848390" lon="2.0973300">
        <ele>627.0</ele>
        <time>2022-09-26T11:50:01Z</time>
      </trkpt>
      <trkpt lat="41.6847930" lon="2.0973480">
        <ele>627.3</ele>
        <time>2022-09-26T11:50:02Z</time>
      </trkpt>
      <trkpt lat="41.6847480" lon="2.0973660">
        <ele>627.5</ele>
        <time>2022-09-26T11:50:03Z</time>
      </trkpt>
      <trkpt lat="41.6847300" lon="2.0973730">
        <ele>627.7</ele>
        <time>2022-09-26T11:50:04Z</time>
      </trkpt>
      <trkpt lat="41.6846890" lon="2.0973870">
        <ele>628.0</ele>
        <time>2022-09-26T11:50:05Z</time>
      </trkpt>
      <trkpt lat="41.6846730" lon="2.0973920">
        <ele>628.1</ele>
        <time>2022-09-26T11:50:06Z</time>
      </trkpt>
      <trkpt lat="41.6846360" lon="2.0973970">
        <ele>628.4</ele>
        <time>2022-09-26T11:50:07Z</time>
      </trkpt>
      <trkpt lat="41.6846210" lon="2.0973980">
        <ele>628.5</ele>
        <time>2022-09-26T11:50:08Z</time>
      </trkpt>
      <trkpt lat="41.6845920" lon="2.0973970">
        <ele>628.8</ele>
        <time>2022-09-26T11:50:09Z</time>
      </trkpt>
      <trkpt lat="41.6845610" lon="2.0973940">
        <ele>629.1</ele>
        <time>2022-09-26T11:50:10Z</time>
      </trkpt>
      <trkpt lat="41.6845330" lon="2.0973890">
        <ele>629.3</ele>
        <time>2022-09-26T11:50:11Z</time>
      </trkpt>
      <trkpt lat="41.6844980" lon="2.0973830">
        <ele>629.6</ele>
        <time>2022-09-26T11:50:12Z</time>
      </trkpt>
      <trkpt lat="41.6844580" lon="2.0973750">
        <ele>630.0</ele>
        <time>2022-09-26T11:50:13Z</time>
      </trkpt>
      <trkpt lat="41.6844210" lon="2.0973650">
        <ele>630.3</ele>
        <time>2022-09-26T11:50:14Z</time>
      </trkpt>
      <trkpt lat="41.6843910" lon="2.0973570">
        <ele>630.6</ele>
        <time>2022-09-26T11:50:15Z</time>
      </trkpt>
      <trkpt lat="41.6843630" lon="2.0973510">
        <ele>630.8</ele>
        <time>2022-09-26T11:50:16Z</time>
      </trkpt>
      <trkpt lat="41.6843280" lon="2.0973450">
        <ele>631.1</ele>
        <time>2022-09-26T11:50:17Z</time>
      </trkpt>
      <trkpt lat="41.6842910" lon="2.0973340">
        <ele>631.3</ele>
        <time>2022-09-26T11:50:18Z</time>
      </trkpt>
      <trkpt lat="41.6842610" lon="2.0973240">
        <ele>631.6</ele>
        <time>2022-09-26T11:50:19Z</time>
      </trkpt>
      <trkpt lat="41.6842250" lon="2.0973140">
        <ele>631.8</ele>
        <time>2022-09-26T11:50:20Z</time>
      </trkpt>
      <trkpt lat="41.6841890" lon="2.0973040">
        <ele>632.0</ele>
        <time>2022-09-26T11:50:21Z</time>
      </trkpt>
      <trkpt lat="41.6841780" lon="2.0973010">
        <ele>632.1</ele>
        <time>2022-09-26T11:50:22Z</time>
      </trkpt>
      <trkpt lat="41.6841520" lon="2.0972920">
        <ele>632.2</ele>
        <time>2022-09-26T11:50:23Z</time>
      </trkpt>
      <trkpt lat="41.6841170" lon="2.0972800">
        <ele>632.4</ele>
        <time>2022-09-26T11:50:24Z</time>
      </trkpt>
      <trkpt lat="41.6841080" lon="2.0972780">
        <ele>632.4</ele>
        <time>2022-09-26T11:50:25Z</time>
      </trkpt>
      <trkpt lat="41.6840780" lon="2.0972720">
        <ele>632.6</ele>
        <time>2022-09-26T11:50:26Z</time>
      </trkpt>
      <trkpt lat="41.6840430" lon="2.0972660">
        <ele>632.7</ele>
        <time>2022-09-26T11:50:27Z</time>
      </trkpt>
      <trkpt lat="41.6840310" lon="2.0972640">
        <ele>632.8</ele>
        <time>2022-09-26T11:50:28Z</time>
      </trkpt>
      <trkpt lat="41.6840000" lon="2.0972670">
        <ele>632.9</ele>
        <time>2022-09-26T11:50:29Z</time>
      </trkpt>
      <trkpt lat="41.6839930" lon="2.0972680">
        <ele>632.9</ele>
        <time>2022-09-26T11:50:30Z</time>
      </trkpt>
      <trkpt lat="41.6839630" lon="2.0972640">
        <ele>633.1</ele>
        <time>2022-09-26T11:50:31Z</time>
      </trkpt>
      <trkpt lat="41.6839520" lon="2.0972620">
        <ele>633.1</ele>
        <time>2022-09-26T11:50:32Z</time>
      </trkpt>
      <trkpt lat="41.6839150" lon="2.0972590">
        <ele>633.2</ele>
        <time>2022-09-26T11:50:33Z</time>
      </trkpt>
      <trkpt lat="41.6839030" lon="2.0972590">
        <ele>633.3</ele>
        <time>2022-09-26T11:50:34Z</time>
      </trkpt>
      <trkpt lat="41.6838700" lon="2.0972610">
        <ele>633.4</ele>
        <time>2022-09-26T11:50:35Z</time>
      </trkpt>
      <trkpt lat="41.6838570" lon="2.0972630">
        <ele>633.5</ele>
        <time>2022-09-26T11:50:36Z</time>
      </trkpt>
      <trkpt lat="41.6838190" lon="2.0972770">
        <ele>633.6</ele>
        <time>2022-09-26T11:50:37Z</time>
      </trkpt>
      <trkpt lat="41.6838040" lon="2.0972830">
        <ele>633.7</ele>
        <time>2022-09-26T11:50:38Z</time>
      </trkpt>
      <trkpt lat="41.6837740" lon="2.0972950">
        <ele>633.8</ele>
        <time>2022-09-26T11:50:39Z</time>
      </trkpt>
      <trkpt lat="41.6837460" lon="2.0973010">
        <ele>633.9</ele>
        <time>2022-09-26T11:50:40Z</time>
      </trkpt>
      <trkpt lat="41.6837080" lon="2.0973110">
        <ele>634.0</ele>
        <time>2022-09-26T11:50:41Z</time>
      </trkpt>
      <trkpt lat="41.6836680" lon="2.0973250">
        <ele>634.1</ele>
        <time>2022-09-26T11:50:42Z</time>
      </trkpt>
      <trkpt lat="41.6836230" lon="2.0973380">
        <ele>634.2</ele>
        <time>2022-09-26T11:50:43Z</time>
      </trkpt>
      <trkpt lat="41.6836040" lon="2.0973430">
        <ele>634.3</ele>
        <time>2022-09-26T11:50:44Z</time>
      </trkpt>
      <trkpt lat="41.6835750" lon="2.0973510">
        <ele>634.4</ele>
        <time>2022-09-26T11:50:45Z</time>
      </trkpt>
      <trkpt lat="41.6835410" lon="2.0973540">
        <ele>634.4</ele>
        <time>2022-09-26T11:50:46Z</time>
      </trkpt>
      <trkpt lat="41.6835000" lon="2.0973500">
        <ele>634.5</ele>
        <time>2022-09-26T11:50:47Z</time>
      </trkpt>
      <trkpt lat="41.6834840" lon="2.0973470">
        <ele>634.6</ele>
        <time>2022-09-26T11:50:48Z</time>
      </trkpt>
      <trkpt lat="41.6834530" lon="2.0973380">
        <ele>634.7</ele>
        <time>2022-09-26T11:50:49Z</time>
      </trkpt>
      <trkpt lat="41.6834190" lon="2.0973240">
        <ele>634.7</ele>
        <time>2022-09-26T11:50:50Z</time>
      </trkpt>
      <trkpt lat="41.6833770" lon="2.0973060">
        <ele>634.8</ele>
        <time>2022-09-26T11:50:51Z</time>
      </trkpt>
      <trkpt lat="41.6833460" lon="2.0972930">
        <ele>634.9</ele>
        <time>2022-09-26T11:50:52Z</time>
      </trkpt>
      <trkpt lat="41.6833120" lon="2.0972830">
        <ele>634.9</ele>
        <time>2022-09-26T11:50:53Z</time>
      </trkpt>
      <trkpt lat="41.6832620" lon="2.0972750">
        <ele>635.0</ele>
        <time>2022-09-26T11:50:54Z</time>
      </trkpt>
      <trkpt lat="41.6832390" lon="2.0972720">
        <ele>635.0</ele>
        <time>2022-09-26T11:50:55Z</time>
      </trkpt>
      <trkpt lat="41.6832040" lon="2.0972740">
        <ele>635.1</ele>
        <time>2022-09-26T11:50:56Z</time>
      </trkpt>
      <trkpt lat="41.6831710" lon="2.0972820">
        <ele>635.1</ele>
        <time>2022-09-26T11:50:57Z</time>
      </trkpt>
      <trkpt lat="41.6831390" lon="2.0972940">
        <ele>635.2</ele>
        <time>2022-09-26T11:50:58Z</time>
      </trkpt>
      <trkpt lat="41.6830960" lon="2.0973120">
        <ele>635.6</ele>
        <time>2022-09-26T11:50:59Z</time>
      </trkpt>
      <trkpt lat="41.6830520" lon="2.0973330">
        <ele>635.9</ele>
        <time>2022-09-26T11:51:00Z</time>
      </trkpt>
      <trkpt lat="41.6830140" lon="2.0973560">
        <ele>636.2</ele>
        <time>2022-09-26T11:51:01Z</time>
      </trkpt>
      <trkpt lat="41.6829810" lon="2.0973810">
        <ele>636.4</ele>
        <time>2022-09-26T11:51:02Z</time>
      </trkpt>
      <trkpt lat="41.6829510" lon="2.0974070">
        <ele>636.6</ele>
        <time>2022-09-26T11:51:03Z</time>
      </trkpt>
      <trkpt lat="41.6829190" lon="2.0974370">
        <ele>636.9</ele>
        <time>2022-09-26T11:51:04Z</time>
      </trkpt>
      <trkpt lat="41.6829050" lon="2.0974500">
        <ele>637.0</ele>
        <time>2022-09-26T11:51:05Z</time>
      </trkpt>
      <trkpt lat="41.6828810" lon="2.0974730">
        <ele>637.1</ele>
        <time>2022-09-26T11:51:06Z</time>
      </trkpt>
      <trkpt lat="41.6828570" lon="2.0974970">
        <ele>637.3</ele>
        <time>2022-09-26T11:51:07Z</time>
      </trkpt>
      <trkpt lat="41.6828320" lon="2.0975230">
        <ele>637.5</ele>
        <time>2022-09-26T11:51:08Z</time>
      </trkpt>
      <trkpt lat="41.6828030" lon="2.0975490">
        <ele>637.7</ele>
        <time>2022-09-26T11:51:09Z</time>
      </trkpt>
      <trkpt lat="41.6827710" lon="2.0975730">
        <ele>637.9</ele>
        <time>2022-09-26T11:51:10Z</time>
      </trkpt>
      <trkpt lat="41.6827600" lon="2.0975790">
        <ele>638.0</ele>
        <time>2022-09-26T11:51:11Z</time>
      </trkpt>
      <trkpt lat="41.6827190" lon="2.0976120">
        <ele>638.3</ele>
        <time>2022-09-26T11:51:13Z</time>
      </trkpt>
      <trkpt lat="41.6826740" lon="2.0976470">
        <ele>638.7</ele>
        <time>2022-09-26T11:51:14Z</time>
      </trkpt>
      <trkpt lat="41.6826450" lon="2.0976650">
        <ele>639.0</ele>
        <time>2022-09-26T11:51:15Z</time>
      </trkpt>
      <trkpt lat="41.6826240" lon="2.0976820">
        <ele>639.2</ele>
        <time>2022-09-26T11:51:16Z</time>
      </trkpt>
      <trkpt lat="41.6826020" lon="2.0977010">
        <ele>639.4</ele>
        <time>2022-09-26T11:51:18Z</time>
      </trkpt>
      <trkpt lat="41.6825740" lon="2.0977330">
        <ele>639.7</ele>
        <time>2022-09-26T11:51:19Z</time>
      </trkpt>
      <trkpt lat="41.6825660" lon="2.0977430">
        <ele>639.8</ele>
        <time>2022-09-26T11:51:20Z</time>
      </trkpt>
      <trkpt lat="41.6825440" lon="2.0977770">
        <ele>640.1</ele>
        <time>2022-09-26T11:51:21Z</time>
      </trkpt>
      <trkpt lat="41.6825380" lon="2.0977880">
        <ele>640.2</ele>
        <time>2022-09-26T11:51:22Z</time>
      </trkpt>
      <trkpt lat="41.6825230" lon="2.0978230">
        <ele>640.5</ele>
        <time>2022-09-26T11:51:24Z</time>
      </trkpt>
      <trkpt lat="41.6825030" lon="2.0978650">
        <ele>640.8</ele>
        <time>2022-09-26T11:51:25Z</time>
      </trkpt>
      <trkpt lat="41.6824780" lon="2.0979050">
        <ele>641.2</ele>
        <time>2022-09-26T11:51:26Z</time>
      </trkpt>
      <trkpt lat="41.6824700" lon="2.0979190">
        <ele>641.3</ele>
        <time>2022-09-26T11:51:27Z</time>
      </trkpt>
      <trkpt lat="41.6824450" lon="2.0979610">
        <ele>641.6</ele>
        <time>2022-09-26T11:51:28Z</time>
      </trkpt>
      <trkpt lat="41.6824360" lon="2.0979780">
        <ele>641.7</ele>
        <time>2022-09-26T11:51:29Z</time>
      </trkpt>
      <trkpt lat="41.6824170" lon="2.0980110">
        <ele>642.0</ele>
        <time>2022-09-26T11:51:30Z</time>
      </trkpt>
      <trkpt lat="41.6823940" lon="2.0980420">
        <ele>642.2</ele>
        <time>2022-09-26T11:51:31Z</time>
      </trkpt>
      <trkpt lat="41.6823690" lon="2.0980680">
        <ele>642.4</ele>
        <time>2022-09-26T11:51:32Z</time>
      </trkpt>
      <trkpt lat="41.6823350" lon="2.0980930">
        <ele>642.7</ele>
        <time>2022-09-26T11:51:33Z</time>
      </trkpt>
      <trkpt lat="41.6823210" lon="2.0981030">
        <ele>642.8</ele>
        <time>2022-09-26T11:51:34Z</time>
      </trkpt>
      <trkpt lat="41.6822790" lon="2.0981260">
        <ele>643.1</ele>
        <time>2022-09-26T11:51:36Z</time>
      </trkpt>
      <trkpt lat="41.6822420" lon="2.0981440">
        <ele>643.3</ele>
        <time>2022-09-26T11:51:37Z</time>
      </trkpt>
      <trkpt lat="41.6822070" lon="2.0981590">
        <ele>643.6</ele>
        <time>2022-09-26T11:51:38Z</time>
      </trkpt>
      <trkpt lat="41.6821960" lon="2.0981620">
        <ele>643.6</ele>
        <time>2022-09-26T11:51:39Z</time>
      </trkpt>
      <trkpt lat="41.6821620" lon="2.0981770">
        <ele>643.8</ele>
        <time>2022-09-26T11:51:40Z</time>
      </trkpt>
      <trkpt lat="41.6821500" lon="2.0981790">
        <ele>643.9</ele>
        <time>2022-09-26T11:51:41Z</time>
      </trkpt>
      <trkpt lat="41.6821140" lon="2.0981920">
        <ele>644.1</ele>
        <time>2022-09-26T11:51:42Z</time>
      </trkpt>
      <trkpt lat="41.6821020" lon="2.0981970">
        <ele>644.2</ele>
        <time>2022-09-26T11:51:43Z</time>
      </trkpt>
      <trkpt lat="41.6820760" lon="2.0982080">
        <ele>644.3</ele>
        <time>2022-09-26T11:51:44Z</time>
      </trkpt>
      <trkpt lat="41.6820540" lon="2.0982200">
        <ele>644.5</ele>
        <time>2022-09-26T11:51:45Z</time>
      </trkpt>
      <trkpt lat="41.6820050" lon="2.0982470">
        <ele>644.8</ele>
        <time>2022-09-26T11:51:47Z</time>
      </trkpt>
      <trkpt lat="41.6819790" lon="2.0982630">
        <ele>644.9</ele>
        <time>2022-09-26T11:51:48Z</time>
      </trkpt>
      <trkpt lat="41.6819560" lon="2.0982760">
        <ele>645.1</ele>
        <time>2022-09-26T11:51:49Z</time>
      </trkpt>
      <trkpt lat="41.6819320" lon="2.0982910">
        <ele>645.2</ele>
        <time>2022-09-26T11:51:51Z</time>
      </trkpt>
      <trkpt lat="41.6818930" lon="2.0983080">
        <ele>645.5</ele>
        <time>2022-09-26T11:51:52Z</time>
      </trkpt>
      <trkpt lat="41.6818550" lon="2.0983170">
        <ele>645.7</ele>
        <time>2022-09-26T11:51:53Z</time>
      </trkpt>
      <trkpt lat="41.6818420" lon="2.0983180">
        <ele>645.7</ele>
        <time>2022-09-26T11:51:54Z</time>
      </trkpt>
      <trkpt lat="41.6817940" lon="2.0983070">
        <ele>646.0</ele>
        <time>2022-09-26T11:51:56Z</time>
      </trkpt>
      <trkpt lat="41.6817720" lon="2.0983050">
        <ele>646.1</ele>
        <time>2022-09-26T11:51:57Z</time>
      </trkpt>
      <trkpt lat="41.6817510" lon="2.0983030">
        <ele>646.2</ele>
        <time>2022-09-26T11:51:58Z</time>
      </trkpt>
      <trkpt lat="41.6816950" lon="2.0982840">
        <ele>646.5</ele>
        <time>2022-09-26T11:52:00Z</time>
      </trkpt>
      <trkpt lat="41.6816640" lon="2.0982620">
        <ele>646.7</ele>
        <time>2022-09-26T11:52:02Z</time>
      </trkpt>
      <trkpt lat="41.6816360" lon="2.0982430">
        <ele>646.8</ele>
        <time>2022-09-26T11:52:03Z</time>
      </trkpt>
      <trkpt lat="41.6815860" lon="2.0982060">
        <ele>647.0</ele>
        <time>2022-09-26T11:52:05Z</time>
      </trkpt>
      <trkpt lat="41.6815530" lon="2.0981880">
        <ele>647.2</ele>
        <time>2022-09-26T11:52:06Z</time>
      </trkpt>
      <trkpt lat="41.6815440" lon="2.0981830">
        <ele>647.2</ele>
        <time>2022-09-26T11:52:07Z</time>
      </trkpt>
      <trkpt lat="41.6815090" lon="2.0981600">
        <ele>647.3</ele>
        <time>2022-09-26T11:52:08Z</time>
      </trkpt>
      <trkpt lat="41.6814980" lon="2.0981490">
        <ele>647.3</ele>
        <time>2022-09-26T11:52:09Z</time>
      </trkpt>
      <trkpt lat="41.6814740" lon="2.0981250">
        <ele>647.3</ele>
        <time>2022-09-26T11:52:10Z</time>
      </trkpt>
      <trkpt lat="41.6814490" lon="2.0980860">
        <ele>647.4</ele>
        <time>2022-09-26T11:52:11Z</time>
      </trkpt>
      <trkpt lat="41.6814200" lon="2.0980520">
        <ele>647.4</ele>
        <time>2022-09-26T11:52:12Z</time>
      </trkpt>
      <trkpt lat="41.6813910" lon="2.0980120">
        <ele>647.4</ele>
        <time>2022-09-26T11:52:14Z</time>
      </trkpt>
      <trkpt lat="41.6813700" lon="2.0979730">
        <ele>647.4</ele>
        <time>2022-09-26T11:52:15Z</time>
      </trkpt>
      <trkpt lat="41.6813360" lon="2.0978960">
        <ele>647.4</ele>
        <time>2022-09-26T11:52:16Z</time>
      </trkpt>
      <trkpt lat="41.6813170" lon="2.0978500">
        <ele>647.4</ele>
        <time>2022-09-26T11:52:17Z</time>
      </trkpt>
      <trkpt lat="41.6813010" lon="2.0978080">
        <ele>647.4</ele>
        <time>2022-09-26T11:52:18Z</time>
      </trkpt>
      <trkpt lat="41.6812860" lon="2.0977590">
        <ele>647.5</ele>
        <time>2022-09-26T11:52:20Z</time>
      </trkpt>
      <trkpt lat="41.6812570" lon="2.0976890">
        <ele>647.5</ele>
        <time>2022-09-26T11:52:21Z</time>
      </trkpt>
      <trkpt lat="41.6812370" lon="2.0976300">
        <ele>647.5</ele>
        <time>2022-09-26T11:52:22Z</time>
      </trkpt>
      <trkpt lat="41.6812230" lon="2.0975730">
        <ele>647.6</ele>
        <time>2022-09-26T11:52:23Z</time>
      </trkpt>
      <trkpt lat="41.6811950" lon="2.0975280">
        <ele>647.6</ele>
        <time>2022-09-26T11:52:24Z</time>
      </trkpt>
      <trkpt lat="41.6811720" lon="2.0974960">
        <ele>647.7</ele>
        <time>2022-09-26T11:52:25Z</time>
      </trkpt>
      <trkpt lat="41.6811500" lon="2.0974600">
        <ele>647.8</ele>
        <time>2022-09-26T11:52:26Z</time>
      </trkpt>
      <trkpt lat="41.6811270" lon="2.0974230">
        <ele>647.9</ele>
        <time>2022-09-26T11:52:27Z</time>
      </trkpt>
      <trkpt lat="41.6811020" lon="2.0973970">
        <ele>648.0</ele>
        <time>2022-09-26T11:52:28Z</time>
      </trkpt>
      <trkpt lat="41.6810770" lon="2.0973670">
        <ele>648.1</ele>
        <time>2022-09-26T11:52:29Z</time>
      </trkpt>
      <trkpt lat="41.6810450" lon="2.0973200">
        <ele>648.3</ele>
        <time>2022-09-26T11:52:31Z</time>
      </trkpt>
      <trkpt lat="41.6810230" lon="2.0972810">
        <ele>648.4</ele>
        <time>2022-09-26T11:52:32Z</time>
      </trkpt>
      <trkpt lat="41.6810030" lon="2.0972420">
        <ele>648.5</ele>
        <time>2022-09-26T11:52:33Z</time>
      </trkpt>
      <trkpt lat="41.6809870" lon="2.0972050">
        <ele>648.7</ele>
        <time>2022-09-26T11:52:34Z</time>
      </trkpt>
      <trkpt lat="41.6809690" lon="2.0971610">
        <ele>648.8</ele>
        <time>2022-09-26T11:52:36Z</time>
      </trkpt>
      <trkpt lat="41.6809530" lon="2.0971210">
        <ele>648.9</ele>
        <time>2022-09-26T11:52:37Z</time>
      </trkpt>
      <trkpt lat="41.6809210" lon="2.0970570">
        <ele>649.1</ele>
        <time>2022-09-26T11:52:38Z</time>
      </trkpt>
      <trkpt lat="41.6808990" lon="2.0970160">
        <ele>649.2</ele>
        <time>2022-09-26T11:52:39Z</time>
      </trkpt>
      <trkpt lat="41.6808790" lon="2.0969800">
        <ele>649.3</ele>
        <time>2022-09-26T11:52:40Z</time>
      </trkpt>
      <trkpt lat="41.6808520" lon="2.0969400">
        <ele>649.3</ele>
        <time>2022-09-26T11:52:42Z</time>
      </trkpt>
      <trkpt lat="41.6808150" lon="2.0968970">
        <ele>649.4</ele>
        <time>2022-09-26T11:52:43Z</time>
      </trkpt>
      <trkpt lat="41.6807780" lon="2.0968600">
        <ele>649.5</ele>
        <time>2022-09-26T11:52:44Z</time>
      </trkpt>
      <trkpt lat="41.6807400" lon="2.0968170">
        <ele>649.6</ele>
        <time>2022-09-26T11:52:45Z</time>
      </trkpt>
      <trkpt lat="41.6807110" lon="2.0967840">
        <ele>649.7</ele>
        <time>2022-09-26T11:52:46Z</time>
      </trkpt>
      <trkpt lat="41.6806800" lon="2.0967490">
        <ele>649.8</ele>
        <time>2022-09-26T11:52:48Z</time>
      </trkpt>
      <trkpt lat="41.6806470" lon="2.0967150">
        <ele>649.9</ele>
        <time>2022-09-26T11:52:49Z</time>
      </trkpt>
      <trkpt lat="41.6806050" lon="2.0966660">
        <ele>650.1</ele>
        <time>2022-09-26T11:52:50Z</time>
      </trkpt>
      <trkpt lat="41.6805850" lon="2.0966280">
        <ele>650.1</ele>
        <time>2022-09-26T11:52:51Z</time>
      </trkpt>
      <trkpt lat="41.6805690" lon="2.0965960">
        <ele>650.2</ele>
        <time>2022-09-26T11:52:52Z</time>
      </trkpt>
      <trkpt lat="41.6805490" lon="2.0965610">
        <ele>650.2</ele>
        <time>2022-09-26T11:52:53Z</time>
      </trkpt>
      <trkpt lat="41.6805320" lon="2.0965230">
        <ele>650.2</ele>
        <time>2022-09-26T11:52:54Z</time>
      </trkpt>
      <trkpt lat="41.6805200" lon="2.0964810">
        <ele>650.2</ele>
        <time>2022-09-26T11:52:55Z</time>
      </trkpt>
      <trkpt lat="41.6805070" lon="2.0964410">
        <ele>650.2</ele>
        <time>2022-09-26T11:52:56Z</time>
      </trkpt>
      <trkpt lat="41.6804950" lon="2.0963990">
        <ele>650.1</ele>
        <time>2022-09-26T11:52:57Z</time>
      </trkpt>
      <trkpt lat="41.6804840" lon="2.0963590">
        <ele>650.1</ele>
        <time>2022-09-26T11:52:58Z</time>
      </trkpt>
      <trkpt lat="41.6804660" lon="2.0962870">
        <ele>649.9</ele>
        <time>2022-09-26T11:53:00Z</time>
      </trkpt>
      <trkpt lat="41.6804320" lon="2.0961940">
        <ele>649.7</ele>
        <time>2022-09-26T11:53:01Z</time>
      </trkpt>
      <trkpt lat="41.6804110" lon="2.0961310">
        <ele>649.5</ele>
        <time>2022-09-26T11:53:02Z</time>
      </trkpt>
      <trkpt lat="41.6803910" lon="2.0960660">
        <ele>649.3</ele>
        <time>2022-09-26T11:53:03Z</time>
      </trkpt>
      <trkpt lat="41.6803730" lon="2.0960000">
        <ele>649.1</ele>
        <time>2022-09-26T11:53:04Z</time>
      </trkpt>
      <trkpt lat="41.6803520" lon="2.0959320">
        <ele>648.8</ele>
        <time>2022-09-26T11:53:05Z</time>
      </trkpt>
      <trkpt lat="41.6803290" lon="2.0958690">
        <ele>648.6</ele>
        <time>2022-09-26T11:53:06Z</time>
      </trkpt>
      <trkpt lat="41.6802990" lon="2.0958120">
        <ele>648.4</ele>
        <time>2022-09-26T11:53:07Z</time>
      </trkpt>
      <trkpt lat="41.6802640" lon="2.0957590">
        <ele>648.2</ele>
        <time>2022-09-26T11:53:08Z</time>
      </trkpt>
      <trkpt lat="41.6802190" lon="2.0957150">
        <ele>647.9</ele>
        <time>2022-09-26T11:53:09Z</time>
      </trkpt>
      <trkpt lat="41.6801670" lon="2.0956740">
        <ele>647.7</ele>
        <time>2022-09-26T11:53:10Z</time>
      </trkpt>
      <trkpt lat="41.6801120" lon="2.0956420">
        <ele>647.4</ele>
        <time>2022-09-26T11:53:11Z</time>
      </trkpt>
      <trkpt lat="41.6800510" lon="2.0956120">
        <ele>647.1</ele>
        <time>2022-09-26T11:53:12Z</time>
      </trkpt>
      <trkpt lat="41.6799880" lon="2.0955840">
        <ele>646.8</ele>
        <time>2022-09-26T11:53:13Z</time>
      </trkpt>
      <trkpt lat="41.6799230" lon="2.0955570">
        <ele>646.6</ele>
        <time>2022-09-26T11:53:14Z</time>
      </trkpt>
      <trkpt lat="41.6798590" lon="2.0955250">
        <ele>646.3</ele>
        <time>2022-09-26T11:53:15Z</time>
      </trkpt>
      <trkpt lat="41.6797970" lon="2.0954850">
        <ele>646.0</ele>
        <time>2022-09-26T11:53:16Z</time>
      </trkpt>
      <trkpt lat="41.6797400" lon="2.0954370">
        <ele>645.8</ele>
        <time>2022-09-26T11:53:17Z</time>
      </trkpt>
      <trkpt lat="41.6796830" lon="2.0953850">
        <ele>645.6</ele>
        <time>2022-09-26T11:53:18Z</time>
      </trkpt>
      <trkpt lat="41.6796280" lon="2.0953310">
        <ele>645.4</ele>
        <time>2022-09-26T11:53:19Z</time>
      </trkpt>
      <trkpt lat="41.6795730" lon="2.0952750">
        <ele>645.2</ele>
        <time>2022-09-26T11:53:20Z</time>
      </trkpt>
      <trkpt lat="41.6795220" lon="2.0952170">
        <ele>645.1</ele>
        <time>2022-09-26T11:53:21Z</time>
      </trkpt>
      <trkpt lat="41.6794760" lon="2.0951630">
        <ele>644.9</ele>
        <time>2022-09-26T11:53:22Z</time>
      </trkpt>
      <trkpt lat="41.6794330" lon="2.0951080">
        <ele>644.8</ele>
        <time>2022-09-26T11:53:23Z</time>
      </trkpt>
      <trkpt lat="41.6793850" lon="2.0950520">
        <ele>644.7</ele>
        <time>2022-09-26T11:53:24Z</time>
      </trkpt>
      <trkpt lat="41.6793330" lon="2.0949960">
        <ele>644.6</ele>
        <time>2022-09-26T11:53:25Z</time>
      </trkpt>
      <trkpt lat="41.6792810" lon="2.0949410">
        <ele>644.4</ele>
        <time>2022-09-26T11:53:26Z</time>
      </trkpt>
      <trkpt lat="41.6792290" lon="2.0948870">
        <ele>644.3</ele>
        <time>2022-09-26T11:53:27Z</time>
      </trkpt>
      <trkpt lat="41.6791740" lon="2.0948350">
        <ele>644.2</ele>
        <time>2022-09-26T11:53:28Z</time>
      </trkpt>
      <trkpt lat="41.6791220" lon="2.0947810">
        <ele>644.2</ele>
        <time>2022-09-26T11:53:29Z</time>
      </trkpt>
      <trkpt lat="41.6790730" lon="2.0947240">
        <ele>644.1</ele>
        <time>2022-09-26T11:53:30Z</time>
      </trkpt>
      <trkpt lat="41.6790280" lon="2.0946680">
        <ele>644.0</ele>
        <time>2022-09-26T11:53:31Z</time>
      </trkpt>
      <trkpt lat="41.6789830" lon="2.0946100">
        <ele>644.0</ele>
        <time>2022-09-26T11:53:32Z</time>
      </trkpt>
      <trkpt lat="41.6789340" lon="2.0945550">
        <ele>643.9</ele>
        <time>2022-09-26T11:53:33Z</time>
      </trkpt>
      <trkpt lat="41.6788810" lon="2.0945010">
        <ele>643.8</ele>
        <time>2022-09-26T11:53:34Z</time>
      </trkpt>
      <trkpt lat="41.6788240" lon="2.0944470">
        <ele>643.7</ele>
        <time>2022-09-26T11:53:35Z</time>
      </trkpt>
      <trkpt lat="41.6787660" lon="2.0944000">
        <ele>643.6</ele>
        <time>2022-09-26T11:53:36Z</time>
      </trkpt>
      <trkpt lat="41.6787040" lon="2.0943570">
        <ele>643.6</ele>
        <time>2022-09-26T11:53:37Z</time>
      </trkpt>
      <trkpt lat="41.6786480" lon="2.0943200">
        <ele>643.6</ele>
        <time>2022-09-26T11:53:38Z</time>
      </trkpt>
      <trkpt lat="41.6785930" lon="2.0942850">
        <ele>643.6</ele>
        <time>2022-09-26T11:53:39Z</time>
      </trkpt>
      <trkpt lat="41.6785400" lon="2.0942530">
        <ele>643.7</ele>
        <time>2022-09-26T11:53:40Z</time>
      </trkpt>
      <trkpt lat="41.6784880" lon="2.0942260">
        <ele>643.8</ele>
        <time>2022-09-26T11:53:41Z</time>
      </trkpt>
      <trkpt lat="41.6784330" lon="2.0942040">
        <ele>643.8</ele>
        <time>2022-09-26T11:53:42Z</time>
      </trkpt>
      <trkpt lat="41.6783790" lon="2.0941790">
        <ele>643.9</ele>
        <time>2022-09-26T11:53:43Z</time>
      </trkpt>
      <trkpt lat="41.6783280" lon="2.0941530">
        <ele>643.8</ele>
        <time>2022-09-26T11:53:44Z</time>
      </trkpt>
      <trkpt lat="41.6782800" lon="2.0941230">
        <ele>643.6</ele>
        <time>2022-09-26T11:53:45Z</time>
      </trkpt>
      <trkpt lat="41.6782270" lon="2.0940890">
        <ele>643.4</ele>
        <time>2022-09-26T11:53:46Z</time>
      </trkpt>
      <trkpt lat="41.6781720" lon="2.0940450">
        <ele>643.0</ele>
        <time>2022-09-26T11:53:47Z</time>
      </trkpt>
      <trkpt lat="41.6781140" lon="2.0939950">
        <ele>642.6</ele>
        <time>2022-09-26T11:53:48Z</time>
      </trkpt>
      <trkpt lat="41.6780500" lon="2.0939450">
        <ele>642.1</ele>
        <time>2022-09-26T11:53:49Z</time>
      </trkpt>
      <trkpt lat="41.6779810" lon="2.0938970">
        <ele>641.8</ele>
        <time>2022-09-26T11:53:50Z</time>
      </trkpt>
      <trkpt lat="41.6779150" lon="2.0938390">
        <ele>641.4</ele>
        <time>2022-09-26T11:53:51Z</time>
      </trkpt>
      <trkpt lat="41.6778510" lon="2.0937740">
        <ele>641.1</ele>
        <time>2022-09-26T11:53:52Z</time>
      </trkpt>
      <trkpt lat="41.6777840" lon="2.0937040">
        <ele>640.8</ele>
        <time>2022-09-26T11:53:53Z</time>
      </trkpt>
      <trkpt lat="41.6777210" lon="2.0936260">
        <ele>640.4</ele>
        <time>2022-09-26T11:53:54Z</time>
      </trkpt>
      <trkpt lat="41.6776590" lon="2.0935500">
        <ele>640.1</ele>
        <time>2022-09-26T11:53:55Z</time>
      </trkpt>
      <trkpt lat="41.6775960" lon="2.0934740">
        <ele>639.8</ele>
        <time>2022-09-26T11:53:56Z</time>
      </trkpt>
      <trkpt lat="41.6775340" lon="2.0934010">
        <ele>639.5</ele>
        <time>2022-09-26T11:53:57Z</time>
      </trkpt>
      <trkpt lat="41.6774740" lon="2.0933310">
        <ele>639.2</ele>
        <time>2022-09-26T11:53:58Z</time>
      </trkpt>
      <trkpt lat="41.6774150" lon="2.0932650">
        <ele>639.0</ele>
        <time>2022-09-26T11:53:59Z</time>
      </trkpt>
      <trkpt lat="41.6773570" lon="2.0932030">
        <ele>638.8</ele>
        <time>2022-09-26T11:54:00Z</time>
      </trkpt>
      <trkpt lat="41.6773040" lon="2.0931440">
        <ele>638.6</ele>
        <time>2022-09-26T11:54:01Z</time>
      </trkpt>
      <trkpt lat="41.6772510" lon="2.0930900">
        <ele>638.4</ele>
        <time>2022-09-26T11:54:02Z</time>
      </trkpt>
      <trkpt lat="41.6771960" lon="2.0930360">
        <ele>638.2</ele>
        <time>2022-09-26T11:54:03Z</time>
      </trkpt>
      <trkpt lat="41.6771390" lon="2.0929830">
        <ele>638.0</ele>
        <time>2022-09-26T11:54:04Z</time>
      </trkpt>
      <trkpt lat="41.6770770" lon="2.0929270">
        <ele>637.8</ele>
        <time>2022-09-26T11:54:05Z</time>
      </trkpt>
      <trkpt lat="41.6770190" lon="2.0928700">
        <ele>637.7</ele>
        <time>2022-09-26T11:54:06Z</time>
      </trkpt>
      <trkpt lat="41.6769600" lon="2.0928110">
        <ele>637.7</ele>
        <time>2022-09-26T11:54:07Z</time>
      </trkpt>
      <trkpt lat="41.6769000" lon="2.0927510">
        <ele>637.7</ele>
        <time>2022-09-26T11:54:08Z</time>
      </trkpt>
      <trkpt lat="41.6768430" lon="2.0926950">
        <ele>637.7</ele>
        <time>2022-09-26T11:54:09Z</time>
      </trkpt>
      <trkpt lat="41.6767870" lon="2.0926460">
        <ele>637.7</ele>
        <time>2022-09-26T11:54:10Z</time>
      </trkpt>
      <trkpt lat="41.6767360" lon="2.0926050">
        <ele>637.8</ele>
        <time>2022-09-26T11:54:11Z</time>
      </trkpt>
      <trkpt lat="41.6766890" lon="2.0925670">
        <ele>637.8</ele>
        <time>2022-09-26T11:54:12Z</time>
      </trkpt>
      <trkpt lat="41.6766440" lon="2.0925330">
        <ele>637.9</ele>
        <time>2022-09-26T11:54:13Z</time>
      </trkpt>
      <trkpt lat="41.6766030" lon="2.0925000">
        <ele>637.9</ele>
        <time>2022-09-26T11:54:14Z</time>
      </trkpt>
      <trkpt lat="41.6765590" lon="2.0924630">
        <ele>638.0</ele>
        <time>2022-09-26T11:54:15Z</time>
      </trkpt>
      <trkpt lat="41.6765370" lon="2.0924450">
        <ele>638.0</ele>
        <time>2022-09-26T11:54:16Z</time>
      </trkpt>
      <trkpt lat="41.6764750" lon="2.0923900">
        <ele>638.1</ele>
        <time>2022-09-26T11:54:17Z</time>
      </trkpt>
      <trkpt lat="41.6764260" lon="2.0923460">
        <ele>638.1</ele>
        <time>2022-09-26T11:54:18Z</time>
      </trkpt>
      <trkpt lat="41.6764010" lon="2.0923160">
        <ele>638.2</ele>
        <time>2022-09-26T11:54:19Z</time>
      </trkpt>
      <trkpt lat="41.6763530" lon="2.0922630">
        <ele>638.2</ele>
        <time>2022-09-26T11:54:20Z</time>
      </trkpt>
      <trkpt lat="41.6763210" lon="2.0922330">
        <ele>638.3</ele>
        <time>2022-09-26T11:54:21Z</time>
      </trkpt>
      <trkpt lat="41.6762650" lon="2.0921860">
        <ele>638.3</ele>
        <time>2022-09-26T11:54:22Z</time>
      </trkpt>
      <trkpt lat="41.6762170" lon="2.0921440">
        <ele>638.4</ele>
        <time>2022-09-26T11:54:23Z</time>
      </trkpt>
      <trkpt lat="41.6761720" lon="2.0920930">
        <ele>638.4</ele>
        <time>2022-09-26T11:54:24Z</time>
      </trkpt>
      <trkpt lat="41.6761280" lon="2.0920440">
        <ele>638.5</ele>
        <time>2022-09-26T11:54:25Z</time>
      </trkpt>
      <trkpt lat="41.6760820" lon="2.0919970">
        <ele>638.5</ele>
        <time>2022-09-26T11:54:26Z</time>
      </trkpt>
      <trkpt lat="41.6760370" lon="2.0919520">
        <ele>638.6</ele>
        <time>2022-09-26T11:54:27Z</time>
      </trkpt>
      <trkpt lat="41.6759960" lon="2.0919070">
        <ele>638.6</ele>
        <time>2022-09-26T11:54:28Z</time>
      </trkpt>
      <trkpt lat="41.6759560" lon="2.0918680">
        <ele>638.7</ele>
        <time>2022-09-26T11:54:29Z</time>
      </trkpt>
      <trkpt lat="41.6759130" lon="2.0918350">
        <ele>638.8</ele>
        <time>2022-09-26T11:54:30Z</time>
      </trkpt>
      <trkpt lat="41.6758720" lon="2.0918010">
        <ele>638.8</ele>
        <time>2022-09-26T11:54:31Z</time>
      </trkpt>
      <trkpt lat="41.6758250" lon="2.0917700">
        <ele>638.9</ele>
        <time>2022-09-26T11:54:32Z</time>
      </trkpt>
      <trkpt lat="41.6757810" lon="2.0917370">
        <ele>639.0</ele>
        <time>2022-09-26T11:54:33Z</time>
      </trkpt>
      <trkpt lat="41.6757360" lon="2.0917100">
        <ele>639.1</ele>
        <time>2022-09-26T11:54:34Z</time>
      </trkpt>
      <trkpt lat="41.6756920" lon="2.0916950">
        <ele>639.2</ele>
        <time>2022-09-26T11:54:35Z</time>
      </trkpt>
      <trkpt lat="41.6756530" lon="2.0916880">
        <ele>639.3</ele>
        <time>2022-09-26T11:54:36Z</time>
      </trkpt>
      <trkpt lat="41.6756060" lon="2.0916810">
        <ele>639.4</ele>
        <time>2022-09-26T11:54:37Z</time>
      </trkpt>
      <trkpt lat="41.6755780" lon="2.0916760">
        <ele>639.5</ele>
        <time>2022-09-26T11:54:38Z</time>
      </trkpt>
      <trkpt lat="41.6755370" lon="2.0916700">
        <ele>639.7</ele>
        <time>2022-09-26T11:54:39Z</time>
      </trkpt>
      <trkpt lat="41.6754870" lon="2.0916620">
        <ele>639.9</ele>
        <time>2022-09-26T11:54:40Z</time>
      </trkpt>
      <trkpt lat="41.6754560" lon="2.0916580">
        <ele>640.1</ele>
        <time>2022-09-26T11:54:41Z</time>
      </trkpt>
      <trkpt lat="41.6754100" lon="2.0916590">
        <ele>640.3</ele>
        <time>2022-09-26T11:54:43Z</time>
      </trkpt>
      <trkpt lat="41.6753800" lon="2.0916570">
        <ele>640.5</ele>
        <time>2022-09-26T11:54:44Z</time>
      </trkpt>
      <trkpt lat="41.6753350" lon="2.0916550">
        <ele>640.8</ele>
        <time>2022-09-26T11:54:45Z</time>
      </trkpt>
      <trkpt lat="41.6752990" lon="2.0916480">
        <ele>641.0</ele>
        <time>2022-09-26T11:54:46Z</time>
      </trkpt>
      <trkpt lat="41.6752630" lon="2.0916390">
        <ele>641.2</ele>
        <time>2022-09-26T11:54:47Z</time>
      </trkpt>
      <trkpt lat="41.6752500" lon="2.0916370">
        <ele>641.3</ele>
        <time>2022-09-26T11:54:48Z</time>
      </trkpt>
      <trkpt lat="41.6752180" lon="2.0916310">
        <ele>641.5</ele>
        <time>2022-09-26T11:54:49Z</time>
      </trkpt>
      <trkpt lat="41.6751960" lon="2.0916280">
        <ele>641.6</ele>
        <time>2022-09-26T11:54:50Z</time>
      </trkpt>
      <trkpt lat="41.6751650" lon="2.0916180">
        <ele>641.8</ele>
        <time>2022-09-26T11:54:52Z</time>
      </trkpt>
      <trkpt lat="41.6751340" lon="2.0916120">
        <ele>641.9</ele>
        <time>2022-09-26T11:54:53Z</time>
      </trkpt>
      <trkpt lat="41.6750990" lon="2.0916040">
        <ele>642.1</ele>
        <time>2022-09-26T11:54:54Z</time>
      </trkpt>
      <trkpt lat="41.6750450" lon="2.0915850">
        <ele>642.4</ele>
        <time>2022-09-26T11:54:56Z</time>
      </trkpt>
      <trkpt lat="41.6750120" lon="2.0915740">
        <ele>642.6</ele>
        <time>2022-09-26T11:54:57Z</time>
      </trkpt>
      <trkpt lat="41.6749660" lon="2.0915600">
        <ele>642.8</ele>
        <time>2022-09-26T11:54:58Z</time>
      </trkpt>
      <trkpt lat="41.6749310" lon="2.0915490">
        <ele>642.9</ele>
        <time>2022-09-26T11:54:59Z</time>
      </trkpt>
      <trkpt lat="41.6749020" lon="2.0915420">
        <ele>643.0</ele>
        <time>2022-09-26T11:55:00Z</time>
      </trkpt>
      <trkpt lat="41.6748710" lon="2.0915370">
        <ele>643.2</ele>
        <time>2022-09-26T11:55:01Z</time>
      </trkpt>
      <trkpt lat="41.6748400" lon="2.0915320">
        <ele>643.3</ele>
        <time>2022-09-26T11:55:02Z</time>
      </trkpt>
      <trkpt lat="41.6747970" lon="2.0915280">
        <ele>643.5</ele>
        <time>2022-09-26T11:55:03Z</time>
      </trkpt>
      <trkpt lat="41.6747580" lon="2.0915290">
        <ele>643.7</ele>
        <time>2022-09-26T11:55:04Z</time>
      </trkpt>
      <trkpt lat="41.6747160" lon="2.0915360">
        <ele>643.9</ele>
        <time>2022-09-26T11:55:05Z</time>
      </trkpt>
      <trkpt lat="41.6746860" lon="2.0915430">
        <ele>644.0</ele>
        <time>2022-09-26T11:55:06Z</time>
      </trkpt>
      <trkpt lat="41.6746300" lon="2.0915560">
        <ele>644.2</ele>
        <time>2022-09-26T11:55:08Z</time>
      </trkpt>
      <trkpt lat="41.6745920" lon="2.0915620">
        <ele>644.5</ele>
        <time>2022-09-26T11:55:09Z</time>
      </trkpt>
      <trkpt lat="41.6745440" lon="2.0915670">
        <ele>644.7</ele>
        <time>2022-09-26T11:55:10Z</time>
      </trkpt>
      <trkpt lat="41.6744890" lon="2.0915640">
        <ele>645.0</ele>
        <time>2022-09-26T11:55:12Z</time>
      </trkpt>
      <trkpt lat="41.6744590" lon="2.0915680">
        <ele>645.2</ele>
        <time>2022-09-26T11:55:13Z</time>
      </trkpt>
      <trkpt lat="41.6744380" lon="2.0915700">
        <ele>645.4</ele>
        <time>2022-09-26T11:55:14Z</time>
      </trkpt>
      <trkpt lat="41.6743940" lon="2.0915630">
        <ele>645.7</ele>
        <time>2022-09-26T11:55:16Z</time>
      </trkpt>
      <trkpt lat="41.6743580" lon="2.0915630">
        <ele>645.9</ele>
        <time>2022-09-26T11:55:17Z</time>
      </trkpt>
      <trkpt lat="41.6743250" lon="2.0915620">
        <ele>646.1</ele>
        <time>2022-09-26T11:55:18Z</time>
      </trkpt>
      <trkpt lat="41.6743110" lon="2.0915630">
        <ele>646.2</ele>
        <time>2022-09-26T11:55:19Z</time>
      </trkpt>
      <trkpt lat="41.6742770" lon="2.0915570">
        <ele>646.5</ele>
        <time>2022-09-26T11:55:21Z</time>
      </trkpt>
      <trkpt lat="41.6742450" lon="2.0915540">
        <ele>646.7</ele>
        <time>2022-09-26T11:55:22Z</time>
      </trkpt>
      <trkpt lat="41.6742100" lon="2.0915510">
        <ele>646.9</ele>
        <time>2022-09-26T11:55:23Z</time>
      </trkpt>
      <trkpt lat="41.6741980" lon="2.0915500">
        <ele>647.0</ele>
        <time>2022-09-26T11:55:24Z</time>
      </trkpt>
      <trkpt lat="41.6741780" lon="2.0915480">
        <ele>647.2</ele>
        <time>2022-09-26T11:55:25Z</time>
      </trkpt>
      <trkpt lat="41.6741400" lon="2.0915360">
        <ele>647.4</ele>
        <time>2022-09-26T11:55:27Z</time>
      </trkpt>
      <trkpt lat="41.6740990" lon="2.0915250">
        <ele>647.7</ele>
        <time>2022-09-26T11:55:28Z</time>
      </trkpt>
      <trkpt lat="41.6740660" lon="2.0915130">
        <ele>647.9</ele>
        <time>2022-09-26T11:55:29Z</time>
      </trkpt>
      <trkpt lat="41.6740560" lon="2.0915100">
        <ele>648.0</ele>
        <time>2022-09-26T11:55:30Z</time>
      </trkpt>
      <trkpt lat="41.6740240" lon="2.0914930">
        <ele>648.2</ele>
        <time>2022-09-26T11:55:32Z</time>
      </trkpt>
      <trkpt lat="41.6740160" lon="2.0914880">
        <ele>648.3</ele>
        <time>2022-09-26T11:55:33Z</time>
      </trkpt>
      <trkpt lat="41.6739790" lon="2.0914680">
        <ele>648.5</ele>
        <time>2022-09-26T11:55:34Z</time>
      </trkpt>
      <trkpt lat="41.6739660" lon="2.0914610">
        <ele>648.6</ele>
        <time>2022-09-26T11:55:35Z</time>
      </trkpt>
      <trkpt lat="41.6739390" lon="2.0914530">
        <ele>648.8</ele>
        <time>2022-09-26T11:55:36Z</time>
      </trkpt>
      <trkpt lat="41.6739140" lon="2.0914440">
        <ele>649.0</ele>
        <time>2022-09-26T11:55:37Z</time>
      </trkpt>
      <trkpt lat="41.6738890" lon="2.0914300">
        <ele>649.2</ele>
        <time>2022-09-26T11:55:39Z</time>
      </trkpt>
      <trkpt lat="41.6738730" lon="2.0914200">
        <ele>649.3</ele>
        <time>2022-09-26T11:55:40Z</time>
      </trkpt>
      <trkpt lat="41.6738570" lon="2.0914120">
        <ele>649.4</ele>
        <time>2022-09-26T11:55:41Z</time>
      </trkpt>
      <trkpt lat="41.6738290" lon="2.0913990">
        <ele>649.6</ele>
        <time>2022-09-26T11:55:42Z</time>
      </trkpt>
      <trkpt lat="41.6738210" lon="2.0913950">
        <ele>649.7</ele>
        <time>2022-09-26T11:55:43Z</time>
      </trkpt>
      <trkpt lat="41.6737850" lon="2.0913760">
        <ele>650.0</ele>
        <time>2022-09-26T11:55:44Z</time>
      </trkpt>
      <trkpt lat="41.6737740" lon="2.0913690">
        <ele>650.1</ele>
        <time>2022-09-26T11:55:45Z</time>
      </trkpt>
      <trkpt lat="41.6737300" lon="2.0913370">
        <ele>650.5</ele>
        <time>2022-09-26T11:55:47Z</time>
      </trkpt>
      <trkpt lat="41.6736940" lon="2.0913110">
        <ele>650.8</ele>
        <time>2022-09-26T11:55:48Z</time>
      </trkpt>
      <trkpt lat="41.6736710" lon="2.0912910">
        <ele>651.0</ele>
        <time>2022-09-26T11:55:49Z</time>
      </trkpt>
      <trkpt lat="41.6736430" lon="2.0912720">
        <ele>651.3</ele>
        <time>2022-09-26T11:55:50Z</time>
      </trkpt>
      <trkpt lat="41.6736110" lon="2.0912480">
        <ele>651.6</ele>
        <time>2022-09-26T11:55:52Z</time>
      </trkpt>
      <trkpt lat="41.6735830" lon="2.0912290">
        <ele>651.8</ele>
        <time>2022-09-26T11:55:53Z</time>
      </trkpt>
      <trkpt lat="41.6735440" lon="2.0912030">
        <ele>652.1</ele>
        <time>2022-09-26T11:55:54Z</time>
      </trkpt>
      <trkpt lat="41.6735110" lon="2.0911800">
        <ele>652.4</ele>
        <time>2022-09-26T11:55:55Z</time>
      </trkpt>
      <trkpt lat="41.6735020" lon="2.0911740">
        <ele>652.5</ele>
        <time>2022-09-26T11:55:56Z</time>
      </trkpt>
      <trkpt lat="41.6734720" lon="2.0911550">
        <ele>652.7</ele>
        <time>2022-09-26T11:55:57Z</time>
      </trkpt>
      <trkpt lat="41.6734610" lon="2.0911480">
        <ele>652.8</ele>
        <time>2022-09-26T11:55:58Z</time>
      </trkpt>
      <trkpt lat="41.6734330" lon="2.0911280">
        <ele>653.0</ele>
        <time>2022-09-26T11:55:59Z</time>
      </trkpt>
      <trkpt lat="41.6734240" lon="2.0911200">
        <ele>653.0</ele>
        <time>2022-09-26T11:56:00Z</time>
      </trkpt>
      <trkpt lat="41.6734010" lon="2.0910950">
        <ele>653.2</ele>
        <time>2022-09-26T11:56:02Z</time>
      </trkpt>
      <trkpt lat="41.6733780" lon="2.0910720">
        <ele>653.4</ele>
        <time>2022-09-26T11:56:03Z</time>
      </trkpt>
      <trkpt lat="41.6733500" lon="2.0910530">
        <ele>653.5</ele>
        <time>2022-09-26T11:56:04Z</time>
      </trkpt>
      <trkpt lat="41.6733120" lon="2.0910310">
        <ele>653.7</ele>
        <time>2022-09-26T11:56:05Z</time>
      </trkpt>
      <trkpt lat="41.6732860" lon="2.0910160">
        <ele>653.8</ele>
        <time>2022-09-26T11:56:06Z</time>
      </trkpt>
      <trkpt lat="41.6732510" lon="2.0910000">
        <ele>654.0</ele>
        <time>2022-09-26T11:56:07Z</time>
      </trkpt>
      <trkpt lat="41.6732390" lon="2.0909950">
        <ele>654.0</ele>
        <time>2022-09-26T11:56:08Z</time>
      </trkpt>
      <trkpt lat="41.6732070" lon="2.0909830">
        <ele>654.2</ele>
        <time>2022-09-26T11:56:09Z</time>
      </trkpt>
      <trkpt lat="41.6731720" lon="2.0909710">
        <ele>654.3</ele>
        <time>2022-09-26T11:56:10Z</time>
      </trkpt>
      <trkpt lat="41.6731600" lon="2.0909680">
        <ele>654.3</ele>
        <time>2022-09-26T11:56:11Z</time>
      </trkpt>
      <trkpt lat="41.6731170" lon="2.0909540">
        <ele>654.5</ele>
        <time>2022-09-26T11:56:13Z</time>
      </trkpt>
      <trkpt lat="41.6730990" lon="2.0909480">
        <ele>654.5</ele>
        <time>2022-09-26T11:56:14Z</time>
      </trkpt>
      <trkpt lat="41.6730670" lon="2.0909430">
        <ele>654.6</ele>
        <time>2022-09-26T11:56:15Z</time>
      </trkpt>
      <trkpt lat="41.6730340" lon="2.0909370">
        <ele>654.7</ele>
        <time>2022-09-26T11:56:17Z</time>
      </trkpt>
      <trkpt lat="41.6730030" lon="2.0909360">
        <ele>654.8</ele>
        <time>2022-09-26T11:56:18Z</time>
      </trkpt>
      <trkpt lat="41.6729820" lon="2.0909400">
        <ele>654.9</ele>
        <time>2022-09-26T11:56:19Z</time>
      </trkpt>
      <trkpt lat="41.6729430" lon="2.0909510">
        <ele>655.1</ele>
        <time>2022-09-26T11:56:21Z</time>
      </trkpt>
      <trkpt lat="41.6729170" lon="2.0909560">
        <ele>655.3</ele>
        <time>2022-09-26T11:56:22Z</time>
      </trkpt>
      <trkpt lat="41.6728790" lon="2.0909630">
        <ele>655.5</ele>
        <time>2022-09-26T11:56:24Z</time>
      </trkpt>
      <trkpt lat="41.6728340" lon="2.0909660">
        <ele>655.8</ele>
        <time>2022-09-26T11:56:25Z</time>
      </trkpt>
      <trkpt lat="41.6728140" lon="2.0909670">
        <ele>655.9</ele>
        <time>2022-09-26T11:56:26Z</time>
      </trkpt>
      <trkpt lat="41.6727860" lon="2.0909670">
        <ele>656.1</ele>
        <time>2022-09-26T11:56:27Z</time>
      </trkpt>
      <trkpt lat="41.6727550" lon="2.0909690">
        <ele>656.3</ele>
        <time>2022-09-26T11:56:28Z</time>
      </trkpt>
      <trkpt lat="41.6727450" lon="2.0909700">
        <ele>656.4</ele>
        <time>2022-09-26T11:56:29Z</time>
      </trkpt>
      <trkpt lat="41.6727110" lon="2.0909810">
        <ele>656.7</ele>
        <time>2022-09-26T11:56:30Z</time>
      </trkpt>
      <trkpt lat="41.6727000" lon="2.0909830">
        <ele>656.8</ele>
        <time>2022-09-26T11:56:31Z</time>
      </trkpt>
      <trkpt lat="41.6726710" lon="2.0909840">
        <ele>657.1</ele>
        <time>2022-09-26T11:56:32Z</time>
      </trkpt>
      <trkpt lat="41.6726630" lon="2.0909830">
        <ele>657.2</ele>
        <time>2022-09-26T11:56:33Z</time>
      </trkpt>
      <trkpt lat="41.6726320" lon="2.0909770">
        <ele>657.5</ele>
        <time>2022-09-26T11:56:35Z</time>
      </trkpt>
      <trkpt lat="41.6726110" lon="2.0909780">
        <ele>657.7</ele>
        <time>2022-09-26T11:56:36Z</time>
      </trkpt>
      <trkpt lat="41.6725970" lon="2.0909780">
        <ele>657.8</ele>
        <time>2022-09-26T11:56:37Z</time>
      </trkpt>
      <trkpt lat="41.6725650" lon="2.0909780">
        <ele>658.1</ele>
        <time>2022-09-26T11:56:39Z</time>
      </trkpt>
      <trkpt lat="41.6725520" lon="2.0909790">
        <ele>658.3</ele>
        <time>2022-09-26T11:56:40Z</time>
      </trkpt>
      <trkpt lat="41.6725240" lon="2.0909790">
        <ele>658.6</ele>
        <time>2022-09-26T11:56:41Z</time>
      </trkpt>
      <trkpt lat="41.6725120" lon="2.0909800">
        <ele>658.7</ele>
        <time>2022-09-26T11:56:42Z</time>
      </trkpt>
      <trkpt lat="41.6724930" lon="2.0909690">
        <ele>658.9</ele>
        <time>2022-09-26T11:56:43Z</time>
      </trkpt>
      <trkpt lat="41.6724830" lon="2.0909660">
        <ele>659.0</ele>
        <time>2022-09-26T11:56:44Z</time>
      </trkpt>
      <trkpt lat="41.6724730" lon="2.0909640">
        <ele>659.1</ele>
        <time>2022-09-26T11:56:45Z</time>
      </trkpt>
      <trkpt lat="41.6724160" lon="2.0909550">
        <ele>659.7</ele>
        <time>2022-09-26T11:56:47Z</time>
      </trkpt>
      <trkpt lat="41.6723950" lon="2.0909520">
        <ele>659.9</ele>
        <time>2022-09-26T11:56:48Z</time>
      </trkpt>
      <trkpt lat="41.6723730" lon="2.0909500">
        <ele>660.2</ele>
        <time>2022-09-26T11:56:49Z</time>
      </trkpt>
      <trkpt lat="41.6723360" lon="2.0909500">
        <ele>660.5</ele>
        <time>2022-09-26T11:56:50Z</time>
      </trkpt>
      <trkpt lat="41.6723220" lon="2.0909490">
        <ele>660.6</ele>
        <time>2022-09-26T11:56:51Z</time>
      </trkpt>
      <trkpt lat="41.6722990" lon="2.0909500">
        <ele>660.8</ele>
        <time>2022-09-26T11:56:53Z</time>
      </trkpt>
      <trkpt lat="41.6722900" lon="2.0909540">
        <ele>660.9</ele>
        <time>2022-09-26T11:56:54Z</time>
      </trkpt>
      <trkpt lat="41.6722760" lon="2.0909570">
        <ele>661.0</ele>
        <time>2022-09-26T11:56:55Z</time>
      </trkpt>
      <trkpt lat="41.6722480" lon="2.0909500">
        <ele>661.3</ele>
        <time>2022-09-26T11:56:57Z</time>
      </trkpt>
      <trkpt lat="41.6722200" lon="2.0909390">
        <ele>661.5</ele>
        <time>2022-09-26T11:56:58Z</time>
      </trkpt>
      <trkpt lat="41.6722080" lon="2.0909350">
        <ele>661.6</ele>
        <time>2022-09-26T11:56:59Z</time>
      </trkpt>
      <trkpt lat="41.6721640" lon="2.0909190">
        <ele>662.0</ele>
        <time>2022-09-26T11:57:00Z</time>
      </trkpt>
      <trkpt lat="41.6721420" lon="2.0909120">
        <ele>662.2</ele>
        <time>2022-09-26T11:57:01Z</time>
      </trkpt>
      <trkpt lat="41.6721020" lon="2.0908960">
        <ele>662.5</ele>
        <time>2022-09-26T11:57:02Z</time>
      </trkpt>
      <trkpt lat="41.6720520" lon="2.0908830">
        <ele>663.0</ele>
        <time>2022-09-26T11:57:04Z</time>
      </trkpt>
      <trkpt lat="41.6720060" lon="2.0908750">
        <ele>663.3</ele>
        <time>2022-09-26T11:57:05Z</time>
      </trkpt>
      <trkpt lat="41.6719700" lon="2.0908710">
        <ele>663.6</ele>
        <time>2022-09-26T11:57:06Z</time>
      </trkpt>
      <trkpt lat="41.6719420" lon="2.0908670">
        <ele>663.7</ele>
        <time>2022-09-26T11:57:07Z</time>
      </trkpt>
      <trkpt lat="41.6719030" lon="2.0908570">
        <ele>663.9</ele>
        <time>2022-09-26T11:57:08Z</time>
      </trkpt>
      <trkpt lat="41.6718910" lon="2.0908530">
        <ele>664.0</ele>
        <time>2022-09-26T11:57:09Z</time>
      </trkpt>
      <trkpt lat="41.6718350" lon="2.0908350">
        <ele>664.1</ele>
        <time>2022-09-26T11:57:10Z</time>
      </trkpt>
      <trkpt lat="41.6718040" lon="2.0908260">
        <ele>664.1</ele>
        <time>2022-09-26T11:57:11Z</time>
      </trkpt>
      <trkpt lat="41.6717340" lon="2.0908020">
        <ele>663.7</ele>
        <time>2022-09-26T11:57:12Z</time>
      </trkpt>
      <trkpt lat="41.6716490" lon="2.0907670">
        <ele>662.7</ele>
        <time>2022-09-26T11:57:13Z</time>
      </trkpt>
      <trkpt lat="41.6715580" lon="2.0907150">
        <ele>661.4</ele>
        <time>2022-09-26T11:57:14Z</time>
      </trkpt>
      <trkpt lat="41.6714690" lon="2.0906370">
        <ele>660.2</ele>
        <time>2022-09-26T11:57:15Z</time>
      </trkpt>
      <trkpt lat="41.6713870" lon="2.0905460">
        <ele>659.3</ele>
        <time>2022-09-26T11:57:16Z</time>
      </trkpt>
      <trkpt lat="41.6713070" lon="2.0904650">
        <ele>658.6</ele>
        <time>2022-09-26T11:57:17Z</time>
      </trkpt>
      <trkpt lat="41.6712170" lon="2.0904060">
        <ele>658.1</ele>
        <time>2022-09-26T11:57:18Z</time>
      </trkpt>
      <trkpt lat="41.6711340" lon="2.0903550">
        <ele>657.7</ele>
        <time>2022-09-26T11:57:19Z</time>
      </trkpt>
      <trkpt lat="41.6710560" lon="2.0903090">
        <ele>657.5</ele>
        <time>2022-09-26T11:57:20Z</time>
      </trkpt>
      <trkpt lat="41.6709810" lon="2.0902610">
        <ele>657.2</ele>
        <time>2022-09-26T11:57:21Z</time>
      </trkpt>
      <trkpt lat="41.6709100" lon="2.0902120">
        <ele>657.0</ele>
        <time>2022-09-26T11:57:22Z</time>
      </trkpt>
      <trkpt lat="41.6708390" lon="2.0901630">
        <ele>656.8</ele>
        <time>2022-09-26T11:57:23Z</time>
      </trkpt>
      <trkpt lat="41.6707670" lon="2.0901170">
        <ele>656.6</ele>
        <time>2022-09-26T11:57:24Z</time>
      </trkpt>
      <trkpt lat="41.6706950" lon="2.0900720">
        <ele>656.5</ele>
        <time>2022-09-26T11:57:25Z</time>
      </trkpt>
      <trkpt lat="41.6706230" lon="2.0900350">
        <ele>656.4</ele>
        <time>2022-09-26T11:57:26Z</time>
      </trkpt>
      <trkpt lat="41.6705490" lon="2.0900040">
        <ele>656.4</ele>
        <time>2022-09-26T11:57:27Z</time>
      </trkpt>
      <trkpt lat="41.6704770" lon="2.0899760">
        <ele>656.5</ele>
        <time>2022-09-26T11:57:28Z</time>
      </trkpt>
      <trkpt lat="41.6704040" lon="2.0899590">
        <ele>656.6</ele>
        <time>2022-09-26T11:57:29Z</time>
      </trkpt>
      <trkpt lat="41.6703360" lon="2.0899550">
        <ele>656.9</ele>
        <time>2022-09-26T11:57:30Z</time>
      </trkpt>
      <trkpt lat="41.6702750" lon="2.0899560">
        <ele>657.2</ele>
        <time>2022-09-26T11:57:31Z</time>
      </trkpt>
      <trkpt lat="41.6702180" lon="2.0899590">
        <ele>657.5</ele>
        <time>2022-09-26T11:57:32Z</time>
      </trkpt>
      <trkpt lat="41.6701710" lon="2.0899580">
        <ele>657.8</ele>
        <time>2022-09-26T11:57:33Z</time>
      </trkpt>
      <trkpt lat="41.6701310" lon="2.0899460">
        <ele>658.0</ele>
        <time>2022-09-26T11:57:34Z</time>
      </trkpt>
      <trkpt lat="41.6701150" lon="2.0899400">
        <ele>658.1</ele>
        <time>2022-09-26T11:57:35Z</time>
      </trkpt>
      <trkpt lat="41.6700860" lon="2.0899290">
        <ele>658.3</ele>
        <time>2022-09-26T11:57:36Z</time>
      </trkpt>
      <trkpt lat="41.6700530" lon="2.0899110">
        <ele>658.4</ele>
        <time>2022-09-26T11:57:37Z</time>
      </trkpt>
      <trkpt lat="41.6700420" lon="2.0899050">
        <ele>658.5</ele>
        <time>2022-09-26T11:57:38Z</time>
      </trkpt>
      <trkpt lat="41.6700160" lon="2.0898810">
        <ele>658.6</ele>
        <time>2022-09-26T11:57:39Z</time>
      </trkpt>
      <trkpt lat="41.6700100" lon="2.0898720">
        <ele>658.6</ele>
        <time>2022-09-26T11:57:40Z</time>
      </trkpt>
      <trkpt lat="41.6699750" lon="2.0898350">
        <ele>658.7</ele>
        <time>2022-09-26T11:57:41Z</time>
      </trkpt>
      <trkpt lat="41.6699510" lon="2.0898250">
        <ele>658.8</ele>
        <time>2022-09-26T11:57:42Z</time>
      </trkpt>
      <trkpt lat="41.6699060" lon="2.0898030">
        <ele>658.8</ele>
        <time>2022-09-26T11:57:43Z</time>
      </trkpt>
      <trkpt lat="41.6698690" lon="2.0897820">
        <ele>658.9</ele>
        <time>2022-09-26T11:57:44Z</time>
      </trkpt>
      <trkpt lat="41.6698400" lon="2.0897640">
        <ele>658.9</ele>
        <time>2022-09-26T11:57:45Z</time>
      </trkpt>
      <trkpt lat="41.6698140" lon="2.0897530">
        <ele>658.9</ele>
        <time>2022-09-26T11:57:46Z</time>
      </trkpt>
      <trkpt lat="41.6697740" lon="2.0897380">
        <ele>658.8</ele>
        <time>2022-09-26T11:57:48Z</time>
      </trkpt>
      <trkpt lat="41.6697350" lon="2.0897220">
        <ele>658.7</ele>
        <time>2022-09-26T11:57:49Z</time>
      </trkpt>
      <trkpt lat="41.6697020" lon="2.0897060">
        <ele>658.6</ele>
        <time>2022-09-26T11:57:50Z</time>
      </trkpt>
      <trkpt lat="41.6696650" lon="2.0896730">
        <ele>658.4</ele>
        <time>2022-09-26T11:57:51Z</time>
      </trkpt>
      <trkpt lat="41.6696190" lon="2.0896280">
        <ele>658.0</ele>
        <time>2022-09-26T11:57:53Z</time>
      </trkpt>
      <trkpt lat="41.6695810" lon="2.0895870">
        <ele>657.5</ele>
        <time>2022-09-26T11:57:54Z</time>
      </trkpt>
      <trkpt lat="41.6695040" lon="2.0895320">
        <ele>656.5</ele>
        <time>2022-09-26T11:57:55Z</time>
      </trkpt>
      <trkpt lat="41.6694410" lon="2.0895000">
        <ele>655.7</ele>
        <time>2022-09-26T11:57:56Z</time>
      </trkpt>
      <trkpt lat="41.6693680" lon="2.0894680">
        <ele>654.7</ele>
        <time>2022-09-26T11:57:57Z</time>
      </trkpt>
      <trkpt lat="41.6692900" lon="2.0894360">
        <ele>653.7</ele>
        <time>2022-09-26T11:57:58Z</time>
      </trkpt>
      <trkpt lat="41.6691950" lon="2.0894050">
        <ele>652.9</ele>
        <time>2022-09-26T11:57:59Z</time>
      </trkpt>
      <trkpt lat="41.6690940" lon="2.0893690">
        <ele>652.4</ele>
        <time>2022-09-26T11:58:00Z</time>
      </trkpt>
      <trkpt lat="41.6690000" lon="2.0893250">
        <ele>652.2</ele>
        <time>2022-09-26T11:58:01Z</time>
      </trkpt>
      <trkpt lat="41.6689110" lon="2.0892820">
        <ele>652.1</ele>
        <time>2022-09-26T11:58:02Z</time>
      </trkpt>
      <trkpt lat="41.6688310" lon="2.0892500">
        <ele>652.1</ele>
        <time>2022-09-26T11:58:03Z</time>
      </trkpt>
      <trkpt lat="41.6687570" lon="2.0892160">
        <ele>651.9</ele>
        <time>2022-09-26T11:58:04Z</time>
      </trkpt>
      <trkpt lat="41.6686830" lon="2.0891950">
        <ele>651.6</ele>
        <time>2022-09-26T11:58:05Z</time>
      </trkpt>
      <trkpt lat="41.6686060" lon="2.0891940">
        <ele>651.0</ele>
        <time>2022-09-26T11:58:06Z</time>
      </trkpt>
      <trkpt lat="41.6685280" lon="2.0892090">
        <ele>650.3</ele>
        <time>2022-09-26T11:58:07Z</time>
      </trkpt>
      <trkpt lat="41.6684480" lon="2.0892330">
        <ele>649.5</ele>
        <time>2022-09-26T11:58:08Z</time>
      </trkpt>
      <trkpt lat="41.6683680" lon="2.0892710">
        <ele>648.6</ele>
        <time>2022-09-26T11:58:09Z</time>
      </trkpt>
      <trkpt lat="41.6682780" lon="2.0893210">
        <ele>647.7</ele>
        <time>2022-09-26T11:58:10Z</time>
      </trkpt>
      <trkpt lat="41.6681840" lon="2.0893830">
        <ele>647.0</ele>
        <time>2022-09-26T11:58:11Z</time>
      </trkpt>
      <trkpt lat="41.6680890" lon="2.0894460">
        <ele>646.6</ele>
        <time>2022-09-26T11:58:12Z</time>
      </trkpt>
      <trkpt lat="41.6680000" lon="2.0895000">
        <ele>646.5</ele>
        <time>2022-09-26T11:58:13Z</time>
      </trkpt>
      <trkpt lat="41.6679110" lon="2.0895380">
        <ele>646.5</ele>
        <time>2022-09-26T11:58:14Z</time>
      </trkpt>
      <trkpt lat="41.6678190" lon="2.0895650">
        <ele>646.6</ele>
        <time>2022-09-26T11:58:15Z</time>
      </trkpt>
      <trkpt lat="41.6677370" lon="2.0895890">
        <ele>646.9</ele>
        <time>2022-09-26T11:58:16Z</time>
      </trkpt>
      <trkpt lat="41.6676630" lon="2.0896110">
        <ele>647.2</ele>
        <time>2022-09-26T11:58:17Z</time>
      </trkpt>
      <trkpt lat="41.6676030" lon="2.0896320">
        <ele>647.4</ele>
        <time>2022-09-26T11:58:18Z</time>
      </trkpt>
      <trkpt lat="41.6675450" lon="2.0896470">
        <ele>647.6</ele>
        <time>2022-09-26T11:58:19Z</time>
      </trkpt>
      <trkpt lat="41.6674940" lon="2.0896600">
        <ele>647.8</ele>
        <time>2022-09-26T11:58:20Z</time>
      </trkpt>
      <trkpt lat="41.6674420" lon="2.0896670">
        <ele>647.9</ele>
        <time>2022-09-26T11:58:21Z</time>
      </trkpt>
      <trkpt lat="41.6673880" lon="2.0896700">
        <ele>648.1</ele>
        <time>2022-09-26T11:58:22Z</time>
      </trkpt>
      <trkpt lat="41.6673350" lon="2.0896670">
        <ele>648.2</ele>
        <time>2022-09-26T11:58:23Z</time>
      </trkpt>
      <trkpt lat="41.6672850" lon="2.0896640">
        <ele>648.3</ele>
        <time>2022-09-26T11:58:24Z</time>
      </trkpt>
      <trkpt lat="41.6672350" lon="2.0896560">
        <ele>648.5</ele>
        <time>2022-09-26T11:58:25Z</time>
      </trkpt>
      <trkpt lat="41.6671890" lon="2.0896460">
        <ele>648.6</ele>
        <time>2022-09-26T11:58:26Z</time>
      </trkpt>
      <trkpt lat="41.6671550" lon="2.0896330">
        <ele>648.7</ele>
        <time>2022-09-26T11:58:27Z</time>
      </trkpt>
      <trkpt lat="41.6671150" lon="2.0896210">
        <ele>648.7</ele>
        <time>2022-09-26T11:58:28Z</time>
      </trkpt>
      <trkpt lat="41.6670920" lon="2.0896170">
        <ele>648.8</ele>
        <time>2022-09-26T11:58:29Z</time>
      </trkpt>
      <trkpt lat="41.6670470" lon="2.0896090">
        <ele>648.9</ele>
        <time>2022-09-26T11:58:30Z</time>
      </trkpt>
      <trkpt lat="41.6670260" lon="2.0896040">
        <ele>648.9</ele>
        <time>2022-09-26T11:58:31Z</time>
      </trkpt>
      <trkpt lat="41.6669810" lon="2.0895930">
        <ele>648.9</ele>
        <time>2022-09-26T11:58:32Z</time>
      </trkpt>
      <trkpt lat="41.6669330" lon="2.0895790">
        <ele>648.9</ele>
        <time>2022-09-26T11:58:33Z</time>
      </trkpt>
      <trkpt lat="41.6668850" lon="2.0895690">
        <ele>648.9</ele>
        <time>2022-09-26T11:58:34Z</time>
      </trkpt>
      <trkpt lat="41.6668520" lon="2.0895740">
        <ele>648.9</ele>
        <time>2022-09-26T11:58:35Z</time>
      </trkpt>
      <trkpt lat="41.6668080" lon="2.0895910">
        <ele>648.8</ele>
        <time>2022-09-26T11:58:36Z</time>
      </trkpt>
      <trkpt lat="41.6667710" lon="2.0896050">
        <ele>648.8</ele>
        <time>2022-09-26T11:58:37Z</time>
      </trkpt>
      <trkpt lat="41.6667250" lon="2.0896280">
        <ele>648.7</ele>
        <time>2022-09-26T11:58:38Z</time>
      </trkpt>
      <trkpt lat="41.6666730" lon="2.0896520">
        <ele>648.5</ele>
        <time>2022-09-26T11:58:39Z</time>
      </trkpt>
      <trkpt lat="41.6666200" lon="2.0896790">
        <ele>648.4</ele>
        <time>2022-09-26T11:58:40Z</time>
      </trkpt>
      <trkpt lat="41.6665680" lon="2.0897050">
        <ele>648.3</ele>
        <time>2022-09-26T11:58:41Z</time>
      </trkpt>
      <trkpt lat="41.6665120" lon="2.0897270">
        <ele>648.2</ele>
        <time>2022-09-26T11:58:42Z</time>
      </trkpt>
      <trkpt lat="41.6664550" lon="2.0897480">
        <ele>648.2</ele>
        <time>2022-09-26T11:58:43Z</time>
      </trkpt>
      <trkpt lat="41.6664110" lon="2.0897710">
        <ele>648.2</ele>
        <time>2022-09-26T11:58:44Z</time>
      </trkpt>
      <trkpt lat="41.6663840" lon="2.0897400">
        <ele>648.1</ele>
        <time>2022-09-26T11:58:45Z</time>
      </trkpt>
      <trkpt lat="41.6663370" lon="2.0897450">
        <ele>648.1</ele>
        <time>2022-09-26T11:58:46Z</time>
      </trkpt>
      <trkpt lat="41.6662760" lon="2.0897860">
        <ele>648.1</ele>
        <time>2022-09-26T11:58:48Z</time>
      </trkpt>
      <trkpt lat="41.6662340" lon="2.0898010">
        <ele>648.1</ele>
        <time>2022-09-26T11:58:49Z</time>
      </trkpt>
      <trkpt lat="41.6661900" lon="2.0898060">
        <ele>648.1</ele>
        <time>2022-09-26T11:58:50Z</time>
      </trkpt>
      <trkpt lat="41.6661470" lon="2.0898000">
        <ele>648.1</ele>
        <time>2022-09-26T11:58:51Z</time>
      </trkpt>
      <trkpt lat="41.6660500" lon="2.0897300">
        <ele>647.8</ele>
        <time>2022-09-26T11:58:52Z</time>
      </trkpt>
      <trkpt lat="41.6659940" lon="2.0896780">
        <ele>647.6</ele>
        <time>2022-09-26T11:58:53Z</time>
      </trkpt>
      <trkpt lat="41.6659410" lon="2.0896210">
        <ele>647.4</ele>
        <time>2022-09-26T11:58:54Z</time>
      </trkpt>
      <trkpt lat="41.6658850" lon="2.0895620">
        <ele>647.1</ele>
        <time>2022-09-26T11:58:55Z</time>
      </trkpt>
      <trkpt lat="41.6658320" lon="2.0895080">
        <ele>646.9</ele>
        <time>2022-09-26T11:58:56Z</time>
      </trkpt>
      <trkpt lat="41.6657830" lon="2.0894540">
        <ele>646.8</ele>
        <time>2022-09-26T11:58:57Z</time>
      </trkpt>
      <trkpt lat="41.6657360" lon="2.0894000">
        <ele>646.6</ele>
        <time>2022-09-26T11:58:58Z</time>
      </trkpt>
      <trkpt lat="41.6656920" lon="2.0893470">
        <ele>646.4</ele>
        <time>2022-09-26T11:58:59Z</time>
      </trkpt>
      <trkpt lat="41.6656470" lon="2.0892930">
        <ele>646.1</ele>
        <time>2022-09-26T11:59:00Z</time>
      </trkpt>
      <trkpt lat="41.6656070" lon="2.0892350">
        <ele>645.8</ele>
        <time>2022-09-26T11:59:01Z</time>
      </trkpt>
      <trkpt lat="41.6655690" lon="2.0891700">
        <ele>645.5</ele>
        <time>2022-09-26T11:59:02Z</time>
      </trkpt>
      <trkpt lat="41.6655340" lon="2.0891050">
        <ele>645.2</ele>
        <time>2022-09-26T11:59:03Z</time>
      </trkpt>
      <trkpt lat="41.6655010" lon="2.0890420">
        <ele>644.8</ele>
        <time>2022-09-26T11:59:04Z</time>
      </trkpt>
      <trkpt lat="41.6654670" lon="2.0889790">
        <ele>644.5</ele>
        <time>2022-09-26T11:59:05Z</time>
      </trkpt>
      <trkpt lat="41.6654310" lon="2.0889110">
        <ele>644.1</ele>
        <time>2022-09-26T11:59:06Z</time>
      </trkpt>
      <trkpt lat="41.6653940" lon="2.0888420">
        <ele>643.6</ele>
        <time>2022-09-26T11:59:07Z</time>
      </trkpt>
      <trkpt lat="41.6653550" lon="2.0887820">
        <ele>643.2</ele>
        <time>2022-09-26T11:59:08Z</time>
      </trkpt>
      <trkpt lat="41.6653100" lon="2.0887340">
        <ele>642.7</ele>
        <time>2022-09-26T11:59:09Z</time>
      </trkpt>
      <trkpt lat="41.6652560" lon="2.0887020">
        <ele>642.2</ele>
        <time>2022-09-26T11:59:10Z</time>
      </trkpt>
      <trkpt lat="41.6651920" lon="2.0887000">
        <ele>641.7</ele>
        <time>2022-09-26T11:59:11Z</time>
      </trkpt>
      <trkpt lat="41.6651250" lon="2.0886990">
        <ele>641.2</ele>
        <time>2022-09-26T11:59:12Z</time>
      </trkpt>
      <trkpt lat="41.6650580" lon="2.0887050">
        <ele>640.7</ele>
        <time>2022-09-26T11:59:13Z</time>
      </trkpt>
      <trkpt lat="41.6649880" lon="2.0887140">
        <ele>640.1</ele>
        <time>2022-09-26T11:59:14Z</time>
      </trkpt>
      <trkpt lat="41.6649230" lon="2.0887240">
        <ele>639.5</ele>
        <time>2022-09-26T11:59:15Z</time>
      </trkpt>
      <trkpt lat="41.6648690" lon="2.0887240">
        <ele>638.8</ele>
        <time>2022-09-26T11:59:16Z</time>
      </trkpt>
      <trkpt lat="41.6648230" lon="2.0887090">
        <ele>638.2</ele>
        <time>2022-09-26T11:59:17Z</time>
      </trkpt>
      <trkpt lat="41.6648040" lon="2.0887000">
        <ele>637.9</ele>
        <time>2022-09-26T11:59:18Z</time>
      </trkpt>
      <trkpt lat="41.6647730" lon="2.0886750">
        <ele>637.4</ele>
        <time>2022-09-26T11:59:19Z</time>
      </trkpt>
      <trkpt lat="41.6647500" lon="2.0886510">
        <ele>637.0</ele>
        <time>2022-09-26T11:59:20Z</time>
      </trkpt>
      <trkpt lat="41.6647230" lon="2.0886180">
        <ele>636.5</ele>
        <time>2022-09-26T11:59:21Z</time>
      </trkpt>
      <trkpt lat="41.6646960" lon="2.0885730">
        <ele>636.0</ele>
        <time>2022-09-26T11:59:22Z</time>
      </trkpt>
      <trkpt lat="41.6646860" lon="2.0885220">
        <ele>635.4</ele>
        <time>2022-09-26T11:59:23Z</time>
      </trkpt>
      <trkpt lat="41.6646750" lon="2.0884560">
        <ele>634.8</ele>
        <time>2022-09-26T11:59:24Z</time>
      </trkpt>
      <trkpt lat="41.6646530" lon="2.0884180">
        <ele>634.3</ele>
        <time>2022-09-26T11:59:25Z</time>
      </trkpt>
      <trkpt lat="41.6646080" lon="2.0883500">
        <ele>633.4</ele>
        <time>2022-09-26T11:59:26Z</time>
      </trkpt>
      <trkpt lat="41.6645800" lon="2.0883040">
        <ele>632.7</ele>
        <time>2022-09-26T11:59:27Z</time>
      </trkpt>
      <trkpt lat="41.6645470" lon="2.0882770">
        <ele>632.0</ele>
        <time>2022-09-26T11:59:29Z</time>
      </trkpt>
      <trkpt lat="41.6645170" lon="2.0882860">
        <ele>631.5</ele>
        <time>2022-09-26T11:59:30Z</time>
      </trkpt>
      <trkpt lat="41.6644910" lon="2.0883030">
        <ele>631.0</ele>
        <time>2022-09-26T11:59:31Z</time>
      </trkpt>
      <trkpt lat="41.6644500" lon="2.0883480">
        <ele>630.1</ele>
        <time>2022-09-26T11:59:33Z</time>
      </trkpt>
      <trkpt lat="41.6644140" lon="2.0883820">
        <ele>629.3</ele>
        <time>2022-09-26T11:59:34Z</time>
      </trkpt>
      <trkpt lat="41.6642950" lon="2.0884600">
        <ele>627.3</ele>
        <time>2022-09-26T11:59:35Z</time>
      </trkpt>
      <trkpt lat="41.6642290" lon="2.0884960">
        <ele>626.4</ele>
        <time>2022-09-26T11:59:36Z</time>
      </trkpt>
      <trkpt lat="41.6641680" lon="2.0885290">
        <ele>625.7</ele>
        <time>2022-09-26T11:59:37Z</time>
      </trkpt>
      <trkpt lat="41.6641040" lon="2.0885600">
        <ele>624.9</ele>
        <time>2022-09-26T11:59:38Z</time>
      </trkpt>
      <trkpt lat="41.6640400" lon="2.0885900">
        <ele>624.2</ele>
        <time>2022-09-26T11:59:39Z</time>
      </trkpt>
      <trkpt lat="41.6639790" lon="2.0886380">
        <ele>623.5</ele>
        <time>2022-09-26T11:59:40Z</time>
      </trkpt>
      <trkpt lat="41.6639350" lon="2.0887080">
        <ele>622.8</ele>
        <time>2022-09-26T11:59:41Z</time>
      </trkpt>
      <trkpt lat="41.6639060" lon="2.0887780">
        <ele>622.3</ele>
        <time>2022-09-26T11:59:42Z</time>
      </trkpt>
      <trkpt lat="41.6638990" lon="2.0888460">
        <ele>621.9</ele>
        <time>2022-09-26T11:59:43Z</time>
      </trkpt>
      <trkpt lat="41.6639080" lon="2.0889150">
        <ele>621.1</ele>
        <time>2022-09-26T11:59:44Z</time>
      </trkpt>
      <trkpt lat="41.6639240" lon="2.0889870">
        <ele>620.7</ele>
        <time>2022-09-26T11:59:45Z</time>
      </trkpt>
      <trkpt lat="41.6639450" lon="2.0890590">
        <ele>620.3</ele>
        <time>2022-09-26T11:59:46Z</time>
      </trkpt>
      <trkpt lat="41.6639600" lon="2.0891250">
        <ele>619.9</ele>
        <time>2022-09-26T11:59:47Z</time>
      </trkpt>
      <trkpt lat="41.6639660" lon="2.0891800">
        <ele>619.6</ele>
        <time>2022-09-26T11:59:48Z</time>
      </trkpt>
      <trkpt lat="41.6639500" lon="2.0892270">
        <ele>619.2</ele>
        <time>2022-09-26T11:59:49Z</time>
      </trkpt>
      <trkpt lat="41.6639420" lon="2.0892450">
        <ele>619.1</ele>
        <time>2022-09-26T11:59:50Z</time>
      </trkpt>
      <trkpt lat="41.6639250" lon="2.0892850">
        <ele>618.8</ele>
        <time>2022-09-26T11:59:51Z</time>
      </trkpt>
      <trkpt lat="41.6638890" lon="2.0893270">
        <ele>618.3</ele>
        <time>2022-09-26T11:59:52Z</time>
      </trkpt>
      <trkpt lat="41.6638410" lon="2.0893430">
        <ele>617.9</ele>
        <time>2022-09-26T11:59:53Z</time>
      </trkpt>
      <trkpt lat="41.6637770" lon="2.0893590">
        <ele>617.3</ele>
        <time>2022-09-26T11:59:54Z</time>
      </trkpt>
      <trkpt lat="41.6637030" lon="2.0893770">
        <ele>616.7</ele>
        <time>2022-09-26T11:59:55Z</time>
      </trkpt>
      <trkpt lat="41.6636250" lon="2.0893980">
        <ele>616.1</ele>
        <time>2022-09-26T11:59:56Z</time>
      </trkpt>
      <trkpt lat="41.6635380" lon="2.0894150">
        <ele>615.6</ele>
        <time>2022-09-26T11:59:57Z</time>
      </trkpt>
      <trkpt lat="41.6634430" lon="2.0894320">
        <ele>615.2</ele>
        <time>2022-09-26T11:59:58Z</time>
      </trkpt>
      <trkpt lat="41.6633450" lon="2.0894470">
        <ele>614.9</ele>
        <time>2022-09-26T11:59:59Z</time>
      </trkpt>
      <trkpt lat="41.6632530" lon="2.0894610">
        <ele>614.7</ele>
        <time>2022-09-26T12:00:00Z</time>
      </trkpt>
      <trkpt lat="41.6631630" lon="2.0894620">
        <ele>614.5</ele>
        <time>2022-09-26T12:00:01Z</time>
      </trkpt>
      <trkpt lat="41.6630730" lon="2.0894570">
        <ele>614.0</ele>
        <time>2022-09-26T12:00:02Z</time>
      </trkpt>
      <trkpt lat="41.6629820" lon="2.0894510">
        <ele>613.4</ele>
        <time>2022-09-26T12:00:03Z</time>
      </trkpt>
      <trkpt lat="41.6628920" lon="2.0894390">
        <ele>612.9</ele>
        <time>2022-09-26T12:00:04Z</time>
      </trkpt>
      <trkpt lat="41.6628060" lon="2.0894190">
        <ele>612.5</ele>
        <time>2022-09-26T12:00:05Z</time>
      </trkpt>
      <trkpt lat="41.6627220" lon="2.0893960">
        <ele>612.2</ele>
        <time>2022-09-26T12:00:06Z</time>
      </trkpt>
      <trkpt lat="41.6626460" lon="2.0893760">
        <ele>612.0</ele>
        <time>2022-09-26T12:00:07Z</time>
      </trkpt>
      <trkpt lat="41.6625730" lon="2.0893690">
        <ele>611.8</ele>
        <time>2022-09-26T12:00:08Z</time>
      </trkpt>
      <trkpt lat="41.6625010" lon="2.0893690">
        <ele>611.6</ele>
        <time>2022-09-26T12:00:09Z</time>
      </trkpt>
      <trkpt lat="41.6624280" lon="2.0893810">
        <ele>611.5</ele>
        <time>2022-09-26T12:00:10Z</time>
      </trkpt>
      <trkpt lat="41.6623550" lon="2.0893960">
        <ele>611.4</ele>
        <time>2022-09-26T12:00:11Z</time>
      </trkpt>
      <trkpt lat="41.6622820" lon="2.0894100">
        <ele>611.3</ele>
        <time>2022-09-26T12:00:12Z</time>
      </trkpt>
      <trkpt lat="41.6622070" lon="2.0894200">
        <ele>611.2</ele>
        <time>2022-09-26T12:00:13Z</time>
      </trkpt>
      <trkpt lat="41.6621320" lon="2.0894260">
        <ele>611.1</ele>
        <time>2022-09-26T12:00:14Z</time>
      </trkpt>
      <trkpt lat="41.6620580" lon="2.0894320">
        <ele>611.0</ele>
        <time>2022-09-26T12:00:15Z</time>
      </trkpt>
      <trkpt lat="41.6619900" lon="2.0894330">
        <ele>610.8</ele>
        <time>2022-09-26T12:00:16Z</time>
      </trkpt>
      <trkpt lat="41.6619240" lon="2.0894320">
        <ele>610.6</ele>
        <time>2022-09-26T12:00:17Z</time>
      </trkpt>
      <trkpt lat="41.6618590" lon="2.0894310">
        <ele>610.4</ele>
        <time>2022-09-26T12:00:18Z</time>
      </trkpt>
      <trkpt lat="41.6617940" lon="2.0894320">
        <ele>610.1</ele>
        <time>2022-09-26T12:00:19Z</time>
      </trkpt>
      <trkpt lat="41.6617240" lon="2.0894350">
        <ele>609.8</ele>
        <time>2022-09-26T12:00:20Z</time>
      </trkpt>
      <trkpt lat="41.6616510" lon="2.0894340">
        <ele>609.4</ele>
        <time>2022-09-26T12:00:21Z</time>
      </trkpt>
      <trkpt lat="41.6615810" lon="2.0894340">
        <ele>609.1</ele>
        <time>2022-09-26T12:00:22Z</time>
      </trkpt>
      <trkpt lat="41.6615120" lon="2.0894350">
        <ele>608.8</ele>
        <time>2022-09-26T12:00:23Z</time>
      </trkpt>
      <trkpt lat="41.6614430" lon="2.0894340">
        <ele>608.4</ele>
        <time>2022-09-26T12:00:24Z</time>
      </trkpt>
      <trkpt lat="41.6613710" lon="2.0894370">
        <ele>608.1</ele>
        <time>2022-09-26T12:00:25Z</time>
      </trkpt>
      <trkpt lat="41.6613010" lon="2.0894440">
        <ele>607.8</ele>
        <time>2022-09-26T12:00:26Z</time>
      </trkpt>
      <trkpt lat="41.6612320" lon="2.0894590">
        <ele>607.5</ele>
        <time>2022-09-26T12:00:27Z</time>
      </trkpt>
      <trkpt lat="41.6611660" lon="2.0894820">
        <ele>607.2</ele>
        <time>2022-09-26T12:00:28Z</time>
      </trkpt>
      <trkpt lat="41.6611030" lon="2.0895100">
        <ele>606.9</ele>
        <time>2022-09-26T12:00:29Z</time>
      </trkpt>
      <trkpt lat="41.6610370" lon="2.0895440">
        <ele>606.5</ele>
        <time>2022-09-26T12:00:30Z</time>
      </trkpt>
      <trkpt lat="41.6609690" lon="2.0895840">
        <ele>606.1</ele>
        <time>2022-09-26T12:00:31Z</time>
      </trkpt>
      <trkpt lat="41.6608980" lon="2.0896240">
        <ele>605.8</ele>
        <time>2022-09-26T12:00:32Z</time>
      </trkpt>
      <trkpt lat="41.6608310" lon="2.0896700">
        <ele>605.4</ele>
        <time>2022-09-26T12:00:33Z</time>
      </trkpt>
      <trkpt lat="41.6607680" lon="2.0897150">
        <ele>605.0</ele>
        <time>2022-09-26T12:00:34Z</time>
      </trkpt>
      <trkpt lat="41.6607110" lon="2.0897630">
        <ele>604.8</ele>
        <time>2022-09-26T12:00:35Z</time>
      </trkpt>
      <trkpt lat="41.6606490" lon="2.0897950">
        <ele>604.6</ele>
        <time>2022-09-26T12:00:36Z</time>
      </trkpt>
      <trkpt lat="41.6605830" lon="2.0898000">
        <ele>604.2</ele>
        <time>2022-09-26T12:00:37Z</time>
      </trkpt>
      <trkpt lat="41.6605170" lon="2.0897840">
        <ele>603.6</ele>
        <time>2022-09-26T12:00:38Z</time>
      </trkpt>
      <trkpt lat="41.6604480" lon="2.0897460">
        <ele>602.9</ele>
        <time>2022-09-26T12:00:39Z</time>
      </trkpt>
      <trkpt lat="41.6603830" lon="2.0896880">
        <ele>602.2</ele>
        <time>2022-09-26T12:00:40Z</time>
      </trkpt>
      <trkpt lat="41.6603160" lon="2.0896210">
        <ele>601.6</ele>
        <time>2022-09-26T12:00:41Z</time>
      </trkpt>
      <trkpt lat="41.6602440" lon="2.0895570">
        <ele>601.0</ele>
        <time>2022-09-26T12:00:42Z</time>
      </trkpt>
      <trkpt lat="41.6601630" lon="2.0895080">
        <ele>600.4</ele>
        <time>2022-09-26T12:00:43Z</time>
      </trkpt>
      <trkpt lat="41.6600730" lon="2.0894880">
        <ele>599.9</ele>
        <time>2022-09-26T12:00:44Z</time>
      </trkpt>
      <trkpt lat="41.6599800" lon="2.0894830">
        <ele>599.5</ele>
        <time>2022-09-26T12:00:45Z</time>
      </trkpt>
      <trkpt lat="41.6598890" lon="2.0894920">
        <ele>599.1</ele>
        <time>2022-09-26T12:00:46Z</time>
      </trkpt>
      <trkpt lat="41.6598000" lon="2.0895160">
        <ele>598.8</ele>
        <time>2022-09-26T12:00:47Z</time>
      </trkpt>
      <trkpt lat="41.6597130" lon="2.0895500">
        <ele>598.6</ele>
        <time>2022-09-26T12:00:48Z</time>
      </trkpt>
      <trkpt lat="41.6596270" lon="2.0895880">
        <ele>598.5</ele>
        <time>2022-09-26T12:00:49Z</time>
      </trkpt>
      <trkpt lat="41.6595410" lon="2.0896260">
        <ele>598.3</ele>
        <time>2022-09-26T12:00:50Z</time>
      </trkpt>
      <trkpt lat="41.6594560" lon="2.0896670">
        <ele>598.2</ele>
        <time>2022-09-26T12:00:51Z</time>
      </trkpt>
      <trkpt lat="41.6593760" lon="2.0897050">
        <ele>598.2</ele>
        <time>2022-09-26T12:00:52Z</time>
      </trkpt>
      <trkpt lat="41.6593000" lon="2.0897370">
        <ele>598.1</ele>
        <time>2022-09-26T12:00:53Z</time>
      </trkpt>
      <trkpt lat="41.6592270" lon="2.0897560">
        <ele>598.2</ele>
        <time>2022-09-26T12:00:54Z</time>
      </trkpt>
      <trkpt lat="41.6591550" lon="2.0897590">
        <ele>598.3</ele>
        <time>2022-09-26T12:00:55Z</time>
      </trkpt>
      <trkpt lat="41.6590880" lon="2.0897530">
        <ele>598.3</ele>
        <time>2022-09-26T12:00:56Z</time>
      </trkpt>
      <trkpt lat="41.6590270" lon="2.0897400">
        <ele>598.3</ele>
        <time>2022-09-26T12:00:57Z</time>
      </trkpt>
      <trkpt lat="41.6589710" lon="2.0897230">
        <ele>598.2</ele>
        <time>2022-09-26T12:00:58Z</time>
      </trkpt>
      <trkpt lat="41.6589160" lon="2.0897000">
        <ele>598.1</ele>
        <time>2022-09-26T12:00:59Z</time>
      </trkpt>
      <trkpt lat="41.6588640" lon="2.0896740">
        <ele>598.0</ele>
        <time>2022-09-26T12:01:00Z</time>
      </trkpt>
      <trkpt lat="41.6588130" lon="2.0896430">
        <ele>597.8</ele>
        <time>2022-09-26T12:01:01Z</time>
      </trkpt>
      <trkpt lat="41.6587630" lon="2.0895980">
        <ele>597.6</ele>
        <time>2022-09-26T12:01:02Z</time>
      </trkpt>
      <trkpt lat="41.6587140" lon="2.0895470">
        <ele>597.3</ele>
        <time>2022-09-26T12:01:03Z</time>
      </trkpt>
      <trkpt lat="41.6586710" lon="2.0894960">
        <ele>597.0</ele>
        <time>2022-09-26T12:01:04Z</time>
      </trkpt>
      <trkpt lat="41.6586240" lon="2.0894550">
        <ele>596.7</ele>
        <time>2022-09-26T12:01:05Z</time>
      </trkpt>
      <trkpt lat="41.6585740" lon="2.0894350">
        <ele>596.3</ele>
        <time>2022-09-26T12:01:06Z</time>
      </trkpt>
      <trkpt lat="41.6585230" lon="2.0894390">
        <ele>596.0</ele>
        <time>2022-09-26T12:01:07Z</time>
      </trkpt>
      <trkpt lat="41.6584740" lon="2.0894650">
        <ele>595.6</ele>
        <time>2022-09-26T12:01:08Z</time>
      </trkpt>
      <trkpt lat="41.6584220" lon="2.0894930">
        <ele>595.3</ele>
        <time>2022-09-26T12:01:09Z</time>
      </trkpt>
      <trkpt lat="41.6583670" lon="2.0895090">
        <ele>595.0</ele>
        <time>2022-09-26T12:01:10Z</time>
      </trkpt>
      <trkpt lat="41.6583040" lon="2.0895020">
        <ele>594.8</ele>
        <time>2022-09-26T12:01:11Z</time>
      </trkpt>
      <trkpt lat="41.6582300" lon="2.0894800">
        <ele>594.5</ele>
        <time>2022-09-26T12:01:12Z</time>
      </trkpt>
      <trkpt lat="41.6581510" lon="2.0894290">
        <ele>594.4</ele>
        <time>2022-09-26T12:01:13Z</time>
      </trkpt>
      <trkpt lat="41.6580730" lon="2.0893740">
        <ele>594.3</ele>
        <time>2022-09-26T12:01:14Z</time>
      </trkpt>
      <trkpt lat="41.6579940" lon="2.0893380">
        <ele>594.2</ele>
        <time>2022-09-26T12:01:15Z</time>
      </trkpt>
      <trkpt lat="41.6579140" lon="2.0893310">
        <ele>594.2</ele>
        <time>2022-09-26T12:01:16Z</time>
      </trkpt>
      <trkpt lat="41.6578440" lon="2.0893450">
        <ele>594.2</ele>
        <time>2022-09-26T12:01:17Z</time>
      </trkpt>
      <trkpt lat="41.6577810" lon="2.0893750">
        <ele>594.2</ele>
        <time>2022-09-26T12:01:18Z</time>
      </trkpt>
      <trkpt lat="41.6577240" lon="2.0894140">
        <ele>594.2</ele>
        <time>2022-09-26T12:01:19Z</time>
      </trkpt>
      <trkpt lat="41.6576690" lon="2.0894550">
        <ele>594.3</ele>
        <time>2022-09-26T12:01:20Z</time>
      </trkpt>
      <trkpt lat="41.6576130" lon="2.0894980">
        <ele>594.3</ele>
        <time>2022-09-26T12:01:21Z</time>
      </trkpt>
      <trkpt lat="41.6575630" lon="2.0895430">
        <ele>594.4</ele>
        <time>2022-09-26T12:01:22Z</time>
      </trkpt>
      <trkpt lat="41.6575140" lon="2.0895750">
        <ele>594.5</ele>
        <time>2022-09-26T12:01:23Z</time>
      </trkpt>
      <trkpt lat="41.6574660" lon="2.0895940">
        <ele>594.5</ele>
        <time>2022-09-26T12:01:24Z</time>
      </trkpt>
      <trkpt lat="41.6574200" lon="2.0895990">
        <ele>594.6</ele>
        <time>2022-09-26T12:01:25Z</time>
      </trkpt>
      <trkpt lat="41.6573820" lon="2.0895980">
        <ele>594.6</ele>
        <time>2022-09-26T12:01:26Z</time>
      </trkpt>
      <trkpt lat="41.6573400" lon="2.0895970">
        <ele>594.6</ele>
        <time>2022-09-26T12:01:27Z</time>
      </trkpt>
      <trkpt lat="41.6573030" lon="2.0895890">
        <ele>594.6</ele>
        <time>2022-09-26T12:01:28Z</time>
      </trkpt>
      <trkpt lat="41.6572690" lon="2.0895770">
        <ele>594.6</ele>
        <time>2022-09-26T12:01:29Z</time>
      </trkpt>
      <trkpt lat="41.6572280" lon="2.0895620">
        <ele>594.6</ele>
        <time>2022-09-26T12:01:30Z</time>
      </trkpt>
      <trkpt lat="41.6571800" lon="2.0895430">
        <ele>594.6</ele>
        <time>2022-09-26T12:01:31Z</time>
      </trkpt>
      <trkpt lat="41.6571350" lon="2.0895210">
        <ele>594.6</ele>
        <time>2022-09-26T12:01:32Z</time>
      </trkpt>
      <trkpt lat="41.6570950" lon="2.0894990">
        <ele>594.6</ele>
        <time>2022-09-26T12:01:33Z</time>
      </trkpt>
      <trkpt lat="41.6570670" lon="2.0894780">
        <ele>594.6</ele>
        <time>2022-09-26T12:01:34Z</time>
      </trkpt>
      <trkpt lat="41.6570300" lon="2.0894510">
        <ele>594.5</ele>
        <time>2022-09-26T12:01:35Z</time>
      </trkpt>
      <trkpt lat="41.6570020" lon="2.0894280">
        <ele>594.5</ele>
        <time>2022-09-26T12:01:36Z</time>
      </trkpt>
      <trkpt lat="41.6569560" lon="2.0893950">
        <ele>594.4</ele>
        <time>2022-09-26T12:01:37Z</time>
      </trkpt>
      <trkpt lat="41.6569240" lon="2.0893730">
        <ele>594.4</ele>
        <time>2022-09-26T12:01:38Z</time>
      </trkpt>
      <trkpt lat="41.6568630" lon="2.0893230">
        <ele>594.2</ele>
        <time>2022-09-26T12:01:39Z</time>
      </trkpt>
      <trkpt lat="41.6568190" lon="2.0892710">
        <ele>594.0</ele>
        <time>2022-09-26T12:01:40Z</time>
      </trkpt>
      <trkpt lat="41.6567710" lon="2.0891990">
        <ele>593.6</ele>
        <time>2022-09-26T12:01:41Z</time>
      </trkpt>
      <trkpt lat="41.6567290" lon="2.0891250">
        <ele>593.3</ele>
        <time>2022-09-26T12:01:42Z</time>
      </trkpt>
      <trkpt lat="41.6566950" lon="2.0890540">
        <ele>593.1</ele>
        <time>2022-09-26T12:01:43Z</time>
      </trkpt>
      <trkpt lat="41.6566620" lon="2.0889820">
        <ele>592.9</ele>
        <time>2022-09-26T12:01:44Z</time>
      </trkpt>
      <trkpt lat="41.6566280" lon="2.0889050">
        <ele>592.7</ele>
        <time>2022-09-26T12:01:45Z</time>
      </trkpt>
      <trkpt lat="41.6565940" lon="2.0888260">
        <ele>592.5</ele>
        <time>2022-09-26T12:01:46Z</time>
      </trkpt>
      <trkpt lat="41.6565620" lon="2.0887510">
        <ele>592.4</ele>
        <time>2022-09-26T12:01:47Z</time>
      </trkpt>
      <trkpt lat="41.6565260" lon="2.0886810">
        <ele>592.3</ele>
        <time>2022-09-26T12:01:48Z</time>
      </trkpt>
      <trkpt lat="41.6564910" lon="2.0886130">
        <ele>592.2</ele>
        <time>2022-09-26T12:01:49Z</time>
      </trkpt>
      <trkpt lat="41.6564550" lon="2.0885450">
        <ele>592.1</ele>
        <time>2022-09-26T12:01:50Z</time>
      </trkpt>
      <trkpt lat="41.6564170" lon="2.0884780">
        <ele>592.1</ele>
        <time>2022-09-26T12:01:51Z</time>
      </trkpt>
      <trkpt lat="41.6563790" lon="2.0884150">
        <ele>592.0</ele>
        <time>2022-09-26T12:01:52Z</time>
      </trkpt>
      <trkpt lat="41.6563410" lon="2.0883590">
        <ele>592.0</ele>
        <time>2022-09-26T12:01:53Z</time>
      </trkpt>
      <trkpt lat="41.6563010" lon="2.0883050">
        <ele>591.9</ele>
        <time>2022-09-26T12:01:54Z</time>
      </trkpt>
      <trkpt lat="41.6562640" lon="2.0882530">
        <ele>591.9</ele>
        <time>2022-09-26T12:01:55Z</time>
      </trkpt>
      <trkpt lat="41.6562280" lon="2.0882030">
        <ele>592.0</ele>
        <time>2022-09-26T12:01:56Z</time>
      </trkpt>
      <trkpt lat="41.6561920" lon="2.0881530">
        <ele>592.0</ele>
        <time>2022-09-26T12:01:57Z</time>
      </trkpt>
      <trkpt lat="41.6561560" lon="2.0881010">
        <ele>592.1</ele>
        <time>2022-09-26T12:01:58Z</time>
      </trkpt>
      <trkpt lat="41.6561190" lon="2.0880440">
        <ele>592.2</ele>
        <time>2022-09-26T12:01:59Z</time>
      </trkpt>
      <trkpt lat="41.6560850" lon="2.0879840">
        <ele>592.3</ele>
        <time>2022-09-26T12:02:00Z</time>
      </trkpt>
      <trkpt lat="41.6560580" lon="2.0879250">
        <ele>592.4</ele>
        <time>2022-09-26T12:02:01Z</time>
      </trkpt>
      <trkpt lat="41.6560380" lon="2.0878630">
        <ele>592.5</ele>
        <time>2022-09-26T12:02:02Z</time>
      </trkpt>
      <trkpt lat="41.6560390" lon="2.0877970">
        <ele>592.7</ele>
        <time>2022-09-26T12:02:03Z</time>
      </trkpt>
      <trkpt lat="41.6560390" lon="2.0877360">
        <ele>592.9</ele>
        <time>2022-09-26T12:02:04Z</time>
      </trkpt>
      <trkpt lat="41.6560390" lon="2.0876770">
        <ele>593.1</ele>
        <time>2022-09-26T12:02:05Z</time>
      </trkpt>
      <trkpt lat="41.6560360" lon="2.0876520">
        <ele>593.2</ele>
        <time>2022-09-26T12:02:06Z</time>
      </trkpt>
      <trkpt lat="41.6560220" lon="2.0876010">
        <ele>593.4</ele>
        <time>2022-09-26T12:02:07Z</time>
      </trkpt>
      <trkpt lat="41.6559970" lon="2.0875760">
        <ele>593.5</ele>
        <time>2022-09-26T12:02:08Z</time>
      </trkpt>
      <trkpt lat="41.6559600" lon="2.0875500">
        <ele>593.7</ele>
        <time>2022-09-26T12:02:09Z</time>
      </trkpt>
      <trkpt lat="41.6559220" lon="2.0875320">
        <ele>593.9</ele>
        <time>2022-09-26T12:02:10Z</time>
      </trkpt>
      <trkpt lat="41.6558790" lon="2.0875120">
        <ele>594.2</ele>
        <time>2022-09-26T12:02:11Z</time>
      </trkpt>
      <trkpt lat="41.6558470" lon="2.0875000">
        <ele>594.4</ele>
        <time>2022-09-26T12:02:12Z</time>
      </trkpt>
      <trkpt lat="41.6558150" lon="2.0874870">
        <ele>594.6</ele>
        <time>2022-09-26T12:02:13Z</time>
      </trkpt>
      <trkpt lat="41.6557780" lon="2.0874720">
        <ele>594.8</ele>
        <time>2022-09-26T12:02:14Z</time>
      </trkpt>
      <trkpt lat="41.6557440" lon="2.0874590">
        <ele>595.1</ele>
        <time>2022-09-26T12:02:15Z</time>
      </trkpt>
      <trkpt lat="41.6557140" lon="2.0874500">
        <ele>595.3</ele>
        <time>2022-09-26T12:02:16Z</time>
      </trkpt>
      <trkpt lat="41.6556790" lon="2.0874390">
        <ele>595.5</ele>
        <time>2022-09-26T12:02:17Z</time>
      </trkpt>
      <trkpt lat="41.6556690" lon="2.0874360">
        <ele>595.6</ele>
        <time>2022-09-26T12:02:18Z</time>
      </trkpt>
      <trkpt lat="41.6556360" lon="2.0874230">
        <ele>595.8</ele>
        <time>2022-09-26T12:02:19Z</time>
      </trkpt>
      <trkpt lat="41.6556100" lon="2.0874130">
        <ele>596.0</ele>
        <time>2022-09-26T12:02:20Z</time>
      </trkpt>
      <trkpt lat="41.6555810" lon="2.0874010">
        <ele>596.2</ele>
        <time>2022-09-26T12:02:21Z</time>
      </trkpt>
      <trkpt lat="41.6555530" lon="2.0873890">
        <ele>596.4</ele>
        <time>2022-09-26T12:02:22Z</time>
      </trkpt>
      <trkpt lat="41.6555230" lon="2.0873730">
        <ele>596.6</ele>
        <time>2022-09-26T12:02:23Z</time>
      </trkpt>
      <trkpt lat="41.6554870" lon="2.0873540">
        <ele>596.8</ele>
        <time>2022-09-26T12:02:24Z</time>
      </trkpt>
      <trkpt lat="41.6554730" lon="2.0873470">
        <ele>596.9</ele>
        <time>2022-09-26T12:02:25Z</time>
      </trkpt>
      <trkpt lat="41.6554470" lon="2.0873380">
        <ele>597.0</ele>
        <time>2022-09-26T12:02:26Z</time>
      </trkpt>
      <trkpt lat="41.6554120" lon="2.0873260">
        <ele>597.3</ele>
        <time>2022-09-26T12:02:27Z</time>
      </trkpt>
      <trkpt lat="41.6554020" lon="2.0873220">
        <ele>597.3</ele>
        <time>2022-09-26T12:02:28Z</time>
      </trkpt>
      <trkpt lat="41.6553610" lon="2.0873110">
        <ele>597.6</ele>
        <time>2022-09-26T12:02:29Z</time>
      </trkpt>
      <trkpt lat="41.6553450" lon="2.0873070">
        <ele>597.6</ele>
        <time>2022-09-26T12:02:30Z</time>
      </trkpt>
      <trkpt lat="41.6553060" lon="2.0873010">
        <ele>597.8</ele>
        <time>2022-09-26T12:02:31Z</time>
      </trkpt>
      <trkpt lat="41.6552890" lon="2.0873000">
        <ele>597.9</ele>
        <time>2022-09-26T12:02:32Z</time>
      </trkpt>
      <trkpt lat="41.6552490" lon="2.0872970">
        <ele>598.1</ele>
        <time>2022-09-26T12:02:33Z</time>
      </trkpt>
      <trkpt lat="41.6552340" lon="2.0872960">
        <ele>598.2</ele>
        <time>2022-09-26T12:02:34Z</time>
      </trkpt>
      <trkpt lat="41.6552050" lon="2.0872940">
        <ele>598.3</ele>
        <time>2022-09-26T12:02:35Z</time>
      </trkpt>
      <trkpt lat="41.6551730" lon="2.0872920">
        <ele>598.5</ele>
        <time>2022-09-26T12:02:36Z</time>
      </trkpt>
      <trkpt lat="41.6551390" lon="2.0872930">
        <ele>598.6</ele>
        <time>2022-09-26T12:02:37Z</time>
      </trkpt>
      <trkpt lat="41.6551250" lon="2.0872930">
        <ele>598.7</ele>
        <time>2022-09-26T12:02:38Z</time>
      </trkpt>
      <trkpt lat="41.6550850" lon="2.0872960">
        <ele>598.8</ele>
        <time>2022-09-26T12:02:39Z</time>
      </trkpt>
      <trkpt lat="41.6550690" lon="2.0872970">
        <ele>598.9</ele>
        <time>2022-09-26T12:02:40Z</time>
      </trkpt>
      <trkpt lat="41.6550390" lon="2.0872980">
        <ele>599.0</ele>
        <time>2022-09-26T12:02:41Z</time>
      </trkpt>
      <trkpt lat="41.6550080" lon="2.0873020">
        <ele>599.2</ele>
        <time>2022-09-26T12:02:42Z</time>
      </trkpt>
      <trkpt lat="41.6549780" lon="2.0873060">
        <ele>599.3</ele>
        <time>2022-09-26T12:02:43Z</time>
      </trkpt>
      <trkpt lat="41.6549500" lon="2.0873090">
        <ele>599.4</ele>
        <time>2022-09-26T12:02:44Z</time>
      </trkpt>
      <trkpt lat="41.6549160" lon="2.0873130">
        <ele>599.5</ele>
        <time>2022-09-26T12:02:45Z</time>
      </trkpt>
      <trkpt lat="41.6548820" lon="2.0873170">
        <ele>599.6</ele>
        <time>2022-09-26T12:02:46Z</time>
      </trkpt>
      <trkpt lat="41.6548510" lon="2.0873190">
        <ele>599.8</ele>
        <time>2022-09-26T12:02:47Z</time>
      </trkpt>
      <trkpt lat="41.6548150" lon="2.0873210">
        <ele>599.9</ele>
        <time>2022-09-26T12:02:48Z</time>
      </trkpt>
      <trkpt lat="41.6548000" lon="2.0873230">
        <ele>600.0</ele>
        <time>2022-09-26T12:02:49Z</time>
      </trkpt>
      <trkpt lat="41.6547720" lon="2.0873270">
        <ele>600.1</ele>
        <time>2022-09-26T12:02:50Z</time>
      </trkpt>
      <trkpt lat="41.6547360" lon="2.0873310">
        <ele>600.2</ele>
        <time>2022-09-26T12:02:51Z</time>
      </trkpt>
      <trkpt lat="41.6547090" lon="2.0873330">
        <ele>600.3</ele>
        <time>2022-09-26T12:02:52Z</time>
      </trkpt>
      <trkpt lat="41.6546720" lon="2.0873340">
        <ele>600.5</ele>
        <time>2022-09-26T12:02:53Z</time>
      </trkpt>
      <trkpt lat="41.6546420" lon="2.0873340">
        <ele>600.7</ele>
        <time>2022-09-26T12:02:54Z</time>
      </trkpt>
      <trkpt lat="41.6546060" lon="2.0873340">
        <ele>600.9</ele>
        <time>2022-09-26T12:02:55Z</time>
      </trkpt>
      <trkpt lat="41.6545780" lon="2.0873330">
        <ele>601.0</ele>
        <time>2022-09-26T12:02:56Z</time>
      </trkpt>
      <trkpt lat="41.6545420" lon="2.0873290">
        <ele>601.3</ele>
        <time>2022-09-26T12:02:57Z</time>
      </trkpt>
      <trkpt lat="41.6545300" lon="2.0873270">
        <ele>601.4</ele>
        <time>2022-09-26T12:02:58Z</time>
      </trkpt>
      <trkpt lat="41.6544930" lon="2.0873190">
        <ele>601.7</ele>
        <time>2022-09-26T12:02:59Z</time>
      </trkpt>
      <trkpt lat="41.6544790" lon="2.0873150">
        <ele>601.8</ele>
        <time>2022-09-26T12:03:00Z</time>
      </trkpt>
      <trkpt lat="41.6544480" lon="2.0873060">
        <ele>602.0</ele>
        <time>2022-09-26T12:03:01Z</time>
      </trkpt>
      <trkpt lat="41.6544380" lon="2.0873020">
        <ele>602.1</ele>
        <time>2022-09-26T12:03:02Z</time>
      </trkpt>
      <trkpt lat="41.6544080" lon="2.0872920">
        <ele>602.4</ele>
        <time>2022-09-26T12:03:03Z</time>
      </trkpt>
      <trkpt lat="41.6543980" lon="2.0872880">
        <ele>602.5</ele>
        <time>2022-09-26T12:03:04Z</time>
      </trkpt>
      <trkpt lat="41.6543660" lon="2.0872760">
        <ele>602.7</ele>
        <time>2022-09-26T12:03:05Z</time>
      </trkpt>
      <trkpt lat="41.6543550" lon="2.0872710">
        <ele>602.8</ele>
        <time>2022-09-26T12:03:06Z</time>
      </trkpt>
      <trkpt lat="41.6543270" lon="2.0872580">
        <ele>603.1</ele>
        <time>2022-09-26T12:03:07Z</time>
      </trkpt>
      <trkpt lat="41.6543150" lon="2.0872510">
        <ele>603.2</ele>
        <time>2022-09-26T12:03:08Z</time>
      </trkpt>
      <trkpt lat="41.6542880" lon="2.0872330">
        <ele>603.4</ele>
        <time>2022-09-26T12:03:09Z</time>
      </trkpt>
      <trkpt lat="41.6542780" lon="2.0872260">
        <ele>603.5</ele>
        <time>2022-09-26T12:03:10Z</time>
      </trkpt>
      <trkpt lat="41.6542500" lon="2.0872040">
        <ele>603.7</ele>
        <time>2022-09-26T12:03:11Z</time>
      </trkpt>
      <trkpt lat="41.6542410" lon="2.0871970">
        <ele>603.8</ele>
        <time>2022-09-26T12:03:12Z</time>
      </trkpt>
      <trkpt lat="41.6542260" lon="2.0871840">
        <ele>603.9</ele>
        <time>2022-09-26T12:03:13Z</time>
      </trkpt>
      <trkpt lat="41.6542120" lon="2.0871710">
        <ele>604.0</ele>
        <time>2022-09-26T12:03:14Z</time>
      </trkpt>
      <trkpt lat="41.6541890" lon="2.0871460">
        <ele>604.2</ele>
        <time>2022-09-26T12:03:15Z</time>
      </trkpt>
      <trkpt lat="41.6541810" lon="2.0871380">
        <ele>604.3</ele>
        <time>2022-09-26T12:03:16Z</time>
      </trkpt>
      <trkpt lat="41.6541600" lon="2.0871100">
        <ele>604.5</ele>
        <time>2022-09-26T12:03:17Z</time>
      </trkpt>
      <trkpt lat="41.6541540" lon="2.0871010">
        <ele>604.5</ele>
        <time>2022-09-26T12:03:18Z</time>
      </trkpt>
      <trkpt lat="41.6541320" lon="2.0870690">
        <ele>604.7</ele>
        <time>2022-09-26T12:03:19Z</time>
      </trkpt>
      <trkpt lat="41.6541240" lon="2.0870580">
        <ele>604.8</ele>
        <time>2022-09-26T12:03:20Z</time>
      </trkpt>
      <trkpt lat="41.6541020" lon="2.0870290">
        <ele>605.0</ele>
        <time>2022-09-26T12:03:21Z</time>
      </trkpt>
      <trkpt lat="41.6540940" lon="2.0870190">
        <ele>605.0</ele>
        <time>2022-09-26T12:03:22Z</time>
      </trkpt>
      <trkpt lat="41.6540650" lon="2.0869870">
        <ele>605.3</ele>
        <time>2022-09-26T12:03:23Z</time>
      </trkpt>
      <trkpt lat="41.6540540" lon="2.0869750">
        <ele>605.3</ele>
        <time>2022-09-26T12:03:24Z</time>
      </trkpt>
      <trkpt lat="41.6540320" lon="2.0869510">
        <ele>605.5</ele>
        <time>2022-09-26T12:03:25Z</time>
      </trkpt>
      <trkpt lat="41.6540230" lon="2.0869430">
        <ele>605.6</ele>
        <time>2022-09-26T12:03:26Z</time>
      </trkpt>
      <trkpt lat="41.6539950" lon="2.0869180">
        <ele>605.8</ele>
        <time>2022-09-26T12:03:27Z</time>
      </trkpt>
      <trkpt lat="41.6539840" lon="2.0869080">
        <ele>605.8</ele>
        <time>2022-09-26T12:03:28Z</time>
      </trkpt>
      <trkpt lat="41.6539610" lon="2.0868870">
        <ele>606.0</ele>
        <time>2022-09-26T12:03:29Z</time>
      </trkpt>
      <trkpt lat="41.6539300" lon="2.0868570">
        <ele>606.2</ele>
        <time>2022-09-26T12:03:30Z</time>
      </trkpt>
      <trkpt lat="41.6539190" lon="2.0868470">
        <ele>606.3</ele>
        <time>2022-09-26T12:03:31Z</time>
      </trkpt>
      <trkpt lat="41.6538880" lon="2.0868210">
        <ele>606.5</ele>
        <time>2022-09-26T12:03:32Z</time>
      </trkpt>
      <trkpt lat="41.6538770" lon="2.0868110">
        <ele>606.5</ele>
        <time>2022-09-26T12:03:33Z</time>
      </trkpt>
      <trkpt lat="41.6538530" lon="2.0867900">
        <ele>606.6</ele>
        <time>2022-09-26T12:03:34Z</time>
      </trkpt>
      <trkpt lat="41.6538310" lon="2.0867680">
        <ele>606.7</ele>
        <time>2022-09-26T12:03:35Z</time>
      </trkpt>
      <trkpt lat="41.6538050" lon="2.0867370">
        <ele>606.9</ele>
        <time>2022-09-26T12:03:36Z</time>
      </trkpt>
      <trkpt lat="41.6537940" lon="2.0867260">
        <ele>606.9</ele>
        <time>2022-09-26T12:03:37Z</time>
      </trkpt>
      <trkpt lat="41.6537630" lon="2.0866950">
        <ele>607.0</ele>
        <time>2022-09-26T12:03:38Z</time>
      </trkpt>
      <trkpt lat="41.6537510" lon="2.0866830">
        <ele>607.1</ele>
        <time>2022-09-26T12:03:39Z</time>
      </trkpt>
      <trkpt lat="41.6537200" lon="2.0866540">
        <ele>607.2</ele>
        <time>2022-09-26T12:03:40Z</time>
      </trkpt>
      <trkpt lat="41.6536950" lon="2.0866280">
        <ele>607.2</ele>
        <time>2022-09-26T12:03:41Z</time>
      </trkpt>
      <trkpt lat="41.6536710" lon="2.0866090">
        <ele>607.3</ele>
        <time>2022-09-26T12:03:42Z</time>
      </trkpt>
      <trkpt lat="41.6536410" lon="2.0865840">
        <ele>607.4</ele>
        <time>2022-09-26T12:03:43Z</time>
      </trkpt>
      <trkpt lat="41.6536280" lon="2.0865730">
        <ele>607.4</ele>
        <time>2022-09-26T12:03:44Z</time>
      </trkpt>
      <trkpt lat="41.6536010" lon="2.0865470">
        <ele>607.4</ele>
        <time>2022-09-26T12:03:45Z</time>
      </trkpt>
      <trkpt lat="41.6535740" lon="2.0865220">
        <ele>607.5</ele>
        <time>2022-09-26T12:03:46Z</time>
      </trkpt>
      <trkpt lat="41.6535460" lon="2.0864950">
        <ele>607.5</ele>
        <time>2022-09-26T12:03:47Z</time>
      </trkpt>
      <trkpt lat="41.6535210" lon="2.0864700">
        <ele>607.5</ele>
        <time>2022-09-26T12:03:48Z</time>
      </trkpt>
      <trkpt lat="41.6534890" lon="2.0864400">
        <ele>607.5</ele>
        <time>2022-09-26T12:03:49Z</time>
      </trkpt>
      <trkpt lat="41.6534610" lon="2.0864160">
        <ele>607.6</ele>
        <time>2022-09-26T12:03:50Z</time>
      </trkpt>
      <trkpt lat="41.6534370" lon="2.0863980">
        <ele>607.6</ele>
        <time>2022-09-26T12:03:51Z</time>
      </trkpt>
      <trkpt lat="41.6533960" lon="2.0863700">
        <ele>607.6</ele>
        <time>2022-09-26T12:03:52Z</time>
      </trkpt>
      <trkpt lat="41.6533610" lon="2.0863510">
        <ele>607.6</ele>
        <time>2022-09-26T12:03:53Z</time>
      </trkpt>
      <trkpt lat="41.6533280" lon="2.0863390">
        <ele>607.6</ele>
        <time>2022-09-26T12:03:54Z</time>
      </trkpt>
      <trkpt lat="41.6532950" lon="2.0863320">
        <ele>607.6</ele>
        <time>2022-09-26T12:03:55Z</time>
      </trkpt>
      <trkpt lat="41.6532650" lon="2.0863280">
        <ele>607.6</ele>
        <time>2022-09-26T12:03:56Z</time>
      </trkpt>
      <trkpt lat="41.6532280" lon="2.0863240">
        <ele>607.7</ele>
        <time>2022-09-26T12:03:57Z</time>
      </trkpt>
      <trkpt lat="41.6531920" lon="2.0863240">
        <ele>607.7</ele>
        <time>2022-09-26T12:03:58Z</time>
      </trkpt>
      <trkpt lat="41.6531630" lon="2.0863270">
        <ele>607.7</ele>
        <time>2022-09-26T12:03:59Z</time>
      </trkpt>
      <trkpt lat="41.6531350" lon="2.0863330">
        <ele>607.7</ele>
        <time>2022-09-26T12:04:00Z</time>
      </trkpt>
      <trkpt lat="41.6531010" lon="2.0863460">
        <ele>607.7</ele>
        <time>2022-09-26T12:04:01Z</time>
      </trkpt>
      <trkpt lat="41.6530590" lon="2.0863640">
        <ele>607.7</ele>
        <time>2022-09-26T12:04:02Z</time>
      </trkpt>
      <trkpt lat="41.6530340" lon="2.0863800">
        <ele>607.7</ele>
        <time>2022-09-26T12:04:03Z</time>
      </trkpt>
      <trkpt lat="41.6530080" lon="2.0863990">
        <ele>607.7</ele>
        <time>2022-09-26T12:04:04Z</time>
      </trkpt>
      <trkpt lat="41.6529750" lon="2.0864190">
        <ele>607.7</ele>
        <time>2022-09-26T12:04:05Z</time>
      </trkpt>
      <trkpt lat="41.6529350" lon="2.0864460">
        <ele>607.8</ele>
        <time>2022-09-26T12:04:06Z</time>
      </trkpt>
      <trkpt lat="41.6529000" lon="2.0864700">
        <ele>607.8</ele>
        <time>2022-09-26T12:04:07Z</time>
      </trkpt>
      <trkpt lat="41.6528750" lon="2.0864890">
        <ele>607.8</ele>
        <time>2022-09-26T12:04:08Z</time>
      </trkpt>
      <trkpt lat="41.6528440" lon="2.0865110">
        <ele>607.8</ele>
        <time>2022-09-26T12:04:09Z</time>
      </trkpt>
      <trkpt lat="41.6528200" lon="2.0865280">
        <ele>607.8</ele>
        <time>2022-09-26T12:04:10Z</time>
      </trkpt>
      <trkpt lat="41.6527850" lon="2.0865560">
        <ele>607.7</ele>
        <time>2022-09-26T12:04:11Z</time>
      </trkpt>
      <trkpt lat="41.6527610" lon="2.0865790">
        <ele>607.7</ele>
        <time>2022-09-26T12:04:12Z</time>
      </trkpt>
      <trkpt lat="41.6527290" lon="2.0866090">
        <ele>607.7</ele>
        <time>2022-09-26T12:04:13Z</time>
      </trkpt>
      <trkpt lat="41.6527010" lon="2.0866350">
        <ele>607.7</ele>
        <time>2022-09-26T12:04:14Z</time>
      </trkpt>
      <trkpt lat="41.6526430" lon="2.0866750">
        <ele>607.6</ele>
        <time>2022-09-26T12:04:15Z</time>
      </trkpt>
      <trkpt lat="41.6525940" lon="2.0867170">
        <ele>607.4</ele>
        <time>2022-09-26T12:04:16Z</time>
      </trkpt>
      <trkpt lat="41.6525460" lon="2.0867540">
        <ele>607.3</ele>
        <time>2022-09-26T12:04:17Z</time>
      </trkpt>
      <trkpt lat="41.6524980" lon="2.0867830">
        <ele>607.1</ele>
        <time>2022-09-26T12:04:18Z</time>
      </trkpt>
      <trkpt lat="41.6524500" lon="2.0868050">
        <ele>607.0</ele>
        <time>2022-09-26T12:04:19Z</time>
      </trkpt>
      <trkpt lat="41.6524060" lon="2.0868310">
        <ele>606.8</ele>
        <time>2022-09-26T12:04:20Z</time>
      </trkpt>
      <trkpt lat="41.6523580" lon="2.0868620">
        <ele>606.6</ele>
        <time>2022-09-26T12:04:21Z</time>
      </trkpt>
      <trkpt lat="41.6523170" lon="2.0868870">
        <ele>606.4</ele>
        <time>2022-09-26T12:04:22Z</time>
      </trkpt>
      <trkpt lat="41.6522870" lon="2.0869100">
        <ele>606.2</ele>
        <time>2022-09-26T12:04:23Z</time>
      </trkpt>
      <trkpt lat="41.6522320" lon="2.0869480">
        <ele>605.9</ele>
        <time>2022-09-26T12:04:24Z</time>
      </trkpt>
      <trkpt lat="41.6521800" lon="2.0869800">
        <ele>605.6</ele>
        <time>2022-09-26T12:04:25Z</time>
      </trkpt>
      <trkpt lat="41.6521280" lon="2.0870150">
        <ele>605.3</ele>
        <time>2022-09-26T12:04:26Z</time>
      </trkpt>
      <trkpt lat="41.6520750" lon="2.0870460">
        <ele>605.1</ele>
        <time>2022-09-26T12:04:27Z</time>
      </trkpt>
      <trkpt lat="41.6520230" lon="2.0870850">
        <ele>604.8</ele>
        <time>2022-09-26T12:04:28Z</time>
      </trkpt>
      <trkpt lat="41.6519710" lon="2.0871250">
        <ele>604.5</ele>
        <time>2022-09-26T12:04:29Z</time>
      </trkpt>
      <trkpt lat="41.6519220" lon="2.0871680">
        <ele>604.3</ele>
        <time>2022-09-26T12:04:30Z</time>
      </trkpt>
      <trkpt lat="41.6518690" lon="2.0872140">
        <ele>604.1</ele>
        <time>2022-09-26T12:04:31Z</time>
      </trkpt>
      <trkpt lat="41.6518210" lon="2.0872660">
        <ele>604.0</ele>
        <time>2022-09-26T12:04:32Z</time>
      </trkpt>
      <trkpt lat="41.6517750" lon="2.0873230">
        <ele>603.9</ele>
        <time>2022-09-26T12:04:33Z</time>
      </trkpt>
      <trkpt lat="41.6517350" lon="2.0873850">
        <ele>603.9</ele>
        <time>2022-09-26T12:04:34Z</time>
      </trkpt>
      <trkpt lat="41.6516940" lon="2.0874470">
        <ele>604.0</ele>
        <time>2022-09-26T12:04:35Z</time>
      </trkpt>
      <trkpt lat="41.6516540" lon="2.0875020">
        <ele>604.0</ele>
        <time>2022-09-26T12:04:36Z</time>
      </trkpt>
      <trkpt lat="41.6516230" lon="2.0875480">
        <ele>604.1</ele>
        <time>2022-09-26T12:04:37Z</time>
      </trkpt>
      <trkpt lat="41.6515970" lon="2.0875920">
        <ele>604.2</ele>
        <time>2022-09-26T12:04:38Z</time>
      </trkpt>
      <trkpt lat="41.6515820" lon="2.0876150">
        <ele>604.2</ele>
        <time>2022-09-26T12:04:39Z</time>
      </trkpt>
      <trkpt lat="41.6515640" lon="2.0876560">
        <ele>604.3</ele>
        <time>2022-09-26T12:04:40Z</time>
      </trkpt>
      <trkpt lat="41.6515510" lon="2.0876910">
        <ele>604.3</ele>
        <time>2022-09-26T12:04:41Z</time>
      </trkpt>
      <trkpt lat="41.6515370" lon="2.0877340">
        <ele>604.4</ele>
        <time>2022-09-26T12:04:42Z</time>
      </trkpt>
      <trkpt lat="41.6515350" lon="2.0877660">
        <ele>604.4</ele>
        <time>2022-09-26T12:04:43Z</time>
      </trkpt>
      <trkpt lat="41.6515370" lon="2.0878160">
        <ele>604.4</ele>
        <time>2022-09-26T12:04:45Z</time>
      </trkpt>
      <trkpt lat="41.6515000" lon="2.0879170">
        <ele>604.5</ele>
        <time>2022-09-26T12:04:46Z</time>
      </trkpt>
      <trkpt lat="41.6514830" lon="2.0879910">
        <ele>604.5</ele>
        <time>2022-09-26T12:04:47Z</time>
      </trkpt>
      <trkpt lat="41.6514690" lon="2.0880400">
        <ele>604.5</ele>
        <time>2022-09-26T12:04:48Z</time>
      </trkpt>
      <trkpt lat="41.6514640" lon="2.0880890">
        <ele>604.5</ele>
        <time>2022-09-26T12:04:49Z</time>
      </trkpt>
      <trkpt lat="41.6514580" lon="2.0881480">
        <ele>604.5</ele>
        <time>2022-09-26T12:04:50Z</time>
      </trkpt>
      <trkpt lat="41.6514490" lon="2.0882360">
        <ele>604.5</ele>
        <time>2022-09-26T12:04:52Z</time>
      </trkpt>
      <trkpt lat="41.6514510" lon="2.0883110">
        <ele>604.5</ele>
        <time>2022-09-26T12:04:53Z</time>
      </trkpt>
      <trkpt lat="41.6514640" lon="2.0883690">
        <ele>604.6</ele>
        <time>2022-09-26T12:04:54Z</time>
      </trkpt>
      <trkpt lat="41.6514860" lon="2.0884340">
        <ele>604.6</ele>
        <time>2022-09-26T12:04:56Z</time>
      </trkpt>
      <trkpt lat="41.6515060" lon="2.0884900">
        <ele>604.6</ele>
        <time>2022-09-26T12:04:57Z</time>
      </trkpt>
      <trkpt lat="41.6515210" lon="2.0885740">
        <ele>604.7</ele>
        <time>2022-09-26T12:04:58Z</time>
      </trkpt>
      <trkpt lat="41.6515200" lon="2.0886330">
        <ele>604.7</ele>
        <time>2022-09-26T12:04:59Z</time>
      </trkpt>
      <trkpt lat="41.6515130" lon="2.0887040">
        <ele>604.8</ele>
        <time>2022-09-26T12:05:01Z</time>
      </trkpt>
      <trkpt lat="41.6514950" lon="2.0887770">
        <ele>604.9</ele>
        <time>2022-09-26T12:05:02Z</time>
      </trkpt>
      <trkpt lat="41.6514600" lon="2.0888510">
        <ele>605.2</ele>
        <time>2022-09-26T12:05:03Z</time>
      </trkpt>
      <trkpt lat="41.6514490" lon="2.0888570">
        <ele>605.2</ele>
        <time>2022-09-26T12:05:04Z</time>
      </trkpt>
      <trkpt lat="41.6514540" lon="2.0888500">
        <ele>605.3</ele>
        <time>2022-09-26T12:05:05Z</time>
      </trkpt>
      <trkpt lat="41.6514300" lon="2.0888580">
        <ele>605.4</ele>
        <time>2022-09-26T12:05:07Z</time>
      </trkpt>
      <trkpt lat="41.6513970" lon="2.0888700">
        <ele>605.6</ele>
        <time>2022-09-26T12:05:08Z</time>
      </trkpt>
      <trkpt lat="41.6513500" lon="2.0888960">
        <ele>605.8</ele>
        <time>2022-09-26T12:05:09Z</time>
      </trkpt>
      <trkpt lat="41.6513120" lon="2.0889150">
        <ele>606.1</ele>
        <time>2022-09-26T12:05:10Z</time>
      </trkpt>
      <trkpt lat="41.6512980" lon="2.0889210">
        <ele>606.2</ele>
        <time>2022-09-26T12:05:11Z</time>
      </trkpt>
      <trkpt lat="41.6512630" lon="2.0889360">
        <ele>606.4</ele>
        <time>2022-09-26T12:05:12Z</time>
      </trkpt>
      <trkpt lat="41.6512200" lon="2.0889540">
        <ele>606.6</ele>
        <time>2022-09-26T12:05:14Z</time>
      </trkpt>
      <trkpt lat="41.6511850" lon="2.0889680">
        <ele>606.8</ele>
        <time>2022-09-26T12:05:15Z</time>
      </trkpt>
      <trkpt lat="41.6511700" lon="2.0889730">
        <ele>606.9</ele>
        <time>2022-09-26T12:05:16Z</time>
      </trkpt>
      <trkpt lat="41.6511400" lon="2.0889790">
        <ele>607.1</ele>
        <time>2022-09-26T12:05:17Z</time>
      </trkpt>
      <trkpt lat="41.6511090" lon="2.0889770">
        <ele>607.3</ele>
        <time>2022-09-26T12:05:18Z</time>
      </trkpt>
      <trkpt lat="41.6510970" lon="2.0889780">
        <ele>607.4</ele>
        <time>2022-09-26T12:05:19Z</time>
      </trkpt>
      <trkpt lat="41.6510660" lon="2.0889880">
        <ele>607.5</ele>
        <time>2022-09-26T12:05:20Z</time>
      </trkpt>
      <trkpt lat="41.6510270" lon="2.0889960">
        <ele>607.8</ele>
        <time>2022-09-26T12:05:22Z</time>
      </trkpt>
      <trkpt lat="41.6509980" lon="2.0889980">
        <ele>607.9</ele>
        <time>2022-09-26T12:05:23Z</time>
      </trkpt>
      <trkpt lat="41.6509620" lon="2.0890060">
        <ele>608.1</ele>
        <time>2022-09-26T12:05:24Z</time>
      </trkpt>
      <trkpt lat="41.6509350" lon="2.0890210">
        <ele>608.3</ele>
        <time>2022-09-26T12:05:25Z</time>
      </trkpt>
      <trkpt lat="41.6508960" lon="2.0890470">
        <ele>608.5</ele>
        <time>2022-09-26T12:05:26Z</time>
      </trkpt>
      <trkpt lat="41.6508790" lon="2.0890580">
        <ele>608.6</ele>
        <time>2022-09-26T12:05:27Z</time>
      </trkpt>
      <trkpt lat="41.6508290" lon="2.0890900">
        <ele>608.9</ele>
        <time>2022-09-26T12:05:29Z</time>
      </trkpt>
      <trkpt lat="41.6507890" lon="2.0891100">
        <ele>609.1</ele>
        <time>2022-09-26T12:05:30Z</time>
      </trkpt>
      <trkpt lat="41.6507410" lon="2.0891310">
        <ele>609.3</ele>
        <time>2022-09-26T12:05:32Z</time>
      </trkpt>
      <trkpt lat="41.6507060" lon="2.0891450">
        <ele>609.5</ele>
        <time>2022-09-26T12:05:33Z</time>
      </trkpt>
      <trkpt lat="41.6506710" lon="2.0891570">
        <ele>609.7</ele>
        <time>2022-09-26T12:05:34Z</time>
      </trkpt>
      <trkpt lat="41.6506320" lon="2.0891670">
        <ele>609.9</ele>
        <time>2022-09-26T12:05:35Z</time>
      </trkpt>
      <trkpt lat="41.6506180" lon="2.0891700">
        <ele>609.9</ele>
        <time>2022-09-26T12:05:36Z</time>
      </trkpt>
      <trkpt lat="41.6505840" lon="2.0891680">
        <ele>610.1</ele>
        <time>2022-09-26T12:05:37Z</time>
      </trkpt>
      <trkpt lat="41.6505740" lon="2.0891660">
        <ele>610.1</ele>
        <time>2022-09-26T12:05:38Z</time>
      </trkpt>
      <trkpt lat="41.6505510" lon="2.0891510">
        <ele>610.3</ele>
        <time>2022-09-26T12:05:39Z</time>
      </trkpt>
      <trkpt lat="41.6505230" lon="2.0891400">
        <ele>610.4</ele>
        <time>2022-09-26T12:05:41Z</time>
      </trkpt>
      <trkpt lat="41.6504890" lon="2.0891340">
        <ele>610.6</ele>
        <time>2022-09-26T12:05:42Z</time>
      </trkpt>
      <trkpt lat="41.6504790" lon="2.0891320">
        <ele>610.6</ele>
        <time>2022-09-26T12:05:43Z</time>
      </trkpt>
      <trkpt lat="41.6504560" lon="2.0891240">
        <ele>610.7</ele>
        <time>2022-09-26T12:05:44Z</time>
      </trkpt>
      <trkpt lat="41.6504140" lon="2.0891110">
        <ele>610.9</ele>
        <time>2022-09-26T12:05:46Z</time>
      </trkpt>
      <trkpt lat="41.6503670" lon="2.0890950">
        <ele>611.1</ele>
        <time>2022-09-26T12:05:47Z</time>
      </trkpt>
      <trkpt lat="41.6503340" lon="2.0890840">
        <ele>611.2</ele>
        <time>2022-09-26T12:05:48Z</time>
      </trkpt>
      <trkpt lat="41.6503040" lon="2.0890790">
        <ele>611.3</ele>
        <time>2022-09-26T12:05:49Z</time>
      </trkpt>
      <trkpt lat="41.6502650" lon="2.0890790">
        <ele>611.5</ele>
        <time>2022-09-26T12:05:50Z</time>
      </trkpt>
      <trkpt lat="41.6502190" lon="2.0890880">
        <ele>611.6</ele>
        <time>2022-09-26T12:05:52Z</time>
      </trkpt>
      <trkpt lat="41.6501740" lon="2.0890980">
        <ele>611.8</ele>
        <time>2022-09-26T12:05:53Z</time>
      </trkpt>
      <trkpt lat="41.6501290" lon="2.0891080">
        <ele>611.9</ele>
        <time>2022-09-26T12:05:54Z</time>
      </trkpt>
      <trkpt lat="41.6500920" lon="2.0891170">
        <ele>612.0</ele>
        <time>2022-09-26T12:05:55Z</time>
      </trkpt>
      <trkpt lat="41.6500610" lon="2.0891230">
        <ele>612.1</ele>
        <time>2022-09-26T12:05:56Z</time>
      </trkpt>
      <trkpt lat="41.6500080" lon="2.0891280">
        <ele>612.2</ele>
        <time>2022-09-26T12:05:58Z</time>
      </trkpt>
      <trkpt lat="41.6499560" lon="2.0891280">
        <ele>612.3</ele>
        <time>2022-09-26T12:05:59Z</time>
      </trkpt>
      <trkpt lat="41.6499190" lon="2.0891260">
        <ele>612.3</ele>
        <time>2022-09-26T12:06:00Z</time>
      </trkpt>
      <trkpt lat="41.6498720" lon="2.0891170">
        <ele>612.4</ele>
        <time>2022-09-26T12:06:02Z</time>
      </trkpt>
      <trkpt lat="41.6498300" lon="2.0891060">
        <ele>612.5</ele>
        <time>2022-09-26T12:06:03Z</time>
      </trkpt>
      <trkpt lat="41.6497810" lon="2.0890940">
        <ele>612.5</ele>
        <time>2022-09-26T12:06:04Z</time>
      </trkpt>
      <trkpt lat="41.6497390" lon="2.0890840">
        <ele>612.6</ele>
        <time>2022-09-26T12:06:05Z</time>
      </trkpt>
      <trkpt lat="41.6497020" lon="2.0890790">
        <ele>612.6</ele>
        <time>2022-09-26T12:06:06Z</time>
      </trkpt>
      <trkpt lat="41.6496580" lon="2.0890780">
        <ele>612.6</ele>
        <time>2022-09-26T12:06:07Z</time>
      </trkpt>
      <trkpt lat="41.6496090" lon="2.0890780">
        <ele>612.6</ele>
        <time>2022-09-26T12:06:08Z</time>
      </trkpt>
      <trkpt lat="41.6495620" lon="2.0890810">
        <ele>612.6</ele>
        <time>2022-09-26T12:06:09Z</time>
      </trkpt>
      <trkpt lat="41.6495170" lon="2.0890780">
        <ele>612.5</ele>
        <time>2022-09-26T12:06:10Z</time>
      </trkpt>
      <trkpt lat="41.6494560" lon="2.0890630">
        <ele>612.5</ele>
        <time>2022-09-26T12:06:12Z</time>
      </trkpt>
      <trkpt lat="41.6494100" lon="2.0890570">
        <ele>612.5</ele>
        <time>2022-09-26T12:06:13Z</time>
      </trkpt>
      <trkpt lat="41.6493460" lon="2.0890580">
        <ele>612.4</ele>
        <time>2022-09-26T12:06:14Z</time>
      </trkpt>
      <trkpt lat="41.6492920" lon="2.0890600">
        <ele>612.3</ele>
        <time>2022-09-26T12:06:15Z</time>
      </trkpt>
      <trkpt lat="41.6492360" lon="2.0890630">
        <ele>612.3</ele>
        <time>2022-09-26T12:06:16Z</time>
      </trkpt>
      <trkpt lat="41.6491530" lon="2.0890800">
        <ele>612.2</ele>
        <time>2022-09-26T12:06:18Z</time>
      </trkpt>
      <trkpt lat="41.6490810" lon="2.0891030">
        <ele>612.1</ele>
        <time>2022-09-26T12:06:19Z</time>
      </trkpt>
      <trkpt lat="41.6490260" lon="2.0891190">
        <ele>612.0</ele>
        <time>2022-09-26T12:06:20Z</time>
      </trkpt>
      <trkpt lat="41.6489460" lon="2.0891480">
        <ele>611.9</ele>
        <time>2022-09-26T12:06:21Z</time>
      </trkpt>
      <trkpt lat="41.6489030" lon="2.0891700">
        <ele>611.8</ele>
        <time>2022-09-26T12:06:22Z</time>
      </trkpt>
      <trkpt lat="41.6488720" lon="2.0891970">
        <ele>611.7</ele>
        <time>2022-09-26T12:06:23Z</time>
      </trkpt>
      <trkpt lat="41.6488460" lon="2.0892360">
        <ele>611.6</ele>
        <time>2022-09-26T12:06:24Z</time>
      </trkpt>
      <trkpt lat="41.6488090" lon="2.0893340">
        <ele>611.4</ele>
        <time>2022-09-26T12:06:26Z</time>
      </trkpt>
      <trkpt lat="41.6487940" lon="2.0894430">
        <ele>611.1</ele>
        <time>2022-09-26T12:06:27Z</time>
      </trkpt>
      <trkpt lat="41.6488150" lon="2.0894970">
        <ele>610.9</ele>
        <time>2022-09-26T12:06:28Z</time>
      </trkpt>
      <trkpt lat="41.6488190" lon="2.0895750">
        <ele>610.7</ele>
        <time>2022-09-26T12:06:29Z</time>
      </trkpt>
      <trkpt lat="41.6487910" lon="2.0896560">
        <ele>610.4</ele>
        <time>2022-09-26T12:06:30Z</time>
      </trkpt>
      <trkpt lat="41.6487690" lon="2.0897220">
        <ele>610.1</ele>
        <time>2022-09-26T12:06:31Z</time>
      </trkpt>
      <trkpt lat="41.6487400" lon="2.0897850">
        <ele>609.8</ele>
        <time>2022-09-26T12:06:32Z</time>
      </trkpt>
      <trkpt lat="41.6487030" lon="2.0898410">
        <ele>609.4</ele>
        <time>2022-09-26T12:06:33Z</time>
      </trkpt>
      <trkpt lat="41.6486550" lon="2.0899000">
        <ele>609.0</ele>
        <time>2022-09-26T12:06:34Z</time>
      </trkpt>
      <trkpt lat="41.6486060" lon="2.0899660">
        <ele>608.5</ele>
        <time>2022-09-26T12:06:35Z</time>
      </trkpt>
      <trkpt lat="41.6485800" lon="2.0900260">
        <ele>608.1</ele>
        <time>2022-09-26T12:06:36Z</time>
      </trkpt>
      <trkpt lat="41.6485730" lon="2.0900880">
        <ele>607.8</ele>
        <time>2022-09-26T12:06:37Z</time>
      </trkpt>
      <trkpt lat="41.6485850" lon="2.0901620">
        <ele>607.5</ele>
        <time>2022-09-26T12:06:38Z</time>
      </trkpt>
      <trkpt lat="41.6486160" lon="2.0902200">
        <ele>607.1</ele>
        <time>2022-09-26T12:06:39Z</time>
      </trkpt>
      <trkpt lat="41.6486550" lon="2.0902690">
        <ele>606.7</ele>
        <time>2022-09-26T12:06:40Z</time>
      </trkpt>
      <trkpt lat="41.6486960" lon="2.0903270">
        <ele>606.3</ele>
        <time>2022-09-26T12:06:41Z</time>
      </trkpt>
      <trkpt lat="41.6487320" lon="2.0903870">
        <ele>605.9</ele>
        <time>2022-09-26T12:06:42Z</time>
      </trkpt>
      <trkpt lat="41.6487650" lon="2.0904500">
        <ele>605.4</ele>
        <time>2022-09-26T12:06:43Z</time>
      </trkpt>
      <trkpt lat="41.6487820" lon="2.0905210">
        <ele>605.0</ele>
        <time>2022-09-26T12:06:44Z</time>
      </trkpt>
      <trkpt lat="41.6487900" lon="2.0905970">
        <ele>604.5</ele>
        <time>2022-09-26T12:06:45Z</time>
      </trkpt>
      <trkpt lat="41.6487930" lon="2.0906870">
        <ele>604.0</ele>
        <time>2022-09-26T12:06:46Z</time>
      </trkpt>
      <trkpt lat="41.6487880" lon="2.0907850">
        <ele>603.4</ele>
        <time>2022-09-26T12:06:47Z</time>
      </trkpt>
      <trkpt lat="41.6487840" lon="2.0908790">
        <ele>603.0</ele>
        <time>2022-09-26T12:06:48Z</time>
      </trkpt>
      <trkpt lat="41.6487730" lon="2.0909630">
        <ele>602.6</ele>
        <time>2022-09-26T12:06:49Z</time>
      </trkpt>
      <trkpt lat="41.6487530" lon="2.0910350">
        <ele>602.4</ele>
        <time>2022-09-26T12:06:50Z</time>
      </trkpt>
      <trkpt lat="41.6487230" lon="2.0910970">
        <ele>602.1</ele>
        <time>2022-09-26T12:06:51Z</time>
      </trkpt>
      <trkpt lat="41.6486870" lon="2.0911550">
        <ele>601.8</ele>
        <time>2022-09-26T12:06:52Z</time>
      </trkpt>
      <trkpt lat="41.6486500" lon="2.0912120">
        <ele>601.5</ele>
        <time>2022-09-26T12:06:53Z</time>
      </trkpt>
      <trkpt lat="41.6486160" lon="2.0912740">
        <ele>601.1</ele>
        <time>2022-09-26T12:06:54Z</time>
      </trkpt>
      <trkpt lat="41.6485800" lon="2.0913410">
        <ele>600.6</ele>
        <time>2022-09-26T12:06:55Z</time>
      </trkpt>
      <trkpt lat="41.6485430" lon="2.0914170">
        <ele>599.9</ele>
        <time>2022-09-26T12:06:56Z</time>
      </trkpt>
      <trkpt lat="41.6485070" lon="2.0915020">
        <ele>599.2</ele>
        <time>2022-09-26T12:06:57Z</time>
      </trkpt>
      <trkpt lat="41.6484690" lon="2.0916060">
        <ele>598.4</ele>
        <time>2022-09-26T12:06:58Z</time>
      </trkpt>
      <trkpt lat="41.6484350" lon="2.0917020">
        <ele>597.6</ele>
        <time>2022-09-26T12:06:59Z</time>
      </trkpt>
      <trkpt lat="41.6484040" lon="2.0917950">
        <ele>596.6</ele>
        <time>2022-09-26T12:07:00Z</time>
      </trkpt>
      <trkpt lat="41.6483830" lon="2.0918860">
        <ele>595.7</ele>
        <time>2022-09-26T12:07:01Z</time>
      </trkpt>
      <trkpt lat="41.6483630" lon="2.0919760">
        <ele>594.8</ele>
        <time>2022-09-26T12:07:02Z</time>
      </trkpt>
      <trkpt lat="41.6483440" lon="2.0920690">
        <ele>593.9</ele>
        <time>2022-09-26T12:07:03Z</time>
      </trkpt>
      <trkpt lat="41.6483260" lon="2.0921650">
        <ele>592.9</ele>
        <time>2022-09-26T12:07:04Z</time>
      </trkpt>
      <trkpt lat="41.6483050" lon="2.0922490">
        <ele>592.0</ele>
        <time>2022-09-26T12:07:05Z</time>
      </trkpt>
      <trkpt lat="41.6482790" lon="2.0923210">
        <ele>591.1</ele>
        <time>2022-09-26T12:07:06Z</time>
      </trkpt>
      <trkpt lat="41.6482510" lon="2.0923920">
        <ele>590.2</ele>
        <time>2022-09-26T12:07:07Z</time>
      </trkpt>
      <trkpt lat="41.6482180" lon="2.0924670">
        <ele>589.2</ele>
        <time>2022-09-26T12:07:08Z</time>
      </trkpt>
      <trkpt lat="41.6481730" lon="2.0925570">
        <ele>587.9</ele>
        <time>2022-09-26T12:07:09Z</time>
      </trkpt>
      <trkpt lat="41.6481230" lon="2.0926710">
        <ele>586.5</ele>
        <time>2022-09-26T12:07:10Z</time>
      </trkpt>
      <trkpt lat="41.6480700" lon="2.0927930">
        <ele>585.1</ele>
        <time>2022-09-26T12:07:11Z</time>
      </trkpt>
      <trkpt lat="41.6480260" lon="2.0929260">
        <ele>583.7</ele>
        <time>2022-09-26T12:07:12Z</time>
      </trkpt>
      <trkpt lat="41.6479910" lon="2.0930620">
        <ele>582.3</ele>
        <time>2022-09-26T12:07:13Z</time>
      </trkpt>
      <trkpt lat="41.6479580" lon="2.0931980">
        <ele>581.0</ele>
        <time>2022-09-26T12:07:14Z</time>
      </trkpt>
      <trkpt lat="41.6479020" lon="2.0934870">
        <ele>578.5</ele>
        <time>2022-09-26T12:07:16Z</time>
      </trkpt>
      <trkpt lat="41.6478800" lon="2.0936230">
        <ele>577.2</ele>
        <time>2022-09-26T12:07:17Z</time>
      </trkpt>
      <trkpt lat="41.6478570" lon="2.0937580">
        <ele>576.0</ele>
        <time>2022-09-26T12:07:18Z</time>
      </trkpt>
      <trkpt lat="41.6478330" lon="2.0938940">
        <ele>575.1</ele>
        <time>2022-09-26T12:07:19Z</time>
      </trkpt>
      <trkpt lat="41.6478010" lon="2.0940400">
        <ele>574.3</ele>
        <time>2022-09-26T12:07:20Z</time>
      </trkpt>
      <trkpt lat="41.6477620" lon="2.0941880">
        <ele>573.9</ele>
        <time>2022-09-26T12:07:21Z</time>
      </trkpt>
      <trkpt lat="41.6477120" lon="2.0943220">
        <ele>573.7</ele>
        <time>2022-09-26T12:07:22Z</time>
      </trkpt>
      <trkpt lat="41.6476430" lon="2.0944290">
        <ele>573.6</ele>
        <time>2022-09-26T12:07:23Z</time>
      </trkpt>
      <trkpt lat="41.6475720" lon="2.0945210">
        <ele>573.8</ele>
        <time>2022-09-26T12:07:24Z</time>
      </trkpt>
      <trkpt lat="41.6474970" lon="2.0945950">
        <ele>574.1</ele>
        <time>2022-09-26T12:07:25Z</time>
      </trkpt>
      <trkpt lat="41.6474200" lon="2.0946510">
        <ele>574.4</ele>
        <time>2022-09-26T12:07:26Z</time>
      </trkpt>
      <trkpt lat="41.6473480" lon="2.0946960">
        <ele>574.8</ele>
        <time>2022-09-26T12:07:27Z</time>
      </trkpt>
      <trkpt lat="41.6472870" lon="2.0947370">
        <ele>575.1</ele>
        <time>2022-09-26T12:07:28Z</time>
      </trkpt>
      <trkpt lat="41.6472310" lon="2.0947770">
        <ele>575.4</ele>
        <time>2022-09-26T12:07:29Z</time>
      </trkpt>
      <trkpt lat="41.6471840" lon="2.0948160">
        <ele>575.6</ele>
        <time>2022-09-26T12:07:30Z</time>
      </trkpt>
      <trkpt lat="41.6471390" lon="2.0948580">
        <ele>575.8</ele>
        <time>2022-09-26T12:07:31Z</time>
      </trkpt>
      <trkpt lat="41.6470960" lon="2.0948950">
        <ele>576.0</ele>
        <time>2022-09-26T12:07:32Z</time>
      </trkpt>
      <trkpt lat="41.6470520" lon="2.0949300">
        <ele>576.2</ele>
        <time>2022-09-26T12:07:33Z</time>
      </trkpt>
      <trkpt lat="41.6469960" lon="2.0949560">
        <ele>576.4</ele>
        <time>2022-09-26T12:07:34Z</time>
      </trkpt>
      <trkpt lat="41.6469390" lon="2.0949760">
        <ele>576.6</ele>
        <time>2022-09-26T12:07:35Z</time>
      </trkpt>
      <trkpt lat="41.6468900" lon="2.0949840">
        <ele>576.8</ele>
        <time>2022-09-26T12:07:36Z</time>
      </trkpt>
      <trkpt lat="41.6468390" lon="2.0949810">
        <ele>577.0</ele>
        <time>2022-09-26T12:07:37Z</time>
      </trkpt>
      <trkpt lat="41.6468120" lon="2.0949780">
        <ele>577.1</ele>
        <time>2022-09-26T12:07:38Z</time>
      </trkpt>
      <trkpt lat="41.6467710" lon="2.0949660">
        <ele>577.2</ele>
        <time>2022-09-26T12:07:39Z</time>
      </trkpt>
      <trkpt lat="41.6467290" lon="2.0949550">
        <ele>577.4</ele>
        <time>2022-09-26T12:07:40Z</time>
      </trkpt>
      <trkpt lat="41.6466840" lon="2.0949430">
        <ele>577.5</ele>
        <time>2022-09-26T12:07:41Z</time>
      </trkpt>
      <trkpt lat="41.6466430" lon="2.0949340">
        <ele>577.6</ele>
        <time>2022-09-26T12:07:42Z</time>
      </trkpt>
      <trkpt lat="41.6466110" lon="2.0949300">
        <ele>577.6</ele>
        <time>2022-09-26T12:07:43Z</time>
      </trkpt>
      <trkpt lat="41.6465750" lon="2.0949260">
        <ele>577.6</ele>
        <time>2022-09-26T12:07:44Z</time>
      </trkpt>
      <trkpt lat="41.6465400" lon="2.0949280">
        <ele>577.5</ele>
        <time>2022-09-26T12:07:45Z</time>
      </trkpt>
      <trkpt lat="41.6465010" lon="2.0949390">
        <ele>577.4</ele>
        <time>2022-09-26T12:07:46Z</time>
      </trkpt>
      <trkpt lat="41.6464490" lon="2.0949650">
        <ele>577.2</ele>
        <time>2022-09-26T12:07:47Z</time>
      </trkpt>
      <trkpt lat="41.6463970" lon="2.0950130">
        <ele>576.8</ele>
        <time>2022-09-26T12:07:48Z</time>
      </trkpt>
      <trkpt lat="41.6463500" lon="2.0950790">
        <ele>576.4</ele>
        <time>2022-09-26T12:07:49Z</time>
      </trkpt>
      <trkpt lat="41.6463040" lon="2.0951520">
        <ele>576.0</ele>
        <time>2022-09-26T12:07:50Z</time>
      </trkpt>
      <trkpt lat="41.6462580" lon="2.0952250">
        <ele>575.5</ele>
        <time>2022-09-26T12:07:51Z</time>
      </trkpt>
      <trkpt lat="41.6462050" lon="2.0952910">
        <ele>575.1</ele>
        <time>2022-09-26T12:07:52Z</time>
      </trkpt>
      <trkpt lat="41.6461440" lon="2.0953480">
        <ele>574.4</ele>
        <time>2022-09-26T12:07:53Z</time>
      </trkpt>
      <trkpt lat="41.6460770" lon="2.0953960">
        <ele>573.7</ele>
        <time>2022-09-26T12:07:54Z</time>
      </trkpt>
      <trkpt lat="41.6460040" lon="2.0954350">
        <ele>572.8</ele>
        <time>2022-09-26T12:07:55Z</time>
      </trkpt>
      <trkpt lat="41.6459270" lon="2.0954680">
        <ele>571.9</ele>
        <time>2022-09-26T12:07:56Z</time>
      </trkpt>
      <trkpt lat="41.6458450" lon="2.0955010">
        <ele>571.1</ele>
        <time>2022-09-26T12:07:57Z</time>
      </trkpt>
      <trkpt lat="41.6457630" lon="2.0955350">
        <ele>570.4</ele>
        <time>2022-09-26T12:07:58Z</time>
      </trkpt>
      <trkpt lat="41.6456800" lon="2.0955650">
        <ele>569.8</ele>
        <time>2022-09-26T12:07:59Z</time>
      </trkpt>
      <trkpt lat="41.6455970" lon="2.0955870">
        <ele>569.4</ele>
        <time>2022-09-26T12:08:00Z</time>
      </trkpt>
      <trkpt lat="41.6455220" lon="2.0955840">
        <ele>569.1</ele>
        <time>2022-09-26T12:08:01Z</time>
      </trkpt>
      <trkpt lat="41.6454520" lon="2.0955750">
        <ele>569.1</ele>
        <time>2022-09-26T12:08:02Z</time>
      </trkpt>
      <trkpt lat="41.6453890" lon="2.0955580">
        <ele>569.1</ele>
        <time>2022-09-26T12:08:03Z</time>
      </trkpt>
      <trkpt lat="41.6453340" lon="2.0955280">
        <ele>569.1</ele>
        <time>2022-09-26T12:08:04Z</time>
      </trkpt>
      <trkpt lat="41.6452900" lon="2.0954910">
        <ele>569.2</ele>
        <time>2022-09-26T12:08:05Z</time>
      </trkpt>
      <trkpt lat="41.6452750" lon="2.0954550">
        <ele>569.2</ele>
        <time>2022-09-26T12:08:06Z</time>
      </trkpt>
      <trkpt lat="41.6452550" lon="2.0954150">
        <ele>569.2</ele>
        <time>2022-09-26T12:08:07Z</time>
      </trkpt>
      <trkpt lat="41.6452300" lon="2.0953670">
        <ele>569.3</ele>
        <time>2022-09-26T12:08:08Z</time>
      </trkpt>
      <trkpt lat="41.6452000" lon="2.0953030">
        <ele>569.3</ele>
        <time>2022-09-26T12:08:09Z</time>
      </trkpt>
      <trkpt lat="41.6451890" lon="2.0952430">
        <ele>569.3</ele>
        <time>2022-09-26T12:08:10Z</time>
      </trkpt>
      <trkpt lat="41.6451790" lon="2.0951690">
        <ele>569.3</ele>
        <time>2022-09-26T12:08:11Z</time>
      </trkpt>
      <trkpt lat="41.6451610" lon="2.0950420">
        <ele>569.3</ele>
        <time>2022-09-26T12:08:12Z</time>
      </trkpt>
      <trkpt lat="41.6451590" lon="2.0949700">
        <ele>569.3</ele>
        <time>2022-09-26T12:08:13Z</time>
      </trkpt>
      <trkpt lat="41.6451510" lon="2.0948950">
        <ele>569.2</ele>
        <time>2022-09-26T12:08:14Z</time>
      </trkpt>
      <trkpt lat="41.6451390" lon="2.0948210">
        <ele>569.1</ele>
        <time>2022-09-26T12:08:15Z</time>
      </trkpt>
      <trkpt lat="41.6451120" lon="2.0947570">
        <ele>568.9</ele>
        <time>2022-09-26T12:08:16Z</time>
      </trkpt>
      <trkpt lat="41.6450760" lon="2.0947070">
        <ele>568.8</ele>
        <time>2022-09-26T12:08:17Z</time>
      </trkpt>
      <trkpt lat="41.6450440" lon="2.0947020">
        <ele>568.7</ele>
        <time>2022-09-26T12:08:18Z</time>
      </trkpt>
      <trkpt lat="41.6450020" lon="2.0946850">
        <ele>568.6</ele>
        <time>2022-09-26T12:08:19Z</time>
      </trkpt>
      <trkpt lat="41.6449620" lon="2.0946850">
        <ele>567.5</ele>
        <time>2022-09-26T12:08:20Z</time>
      </trkpt>
      <trkpt lat="41.6449320" lon="2.0947050">
        <ele>567.2</ele>
        <time>2022-09-26T12:08:21Z</time>
      </trkpt>
      <trkpt lat="41.6449050" lon="2.0947490">
        <ele>566.8</ele>
        <time>2022-09-26T12:08:22Z</time>
      </trkpt>
      <trkpt lat="41.6448730" lon="2.0948050">
        <ele>566.3</ele>
        <time>2022-09-26T12:08:23Z</time>
      </trkpt>
      <trkpt lat="41.6448280" lon="2.0948630">
        <ele>565.7</ele>
        <time>2022-09-26T12:08:24Z</time>
      </trkpt>
      <trkpt lat="41.6447730" lon="2.0949110">
        <ele>565.0</ele>
        <time>2022-09-26T12:08:25Z</time>
      </trkpt>
      <trkpt lat="41.6447060" lon="2.0949510">
        <ele>564.3</ele>
        <time>2022-09-26T12:08:26Z</time>
      </trkpt>
      <trkpt lat="41.6446350" lon="2.0949930">
        <ele>563.6</ele>
        <time>2022-09-26T12:08:27Z</time>
      </trkpt>
      <trkpt lat="41.6445700" lon="2.0950450">
        <ele>562.9</ele>
        <time>2022-09-26T12:08:28Z</time>
      </trkpt>
      <trkpt lat="41.6445130" lon="2.0951090">
        <ele>562.2</ele>
        <time>2022-09-26T12:08:29Z</time>
      </trkpt>
      <trkpt lat="41.6444640" lon="2.0951840">
        <ele>561.6</ele>
        <time>2022-09-26T12:08:30Z</time>
      </trkpt>
      <trkpt lat="41.6444260" lon="2.0952560">
        <ele>561.0</ele>
        <time>2022-09-26T12:08:31Z</time>
      </trkpt>
      <trkpt lat="41.6443930" lon="2.0953110">
        <ele>560.4</ele>
        <time>2022-09-26T12:08:32Z</time>
      </trkpt>
      <trkpt lat="41.6443600" lon="2.0953150">
        <ele>560.1</ele>
        <time>2022-09-26T12:08:33Z</time>
      </trkpt>
      <trkpt lat="41.6443440" lon="2.0953140">
        <ele>559.9</ele>
        <time>2022-09-26T12:08:34Z</time>
      </trkpt>
      <trkpt lat="41.6443060" lon="2.0953040">
        <ele>559.5</ele>
        <time>2022-09-26T12:08:35Z</time>
      </trkpt>
      <trkpt lat="41.6442690" lon="2.0952830">
        <ele>559.0</ele>
        <time>2022-09-26T12:08:36Z</time>
      </trkpt>
      <trkpt lat="41.6442370" lon="2.0952480">
        <ele>558.4</ele>
        <time>2022-09-26T12:08:37Z</time>
      </trkpt>
      <trkpt lat="41.6442050" lon="2.0951910">
        <ele>557.7</ele>
        <time>2022-09-26T12:08:38Z</time>
      </trkpt>
      <trkpt lat="41.6441690" lon="2.0951190">
        <ele>556.9</ele>
        <time>2022-09-26T12:08:39Z</time>
      </trkpt>
      <trkpt lat="41.6441300" lon="2.0950440">
        <ele>555.9</ele>
        <time>2022-09-26T12:08:40Z</time>
      </trkpt>
      <trkpt lat="41.6440910" lon="2.0949740">
        <ele>555.0</ele>
        <time>2022-09-26T12:08:41Z</time>
      </trkpt>
      <trkpt lat="41.6440530" lon="2.0949040">
        <ele>554.0</ele>
        <time>2022-09-26T12:08:42Z</time>
      </trkpt>
      <trkpt lat="41.6440180" lon="2.0948260">
        <ele>553.0</ele>
        <time>2022-09-26T12:08:43Z</time>
      </trkpt>
      <trkpt lat="41.6439940" lon="2.0947370">
        <ele>552.0</ele>
        <time>2022-09-26T12:08:44Z</time>
      </trkpt>
      <trkpt lat="41.6439780" lon="2.0946490">
        <ele>551.0</ele>
        <time>2022-09-26T12:08:45Z</time>
      </trkpt>
      <trkpt lat="41.6439640" lon="2.0945650">
        <ele>550.1</ele>
        <time>2022-09-26T12:08:46Z</time>
      </trkpt>
      <trkpt lat="41.6439430" lon="2.0944770">
        <ele>549.2</ele>
        <time>2022-09-26T12:08:47Z</time>
      </trkpt>
      <trkpt lat="41.6439250" lon="2.0943860">
        <ele>548.3</ele>
        <time>2022-09-26T12:08:48Z</time>
      </trkpt>
      <trkpt lat="41.6439110" lon="2.0942950">
        <ele>547.3</ele>
        <time>2022-09-26T12:08:49Z</time>
      </trkpt>
      <trkpt lat="41.6438990" lon="2.0942010">
        <ele>546.4</ele>
        <time>2022-09-26T12:08:50Z</time>
      </trkpt>
      <trkpt lat="41.6438860" lon="2.0941030">
        <ele>545.4</ele>
        <time>2022-09-26T12:08:51Z</time>
      </trkpt>
      <trkpt lat="41.6438690" lon="2.0940100">
        <ele>544.6</ele>
        <time>2022-09-26T12:08:52Z</time>
      </trkpt>
      <trkpt lat="41.6438490" lon="2.0939570">
        <ele>544.1</ele>
        <time>2022-09-26T12:08:53Z</time>
      </trkpt>
      <trkpt lat="41.6438040" lon="2.0938890">
        <ele>543.3</ele>
        <time>2022-09-26T12:08:54Z</time>
      </trkpt>
      <trkpt lat="41.6437400" lon="2.0938620">
        <ele>542.6</ele>
        <time>2022-09-26T12:08:55Z</time>
      </trkpt>
      <trkpt lat="41.6436730" lon="2.0938420">
        <ele>541.9</ele>
        <time>2022-09-26T12:08:56Z</time>
      </trkpt>
      <trkpt lat="41.6436180" lon="2.0938340">
        <ele>541.3</ele>
        <time>2022-09-26T12:08:57Z</time>
      </trkpt>
      <trkpt lat="41.6435870" lon="2.0938340">
        <ele>541.0</ele>
        <time>2022-09-26T12:08:58Z</time>
      </trkpt>
      <trkpt lat="41.6435460" lon="2.0938290">
        <ele>540.5</ele>
        <time>2022-09-26T12:08:59Z</time>
      </trkpt>
      <trkpt lat="41.6435230" lon="2.0938010">
        <ele>540.1</ele>
        <time>2022-09-26T12:09:00Z</time>
      </trkpt>
      <trkpt lat="41.6435120" lon="2.0937840">
        <ele>539.9</ele>
        <time>2022-09-26T12:09:01Z</time>
      </trkpt>
      <trkpt lat="41.6434670" lon="2.0937220">
        <ele>539.0</ele>
        <time>2022-09-26T12:09:02Z</time>
      </trkpt>
      <trkpt lat="41.6434250" lon="2.0936370">
        <ele>537.9</ele>
        <time>2022-09-26T12:09:03Z</time>
      </trkpt>
      <trkpt lat="41.6433930" lon="2.0935440">
        <ele>536.8</ele>
        <time>2022-09-26T12:09:04Z</time>
      </trkpt>
      <trkpt lat="41.6433740" lon="2.0934520">
        <ele>535.7</ele>
        <time>2022-09-26T12:09:05Z</time>
      </trkpt>
      <trkpt lat="41.6433680" lon="2.0933700">
        <ele>534.8</ele>
        <time>2022-09-26T12:09:06Z</time>
      </trkpt>
      <trkpt lat="41.6433650" lon="2.0932890">
        <ele>534.0</ele>
        <time>2022-09-26T12:09:07Z</time>
      </trkpt>
      <trkpt lat="41.6433600" lon="2.0931970">
        <ele>533.2</ele>
        <time>2022-09-26T12:09:08Z</time>
      </trkpt>
      <trkpt lat="41.6433490" lon="2.0931290">
        <ele>532.5</ele>
        <time>2022-09-26T12:09:09Z</time>
      </trkpt>
      <trkpt lat="41.6433240" lon="2.0930850">
        <ele>532.1</ele>
        <time>2022-09-26T12:09:10Z</time>
      </trkpt>
      <trkpt lat="41.6432890" lon="2.0930490">
        <ele>531.6</ele>
        <time>2022-09-26T12:09:11Z</time>
      </trkpt>
      <trkpt lat="41.6432590" lon="2.0930390">
        <ele>531.2</ele>
        <time>2022-09-26T12:09:12Z</time>
      </trkpt>
      <trkpt lat="41.6432280" lon="2.0930190">
        <ele>530.9</ele>
        <time>2022-09-26T12:09:13Z</time>
      </trkpt>
      <trkpt lat="41.6431960" lon="2.0929800">
        <ele>530.4</ele>
        <time>2022-09-26T12:09:14Z</time>
      </trkpt>
      <trkpt lat="41.6431780" lon="2.0929300">
        <ele>529.9</ele>
        <time>2022-09-26T12:09:15Z</time>
      </trkpt>
      <trkpt lat="41.6431760" lon="2.0928690">
        <ele>529.3</ele>
        <time>2022-09-26T12:09:16Z</time>
      </trkpt>
      <trkpt lat="41.6431860" lon="2.0928090">
        <ele>528.7</ele>
        <time>2022-09-26T12:09:17Z</time>
      </trkpt>
      <trkpt lat="41.6431980" lon="2.0927320">
        <ele>528.0</ele>
        <time>2022-09-26T12:09:18Z</time>
      </trkpt>
      <trkpt lat="41.6432130" lon="2.0924790">
        <ele>525.6</ele>
        <time>2022-09-26T12:09:20Z</time>
      </trkpt>
      <trkpt lat="41.6432090" lon="2.0923590">
        <ele>524.4</ele>
        <time>2022-09-26T12:09:21Z</time>
      </trkpt>
      <trkpt lat="41.6431970" lon="2.0922540">
        <ele>523.5</ele>
        <time>2022-09-26T12:09:22Z</time>
      </trkpt>
      <trkpt lat="41.6431740" lon="2.0921680">
        <ele>522.8</ele>
        <time>2022-09-26T12:09:23Z</time>
      </trkpt>
      <trkpt lat="41.6431390" lon="2.0920980">
        <ele>522.2</ele>
        <time>2022-09-26T12:09:24Z</time>
      </trkpt>
      <trkpt lat="41.6430960" lon="2.0920460">
        <ele>521.6</ele>
        <time>2022-09-26T12:09:25Z</time>
      </trkpt>
      <trkpt lat="41.6430530" lon="2.0920220">
        <ele>521.1</ele>
        <time>2022-09-26T12:09:26Z</time>
      </trkpt>
      <trkpt lat="41.6430040" lon="2.0919660">
        <ele>520.5</ele>
        <time>2022-09-26T12:09:27Z</time>
      </trkpt>
      <trkpt lat="41.6429640" lon="2.0919050">
        <ele>519.8</ele>
        <time>2022-09-26T12:09:28Z</time>
      </trkpt>
      <trkpt lat="41.6429360" lon="2.0918270">
        <ele>519.1</ele>
        <time>2022-09-26T12:09:29Z</time>
      </trkpt>
      <trkpt lat="41.6429160" lon="2.0917370">
        <ele>518.2</ele>
        <time>2022-09-26T12:09:30Z</time>
      </trkpt>
      <trkpt lat="41.6428980" lon="2.0916440">
        <ele>517.3</ele>
        <time>2022-09-26T12:09:31Z</time>
      </trkpt>
      <trkpt lat="41.6428800" lon="2.0915410">
        <ele>516.3</ele>
        <time>2022-09-26T12:09:32Z</time>
      </trkpt>
      <trkpt lat="41.6428560" lon="2.0914440">
        <ele>515.5</ele>
        <time>2022-09-26T12:09:33Z</time>
      </trkpt>
      <trkpt lat="41.6428190" lon="2.0913590">
        <ele>514.7</ele>
        <time>2022-09-26T12:09:34Z</time>
      </trkpt>
      <trkpt lat="41.6427690" lon="2.0912960">
        <ele>514.1</ele>
        <time>2022-09-26T12:09:35Z</time>
      </trkpt>
      <trkpt lat="41.6427110" lon="2.0912660">
        <ele>513.5</ele>
        <time>2022-09-26T12:09:36Z</time>
      </trkpt>
      <trkpt lat="41.6426520" lon="2.0912570">
        <ele>513.0</ele>
        <time>2022-09-26T12:09:37Z</time>
      </trkpt>
      <trkpt lat="41.6425980" lon="2.0912520">
        <ele>512.6</ele>
        <time>2022-09-26T12:09:38Z</time>
      </trkpt>
      <trkpt lat="41.6425470" lon="2.0912490">
        <ele>512.2</ele>
        <time>2022-09-26T12:09:39Z</time>
      </trkpt>
      <trkpt lat="41.6425140" lon="2.0912440">
        <ele>511.9</ele>
        <time>2022-09-26T12:09:40Z</time>
      </trkpt>
      <trkpt lat="41.6424790" lon="2.0912180">
        <ele>511.6</ele>
        <time>2022-09-26T12:09:41Z</time>
      </trkpt>
      <trkpt lat="41.6424710" lon="2.0911660">
        <ele>511.3</ele>
        <time>2022-09-26T12:09:42Z</time>
      </trkpt>
      <trkpt lat="41.6424760" lon="2.0910880">
        <ele>510.8</ele>
        <time>2022-09-26T12:09:43Z</time>
      </trkpt>
      <trkpt lat="41.6424910" lon="2.0909920">
        <ele>510.2</ele>
        <time>2022-09-26T12:09:44Z</time>
      </trkpt>
      <trkpt lat="41.6425000" lon="2.0908890">
        <ele>509.4</ele>
        <time>2022-09-26T12:09:45Z</time>
      </trkpt>
      <trkpt lat="41.6424930" lon="2.0907900">
        <ele>508.8</ele>
        <time>2022-09-26T12:09:46Z</time>
      </trkpt>
      <trkpt lat="41.6424680" lon="2.0907070">
        <ele>508.2</ele>
        <time>2022-09-26T12:09:47Z</time>
      </trkpt>
      <trkpt lat="41.6424280" lon="2.0906440">
        <ele>507.7</ele>
        <time>2022-09-26T12:09:48Z</time>
      </trkpt>
      <trkpt lat="41.6423710" lon="2.0906050">
        <ele>507.3</ele>
        <time>2022-09-26T12:09:49Z</time>
      </trkpt>
      <trkpt lat="41.6423120" lon="2.0906040">
        <ele>507.0</ele>
        <time>2022-09-26T12:09:50Z</time>
      </trkpt>
      <trkpt lat="41.6422490" lon="2.0906050">
        <ele>506.6</ele>
        <time>2022-09-26T12:09:51Z</time>
      </trkpt>
      <trkpt lat="41.6421870" lon="2.0906200">
        <ele>506.2</ele>
        <time>2022-09-26T12:09:52Z</time>
      </trkpt>
      <trkpt lat="41.6421280" lon="2.0906450">
        <ele>505.9</ele>
        <time>2022-09-26T12:09:53Z</time>
      </trkpt>
      <trkpt lat="41.6420740" lon="2.0906810">
        <ele>505.5</ele>
        <time>2022-09-26T12:09:54Z</time>
      </trkpt>
      <trkpt lat="41.6420220" lon="2.0907210">
        <ele>505.2</ele>
        <time>2022-09-26T12:09:55Z</time>
      </trkpt>
      <trkpt lat="41.6419890" lon="2.0907560">
        <ele>504.9</ele>
        <time>2022-09-26T12:09:56Z</time>
      </trkpt>
      <trkpt lat="41.6419470" lon="2.0907860">
        <ele>504.5</ele>
        <time>2022-09-26T12:09:57Z</time>
      </trkpt>
      <trkpt lat="41.6419160" lon="2.0908050">
        <ele>504.3</ele>
        <time>2022-09-26T12:09:58Z</time>
      </trkpt>
      <trkpt lat="41.6418840" lon="2.0908210">
        <ele>504.0</ele>
        <time>2022-09-26T12:09:59Z</time>
      </trkpt>
      <trkpt lat="41.6418550" lon="2.0907770">
        <ele>503.7</ele>
        <time>2022-09-26T12:10:00Z</time>
      </trkpt>
      <trkpt lat="41.6418510" lon="2.0907440">
        <ele>503.5</ele>
        <time>2022-09-26T12:10:01Z</time>
      </trkpt>
      <trkpt lat="41.6418390" lon="2.0906390">
        <ele>502.8</ele>
        <time>2022-09-26T12:10:02Z</time>
      </trkpt>
      <trkpt lat="41.6418150" lon="2.0905160">
        <ele>502.0</ele>
        <time>2022-09-26T12:10:03Z</time>
      </trkpt>
      <trkpt lat="41.6417780" lon="2.0904060">
        <ele>501.3</ele>
        <time>2022-09-26T12:10:04Z</time>
      </trkpt>
      <trkpt lat="41.6417260" lon="2.0903130">
        <ele>500.7</ele>
        <time>2022-09-26T12:10:05Z</time>
      </trkpt>
      <trkpt lat="41.6416620" lon="2.0902410">
        <ele>500.1</ele>
        <time>2022-09-26T12:10:06Z</time>
      </trkpt>
      <trkpt lat="41.6415950" lon="2.0901810">
        <ele>499.5</ele>
        <time>2022-09-26T12:10:07Z</time>
      </trkpt>
      <trkpt lat="41.6415230" lon="2.0901410">
        <ele>498.9</ele>
        <time>2022-09-26T12:10:08Z</time>
      </trkpt>
      <trkpt lat="41.6414470" lon="2.0901270">
        <ele>498.3</ele>
        <time>2022-09-26T12:10:09Z</time>
      </trkpt>
      <trkpt lat="41.6413680" lon="2.0901280">
        <ele>497.8</ele>
        <time>2022-09-26T12:10:10Z</time>
      </trkpt>
      <trkpt lat="41.6412930" lon="2.0901310">
        <ele>497.2</ele>
        <time>2022-09-26T12:10:11Z</time>
      </trkpt>
      <trkpt lat="41.6412210" lon="2.0901350">
        <ele>496.7</ele>
        <time>2022-09-26T12:10:12Z</time>
      </trkpt>
      <trkpt lat="41.6411610" lon="2.0901410">
        <ele>496.2</ele>
        <time>2022-09-26T12:10:13Z</time>
      </trkpt>
      <trkpt lat="41.6411090" lon="2.0901330">
        <ele>495.8</ele>
        <time>2022-09-26T12:10:14Z</time>
      </trkpt>
      <trkpt lat="41.6410750" lon="2.0901130">
        <ele>495.5</ele>
        <time>2022-09-26T12:10:15Z</time>
      </trkpt>
      <trkpt lat="41.6410280" lon="2.0900790">
        <ele>495.0</ele>
        <time>2022-09-26T12:10:16Z</time>
      </trkpt>
      <trkpt lat="41.6409440" lon="2.0900370">
        <ele>494.3</ele>
        <time>2022-09-26T12:10:17Z</time>
      </trkpt>
      <trkpt lat="41.6408520" lon="2.0899920">
        <ele>493.5</ele>
        <time>2022-09-26T12:10:18Z</time>
      </trkpt>
      <trkpt lat="41.6407560" lon="2.0899530">
        <ele>492.8</ele>
        <time>2022-09-26T12:10:19Z</time>
      </trkpt>
      <trkpt lat="41.6406580" lon="2.0899210">
        <ele>492.1</ele>
        <time>2022-09-26T12:10:20Z</time>
      </trkpt>
      <trkpt lat="41.6405580" lon="2.0898950">
        <ele>491.4</ele>
        <time>2022-09-26T12:10:21Z</time>
      </trkpt>
      <trkpt lat="41.6404620" lon="2.0898770">
        <ele>490.8</ele>
        <time>2022-09-26T12:10:22Z</time>
      </trkpt>
      <trkpt lat="41.6403640" lon="2.0898720">
        <ele>490.1</ele>
        <time>2022-09-26T12:10:23Z</time>
      </trkpt>
      <trkpt lat="41.6402640" lon="2.0898720">
        <ele>489.5</ele>
        <time>2022-09-26T12:10:24Z</time>
      </trkpt>
      <trkpt lat="41.6401620" lon="2.0898730">
        <ele>488.9</ele>
        <time>2022-09-26T12:10:25Z</time>
      </trkpt>
      <trkpt lat="41.6400640" lon="2.0898740">
        <ele>488.3</ele>
        <time>2022-09-26T12:10:26Z</time>
      </trkpt>
      <trkpt lat="41.6399730" lon="2.0898730">
        <ele>487.7</ele>
        <time>2022-09-26T12:10:27Z</time>
      </trkpt>
      <trkpt lat="41.6398920" lon="2.0898660">
        <ele>487.2</ele>
        <time>2022-09-26T12:10:28Z</time>
      </trkpt>
      <trkpt lat="41.6398230" lon="2.0898680">
        <ele>486.8</ele>
        <time>2022-09-26T12:10:29Z</time>
      </trkpt>
      <trkpt lat="41.6397670" lon="2.0898790">
        <ele>486.4</ele>
        <time>2022-09-26T12:10:30Z</time>
      </trkpt>
      <trkpt lat="41.6397130" lon="2.0899030">
        <ele>486.0</ele>
        <time>2022-09-26T12:10:31Z</time>
      </trkpt>
      <trkpt lat="41.6396640" lon="2.0899450">
        <ele>485.6</ele>
        <time>2022-09-26T12:10:32Z</time>
      </trkpt>
      <trkpt lat="41.6396160" lon="2.0899960">
        <ele>485.1</ele>
        <time>2022-09-26T12:10:33Z</time>
      </trkpt>
      <trkpt lat="41.6395660" lon="2.0900540">
        <ele>484.6</ele>
        <time>2022-09-26T12:10:34Z</time>
      </trkpt>
      <trkpt lat="41.6395160" lon="2.0901100">
        <ele>484.2</ele>
        <time>2022-09-26T12:10:35Z</time>
      </trkpt>
      <trkpt lat="41.6394620" lon="2.0901600">
        <ele>483.7</ele>
        <time>2022-09-26T12:10:36Z</time>
      </trkpt>
      <trkpt lat="41.6394080" lon="2.0902040">
        <ele>483.3</ele>
        <time>2022-09-26T12:10:37Z</time>
      </trkpt>
      <trkpt lat="41.6393510" lon="2.0902360">
        <ele>482.9</ele>
        <time>2022-09-26T12:10:38Z</time>
      </trkpt>
      <trkpt lat="41.6392890" lon="2.0902520">
        <ele>482.6</ele>
        <time>2022-09-26T12:10:39Z</time>
      </trkpt>
      <trkpt lat="41.6392280" lon="2.0902610">
        <ele>482.2</ele>
        <time>2022-09-26T12:10:40Z</time>
      </trkpt>
      <trkpt lat="41.6391710" lon="2.0902780">
        <ele>481.9</ele>
        <time>2022-09-26T12:10:41Z</time>
      </trkpt>
      <trkpt lat="41.6391170" lon="2.0903000">
        <ele>481.6</ele>
        <time>2022-09-26T12:10:42Z</time>
      </trkpt>
      <trkpt lat="41.6390650" lon="2.0903340">
        <ele>481.3</ele>
        <time>2022-09-26T12:10:43Z</time>
      </trkpt>
      <trkpt lat="41.6390320" lon="2.0903800">
        <ele>481.0</ele>
        <time>2022-09-26T12:10:44Z</time>
      </trkpt>
      <trkpt lat="41.6389880" lon="2.0904510">
        <ele>480.6</ele>
        <time>2022-09-26T12:10:45Z</time>
      </trkpt>
      <trkpt lat="41.6389490" lon="2.0905330">
        <ele>480.2</ele>
        <time>2022-09-26T12:10:46Z</time>
      </trkpt>
      <trkpt lat="41.6389100" lon="2.0906010">
        <ele>479.6</ele>
        <time>2022-09-26T12:10:47Z</time>
      </trkpt>
      <trkpt lat="41.6388680" lon="2.0906580">
        <ele>479.1</ele>
        <time>2022-09-26T12:10:48Z</time>
      </trkpt>
      <trkpt lat="41.6388250" lon="2.0906970">
        <ele>478.6</ele>
        <time>2022-09-26T12:10:49Z</time>
      </trkpt>
      <trkpt lat="41.6387810" lon="2.0906950">
        <ele>478.1</ele>
        <time>2022-09-26T12:10:50Z</time>
      </trkpt>
      <trkpt lat="41.6387220" lon="2.0906920">
        <ele>477.4</ele>
        <time>2022-09-26T12:10:51Z</time>
      </trkpt>
      <trkpt lat="41.6386570" lon="2.0906870">
        <ele>476.7</ele>
        <time>2022-09-26T12:10:52Z</time>
      </trkpt>
      <trkpt lat="41.6385900" lon="2.0906870">
        <ele>476.0</ele>
        <time>2022-09-26T12:10:53Z</time>
      </trkpt>
      <trkpt lat="41.6385230" lon="2.0906910">
        <ele>475.3</ele>
        <time>2022-09-26T12:10:54Z</time>
      </trkpt>
      <trkpt lat="41.6384570" lon="2.0907020">
        <ele>474.6</ele>
        <time>2022-09-26T12:10:55Z</time>
      </trkpt>
      <trkpt lat="41.6383880" lon="2.0907250">
        <ele>473.9</ele>
        <time>2022-09-26T12:10:56Z</time>
      </trkpt>
      <trkpt lat="41.6383180" lon="2.0907480">
        <ele>473.1</ele>
        <time>2022-09-26T12:10:57Z</time>
      </trkpt>
      <trkpt lat="41.6382450" lon="2.0907690">
        <ele>472.4</ele>
        <time>2022-09-26T12:10:58Z</time>
      </trkpt>
      <trkpt lat="41.6381750" lon="2.0907800">
        <ele>471.7</ele>
        <time>2022-09-26T12:10:59Z</time>
      </trkpt>
      <trkpt lat="41.6381030" lon="2.0907790">
        <ele>471.0</ele>
        <time>2022-09-26T12:11:00Z</time>
      </trkpt>
      <trkpt lat="41.6380300" lon="2.0907750">
        <ele>470.3</ele>
        <time>2022-09-26T12:11:01Z</time>
      </trkpt>
      <trkpt lat="41.6379580" lon="2.0907580">
        <ele>469.6</ele>
        <time>2022-09-26T12:11:02Z</time>
      </trkpt>
      <trkpt lat="41.6378820" lon="2.0907340">
        <ele>468.9</ele>
        <time>2022-09-26T12:11:03Z</time>
      </trkpt>
      <trkpt lat="41.6378060" lon="2.0907270">
        <ele>468.3</ele>
        <time>2022-09-26T12:11:04Z</time>
      </trkpt>
      <trkpt lat="41.6377330" lon="2.0907320">
        <ele>467.7</ele>
        <time>2022-09-26T12:11:05Z</time>
      </trkpt>
      <trkpt lat="41.6376750" lon="2.0907530">
        <ele>467.4</ele>
        <time>2022-09-26T12:11:06Z</time>
      </trkpt>
      <trkpt lat="41.6376450" lon="2.0907710">
        <ele>467.3</ele>
        <time>2022-09-26T12:11:07Z</time>
      </trkpt>
      <trkpt lat="41.6376070" lon="2.0907730">
        <ele>467.1</ele>
        <time>2022-09-26T12:11:08Z</time>
      </trkpt>
      <trkpt lat="41.6375790" lon="2.0907700">
        <ele>467.0</ele>
        <time>2022-09-26T12:11:09Z</time>
      </trkpt>
      <trkpt lat="41.6375460" lon="2.0907590">
        <ele>466.9</ele>
        <time>2022-09-26T12:11:10Z</time>
      </trkpt>
      <trkpt lat="41.6375040" lon="2.0907370">
        <ele>466.7</ele>
        <time>2022-09-26T12:11:11Z</time>
      </trkpt>
      <trkpt lat="41.6374610" lon="2.0906980">
        <ele>466.5</ele>
        <time>2022-09-26T12:11:12Z</time>
      </trkpt>
      <trkpt lat="41.6374280" lon="2.0906540">
        <ele>466.3</ele>
        <time>2022-09-26T12:11:13Z</time>
      </trkpt>
      <trkpt lat="41.6374000" lon="2.0905990">
        <ele>466.1</ele>
        <time>2022-09-26T12:11:14Z</time>
      </trkpt>
      <trkpt lat="41.6373910" lon="2.0905420">
        <ele>465.9</ele>
        <time>2022-09-26T12:11:15Z</time>
      </trkpt>
      <trkpt lat="41.6373830" lon="2.0904610">
        <ele>465.5</ele>
        <time>2022-09-26T12:11:16Z</time>
      </trkpt>
      <trkpt lat="41.6373680" lon="2.0903590">
        <ele>464.8</ele>
        <time>2022-09-26T12:11:17Z</time>
      </trkpt>
      <trkpt lat="41.6373490" lon="2.0902640">
        <ele>464.2</ele>
        <time>2022-09-26T12:11:18Z</time>
      </trkpt>
      <trkpt lat="41.6373200" lon="2.0901840">
        <ele>463.6</ele>
        <time>2022-09-26T12:11:19Z</time>
      </trkpt>
      <trkpt lat="41.6372820" lon="2.0901230">
        <ele>463.1</ele>
        <time>2022-09-26T12:11:20Z</time>
      </trkpt>
      <trkpt lat="41.6372250" lon="2.0900730">
        <ele>462.5</ele>
        <time>2022-09-26T12:11:21Z</time>
      </trkpt>
      <trkpt lat="41.6371640" lon="2.0900410">
        <ele>461.9</ele>
        <time>2022-09-26T12:11:22Z</time>
      </trkpt>
      <trkpt lat="41.6370990" lon="2.0900230">
        <ele>461.4</ele>
        <time>2022-09-26T12:11:23Z</time>
      </trkpt>
      <trkpt lat="41.6370310" lon="2.0900120">
        <ele>460.8</ele>
        <time>2022-09-26T12:11:24Z</time>
      </trkpt>
      <trkpt lat="41.6369630" lon="2.0899980">
        <ele>460.1</ele>
        <time>2022-09-26T12:11:25Z</time>
      </trkpt>
      <trkpt lat="41.6368950" lon="2.0899820">
        <ele>459.4</ele>
        <time>2022-09-26T12:11:26Z</time>
      </trkpt>
      <trkpt lat="41.6368300" lon="2.0899700">
        <ele>458.8</ele>
        <time>2022-09-26T12:11:27Z</time>
      </trkpt>
      <trkpt lat="41.6367700" lon="2.0899690">
        <ele>458.2</ele>
        <time>2022-09-26T12:11:28Z</time>
      </trkpt>
      <trkpt lat="41.6367070" lon="2.0899890">
        <ele>457.6</ele>
        <time>2022-09-26T12:11:29Z</time>
      </trkpt>
      <trkpt lat="41.6366470" lon="2.0900220">
        <ele>457.0</ele>
        <time>2022-09-26T12:11:30Z</time>
      </trkpt>
      <trkpt lat="41.6365910" lon="2.0900700">
        <ele>456.4</ele>
        <time>2022-09-26T12:11:31Z</time>
      </trkpt>
      <trkpt lat="41.6365380" lon="2.0901360">
        <ele>455.7</ele>
        <time>2022-09-26T12:11:32Z</time>
      </trkpt>
      <trkpt lat="41.6364810" lon="2.0902090">
        <ele>455.0</ele>
        <time>2022-09-26T12:11:33Z</time>
      </trkpt>
      <trkpt lat="41.6364210" lon="2.0902860">
        <ele>454.4</ele>
        <time>2022-09-26T12:11:34Z</time>
      </trkpt>
      <trkpt lat="41.6363610" lon="2.0903690">
        <ele>453.7</ele>
        <time>2022-09-26T12:11:35Z</time>
      </trkpt>
      <trkpt lat="41.6362970" lon="2.0904480">
        <ele>453.0</ele>
        <time>2022-09-26T12:11:36Z</time>
      </trkpt>
      <trkpt lat="41.6362280" lon="2.0905240">
        <ele>452.2</ele>
        <time>2022-09-26T12:11:37Z</time>
      </trkpt>
      <trkpt lat="41.6361680" lon="2.0905850">
        <ele>451.7</ele>
        <time>2022-09-26T12:11:38Z</time>
      </trkpt>
      <trkpt lat="41.6361120" lon="2.0906440">
        <ele>451.1</ele>
        <time>2022-09-26T12:11:39Z</time>
      </trkpt>
      <trkpt lat="41.6360550" lon="2.0906990">
        <ele>450.6</ele>
        <time>2022-09-26T12:11:40Z</time>
      </trkpt>
      <trkpt lat="41.6359890" lon="2.0907150">
        <ele>450.1</ele>
        <time>2022-09-26T12:11:41Z</time>
      </trkpt>
      <trkpt lat="41.6359050" lon="2.0906950">
        <ele>449.4</ele>
        <time>2022-09-26T12:11:42Z</time>
      </trkpt>
      <trkpt lat="41.6358090" lon="2.0906550">
        <ele>448.6</ele>
        <time>2022-09-26T12:11:43Z</time>
      </trkpt>
      <trkpt lat="41.6357130" lon="2.0906170">
        <ele>447.8</ele>
        <time>2022-09-26T12:11:44Z</time>
      </trkpt>
      <trkpt lat="41.6356190" lon="2.0905930">
        <ele>447.0</ele>
        <time>2022-09-26T12:11:45Z</time>
      </trkpt>
      <trkpt lat="41.6355260" lon="2.0905860">
        <ele>446.2</ele>
        <time>2022-09-26T12:11:46Z</time>
      </trkpt>
      <trkpt lat="41.6354330" lon="2.0905990">
        <ele>445.4</ele>
        <time>2022-09-26T12:11:47Z</time>
      </trkpt>
      <trkpt lat="41.6353390" lon="2.0906210">
        <ele>444.5</ele>
        <time>2022-09-26T12:11:48Z</time>
      </trkpt>
      <trkpt lat="41.6352400" lon="2.0906410">
        <ele>443.6</ele>
        <time>2022-09-26T12:11:49Z</time>
      </trkpt>
      <trkpt lat="41.6351410" lon="2.0906520">
        <ele>442.5</ele>
        <time>2022-09-26T12:11:50Z</time>
      </trkpt>
      <trkpt lat="41.6350460" lon="2.0906510">
        <ele>441.6</ele>
        <time>2022-09-26T12:11:51Z</time>
      </trkpt>
      <trkpt lat="41.6349500" lon="2.0906470">
        <ele>440.6</ele>
        <time>2022-09-26T12:11:52Z</time>
      </trkpt>
      <trkpt lat="41.6348560" lon="2.0906500">
        <ele>439.6</ele>
        <time>2022-09-26T12:11:53Z</time>
      </trkpt>
      <trkpt lat="41.6347700" lon="2.0906460">
        <ele>438.7</ele>
        <time>2022-09-26T12:11:54Z</time>
      </trkpt>
      <trkpt lat="41.6346960" lon="2.0906360">
        <ele>438.0</ele>
        <time>2022-09-26T12:11:55Z</time>
      </trkpt>
      <trkpt lat="41.6346250" lon="2.0906360">
        <ele>437.3</ele>
        <time>2022-09-26T12:11:56Z</time>
      </trkpt>
      <trkpt lat="41.6345510" lon="2.0906450">
        <ele>436.7</ele>
        <time>2022-09-26T12:11:57Z</time>
      </trkpt>
      <trkpt lat="41.6344760" lon="2.0906790">
        <ele>436.2</ele>
        <time>2022-09-26T12:11:58Z</time>
      </trkpt>
      <trkpt lat="41.6344070" lon="2.0907360">
        <ele>435.8</ele>
        <time>2022-09-26T12:11:59Z</time>
      </trkpt>
      <trkpt lat="41.6343450" lon="2.0907910">
        <ele>435.5</ele>
        <time>2022-09-26T12:12:00Z</time>
      </trkpt>
      <trkpt lat="41.6342880" lon="2.0908270">
        <ele>435.3</ele>
        <time>2022-09-26T12:12:01Z</time>
      </trkpt>
      <trkpt lat="41.6342410" lon="2.0908370">
        <ele>435.2</ele>
        <time>2022-09-26T12:12:02Z</time>
      </trkpt>
      <trkpt lat="41.6342030" lon="2.0908330">
        <ele>435.0</ele>
        <time>2022-09-26T12:12:03Z</time>
      </trkpt>
      <trkpt lat="41.6341870" lon="2.0908290">
        <ele>435.0</ele>
        <time>2022-09-26T12:12:04Z</time>
      </trkpt>
      <trkpt lat="41.6341580" lon="2.0908040">
        <ele>434.9</ele>
        <time>2022-09-26T12:12:05Z</time>
      </trkpt>
      <trkpt lat="41.6341220" lon="2.0907530">
        <ele>434.7</ele>
        <time>2022-09-26T12:12:06Z</time>
      </trkpt>
      <trkpt lat="41.6340720" lon="2.0906880">
        <ele>434.4</ele>
        <time>2022-09-26T12:12:07Z</time>
      </trkpt>
      <trkpt lat="41.6340110" lon="2.0906290">
        <ele>434.0</ele>
        <time>2022-09-26T12:12:08Z</time>
      </trkpt>
      <trkpt lat="41.6339470" lon="2.0905760">
        <ele>433.6</ele>
        <time>2022-09-26T12:12:09Z</time>
      </trkpt>
      <trkpt lat="41.6338830" lon="2.0905190">
        <ele>433.0</ele>
        <time>2022-09-26T12:12:10Z</time>
      </trkpt>
      <trkpt lat="41.6338240" lon="2.0904500">
        <ele>432.3</ele>
        <time>2022-09-26T12:12:11Z</time>
      </trkpt>
      <trkpt lat="41.6337670" lon="2.0903680">
        <ele>431.5</ele>
        <time>2022-09-26T12:12:12Z</time>
      </trkpt>
      <trkpt lat="41.6337080" lon="2.0902810">
        <ele>430.7</ele>
        <time>2022-09-26T12:12:13Z</time>
      </trkpt>
      <trkpt lat="41.6336370" lon="2.0902090">
        <ele>429.9</ele>
        <time>2022-09-26T12:12:14Z</time>
      </trkpt>
      <trkpt lat="41.6335530" lon="2.0901570">
        <ele>429.1</ele>
        <time>2022-09-26T12:12:15Z</time>
      </trkpt>
      <trkpt lat="41.6334620" lon="2.0901150">
        <ele>428.4</ele>
        <time>2022-09-26T12:12:16Z</time>
      </trkpt>
      <trkpt lat="41.6333750" lon="2.0900680">
        <ele>427.7</ele>
        <time>2022-09-26T12:12:17Z</time>
      </trkpt>
      <trkpt lat="41.6332860" lon="2.0900150">
        <ele>427.0</ele>
        <time>2022-09-26T12:12:18Z</time>
      </trkpt>
      <trkpt lat="41.6331920" lon="2.0899630">
        <ele>426.1</ele>
        <time>2022-09-26T12:12:19Z</time>
      </trkpt>
      <trkpt lat="41.6330940" lon="2.0899210">
        <ele>425.2</ele>
        <time>2022-09-26T12:12:20Z</time>
      </trkpt>
      <trkpt lat="41.6329960" lon="2.0898900">
        <ele>424.2</ele>
        <time>2022-09-26T12:12:21Z</time>
      </trkpt>
      <trkpt lat="41.6329020" lon="2.0898690">
        <ele>423.4</ele>
        <time>2022-09-26T12:12:22Z</time>
      </trkpt>
      <trkpt lat="41.6328090" lon="2.0898560">
        <ele>422.5</ele>
        <time>2022-09-26T12:12:23Z</time>
      </trkpt>
      <trkpt lat="41.6327210" lon="2.0898390">
        <ele>421.7</ele>
        <time>2022-09-26T12:12:24Z</time>
      </trkpt>
      <trkpt lat="41.6326410" lon="2.0898220">
        <ele>420.9</ele>
        <time>2022-09-26T12:12:25Z</time>
      </trkpt>
      <trkpt lat="41.6325720" lon="2.0898120">
        <ele>420.3</ele>
        <time>2022-09-26T12:12:26Z</time>
      </trkpt>
      <trkpt lat="41.6325160" lon="2.0898050">
        <ele>419.7</ele>
        <time>2022-09-26T12:12:27Z</time>
      </trkpt>
      <trkpt lat="41.6324690" lon="2.0898000">
        <ele>419.2</ele>
        <time>2022-09-26T12:12:28Z</time>
      </trkpt>
      <trkpt lat="41.6324170" lon="2.0897980">
        <ele>418.6</ele>
        <time>2022-09-26T12:12:29Z</time>
      </trkpt>
      <trkpt lat="41.6323900" lon="2.0897990">
        <ele>418.3</ele>
        <time>2022-09-26T12:12:30Z</time>
      </trkpt>
      <trkpt lat="41.6323390" lon="2.0898110">
        <ele>417.8</ele>
        <time>2022-09-26T12:12:31Z</time>
      </trkpt>
      <trkpt lat="41.6322910" lon="2.0898370">
        <ele>417.3</ele>
        <time>2022-09-26T12:12:32Z</time>
      </trkpt>
      <trkpt lat="41.6322340" lon="2.0898620">
        <ele>416.8</ele>
        <time>2022-09-26T12:12:33Z</time>
      </trkpt>
      <trkpt lat="41.6321750" lon="2.0898890">
        <ele>416.4</ele>
        <time>2022-09-26T12:12:34Z</time>
      </trkpt>
      <trkpt lat="41.6321190" lon="2.0899000">
        <ele>416.0</ele>
        <time>2022-09-26T12:12:35Z</time>
      </trkpt>
      <trkpt lat="41.6320760" lon="2.0898910">
        <ele>415.7</ele>
        <time>2022-09-26T12:12:36Z</time>
      </trkpt>
      <trkpt lat="41.6320310" lon="2.0898590">
        <ele>415.3</ele>
        <time>2022-09-26T12:12:37Z</time>
      </trkpt>
      <trkpt lat="41.6319870" lon="2.0898110">
        <ele>415.0</ele>
        <time>2022-09-26T12:12:38Z</time>
      </trkpt>
      <trkpt lat="41.6319500" lon="2.0897370">
        <ele>414.5</ele>
        <time>2022-09-26T12:12:39Z</time>
      </trkpt>
      <trkpt lat="41.6319140" lon="2.0896480">
        <ele>414.0</ele>
        <time>2022-09-26T12:12:40Z</time>
      </trkpt>
      <trkpt lat="41.6318630" lon="2.0895620">
        <ele>413.5</ele>
        <time>2022-09-26T12:12:41Z</time>
      </trkpt>
      <trkpt lat="41.6317830" lon="2.0894730">
        <ele>412.8</ele>
        <time>2022-09-26T12:12:42Z</time>
      </trkpt>
      <trkpt lat="41.6316940" lon="2.0894080">
        <ele>412.0</ele>
        <time>2022-09-26T12:12:43Z</time>
      </trkpt>
      <trkpt lat="41.6316000" lon="2.0893830">
        <ele>411.3</ele>
        <time>2022-09-26T12:12:44Z</time>
      </trkpt>
      <trkpt lat="41.6315080" lon="2.0893760">
        <ele>410.7</ele>
        <time>2022-09-26T12:12:45Z</time>
      </trkpt>
      <trkpt lat="41.6314190" lon="2.0893960">
        <ele>410.1</ele>
        <time>2022-09-26T12:12:46Z</time>
      </trkpt>
      <trkpt lat="41.6313380" lon="2.0894290">
        <ele>409.4</ele>
        <time>2022-09-26T12:12:47Z</time>
      </trkpt>
      <trkpt lat="41.6312540" lon="2.0894650">
        <ele>408.7</ele>
        <time>2022-09-26T12:12:48Z</time>
      </trkpt>
      <trkpt lat="41.6311750" lon="2.0894980">
        <ele>407.9</ele>
        <time>2022-09-26T12:12:49Z</time>
      </trkpt>
      <trkpt lat="41.6310880" lon="2.0895300">
        <ele>407.1</ele>
        <time>2022-09-26T12:12:50Z</time>
      </trkpt>
      <trkpt lat="41.6310020" lon="2.0895770">
        <ele>406.2</ele>
        <time>2022-09-26T12:12:51Z</time>
      </trkpt>
      <trkpt lat="41.6309200" lon="2.0896350">
        <ele>405.4</ele>
        <time>2022-09-26T12:12:52Z</time>
      </trkpt>
      <trkpt lat="41.6308340" lon="2.0896970">
        <ele>404.6</ele>
        <time>2022-09-26T12:12:53Z</time>
      </trkpt>
      <trkpt lat="41.6307440" lon="2.0897520">
        <ele>403.8</ele>
        <time>2022-09-26T12:12:54Z</time>
      </trkpt>
      <trkpt lat="41.6306450" lon="2.0897950">
        <ele>403.0</ele>
        <time>2022-09-26T12:12:55Z</time>
      </trkpt>
      <trkpt lat="41.6305400" lon="2.0898280">
        <ele>402.3</ele>
        <time>2022-09-26T12:12:56Z</time>
      </trkpt>
      <trkpt lat="41.6304350" lon="2.0898570">
        <ele>401.5</ele>
        <time>2022-09-26T12:12:57Z</time>
      </trkpt>
      <trkpt lat="41.6303320" lon="2.0898860">
        <ele>400.8</ele>
        <time>2022-09-26T12:12:58Z</time>
      </trkpt>
      <trkpt lat="41.6302370" lon="2.0899190">
        <ele>400.0</ele>
        <time>2022-09-26T12:12:59Z</time>
      </trkpt>
      <trkpt lat="41.6301510" lon="2.0899510">
        <ele>399.2</ele>
        <time>2022-09-26T12:13:00Z</time>
      </trkpt>
      <trkpt lat="41.6300740" lon="2.0899760">
        <ele>398.6</ele>
        <time>2022-09-26T12:13:01Z</time>
      </trkpt>
      <trkpt lat="41.6300060" lon="2.0900020">
        <ele>398.0</ele>
        <time>2022-09-26T12:13:02Z</time>
      </trkpt>
      <trkpt lat="41.6299500" lon="2.0900360">
        <ele>397.5</ele>
        <time>2022-09-26T12:13:03Z</time>
      </trkpt>
      <trkpt lat="41.6299070" lon="2.0900600">
        <ele>397.1</ele>
        <time>2022-09-26T12:13:04Z</time>
      </trkpt>
      <trkpt lat="41.6298740" lon="2.0900700">
        <ele>396.8</ele>
        <time>2022-09-26T12:13:05Z</time>
      </trkpt>
      <trkpt lat="41.6298610" lon="2.0900720">
        <ele>396.7</ele>
        <time>2022-09-26T12:13:06Z</time>
      </trkpt>
      <trkpt lat="41.6298220" lon="2.0900590">
        <ele>396.3</ele>
        <time>2022-09-26T12:13:07Z</time>
      </trkpt>
      <trkpt lat="41.6298000" lon="2.0900260">
        <ele>396.0</ele>
        <time>2022-09-26T12:13:08Z</time>
      </trkpt>
      <trkpt lat="41.6297530" lon="2.0899590">
        <ele>395.3</ele>
        <time>2022-09-26T12:13:09Z</time>
      </trkpt>
      <trkpt lat="41.6297080" lon="2.0898880">
        <ele>394.6</ele>
        <time>2022-09-26T12:13:10Z</time>
      </trkpt>
      <trkpt lat="41.6296640" lon="2.0898250">
        <ele>393.9</ele>
        <time>2022-09-26T12:13:11Z</time>
      </trkpt>
      <trkpt lat="41.6296160" lon="2.0897750">
        <ele>393.3</ele>
        <time>2022-09-26T12:13:12Z</time>
      </trkpt>
      <trkpt lat="41.6295690" lon="2.0897350">
        <ele>392.7</ele>
        <time>2022-09-26T12:13:13Z</time>
      </trkpt>
      <trkpt lat="41.6295080" lon="2.0897050">
        <ele>392.1</ele>
        <time>2022-09-26T12:13:14Z</time>
      </trkpt>
      <trkpt lat="41.6294490" lon="2.0896800">
        <ele>391.5</ele>
        <time>2022-09-26T12:13:15Z</time>
      </trkpt>
      <trkpt lat="41.6293880" lon="2.0896580">
        <ele>390.8</ele>
        <time>2022-09-26T12:13:16Z</time>
      </trkpt>
      <trkpt lat="41.6293420" lon="2.0896410">
        <ele>390.4</ele>
        <time>2022-09-26T12:13:17Z</time>
      </trkpt>
      <trkpt lat="41.6292630" lon="2.0896310">
        <ele>389.7</ele>
        <time>2022-09-26T12:13:18Z</time>
      </trkpt>
      <trkpt lat="41.6291840" lon="2.0896450">
        <ele>389.0</ele>
        <time>2022-09-26T12:13:19Z</time>
      </trkpt>
      <trkpt lat="41.6291140" lon="2.0896770">
        <ele>388.5</ele>
        <time>2022-09-26T12:13:20Z</time>
      </trkpt>
      <trkpt lat="41.6290440" lon="2.0897210">
        <ele>388.0</ele>
        <time>2022-09-26T12:13:21Z</time>
      </trkpt>
      <trkpt lat="41.6289790" lon="2.0897680">
        <ele>387.6</ele>
        <time>2022-09-26T12:13:22Z</time>
      </trkpt>
      <trkpt lat="41.6289120" lon="2.0898150">
        <ele>387.1</ele>
        <time>2022-09-26T12:13:23Z</time>
      </trkpt>
      <trkpt lat="41.6288420" lon="2.0898580">
        <ele>386.7</ele>
        <time>2022-09-26T12:13:24Z</time>
      </trkpt>
      <trkpt lat="41.6287720" lon="2.0898990">
        <ele>386.3</ele>
        <time>2022-09-26T12:13:25Z</time>
      </trkpt>
      <trkpt lat="41.6287030" lon="2.0899410">
        <ele>385.8</ele>
        <time>2022-09-26T12:13:26Z</time>
      </trkpt>
      <trkpt lat="41.6286320" lon="2.0899680">
        <ele>385.4</ele>
        <time>2022-09-26T12:13:27Z</time>
      </trkpt>
      <trkpt lat="41.6285640" lon="2.0899830">
        <ele>385.1</ele>
        <time>2022-09-26T12:13:28Z</time>
      </trkpt>
      <trkpt lat="41.6284710" lon="2.0899910">
        <ele>384.6</ele>
        <time>2022-09-26T12:13:29Z</time>
      </trkpt>
      <trkpt lat="41.6283710" lon="2.0899880">
        <ele>384.1</ele>
        <time>2022-09-26T12:13:30Z</time>
      </trkpt>
      <trkpt lat="41.6282770" lon="2.0899720">
        <ele>383.5</ele>
        <time>2022-09-26T12:13:31Z</time>
      </trkpt>
      <trkpt lat="41.6281830" lon="2.0899490">
        <ele>382.9</ele>
        <time>2022-09-26T12:13:32Z</time>
      </trkpt>
      <trkpt lat="41.6280920" lon="2.0899240">
        <ele>382.1</ele>
        <time>2022-09-26T12:13:33Z</time>
      </trkpt>
      <trkpt lat="41.6280040" lon="2.0898890">
        <ele>381.4</ele>
        <time>2022-09-26T12:13:34Z</time>
      </trkpt>
      <trkpt lat="41.6279090" lon="2.0898570">
        <ele>380.6</ele>
        <time>2022-09-26T12:13:35Z</time>
      </trkpt>
      <trkpt lat="41.6278060" lon="2.0898230">
        <ele>379.7</ele>
        <time>2022-09-26T12:13:36Z</time>
      </trkpt>
      <trkpt lat="41.6276890" lon="2.0897890">
        <ele>378.7</ele>
        <time>2022-09-26T12:13:37Z</time>
      </trkpt>
      <trkpt lat="41.6275670" lon="2.0897600">
        <ele>377.7</ele>
        <time>2022-09-26T12:13:38Z</time>
      </trkpt>
      <trkpt lat="41.6274480" lon="2.0897300">
        <ele>376.8</ele>
        <time>2022-09-26T12:13:39Z</time>
      </trkpt>
      <trkpt lat="41.6273350" lon="2.0897020">
        <ele>376.1</ele>
        <time>2022-09-26T12:13:40Z</time>
      </trkpt>
      <trkpt lat="41.6272290" lon="2.0896650">
        <ele>375.5</ele>
        <time>2022-09-26T12:13:41Z</time>
      </trkpt>
      <trkpt lat="41.6271400" lon="2.0896310">
        <ele>375.0</ele>
        <time>2022-09-26T12:13:42Z</time>
      </trkpt>
      <trkpt lat="41.6270540" lon="2.0896060">
        <ele>374.5</ele>
        <time>2022-09-26T12:13:43Z</time>
      </trkpt>
      <trkpt lat="41.6269680" lon="2.0895950">
        <ele>374.0</ele>
        <time>2022-09-26T12:13:44Z</time>
      </trkpt>
      <trkpt lat="41.6268830" lon="2.0896000">
        <ele>373.3</ele>
        <time>2022-09-26T12:13:45Z</time>
      </trkpt>
      <trkpt lat="41.6267980" lon="2.0896140">
        <ele>372.7</ele>
        <time>2022-09-26T12:13:46Z</time>
      </trkpt>
      <trkpt lat="41.6267150" lon="2.0896400">
        <ele>372.0</ele>
        <time>2022-09-26T12:13:47Z</time>
      </trkpt>
      <trkpt lat="41.6266280" lon="2.0896800">
        <ele>371.4</ele>
        <time>2022-09-26T12:13:48Z</time>
      </trkpt>
      <trkpt lat="41.6265480" lon="2.0897170">
        <ele>370.7</ele>
        <time>2022-09-26T12:13:49Z</time>
      </trkpt>
      <trkpt lat="41.6264680" lon="2.0897300">
        <ele>370.1</ele>
        <time>2022-09-26T12:13:50Z</time>
      </trkpt>
      <trkpt lat="41.6263860" lon="2.0897160">
        <ele>369.4</ele>
        <time>2022-09-26T12:13:51Z</time>
      </trkpt>
      <trkpt lat="41.6263120" lon="2.0896830">
        <ele>368.8</ele>
        <time>2022-09-26T12:13:52Z</time>
      </trkpt>
      <trkpt lat="41.6262370" lon="2.0896450">
        <ele>368.1</ele>
        <time>2022-09-26T12:13:53Z</time>
      </trkpt>
      <trkpt lat="41.6261540" lon="2.0896110">
        <ele>367.4</ele>
        <time>2022-09-26T12:13:54Z</time>
      </trkpt>
      <trkpt lat="41.6260680" lon="2.0895760">
        <ele>366.7</ele>
        <time>2022-09-26T12:13:55Z</time>
      </trkpt>
      <trkpt lat="41.6259820" lon="2.0895330">
        <ele>366.0</ele>
        <time>2022-09-26T12:13:56Z</time>
      </trkpt>
      <trkpt lat="41.6258920" lon="2.0894870">
        <ele>365.5</ele>
        <time>2022-09-26T12:13:57Z</time>
      </trkpt>
      <trkpt lat="41.6258020" lon="2.0894390">
        <ele>365.0</ele>
        <time>2022-09-26T12:13:58Z</time>
      </trkpt>
      <trkpt lat="41.6257200" lon="2.0893870">
        <ele>364.6</ele>
        <time>2022-09-26T12:13:59Z</time>
      </trkpt>
      <trkpt lat="41.6256400" lon="2.0893300">
        <ele>364.2</ele>
        <time>2022-09-26T12:14:00Z</time>
      </trkpt>
      <trkpt lat="41.6255590" lon="2.0892740">
        <ele>363.9</ele>
        <time>2022-09-26T12:14:01Z</time>
      </trkpt>
      <trkpt lat="41.6254770" lon="2.0892210">
        <ele>363.5</ele>
        <time>2022-09-26T12:14:02Z</time>
      </trkpt>
      <trkpt lat="41.6253990" lon="2.0891700">
        <ele>363.2</ele>
        <time>2022-09-26T12:14:03Z</time>
      </trkpt>
      <trkpt lat="41.6253260" lon="2.0891180">
        <ele>363.0</ele>
        <time>2022-09-26T12:14:04Z</time>
      </trkpt>
      <trkpt lat="41.6252530" lon="2.0890640">
        <ele>362.8</ele>
        <time>2022-09-26T12:14:05Z</time>
      </trkpt>
      <trkpt lat="41.6251850" lon="2.0890060">
        <ele>362.6</ele>
        <time>2022-09-26T12:14:06Z</time>
      </trkpt>
      <trkpt lat="41.6251140" lon="2.0889510">
        <ele>362.5</ele>
        <time>2022-09-26T12:14:07Z</time>
      </trkpt>
      <trkpt lat="41.6250380" lon="2.0889040">
        <ele>362.4</ele>
        <time>2022-09-26T12:14:08Z</time>
      </trkpt>
      <trkpt lat="41.6249590" lon="2.0888590">
        <ele>362.4</ele>
        <time>2022-09-26T12:14:09Z</time>
      </trkpt>
      <trkpt lat="41.6248790" lon="2.0888150">
        <ele>362.4</ele>
        <time>2022-09-26T12:14:10Z</time>
      </trkpt>
      <trkpt lat="41.6248010" lon="2.0887720">
        <ele>362.4</ele>
        <time>2022-09-26T12:14:11Z</time>
      </trkpt>
      <trkpt lat="41.6247310" lon="2.0887330">
        <ele>362.4</ele>
        <time>2022-09-26T12:14:12Z</time>
      </trkpt>
      <trkpt lat="41.6246670" lon="2.0887020">
        <ele>362.5</ele>
        <time>2022-09-26T12:14:13Z</time>
      </trkpt>
      <trkpt lat="41.6246020" lon="2.0886710">
        <ele>362.5</ele>
        <time>2022-09-26T12:14:14Z</time>
      </trkpt>
      <trkpt lat="41.6245390" lon="2.0886360">
        <ele>362.5</ele>
        <time>2022-09-26T12:14:15Z</time>
      </trkpt>
      <trkpt lat="41.6244750" lon="2.0885980">
        <ele>362.6</ele>
        <time>2022-09-26T12:14:16Z</time>
      </trkpt>
      <trkpt lat="41.6244070" lon="2.0885610">
        <ele>362.6</ele>
        <time>2022-09-26T12:14:17Z</time>
      </trkpt>
      <trkpt lat="41.6243340" lon="2.0885280">
        <ele>362.6</ele>
        <time>2022-09-26T12:14:18Z</time>
      </trkpt>
      <trkpt lat="41.6242660" lon="2.0885000">
        <ele>362.6</ele>
        <time>2022-09-26T12:14:19Z</time>
      </trkpt>
      <trkpt lat="41.6241990" lon="2.0884790">
        <ele>362.6</ele>
        <time>2022-09-26T12:14:20Z</time>
      </trkpt>
      <trkpt lat="41.6241300" lon="2.0884630">
        <ele>362.6</ele>
        <time>2022-09-26T12:14:21Z</time>
      </trkpt>
      <trkpt lat="41.6240620" lon="2.0884550">
        <ele>362.6</ele>
        <time>2022-09-26T12:14:22Z</time>
      </trkpt>
      <trkpt lat="41.6239970" lon="2.0884450">
        <ele>362.5</ele>
        <time>2022-09-26T12:14:23Z</time>
      </trkpt>
      <trkpt lat="41.6239290" lon="2.0884310">
        <ele>362.4</ele>
        <time>2022-09-26T12:14:24Z</time>
      </trkpt>
      <trkpt lat="41.6238620" lon="2.0884110">
        <ele>362.2</ele>
        <time>2022-09-26T12:14:25Z</time>
      </trkpt>
      <trkpt lat="41.6237930" lon="2.0883850">
        <ele>362.0</ele>
        <time>2022-09-26T12:14:26Z</time>
      </trkpt>
      <trkpt lat="41.6237250" lon="2.0883580">
        <ele>361.8</ele>
        <time>2022-09-26T12:14:27Z</time>
      </trkpt>
      <trkpt lat="41.6236620" lon="2.0883310">
        <ele>361.5</ele>
        <time>2022-09-26T12:14:28Z</time>
      </trkpt>
      <trkpt lat="41.6235950" lon="2.0883070">
        <ele>361.1</ele>
        <time>2022-09-26T12:14:29Z</time>
      </trkpt>
      <trkpt lat="41.6235300" lon="2.0882900">
        <ele>360.5</ele>
        <time>2022-09-26T12:14:30Z</time>
      </trkpt>
      <trkpt lat="41.6234600" lon="2.0882730">
        <ele>359.9</ele>
        <time>2022-09-26T12:14:31Z</time>
      </trkpt>
      <trkpt lat="41.6233840" lon="2.0882560">
        <ele>359.2</ele>
        <time>2022-09-26T12:14:32Z</time>
      </trkpt>
      <trkpt lat="41.6233040" lon="2.0882400">
        <ele>358.6</ele>
        <time>2022-09-26T12:14:33Z</time>
      </trkpt>
      <trkpt lat="41.6232190" lon="2.0882240">
        <ele>358.0</ele>
        <time>2022-09-26T12:14:34Z</time>
      </trkpt>
      <trkpt lat="41.6231310" lon="2.0882070">
        <ele>357.5</ele>
        <time>2022-09-26T12:14:35Z</time>
      </trkpt>
      <trkpt lat="41.6230440" lon="2.0881880">
        <ele>357.1</ele>
        <time>2022-09-26T12:14:36Z</time>
      </trkpt>
      <trkpt lat="41.6229580" lon="2.0881720">
        <ele>356.8</ele>
        <time>2022-09-26T12:14:37Z</time>
      </trkpt>
      <trkpt lat="41.6228740" lon="2.0881660">
        <ele>356.6</ele>
        <time>2022-09-26T12:14:38Z</time>
      </trkpt>
      <trkpt lat="41.6227910" lon="2.0881710">
        <ele>356.4</ele>
        <time>2022-09-26T12:14:39Z</time>
      </trkpt>
      <trkpt lat="41.6227130" lon="2.0881910">
        <ele>356.3</ele>
        <time>2022-09-26T12:14:40Z</time>
      </trkpt>
      <trkpt lat="41.6226390" lon="2.0882230">
        <ele>356.3</ele>
        <time>2022-09-26T12:14:41Z</time>
      </trkpt>
      <trkpt lat="41.6225700" lon="2.0882620">
        <ele>356.2</ele>
        <time>2022-09-26T12:14:42Z</time>
      </trkpt>
      <trkpt lat="41.6225060" lon="2.0883050">
        <ele>356.2</ele>
        <time>2022-09-26T12:14:43Z</time>
      </trkpt>
      <trkpt lat="41.6224450" lon="2.0883530">
        <ele>356.2</ele>
        <time>2022-09-26T12:14:44Z</time>
      </trkpt>
      <trkpt lat="41.6223910" lon="2.0884070">
        <ele>356.2</ele>
        <time>2022-09-26T12:14:45Z</time>
      </trkpt>
      <trkpt lat="41.6223390" lon="2.0884620">
        <ele>356.1</ele>
        <time>2022-09-26T12:14:46Z</time>
      </trkpt>
      <trkpt lat="41.6222870" lon="2.0885160">
        <ele>356.1</ele>
        <time>2022-09-26T12:14:47Z</time>
      </trkpt>
      <trkpt lat="41.6222370" lon="2.0885650">
        <ele>356.1</ele>
        <time>2022-09-26T12:14:48Z</time>
      </trkpt>
      <trkpt lat="41.6221860" lon="2.0886160">
        <ele>356.1</ele>
        <time>2022-09-26T12:14:49Z</time>
      </trkpt>
      <trkpt lat="41.6221340" lon="2.0886650">
        <ele>356.1</ele>
        <time>2022-09-26T12:14:50Z</time>
      </trkpt>
      <trkpt lat="41.6220850" lon="2.0887140">
        <ele>356.1</ele>
        <time>2022-09-26T12:14:51Z</time>
      </trkpt>
      <trkpt lat="41.6220340" lon="2.0887620">
        <ele>356.1</ele>
        <time>2022-09-26T12:14:52Z</time>
      </trkpt>
      <trkpt lat="41.6219830" lon="2.0888110">
        <ele>356.2</ele>
        <time>2022-09-26T12:14:53Z</time>
      </trkpt>
      <trkpt lat="41.6219350" lon="2.0888590">
        <ele>356.2</ele>
        <time>2022-09-26T12:14:54Z</time>
      </trkpt>
      <trkpt lat="41.6218880" lon="2.0889070">
        <ele>356.3</ele>
        <time>2022-09-26T12:14:55Z</time>
      </trkpt>
      <trkpt lat="41.6218420" lon="2.0889550">
        <ele>356.4</ele>
        <time>2022-09-26T12:14:56Z</time>
      </trkpt>
      <trkpt lat="41.6217980" lon="2.0890000">
        <ele>356.5</ele>
        <time>2022-09-26T12:14:57Z</time>
      </trkpt>
      <trkpt lat="41.6217580" lon="2.0890410">
        <ele>356.5</ele>
        <time>2022-09-26T12:14:58Z</time>
      </trkpt>
      <trkpt lat="41.6217210" lon="2.0890780">
        <ele>356.6</ele>
        <time>2022-09-26T12:14:59Z</time>
      </trkpt>
      <trkpt lat="41.6216920" lon="2.0891080">
        <ele>356.6</ele>
        <time>2022-09-26T12:15:00Z</time>
      </trkpt>
      <trkpt lat="41.6216660" lon="2.0891330">
        <ele>356.7</ele>
        <time>2022-09-26T12:15:01Z</time>
      </trkpt>
      <trkpt lat="41.6216380" lon="2.0891600">
        <ele>356.7</ele>
        <time>2022-09-26T12:15:02Z</time>
      </trkpt>
      <trkpt lat="41.6216070" lon="2.0891930">
        <ele>356.8</ele>
        <time>2022-09-26T12:15:03Z</time>
      </trkpt>
      <trkpt lat="41.6215700" lon="2.0892340">
        <ele>356.8</ele>
        <time>2022-09-26T12:15:04Z</time>
      </trkpt>
      <trkpt lat="41.6215280" lon="2.0892770">
        <ele>356.8</ele>
        <time>2022-09-26T12:15:05Z</time>
      </trkpt>
      <trkpt lat="41.6214840" lon="2.0893200">
        <ele>356.8</ele>
        <time>2022-09-26T12:15:06Z</time>
      </trkpt>
      <trkpt lat="41.6214420" lon="2.0893610">
        <ele>356.8</ele>
        <time>2022-09-26T12:15:07Z</time>
      </trkpt>
      <trkpt lat="41.6213970" lon="2.0894030">
        <ele>356.8</ele>
        <time>2022-09-26T12:15:08Z</time>
      </trkpt>
      <trkpt lat="41.6213530" lon="2.0894450">
        <ele>356.7</ele>
        <time>2022-09-26T12:15:09Z</time>
      </trkpt>
      <trkpt lat="41.6213100" lon="2.0894890">
        <ele>356.7</ele>
        <time>2022-09-26T12:15:10Z</time>
      </trkpt>
      <trkpt lat="41.6212680" lon="2.0895340">
        <ele>356.7</ele>
        <time>2022-09-26T12:15:11Z</time>
      </trkpt>
      <trkpt lat="41.6212300" lon="2.0895780">
        <ele>356.7</ele>
        <time>2022-09-26T12:15:12Z</time>
      </trkpt>
      <trkpt lat="41.6211920" lon="2.0896230">
        <ele>356.7</ele>
        <time>2022-09-26T12:15:13Z</time>
      </trkpt>
      <trkpt lat="41.6211560" lon="2.0896700">
        <ele>356.7</ele>
        <time>2022-09-26T12:15:14Z</time>
      </trkpt>
      <trkpt lat="41.6211250" lon="2.0897200">
        <ele>356.6</ele>
        <time>2022-09-26T12:15:15Z</time>
      </trkpt>
      <trkpt lat="41.6211010" lon="2.0897740">
        <ele>356.6</ele>
        <time>2022-09-26T12:15:16Z</time>
      </trkpt>
      <trkpt lat="41.6210850" lon="2.0898310">
        <ele>356.6</ele>
        <time>2022-09-26T12:15:17Z</time>
      </trkpt>
      <trkpt lat="41.6210780" lon="2.0898920">
        <ele>356.6</ele>
        <time>2022-09-26T12:15:18Z</time>
      </trkpt>
      <trkpt lat="41.6210730" lon="2.0899530">
        <ele>356.7</ele>
        <time>2022-09-26T12:15:19Z</time>
      </trkpt>
      <trkpt lat="41.6210580" lon="2.0900090">
        <ele>356.7</ele>
        <time>2022-09-26T12:15:20Z</time>
      </trkpt>
      <trkpt lat="41.6210300" lon="2.0900500">
        <ele>356.7</ele>
        <time>2022-09-26T12:15:21Z</time>
      </trkpt>
      <trkpt lat="41.6209960" lon="2.0900710">
        <ele>356.7</ele>
        <time>2022-09-26T12:15:22Z</time>
      </trkpt>
      <trkpt lat="41.6209560" lon="2.0900800">
        <ele>356.7</ele>
        <time>2022-09-26T12:15:23Z</time>
      </trkpt>
      <trkpt lat="41.6209230" lon="2.0900810">
        <ele>356.7</ele>
        <time>2022-09-26T12:15:24Z</time>
      </trkpt>
      <trkpt lat="41.6208860" lon="2.0900810">
        <ele>356.7</ele>
        <time>2022-09-26T12:15:25Z</time>
      </trkpt>
      <trkpt lat="41.6208510" lon="2.0900690">
        <ele>356.8</ele>
        <time>2022-09-26T12:15:26Z</time>
      </trkpt>
      <trkpt lat="41.6208340" lon="2.0900620">
        <ele>356.8</ele>
        <time>2022-09-26T12:15:27Z</time>
      </trkpt>
      <trkpt lat="41.6208020" lon="2.0900410">
        <ele>356.8</ele>
        <time>2022-09-26T12:15:28Z</time>
      </trkpt>
      <trkpt lat="41.6207870" lon="2.0900310">
        <ele>356.8</ele>
        <time>2022-09-26T12:15:29Z</time>
      </trkpt>
      <trkpt lat="41.6207570" lon="2.0900050">
        <ele>356.9</ele>
        <time>2022-09-26T12:15:30Z</time>
      </trkpt>
      <trkpt lat="41.6207320" lon="2.0899770">
        <ele>357.0</ele>
        <time>2022-09-26T12:15:31Z</time>
      </trkpt>
      <trkpt lat="41.6207090" lon="2.0899520">
        <ele>357.0</ele>
        <time>2022-09-26T12:15:32Z</time>
      </trkpt>
      <trkpt lat="41.6206840" lon="2.0899140">
        <ele>357.2</ele>
        <time>2022-09-26T12:15:33Z</time>
      </trkpt>
      <trkpt lat="41.6206750" lon="2.0898980">
        <ele>357.2</ele>
        <time>2022-09-26T12:15:34Z</time>
      </trkpt>
      <trkpt lat="41.6206600" lon="2.0898680">
        <ele>357.3</ele>
        <time>2022-09-26T12:15:35Z</time>
      </trkpt>
      <trkpt lat="41.6206540" lon="2.0898550">
        <ele>357.4</ele>
        <time>2022-09-26T12:15:36Z</time>
      </trkpt>
      <trkpt lat="41.6206350" lon="2.0898250">
        <ele>357.5</ele>
        <time>2022-09-26T12:15:37Z</time>
      </trkpt>
      <trkpt lat="41.6206140" lon="2.0897950">
        <ele>357.6</ele>
        <time>2022-09-26T12:15:38Z</time>
      </trkpt>
      <trkpt lat="41.6205920" lon="2.0897600">
        <ele>357.8</ele>
        <time>2022-09-26T12:15:39Z</time>
      </trkpt>
      <trkpt lat="41.6205810" lon="2.0897430">
        <ele>357.9</ele>
        <time>2022-09-26T12:15:40Z</time>
      </trkpt>
      <trkpt lat="41.6205590" lon="2.0897060">
        <ele>358.1</ele>
        <time>2022-09-26T12:15:41Z</time>
      </trkpt>
      <trkpt lat="41.6205490" lon="2.0896870">
        <ele>358.2</ele>
        <time>2022-09-26T12:15:42Z</time>
      </trkpt>
      <trkpt lat="41.6205260" lon="2.0896460">
        <ele>358.4</ele>
        <time>2022-09-26T12:15:43Z</time>
      </trkpt>
      <trkpt lat="41.6205170" lon="2.0896290">
        <ele>358.5</ele>
        <time>2022-09-26T12:15:44Z</time>
      </trkpt>
      <trkpt lat="41.6204970" lon="2.0896020">
        <ele>358.7</ele>
        <time>2022-09-26T12:15:45Z</time>
      </trkpt>
      <trkpt lat="41.6204720" lon="2.0895780">
        <ele>358.9</ele>
        <time>2022-09-26T12:15:46Z</time>
      </trkpt>
      <trkpt lat="41.6204490" lon="2.0895560">
        <ele>359.2</ele>
        <time>2022-09-26T12:15:47Z</time>
      </trkpt>
      <trkpt lat="41.6204120" lon="2.0895350">
        <ele>359.5</ele>
        <time>2022-09-26T12:15:48Z</time>
      </trkpt>
      <trkpt lat="41.6203990" lon="2.0895280">
        <ele>359.6</ele>
        <time>2022-09-26T12:15:49Z</time>
      </trkpt>
      <trkpt lat="41.6203660" lon="2.0895230">
        <ele>359.9</ele>
        <time>2022-09-26T12:15:50Z</time>
      </trkpt>
      <trkpt lat="41.6203490" lon="2.0895210">
        <ele>360.2</ele>
        <time>2022-09-26T12:15:51Z</time>
      </trkpt>
      <trkpt lat="41.6203080" lon="2.0895200">
        <ele>360.3</ele>
        <time>2022-09-26T12:15:53Z</time>
      </trkpt>
      <trkpt lat="41.6202840" lon="2.0895300">
        <ele>360.3</ele>
        <time>2022-09-26T12:15:54Z</time>
      </trkpt>
      <trkpt lat="41.6202740" lon="2.0895360">
        <ele>360.4</ele>
        <time>2022-09-26T12:15:55Z</time>
      </trkpt>
      <trkpt lat="41.6202610" lon="2.0895440">
        <ele>360.4</ele>
        <time>2022-09-26T12:15:56Z</time>
      </trkpt>
      <trkpt lat="41.6202460" lon="2.0895490">
        <ele>360.5</ele>
        <time>2022-09-26T12:15:57Z</time>
      </trkpt>
      <trkpt lat="41.6202300" lon="2.0895530">
        <ele>360.5</ele>
        <time>2022-09-26T12:15:58Z</time>
      </trkpt>
      <trkpt lat="41.6202170" lon="2.0895590">
        <ele>360.6</ele>
        <time>2022-09-26T12:15:59Z</time>
      </trkpt>
      <trkpt lat="41.6202050" lon="2.0895630">
        <ele>360.6</ele>
        <time>2022-09-26T12:16:00Z</time>
      </trkpt>
      <trkpt lat="41.6201900" lon="2.0895690">
        <ele>360.6</ele>
        <time>2022-09-26T12:16:01Z</time>
      </trkpt>
      <trkpt lat="41.6201770" lon="2.0895680">
        <ele>360.7</ele>
        <time>2022-09-26T12:16:02Z</time>
      </trkpt>
      <trkpt lat="41.6201540" lon="2.0895690">
        <ele>360.7</ele>
        <time>2022-09-26T12:16:03Z</time>
      </trkpt>
      <trkpt lat="41.6201370" lon="2.0895750">
        <ele>360.8</ele>
        <time>2022-09-26T12:16:04Z</time>
      </trkpt>
      <trkpt lat="41.6201230" lon="2.0895840">
        <ele>360.8</ele>
        <time>2022-09-26T12:16:05Z</time>
      </trkpt>
      <trkpt lat="41.6200950" lon="2.0895980">
        <ele>360.9</ele>
        <time>2022-09-26T12:16:06Z</time>
      </trkpt>
      <trkpt lat="41.6200590" lon="2.0896100">
        <ele>361.0</ele>
        <time>2022-09-26T12:16:07Z</time>
      </trkpt>
      <trkpt lat="41.6200240" lon="2.0896210">
        <ele>361.1</ele>
        <time>2022-09-26T12:16:08Z</time>
      </trkpt>
      <trkpt lat="41.6200120" lon="2.0896240">
        <ele>361.2</ele>
        <time>2022-09-26T12:16:09Z</time>
      </trkpt>
      <trkpt lat="41.6199730" lon="2.0896360">
        <ele>361.4</ele>
        <time>2022-09-26T12:16:10Z</time>
      </trkpt>
      <trkpt lat="41.6199600" lon="2.0896400">
        <ele>361.4</ele>
        <time>2022-09-26T12:16:11Z</time>
      </trkpt>
      <trkpt lat="41.6199260" lon="2.0896490">
        <ele>361.6</ele>
        <time>2022-09-26T12:16:12Z</time>
      </trkpt>
      <trkpt lat="41.6198970" lon="2.0896620">
        <ele>361.7</ele>
        <time>2022-09-26T12:16:13Z</time>
      </trkpt>
      <trkpt lat="41.6198600" lon="2.0896800">
        <ele>361.9</ele>
        <time>2022-09-26T12:16:14Z</time>
      </trkpt>
      <trkpt lat="41.6198440" lon="2.0896880">
        <ele>362.0</ele>
        <time>2022-09-26T12:16:15Z</time>
      </trkpt>
      <trkpt lat="41.6198080" lon="2.0897010">
        <ele>362.1</ele>
        <time>2022-09-26T12:16:16Z</time>
      </trkpt>
      <trkpt lat="41.6197730" lon="2.0897110">
        <ele>362.3</ele>
        <time>2022-09-26T12:16:17Z</time>
      </trkpt>
      <trkpt lat="41.6197340" lon="2.0897200">
        <ele>362.5</ele>
        <time>2022-09-26T12:16:18Z</time>
      </trkpt>
      <trkpt lat="41.6196970" lon="2.0897310">
        <ele>362.6</ele>
        <time>2022-09-26T12:16:19Z</time>
      </trkpt>
      <trkpt lat="41.6196550" lon="2.0897310">
        <ele>362.8</ele>
        <time>2022-09-26T12:16:20Z</time>
      </trkpt>
      <trkpt lat="41.6195870" lon="2.0897490">
        <ele>363.2</ele>
        <time>2022-09-26T12:16:22Z</time>
      </trkpt>
      <trkpt lat="41.6195520" lon="2.0897670">
        <ele>363.3</ele>
        <time>2022-09-26T12:16:23Z</time>
      </trkpt>
      <trkpt lat="41.6195210" lon="2.0897760">
        <ele>363.5</ele>
        <time>2022-09-26T12:16:24Z</time>
      </trkpt>
      <trkpt lat="41.6194880" lon="2.0897880">
        <ele>363.7</ele>
        <time>2022-09-26T12:16:25Z</time>
      </trkpt>
      <trkpt lat="41.6194770" lon="2.0897920">
        <ele>363.7</ele>
        <time>2022-09-26T12:16:26Z</time>
      </trkpt>
      <trkpt lat="41.6194410" lon="2.0897880">
        <ele>363.9</ele>
        <time>2022-09-26T12:16:27Z</time>
      </trkpt>
      <trkpt lat="41.6194270" lon="2.0897850">
        <ele>364.0</ele>
        <time>2022-09-26T12:16:28Z</time>
      </trkpt>
      <trkpt lat="41.6194020" lon="2.0897710">
        <ele>364.2</ele>
        <time>2022-09-26T12:16:29Z</time>
      </trkpt>
      <trkpt lat="41.6193690" lon="2.0897530">
        <ele>364.0</ele>
        <time>2022-09-26T12:16:30Z</time>
      </trkpt>
      <trkpt lat="41.6193320" lon="2.0897350">
        <ele>363.9</ele>
        <time>2022-09-26T12:16:31Z</time>
      </trkpt>
      <trkpt lat="41.6192900" lon="2.0897180">
        <ele>363.6</ele>
        <time>2022-09-26T12:16:32Z</time>
      </trkpt>
      <trkpt lat="41.6192410" lon="2.0896980">
        <ele>363.3</ele>
        <time>2022-09-26T12:16:33Z</time>
      </trkpt>
      <trkpt lat="41.6191660" lon="2.0896610">
        <ele>362.8</ele>
        <time>2022-09-26T12:16:35Z</time>
      </trkpt>
      <trkpt lat="41.6191200" lon="2.0896240">
        <ele>362.5</ele>
        <time>2022-09-26T12:16:36Z</time>
      </trkpt>
      <trkpt lat="41.6190910" lon="2.0895970">
        <ele>362.4</ele>
        <time>2022-09-26T12:16:37Z</time>
      </trkpt>
      <trkpt lat="41.6190620" lon="2.0895670">
        <ele>362.2</ele>
        <time>2022-09-26T12:16:38Z</time>
      </trkpt>
      <trkpt lat="41.6190160" lon="2.0895340">
        <ele>362.0</ele>
        <time>2022-09-26T12:16:39Z</time>
      </trkpt>
      <trkpt lat="41.6189750" lon="2.0895240">
        <ele>361.9</ele>
        <time>2022-09-26T12:16:40Z</time>
      </trkpt>
      <trkpt lat="41.6189450" lon="2.0895110">
        <ele>361.8</ele>
        <time>2022-09-26T12:16:42Z</time>
      </trkpt>
      <trkpt lat="41.6189130" lon="2.0894930">
        <ele>361.8</ele>
        <time>2022-09-26T12:16:43Z</time>
      </trkpt>
      <trkpt lat="41.6188740" lon="2.0894970">
        <ele>361.8</ele>
        <time>2022-09-26T12:16:44Z</time>
      </trkpt>
      <trkpt lat="41.6188610" lon="2.0895080">
        <ele>361.8</ele>
        <time>2022-09-26T12:16:45Z</time>
      </trkpt>
      <trkpt lat="41.6188470" lon="2.0895230">
        <ele>361.8</ele>
        <time>2022-09-26T12:16:46Z</time>
      </trkpt>
      <trkpt lat="41.6188130" lon="2.0895580">
        <ele>361.8</ele>
        <time>2022-09-26T12:16:48Z</time>
      </trkpt>
      <trkpt lat="41.6188010" lon="2.0895820">
        <ele>361.9</ele>
        <time>2022-09-26T12:16:49Z</time>
      </trkpt>
      <trkpt lat="41.6187920" lon="2.0895950">
        <ele>361.9</ele>
        <time>2022-09-26T12:16:50Z</time>
      </trkpt>
      <trkpt lat="41.6187810" lon="2.0896090">
        <ele>361.9</ele>
        <time>2022-09-26T12:16:51Z</time>
      </trkpt>
      <trkpt lat="41.6187550" lon="2.0896480">
        <ele>361.9</ele>
        <time>2022-09-26T12:16:53Z</time>
      </trkpt>
      <trkpt lat="41.6187390" lon="2.0896870">
        <ele>361.9</ele>
        <time>2022-09-26T12:16:54Z</time>
      </trkpt>
      <trkpt lat="41.6187210" lon="2.0897170">
        <ele>361.8</ele>
        <time>2022-09-26T12:16:55Z</time>
      </trkpt>
      <trkpt lat="41.6187140" lon="2.0897260">
        <ele>361.8</ele>
        <time>2022-09-26T12:16:56Z</time>
      </trkpt>
      <trkpt lat="41.6186800" lon="2.0897470">
        <ele>361.7</ele>
        <time>2022-09-26T12:16:57Z</time>
      </trkpt>
      <trkpt lat="41.6186680" lon="2.0897500">
        <ele>361.7</ele>
        <time>2022-09-26T12:16:58Z</time>
      </trkpt>
      <trkpt lat="41.6186430" lon="2.0897650">
        <ele>361.6</ele>
        <time>2022-09-26T12:16:59Z</time>
      </trkpt>
      <trkpt lat="41.6186130" lon="2.0897920">
        <ele>361.5</ele>
        <time>2022-09-26T12:17:00Z</time>
      </trkpt>
      <trkpt lat="41.6186040" lon="2.0898040">
        <ele>361.4</ele>
        <time>2022-09-26T12:17:01Z</time>
      </trkpt>
      <trkpt lat="41.6185840" lon="2.0898910">
        <ele>358.6</ele>
        <time>2022-09-26T12:17:02Z</time>
      </trkpt>
      <trkpt lat="41.6185790" lon="2.0898890">
        <ele>358.5</ele>
        <time>2022-09-26T12:17:03Z</time>
      </trkpt>
      <trkpt lat="41.6185780" lon="2.0898910">
        <ele>358.5</ele>
        <time>2022-09-26T12:17:04Z</time>
      </trkpt>
      <trkpt lat="41.6185770" lon="2.0898900">
        <ele>358.5</ele>
        <time>2022-09-26T12:17:05Z</time>
      </trkpt>
      <trkpt lat="41.6185760" lon="2.0898880">
        <ele>358.4</ele>
        <time>2022-09-26T12:17:06Z</time>
      </trkpt>
      <trkpt lat="41.6185720" lon="2.0898770">
        <ele>358.3</ele>
        <time>2022-09-26T12:17:07Z</time>
      </trkpt>
      <trkpt lat="41.6185600" lon="2.0898630">
        <ele>358.1</ele>
        <time>2022-09-26T12:17:08Z</time>
      </trkpt>
      <trkpt lat="41.6185320" lon="2.0898300">
        <ele>357.7</ele>
        <time>2022-09-26T12:17:09Z</time>
      </trkpt>
      <trkpt lat="41.6185190" lon="2.0898180">
        <ele>357.5</ele>
        <time>2022-09-26T12:17:10Z</time>
      </trkpt>
      <trkpt lat="41.6184920" lon="2.0897920">
        <ele>357.1</ele>
        <time>2022-09-26T12:17:11Z</time>
      </trkpt>
      <trkpt lat="41.6184380" lon="2.0897550">
        <ele>356.3</ele>
        <time>2022-09-26T12:17:12Z</time>
      </trkpt>
      <trkpt lat="41.6183080" lon="2.0896900">
        <ele>354.6</ele>
        <time>2022-09-26T12:17:14Z</time>
      </trkpt>
      <trkpt lat="41.6182660" lon="2.0896570">
        <ele>354.0</ele>
        <time>2022-09-26T12:17:15Z</time>
      </trkpt>
      <trkpt lat="41.6181870" lon="2.0896470">
        <ele>352.9</ele>
        <time>2022-09-26T12:17:16Z</time>
      </trkpt>
      <trkpt lat="41.6181040" lon="2.0896250">
        <ele>351.8</ele>
        <time>2022-09-26T12:17:18Z</time>
      </trkpt>
      <trkpt lat="41.6180780" lon="2.0896420">
        <ele>350.6</ele>
        <time>2022-09-26T12:17:19Z</time>
      </trkpt>
      <trkpt lat="41.6180600" lon="2.0896600">
        <ele>350.6</ele>
        <time>2022-09-26T12:17:20Z</time>
      </trkpt>
      <trkpt lat="41.6180590" lon="2.0897070">
        <ele>350.5</ele>
        <time>2022-09-26T12:17:22Z</time>
      </trkpt>
      <trkpt lat="41.6180710" lon="2.0897610">
        <ele>350.4</ele>
        <time>2022-09-26T12:17:23Z</time>
      </trkpt>
      <trkpt lat="41.6180890" lon="2.0898390">
        <ele>350.4</ele>
        <time>2022-09-26T12:17:25Z</time>
      </trkpt>
      <trkpt lat="41.6180610" lon="2.0899310">
        <ele>350.3</ele>
        <time>2022-09-26T12:17:26Z</time>
      </trkpt>
      <trkpt lat="41.6180520" lon="2.0900000">
        <ele>350.2</ele>
        <time>2022-09-26T12:17:27Z</time>
      </trkpt>
      <trkpt lat="41.6180500" lon="2.0900720">
        <ele>350.1</ele>
        <time>2022-09-26T12:17:28Z</time>
      </trkpt>
      <trkpt lat="41.6180500" lon="2.0901450">
        <ele>349.9</ele>
        <time>2022-09-26T12:17:29Z</time>
      </trkpt>
      <trkpt lat="41.6180540" lon="2.0902250">
        <ele>349.8</ele>
        <time>2022-09-26T12:17:30Z</time>
      </trkpt>
      <trkpt lat="41.6180590" lon="2.0902970">
        <ele>349.6</ele>
        <time>2022-09-26T12:17:31Z</time>
      </trkpt>
      <trkpt lat="41.6180640" lon="2.0903540">
        <ele>349.4</ele>
        <time>2022-09-26T12:17:32Z</time>
      </trkpt>
      <trkpt lat="41.6180620" lon="2.0903660">
        <ele>349.4</ele>
        <time>2022-09-26T12:17:33Z</time>
      </trkpt>
      <trkpt lat="41.6180590" lon="2.0903800">
        <ele>349.4</ele>
        <time>2022-09-26T12:17:34Z</time>
      </trkpt>
      <trkpt lat="41.6180580" lon="2.0904270">
        <ele>349.4</ele>
        <time>2022-09-26T12:17:36Z</time>
      </trkpt>
      <trkpt lat="41.6180550" lon="2.0904060">
        <ele>349.4</ele>
        <time>2022-09-26T12:17:37Z</time>
      </trkpt>
      <trkpt lat="41.6180500" lon="2.0903860">
        <ele>349.4</ele>
        <time>2022-09-26T12:17:38Z</time>
      </trkpt>
      <trkpt lat="41.6180440" lon="2.0903660">
        <ele>349.4</ele>
        <time>2022-09-26T12:17:39Z</time>
      </trkpt>
      <trkpt lat="41.6180390" lon="2.0903460">
        <ele>349.4</ele>
        <time>2022-09-26T12:17:40Z</time>
      </trkpt>
      <trkpt lat="41.6180380" lon="2.0902600">
        <ele>349.7</ele>
        <time>2022-09-26T12:17:42Z</time>
      </trkpt>
      <trkpt lat="41.6180370" lon="2.0901670">
        <ele>349.9</ele>
        <time>2022-09-26T12:17:43Z</time>
      </trkpt>
      <trkpt lat="41.6180370" lon="2.0900760">
        <ele>350.1</ele>
        <time>2022-09-26T12:17:44Z</time>
      </trkpt>
      <trkpt lat="41.6180270" lon="2.0899430">
        <ele>350.3</ele>
        <time>2022-09-26T12:17:45Z</time>
      </trkpt>
      <trkpt lat="41.6180260" lon="2.0898980">
        <ele>350.3</ele>
        <time>2022-09-26T12:17:46Z</time>
      </trkpt>
      <trkpt lat="41.6180200" lon="2.0898540">
        <ele>350.3</ele>
        <time>2022-09-26T12:17:47Z</time>
      </trkpt>
      <trkpt lat="41.6180160" lon="2.0898230">
        <ele>350.4</ele>
        <time>2022-09-26T12:17:48Z</time>
      </trkpt>
      <trkpt lat="41.6180010" lon="2.0897850">
        <ele>349.9</ele>
        <time>2022-09-26T12:17:49Z</time>
      </trkpt>
      <trkpt lat="41.6179870" lon="2.0897650">
        <ele>349.6</ele>
        <time>2022-09-26T12:17:50Z</time>
      </trkpt>
      <trkpt lat="41.6179420" lon="2.0897680">
        <ele>348.8</ele>
        <time>2022-09-26T12:17:52Z</time>
      </trkpt>
      <trkpt lat="41.6178730" lon="2.0897810">
        <ele>347.6</ele>
        <time>2022-09-26T12:17:53Z</time>
      </trkpt>
      <trkpt lat="41.6177970" lon="2.0898120">
        <ele>346.9</ele>
        <time>2022-09-26T12:17:54Z</time>
      </trkpt>
      <trkpt lat="41.6177380" lon="2.0898410">
        <ele>346.3</ele>
        <time>2022-09-26T12:17:55Z</time>
      </trkpt>
      <trkpt lat="41.6176850" lon="2.0898670">
        <ele>345.8</ele>
        <time>2022-09-26T12:17:56Z</time>
      </trkpt>
      <trkpt lat="41.6176340" lon="2.0898860">
        <ele>345.3</ele>
        <time>2022-09-26T12:17:57Z</time>
      </trkpt>
      <trkpt lat="41.6175900" lon="2.0899010">
        <ele>345.0</ele>
        <time>2022-09-26T12:17:58Z</time>
      </trkpt>
      <trkpt lat="41.6175390" lon="2.0899200">
        <ele>344.5</ele>
        <time>2022-09-26T12:17:59Z</time>
      </trkpt>
      <trkpt lat="41.6174380" lon="2.0899510">
        <ele>343.9</ele>
        <time>2022-09-26T12:18:00Z</time>
      </trkpt>
      <trkpt lat="41.6173690" lon="2.0899690">
        <ele>343.4</ele>
        <time>2022-09-26T12:18:01Z</time>
      </trkpt>
      <trkpt lat="41.6173060" lon="2.0899860">
        <ele>343.0</ele>
        <time>2022-09-26T12:18:02Z</time>
      </trkpt>
      <trkpt lat="41.6172430" lon="2.0900130">
        <ele>342.5</ele>
        <time>2022-09-26T12:18:03Z</time>
      </trkpt>
      <trkpt lat="41.6171790" lon="2.0900230">
        <ele>342.0</ele>
        <time>2022-09-26T12:18:04Z</time>
      </trkpt>
      <trkpt lat="41.6171090" lon="2.0900340">
        <ele>341.5</ele>
        <time>2022-09-26T12:18:05Z</time>
      </trkpt>
      <trkpt lat="41.6170380" lon="2.0900480">
        <ele>341.0</ele>
        <time>2022-09-26T12:18:06Z</time>
      </trkpt>
      <trkpt lat="41.6169700" lon="2.0900710">
        <ele>340.4</ele>
        <time>2022-09-26T12:18:07Z</time>
      </trkpt>
      <trkpt lat="41.6169080" lon="2.0900890">
        <ele>339.9</ele>
        <time>2022-09-26T12:18:08Z</time>
      </trkpt>
      <trkpt lat="41.6168440" lon="2.0901040">
        <ele>339.5</ele>
        <time>2022-09-26T12:18:09Z</time>
      </trkpt>
      <trkpt lat="41.6167840" lon="2.0901160">
        <ele>339.0</ele>
        <time>2022-09-26T12:18:10Z</time>
      </trkpt>
      <trkpt lat="41.6167520" lon="2.0901160">
        <ele>338.6</ele>
        <time>2022-09-26T12:18:11Z</time>
      </trkpt>
      <trkpt lat="41.6167240" lon="2.0901260">
        <ele>338.3</ele>
        <time>2022-09-26T12:18:12Z</time>
      </trkpt>
      <trkpt lat="41.6167120" lon="2.0901300">
        <ele>338.2</ele>
        <time>2022-09-26T12:18:13Z</time>
      </trkpt>
      <trkpt lat="41.6166850" lon="2.0901360">
        <ele>337.8</ele>
        <time>2022-09-26T12:18:14Z</time>
      </trkpt>
      <trkpt lat="41.6166760" lon="2.0901380">
        <ele>337.7</ele>
        <time>2022-09-26T12:18:15Z</time>
      </trkpt>
      <trkpt lat="41.6166600" lon="2.0901450">
        <ele>337.5</ele>
        <time>2022-09-26T12:18:16Z</time>
      </trkpt>
      <trkpt lat="41.6166470" lon="2.0901440">
        <ele>337.4</ele>
        <time>2022-09-26T12:18:17Z</time>
      </trkpt>
      <trkpt lat="41.6166260" lon="2.0901420">
        <ele>337.1</ele>
        <time>2022-09-26T12:18:18Z</time>
      </trkpt>
      <trkpt lat="41.6166100" lon="2.0901410">
        <ele>337.0</ele>
        <time>2022-09-26T12:18:20Z</time>
      </trkpt>
      <trkpt lat="41.6165950" lon="2.0901400">
        <ele>337.0</ele>
        <time>2022-09-26T12:18:21Z</time>
      </trkpt>
      <trkpt lat="41.6165640" lon="2.0901420">
        <ele>336.9</ele>
        <time>2022-09-26T12:18:22Z</time>
      </trkpt>
      <trkpt lat="41.6164670" lon="2.0901640">
        <ele>336.6</ele>
        <time>2022-09-26T12:18:23Z</time>
      </trkpt>
      <trkpt lat="41.6164240" lon="2.0901640">
        <ele>336.5</ele>
        <time>2022-09-26T12:18:24Z</time>
      </trkpt>
      <trkpt lat="41.6163880" lon="2.0901530">
        <ele>336.4</ele>
        <time>2022-09-26T12:18:25Z</time>
      </trkpt>
      <trkpt lat="41.6163450" lon="2.0901270">
        <ele>336.2</ele>
        <time>2022-09-26T12:18:26Z</time>
      </trkpt>
      <trkpt lat="41.6162940" lon="2.0901360">
        <ele>336.1</ele>
        <time>2022-09-26T12:18:27Z</time>
      </trkpt>
      <trkpt lat="41.6162450" lon="2.0901620">
        <ele>335.9</ele>
        <time>2022-09-26T12:18:28Z</time>
      </trkpt>
      <trkpt lat="41.6161580" lon="2.0902220">
        <ele>335.7</ele>
        <time>2022-09-26T12:18:30Z</time>
      </trkpt>
      <trkpt lat="41.6160720" lon="2.0902690">
        <ele>335.4</ele>
        <time>2022-09-26T12:18:31Z</time>
      </trkpt>
      <trkpt lat="41.6160110" lon="2.0902910">
        <ele>335.3</ele>
        <time>2022-09-26T12:18:32Z</time>
      </trkpt>
      <trkpt lat="41.6159510" lon="2.0903120">
        <ele>335.2</ele>
        <time>2022-09-26T12:18:33Z</time>
      </trkpt>
      <trkpt lat="41.6158980" lon="2.0903310">
        <ele>335.1</ele>
        <time>2022-09-26T12:18:34Z</time>
      </trkpt>
      <trkpt lat="41.6158460" lon="2.0903600">
        <ele>335.1</ele>
        <time>2022-09-26T12:18:35Z</time>
      </trkpt>
      <trkpt lat="41.6157890" lon="2.0903880">
        <ele>335.0</ele>
        <time>2022-09-26T12:18:36Z</time>
      </trkpt>
      <trkpt lat="41.6157410" lon="2.0904110">
        <ele>334.9</ele>
        <time>2022-09-26T12:18:37Z</time>
      </trkpt>
      <trkpt lat="41.6156950" lon="2.0904320">
        <ele>334.8</ele>
        <time>2022-09-26T12:18:38Z</time>
      </trkpt>
      <trkpt lat="41.6156500" lon="2.0904600">
        <ele>334.8</ele>
        <time>2022-09-26T12:18:39Z</time>
      </trkpt>
      <trkpt lat="41.6156080" lon="2.0904880">
        <ele>334.7</ele>
        <time>2022-09-26T12:18:40Z</time>
      </trkpt>
      <trkpt lat="41.6155710" lon="2.0905200">
        <ele>334.7</ele>
        <time>2022-09-26T12:18:41Z</time>
      </trkpt>
      <trkpt lat="41.6155440" lon="2.0905410">
        <ele>334.6</ele>
        <time>2022-09-26T12:18:42Z</time>
      </trkpt>
      <trkpt lat="41.6155320" lon="2.0905480">
        <ele>334.6</ele>
        <time>2022-09-26T12:18:43Z</time>
      </trkpt>
      <trkpt lat="41.6155130" lon="2.0905510">
        <ele>334.6</ele>
        <time>2022-09-26T12:18:44Z</time>
      </trkpt>
      <trkpt lat="41.6155000" lon="2.0905560">
        <ele>334.6</ele>
        <time>2022-09-26T12:18:45Z</time>
      </trkpt>
      <trkpt lat="41.6154840" lon="2.0905610">
        <ele>334.5</ele>
        <time>2022-09-26T12:18:46Z</time>
      </trkpt>
      <trkpt lat="41.6154680" lon="2.0905570">
        <ele>334.5</ele>
        <time>2022-09-26T12:18:47Z</time>
      </trkpt>
      <trkpt lat="41.6154130" lon="2.0905360">
        <ele>334.4</ele>
        <time>2022-09-26T12:18:49Z</time>
      </trkpt>
      <trkpt lat="41.6153980" lon="2.0905320">
        <ele>334.4</ele>
        <time>2022-09-26T12:18:50Z</time>
      </trkpt>
      <trkpt lat="41.6153900" lon="2.0905290">
        <ele>334.4</ele>
        <time>2022-09-26T12:18:51Z</time>
      </trkpt>
      <trkpt lat="41.6153890" lon="2.0905260">
        <ele>334.4</ele>
        <time>2022-09-26T12:18:52Z</time>
      </trkpt>
      <trkpt lat="41.6153890" lon="2.0905240">
        <ele>334.4</ele>
        <time>2022-09-26T12:18:53Z</time>
      </trkpt>
      <trkpt lat="41.6153900" lon="2.0905230">
        <ele>334.4</ele>
        <time>2022-09-26T12:18:54Z</time>
      </trkpt>
      <trkpt lat="41.6153890" lon="2.0905220">
        <ele>334.4</ele>
        <time>2022-09-26T12:18:55Z</time>
      </trkpt>
      <trkpt lat="41.6153890" lon="2.0905220">
        <ele>334.4</ele>
        <time>2022-09-26T12:18:56Z</time>
      </trkpt>
      <trkpt lat="41.6153880" lon="2.0905220">
        <ele>334.4</ele>
        <time>2022-09-26T12:18:57Z</time>
      </trkpt>
      <trkpt lat="41.6153870" lon="2.0905230">
        <ele>334.4</ele>
        <time>2022-09-26T12:18:58Z</time>
      </trkpt>
      <trkpt lat="41.6153870" lon="2.0905230">
        <ele>334.4</ele>
        <time>2022-09-26T12:18:59Z</time>
      </trkpt>
      <trkpt lat="41.6153610" lon="2.0905430">
        <ele>334.3</ele>
        <time>2022-09-26T12:19:09Z</time>
      </trkpt>
      <trkpt lat="41.6153530" lon="2.0905490">
        <ele>334.3</ele>
        <time>2022-09-26T12:19:10Z</time>
      </trkpt>
      <trkpt lat="41.6153320" lon="2.0905570">
        <ele>334.2</ele>
        <time>2022-09-26T12:19:11Z</time>
      </trkpt>
      <trkpt lat="41.6153010" lon="2.0905850">
        <ele>334.1</ele>
        <time>2022-09-26T12:19:12Z</time>
      </trkpt>
      <trkpt lat="41.6152910" lon="2.0906010">
        <ele>334.0</ele>
        <time>2022-09-26T12:19:13Z</time>
      </trkpt>
      <trkpt lat="41.6152670" lon="2.0906330">
        <ele>333.9</ele>
        <time>2022-09-26T12:19:14Z</time>
      </trkpt>
      <trkpt lat="41.6152440" lon="2.0906550">
        <ele>333.7</ele>
        <time>2022-09-26T12:19:15Z</time>
      </trkpt>
      <trkpt lat="41.6152160" lon="2.0906820">
        <ele>333.6</ele>
        <time>2022-09-26T12:19:16Z</time>
      </trkpt>
      <trkpt lat="41.6151740" lon="2.0907170">
        <ele>333.4</ele>
        <time>2022-09-26T12:19:17Z</time>
      </trkpt>
      <trkpt lat="41.6151290" lon="2.0907510">
        <ele>333.1</ele>
        <time>2022-09-26T12:19:18Z</time>
      </trkpt>
      <trkpt lat="41.6150670" lon="2.0907940">
        <ele>332.8</ele>
        <time>2022-09-26T12:19:19Z</time>
      </trkpt>
      <trkpt lat="41.6150010" lon="2.0908330">
        <ele>332.4</ele>
        <time>2022-09-26T12:19:20Z</time>
      </trkpt>
      <trkpt lat="41.6149550" lon="2.0908800">
        <ele>332.1</ele>
        <time>2022-09-26T12:19:21Z</time>
      </trkpt>
      <trkpt lat="41.6149150" lon="2.0909340">
        <ele>331.9</ele>
        <time>2022-09-26T12:19:22Z</time>
      </trkpt>
      <trkpt lat="41.6148690" lon="2.0909920">
        <ele>331.6</ele>
        <time>2022-09-26T12:19:23Z</time>
      </trkpt>
      <trkpt lat="41.6148260" lon="2.0910450">
        <ele>331.3</ele>
        <time>2022-09-26T12:19:24Z</time>
      </trkpt>
      <trkpt lat="41.6147830" lon="2.0910970">
        <ele>331.0</ele>
        <time>2022-09-26T12:19:25Z</time>
      </trkpt>
      <trkpt lat="41.6147380" lon="2.0911450">
        <ele>330.8</ele>
        <time>2022-09-26T12:19:26Z</time>
      </trkpt>
      <trkpt lat="41.6146940" lon="2.0911940">
        <ele>330.6</ele>
        <time>2022-09-26T12:19:27Z</time>
      </trkpt>
      <trkpt lat="41.6146580" lon="2.0912360">
        <ele>330.4</ele>
        <time>2022-09-26T12:19:28Z</time>
      </trkpt>
      <trkpt lat="41.6146110" lon="2.0912780">
        <ele>330.1</ele>
        <time>2022-09-26T12:19:30Z</time>
      </trkpt>
      <trkpt lat="41.6145830" lon="2.0913040">
        <ele>330.0</ele>
        <time>2022-09-26T12:19:31Z</time>
      </trkpt>
      <trkpt lat="41.6145580" lon="2.0913300">
        <ele>329.9</ele>
        <time>2022-09-26T12:19:32Z</time>
      </trkpt>
      <trkpt lat="41.6145390" lon="2.0913550">
        <ele>329.7</ele>
        <time>2022-09-26T12:19:33Z</time>
      </trkpt>
      <trkpt lat="41.6145060" lon="2.0913890">
        <ele>329.5</ele>
        <time>2022-09-26T12:19:34Z</time>
      </trkpt>
      <trkpt lat="41.6144950" lon="2.0914020">
        <ele>329.5</ele>
        <time>2022-09-26T12:19:35Z</time>
      </trkpt>
      <trkpt lat="41.6144750" lon="2.0914310">
        <ele>329.3</ele>
        <time>2022-09-26T12:19:36Z</time>
      </trkpt>
      <trkpt lat="41.6144610" lon="2.0914460">
        <ele>329.2</ele>
        <time>2022-09-26T12:19:37Z</time>
      </trkpt>
      <trkpt lat="41.6144290" lon="2.0914190">
        <ele>329.0</ele>
        <time>2022-09-26T12:19:39Z</time>
      </trkpt>
      <trkpt lat="41.6143910" lon="2.0913920">
        <ele>329.0</ele>
        <time>2022-09-26T12:19:40Z</time>
      </trkpt>
      <trkpt lat="41.6143540" lon="2.0913420">
        <ele>329.1</ele>
        <time>2022-09-26T12:19:41Z</time>
      </trkpt>
      <trkpt lat="41.6143090" lon="2.0912590">
        <ele>329.1</ele>
        <time>2022-09-26T12:19:42Z</time>
      </trkpt>
      <trkpt lat="41.6142600" lon="2.0911580">
        <ele>329.1</ele>
        <time>2022-09-26T12:19:43Z</time>
      </trkpt>
      <trkpt lat="41.6142210" lon="2.0910690">
        <ele>329.2</ele>
        <time>2022-09-26T12:19:44Z</time>
      </trkpt>
      <trkpt lat="41.6141830" lon="2.0909790">
        <ele>329.2</ele>
        <time>2022-09-26T12:19:45Z</time>
      </trkpt>
      <trkpt lat="41.6141440" lon="2.0909160">
        <ele>329.3</ele>
        <time>2022-09-26T12:19:46Z</time>
      </trkpt>
      <trkpt lat="41.6141140" lon="2.0908750">
        <ele>329.3</ele>
        <time>2022-09-26T12:19:47Z</time>
      </trkpt>
      <trkpt lat="41.6140820" lon="2.0908200">
        <ele>329.4</ele>
        <time>2022-09-26T12:19:48Z</time>
      </trkpt>
      <trkpt lat="41.6140530" lon="2.0907660">
        <ele>329.5</ele>
        <time>2022-09-26T12:19:49Z</time>
      </trkpt>
      <trkpt lat="41.6140200" lon="2.0907020">
        <ele>329.6</ele>
        <time>2022-09-26T12:19:50Z</time>
      </trkpt>
      <trkpt lat="41.6139920" lon="2.0906410">
        <ele>329.7</ele>
        <time>2022-09-26T12:19:51Z</time>
      </trkpt>
      <trkpt lat="41.6139720" lon="2.0905870">
        <ele>329.8</ele>
        <time>2022-09-26T12:19:52Z</time>
      </trkpt>
      <trkpt lat="41.6139480" lon="2.0905330">
        <ele>329.9</ele>
        <time>2022-09-26T12:19:53Z</time>
      </trkpt>
      <trkpt lat="41.6139220" lon="2.0904850">
        <ele>330.1</ele>
        <time>2022-09-26T12:19:54Z</time>
      </trkpt>
      <trkpt lat="41.6138960" lon="2.0904440">
        <ele>330.2</ele>
        <time>2022-09-26T12:19:55Z</time>
      </trkpt>
      <trkpt lat="41.6138660" lon="2.0904010">
        <ele>330.3</ele>
        <time>2022-09-26T12:19:56Z</time>
      </trkpt>
      <trkpt lat="41.6138360" lon="2.0903550">
        <ele>330.5</ele>
        <time>2022-09-26T12:19:57Z</time>
      </trkpt>
      <trkpt lat="41.6138180" lon="2.0903230">
        <ele>330.6</ele>
        <time>2022-09-26T12:19:58Z</time>
      </trkpt>
      <trkpt lat="41.6137920" lon="2.0902790">
        <ele>330.7</ele>
        <time>2022-09-26T12:19:59Z</time>
      </trkpt>
      <trkpt lat="41.6137840" lon="2.0902630">
        <ele>330.8</ele>
        <time>2022-09-26T12:20:00Z</time>
      </trkpt>
      <trkpt lat="41.6137670" lon="2.0902340">
        <ele>330.9</ele>
        <time>2022-09-26T12:20:01Z</time>
      </trkpt>
      <trkpt lat="41.6137450" lon="2.0902190">
        <ele>331.0</ele>
        <time>2022-09-26T12:20:02Z</time>
      </trkpt>
      <trkpt lat="41.6137170" lon="2.0902110">
        <ele>331.1</ele>
        <time>2022-09-26T12:20:04Z</time>
      </trkpt>
      <trkpt lat="41.6136890" lon="2.0902080">
        <ele>330.8</ele>
        <time>2022-09-26T12:20:05Z</time>
      </trkpt>
      <trkpt lat="41.6136790" lon="2.0902090">
        <ele>330.7</ele>
        <time>2022-09-26T12:20:06Z</time>
      </trkpt>
      <trkpt lat="41.6136270" lon="2.0902720">
        <ele>330.3</ele>
        <time>2022-09-26T12:20:07Z</time>
      </trkpt>
      <trkpt lat="41.6135720" lon="2.0903230">
        <ele>329.9</ele>
        <time>2022-09-26T12:20:08Z</time>
      </trkpt>
      <trkpt lat="41.6135170" lon="2.0903770">
        <ele>329.4</ele>
        <time>2022-09-26T12:20:09Z</time>
      </trkpt>
      <trkpt lat="41.6134660" lon="2.0904280">
        <ele>329.0</ele>
        <time>2022-09-26T12:20:10Z</time>
      </trkpt>
      <trkpt lat="41.6134140" lon="2.0904830">
        <ele>328.6</ele>
        <time>2022-09-26T12:20:11Z</time>
      </trkpt>
      <trkpt lat="41.6133650" lon="2.0905390">
        <ele>328.1</ele>
        <time>2022-09-26T12:20:12Z</time>
      </trkpt>
      <trkpt lat="41.6133090" lon="2.0905970">
        <ele>327.6</ele>
        <time>2022-09-26T12:20:13Z</time>
      </trkpt>
      <trkpt lat="41.6132540" lon="2.0906550">
        <ele>327.1</ele>
        <time>2022-09-26T12:20:14Z</time>
      </trkpt>
      <trkpt lat="41.6131960" lon="2.0907150">
        <ele>326.6</ele>
        <time>2022-09-26T12:20:15Z</time>
      </trkpt>
      <trkpt lat="41.6131330" lon="2.0907770">
        <ele>326.0</ele>
        <time>2022-09-26T12:20:16Z</time>
      </trkpt>
      <trkpt lat="41.6130690" lon="2.0908370">
        <ele>325.6</ele>
        <time>2022-09-26T12:20:17Z</time>
      </trkpt>
      <trkpt lat="41.6130300" lon="2.0908780">
        <ele>325.3</ele>
        <time>2022-09-26T12:20:18Z</time>
      </trkpt>
      <trkpt lat="41.6130040" lon="2.0908940">
        <ele>325.1</ele>
        <time>2022-09-26T12:20:19Z</time>
      </trkpt>
      <trkpt lat="41.6129460" lon="2.0909530">
        <ele>324.6</ele>
        <time>2022-09-26T12:20:21Z</time>
      </trkpt>
      <trkpt lat="41.6129290" lon="2.0910100">
        <ele>324.2</ele>
        <time>2022-09-26T12:20:22Z</time>
      </trkpt>
      <trkpt lat="41.6129160" lon="2.0910510">
        <ele>324.0</ele>
        <time>2022-09-26T12:20:23Z</time>
      </trkpt>
      <trkpt lat="41.6128920" lon="2.0910910">
        <ele>323.7</ele>
        <time>2022-09-26T12:20:24Z</time>
      </trkpt>
      <trkpt lat="41.6128280" lon="2.0910250">
        <ele>323.6</ele>
        <time>2022-09-26T12:20:25Z</time>
      </trkpt>
      <trkpt lat="41.6127710" lon="2.0909540">
        <ele>323.4</ele>
        <time>2022-09-26T12:20:26Z</time>
      </trkpt>
      <trkpt lat="41.6127200" lon="2.0908720">
        <ele>323.3</ele>
        <time>2022-09-26T12:20:27Z</time>
      </trkpt>
      <trkpt lat="41.6126790" lon="2.0907990">
        <ele>323.1</ele>
        <time>2022-09-26T12:20:28Z</time>
      </trkpt>
      <trkpt lat="41.6126380" lon="2.0907330">
        <ele>323.0</ele>
        <time>2022-09-26T12:20:29Z</time>
      </trkpt>
      <trkpt lat="41.6125980" lon="2.0906650">
        <ele>322.8</ele>
        <time>2022-09-26T12:20:30Z</time>
      </trkpt>
      <trkpt lat="41.6125610" lon="2.0906050">
        <ele>322.7</ele>
        <time>2022-09-26T12:20:31Z</time>
      </trkpt>
      <trkpt lat="41.6125360" lon="2.0905570">
        <ele>322.6</ele>
        <time>2022-09-26T12:20:32Z</time>
      </trkpt>
      <trkpt lat="41.6125110" lon="2.0905300">
        <ele>322.5</ele>
        <time>2022-09-26T12:20:33Z</time>
      </trkpt>
      <trkpt lat="41.6125000" lon="2.0905290">
        <ele>322.5</ele>
        <time>2022-09-26T12:20:34Z</time>
      </trkpt>
      <trkpt lat="41.6124660" lon="2.0904240">
        <ele>322.3</ele>
        <time>2022-09-26T12:20:36Z</time>
      </trkpt>
      <trkpt lat="41.6124540" lon="2.0903860">
        <ele>322.3</ele>
        <time>2022-09-26T12:20:37Z</time>
      </trkpt>
      <trkpt lat="41.6124460" lon="2.0903750">
        <ele>322.0</ele>
        <time>2022-09-26T12:20:38Z</time>
      </trkpt>
      <trkpt lat="41.6124280" lon="2.0903640">
        <ele>321.9</ele>
        <time>2022-09-26T12:20:39Z</time>
      </trkpt>
      <trkpt lat="41.6124140" lon="2.0903600">
        <ele>321.8</ele>
        <time>2022-09-26T12:20:40Z</time>
      </trkpt>
      <trkpt lat="41.6124030" lon="2.0903860">
        <ele>321.7</ele>
        <time>2022-09-26T12:20:42Z</time>
      </trkpt>
      <trkpt lat="41.6123970" lon="2.0903950">
        <ele>321.6</ele>
        <time>2022-09-26T12:20:43Z</time>
      </trkpt>
      <trkpt lat="41.6123920" lon="2.0904030">
        <ele>321.6</ele>
        <time>2022-09-26T12:20:44Z</time>
      </trkpt>
      <trkpt lat="41.6123740" lon="2.0904260">
        <ele>321.5</ele>
        <time>2022-09-26T12:20:45Z</time>
      </trkpt>
      <trkpt lat="41.6123640" lon="2.0904380">
        <ele>321.4</ele>
        <time>2022-09-26T12:20:46Z</time>
      </trkpt>
      <trkpt lat="41.6123340" lon="2.0904690">
        <ele>321.2</ele>
        <time>2022-09-26T12:20:47Z</time>
      </trkpt>
      <trkpt lat="41.6122310" lon="2.0906410">
        <ele>320.4</ele>
        <time>2022-09-26T12:20:48Z</time>
      </trkpt>
      <trkpt lat="41.6121660" lon="2.0907180">
        <ele>319.9</ele>
        <time>2022-09-26T12:20:49Z</time>
      </trkpt>
      <trkpt lat="41.6121080" lon="2.0907830">
        <ele>319.6</ele>
        <time>2022-09-26T12:20:50Z</time>
      </trkpt>
      <trkpt lat="41.6120520" lon="2.0908400">
        <ele>319.2</ele>
        <time>2022-09-26T12:20:51Z</time>
      </trkpt>
      <trkpt lat="41.6120000" lon="2.0908980">
        <ele>318.9</ele>
        <time>2022-09-26T12:20:52Z</time>
      </trkpt>
      <trkpt lat="41.6119430" lon="2.0909590">
        <ele>318.6</ele>
        <time>2022-09-26T12:20:53Z</time>
      </trkpt>
      <trkpt lat="41.6118920" lon="2.0910150">
        <ele>318.3</ele>
        <time>2022-09-26T12:20:54Z</time>
      </trkpt>
      <trkpt lat="41.6118520" lon="2.0910560">
        <ele>318.1</ele>
        <time>2022-09-26T12:20:55Z</time>
      </trkpt>
      <trkpt lat="41.6118150" lon="2.0910650">
        <ele>318.0</ele>
        <time>2022-09-26T12:20:56Z</time>
      </trkpt>
      <trkpt lat="41.6117990" lon="2.0910640">
        <ele>317.9</ele>
        <time>2022-09-26T12:20:57Z</time>
      </trkpt>
      <trkpt lat="41.6117450" lon="2.0911100">
        <ele>317.7</ele>
        <time>2022-09-26T12:20:58Z</time>
      </trkpt>
      <trkpt lat="41.6116610" lon="2.0911650">
        <ele>317.4</ele>
        <time>2022-09-26T12:21:00Z</time>
      </trkpt>
      <trkpt lat="41.6115490" lon="2.0912580">
        <ele>317.0</ele>
        <time>2022-09-26T12:21:01Z</time>
      </trkpt>
      <trkpt lat="41.6115010" lon="2.0913010">
        <ele>316.9</ele>
        <time>2022-09-26T12:21:02Z</time>
      </trkpt>
      <trkpt lat="41.6114470" lon="2.0913410">
        <ele>316.7</ele>
        <time>2022-09-26T12:21:03Z</time>
      </trkpt>
      <trkpt lat="41.6113930" lon="2.0913770">
        <ele>316.5</ele>
        <time>2022-09-26T12:21:04Z</time>
      </trkpt>
      <trkpt lat="41.6113390" lon="2.0914130">
        <ele>316.4</ele>
        <time>2022-09-26T12:21:05Z</time>
      </trkpt>
      <trkpt lat="41.6112850" lon="2.0914490">
        <ele>316.2</ele>
        <time>2022-09-26T12:21:06Z</time>
      </trkpt>
      <trkpt lat="41.6112270" lon="2.0914860">
        <ele>316.1</ele>
        <time>2022-09-26T12:21:07Z</time>
      </trkpt>
      <trkpt lat="41.6111680" lon="2.0915400">
        <ele>315.9</ele>
        <time>2022-09-26T12:21:08Z</time>
      </trkpt>
      <trkpt lat="41.6111000" lon="2.0915990">
        <ele>315.8</ele>
        <time>2022-09-26T12:21:09Z</time>
      </trkpt>
      <trkpt lat="41.6110420" lon="2.0916610">
        <ele>315.6</ele>
        <time>2022-09-26T12:21:10Z</time>
      </trkpt>
      <trkpt lat="41.6109830" lon="2.0917230">
        <ele>315.5</ele>
        <time>2022-09-26T12:21:11Z</time>
      </trkpt>
      <trkpt lat="41.6109210" lon="2.0917820">
        <ele>315.3</ele>
        <time>2022-09-26T12:21:12Z</time>
      </trkpt>
      <trkpt lat="41.6108590" lon="2.0918370">
        <ele>315.1</ele>
        <time>2022-09-26T12:21:13Z</time>
      </trkpt>
      <trkpt lat="41.6107970" lon="2.0918950">
        <ele>314.9</ele>
        <time>2022-09-26T12:21:14Z</time>
      </trkpt>
      <trkpt lat="41.6107420" lon="2.0919550">
        <ele>314.7</ele>
        <time>2022-09-26T12:21:15Z</time>
      </trkpt>
      <trkpt lat="41.6106850" lon="2.0920110">
        <ele>314.6</ele>
        <time>2022-09-26T12:21:16Z</time>
      </trkpt>
      <trkpt lat="41.6106270" lon="2.0920610">
        <ele>314.4</ele>
        <time>2022-09-26T12:21:17Z</time>
      </trkpt>
      <trkpt lat="41.6105670" lon="2.0921120">
        <ele>314.3</ele>
        <time>2022-09-26T12:21:18Z</time>
      </trkpt>
      <trkpt lat="41.6105060" lon="2.0921630">
        <ele>314.2</ele>
        <time>2022-09-26T12:21:19Z</time>
      </trkpt>
      <trkpt lat="41.6104460" lon="2.0922140">
        <ele>314.0</ele>
        <time>2022-09-26T12:21:20Z</time>
      </trkpt>
      <trkpt lat="41.6103880" lon="2.0922690">
        <ele>313.8</ele>
        <time>2022-09-26T12:21:21Z</time>
      </trkpt>
      <trkpt lat="41.6103330" lon="2.0923290">
        <ele>313.7</ele>
        <time>2022-09-26T12:21:22Z</time>
      </trkpt>
      <trkpt lat="41.6102780" lon="2.0923870">
        <ele>313.5</ele>
        <time>2022-09-26T12:21:23Z</time>
      </trkpt>
      <trkpt lat="41.6102180" lon="2.0924420">
        <ele>313.4</ele>
        <time>2022-09-26T12:21:24Z</time>
      </trkpt>
      <trkpt lat="41.6101600" lon="2.0924930">
        <ele>313.2</ele>
        <time>2022-09-26T12:21:25Z</time>
      </trkpt>
      <trkpt lat="41.6101040" lon="2.0925520">
        <ele>313.1</ele>
        <time>2022-09-26T12:21:26Z</time>
      </trkpt>
      <trkpt lat="41.6100490" lon="2.0926090">
        <ele>312.9</ele>
        <time>2022-09-26T12:21:27Z</time>
      </trkpt>
      <trkpt lat="41.6099970" lon="2.0926720">
        <ele>312.8</ele>
        <time>2022-09-26T12:21:28Z</time>
      </trkpt>
      <trkpt lat="41.6099440" lon="2.0927380">
        <ele>312.6</ele>
        <time>2022-09-26T12:21:29Z</time>
      </trkpt>
      <trkpt lat="41.6098870" lon="2.0927940">
        <ele>312.4</ele>
        <time>2022-09-26T12:21:30Z</time>
      </trkpt>
      <trkpt lat="41.6098270" lon="2.0928520">
        <ele>312.2</ele>
        <time>2022-09-26T12:21:31Z</time>
      </trkpt>
      <trkpt lat="41.6097730" lon="2.0929050">
        <ele>312.1</ele>
        <time>2022-09-26T12:21:32Z</time>
      </trkpt>
      <trkpt lat="41.6097220" lon="2.0929570">
        <ele>311.9</ele>
        <time>2022-09-26T12:21:33Z</time>
      </trkpt>
      <trkpt lat="41.6096700" lon="2.0930140">
        <ele>311.6</ele>
        <time>2022-09-26T12:21:34Z</time>
      </trkpt>
      <trkpt lat="41.6096200" lon="2.0930800">
        <ele>311.1</ele>
        <time>2022-09-26T12:21:35Z</time>
      </trkpt>
      <trkpt lat="41.6095680" lon="2.0931560">
        <ele>310.6</ele>
        <time>2022-09-26T12:21:36Z</time>
      </trkpt>
      <trkpt lat="41.6095190" lon="2.0932460">
        <ele>309.8</ele>
        <time>2022-09-26T12:21:37Z</time>
      </trkpt>
      <trkpt lat="41.6094690" lon="2.0933380">
        <ele>309.0</ele>
        <time>2022-09-26T12:21:38Z</time>
      </trkpt>
      <trkpt lat="41.6094180" lon="2.0934350">
        <ele>308.2</ele>
        <time>2022-09-26T12:21:39Z</time>
      </trkpt>
      <trkpt lat="41.6093680" lon="2.0935280">
        <ele>307.4</ele>
        <time>2022-09-26T12:21:40Z</time>
      </trkpt>
      <trkpt lat="41.6093230" lon="2.0936040">
        <ele>306.7</ele>
        <time>2022-09-26T12:21:41Z</time>
      </trkpt>
      <trkpt lat="41.6092840" lon="2.0936620">
        <ele>306.2</ele>
        <time>2022-09-26T12:21:42Z</time>
      </trkpt>
      <trkpt lat="41.6092480" lon="2.0937040">
        <ele>305.7</ele>
        <time>2022-09-26T12:21:43Z</time>
      </trkpt>
      <trkpt lat="41.6092230" lon="2.0937230">
        <ele>305.5</ele>
        <time>2022-09-26T12:21:44Z</time>
      </trkpt>
      <trkpt lat="41.6092120" lon="2.0937310">
        <ele>305.4</ele>
        <time>2022-09-26T12:21:45Z</time>
      </trkpt>
      <trkpt lat="41.6091820" lon="2.0937600">
        <ele>305.4</ele>
        <time>2022-09-26T12:21:46Z</time>
      </trkpt>
      <trkpt lat="41.6091720" lon="2.0937730">
        <ele>305.4</ele>
        <time>2022-09-26T12:21:47Z</time>
      </trkpt>
      <trkpt lat="41.6091540" lon="2.0938030">
        <ele>305.4</ele>
        <time>2022-09-26T12:21:48Z</time>
      </trkpt>
      <trkpt lat="41.6091360" lon="2.0938390">
        <ele>305.4</ele>
        <time>2022-09-26T12:21:49Z</time>
      </trkpt>
      <trkpt lat="41.6091190" lon="2.0938680">
        <ele>305.5</ele>
        <time>2022-09-26T12:21:50Z</time>
      </trkpt>
      <trkpt lat="41.6091190" lon="2.0938890">
        <ele>304.9</ele>
        <time>2022-09-26T12:21:51Z</time>
      </trkpt>
      <trkpt lat="41.6091270" lon="2.0939700">
        <ele>304.4</ele>
        <time>2022-09-26T12:21:53Z</time>
      </trkpt>
      <trkpt lat="41.6091120" lon="2.0940040">
        <ele>304.1</ele>
        <time>2022-09-26T12:21:54Z</time>
      </trkpt>
      <trkpt lat="41.6090890" lon="2.0940410">
        <ele>304.2</ele>
        <time>2022-09-26T12:21:55Z</time>
      </trkpt>
      <trkpt lat="41.6090570" lon="2.0940650">
        <ele>304.1</ele>
        <time>2022-09-26T12:21:57Z</time>
      </trkpt>
      <trkpt lat="41.6090240" lon="2.0940710">
        <ele>304.0</ele>
        <time>2022-09-26T12:21:58Z</time>
      </trkpt>
      <trkpt lat="41.6089850" lon="2.0940840">
        <ele>303.9</ele>
        <time>2022-09-26T12:21:59Z</time>
      </trkpt>
      <trkpt lat="41.6089360" lon="2.0941050">
        <ele>303.8</ele>
        <time>2022-09-26T12:22:00Z</time>
      </trkpt>
      <trkpt lat="41.6088840" lon="2.0941060">
        <ele>303.6</ele>
        <time>2022-09-26T12:22:01Z</time>
      </trkpt>
      <trkpt lat="41.6088290" lon="2.0941070">
        <ele>303.5</ele>
        <time>2022-09-26T12:22:02Z</time>
      </trkpt>
      <trkpt lat="41.6087780" lon="2.0941220">
        <ele>303.3</ele>
        <time>2022-09-26T12:22:03Z</time>
      </trkpt>
      <trkpt lat="41.6087240" lon="2.0941440">
        <ele>303.0</ele>
        <time>2022-09-26T12:22:04Z</time>
      </trkpt>
      <trkpt lat="41.6086700" lon="2.0941640">
        <ele>302.8</ele>
        <time>2022-09-26T12:22:05Z</time>
      </trkpt>
      <trkpt lat="41.6086210" lon="2.0941800">
        <ele>302.6</ele>
        <time>2022-09-26T12:22:06Z</time>
      </trkpt>
      <trkpt lat="41.6085700" lon="2.0942120">
        <ele>302.4</ele>
        <time>2022-09-26T12:22:07Z</time>
      </trkpt>
      <trkpt lat="41.6085250" lon="2.0942760">
        <ele>302.1</ele>
        <time>2022-09-26T12:22:08Z</time>
      </trkpt>
      <trkpt lat="41.6084880" lon="2.0943460">
        <ele>301.8</ele>
        <time>2022-09-26T12:22:09Z</time>
      </trkpt>
      <trkpt lat="41.6084580" lon="2.0944050">
        <ele>301.6</ele>
        <time>2022-09-26T12:22:10Z</time>
      </trkpt>
      <trkpt lat="41.6084270" lon="2.0944510">
        <ele>301.4</ele>
        <time>2022-09-26T12:22:11Z</time>
      </trkpt>
      <trkpt lat="41.6083930" lon="2.0944680">
        <ele>301.2</ele>
        <time>2022-09-26T12:22:12Z</time>
      </trkpt>
      <trkpt lat="41.6083620" lon="2.0944760">
        <ele>301.1</ele>
        <time>2022-09-26T12:22:13Z</time>
      </trkpt>
      <trkpt lat="41.6083310" lon="2.0944840">
        <ele>301.0</ele>
        <time>2022-09-26T12:22:14Z</time>
      </trkpt>
      <trkpt lat="41.6082510" lon="2.0944800">
        <ele>300.6</ele>
        <time>2022-09-26T12:22:15Z</time>
      </trkpt>
      <trkpt lat="41.6081670" lon="2.0944850">
        <ele>300.1</ele>
        <time>2022-09-26T12:22:16Z</time>
      </trkpt>
      <trkpt lat="41.6080860" lon="2.0945080">
        <ele>299.7</ele>
        <time>2022-09-26T12:22:17Z</time>
      </trkpt>
      <trkpt lat="41.6080000" lon="2.0945530">
        <ele>299.2</ele>
        <time>2022-09-26T12:22:18Z</time>
      </trkpt>
      <trkpt lat="41.6079250" lon="2.0946150">
        <ele>298.7</ele>
        <time>2022-09-26T12:22:19Z</time>
      </trkpt>
      <trkpt lat="41.6078580" lon="2.0946860">
        <ele>298.2</ele>
        <time>2022-09-26T12:22:20Z</time>
      </trkpt>
      <trkpt lat="41.6077930" lon="2.0947490">
        <ele>297.7</ele>
        <time>2022-09-26T12:22:21Z</time>
      </trkpt>
      <trkpt lat="41.6077310" lon="2.0947950">
        <ele>297.3</ele>
        <time>2022-09-26T12:22:22Z</time>
      </trkpt>
      <trkpt lat="41.6076570" lon="2.0948250">
        <ele>297.0</ele>
        <time>2022-09-26T12:22:23Z</time>
      </trkpt>
      <trkpt lat="41.6075840" lon="2.0948590">
        <ele>296.7</ele>
        <time>2022-09-26T12:22:24Z</time>
      </trkpt>
      <trkpt lat="41.6075100" lon="2.0948730">
        <ele>296.5</ele>
        <time>2022-09-26T12:22:25Z</time>
      </trkpt>
      <trkpt lat="41.6074460" lon="2.0948480">
        <ele>296.4</ele>
        <time>2022-09-26T12:22:26Z</time>
      </trkpt>
      <trkpt lat="41.6073950" lon="2.0947980">
        <ele>296.3</ele>
        <time>2022-09-26T12:22:27Z</time>
      </trkpt>
      <trkpt lat="41.6073450" lon="2.0947460">
        <ele>296.2</ele>
        <time>2022-09-26T12:22:28Z</time>
      </trkpt>
      <trkpt lat="41.6073000" lon="2.0946990">
        <ele>296.2</ele>
        <time>2022-09-26T12:22:29Z</time>
      </trkpt>
      <trkpt lat="41.6072580" lon="2.0946560">
        <ele>296.2</ele>
        <time>2022-09-26T12:22:30Z</time>
      </trkpt>
      <trkpt lat="41.6072170" lon="2.0946200">
        <ele>296.3</ele>
        <time>2022-09-26T12:22:31Z</time>
      </trkpt>
      <trkpt lat="41.6071750" lon="2.0945890">
        <ele>296.3</ele>
        <time>2022-09-26T12:22:32Z</time>
      </trkpt>
      <trkpt lat="41.6071330" lon="2.0945590">
        <ele>296.4</ele>
        <time>2022-09-26T12:22:33Z</time>
      </trkpt>
      <trkpt lat="41.6071020" lon="2.0945240">
        <ele>296.4</ele>
        <time>2022-09-26T12:22:34Z</time>
      </trkpt>
      <trkpt lat="41.6070600" lon="2.0944750">
        <ele>296.5</ele>
        <time>2022-09-26T12:22:35Z</time>
      </trkpt>
      <trkpt lat="41.6070290" lon="2.0944430">
        <ele>296.5</ele>
        <time>2022-09-26T12:22:36Z</time>
      </trkpt>
      <trkpt lat="41.6069990" lon="2.0944110">
        <ele>296.5</ele>
        <time>2022-09-26T12:22:37Z</time>
      </trkpt>
      <trkpt lat="41.6069850" lon="2.0944100">
        <ele>296.5</ele>
        <time>2022-09-26T12:22:38Z</time>
      </trkpt>
      <trkpt lat="41.6069740" lon="2.0944130">
        <ele>296.5</ele>
        <time>2022-09-26T12:22:39Z</time>
      </trkpt>
      <trkpt lat="41.6069680" lon="2.0944340">
        <ele>296.6</ele>
        <time>2022-09-26T12:22:40Z</time>
      </trkpt>
      <trkpt lat="41.6069660" lon="2.0944410">
        <ele>296.6</ele>
        <time>2022-09-26T12:22:42Z</time>
      </trkpt>
      <trkpt lat="41.6069690" lon="2.0944380">
        <ele>296.6</ele>
        <time>2022-09-26T12:22:43Z</time>
      </trkpt>
      <trkpt lat="41.6069690" lon="2.0944390">
        <ele>296.6</ele>
        <time>2022-09-26T12:22:44Z</time>
      </trkpt>
      <trkpt lat="41.6069690" lon="2.0944390">
        <ele>296.6</ele>
        <time>2022-09-26T12:22:45Z</time>
      </trkpt>
      <trkpt lat="41.6069690" lon="2.0944400">
        <ele>296.6</ele>
        <time>2022-09-26T12:22:46Z</time>
      </trkpt>
      <trkpt lat="41.6069690" lon="2.0944410">
        <ele>296.6</ele>
        <time>2022-09-26T12:22:47Z</time>
      </trkpt>
      <trkpt lat="41.6069690" lon="2.0944420">
        <ele>296.6</ele>
        <time>2022-09-26T12:22:48Z</time>
      </trkpt>
      <trkpt lat="41.6069680" lon="2.0944420">
        <ele>296.6</ele>
        <time>2022-09-26T12:22:49Z</time>
      </trkpt>
      <trkpt lat="41.6069190" lon="2.0944130">
        <ele>296.6</ele>
        <time>2022-09-26T12:24:09Z</time>
      </trkpt>
      <trkpt lat="41.6068990" lon="2.0944100">
        <ele>296.6</ele>
        <time>2022-09-26T12:24:10Z</time>
      </trkpt>
      <trkpt lat="41.6068600" lon="2.0944200">
        <ele>296.5</ele>
        <time>2022-09-26T12:24:12Z</time>
      </trkpt>
      <trkpt lat="41.6068250" lon="2.0944350">
        <ele>296.5</ele>
        <time>2022-09-26T12:24:13Z</time>
      </trkpt>
      <trkpt lat="41.6067860" lon="2.0944540">
        <ele>295.1</ele>
        <time>2022-09-26T12:24:14Z</time>
      </trkpt>
      <trkpt lat="41.6067560" lon="2.0944700">
        <ele>294.9</ele>
        <time>2022-09-26T12:24:15Z</time>
      </trkpt>
      <trkpt lat="41.6067190" lon="2.0945130">
        <ele>294.5</ele>
        <time>2022-09-26T12:24:16Z</time>
      </trkpt>
      <trkpt lat="41.6066810" lon="2.0945660">
        <ele>294.2</ele>
        <time>2022-09-26T12:24:17Z</time>
      </trkpt>
      <trkpt lat="41.6066420" lon="2.0946340">
        <ele>293.8</ele>
        <time>2022-09-26T12:24:18Z</time>
      </trkpt>
      <trkpt lat="41.6066000" lon="2.0947080">
        <ele>293.3</ele>
        <time>2022-09-26T12:24:19Z</time>
      </trkpt>
      <trkpt lat="41.6065570" lon="2.0947880">
        <ele>292.9</ele>
        <time>2022-09-26T12:24:20Z</time>
      </trkpt>
      <trkpt lat="41.6065080" lon="2.0948640">
        <ele>292.6</ele>
        <time>2022-09-26T12:24:21Z</time>
      </trkpt>
      <trkpt lat="41.6064510" lon="2.0949260">
        <ele>292.4</ele>
        <time>2022-09-26T12:24:22Z</time>
      </trkpt>
      <trkpt lat="41.6063860" lon="2.0949720">
        <ele>292.3</ele>
        <time>2022-09-26T12:24:23Z</time>
      </trkpt>
      <trkpt lat="41.6063190" lon="2.0950100">
        <ele>292.3</ele>
        <time>2022-09-26T12:24:24Z</time>
      </trkpt>
      <trkpt lat="41.6062520" lon="2.0950440">
        <ele>292.3</ele>
        <time>2022-09-26T12:24:25Z</time>
      </trkpt>
      <trkpt lat="41.6061880" lon="2.0950750">
        <ele>292.3</ele>
        <time>2022-09-26T12:24:26Z</time>
      </trkpt>
      <trkpt lat="41.6061230" lon="2.0951030">
        <ele>292.4</ele>
        <time>2022-09-26T12:24:27Z</time>
      </trkpt>
      <trkpt lat="41.6060620" lon="2.0951340">
        <ele>292.5</ele>
        <time>2022-09-26T12:24:28Z</time>
      </trkpt>
      <trkpt lat="41.6060020" lon="2.0951660">
        <ele>292.7</ele>
        <time>2022-09-26T12:24:29Z</time>
      </trkpt>
      <trkpt lat="41.6059440" lon="2.0951970">
        <ele>292.8</ele>
        <time>2022-09-26T12:24:30Z</time>
      </trkpt>
      <trkpt lat="41.6058880" lon="2.0952270">
        <ele>293.1</ele>
        <time>2022-09-26T12:24:31Z</time>
      </trkpt>
      <trkpt lat="41.6058360" lon="2.0952570">
        <ele>293.3</ele>
        <time>2022-09-26T12:24:32Z</time>
      </trkpt>
      <trkpt lat="41.6057860" lon="2.0952820">
        <ele>293.6</ele>
        <time>2022-09-26T12:24:33Z</time>
      </trkpt>
      <trkpt lat="41.6057380" lon="2.0953080">
        <ele>293.8</ele>
        <time>2022-09-26T12:24:34Z</time>
      </trkpt>
      <trkpt lat="41.6056930" lon="2.0953340">
        <ele>294.1</ele>
        <time>2022-09-26T12:24:35Z</time>
      </trkpt>
      <trkpt lat="41.6056520" lon="2.0953560">
        <ele>294.3</ele>
        <time>2022-09-26T12:24:36Z</time>
      </trkpt>
      <trkpt lat="41.6056140" lon="2.0953760">
        <ele>294.6</ele>
        <time>2022-09-26T12:24:37Z</time>
      </trkpt>
      <trkpt lat="41.6055870" lon="2.0953910">
        <ele>294.8</ele>
        <time>2022-09-26T12:24:38Z</time>
      </trkpt>
      <trkpt lat="41.6055530" lon="2.0954130">
        <ele>295.0</ele>
        <time>2022-09-26T12:24:39Z</time>
      </trkpt>
      <trkpt lat="41.6055200" lon="2.0954320">
        <ele>295.2</ele>
        <time>2022-09-26T12:24:40Z</time>
      </trkpt>
      <trkpt lat="41.6054840" lon="2.0954480">
        <ele>295.5</ele>
        <time>2022-09-26T12:24:41Z</time>
      </trkpt>
      <trkpt lat="41.6054650" lon="2.0954620">
        <ele>295.6</ele>
        <time>2022-09-26T12:24:42Z</time>
      </trkpt>
      <trkpt lat="41.6054510" lon="2.0954680">
        <ele>295.7</ele>
        <time>2022-09-26T12:24:43Z</time>
      </trkpt>
      <trkpt lat="41.6054360" lon="2.0954730">
        <ele>295.8</ele>
        <time>2022-09-26T12:24:44Z</time>
      </trkpt>
      <trkpt lat="41.6053990" lon="2.0954930">
        <ele>296.1</ele>
        <time>2022-09-26T12:24:45Z</time>
      </trkpt>
      <trkpt lat="41.6053620" lon="2.0955130">
        <ele>296.4</ele>
        <time>2022-09-26T12:24:46Z</time>
      </trkpt>
      <trkpt lat="41.6053280" lon="2.0955290">
        <ele>296.6</ele>
        <time>2022-09-26T12:24:47Z</time>
      </trkpt>
      <trkpt lat="41.6052980" lon="2.0955470">
        <ele>296.9</ele>
        <time>2022-09-26T12:24:48Z</time>
      </trkpt>
      <trkpt lat="41.6052640" lon="2.0955730">
        <ele>297.1</ele>
        <time>2022-09-26T12:24:49Z</time>
      </trkpt>
      <trkpt lat="41.6052520" lon="2.0955840">
        <ele>297.2</ele>
        <time>2022-09-26T12:24:50Z</time>
      </trkpt>
      <trkpt lat="41.6052290" lon="2.0956080">
        <ele>297.3</ele>
        <time>2022-09-26T12:24:51Z</time>
      </trkpt>
      <trkpt lat="41.6052000" lon="2.0956460">
        <ele>297.5</ele>
        <time>2022-09-26T12:24:52Z</time>
      </trkpt>
      <trkpt lat="41.6051750" lon="2.0956780">
        <ele>297.7</ele>
        <time>2022-09-26T12:24:53Z</time>
      </trkpt>
      <trkpt lat="41.6051500" lon="2.0957150">
        <ele>297.8</ele>
        <time>2022-09-26T12:24:54Z</time>
      </trkpt>
      <trkpt lat="41.6051340" lon="2.0957450">
        <ele>297.9</ele>
        <time>2022-09-26T12:24:55Z</time>
      </trkpt>
      <trkpt lat="41.6050940" lon="2.0958210">
        <ele>298.0</ele>
        <time>2022-09-26T12:24:57Z</time>
      </trkpt>
      <trkpt lat="41.6050550" lon="2.0958750">
        <ele>298.2</ele>
        <time>2022-09-26T12:24:59Z</time>
      </trkpt>
      <trkpt lat="41.6050340" lon="2.0959200">
        <ele>298.3</ele>
        <time>2022-09-26T12:25:00Z</time>
      </trkpt>
      <trkpt lat="41.6050120" lon="2.0959610">
        <ele>298.3</ele>
        <time>2022-09-26T12:25:01Z</time>
      </trkpt>
      <trkpt lat="41.6049890" lon="2.0960070">
        <ele>298.4</ele>
        <time>2022-09-26T12:25:02Z</time>
      </trkpt>
      <trkpt lat="41.6049710" lon="2.0960470">
        <ele>298.5</ele>
        <time>2022-09-26T12:25:03Z</time>
      </trkpt>
      <trkpt lat="41.6049520" lon="2.0960830">
        <ele>298.6</ele>
        <time>2022-09-26T12:25:04Z</time>
      </trkpt>
      <trkpt lat="41.6049370" lon="2.0961190">
        <ele>298.6</ele>
        <time>2022-09-26T12:25:05Z</time>
      </trkpt>
      <trkpt lat="41.6049010" lon="2.0961820">
        <ele>298.8</ele>
        <time>2022-09-26T12:25:07Z</time>
      </trkpt>
      <trkpt lat="41.6048750" lon="2.0962270">
        <ele>298.9</ele>
        <time>2022-09-26T12:25:08Z</time>
      </trkpt>
      <trkpt lat="41.6048530" lon="2.0962700">
        <ele>298.9</ele>
        <time>2022-09-26T12:25:09Z</time>
      </trkpt>
      <trkpt lat="41.6048310" lon="2.0963160">
        <ele>299.0</ele>
        <time>2022-09-26T12:25:10Z</time>
      </trkpt>
      <trkpt lat="41.6048090" lon="2.0963660">
        <ele>299.1</ele>
        <time>2022-09-26T12:25:12Z</time>
      </trkpt>
      <trkpt lat="41.6047720" lon="2.0964270">
        <ele>299.3</ele>
        <time>2022-09-26T12:25:13Z</time>
      </trkpt>
      <trkpt lat="41.6047450" lon="2.0964680">
        <ele>299.3</ele>
        <time>2022-09-26T12:25:14Z</time>
      </trkpt>
      <trkpt lat="41.6047250" lon="2.0965150">
        <ele>299.4</ele>
        <time>2022-09-26T12:25:15Z</time>
      </trkpt>
      <trkpt lat="41.6047090" lon="2.0965670">
        <ele>299.5</ele>
        <time>2022-09-26T12:25:16Z</time>
      </trkpt>
      <trkpt lat="41.6046890" lon="2.0966060">
        <ele>299.6</ele>
        <time>2022-09-26T12:25:17Z</time>
      </trkpt>
      <trkpt lat="41.6046490" lon="2.0966860">
        <ele>299.8</ele>
        <time>2022-09-26T12:25:19Z</time>
      </trkpt>
      <trkpt lat="41.6046330" lon="2.0967380">
        <ele>299.9</ele>
        <time>2022-09-26T12:25:20Z</time>
      </trkpt>
      <trkpt lat="41.6046160" lon="2.0967880">
        <ele>300.0</ele>
        <time>2022-09-26T12:25:21Z</time>
      </trkpt>
      <trkpt lat="41.6045980" lon="2.0968340">
        <ele>300.2</ele>
        <time>2022-09-26T12:25:22Z</time>
      </trkpt>
      <trkpt lat="41.6045890" lon="2.0968690">
        <ele>300.3</ele>
        <time>2022-09-26T12:25:23Z</time>
      </trkpt>
      <trkpt lat="41.6045680" lon="2.0969280">
        <ele>300.4</ele>
        <time>2022-09-26T12:25:25Z</time>
      </trkpt>
      <trkpt lat="41.6045510" lon="2.0969930">
        <ele>300.6</ele>
        <time>2022-09-26T12:25:26Z</time>
      </trkpt>
      <trkpt lat="41.6045390" lon="2.0970360">
        <ele>300.7</ele>
        <time>2022-09-26T12:25:27Z</time>
      </trkpt>
      <trkpt lat="41.6045270" lon="2.0970750">
        <ele>300.8</ele>
        <time>2022-09-26T12:25:28Z</time>
      </trkpt>
      <trkpt lat="41.6044980" lon="2.0971610">
        <ele>301.1</ele>
        <time>2022-09-26T12:25:30Z</time>
      </trkpt>
      <trkpt lat="41.6044800" lon="2.0972200">
        <ele>301.3</ele>
        <time>2022-09-26T12:25:31Z</time>
      </trkpt>
      <trkpt lat="41.6044670" lon="2.0972710">
        <ele>301.5</ele>
        <time>2022-09-26T12:25:32Z</time>
      </trkpt>
      <trkpt lat="41.6044540" lon="2.0973170">
        <ele>301.6</ele>
        <time>2022-09-26T12:25:33Z</time>
      </trkpt>
      <trkpt lat="41.6044370" lon="2.0974070">
        <ele>301.9</ele>
        <time>2022-09-26T12:25:35Z</time>
      </trkpt>
      <trkpt lat="41.6044270" lon="2.0974580">
        <ele>302.1</ele>
        <time>2022-09-26T12:25:36Z</time>
      </trkpt>
      <trkpt lat="41.6044170" lon="2.0975140">
        <ele>302.3</ele>
        <time>2022-09-26T12:25:37Z</time>
      </trkpt>
      <trkpt lat="41.6044090" lon="2.0975640">
        <ele>302.5</ele>
        <time>2022-09-26T12:25:38Z</time>
      </trkpt>
      <trkpt lat="41.6044040" lon="2.0976020">
        <ele>302.6</ele>
        <time>2022-09-26T12:25:39Z</time>
      </trkpt>
      <trkpt lat="41.6043910" lon="2.0976470">
        <ele>302.8</ele>
        <time>2022-09-26T12:25:40Z</time>
      </trkpt>
      <trkpt lat="41.6043780" lon="2.0977270">
        <ele>303.1</ele>
        <time>2022-09-26T12:25:42Z</time>
      </trkpt>
      <trkpt lat="41.6043710" lon="2.0977810">
        <ele>303.4</ele>
        <time>2022-09-26T12:25:43Z</time>
      </trkpt>
      <trkpt lat="41.6043630" lon="2.0978410">
        <ele>303.6</ele>
        <time>2022-09-26T12:25:44Z</time>
      </trkpt>
      <trkpt lat="41.6043510" lon="2.0978860">
        <ele>303.8</ele>
        <time>2022-09-26T12:25:45Z</time>
      </trkpt>
      <trkpt lat="41.6043380" lon="2.0979330">
        <ele>304.0</ele>
        <time>2022-09-26T12:25:46Z</time>
      </trkpt>
      <trkpt lat="41.6043250" lon="2.0979790">
        <ele>304.2</ele>
        <time>2022-09-26T12:25:47Z</time>
      </trkpt>
      <trkpt lat="41.6043150" lon="2.0980150">
        <ele>304.4</ele>
        <time>2022-09-26T12:25:48Z</time>
      </trkpt>
      <trkpt lat="41.6043070" lon="2.0980530">
        <ele>304.6</ele>
        <time>2022-09-26T12:25:49Z</time>
      </trkpt>
      <trkpt lat="41.6043030" lon="2.0981050">
        <ele>304.8</ele>
        <time>2022-09-26T12:25:50Z</time>
      </trkpt>
      <trkpt lat="41.6043010" lon="2.0981250">
        <ele>304.9</ele>
        <time>2022-09-26T12:25:51Z</time>
      </trkpt>
      <trkpt lat="41.6043000" lon="2.0981710">
        <ele>305.1</ele>
        <time>2022-09-26T12:25:52Z</time>
      </trkpt>
      <trkpt lat="41.6042920" lon="2.0982110">
        <ele>305.3</ele>
        <time>2022-09-26T12:25:53Z</time>
      </trkpt>
      <trkpt lat="41.6042760" lon="2.0982490">
        <ele>305.5</ele>
        <time>2022-09-26T12:25:54Z</time>
      </trkpt>
      <trkpt lat="41.6042560" lon="2.0982910">
        <ele>305.7</ele>
        <time>2022-09-26T12:25:55Z</time>
      </trkpt>
      <trkpt lat="41.6042490" lon="2.0983060">
        <ele>305.8</ele>
        <time>2022-09-26T12:25:56Z</time>
      </trkpt>
      <trkpt lat="41.6042290" lon="2.0983370">
        <ele>305.9</ele>
        <time>2022-09-26T12:25:57Z</time>
      </trkpt>
      <trkpt lat="41.6042090" lon="2.0983700">
        <ele>306.0</ele>
        <time>2022-09-26T12:25:58Z</time>
      </trkpt>
      <trkpt lat="41.6041880" lon="2.0983980">
        <ele>306.1</ele>
        <time>2022-09-26T12:25:59Z</time>
      </trkpt>
      <trkpt lat="41.6041670" lon="2.0984210">
        <ele>306.2</ele>
        <time>2022-09-26T12:26:00Z</time>
      </trkpt>
      <trkpt lat="41.6041470" lon="2.0984490">
        <ele>306.2</ele>
        <time>2022-09-26T12:26:01Z</time>
      </trkpt>
      <trkpt lat="41.6041080" lon="2.0984860">
        <ele>306.4</ele>
        <time>2022-09-26T12:26:03Z</time>
      </trkpt>
      <trkpt lat="41.6040760" lon="2.0985120">
        <ele>306.5</ele>
        <time>2022-09-26T12:26:04Z</time>
      </trkpt>
      <trkpt lat="41.6040480" lon="2.0985350">
        <ele>306.6</ele>
        <time>2022-09-26T12:26:05Z</time>
      </trkpt>
      <trkpt lat="41.6040140" lon="2.0985650">
        <ele>306.7</ele>
        <time>2022-09-26T12:26:06Z</time>
      </trkpt>
      <trkpt lat="41.6039920" lon="2.0985820">
        <ele>306.8</ele>
        <time>2022-09-26T12:26:07Z</time>
      </trkpt>
      <trkpt lat="41.6039490" lon="2.0986100">
        <ele>306.9</ele>
        <time>2022-09-26T12:26:09Z</time>
      </trkpt>
      <trkpt lat="41.6039160" lon="2.0986370">
        <ele>307.0</ele>
        <time>2022-09-26T12:26:10Z</time>
      </trkpt>
      <trkpt lat="41.6038820" lon="2.0986660">
        <ele>307.1</ele>
        <time>2022-09-26T12:26:11Z</time>
      </trkpt>
      <trkpt lat="41.6038490" lon="2.0986900">
        <ele>307.2</ele>
        <time>2022-09-26T12:26:12Z</time>
      </trkpt>
      <trkpt lat="41.6038190" lon="2.0987090">
        <ele>307.3</ele>
        <time>2022-09-26T12:26:13Z</time>
      </trkpt>
      <trkpt lat="41.6037860" lon="2.0987300">
        <ele>307.5</ele>
        <time>2022-09-26T12:26:14Z</time>
      </trkpt>
      <trkpt lat="41.6037530" lon="2.0987540">
        <ele>307.6</ele>
        <time>2022-09-26T12:26:15Z</time>
      </trkpt>
      <trkpt lat="41.6037160" lon="2.0987770">
        <ele>307.7</ele>
        <time>2022-09-26T12:26:16Z</time>
      </trkpt>
      <trkpt lat="41.6036840" lon="2.0988030">
        <ele>307.8</ele>
        <time>2022-09-26T12:26:17Z</time>
      </trkpt>
      <trkpt lat="41.6036350" lon="2.0988390">
        <ele>307.9</ele>
        <time>2022-09-26T12:26:19Z</time>
      </trkpt>
      <trkpt lat="41.6036090" lon="2.0988550">
        <ele>307.9</ele>
        <time>2022-09-26T12:26:20Z</time>
      </trkpt>
      <trkpt lat="41.6035710" lon="2.0988780">
        <ele>308.0</ele>
        <time>2022-09-26T12:26:21Z</time>
      </trkpt>
      <trkpt lat="41.6035160" lon="2.0989060">
        <ele>308.2</ele>
        <time>2022-09-26T12:26:22Z</time>
      </trkpt>
      <trkpt lat="41.6034830" lon="2.0989210">
        <ele>308.3</ele>
        <time>2022-09-26T12:26:23Z</time>
      </trkpt>
      <trkpt lat="41.6034560" lon="2.0989350">
        <ele>308.3</ele>
        <time>2022-09-26T12:26:24Z</time>
      </trkpt>
      <trkpt lat="41.6034220" lon="2.0989540">
        <ele>308.4</ele>
        <time>2022-09-26T12:26:25Z</time>
      </trkpt>
      <trkpt lat="41.6033850" lon="2.0989810">
        <ele>308.5</ele>
        <time>2022-09-26T12:26:26Z</time>
      </trkpt>
      <trkpt lat="41.6033480" lon="2.0990070">
        <ele>308.6</ele>
        <time>2022-09-26T12:26:27Z</time>
      </trkpt>
      <trkpt lat="41.6033140" lon="2.0990350">
        <ele>308.7</ele>
        <time>2022-09-26T12:26:28Z</time>
      </trkpt>
      <trkpt lat="41.6032800" lon="2.0990520">
        <ele>308.8</ele>
        <time>2022-09-26T12:26:29Z</time>
      </trkpt>
      <trkpt lat="41.6032130" lon="2.0990680">
        <ele>308.9</ele>
        <time>2022-09-26T12:26:31Z</time>
      </trkpt>
      <trkpt lat="41.6031760" lon="2.0990690">
        <ele>308.9</ele>
        <time>2022-09-26T12:26:32Z</time>
      </trkpt>
      <trkpt lat="41.6031320" lon="2.0990650">
        <ele>308.9</ele>
        <time>2022-09-26T12:26:33Z</time>
      </trkpt>
      <trkpt lat="41.6030760" lon="2.0990660">
        <ele>308.9</ele>
        <time>2022-09-26T12:26:35Z</time>
      </trkpt>
      <trkpt lat="41.6030330" lon="2.0990690">
        <ele>308.8</ele>
        <time>2022-09-26T12:26:36Z</time>
      </trkpt>
      <trkpt lat="41.6029870" lon="2.0990670">
        <ele>308.8</ele>
        <time>2022-09-26T12:26:37Z</time>
      </trkpt>
      <trkpt lat="41.6029410" lon="2.0990630">
        <ele>308.7</ele>
        <time>2022-09-26T12:26:38Z</time>
      </trkpt>
      <trkpt lat="41.6028880" lon="2.0990550">
        <ele>308.7</ele>
        <time>2022-09-26T12:26:39Z</time>
      </trkpt>
      <trkpt lat="41.6028420" lon="2.0990480">
        <ele>308.6</ele>
        <time>2022-09-26T12:26:40Z</time>
      </trkpt>
      <trkpt lat="41.6027960" lon="2.0990370">
        <ele>308.6</ele>
        <time>2022-09-26T12:26:41Z</time>
      </trkpt>
      <trkpt lat="41.6027500" lon="2.0990280">
        <ele>308.5</ele>
        <time>2022-09-26T12:26:42Z</time>
      </trkpt>
      <trkpt lat="41.6027090" lon="2.0990160">
        <ele>308.5</ele>
        <time>2022-09-26T12:26:43Z</time>
      </trkpt>
      <trkpt lat="41.6026600" lon="2.0989890">
        <ele>308.4</ele>
        <time>2022-09-26T12:26:44Z</time>
      </trkpt>
      <trkpt lat="41.6026340" lon="2.0989740">
        <ele>308.4</ele>
        <time>2022-09-26T12:26:45Z</time>
      </trkpt>
      <trkpt lat="41.6025810" lon="2.0989670">
        <ele>308.3</ele>
        <time>2022-09-26T12:26:47Z</time>
      </trkpt>
      <trkpt lat="41.6025400" lon="2.0989500">
        <ele>308.3</ele>
        <time>2022-09-26T12:26:48Z</time>
      </trkpt>
      <trkpt lat="41.6024950" lon="2.0989330">
        <ele>308.2</ele>
        <time>2022-09-26T12:26:49Z</time>
      </trkpt>
      <trkpt lat="41.6024500" lon="2.0989240">
        <ele>308.1</ele>
        <time>2022-09-26T12:26:50Z</time>
      </trkpt>
      <trkpt lat="41.6024030" lon="2.0989230">
        <ele>308.1</ele>
        <time>2022-09-26T12:26:51Z</time>
      </trkpt>
      <trkpt lat="41.6023570" lon="2.0989350">
        <ele>308.0</ele>
        <time>2022-09-26T12:26:52Z</time>
      </trkpt>
      <trkpt lat="41.6023170" lon="2.0989560">
        <ele>307.9</ele>
        <time>2022-09-26T12:26:53Z</time>
      </trkpt>
      <trkpt lat="41.6022790" lon="2.0989760">
        <ele>307.8</ele>
        <time>2022-09-26T12:26:54Z</time>
      </trkpt>
      <trkpt lat="41.6022390" lon="2.0990060">
        <ele>307.7</ele>
        <time>2022-09-26T12:26:55Z</time>
      </trkpt>
      <trkpt lat="41.6022010" lon="2.0990380">
        <ele>307.6</ele>
        <time>2022-09-26T12:26:56Z</time>
      </trkpt>
      <trkpt lat="41.6021670" lon="2.0990690">
        <ele>307.5</ele>
        <time>2022-09-26T12:26:57Z</time>
      </trkpt>
      <trkpt lat="41.6021260" lon="2.0990950">
        <ele>307.3</ele>
        <time>2022-09-26T12:26:58Z</time>
      </trkpt>
      <trkpt lat="41.6020820" lon="2.0991210">
        <ele>307.2</ele>
        <time>2022-09-26T12:26:59Z</time>
      </trkpt>
      <trkpt lat="41.6020370" lon="2.0991470">
        <ele>307.0</ele>
        <time>2022-09-26T12:27:00Z</time>
      </trkpt>
      <trkpt lat="41.6019920" lon="2.0991760">
        <ele>306.9</ele>
        <time>2022-09-26T12:27:01Z</time>
      </trkpt>
      <trkpt lat="41.6019460" lon="2.0992050">
        <ele>306.6</ele>
        <time>2022-09-26T12:27:02Z</time>
      </trkpt>
      <trkpt lat="41.6019000" lon="2.0992270">
        <ele>306.4</ele>
        <time>2022-09-26T12:27:03Z</time>
      </trkpt>
      <trkpt lat="41.6018530" lon="2.0992520">
        <ele>306.2</ele>
        <time>2022-09-26T12:27:04Z</time>
      </trkpt>
      <trkpt lat="41.6018060" lon="2.0992780">
        <ele>305.9</ele>
        <time>2022-09-26T12:27:05Z</time>
      </trkpt>
      <trkpt lat="41.6017600" lon="2.0993080">
        <ele>305.6</ele>
        <time>2022-09-26T12:27:06Z</time>
      </trkpt>
      <trkpt lat="41.6017110" lon="2.0993430">
        <ele>305.3</ele>
        <time>2022-09-26T12:27:07Z</time>
      </trkpt>
      <trkpt lat="41.6016620" lon="2.0993830">
        <ele>305.0</ele>
        <time>2022-09-26T12:27:08Z</time>
      </trkpt>
      <trkpt lat="41.6016110" lon="2.0994270">
        <ele>304.6</ele>
        <time>2022-09-26T12:27:09Z</time>
      </trkpt>
      <trkpt lat="41.6015560" lon="2.0994740">
        <ele>304.2</ele>
        <time>2022-09-26T12:27:10Z</time>
      </trkpt>
      <trkpt lat="41.6015010" lon="2.0995250">
        <ele>303.8</ele>
        <time>2022-09-26T12:27:11Z</time>
      </trkpt>
      <trkpt lat="41.6014440" lon="2.0995830">
        <ele>303.4</ele>
        <time>2022-09-26T12:27:12Z</time>
      </trkpt>
      <trkpt lat="41.6013830" lon="2.0996400">
        <ele>303.0</ele>
        <time>2022-09-26T12:27:13Z</time>
      </trkpt>
      <trkpt lat="41.6013190" lon="2.0996950">
        <ele>302.6</ele>
        <time>2022-09-26T12:27:14Z</time>
      </trkpt>
      <trkpt lat="41.6012530" lon="2.0997460">
        <ele>302.3</ele>
        <time>2022-09-26T12:27:15Z</time>
      </trkpt>
      <trkpt lat="41.6011860" lon="2.0997960">
        <ele>302.0</ele>
        <time>2022-09-26T12:27:16Z</time>
      </trkpt>
      <trkpt lat="41.6011160" lon="2.0998400">
        <ele>301.7</ele>
        <time>2022-09-26T12:27:17Z</time>
      </trkpt>
      <trkpt lat="41.6010450" lon="2.0998790">
        <ele>301.5</ele>
        <time>2022-09-26T12:27:18Z</time>
      </trkpt>
      <trkpt lat="41.6009740" lon="2.0999150">
        <ele>301.3</ele>
        <time>2022-09-26T12:27:19Z</time>
      </trkpt>
      <trkpt lat="41.6009020" lon="2.0999490">
        <ele>301.2</ele>
        <time>2022-09-26T12:27:20Z</time>
      </trkpt>
      <trkpt lat="41.6008300" lon="2.0999790">
        <ele>301.1</ele>
        <time>2022-09-26T12:27:21Z</time>
      </trkpt>
      <trkpt lat="41.6007590" lon="2.1000090">
        <ele>301.1</ele>
        <time>2022-09-26T12:27:22Z</time>
      </trkpt>
      <trkpt lat="41.6006910" lon="2.1000370">
        <ele>301.1</ele>
        <time>2022-09-26T12:27:23Z</time>
      </trkpt>
      <trkpt lat="41.6006220" lon="2.1000560">
        <ele>301.1</ele>
        <time>2022-09-26T12:27:24Z</time>
      </trkpt>
      <trkpt lat="41.6005540" lon="2.1000660">
        <ele>301.2</ele>
        <time>2022-09-26T12:27:25Z</time>
      </trkpt>
      <trkpt lat="41.6004910" lon="2.1000710">
        <ele>301.2</ele>
        <time>2022-09-26T12:27:26Z</time>
      </trkpt>
      <trkpt lat="41.6004340" lon="2.1000840">
        <ele>301.3</ele>
        <time>2022-09-26T12:27:27Z</time>
      </trkpt>
      <trkpt lat="41.6003790" lon="2.1001020">
        <ele>301.4</ele>
        <time>2022-09-26T12:27:28Z</time>
      </trkpt>
      <trkpt lat="41.6003250" lon="2.1001180">
        <ele>301.6</ele>
        <time>2022-09-26T12:27:29Z</time>
      </trkpt>
      <trkpt lat="41.6002700" lon="2.1001290">
        <ele>301.8</ele>
        <time>2022-09-26T12:27:30Z</time>
      </trkpt>
      <trkpt lat="41.6002190" lon="2.1001330">
        <ele>302.0</ele>
        <time>2022-09-26T12:27:31Z</time>
      </trkpt>
      <trkpt lat="41.6001700" lon="2.1001380">
        <ele>302.2</ele>
        <time>2022-09-26T12:27:32Z</time>
      </trkpt>
      <trkpt lat="41.6001270" lon="2.1001510">
        <ele>302.4</ele>
        <time>2022-09-26T12:27:33Z</time>
      </trkpt>
      <trkpt lat="41.6001020" lon="2.1001690">
        <ele>302.5</ele>
        <time>2022-09-26T12:27:34Z</time>
      </trkpt>
      <trkpt lat="41.6000580" lon="2.1001990">
        <ele>302.8</ele>
        <time>2022-09-26T12:27:35Z</time>
      </trkpt>
      <trkpt lat="41.6000210" lon="2.1002230">
        <ele>303.0</ele>
        <time>2022-09-26T12:27:36Z</time>
      </trkpt>
      <trkpt lat="41.5999880" lon="2.1002410">
        <ele>303.2</ele>
        <time>2022-09-26T12:27:37Z</time>
      </trkpt>
      <trkpt lat="41.5999420" lon="2.1002680">
        <ele>303.4</ele>
        <time>2022-09-26T12:27:38Z</time>
      </trkpt>
      <trkpt lat="41.5999130" lon="2.1002880">
        <ele>303.6</ele>
        <time>2022-09-26T12:27:39Z</time>
      </trkpt>
      <trkpt lat="41.5999080" lon="2.1002950">
        <ele>303.6</ele>
        <time>2022-09-26T12:27:40Z</time>
      </trkpt>
      <trkpt lat="41.5998580" lon="2.1003210">
        <ele>303.9</ele>
        <time>2022-09-26T12:27:42Z</time>
      </trkpt>
      <trkpt lat="41.5998050" lon="2.1003440">
        <ele>304.3</ele>
        <time>2022-09-26T12:27:43Z</time>
      </trkpt>
      <trkpt lat="41.5997510" lon="2.1003690">
        <ele>304.7</ele>
        <time>2022-09-26T12:27:44Z</time>
      </trkpt>
      <trkpt lat="41.5997190" lon="2.1003850">
        <ele>304.9</ele>
        <time>2022-09-26T12:27:45Z</time>
      </trkpt>
      <trkpt lat="41.5996890" lon="2.1004000">
        <ele>305.1</ele>
        <time>2022-09-26T12:27:46Z</time>
      </trkpt>
      <trkpt lat="41.5996630" lon="2.1004130">
        <ele>305.3</ele>
        <time>2022-09-26T12:27:47Z</time>
      </trkpt>
      <trkpt lat="41.5996410" lon="2.1004260">
        <ele>305.5</ele>
        <time>2022-09-26T12:27:48Z</time>
      </trkpt>
      <trkpt lat="41.5995970" lon="2.1004480">
        <ele>305.8</ele>
        <time>2022-09-26T12:27:50Z</time>
      </trkpt>
      <trkpt lat="41.5995680" lon="2.1004590">
        <ele>306.1</ele>
        <time>2022-09-26T12:27:51Z</time>
      </trkpt>
      <trkpt lat="41.5995360" lon="2.1004720">
        <ele>306.4</ele>
        <time>2022-09-26T12:27:52Z</time>
      </trkpt>
      <trkpt lat="41.5995050" lon="2.1004840">
        <ele>306.6</ele>
        <time>2022-09-26T12:27:53Z</time>
      </trkpt>
      <trkpt lat="41.5994680" lon="2.1004970">
        <ele>307.0</ele>
        <time>2022-09-26T12:27:55Z</time>
      </trkpt>
      <trkpt lat="41.5994330" lon="2.1005130">
        <ele>307.3</ele>
        <time>2022-09-26T12:27:56Z</time>
      </trkpt>
      <trkpt lat="41.5994070" lon="2.1005250">
        <ele>307.6</ele>
        <time>2022-09-26T12:27:57Z</time>
      </trkpt>
      <trkpt lat="41.5993770" lon="2.1005300">
        <ele>307.9</ele>
        <time>2022-09-26T12:27:58Z</time>
      </trkpt>
      <trkpt lat="41.5993650" lon="2.1005330">
        <ele>308.0</ele>
        <time>2022-09-26T12:27:59Z</time>
      </trkpt>
      <trkpt lat="41.5993440" lon="2.1005390">
        <ele>308.2</ele>
        <time>2022-09-26T12:28:00Z</time>
      </trkpt>
      <trkpt lat="41.5993050" lon="2.1005540">
        <ele>308.6</ele>
        <time>2022-09-26T12:28:02Z</time>
      </trkpt>
      <trkpt lat="41.5992770" lon="2.1005630">
        <ele>308.9</ele>
        <time>2022-09-26T12:28:03Z</time>
      </trkpt>
      <trkpt lat="41.5992470" lon="2.1005690">
        <ele>309.2</ele>
        <time>2022-09-26T12:28:04Z</time>
      </trkpt>
      <trkpt lat="41.5992120" lon="2.1005750">
        <ele>309.6</ele>
        <time>2022-09-26T12:28:05Z</time>
      </trkpt>
      <trkpt lat="41.5991980" lon="2.1005770">
        <ele>309.7</ele>
        <time>2022-09-26T12:28:06Z</time>
      </trkpt>
      <trkpt lat="41.5991620" lon="2.1005820">
        <ele>310.1</ele>
        <time>2022-09-26T12:28:07Z</time>
      </trkpt>
      <trkpt lat="41.5991490" lon="2.1005820">
        <ele>310.2</ele>
        <time>2022-09-26T12:28:08Z</time>
      </trkpt>
      <trkpt lat="41.5991270" lon="2.1005830">
        <ele>310.5</ele>
        <time>2022-09-26T12:28:09Z</time>
      </trkpt>
      <trkpt lat="41.5990890" lon="2.1005800">
        <ele>310.8</ele>
        <time>2022-09-26T12:28:11Z</time>
      </trkpt>
      <trkpt lat="41.5990580" lon="2.1005790">
        <ele>311.1</ele>
        <time>2022-09-26T12:28:12Z</time>
      </trkpt>
      <trkpt lat="41.5990190" lon="2.1005860">
        <ele>311.5</ele>
        <time>2022-09-26T12:28:13Z</time>
      </trkpt>
      <trkpt lat="41.5990040" lon="2.1005900">
        <ele>311.6</ele>
        <time>2022-09-26T12:28:14Z</time>
      </trkpt>
      <trkpt lat="41.5989540" lon="2.1006010">
        <ele>312.0</ele>
        <time>2022-09-26T12:28:16Z</time>
      </trkpt>
      <trkpt lat="41.5989360" lon="2.1006030">
        <ele>312.2</ele>
        <time>2022-09-26T12:28:17Z</time>
      </trkpt>
      <trkpt lat="41.5989190" lon="2.1006060">
        <ele>312.3</ele>
        <time>2022-09-26T12:28:18Z</time>
      </trkpt>
      <trkpt lat="41.5988910" lon="2.1006030">
        <ele>312.6</ele>
        <time>2022-09-26T12:28:19Z</time>
      </trkpt>
      <trkpt lat="41.5988600" lon="2.1006000">
        <ele>312.8</ele>
        <time>2022-09-26T12:28:20Z</time>
      </trkpt>
      <trkpt lat="41.5988140" lon="2.1005980">
        <ele>313.2</ele>
        <time>2022-09-26T12:28:22Z</time>
      </trkpt>
      <trkpt lat="41.5988000" lon="2.1005980">
        <ele>313.3</ele>
        <time>2022-09-26T12:28:23Z</time>
      </trkpt>
      <trkpt lat="41.5987860" lon="2.1005980">
        <ele>313.4</ele>
        <time>2022-09-26T12:28:24Z</time>
      </trkpt>
      <trkpt lat="41.5987620" lon="2.1005990">
        <ele>313.6</ele>
        <time>2022-09-26T12:28:25Z</time>
      </trkpt>
      <trkpt lat="41.5987390" lon="2.1006000">
        <ele>313.7</ele>
        <time>2022-09-26T12:28:27Z</time>
      </trkpt>
      <trkpt lat="41.5986960" lon="2.1006020">
        <ele>314.1</ele>
        <time>2022-09-26T12:28:28Z</time>
      </trkpt>
      <trkpt lat="41.5986750" lon="2.1006040">
        <ele>314.2</ele>
        <time>2022-09-26T12:28:29Z</time>
      </trkpt>
      <trkpt lat="41.5986440" lon="2.1006140">
        <ele>314.4</ele>
        <time>2022-09-26T12:28:30Z</time>
      </trkpt>
      <trkpt lat="41.5986180" lon="2.1006280">
        <ele>314.6</ele>
        <time>2022-09-26T12:28:31Z</time>
      </trkpt>
      <trkpt lat="41.5985910" lon="2.1006410">
        <ele>314.7</ele>
        <time>2022-09-26T12:28:32Z</time>
      </trkpt>
      <trkpt lat="41.5985820" lon="2.1006440">
        <ele>314.8</ele>
        <time>2022-09-26T12:28:33Z</time>
      </trkpt>
      <trkpt lat="41.5985500" lon="2.1006570">
        <ele>315.0</ele>
        <time>2022-09-26T12:28:34Z</time>
      </trkpt>
      <trkpt lat="41.5985420" lon="2.1006640">
        <ele>315.0</ele>
        <time>2022-09-26T12:28:35Z</time>
      </trkpt>
      <trkpt lat="41.5985150" lon="2.1006780">
        <ele>315.1</ele>
        <time>2022-09-26T12:28:36Z</time>
      </trkpt>
      <trkpt lat="41.5985060" lon="2.1006810">
        <ele>315.2</ele>
        <time>2022-09-26T12:28:37Z</time>
      </trkpt>
      <trkpt lat="41.5984700" lon="2.1006850">
        <ele>315.3</ele>
        <time>2022-09-26T12:28:38Z</time>
      </trkpt>
      <trkpt lat="41.5984550" lon="2.1006870">
        <ele>315.4</ele>
        <time>2022-09-26T12:28:39Z</time>
      </trkpt>
      <trkpt lat="41.5984190" lon="2.1006880">
        <ele>315.5</ele>
        <time>2022-09-26T12:28:40Z</time>
      </trkpt>
      <trkpt lat="41.5984060" lon="2.1006890">
        <ele>315.5</ele>
        <time>2022-09-26T12:28:41Z</time>
      </trkpt>
      <trkpt lat="41.5983790" lon="2.1006900">
        <ele>315.6</ele>
        <time>2022-09-26T12:28:42Z</time>
      </trkpt>
      <trkpt lat="41.5983480" lon="2.1006950">
        <ele>315.6</ele>
        <time>2022-09-26T12:28:43Z</time>
      </trkpt>
      <trkpt lat="41.5983070" lon="2.1007020">
        <ele>315.7</ele>
        <time>2022-09-26T12:28:44Z</time>
      </trkpt>
      <trkpt lat="41.5982930" lon="2.1007050">
        <ele>315.7</ele>
        <time>2022-09-26T12:28:45Z</time>
      </trkpt>
      <trkpt lat="41.5982630" lon="2.1007130">
        <ele>315.7</ele>
        <time>2022-09-26T12:28:46Z</time>
      </trkpt>
      <trkpt lat="41.5982110" lon="2.1007260">
        <ele>315.8</ele>
        <time>2022-09-26T12:28:48Z</time>
      </trkpt>
      <trkpt lat="41.5981670" lon="2.1007440">
        <ele>315.8</ele>
        <time>2022-09-26T12:28:49Z</time>
      </trkpt>
      <trkpt lat="41.5981160" lon="2.1007640">
        <ele>315.8</ele>
        <time>2022-09-26T12:28:51Z</time>
      </trkpt>
      <trkpt lat="41.5980580" lon="2.1007900">
        <ele>315.8</ele>
        <time>2022-09-26T12:28:52Z</time>
      </trkpt>
      <trkpt lat="41.5980130" lon="2.1008100">
        <ele>315.7</ele>
        <time>2022-09-26T12:28:53Z</time>
      </trkpt>
      <trkpt lat="41.5979760" lon="2.1008280">
        <ele>315.7</ele>
        <time>2022-09-26T12:28:54Z</time>
      </trkpt>
      <trkpt lat="41.5979240" lon="2.1008470">
        <ele>315.6</ele>
        <time>2022-09-26T12:28:56Z</time>
      </trkpt>
      <trkpt lat="41.5978610" lon="2.1008780">
        <ele>315.3</ele>
        <time>2022-09-26T12:28:57Z</time>
      </trkpt>
      <trkpt lat="41.5978250" lon="2.1009000">
        <ele>315.2</ele>
        <time>2022-09-26T12:28:58Z</time>
      </trkpt>
      <trkpt lat="41.5977750" lon="2.1009230">
        <ele>314.9</ele>
        <time>2022-09-26T12:28:59Z</time>
      </trkpt>
      <trkpt lat="41.5977230" lon="2.1009370">
        <ele>314.6</ele>
        <time>2022-09-26T12:29:00Z</time>
      </trkpt>
      <trkpt lat="41.5976650" lon="2.1009330">
        <ele>314.3</ele>
        <time>2022-09-26T12:29:01Z</time>
      </trkpt>
      <trkpt lat="41.5976060" lon="2.1009110">
        <ele>313.9</ele>
        <time>2022-09-26T12:29:02Z</time>
      </trkpt>
      <trkpt lat="41.5975500" lon="2.1008820">
        <ele>313.5</ele>
        <time>2022-09-26T12:29:03Z</time>
      </trkpt>
      <trkpt lat="41.5974910" lon="2.1008620">
        <ele>313.1</ele>
        <time>2022-09-26T12:29:04Z</time>
      </trkpt>
      <trkpt lat="41.5974220" lon="2.1008600">
        <ele>312.6</ele>
        <time>2022-09-26T12:29:05Z</time>
      </trkpt>
      <trkpt lat="41.5973510" lon="2.1008800">
        <ele>312.0</ele>
        <time>2022-09-26T12:29:06Z</time>
      </trkpt>
      <trkpt lat="41.5972840" lon="2.1009200">
        <ele>311.5</ele>
        <time>2022-09-26T12:29:07Z</time>
      </trkpt>
      <trkpt lat="41.5972140" lon="2.1009780">
        <ele>310.9</ele>
        <time>2022-09-26T12:29:08Z</time>
      </trkpt>
      <trkpt lat="41.5971450" lon="2.1010350">
        <ele>310.4</ele>
        <time>2022-09-26T12:29:09Z</time>
      </trkpt>
      <trkpt lat="41.5970780" lon="2.1010890">
        <ele>309.9</ele>
        <time>2022-09-26T12:29:10Z</time>
      </trkpt>
      <trkpt lat="41.5970090" lon="2.1011370">
        <ele>309.4</ele>
        <time>2022-09-26T12:29:11Z</time>
      </trkpt>
      <trkpt lat="41.5969390" lon="2.1011870">
        <ele>309.0</ele>
        <time>2022-09-26T12:29:12Z</time>
      </trkpt>
      <trkpt lat="41.5968660" lon="2.1012400">
        <ele>308.5</ele>
        <time>2022-09-26T12:29:13Z</time>
      </trkpt>
      <trkpt lat="41.5967950" lon="2.1012930">
        <ele>308.2</ele>
        <time>2022-09-26T12:29:14Z</time>
      </trkpt>
      <trkpt lat="41.5967230" lon="2.1013540">
        <ele>307.9</ele>
        <time>2022-09-26T12:29:15Z</time>
      </trkpt>
      <trkpt lat="41.5966520" lon="2.1014060">
        <ele>307.8</ele>
        <time>2022-09-26T12:29:16Z</time>
      </trkpt>
      <trkpt lat="41.5965770" lon="2.1014530">
        <ele>307.8</ele>
        <time>2022-09-26T12:29:17Z</time>
      </trkpt>
      <trkpt lat="41.5965020" lon="2.1014930">
        <ele>307.7</ele>
        <time>2022-09-26T12:29:18Z</time>
      </trkpt>
      <trkpt lat="41.5964290" lon="2.1015290">
        <ele>307.6</ele>
        <time>2022-09-26T12:29:19Z</time>
      </trkpt>
      <trkpt lat="41.5963570" lon="2.1015660">
        <ele>307.6</ele>
        <time>2022-09-26T12:29:20Z</time>
      </trkpt>
      <trkpt lat="41.5962890" lon="2.1015990">
        <ele>307.5</ele>
        <time>2022-09-26T12:29:21Z</time>
      </trkpt>
      <trkpt lat="41.5962230" lon="2.1016320">
        <ele>307.5</ele>
        <time>2022-09-26T12:29:22Z</time>
      </trkpt>
      <trkpt lat="41.5961550" lon="2.1016660">
        <ele>307.5</ele>
        <time>2022-09-26T12:29:23Z</time>
      </trkpt>
      <trkpt lat="41.5960910" lon="2.1016970">
        <ele>307.5</ele>
        <time>2022-09-26T12:29:24Z</time>
      </trkpt>
      <trkpt lat="41.5960240" lon="2.1017280">
        <ele>307.5</ele>
        <time>2022-09-26T12:29:25Z</time>
      </trkpt>
      <trkpt lat="41.5959610" lon="2.1017610">
        <ele>307.5</ele>
        <time>2022-09-26T12:29:26Z</time>
      </trkpt>
      <trkpt lat="41.5958980" lon="2.1017960">
        <ele>307.6</ele>
        <time>2022-09-26T12:29:27Z</time>
      </trkpt>
      <trkpt lat="41.5958380" lon="2.1018340">
        <ele>307.6</ele>
        <time>2022-09-26T12:29:28Z</time>
      </trkpt>
      <trkpt lat="41.5957770" lon="2.1018690">
        <ele>307.7</ele>
        <time>2022-09-26T12:29:29Z</time>
      </trkpt>
      <trkpt lat="41.5957170" lon="2.1019000">
        <ele>307.7</ele>
        <time>2022-09-26T12:29:30Z</time>
      </trkpt>
      <trkpt lat="41.5956570" lon="2.1019270">
        <ele>307.8</ele>
        <time>2022-09-26T12:29:31Z</time>
      </trkpt>
      <trkpt lat="41.5956010" lon="2.1019530">
        <ele>307.8</ele>
        <time>2022-09-26T12:29:32Z</time>
      </trkpt>
      <trkpt lat="41.5955420" lon="2.1019740">
        <ele>307.9</ele>
        <time>2022-09-26T12:29:33Z</time>
      </trkpt>
      <trkpt lat="41.5954850" lon="2.1019940">
        <ele>307.9</ele>
        <time>2022-09-26T12:29:34Z</time>
      </trkpt>
      <trkpt lat="41.5954300" lon="2.1020140">
        <ele>308.0</ele>
        <time>2022-09-26T12:29:35Z</time>
      </trkpt>
      <trkpt lat="41.5953750" lon="2.1020300">
        <ele>308.1</ele>
        <time>2022-09-26T12:29:36Z</time>
      </trkpt>
      <trkpt lat="41.5953220" lon="2.1020450">
        <ele>308.1</ele>
        <time>2022-09-26T12:29:37Z</time>
      </trkpt>
      <trkpt lat="41.5952690" lon="2.1020570">
        <ele>308.2</ele>
        <time>2022-09-26T12:29:38Z</time>
      </trkpt>
      <trkpt lat="41.5952170" lon="2.1020680">
        <ele>308.2</ele>
        <time>2022-09-26T12:29:39Z</time>
      </trkpt>
      <trkpt lat="41.5951660" lon="2.1020790">
        <ele>308.2</ele>
        <time>2022-09-26T12:29:40Z</time>
      </trkpt>
      <trkpt lat="41.5951140" lon="2.1020940">
        <ele>308.2</ele>
        <time>2022-09-26T12:29:41Z</time>
      </trkpt>
      <trkpt lat="41.5950650" lon="2.1021110">
        <ele>308.3</ele>
        <time>2022-09-26T12:29:42Z</time>
      </trkpt>
      <trkpt lat="41.5950130" lon="2.1021300">
        <ele>308.3</ele>
        <time>2022-09-26T12:29:43Z</time>
      </trkpt>
      <trkpt lat="41.5949630" lon="2.1021550">
        <ele>308.3</ele>
        <time>2022-09-26T12:29:44Z</time>
      </trkpt>
      <trkpt lat="41.5949100" lon="2.1021810">
        <ele>308.3</ele>
        <time>2022-09-26T12:29:45Z</time>
      </trkpt>
      <trkpt lat="41.5948570" lon="2.1022040">
        <ele>308.3</ele>
        <time>2022-09-26T12:29:46Z</time>
      </trkpt>
      <trkpt lat="41.5948040" lon="2.1022180">
        <ele>308.4</ele>
        <time>2022-09-26T12:29:47Z</time>
      </trkpt>
      <trkpt lat="41.5947500" lon="2.1022270">
        <ele>308.4</ele>
        <time>2022-09-26T12:29:48Z</time>
      </trkpt>
      <trkpt lat="41.5947000" lon="2.1022410">
        <ele>308.5</ele>
        <time>2022-09-26T12:29:49Z</time>
      </trkpt>
      <trkpt lat="41.5946510" lon="2.1022610">
        <ele>308.6</ele>
        <time>2022-09-26T12:29:50Z</time>
      </trkpt>
      <trkpt lat="41.5946040" lon="2.1022840">
        <ele>308.6</ele>
        <time>2022-09-26T12:29:51Z</time>
      </trkpt>
      <trkpt lat="41.5945580" lon="2.1023050">
        <ele>308.7</ele>
        <time>2022-09-26T12:29:52Z</time>
      </trkpt>
      <trkpt lat="41.5945130" lon="2.1023210">
        <ele>308.7</ele>
        <time>2022-09-26T12:29:53Z</time>
      </trkpt>
      <trkpt lat="41.5944690" lon="2.1023340">
        <ele>308.7</ele>
        <time>2022-09-26T12:29:54Z</time>
      </trkpt>
      <trkpt lat="41.5944250" lon="2.1023430">
        <ele>308.7</ele>
        <time>2022-09-26T12:29:55Z</time>
      </trkpt>
      <trkpt lat="41.5943780" lon="2.1023520">
        <ele>308.6</ele>
        <time>2022-09-26T12:29:56Z</time>
      </trkpt>
      <trkpt lat="41.5943300" lon="2.1023610">
        <ele>308.5</ele>
        <time>2022-09-26T12:29:57Z</time>
      </trkpt>
      <trkpt lat="41.5942800" lon="2.1023710">
        <ele>308.3</ele>
        <time>2022-09-26T12:29:58Z</time>
      </trkpt>
      <trkpt lat="41.5942320" lon="2.1023850">
        <ele>308.2</ele>
        <time>2022-09-26T12:29:59Z</time>
      </trkpt>
      <trkpt lat="41.5941960" lon="2.1024040">
        <ele>308.0</ele>
        <time>2022-09-26T12:30:00Z</time>
      </trkpt>
      <trkpt lat="41.5941320" lon="2.1024470">
        <ele>307.7</ele>
        <time>2022-09-26T12:30:01Z</time>
      </trkpt>
      <trkpt lat="41.5940750" lon="2.1024910">
        <ele>307.4</ele>
        <time>2022-09-26T12:30:02Z</time>
      </trkpt>
      <trkpt lat="41.5940210" lon="2.1025320">
        <ele>307.1</ele>
        <time>2022-09-26T12:30:03Z</time>
      </trkpt>
      <trkpt lat="41.5939650" lon="2.1025660">
        <ele>306.7</ele>
        <time>2022-09-26T12:30:04Z</time>
      </trkpt>
      <trkpt lat="41.5939030" lon="2.1025920">
        <ele>306.2</ele>
        <time>2022-09-26T12:30:05Z</time>
      </trkpt>
      <trkpt lat="41.5938330" lon="2.1026200">
        <ele>305.7</ele>
        <time>2022-09-26T12:30:06Z</time>
      </trkpt>
      <trkpt lat="41.5937670" lon="2.1026450">
        <ele>305.1</ele>
        <time>2022-09-26T12:30:07Z</time>
      </trkpt>
      <trkpt lat="41.5937070" lon="2.1026620">
        <ele>304.6</ele>
        <time>2022-09-26T12:30:08Z</time>
      </trkpt>
      <trkpt lat="41.5936520" lon="2.1026780">
        <ele>304.2</ele>
        <time>2022-09-26T12:30:09Z</time>
      </trkpt>
      <trkpt lat="41.5935960" lon="2.1026820">
        <ele>303.7</ele>
        <time>2022-09-26T12:30:10Z</time>
      </trkpt>
      <trkpt lat="41.5935340" lon="2.1026650">
        <ele>303.2</ele>
        <time>2022-09-26T12:30:11Z</time>
      </trkpt>
      <trkpt lat="41.5934760" lon="2.1026230">
        <ele>302.7</ele>
        <time>2022-09-26T12:30:12Z</time>
      </trkpt>
      <trkpt lat="41.5934280" lon="2.1025590">
        <ele>302.2</ele>
        <time>2022-09-26T12:30:13Z</time>
      </trkpt>
      <trkpt lat="41.5933780" lon="2.1024990">
        <ele>301.7</ele>
        <time>2022-09-26T12:30:14Z</time>
      </trkpt>
      <trkpt lat="41.5933130" lon="2.1024660">
        <ele>301.2</ele>
        <time>2022-09-26T12:30:15Z</time>
      </trkpt>
      <trkpt lat="41.5932440" lon="2.1024490">
        <ele>300.7</ele>
        <time>2022-09-26T12:30:16Z</time>
      </trkpt>
      <trkpt lat="41.5931740" lon="2.1024380">
        <ele>300.3</ele>
        <time>2022-09-26T12:30:17Z</time>
      </trkpt>
      <trkpt lat="41.5930980" lon="2.1024510">
        <ele>299.8</ele>
        <time>2022-09-26T12:30:18Z</time>
      </trkpt>
      <trkpt lat="41.5930180" lon="2.1024850">
        <ele>299.4</ele>
        <time>2022-09-26T12:30:19Z</time>
      </trkpt>
      <trkpt lat="41.5929420" lon="2.1025280">
        <ele>299.0</ele>
        <time>2022-09-26T12:30:20Z</time>
      </trkpt>
      <trkpt lat="41.5928710" lon="2.1025660">
        <ele>298.6</ele>
        <time>2022-09-26T12:30:21Z</time>
      </trkpt>
      <trkpt lat="41.5928000" lon="2.1026030">
        <ele>298.3</ele>
        <time>2022-09-26T12:30:22Z</time>
      </trkpt>
      <trkpt lat="41.5927310" lon="2.1026510">
        <ele>298.0</ele>
        <time>2022-09-26T12:30:23Z</time>
      </trkpt>
      <trkpt lat="41.5926650" lon="2.1027020">
        <ele>298.0</ele>
        <time>2022-09-26T12:30:24Z</time>
      </trkpt>
      <trkpt lat="41.5926020" lon="2.1027480">
        <ele>297.8</ele>
        <time>2022-09-26T12:30:25Z</time>
      </trkpt>
      <trkpt lat="41.5925410" lon="2.1027770">
        <ele>297.6</ele>
        <time>2022-09-26T12:30:26Z</time>
      </trkpt>
      <trkpt lat="41.5924780" lon="2.1027770">
        <ele>297.4</ele>
        <time>2022-09-26T12:30:27Z</time>
      </trkpt>
      <trkpt lat="41.5924160" lon="2.1027700">
        <ele>297.2</ele>
        <time>2022-09-26T12:30:28Z</time>
      </trkpt>
      <trkpt lat="41.5923530" lon="2.1027770">
        <ele>297.0</ele>
        <time>2022-09-26T12:30:29Z</time>
      </trkpt>
      <trkpt lat="41.5922820" lon="2.1027930">
        <ele>296.9</ele>
        <time>2022-09-26T12:30:30Z</time>
      </trkpt>
      <trkpt lat="41.5922090" lon="2.1028180">
        <ele>296.7</ele>
        <time>2022-09-26T12:30:31Z</time>
      </trkpt>
      <trkpt lat="41.5921390" lon="2.1028420">
        <ele>296.5</ele>
        <time>2022-09-26T12:30:32Z</time>
      </trkpt>
      <trkpt lat="41.5920670" lon="2.1028630">
        <ele>296.3</ele>
        <time>2022-09-26T12:30:33Z</time>
      </trkpt>
      <trkpt lat="41.5919970" lon="2.1028830">
        <ele>296.2</ele>
        <time>2022-09-26T12:30:34Z</time>
      </trkpt>
      <trkpt lat="41.5919260" lon="2.1029100">
        <ele>296.0</ele>
        <time>2022-09-26T12:30:35Z</time>
      </trkpt>
      <trkpt lat="41.5918540" lon="2.1029370">
        <ele>295.9</ele>
        <time>2022-09-26T12:30:36Z</time>
      </trkpt>
      <trkpt lat="41.5917840" lon="2.1029610">
        <ele>295.8</ele>
        <time>2022-09-26T12:30:37Z</time>
      </trkpt>
      <trkpt lat="41.5917180" lon="2.1029790">
        <ele>295.6</ele>
        <time>2022-09-26T12:30:38Z</time>
      </trkpt>
      <trkpt lat="41.5916540" lon="2.1029940">
        <ele>295.5</ele>
        <time>2022-09-26T12:30:39Z</time>
      </trkpt>
      <trkpt lat="41.5915870" lon="2.1030020">
        <ele>295.4</ele>
        <time>2022-09-26T12:30:40Z</time>
      </trkpt>
      <trkpt lat="41.5915220" lon="2.1029980">
        <ele>295.3</ele>
        <time>2022-09-26T12:30:41Z</time>
      </trkpt>
      <trkpt lat="41.5914600" lon="2.1029780">
        <ele>295.2</ele>
        <time>2022-09-26T12:30:42Z</time>
      </trkpt>
      <trkpt lat="41.5913970" lon="2.1029480">
        <ele>295.1</ele>
        <time>2022-09-26T12:30:43Z</time>
      </trkpt>
      <trkpt lat="41.5913400" lon="2.1029120">
        <ele>295.1</ele>
        <time>2022-09-26T12:30:44Z</time>
      </trkpt>
      <trkpt lat="41.5912840" lon="2.1028760">
        <ele>295.0</ele>
        <time>2022-09-26T12:30:45Z</time>
      </trkpt>
      <trkpt lat="41.5912280" lon="2.1028380">
        <ele>295.0</ele>
        <time>2022-09-26T12:30:46Z</time>
      </trkpt>
      <trkpt lat="41.5911730" lon="2.1028010">
        <ele>295.0</ele>
        <time>2022-09-26T12:30:47Z</time>
      </trkpt>
      <trkpt lat="41.5911140" lon="2.1027680">
        <ele>294.9</ele>
        <time>2022-09-26T12:30:48Z</time>
      </trkpt>
      <trkpt lat="41.5910550" lon="2.1027410">
        <ele>294.9</ele>
        <time>2022-09-26T12:30:49Z</time>
      </trkpt>
      <trkpt lat="41.5909980" lon="2.1027230">
        <ele>294.9</ele>
        <time>2022-09-26T12:30:50Z</time>
      </trkpt>
      <trkpt lat="41.5909420" lon="2.1027160">
        <ele>294.8</ele>
        <time>2022-09-26T12:30:51Z</time>
      </trkpt>
      <trkpt lat="41.5908800" lon="2.1027240">
        <ele>294.8</ele>
        <time>2022-09-26T12:30:52Z</time>
      </trkpt>
      <trkpt lat="41.5908140" lon="2.1027460">
        <ele>294.7</ele>
        <time>2022-09-26T12:30:53Z</time>
      </trkpt>
      <trkpt lat="41.5907540" lon="2.1027830">
        <ele>294.7</ele>
        <time>2022-09-26T12:30:54Z</time>
      </trkpt>
      <trkpt lat="41.5906970" lon="2.1028230">
        <ele>294.6</ele>
        <time>2022-09-26T12:30:55Z</time>
      </trkpt>
      <trkpt lat="41.5906430" lon="2.1028590">
        <ele>294.5</ele>
        <time>2022-09-26T12:30:56Z</time>
      </trkpt>
      <trkpt lat="41.5905890" lon="2.1029060">
        <ele>294.4</ele>
        <time>2022-09-26T12:30:57Z</time>
      </trkpt>
      <trkpt lat="41.5905360" lon="2.1029480">
        <ele>294.3</ele>
        <time>2022-09-26T12:30:58Z</time>
      </trkpt>
      <trkpt lat="41.5904830" lon="2.1029860">
        <ele>294.2</ele>
        <time>2022-09-26T12:30:59Z</time>
      </trkpt>
      <trkpt lat="41.5904330" lon="2.1030190">
        <ele>294.1</ele>
        <time>2022-09-26T12:31:00Z</time>
      </trkpt>
      <trkpt lat="41.5903830" lon="2.1030510">
        <ele>294.0</ele>
        <time>2022-09-26T12:31:01Z</time>
      </trkpt>
      <trkpt lat="41.5903330" lon="2.1030860">
        <ele>293.9</ele>
        <time>2022-09-26T12:31:02Z</time>
      </trkpt>
      <trkpt lat="41.5902780" lon="2.1031170">
        <ele>293.8</ele>
        <time>2022-09-26T12:31:03Z</time>
      </trkpt>
      <trkpt lat="41.5902190" lon="2.1031440">
        <ele>293.7</ele>
        <time>2022-09-26T12:31:04Z</time>
      </trkpt>
      <trkpt lat="41.5901590" lon="2.1031650">
        <ele>293.6</ele>
        <time>2022-09-26T12:31:05Z</time>
      </trkpt>
      <trkpt lat="41.5901030" lon="2.1031820">
        <ele>293.4</ele>
        <time>2022-09-26T12:31:06Z</time>
      </trkpt>
      <trkpt lat="41.5900420" lon="2.1032040">
        <ele>293.3</ele>
        <time>2022-09-26T12:31:07Z</time>
      </trkpt>
      <trkpt lat="41.5899830" lon="2.1032220">
        <ele>293.1</ele>
        <time>2022-09-26T12:31:08Z</time>
      </trkpt>
      <trkpt lat="41.5899240" lon="2.1032350">
        <ele>293.0</ele>
        <time>2022-09-26T12:31:09Z</time>
      </trkpt>
      <trkpt lat="41.5898680" lon="2.1032450">
        <ele>292.8</ele>
        <time>2022-09-26T12:31:10Z</time>
      </trkpt>
      <trkpt lat="41.5898110" lon="2.1032540">
        <ele>292.7</ele>
        <time>2022-09-26T12:31:11Z</time>
      </trkpt>
      <trkpt lat="41.5897520" lon="2.1032600">
        <ele>292.5</ele>
        <time>2022-09-26T12:31:12Z</time>
      </trkpt>
      <trkpt lat="41.5897000" lon="2.1032620">
        <ele>292.4</ele>
        <time>2022-09-26T12:31:13Z</time>
      </trkpt>
      <trkpt lat="41.5896510" lon="2.1032630">
        <ele>292.2</ele>
        <time>2022-09-26T12:31:14Z</time>
      </trkpt>
      <trkpt lat="41.5896030" lon="2.1032670">
        <ele>292.1</ele>
        <time>2022-09-26T12:31:15Z</time>
      </trkpt>
      <trkpt lat="41.5895620" lon="2.1032750">
        <ele>291.9</ele>
        <time>2022-09-26T12:31:16Z</time>
      </trkpt>
      <trkpt lat="41.5895050" lon="2.1032910">
        <ele>291.8</ele>
        <time>2022-09-26T12:31:17Z</time>
      </trkpt>
      <trkpt lat="41.5894470" lon="2.1033150">
        <ele>291.7</ele>
        <time>2022-09-26T12:31:18Z</time>
      </trkpt>
      <trkpt lat="41.5893870" lon="2.1033340">
        <ele>291.5</ele>
        <time>2022-09-26T12:31:19Z</time>
      </trkpt>
      <trkpt lat="41.5893250" lon="2.1033420">
        <ele>291.3</ele>
        <time>2022-09-26T12:31:20Z</time>
      </trkpt>
      <trkpt lat="41.5892640" lon="2.1033480">
        <ele>291.1</ele>
        <time>2022-09-26T12:31:21Z</time>
      </trkpt>
      <trkpt lat="41.5892050" lon="2.1033490">
        <ele>290.8</ele>
        <time>2022-09-26T12:31:22Z</time>
      </trkpt>
      <trkpt lat="41.5891430" lon="2.1033550">
        <ele>290.6</ele>
        <time>2022-09-26T12:31:23Z</time>
      </trkpt>
      <trkpt lat="41.5890740" lon="2.1033520">
        <ele>290.4</ele>
        <time>2022-09-26T12:31:24Z</time>
      </trkpt>
      <trkpt lat="41.5890080" lon="2.1033390">
        <ele>290.1</ele>
        <time>2022-09-26T12:31:25Z</time>
      </trkpt>
      <trkpt lat="41.5889440" lon="2.1033210">
        <ele>289.9</ele>
        <time>2022-09-26T12:31:26Z</time>
      </trkpt>
      <trkpt lat="41.5888810" lon="2.1032980">
        <ele>289.7</ele>
        <time>2022-09-26T12:31:27Z</time>
      </trkpt>
      <trkpt lat="41.5888200" lon="2.1032770">
        <ele>289.6</ele>
        <time>2022-09-26T12:31:28Z</time>
      </trkpt>
      <trkpt lat="41.5887580" lon="2.1032590">
        <ele>289.4</ele>
        <time>2022-09-26T12:31:29Z</time>
      </trkpt>
      <trkpt lat="41.5886940" lon="2.1032450">
        <ele>289.2</ele>
        <time>2022-09-26T12:31:30Z</time>
      </trkpt>
      <trkpt lat="41.5886300" lon="2.1032290">
        <ele>289.1</ele>
        <time>2022-09-26T12:31:31Z</time>
      </trkpt>
      <trkpt lat="41.5885660" lon="2.1032100">
        <ele>289.0</ele>
        <time>2022-09-26T12:31:32Z</time>
      </trkpt>
      <trkpt lat="41.5885030" lon="2.1031890">
        <ele>288.9</ele>
        <time>2022-09-26T12:31:33Z</time>
      </trkpt>
      <trkpt lat="41.5884430" lon="2.1031720">
        <ele>288.8</ele>
        <time>2022-09-26T12:31:34Z</time>
      </trkpt>
      <trkpt lat="41.5883800" lon="2.1031520">
        <ele>288.7</ele>
        <time>2022-09-26T12:31:35Z</time>
      </trkpt>
      <trkpt lat="41.5883220" lon="2.1031300">
        <ele>288.7</ele>
        <time>2022-09-26T12:31:36Z</time>
      </trkpt>
      <trkpt lat="41.5882640" lon="2.1031120">
        <ele>288.6</ele>
        <time>2022-09-26T12:31:37Z</time>
      </trkpt>
      <trkpt lat="41.5882080" lon="2.1030980">
        <ele>288.5</ele>
        <time>2022-09-26T12:31:38Z</time>
      </trkpt>
      <trkpt lat="41.5881540" lon="2.1030800">
        <ele>288.5</ele>
        <time>2022-09-26T12:31:39Z</time>
      </trkpt>
      <trkpt lat="41.5880990" lon="2.1030640">
        <ele>288.5</ele>
        <time>2022-09-26T12:31:40Z</time>
      </trkpt>
      <trkpt lat="41.5880430" lon="2.1030500">
        <ele>288.4</ele>
        <time>2022-09-26T12:31:41Z</time>
      </trkpt>
      <trkpt lat="41.5879890" lon="2.1030400">
        <ele>288.4</ele>
        <time>2022-09-26T12:31:42Z</time>
      </trkpt>
      <trkpt lat="41.5879340" lon="2.1030340">
        <ele>288.4</ele>
        <time>2022-09-26T12:31:43Z</time>
      </trkpt>
      <trkpt lat="41.5878800" lon="2.1030350">
        <ele>288.4</ele>
        <time>2022-09-26T12:31:44Z</time>
      </trkpt>
      <trkpt lat="41.5878270" lon="2.1030400">
        <ele>288.5</ele>
        <time>2022-09-26T12:31:45Z</time>
      </trkpt>
      <trkpt lat="41.5877740" lon="2.1030420">
        <ele>288.5</ele>
        <time>2022-09-26T12:31:46Z</time>
      </trkpt>
      <trkpt lat="41.5877190" lon="2.1030470">
        <ele>288.5</ele>
        <time>2022-09-26T12:31:47Z</time>
      </trkpt>
      <trkpt lat="41.5876680" lon="2.1030530">
        <ele>288.5</ele>
        <time>2022-09-26T12:31:48Z</time>
      </trkpt>
      <trkpt lat="41.5876160" lon="2.1030640">
        <ele>288.6</ele>
        <time>2022-09-26T12:31:49Z</time>
      </trkpt>
      <trkpt lat="41.5875610" lon="2.1030790">
        <ele>288.6</ele>
        <time>2022-09-26T12:31:50Z</time>
      </trkpt>
      <trkpt lat="41.5875090" lon="2.1030960">
        <ele>288.7</ele>
        <time>2022-09-26T12:31:51Z</time>
      </trkpt>
      <trkpt lat="41.5874600" lon="2.1031160">
        <ele>288.8</ele>
        <time>2022-09-26T12:31:52Z</time>
      </trkpt>
      <trkpt lat="41.5874120" lon="2.1031330">
        <ele>288.8</ele>
        <time>2022-09-26T12:31:53Z</time>
      </trkpt>
      <trkpt lat="41.5873660" lon="2.1031470">
        <ele>288.9</ele>
        <time>2022-09-26T12:31:54Z</time>
      </trkpt>
      <trkpt lat="41.5873200" lon="2.1031630">
        <ele>289.1</ele>
        <time>2022-09-26T12:31:55Z</time>
      </trkpt>
      <trkpt lat="41.5872880" lon="2.1031740">
        <ele>289.1</ele>
        <time>2022-09-26T12:31:56Z</time>
      </trkpt>
      <trkpt lat="41.5872460" lon="2.1031910">
        <ele>289.3</ele>
        <time>2022-09-26T12:31:57Z</time>
      </trkpt>
      <trkpt lat="41.5872080" lon="2.1032050">
        <ele>289.4</ele>
        <time>2022-09-26T12:31:58Z</time>
      </trkpt>
      <trkpt lat="41.5871600" lon="2.1032070">
        <ele>289.5</ele>
        <time>2022-09-26T12:31:59Z</time>
      </trkpt>
      <trkpt lat="41.5871240" lon="2.1031960">
        <ele>289.5</ele>
        <time>2022-09-26T12:32:00Z</time>
      </trkpt>
      <trkpt lat="41.5870770" lon="2.1031710">
        <ele>289.5</ele>
        <time>2022-09-26T12:32:01Z</time>
      </trkpt>
      <trkpt lat="41.5870750" lon="2.1031590">
        <ele>289.5</ele>
        <time>2022-09-26T12:32:02Z</time>
      </trkpt>
      <trkpt lat="41.5870600" lon="2.1031290">
        <ele>289.5</ele>
        <time>2022-09-26T12:32:03Z</time>
      </trkpt>
      <trkpt lat="41.5869720" lon="2.1030810">
        <ele>289.3</ele>
        <time>2022-09-26T12:32:05Z</time>
      </trkpt>
      <trkpt lat="41.5869090" lon="2.1030710">
        <ele>289.2</ele>
        <time>2022-09-26T12:32:06Z</time>
      </trkpt>
      <trkpt lat="41.5868530" lon="2.1030690">
        <ele>289.0</ele>
        <time>2022-09-26T12:32:07Z</time>
      </trkpt>
      <trkpt lat="41.5867870" lon="2.1030580">
        <ele>288.9</ele>
        <time>2022-09-26T12:32:09Z</time>
      </trkpt>
      <trkpt lat="41.5867240" lon="2.1030580">
        <ele>288.7</ele>
        <time>2022-09-26T12:32:10Z</time>
      </trkpt>
      <trkpt lat="41.5866930" lon="2.1030570">
        <ele>288.6</ele>
        <time>2022-09-26T12:32:11Z</time>
      </trkpt>
      <trkpt lat="41.5866430" lon="2.1030550">
        <ele>288.4</ele>
        <time>2022-09-26T12:32:12Z</time>
      </trkpt>
      <trkpt lat="41.5865770" lon="2.1030520">
        <ele>288.1</ele>
        <time>2022-09-26T12:32:13Z</time>
      </trkpt>
      <trkpt lat="41.5865210" lon="2.1030590">
        <ele>287.8</ele>
        <time>2022-09-26T12:32:14Z</time>
      </trkpt>
      <trkpt lat="41.5864720" lon="2.1030650">
        <ele>287.5</ele>
        <time>2022-09-26T12:32:15Z</time>
      </trkpt>
      <trkpt lat="41.5864260" lon="2.1030630">
        <ele>287.2</ele>
        <time>2022-09-26T12:32:16Z</time>
      </trkpt>
      <trkpt lat="41.5863750" lon="2.1030510">
        <ele>286.7</ele>
        <time>2022-09-26T12:32:17Z</time>
      </trkpt>
      <trkpt lat="41.5863240" lon="2.1030320">
        <ele>286.2</ele>
        <time>2022-09-26T12:32:18Z</time>
      </trkpt>
      <trkpt lat="41.5862740" lon="2.1030060">
        <ele>285.6</ele>
        <time>2022-09-26T12:32:19Z</time>
      </trkpt>
      <trkpt lat="41.5862300" lon="2.1029660">
        <ele>284.9</ele>
        <time>2022-09-26T12:32:20Z</time>
      </trkpt>
      <trkpt lat="41.5861950" lon="2.1029090">
        <ele>284.2</ele>
        <time>2022-09-26T12:32:21Z</time>
      </trkpt>
      <trkpt lat="41.5861730" lon="2.1028280">
        <ele>283.3</ele>
        <time>2022-09-26T12:32:22Z</time>
      </trkpt>
      <trkpt lat="41.5861580" lon="2.1027380">
        <ele>282.4</ele>
        <time>2022-09-26T12:32:23Z</time>
      </trkpt>
      <trkpt lat="41.5861410" lon="2.1026450">
        <ele>281.6</ele>
        <time>2022-09-26T12:32:24Z</time>
      </trkpt>
      <trkpt lat="41.5861230" lon="2.1025530">
        <ele>280.8</ele>
        <time>2022-09-26T12:32:25Z</time>
      </trkpt>
      <trkpt lat="41.5861030" lon="2.1024640">
        <ele>280.1</ele>
        <time>2022-09-26T12:32:26Z</time>
      </trkpt>
      <trkpt lat="41.5860850" lon="2.1023800">
        <ele>279.4</ele>
        <time>2022-09-26T12:32:27Z</time>
      </trkpt>
      <trkpt lat="41.5860730" lon="2.1023060">
        <ele>278.8</ele>
        <time>2022-09-26T12:32:28Z</time>
      </trkpt>
      <trkpt lat="41.5860540" lon="2.1022340">
        <ele>278.2</ele>
        <time>2022-09-26T12:32:29Z</time>
      </trkpt>
      <trkpt lat="41.5860270" lon="2.1021660">
        <ele>277.6</ele>
        <time>2022-09-26T12:32:30Z</time>
      </trkpt>
      <trkpt lat="41.5859870" lon="2.1021140">
        <ele>277.1</ele>
        <time>2022-09-26T12:32:31Z</time>
      </trkpt>
      <trkpt lat="41.5859250" lon="2.1020870">
        <ele>276.4</ele>
        <time>2022-09-26T12:32:32Z</time>
      </trkpt>
      <trkpt lat="41.5858470" lon="2.1020700">
        <ele>275.6</ele>
        <time>2022-09-26T12:32:33Z</time>
      </trkpt>
      <trkpt lat="41.5857610" lon="2.1020520">
        <ele>274.8</ele>
        <time>2022-09-26T12:32:34Z</time>
      </trkpt>
      <trkpt lat="41.5856710" lon="2.1020390">
        <ele>273.9</ele>
        <time>2022-09-26T12:32:35Z</time>
      </trkpt>
      <trkpt lat="41.5855790" lon="2.1020320">
        <ele>273.2</ele>
        <time>2022-09-26T12:32:36Z</time>
      </trkpt>
      <trkpt lat="41.5854870" lon="2.1020230">
        <ele>272.6</ele>
        <time>2022-09-26T12:32:37Z</time>
      </trkpt>
      <trkpt lat="41.5853930" lon="2.1020220">
        <ele>272.1</ele>
        <time>2022-09-26T12:32:38Z</time>
      </trkpt>
      <trkpt lat="41.5852960" lon="2.1020270">
        <ele>271.6</ele>
        <time>2022-09-26T12:32:39Z</time>
      </trkpt>
      <trkpt lat="41.5851970" lon="2.1020370">
        <ele>271.1</ele>
        <time>2022-09-26T12:32:40Z</time>
      </trkpt>
      <trkpt lat="41.5851040" lon="2.1020400">
        <ele>270.6</ele>
        <time>2022-09-26T12:32:41Z</time>
      </trkpt>
      <trkpt lat="41.5850300" lon="2.1020250">
        <ele>270.2</ele>
        <time>2022-09-26T12:32:42Z</time>
      </trkpt>
      <trkpt lat="41.5849670" lon="2.1019920">
        <ele>269.8</ele>
        <time>2022-09-26T12:32:43Z</time>
      </trkpt>
      <trkpt lat="41.5849070" lon="2.1019520">
        <ele>269.5</ele>
        <time>2022-09-26T12:32:44Z</time>
      </trkpt>
      <trkpt lat="41.5848570" lon="2.1019020">
        <ele>269.1</ele>
        <time>2022-09-26T12:32:45Z</time>
      </trkpt>
      <trkpt lat="41.5848130" lon="2.1018620">
        <ele>268.8</ele>
        <time>2022-09-26T12:32:46Z</time>
      </trkpt>
      <trkpt lat="41.5847580" lon="2.1018370">
        <ele>268.6</ele>
        <time>2022-09-26T12:32:47Z</time>
      </trkpt>
      <trkpt lat="41.5846900" lon="2.1018390">
        <ele>268.4</ele>
        <time>2022-09-26T12:32:48Z</time>
      </trkpt>
      <trkpt lat="41.5846180" lon="2.1018580">
        <ele>268.3</ele>
        <time>2022-09-26T12:32:49Z</time>
      </trkpt>
      <trkpt lat="41.5845490" lon="2.1018800">
        <ele>268.2</ele>
        <time>2022-09-26T12:32:50Z</time>
      </trkpt>
      <trkpt lat="41.5844820" lon="2.1019030">
        <ele>268.1</ele>
        <time>2022-09-26T12:32:51Z</time>
      </trkpt>
      <trkpt lat="41.5844160" lon="2.1019240">
        <ele>267.9</ele>
        <time>2022-09-26T12:32:52Z</time>
      </trkpt>
      <trkpt lat="41.5843450" lon="2.1019420">
        <ele>267.8</ele>
        <time>2022-09-26T12:32:53Z</time>
      </trkpt>
      <trkpt lat="41.5842730" lon="2.1019590">
        <ele>267.7</ele>
        <time>2022-09-26T12:32:54Z</time>
      </trkpt>
      <trkpt lat="41.5842080" lon="2.1019730">
        <ele>267.5</ele>
        <time>2022-09-26T12:32:55Z</time>
      </trkpt>
      <trkpt lat="41.5841410" lon="2.1019870">
        <ele>267.3</ele>
        <time>2022-09-26T12:32:56Z</time>
      </trkpt>
      <trkpt lat="41.5840750" lon="2.1020040">
        <ele>267.1</ele>
        <time>2022-09-26T12:32:57Z</time>
      </trkpt>
      <trkpt lat="41.5840100" lon="2.1020230">
        <ele>267.0</ele>
        <time>2022-09-26T12:32:58Z</time>
      </trkpt>
      <trkpt lat="41.5839500" lon="2.1020390">
        <ele>266.8</ele>
        <time>2022-09-26T12:32:59Z</time>
      </trkpt>
      <trkpt lat="41.5838860" lon="2.1020550">
        <ele>266.6</ele>
        <time>2022-09-26T12:33:00Z</time>
      </trkpt>
      <trkpt lat="41.5838180" lon="2.1020690">
        <ele>266.4</ele>
        <time>2022-09-26T12:33:01Z</time>
      </trkpt>
      <trkpt lat="41.5837490" lon="2.1020780">
        <ele>266.1</ele>
        <time>2022-09-26T12:33:02Z</time>
      </trkpt>
      <trkpt lat="41.5836780" lon="2.1020810">
        <ele>265.9</ele>
        <time>2022-09-26T12:33:03Z</time>
      </trkpt>
      <trkpt lat="41.5836070" lon="2.1020780">
        <ele>265.6</ele>
        <time>2022-09-26T12:33:04Z</time>
      </trkpt>
      <trkpt lat="41.5835340" lon="2.1020790">
        <ele>265.3</ele>
        <time>2022-09-26T12:33:05Z</time>
      </trkpt>
      <trkpt lat="41.5834620" lon="2.1020900">
        <ele>265.0</ele>
        <time>2022-09-26T12:33:06Z</time>
      </trkpt>
      <trkpt lat="41.5833900" lon="2.1021070">
        <ele>264.6</ele>
        <time>2022-09-26T12:33:07Z</time>
      </trkpt>
      <trkpt lat="41.5833180" lon="2.1021220">
        <ele>264.2</ele>
        <time>2022-09-26T12:33:08Z</time>
      </trkpt>
      <trkpt lat="41.5832420" lon="2.1021300">
        <ele>263.8</ele>
        <time>2022-09-26T12:33:09Z</time>
      </trkpt>
      <trkpt lat="41.5831640" lon="2.1021290">
        <ele>263.4</ele>
        <time>2022-09-26T12:33:10Z</time>
      </trkpt>
      <trkpt lat="41.5830830" lon="2.1021240">
        <ele>262.9</ele>
        <time>2022-09-26T12:33:11Z</time>
      </trkpt>
      <trkpt lat="41.5830050" lon="2.1021160">
        <ele>262.5</ele>
        <time>2022-09-26T12:33:12Z</time>
      </trkpt>
      <trkpt lat="41.5829240" lon="2.1021070">
        <ele>262.1</ele>
        <time>2022-09-26T12:33:13Z</time>
      </trkpt>
      <trkpt lat="41.5828390" lon="2.1020970">
        <ele>261.6</ele>
        <time>2022-09-26T12:33:14Z</time>
      </trkpt>
      <trkpt lat="41.5827530" lon="2.1020840">
        <ele>261.2</ele>
        <time>2022-09-26T12:33:15Z</time>
      </trkpt>
      <trkpt lat="41.5826700" lon="2.1020710">
        <ele>260.8</ele>
        <time>2022-09-26T12:33:16Z</time>
      </trkpt>
      <trkpt lat="41.5825850" lon="2.1020520">
        <ele>260.3</ele>
        <time>2022-09-26T12:33:17Z</time>
      </trkpt>
      <trkpt lat="41.5825010" lon="2.1020240">
        <ele>259.9</ele>
        <time>2022-09-26T12:33:18Z</time>
      </trkpt>
      <trkpt lat="41.5824140" lon="2.1019950">
        <ele>259.4</ele>
        <time>2022-09-26T12:33:19Z</time>
      </trkpt>
      <trkpt lat="41.5823250" lon="2.1019730">
        <ele>258.9</ele>
        <time>2022-09-26T12:33:20Z</time>
      </trkpt>
      <trkpt lat="41.5822350" lon="2.1019610">
        <ele>258.4</ele>
        <time>2022-09-26T12:33:21Z</time>
      </trkpt>
      <trkpt lat="41.5821470" lon="2.1019520">
        <ele>258.0</ele>
        <time>2022-09-26T12:33:22Z</time>
      </trkpt>
      <trkpt lat="41.5820600" lon="2.1019330">
        <ele>257.5</ele>
        <time>2022-09-26T12:33:23Z</time>
      </trkpt>
      <trkpt lat="41.5819760" lon="2.1019130">
        <ele>257.1</ele>
        <time>2022-09-26T12:33:24Z</time>
      </trkpt>
      <trkpt lat="41.5818900" lon="2.1018990">
        <ele>256.7</ele>
        <time>2022-09-26T12:33:25Z</time>
      </trkpt>
      <trkpt lat="41.5817960" lon="2.1018940">
        <ele>256.3</ele>
        <time>2022-09-26T12:33:26Z</time>
      </trkpt>
      <trkpt lat="41.5817090" lon="2.1019020">
        <ele>256.0</ele>
        <time>2022-09-26T12:33:27Z</time>
      </trkpt>
      <trkpt lat="41.5816250" lon="2.1019240">
        <ele>255.6</ele>
        <time>2022-09-26T12:33:28Z</time>
      </trkpt>
      <trkpt lat="41.5815420" lon="2.1019630">
        <ele>255.3</ele>
        <time>2022-09-26T12:33:29Z</time>
      </trkpt>
      <trkpt lat="41.5814630" lon="2.1020140">
        <ele>255.0</ele>
        <time>2022-09-26T12:33:30Z</time>
      </trkpt>
      <trkpt lat="41.5813820" lon="2.1020560">
        <ele>254.8</ele>
        <time>2022-09-26T12:33:31Z</time>
      </trkpt>
      <trkpt lat="41.5812980" lon="2.1020760">
        <ele>254.5</ele>
        <time>2022-09-26T12:33:32Z</time>
      </trkpt>
      <trkpt lat="41.5812170" lon="2.1020790">
        <ele>254.2</ele>
        <time>2022-09-26T12:33:33Z</time>
      </trkpt>
      <trkpt lat="41.5811360" lon="2.1020650">
        <ele>254.0</ele>
        <time>2022-09-26T12:33:34Z</time>
      </trkpt>
      <trkpt lat="41.5810560" lon="2.1020480">
        <ele>253.7</ele>
        <time>2022-09-26T12:33:35Z</time>
      </trkpt>
      <trkpt lat="41.5809800" lon="2.1020330">
        <ele>253.5</ele>
        <time>2022-09-26T12:33:36Z</time>
      </trkpt>
      <trkpt lat="41.5809080" lon="2.1020290">
        <ele>253.2</ele>
        <time>2022-09-26T12:33:37Z</time>
      </trkpt>
      <trkpt lat="41.5808380" lon="2.1020400">
        <ele>253.0</ele>
        <time>2022-09-26T12:33:38Z</time>
      </trkpt>
      <trkpt lat="41.5807650" lon="2.1020620">
        <ele>252.8</ele>
        <time>2022-09-26T12:33:39Z</time>
      </trkpt>
      <trkpt lat="41.5806870" lon="2.1020890">
        <ele>252.5</ele>
        <time>2022-09-26T12:33:40Z</time>
      </trkpt>
      <trkpt lat="41.5806060" lon="2.1021100">
        <ele>252.3</ele>
        <time>2022-09-26T12:33:41Z</time>
      </trkpt>
      <trkpt lat="41.5805240" lon="2.1021160">
        <ele>252.1</ele>
        <time>2022-09-26T12:33:42Z</time>
      </trkpt>
      <trkpt lat="41.5804480" lon="2.1021030">
        <ele>251.9</ele>
        <time>2022-09-26T12:33:43Z</time>
      </trkpt>
      <trkpt lat="41.5803750" lon="2.1020690">
        <ele>251.7</ele>
        <time>2022-09-26T12:33:44Z</time>
      </trkpt>
      <trkpt lat="41.5803080" lon="2.1020270">
        <ele>251.5</ele>
        <time>2022-09-26T12:33:45Z</time>
      </trkpt>
      <trkpt lat="41.5802390" lon="2.1019910">
        <ele>251.4</ele>
        <time>2022-09-26T12:33:46Z</time>
      </trkpt>
      <trkpt lat="41.5801670" lon="2.1019690">
        <ele>251.3</ele>
        <time>2022-09-26T12:33:47Z</time>
      </trkpt>
      <trkpt lat="41.5800980" lon="2.1019670">
        <ele>251.2</ele>
        <time>2022-09-26T12:33:48Z</time>
      </trkpt>
      <trkpt lat="41.5800270" lon="2.1019800">
        <ele>251.1</ele>
        <time>2022-09-26T12:33:49Z</time>
      </trkpt>
      <trkpt lat="41.5799590" lon="2.1019950">
        <ele>251.1</ele>
        <time>2022-09-26T12:33:50Z</time>
      </trkpt>
      <trkpt lat="41.5798930" lon="2.1020110">
        <ele>251.0</ele>
        <time>2022-09-26T12:33:51Z</time>
      </trkpt>
      <trkpt lat="41.5798270" lon="2.1020210">
        <ele>250.9</ele>
        <time>2022-09-26T12:33:52Z</time>
      </trkpt>
      <trkpt lat="41.5797580" lon="2.1020290">
        <ele>250.8</ele>
        <time>2022-09-26T12:33:53Z</time>
      </trkpt>
      <trkpt lat="41.5796910" lon="2.1020340">
        <ele>250.7</ele>
        <time>2022-09-26T12:33:54Z</time>
      </trkpt>
      <trkpt lat="41.5796270" lon="2.1020290">
        <ele>250.6</ele>
        <time>2022-09-26T12:33:55Z</time>
      </trkpt>
      <trkpt lat="41.5795600" lon="2.1020170">
        <ele>250.5</ele>
        <time>2022-09-26T12:33:56Z</time>
      </trkpt>
      <trkpt lat="41.5794920" lon="2.1020030">
        <ele>250.4</ele>
        <time>2022-09-26T12:33:57Z</time>
      </trkpt>
      <trkpt lat="41.5794270" lon="2.1019880">
        <ele>250.3</ele>
        <time>2022-09-26T12:33:58Z</time>
      </trkpt>
      <trkpt lat="41.5793610" lon="2.1019760">
        <ele>250.2</ele>
        <time>2022-09-26T12:33:59Z</time>
      </trkpt>
      <trkpt lat="41.5792950" lon="2.1019650">
        <ele>250.1</ele>
        <time>2022-09-26T12:34:00Z</time>
      </trkpt>
      <trkpt lat="41.5792310" lon="2.1019560">
        <ele>250.0</ele>
        <time>2022-09-26T12:34:01Z</time>
      </trkpt>
      <trkpt lat="41.5791670" lon="2.1019420">
        <ele>249.9</ele>
        <time>2022-09-26T12:34:02Z</time>
      </trkpt>
      <trkpt lat="41.5791020" lon="2.1019320">
        <ele>249.8</ele>
        <time>2022-09-26T12:34:03Z</time>
      </trkpt>
      <trkpt lat="41.5790360" lon="2.1019250">
        <ele>249.8</ele>
        <time>2022-09-26T12:34:04Z</time>
      </trkpt>
      <trkpt lat="41.5789730" lon="2.1019180">
        <ele>249.7</ele>
        <time>2022-09-26T12:34:05Z</time>
      </trkpt>
      <trkpt lat="41.5789090" lon="2.1019140">
        <ele>249.6</ele>
        <time>2022-09-26T12:34:06Z</time>
      </trkpt>
      <trkpt lat="41.5788480" lon="2.1019080">
        <ele>249.5</ele>
        <time>2022-09-26T12:34:07Z</time>
      </trkpt>
      <trkpt lat="41.5787890" lon="2.1019060">
        <ele>249.5</ele>
        <time>2022-09-26T12:34:08Z</time>
      </trkpt>
      <trkpt lat="41.5787330" lon="2.1019040">
        <ele>249.4</ele>
        <time>2022-09-26T12:34:09Z</time>
      </trkpt>
      <trkpt lat="41.5786730" lon="2.1019020">
        <ele>249.4</ele>
        <time>2022-09-26T12:34:10Z</time>
      </trkpt>
      <trkpt lat="41.5786070" lon="2.1019020">
        <ele>249.3</ele>
        <time>2022-09-26T12:34:11Z</time>
      </trkpt>
      <trkpt lat="41.5785470" lon="2.1019020">
        <ele>249.2</ele>
        <time>2022-09-26T12:34:12Z</time>
      </trkpt>
      <trkpt lat="41.5784830" lon="2.1019010">
        <ele>249.2</ele>
        <time>2022-09-26T12:34:13Z</time>
      </trkpt>
      <trkpt lat="41.5784210" lon="2.1018990">
        <ele>249.1</ele>
        <time>2022-09-26T12:34:14Z</time>
      </trkpt>
      <trkpt lat="41.5783580" lon="2.1018960">
        <ele>249.0</ele>
        <time>2022-09-26T12:34:15Z</time>
      </trkpt>
      <trkpt lat="41.5782920" lon="2.1018890">
        <ele>249.0</ele>
        <time>2022-09-26T12:34:16Z</time>
      </trkpt>
      <trkpt lat="41.5782270" lon="2.1018750">
        <ele>248.9</ele>
        <time>2022-09-26T12:34:17Z</time>
      </trkpt>
      <trkpt lat="41.5781620" lon="2.1018560">
        <ele>248.9</ele>
        <time>2022-09-26T12:34:18Z</time>
      </trkpt>
      <trkpt lat="41.5781000" lon="2.1018360">
        <ele>248.8</ele>
        <time>2022-09-26T12:34:19Z</time>
      </trkpt>
      <trkpt lat="41.5780410" lon="2.1018230">
        <ele>248.8</ele>
        <time>2022-09-26T12:34:20Z</time>
      </trkpt>
      <trkpt lat="41.5779860" lon="2.1018200">
        <ele>248.7</ele>
        <time>2022-09-26T12:34:21Z</time>
      </trkpt>
      <trkpt lat="41.5779290" lon="2.1018310">
        <ele>248.7</ele>
        <time>2022-09-26T12:34:22Z</time>
      </trkpt>
      <trkpt lat="41.5778730" lon="2.1018580">
        <ele>248.6</ele>
        <time>2022-09-26T12:34:23Z</time>
      </trkpt>
      <trkpt lat="41.5778170" lon="2.1018910">
        <ele>248.5</ele>
        <time>2022-09-26T12:34:24Z</time>
      </trkpt>
      <trkpt lat="41.5777610" lon="2.1019150">
        <ele>248.3</ele>
        <time>2022-09-26T12:34:25Z</time>
      </trkpt>
      <trkpt lat="41.5777030" lon="2.1019400">
        <ele>248.2</ele>
        <time>2022-09-26T12:34:26Z</time>
      </trkpt>
      <trkpt lat="41.5776460" lon="2.1019640">
        <ele>248.1</ele>
        <time>2022-09-26T12:34:27Z</time>
      </trkpt>
      <trkpt lat="41.5775870" lon="2.1019850">
        <ele>247.9</ele>
        <time>2022-09-26T12:34:28Z</time>
      </trkpt>
      <trkpt lat="41.5775200" lon="2.1020070">
        <ele>247.8</ele>
        <time>2022-09-26T12:34:29Z</time>
      </trkpt>
      <trkpt lat="41.5774530" lon="2.1020350">
        <ele>247.5</ele>
        <time>2022-09-26T12:34:30Z</time>
      </trkpt>
      <trkpt lat="41.5773870" lon="2.1020690">
        <ele>247.3</ele>
        <time>2022-09-26T12:34:31Z</time>
      </trkpt>
      <trkpt lat="41.5773230" lon="2.1021090">
        <ele>247.1</ele>
        <time>2022-09-26T12:34:32Z</time>
      </trkpt>
      <trkpt lat="41.5772620" lon="2.1021520">
        <ele>246.9</ele>
        <time>2022-09-26T12:34:33Z</time>
      </trkpt>
      <trkpt lat="41.5772090" lon="2.1022030">
        <ele>246.7</ele>
        <time>2022-09-26T12:34:34Z</time>
      </trkpt>
      <trkpt lat="41.5771660" lon="2.1022670">
        <ele>246.5</ele>
        <time>2022-09-26T12:34:35Z</time>
      </trkpt>
      <trkpt lat="41.5771270" lon="2.1023330">
        <ele>246.4</ele>
        <time>2022-09-26T12:34:36Z</time>
      </trkpt>
      <trkpt lat="41.5770850" lon="2.1023970">
        <ele>246.2</ele>
        <time>2022-09-26T12:34:37Z</time>
      </trkpt>
      <trkpt lat="41.5770360" lon="2.1024580">
        <ele>246.0</ele>
        <time>2022-09-26T12:34:38Z</time>
      </trkpt>
      <trkpt lat="41.5769890" lon="2.1025150">
        <ele>245.9</ele>
        <time>2022-09-26T12:34:39Z</time>
      </trkpt>
      <trkpt lat="41.5769430" lon="2.1025780">
        <ele>245.7</ele>
        <time>2022-09-26T12:34:40Z</time>
      </trkpt>
      <trkpt lat="41.5768980" lon="2.1026430">
        <ele>245.6</ele>
        <time>2022-09-26T12:34:41Z</time>
      </trkpt>
      <trkpt lat="41.5768530" lon="2.1027060">
        <ele>245.5</ele>
        <time>2022-09-26T12:34:42Z</time>
      </trkpt>
      <trkpt lat="41.5768100" lon="2.1027690">
        <ele>245.3</ele>
        <time>2022-09-26T12:34:43Z</time>
      </trkpt>
      <trkpt lat="41.5767640" lon="2.1028310">
        <ele>245.2</ele>
        <time>2022-09-26T12:34:44Z</time>
      </trkpt>
      <trkpt lat="41.5767210" lon="2.1028940">
        <ele>245.1</ele>
        <time>2022-09-26T12:34:45Z</time>
      </trkpt>
      <trkpt lat="41.5766750" lon="2.1029500">
        <ele>244.9</ele>
        <time>2022-09-26T12:34:46Z</time>
      </trkpt>
      <trkpt lat="41.5766290" lon="2.1030070">
        <ele>244.8</ele>
        <time>2022-09-26T12:34:47Z</time>
      </trkpt>
      <trkpt lat="41.5765830" lon="2.1030580">
        <ele>244.7</ele>
        <time>2022-09-26T12:34:48Z</time>
      </trkpt>
      <trkpt lat="41.5765340" lon="2.1031050">
        <ele>244.6</ele>
        <time>2022-09-26T12:34:49Z</time>
      </trkpt>
      <trkpt lat="41.5764850" lon="2.1031500">
        <ele>244.4</ele>
        <time>2022-09-26T12:34:50Z</time>
      </trkpt>
      <trkpt lat="41.5764350" lon="2.1032010">
        <ele>244.3</ele>
        <time>2022-09-26T12:34:51Z</time>
      </trkpt>
      <trkpt lat="41.5763880" lon="2.1032650">
        <ele>244.1</ele>
        <time>2022-09-26T12:34:52Z</time>
      </trkpt>
      <trkpt lat="41.5763400" lon="2.1033310">
        <ele>243.9</ele>
        <time>2022-09-26T12:34:53Z</time>
      </trkpt>
      <trkpt lat="41.5762940" lon="2.1033990">
        <ele>243.8</ele>
        <time>2022-09-26T12:34:54Z</time>
      </trkpt>
      <trkpt lat="41.5762520" lon="2.1034700">
        <ele>243.6</ele>
        <time>2022-09-26T12:34:55Z</time>
      </trkpt>
      <trkpt lat="41.5762120" lon="2.1035380">
        <ele>243.4</ele>
        <time>2022-09-26T12:34:56Z</time>
      </trkpt>
      <trkpt lat="41.5761700" lon="2.1035980">
        <ele>243.3</ele>
        <time>2022-09-26T12:34:57Z</time>
      </trkpt>
      <trkpt lat="41.5761300" lon="2.1036560">
        <ele>243.2</ele>
        <time>2022-09-26T12:34:58Z</time>
      </trkpt>
      <trkpt lat="41.5760880" lon="2.1037100">
        <ele>243.0</ele>
        <time>2022-09-26T12:34:59Z</time>
      </trkpt>
      <trkpt lat="41.5760420" lon="2.1037630">
        <ele>242.9</ele>
        <time>2022-09-26T12:35:00Z</time>
      </trkpt>
      <trkpt lat="41.5759940" lon="2.1038150">
        <ele>242.8</ele>
        <time>2022-09-26T12:35:01Z</time>
      </trkpt>
      <trkpt lat="41.5759480" lon="2.1038650">
        <ele>242.8</ele>
        <time>2022-09-26T12:35:02Z</time>
      </trkpt>
      <trkpt lat="41.5759060" lon="2.1039150">
        <ele>242.7</ele>
        <time>2022-09-26T12:35:03Z</time>
      </trkpt>
      <trkpt lat="41.5758660" lon="2.1039620">
        <ele>242.6</ele>
        <time>2022-09-26T12:35:04Z</time>
      </trkpt>
      <trkpt lat="41.5758270" lon="2.1040080">
        <ele>242.6</ele>
        <time>2022-09-26T12:35:05Z</time>
      </trkpt>
      <trkpt lat="41.5757910" lon="2.1040480">
        <ele>242.5</ele>
        <time>2022-09-26T12:35:06Z</time>
      </trkpt>
      <trkpt lat="41.5757480" lon="2.1040830">
        <ele>242.5</ele>
        <time>2022-09-26T12:35:07Z</time>
      </trkpt>
      <trkpt lat="41.5757060" lon="2.1041140">
        <ele>242.4</ele>
        <time>2022-09-26T12:35:08Z</time>
      </trkpt>
      <trkpt lat="41.5756620" lon="2.1041480">
        <ele>242.3</ele>
        <time>2022-09-26T12:35:09Z</time>
      </trkpt>
      <trkpt lat="41.5756110" lon="2.1041910">
        <ele>242.2</ele>
        <time>2022-09-26T12:35:10Z</time>
      </trkpt>
      <trkpt lat="41.5755610" lon="2.1042380">
        <ele>242.1</ele>
        <time>2022-09-26T12:35:11Z</time>
      </trkpt>
      <trkpt lat="41.5755160" lon="2.1042860">
        <ele>242.1</ele>
        <time>2022-09-26T12:35:12Z</time>
      </trkpt>
      <trkpt lat="41.5754710" lon="2.1043370">
        <ele>242.0</ele>
        <time>2022-09-26T12:35:13Z</time>
      </trkpt>
      <trkpt lat="41.5754280" lon="2.1043830">
        <ele>241.9</ele>
        <time>2022-09-26T12:35:14Z</time>
      </trkpt>
      <trkpt lat="41.5753880" lon="2.1044310">
        <ele>241.9</ele>
        <time>2022-09-26T12:35:15Z</time>
      </trkpt>
      <trkpt lat="41.5753510" lon="2.1044790">
        <ele>241.8</ele>
        <time>2022-09-26T12:35:16Z</time>
      </trkpt>
      <trkpt lat="41.5753110" lon="2.1045290">
        <ele>241.7</ele>
        <time>2022-09-26T12:35:17Z</time>
      </trkpt>
      <trkpt lat="41.5752740" lon="2.1045740">
        <ele>241.7</ele>
        <time>2022-09-26T12:35:18Z</time>
      </trkpt>
      <trkpt lat="41.5752370" lon="2.1046090">
        <ele>241.6</ele>
        <time>2022-09-26T12:35:19Z</time>
      </trkpt>
      <trkpt lat="41.5751940" lon="2.1046380">
        <ele>241.5</ele>
        <time>2022-09-26T12:35:20Z</time>
      </trkpt>
      <trkpt lat="41.5751500" lon="2.1046700">
        <ele>241.4</ele>
        <time>2022-09-26T12:35:21Z</time>
      </trkpt>
      <trkpt lat="41.5751030" lon="2.1047010">
        <ele>241.3</ele>
        <time>2022-09-26T12:35:22Z</time>
      </trkpt>
      <trkpt lat="41.5750560" lon="2.1047310">
        <ele>241.2</ele>
        <time>2022-09-26T12:35:23Z</time>
      </trkpt>
      <trkpt lat="41.5750100" lon="2.1047650">
        <ele>241.0</ele>
        <time>2022-09-26T12:35:24Z</time>
      </trkpt>
      <trkpt lat="41.5749640" lon="2.1048030">
        <ele>240.9</ele>
        <time>2022-09-26T12:35:25Z</time>
      </trkpt>
      <trkpt lat="41.5749100" lon="2.1048410">
        <ele>240.7</ele>
        <time>2022-09-26T12:35:26Z</time>
      </trkpt>
      <trkpt lat="41.5748590" lon="2.1048730">
        <ele>240.6</ele>
        <time>2022-09-26T12:35:27Z</time>
      </trkpt>
      <trkpt lat="41.5748050" lon="2.1049090">
        <ele>240.5</ele>
        <time>2022-09-26T12:35:28Z</time>
      </trkpt>
      <trkpt lat="41.5747530" lon="2.1049470">
        <ele>240.5</ele>
        <time>2022-09-26T12:35:29Z</time>
      </trkpt>
      <trkpt lat="41.5746990" lon="2.1049800">
        <ele>240.4</ele>
        <time>2022-09-26T12:35:30Z</time>
      </trkpt>
      <trkpt lat="41.5746480" lon="2.1050110">
        <ele>240.3</ele>
        <time>2022-09-26T12:35:31Z</time>
      </trkpt>
      <trkpt lat="41.5745950" lon="2.1050420">
        <ele>240.3</ele>
        <time>2022-09-26T12:35:32Z</time>
      </trkpt>
      <trkpt lat="41.5745430" lon="2.1050700">
        <ele>240.2</ele>
        <time>2022-09-26T12:35:33Z</time>
      </trkpt>
      <trkpt lat="41.5744930" lon="2.1050930">
        <ele>240.2</ele>
        <time>2022-09-26T12:35:34Z</time>
      </trkpt>
      <trkpt lat="41.5744440" lon="2.1051180">
        <ele>240.1</ele>
        <time>2022-09-26T12:35:35Z</time>
      </trkpt>
      <trkpt lat="41.5743910" lon="2.1051410">
        <ele>239.9</ele>
        <time>2022-09-26T12:35:36Z</time>
      </trkpt>
      <trkpt lat="41.5743340" lon="2.1051580">
        <ele>239.8</ele>
        <time>2022-09-26T12:35:37Z</time>
      </trkpt>
      <trkpt lat="41.5742730" lon="2.1051790">
        <ele>239.6</ele>
        <time>2022-09-26T12:35:38Z</time>
      </trkpt>
      <trkpt lat="41.5742120" lon="2.1052120">
        <ele>239.5</ele>
        <time>2022-09-26T12:35:39Z</time>
      </trkpt>
      <trkpt lat="41.5741520" lon="2.1052500">
        <ele>239.3</ele>
        <time>2022-09-26T12:35:40Z</time>
      </trkpt>
      <trkpt lat="41.5740950" lon="2.1052910">
        <ele>239.2</ele>
        <time>2022-09-26T12:35:41Z</time>
      </trkpt>
      <trkpt lat="41.5740400" lon="2.1053290">
        <ele>239.1</ele>
        <time>2022-09-26T12:35:42Z</time>
      </trkpt>
      <trkpt lat="41.5739850" lon="2.1053640">
        <ele>238.9</ele>
        <time>2022-09-26T12:35:43Z</time>
      </trkpt>
      <trkpt lat="41.5739280" lon="2.1054010">
        <ele>238.8</ele>
        <time>2022-09-26T12:35:44Z</time>
      </trkpt>
      <trkpt lat="41.5738720" lon="2.1054360">
        <ele>238.7</ele>
        <time>2022-09-26T12:35:45Z</time>
      </trkpt>
      <trkpt lat="41.5738170" lon="2.1054750">
        <ele>238.6</ele>
        <time>2022-09-26T12:35:46Z</time>
      </trkpt>
      <trkpt lat="41.5737630" lon="2.1055160">
        <ele>238.5</ele>
        <time>2022-09-26T12:35:47Z</time>
      </trkpt>
      <trkpt lat="41.5737110" lon="2.1055640">
        <ele>238.3</ele>
        <time>2022-09-26T12:35:48Z</time>
      </trkpt>
      <trkpt lat="41.5736560" lon="2.1056100">
        <ele>238.2</ele>
        <time>2022-09-26T12:35:49Z</time>
      </trkpt>
      <trkpt lat="41.5736010" lon="2.1056540">
        <ele>238.1</ele>
        <time>2022-09-26T12:35:50Z</time>
      </trkpt>
      <trkpt lat="41.5735420" lon="2.1056940">
        <ele>238.0</ele>
        <time>2022-09-26T12:35:51Z</time>
      </trkpt>
      <trkpt lat="41.5734850" lon="2.1057340">
        <ele>237.8</ele>
        <time>2022-09-26T12:35:52Z</time>
      </trkpt>
      <trkpt lat="41.5734320" lon="2.1057740">
        <ele>237.7</ele>
        <time>2022-09-26T12:35:53Z</time>
      </trkpt>
      <trkpt lat="41.5733800" lon="2.1058110">
        <ele>237.6</ele>
        <time>2022-09-26T12:35:54Z</time>
      </trkpt>
      <trkpt lat="41.5733250" lon="2.1058490">
        <ele>237.4</ele>
        <time>2022-09-26T12:35:55Z</time>
      </trkpt>
      <trkpt lat="41.5732700" lon="2.1058840">
        <ele>237.2</ele>
        <time>2022-09-26T12:35:56Z</time>
      </trkpt>
      <trkpt lat="41.5732130" lon="2.1059160">
        <ele>237.1</ele>
        <time>2022-09-26T12:35:57Z</time>
      </trkpt>
      <trkpt lat="41.5731560" lon="2.1059520">
        <ele>236.9</ele>
        <time>2022-09-26T12:35:58Z</time>
      </trkpt>
      <trkpt lat="41.5731000" lon="2.1059920">
        <ele>236.7</ele>
        <time>2022-09-26T12:35:59Z</time>
      </trkpt>
      <trkpt lat="41.5730450" lon="2.1060300">
        <ele>236.5</ele>
        <time>2022-09-26T12:36:00Z</time>
      </trkpt>
      <trkpt lat="41.5729890" lon="2.1060690">
        <ele>236.2</ele>
        <time>2022-09-26T12:36:01Z</time>
      </trkpt>
      <trkpt lat="41.5729340" lon="2.1061090">
        <ele>236.0</ele>
        <time>2022-09-26T12:36:02Z</time>
      </trkpt>
      <trkpt lat="41.5728760" lon="2.1061460">
        <ele>235.8</ele>
        <time>2022-09-26T12:36:03Z</time>
      </trkpt>
      <trkpt lat="41.5728180" lon="2.1061860">
        <ele>235.6</ele>
        <time>2022-09-26T12:36:04Z</time>
      </trkpt>
      <trkpt lat="41.5727570" lon="2.1062250">
        <ele>235.4</ele>
        <time>2022-09-26T12:36:05Z</time>
      </trkpt>
      <trkpt lat="41.5726970" lon="2.1062640">
        <ele>235.1</ele>
        <time>2022-09-26T12:36:06Z</time>
      </trkpt>
      <trkpt lat="41.5726400" lon="2.1063030">
        <ele>234.9</ele>
        <time>2022-09-26T12:36:07Z</time>
      </trkpt>
      <trkpt lat="41.5725810" lon="2.1063420">
        <ele>234.7</ele>
        <time>2022-09-26T12:36:08Z</time>
      </trkpt>
      <trkpt lat="41.5725210" lon="2.1063780">
        <ele>234.5</ele>
        <time>2022-09-26T12:36:09Z</time>
      </trkpt>
      <trkpt lat="41.5724580" lon="2.1064080">
        <ele>234.3</ele>
        <time>2022-09-26T12:36:10Z</time>
      </trkpt>
      <trkpt lat="41.5723960" lon="2.1064390">
        <ele>234.1</ele>
        <time>2022-09-26T12:36:11Z</time>
      </trkpt>
      <trkpt lat="41.5723350" lon="2.1064780">
        <ele>233.9</ele>
        <time>2022-09-26T12:36:12Z</time>
      </trkpt>
      <trkpt lat="41.5722740" lon="2.1065170">
        <ele>233.7</ele>
        <time>2022-09-26T12:36:13Z</time>
      </trkpt>
      <trkpt lat="41.5722150" lon="2.1065570">
        <ele>233.6</ele>
        <time>2022-09-26T12:36:14Z</time>
      </trkpt>
      <trkpt lat="41.5721590" lon="2.1065970">
        <ele>233.4</ele>
        <time>2022-09-26T12:36:15Z</time>
      </trkpt>
      <trkpt lat="41.5721010" lon="2.1066370">
        <ele>233.2</ele>
        <time>2022-09-26T12:36:16Z</time>
      </trkpt>
      <trkpt lat="41.5720410" lon="2.1066760">
        <ele>233.0</ele>
        <time>2022-09-26T12:36:17Z</time>
      </trkpt>
      <trkpt lat="41.5719790" lon="2.1067190">
        <ele>232.9</ele>
        <time>2022-09-26T12:36:18Z</time>
      </trkpt>
      <trkpt lat="41.5719140" lon="2.1067630">
        <ele>232.7</ele>
        <time>2022-09-26T12:36:19Z</time>
      </trkpt>
      <trkpt lat="41.5718520" lon="2.1068060">
        <ele>232.5</ele>
        <time>2022-09-26T12:36:20Z</time>
      </trkpt>
      <trkpt lat="41.5717900" lon="2.1068470">
        <ele>232.4</ele>
        <time>2022-09-26T12:36:21Z</time>
      </trkpt>
      <trkpt lat="41.5717280" lon="2.1068860">
        <ele>232.2</ele>
        <time>2022-09-26T12:36:22Z</time>
      </trkpt>
      <trkpt lat="41.5716650" lon="2.1069200">
        <ele>232.1</ele>
        <time>2022-09-26T12:36:23Z</time>
      </trkpt>
      <trkpt lat="41.5716020" lon="2.1069460">
        <ele>231.9</ele>
        <time>2022-09-26T12:36:24Z</time>
      </trkpt>
      <trkpt lat="41.5715380" lon="2.1069630">
        <ele>231.8</ele>
        <time>2022-09-26T12:36:25Z</time>
      </trkpt>
      <trkpt lat="41.5714740" lon="2.1069740">
        <ele>231.6</ele>
        <time>2022-09-26T12:36:26Z</time>
      </trkpt>
      <trkpt lat="41.5714120" lon="2.1069910">
        <ele>231.5</ele>
        <time>2022-09-26T12:36:27Z</time>
      </trkpt>
      <trkpt lat="41.5713560" lon="2.1070200">
        <ele>231.4</ele>
        <time>2022-09-26T12:36:28Z</time>
      </trkpt>
      <trkpt lat="41.5713030" lon="2.1070580">
        <ele>231.2</ele>
        <time>2022-09-26T12:36:29Z</time>
      </trkpt>
      <trkpt lat="41.5712530" lon="2.1071070">
        <ele>231.0</ele>
        <time>2022-09-26T12:36:30Z</time>
      </trkpt>
      <trkpt lat="41.5712080" lon="2.1071670">
        <ele>230.8</ele>
        <time>2022-09-26T12:36:31Z</time>
      </trkpt>
      <trkpt lat="41.5711700" lon="2.1072300">
        <ele>230.6</ele>
        <time>2022-09-26T12:36:32Z</time>
      </trkpt>
      <trkpt lat="41.5711370" lon="2.1072970">
        <ele>230.4</ele>
        <time>2022-09-26T12:36:33Z</time>
      </trkpt>
      <trkpt lat="41.5711010" lon="2.1073690">
        <ele>230.1</ele>
        <time>2022-09-26T12:36:34Z</time>
      </trkpt>
      <trkpt lat="41.5710650" lon="2.1074390">
        <ele>229.9</ele>
        <time>2022-09-26T12:36:35Z</time>
      </trkpt>
      <trkpt lat="41.5710280" lon="2.1075130">
        <ele>229.8</ele>
        <time>2022-09-26T12:36:36Z</time>
      </trkpt>
      <trkpt lat="41.5709920" lon="2.1075920">
        <ele>229.6</ele>
        <time>2022-09-26T12:36:37Z</time>
      </trkpt>
      <trkpt lat="41.5709600" lon="2.1076680">
        <ele>229.4</ele>
        <time>2022-09-26T12:36:38Z</time>
      </trkpt>
      <trkpt lat="41.5709300" lon="2.1077410">
        <ele>229.3</ele>
        <time>2022-09-26T12:36:39Z</time>
      </trkpt>
      <trkpt lat="41.5709000" lon="2.1078160">
        <ele>229.2</ele>
        <time>2022-09-26T12:36:40Z</time>
      </trkpt>
      <trkpt lat="41.5708740" lon="2.1078890">
        <ele>229.1</ele>
        <time>2022-09-26T12:36:41Z</time>
      </trkpt>
      <trkpt lat="41.5708510" lon="2.1079600">
        <ele>229.0</ele>
        <time>2022-09-26T12:36:42Z</time>
      </trkpt>
      <trkpt lat="41.5708340" lon="2.1080320">
        <ele>228.9</ele>
        <time>2022-09-26T12:36:43Z</time>
      </trkpt>
      <trkpt lat="41.5708190" lon="2.1080950">
        <ele>228.8</ele>
        <time>2022-09-26T12:36:44Z</time>
      </trkpt>
      <trkpt lat="41.5707980" lon="2.1081540">
        <ele>228.7</ele>
        <time>2022-09-26T12:36:45Z</time>
      </trkpt>
      <trkpt lat="41.5707710" lon="2.1082150">
        <ele>228.6</ele>
        <time>2022-09-26T12:36:46Z</time>
      </trkpt>
      <trkpt lat="41.5707420" lon="2.1082800">
        <ele>228.5</ele>
        <time>2022-09-26T12:36:47Z</time>
      </trkpt>
      <trkpt lat="41.5707100" lon="2.1083480">
        <ele>228.3</ele>
        <time>2022-09-26T12:36:48Z</time>
      </trkpt>
      <trkpt lat="41.5706730" lon="2.1084200">
        <ele>228.2</ele>
        <time>2022-09-26T12:36:49Z</time>
      </trkpt>
      <trkpt lat="41.5706330" lon="2.1084930">
        <ele>228.1</ele>
        <time>2022-09-26T12:36:50Z</time>
      </trkpt>
      <trkpt lat="41.5705920" lon="2.1085730">
        <ele>227.9</ele>
        <time>2022-09-26T12:36:51Z</time>
      </trkpt>
      <trkpt lat="41.5705580" lon="2.1086480">
        <ele>227.8</ele>
        <time>2022-09-26T12:36:52Z</time>
      </trkpt>
      <trkpt lat="41.5705290" lon="2.1087190">
        <ele>227.6</ele>
        <time>2022-09-26T12:36:53Z</time>
      </trkpt>
      <trkpt lat="41.5705010" lon="2.1087860">
        <ele>227.5</ele>
        <time>2022-09-26T12:36:54Z</time>
      </trkpt>
      <trkpt lat="41.5704720" lon="2.1088520">
        <ele>227.3</ele>
        <time>2022-09-26T12:36:55Z</time>
      </trkpt>
      <trkpt lat="41.5704370" lon="2.1089160">
        <ele>227.1</ele>
        <time>2022-09-26T12:36:56Z</time>
      </trkpt>
      <trkpt lat="41.5703960" lon="2.1089740">
        <ele>226.9</ele>
        <time>2022-09-26T12:36:57Z</time>
      </trkpt>
      <trkpt lat="41.5703530" lon="2.1090250">
        <ele>226.7</ele>
        <time>2022-09-26T12:36:58Z</time>
      </trkpt>
      <trkpt lat="41.5703090" lon="2.1090750">
        <ele>226.5</ele>
        <time>2022-09-26T12:36:59Z</time>
      </trkpt>
      <trkpt lat="41.5702660" lon="2.1091240">
        <ele>226.3</ele>
        <time>2022-09-26T12:37:00Z</time>
      </trkpt>
      <trkpt lat="41.5702320" lon="2.1091670">
        <ele>226.1</ele>
        <time>2022-09-26T12:37:01Z</time>
      </trkpt>
      <trkpt lat="41.5702100" lon="2.1092030">
        <ele>225.9</ele>
        <time>2022-09-26T12:37:02Z</time>
      </trkpt>
      <trkpt lat="41.5702050" lon="2.1092430">
        <ele>225.8</ele>
        <time>2022-09-26T12:37:03Z</time>
      </trkpt>
      <trkpt lat="41.5702120" lon="2.1092830">
        <ele>225.4</ele>
        <time>2022-09-26T12:37:04Z</time>
      </trkpt>
      <trkpt lat="41.5702350" lon="2.1093120">
        <ele>225.4</ele>
        <time>2022-09-26T12:37:05Z</time>
      </trkpt>
      <trkpt lat="41.5702460" lon="2.1093230">
        <ele>225.4</ele>
        <time>2022-09-26T12:37:06Z</time>
      </trkpt>
      <trkpt lat="41.5702810" lon="2.1093380">
        <ele>225.4</ele>
        <time>2022-09-26T12:37:07Z</time>
      </trkpt>
      <trkpt lat="41.5702940" lon="2.1093420">
        <ele>225.4</ele>
        <time>2022-09-26T12:37:08Z</time>
      </trkpt>
      <trkpt lat="41.5702820" lon="2.1093420">
        <ele>225.4</ele>
        <time>2022-09-26T12:37:09Z</time>
      </trkpt>
      <trkpt lat="41.5703240" lon="2.1093320">
        <ele>225.4</ele>
        <time>2022-09-26T12:37:10Z</time>
      </trkpt>
      <trkpt lat="41.5703810" lon="2.1093620">
        <ele>225.3</ele>
        <time>2022-09-26T12:37:11Z</time>
      </trkpt>
      <trkpt lat="41.5704190" lon="2.1093830">
        <ele>225.3</ele>
        <time>2022-09-26T12:37:12Z</time>
      </trkpt>
      <trkpt lat="41.5704580" lon="2.1094020">
        <ele>225.3</ele>
        <time>2022-09-26T12:37:14Z</time>
      </trkpt>
      <trkpt lat="41.5705090" lon="2.1094110">
        <ele>225.2</ele>
        <time>2022-09-26T12:37:15Z</time>
      </trkpt>
      <trkpt lat="41.5705640" lon="2.1094290">
        <ele>225.1</ele>
        <time>2022-09-26T12:37:16Z</time>
      </trkpt>
      <trkpt lat="41.5706120" lon="2.1094430">
        <ele>225.0</ele>
        <time>2022-09-26T12:37:17Z</time>
      </trkpt>
      <trkpt lat="41.5706480" lon="2.1094490">
        <ele>224.9</ele>
        <time>2022-09-26T12:37:18Z</time>
      </trkpt>
      <trkpt lat="41.5706900" lon="2.1094530">
        <ele>224.8</ele>
        <time>2022-09-26T12:37:19Z</time>
      </trkpt>
      <trkpt lat="41.5707350" lon="2.1094590">
        <ele>224.6</ele>
        <time>2022-09-26T12:37:20Z</time>
      </trkpt>
      <trkpt lat="41.5707790" lon="2.1094690">
        <ele>224.5</ele>
        <time>2022-09-26T12:37:21Z</time>
      </trkpt>
      <trkpt lat="41.5708240" lon="2.1094830">
        <ele>224.4</ele>
        <time>2022-09-26T12:37:22Z</time>
      </trkpt>
      <trkpt lat="41.5708760" lon="2.1095000">
        <ele>224.2</ele>
        <time>2022-09-26T12:37:23Z</time>
      </trkpt>
      <trkpt lat="41.5709290" lon="2.1095190">
        <ele>224.1</ele>
        <time>2022-09-26T12:37:24Z</time>
      </trkpt>
      <trkpt lat="41.5709800" lon="2.1095380">
        <ele>224.0</ele>
        <time>2022-09-26T12:37:25Z</time>
      </trkpt>
      <trkpt lat="41.5710320" lon="2.1095540">
        <ele>223.9</ele>
        <time>2022-09-26T12:37:26Z</time>
      </trkpt>
      <trkpt lat="41.5710850" lon="2.1095730">
        <ele>223.7</ele>
        <time>2022-09-26T12:37:27Z</time>
      </trkpt>
      <trkpt lat="41.5711360" lon="2.1095960">
        <ele>223.6</ele>
        <time>2022-09-26T12:37:28Z</time>
      </trkpt>
      <trkpt lat="41.5711780" lon="2.1096230">
        <ele>223.5</ele>
        <time>2022-09-26T12:37:29Z</time>
      </trkpt>
      <trkpt lat="41.5712120" lon="2.1096590">
        <ele>223.4</ele>
        <time>2022-09-26T12:37:30Z</time>
      </trkpt>
      <trkpt lat="41.5712290" lon="2.1096790">
        <ele>223.3</ele>
        <time>2022-09-26T12:37:31Z</time>
      </trkpt>
      <trkpt lat="41.5712570" lon="2.1097280">
        <ele>223.0</ele>
        <time>2022-09-26T12:37:32Z</time>
      </trkpt>
      <trkpt lat="41.5712470" lon="2.1097850">
        <ele>222.8</ele>
        <time>2022-09-26T12:37:33Z</time>
      </trkpt>
      <trkpt lat="41.5712230" lon="2.1098350">
        <ele>222.7</ele>
        <time>2022-09-26T12:37:34Z</time>
      </trkpt>
      <trkpt lat="41.5711990" lon="2.1098790">
        <ele>222.5</ele>
        <time>2022-09-26T12:37:35Z</time>
      </trkpt>
      <trkpt lat="41.5711610" lon="2.1099650">
        <ele>222.2</ele>
        <time>2022-09-26T12:37:36Z</time>
      </trkpt>
      <trkpt lat="41.5711350" lon="2.1100290">
        <ele>222.0</ele>
        <time>2022-09-26T12:37:37Z</time>
      </trkpt>
      <trkpt lat="41.5711060" lon="2.1100900">
        <ele>221.8</ele>
        <time>2022-09-26T12:37:38Z</time>
      </trkpt>
      <trkpt lat="41.5710760" lon="2.1101540">
        <ele>221.7</ele>
        <time>2022-09-26T12:37:39Z</time>
      </trkpt>
      <trkpt lat="41.5710450" lon="2.1102140">
        <ele>221.5</ele>
        <time>2022-09-26T12:37:40Z</time>
      </trkpt>
      <trkpt lat="41.5710130" lon="2.1102730">
        <ele>221.3</ele>
        <time>2022-09-26T12:37:41Z</time>
      </trkpt>
      <trkpt lat="41.5709800" lon="2.1103330">
        <ele>221.2</ele>
        <time>2022-09-26T12:37:42Z</time>
      </trkpt>
      <trkpt lat="41.5709540" lon="2.1104000">
        <ele>221.1</ele>
        <time>2022-09-26T12:37:43Z</time>
      </trkpt>
      <trkpt lat="41.5709320" lon="2.1104710">
        <ele>220.9</ele>
        <time>2022-09-26T12:37:44Z</time>
      </trkpt>
      <trkpt lat="41.5709070" lon="2.1105430">
        <ele>220.8</ele>
        <time>2022-09-26T12:37:45Z</time>
      </trkpt>
      <trkpt lat="41.5708760" lon="2.1106160">
        <ele>220.7</ele>
        <time>2022-09-26T12:37:46Z</time>
      </trkpt>
      <trkpt lat="41.5708470" lon="2.1106850">
        <ele>220.6</ele>
        <time>2022-09-26T12:37:47Z</time>
      </trkpt>
      <trkpt lat="41.5708270" lon="2.1107600">
        <ele>220.4</ele>
        <time>2022-09-26T12:37:48Z</time>
      </trkpt>
      <trkpt lat="41.5708120" lon="2.1108390">
        <ele>220.3</ele>
        <time>2022-09-26T12:37:49Z</time>
      </trkpt>
      <trkpt lat="41.5707980" lon="2.1109180">
        <ele>220.2</ele>
        <time>2022-09-26T12:37:50Z</time>
      </trkpt>
      <trkpt lat="41.5707830" lon="2.1109960">
        <ele>220.0</ele>
        <time>2022-09-26T12:37:51Z</time>
      </trkpt>
      <trkpt lat="41.5707620" lon="2.1110740">
        <ele>219.9</ele>
        <time>2022-09-26T12:37:52Z</time>
      </trkpt>
      <trkpt lat="41.5707320" lon="2.1111390">
        <ele>219.8</ele>
        <time>2022-09-26T12:37:53Z</time>
      </trkpt>
      <trkpt lat="41.5706940" lon="2.1112010">
        <ele>219.7</ele>
        <time>2022-09-26T12:37:54Z</time>
      </trkpt>
      <trkpt lat="41.5706570" lon="2.1112660">
        <ele>219.6</ele>
        <time>2022-09-26T12:37:55Z</time>
      </trkpt>
      <trkpt lat="41.5706200" lon="2.1113280">
        <ele>219.5</ele>
        <time>2022-09-26T12:37:56Z</time>
      </trkpt>
      <trkpt lat="41.5705800" lon="2.1113850">
        <ele>219.5</ele>
        <time>2022-09-26T12:37:57Z</time>
      </trkpt>
      <trkpt lat="41.5705350" lon="2.1114370">
        <ele>219.4</ele>
        <time>2022-09-26T12:37:58Z</time>
      </trkpt>
      <trkpt lat="41.5704880" lon="2.1114840">
        <ele>219.4</ele>
        <time>2022-09-26T12:37:59Z</time>
      </trkpt>
      <trkpt lat="41.5704350" lon="2.1115140">
        <ele>219.5</ele>
        <time>2022-09-26T12:38:00Z</time>
      </trkpt>
      <trkpt lat="41.5703790" lon="2.1115300">
        <ele>219.5</ele>
        <time>2022-09-26T12:38:01Z</time>
      </trkpt>
      <trkpt lat="41.5703190" lon="2.1115320">
        <ele>219.6</ele>
        <time>2022-09-26T12:38:02Z</time>
      </trkpt>
      <trkpt lat="41.5702650" lon="2.1115260">
        <ele>219.7</ele>
        <time>2022-09-26T12:38:03Z</time>
      </trkpt>
      <trkpt lat="41.5702110" lon="2.1115160">
        <ele>219.7</ele>
        <time>2022-09-26T12:38:04Z</time>
      </trkpt>
      <trkpt lat="41.5701610" lon="2.1115120">
        <ele>219.7</ele>
        <time>2022-09-26T12:38:05Z</time>
      </trkpt>
      <trkpt lat="41.5701150" lon="2.1115180">
        <ele>219.8</ele>
        <time>2022-09-26T12:38:06Z</time>
      </trkpt>
      <trkpt lat="41.5700680" lon="2.1115370">
        <ele>219.8</ele>
        <time>2022-09-26T12:38:07Z</time>
      </trkpt>
      <trkpt lat="41.5700220" lon="2.1115590">
        <ele>219.8</ele>
        <time>2022-09-26T12:38:08Z</time>
      </trkpt>
      <trkpt lat="41.5699760" lon="2.1115840">
        <ele>219.8</ele>
        <time>2022-09-26T12:38:09Z</time>
      </trkpt>
      <trkpt lat="41.5699290" lon="2.1116110">
        <ele>219.8</ele>
        <time>2022-09-26T12:38:10Z</time>
      </trkpt>
      <trkpt lat="41.5698810" lon="2.1116350">
        <ele>219.8</ele>
        <time>2022-09-26T12:38:11Z</time>
      </trkpt>
      <trkpt lat="41.5698320" lon="2.1116580">
        <ele>219.7</ele>
        <time>2022-09-26T12:38:12Z</time>
      </trkpt>
      <trkpt lat="41.5697830" lon="2.1116840">
        <ele>219.7</ele>
        <time>2022-09-26T12:38:13Z</time>
      </trkpt>
      <trkpt lat="41.5697350" lon="2.1117170">
        <ele>219.5</ele>
        <time>2022-09-26T12:38:14Z</time>
      </trkpt>
      <trkpt lat="41.5696930" lon="2.1117570">
        <ele>219.4</ele>
        <time>2022-09-26T12:38:15Z</time>
      </trkpt>
      <trkpt lat="41.5696500" lon="2.1117940">
        <ele>219.2</ele>
        <time>2022-09-26T12:38:16Z</time>
      </trkpt>
      <trkpt lat="41.5696060" lon="2.1118290">
        <ele>219.0</ele>
        <time>2022-09-26T12:38:17Z</time>
      </trkpt>
      <trkpt lat="41.5695610" lon="2.1118690">
        <ele>218.8</ele>
        <time>2022-09-26T12:38:18Z</time>
      </trkpt>
      <trkpt lat="41.5695150" lon="2.1119080">
        <ele>218.5</ele>
        <time>2022-09-26T12:38:19Z</time>
      </trkpt>
      <trkpt lat="41.5694670" lon="2.1119470">
        <ele>218.1</ele>
        <time>2022-09-26T12:38:20Z</time>
      </trkpt>
      <trkpt lat="41.5694150" lon="2.1119920">
        <ele>217.7</ele>
        <time>2022-09-26T12:38:21Z</time>
      </trkpt>
      <trkpt lat="41.5693630" lon="2.1120410">
        <ele>217.3</ele>
        <time>2022-09-26T12:38:22Z</time>
      </trkpt>
      <trkpt lat="41.5693110" lon="2.1120950">
        <ele>216.8</ele>
        <time>2022-09-26T12:38:23Z</time>
      </trkpt>
      <trkpt lat="41.5692580" lon="2.1121480">
        <ele>216.3</ele>
        <time>2022-09-26T12:38:24Z</time>
      </trkpt>
      <trkpt lat="41.5692040" lon="2.1122060">
        <ele>215.7</ele>
        <time>2022-09-26T12:38:25Z</time>
      </trkpt>
      <trkpt lat="41.5691560" lon="2.1122710">
        <ele>215.1</ele>
        <time>2022-09-26T12:38:26Z</time>
      </trkpt>
      <trkpt lat="41.5691070" lon="2.1123400">
        <ele>214.5</ele>
        <time>2022-09-26T12:38:27Z</time>
      </trkpt>
      <trkpt lat="41.5690540" lon="2.1124060">
        <ele>213.9</ele>
        <time>2022-09-26T12:38:28Z</time>
      </trkpt>
      <trkpt lat="41.5689970" lon="2.1124740">
        <ele>213.2</ele>
        <time>2022-09-26T12:38:29Z</time>
      </trkpt>
      <trkpt lat="41.5689380" lon="2.1125450">
        <ele>212.5</ele>
        <time>2022-09-26T12:38:30Z</time>
      </trkpt>
      <trkpt lat="41.5688800" lon="2.1126160">
        <ele>211.8</ele>
        <time>2022-09-26T12:38:31Z</time>
      </trkpt>
      <trkpt lat="41.5688230" lon="2.1126980">
        <ele>211.1</ele>
        <time>2022-09-26T12:38:32Z</time>
      </trkpt>
      <trkpt lat="41.5687700" lon="2.1127870">
        <ele>210.4</ele>
        <time>2022-09-26T12:38:33Z</time>
      </trkpt>
      <trkpt lat="41.5687230" lon="2.1128830">
        <ele>209.7</ele>
        <time>2022-09-26T12:38:34Z</time>
      </trkpt>
      <trkpt lat="41.5686770" lon="2.1129790">
        <ele>208.9</ele>
        <time>2022-09-26T12:38:35Z</time>
      </trkpt>
      <trkpt lat="41.5686330" lon="2.1130730">
        <ele>208.2</ele>
        <time>2022-09-26T12:38:36Z</time>
      </trkpt>
      <trkpt lat="41.5685900" lon="2.1131550">
        <ele>207.4</ele>
        <time>2022-09-26T12:38:37Z</time>
      </trkpt>
      <trkpt lat="41.5685480" lon="2.1132210">
        <ele>206.7</ele>
        <time>2022-09-26T12:38:38Z</time>
      </trkpt>
      <trkpt lat="41.5684990" lon="2.1132720">
        <ele>206.0</ele>
        <time>2022-09-26T12:38:39Z</time>
      </trkpt>
      <trkpt lat="41.5684470" lon="2.1133000">
        <ele>205.3</ele>
        <time>2022-09-26T12:38:40Z</time>
      </trkpt>
      <trkpt lat="41.5683910" lon="2.1133100">
        <ele>204.6</ele>
        <time>2022-09-26T12:38:41Z</time>
      </trkpt>
      <trkpt lat="41.5683350" lon="2.1133020">
        <ele>203.8</ele>
        <time>2022-09-26T12:38:42Z</time>
      </trkpt>
      <trkpt lat="41.5682770" lon="2.1132820">
        <ele>203.1</ele>
        <time>2022-09-26T12:38:43Z</time>
      </trkpt>
      <trkpt lat="41.5682150" lon="2.1132490">
        <ele>202.3</ele>
        <time>2022-09-26T12:38:44Z</time>
      </trkpt>
      <trkpt lat="41.5681480" lon="2.1132040">
        <ele>201.4</ele>
        <time>2022-09-26T12:38:45Z</time>
      </trkpt>
      <trkpt lat="41.5680780" lon="2.1131610">
        <ele>200.6</ele>
        <time>2022-09-26T12:38:46Z</time>
      </trkpt>
      <trkpt lat="41.5680010" lon="2.1131260">
        <ele>199.9</ele>
        <time>2022-09-26T12:38:47Z</time>
      </trkpt>
      <trkpt lat="41.5679180" lon="2.1131200">
        <ele>199.3</ele>
        <time>2022-09-26T12:38:48Z</time>
      </trkpt>
      <trkpt lat="41.5678290" lon="2.1131380">
        <ele>198.7</ele>
        <time>2022-09-26T12:38:49Z</time>
      </trkpt>
      <trkpt lat="41.5677450" lon="2.1131590">
        <ele>198.2</ele>
        <time>2022-09-26T12:38:50Z</time>
      </trkpt>
      <trkpt lat="41.5676590" lon="2.1131820">
        <ele>197.7</ele>
        <time>2022-09-26T12:38:51Z</time>
      </trkpt>
      <trkpt lat="41.5675770" lon="2.1132080">
        <ele>197.1</ele>
        <time>2022-09-26T12:38:52Z</time>
      </trkpt>
      <trkpt lat="41.5674910" lon="2.1132410">
        <ele>196.5</ele>
        <time>2022-09-26T12:38:53Z</time>
      </trkpt>
      <trkpt lat="41.5674050" lon="2.1132740">
        <ele>195.9</ele>
        <time>2022-09-26T12:38:54Z</time>
      </trkpt>
      <trkpt lat="41.5673230" lon="2.1133090">
        <ele>195.1</ele>
        <time>2022-09-26T12:38:55Z</time>
      </trkpt>
      <trkpt lat="41.5672430" lon="2.1133520">
        <ele>194.4</ele>
        <time>2022-09-26T12:38:56Z</time>
      </trkpt>
      <trkpt lat="41.5671660" lon="2.1134060">
        <ele>193.6</ele>
        <time>2022-09-26T12:38:57Z</time>
      </trkpt>
      <trkpt lat="41.5670940" lon="2.1134710">
        <ele>192.9</ele>
        <time>2022-09-26T12:38:58Z</time>
      </trkpt>
      <trkpt lat="41.5670230" lon="2.1135400">
        <ele>192.1</ele>
        <time>2022-09-26T12:38:59Z</time>
      </trkpt>
      <trkpt lat="41.5669540" lon="2.1136100">
        <ele>191.4</ele>
        <time>2022-09-26T12:39:00Z</time>
      </trkpt>
      <trkpt lat="41.5668880" lon="2.1136910">
        <ele>190.6</ele>
        <time>2022-09-26T12:39:01Z</time>
      </trkpt>
      <trkpt lat="41.5668230" lon="2.1137880">
        <ele>189.8</ele>
        <time>2022-09-26T12:39:02Z</time>
      </trkpt>
      <trkpt lat="41.5667620" lon="2.1138910">
        <ele>189.0</ele>
        <time>2022-09-26T12:39:03Z</time>
      </trkpt>
      <trkpt lat="41.5667000" lon="2.1139850">
        <ele>188.3</ele>
        <time>2022-09-26T12:39:04Z</time>
      </trkpt>
      <trkpt lat="41.5666370" lon="2.1140740">
        <ele>187.6</ele>
        <time>2022-09-26T12:39:05Z</time>
      </trkpt>
      <trkpt lat="41.5665730" lon="2.1141610">
        <ele>186.8</ele>
        <time>2022-09-26T12:39:06Z</time>
      </trkpt>
      <trkpt lat="41.5665090" lon="2.1142520">
        <ele>186.0</ele>
        <time>2022-09-26T12:39:07Z</time>
      </trkpt>
      <trkpt lat="41.5664510" lon="2.1143480">
        <ele>185.2</ele>
        <time>2022-09-26T12:39:08Z</time>
      </trkpt>
      <trkpt lat="41.5664000" lon="2.1144460">
        <ele>184.3</ele>
        <time>2022-09-26T12:39:09Z</time>
      </trkpt>
      <trkpt lat="41.5663490" lon="2.1145350">
        <ele>183.4</ele>
        <time>2022-09-26T12:39:10Z</time>
      </trkpt>
      <trkpt lat="41.5662930" lon="2.1146140">
        <ele>182.6</ele>
        <time>2022-09-26T12:39:11Z</time>
      </trkpt>
      <trkpt lat="41.5662420" lon="2.1146810">
        <ele>181.9</ele>
        <time>2022-09-26T12:39:12Z</time>
      </trkpt>
      <trkpt lat="41.5661830" lon="2.1147280">
        <ele>181.3</ele>
        <time>2022-09-26T12:39:13Z</time>
      </trkpt>
      <trkpt lat="41.5661190" lon="2.1147540">
        <ele>180.6</ele>
        <time>2022-09-26T12:39:14Z</time>
      </trkpt>
      <trkpt lat="41.5660510" lon="2.1147750">
        <ele>180.0</ele>
        <time>2022-09-26T12:39:15Z</time>
      </trkpt>
      <trkpt lat="41.5659810" lon="2.1147950">
        <ele>179.2</ele>
        <time>2022-09-26T12:39:16Z</time>
      </trkpt>
      <trkpt lat="41.5659110" lon="2.1148140">
        <ele>178.5</ele>
        <time>2022-09-26T12:39:17Z</time>
      </trkpt>
      <trkpt lat="41.5658390" lon="2.1148350">
        <ele>177.8</ele>
        <time>2022-09-26T12:39:18Z</time>
      </trkpt>
      <trkpt lat="41.5657680" lon="2.1148700">
        <ele>177.0</ele>
        <time>2022-09-26T12:39:19Z</time>
      </trkpt>
      <trkpt lat="41.5656950" lon="2.1149160">
        <ele>176.2</ele>
        <time>2022-09-26T12:39:20Z</time>
      </trkpt>
      <trkpt lat="41.5656230" lon="2.1149740">
        <ele>175.5</ele>
        <time>2022-09-26T12:39:21Z</time>
      </trkpt>
      <trkpt lat="41.5655500" lon="2.1150390">
        <ele>174.7</ele>
        <time>2022-09-26T12:39:22Z</time>
      </trkpt>
      <trkpt lat="41.5654750" lon="2.1151040">
        <ele>174.0</ele>
        <time>2022-09-26T12:39:23Z</time>
      </trkpt>
      <trkpt lat="41.5653950" lon="2.1151620">
        <ele>173.2</ele>
        <time>2022-09-26T12:39:24Z</time>
      </trkpt>
      <trkpt lat="41.5653090" lon="2.1152170">
        <ele>172.5</ele>
        <time>2022-09-26T12:39:25Z</time>
      </trkpt>
      <trkpt lat="41.5652180" lon="2.1152650">
        <ele>171.9</ele>
        <time>2022-09-26T12:39:26Z</time>
      </trkpt>
      <trkpt lat="41.5651230" lon="2.1153090">
        <ele>171.3</ele>
        <time>2022-09-26T12:39:27Z</time>
      </trkpt>
      <trkpt lat="41.5650270" lon="2.1153500">
        <ele>170.6</ele>
        <time>2022-09-26T12:39:28Z</time>
      </trkpt>
      <trkpt lat="41.5649310" lon="2.1153880">
        <ele>170.0</ele>
        <time>2022-09-26T12:39:29Z</time>
      </trkpt>
      <trkpt lat="41.5648400" lon="2.1154230">
        <ele>169.3</ele>
        <time>2022-09-26T12:39:30Z</time>
      </trkpt>
      <trkpt lat="41.5647550" lon="2.1154600">
        <ele>168.7</ele>
        <time>2022-09-26T12:39:31Z</time>
      </trkpt>
      <trkpt lat="41.5646700" lon="2.1154960">
        <ele>168.0</ele>
        <time>2022-09-26T12:39:32Z</time>
      </trkpt>
      <trkpt lat="41.5645820" lon="2.1155280">
        <ele>167.4</ele>
        <time>2022-09-26T12:39:33Z</time>
      </trkpt>
      <trkpt lat="41.5644920" lon="2.1155540">
        <ele>166.8</ele>
        <time>2022-09-26T12:39:34Z</time>
      </trkpt>
      <trkpt lat="41.5644000" lon="2.1155790">
        <ele>166.3</ele>
        <time>2022-09-26T12:39:35Z</time>
      </trkpt>
      <trkpt lat="41.5643090" lon="2.1156040">
        <ele>165.9</ele>
        <time>2022-09-26T12:39:36Z</time>
      </trkpt>
      <trkpt lat="41.5642170" lon="2.1156380">
        <ele>165.4</ele>
        <time>2022-09-26T12:39:37Z</time>
      </trkpt>
      <trkpt lat="41.5641310" lon="2.1156780">
        <ele>165.1</ele>
        <time>2022-09-26T12:39:38Z</time>
      </trkpt>
      <trkpt lat="41.5640470" lon="2.1157130">
        <ele>164.7</ele>
        <time>2022-09-26T12:39:39Z</time>
      </trkpt>
      <trkpt lat="41.5639670" lon="2.1157400">
        <ele>164.3</ele>
        <time>2022-09-26T12:39:40Z</time>
      </trkpt>
      <trkpt lat="41.5638900" lon="2.1157480">
        <ele>163.8</ele>
        <time>2022-09-26T12:39:41Z</time>
      </trkpt>
      <trkpt lat="41.5638130" lon="2.1157460">
        <ele>163.4</ele>
        <time>2022-09-26T12:39:42Z</time>
      </trkpt>
      <trkpt lat="41.5637320" lon="2.1157360">
        <ele>162.9</ele>
        <time>2022-09-26T12:39:43Z</time>
      </trkpt>
      <trkpt lat="41.5636490" lon="2.1157260">
        <ele>162.5</ele>
        <time>2022-09-26T12:39:44Z</time>
      </trkpt>
      <trkpt lat="41.5635730" lon="2.1157160">
        <ele>162.4</ele>
        <time>2022-09-26T12:39:45Z</time>
      </trkpt>
      <trkpt lat="41.5635080" lon="2.1157040">
        <ele>162.3</ele>
        <time>2022-09-26T12:39:46Z</time>
      </trkpt>
      <trkpt lat="41.5634540" lon="2.1156910">
        <ele>162.3</ele>
        <time>2022-09-26T12:39:47Z</time>
      </trkpt>
      <trkpt lat="41.5634090" lon="2.1156810">
        <ele>162.3</ele>
        <time>2022-09-26T12:39:48Z</time>
      </trkpt>
      <trkpt lat="41.5633660" lon="2.1156740">
        <ele>162.4</ele>
        <time>2022-09-26T12:39:49Z</time>
      </trkpt>
      <trkpt lat="41.5633240" lon="2.1156690">
        <ele>162.5</ele>
        <time>2022-09-26T12:39:50Z</time>
      </trkpt>
      <trkpt lat="41.5633010" lon="2.1156660">
        <ele>162.6</ele>
        <time>2022-09-26T12:39:51Z</time>
      </trkpt>
      <trkpt lat="41.5632550" lon="2.1156640">
        <ele>162.7</ele>
        <time>2022-09-26T12:39:52Z</time>
      </trkpt>
      <trkpt lat="41.5632130" lon="2.1156610">
        <ele>162.7</ele>
        <time>2022-09-26T12:39:53Z</time>
      </trkpt>
      <trkpt lat="41.5631710" lon="2.1156590">
        <ele>162.8</ele>
        <time>2022-09-26T12:39:54Z</time>
      </trkpt>
      <trkpt lat="41.5631380" lon="2.1156570">
        <ele>162.9</ele>
        <time>2022-09-26T12:39:55Z</time>
      </trkpt>
      <trkpt lat="41.5631010" lon="2.1156520">
        <ele>162.9</ele>
        <time>2022-09-26T12:39:56Z</time>
      </trkpt>
      <trkpt lat="41.5630270" lon="2.1156390">
        <ele>162.9</ele>
        <time>2022-09-26T12:39:58Z</time>
      </trkpt>
      <trkpt lat="41.5629740" lon="2.1156360">
        <ele>162.9</ele>
        <time>2022-09-26T12:39:59Z</time>
      </trkpt>
      <trkpt lat="41.5629150" lon="2.1156350">
        <ele>162.9</ele>
        <time>2022-09-26T12:40:00Z</time>
      </trkpt>
      <trkpt lat="41.5628590" lon="2.1156430">
        <ele>162.8</ele>
        <time>2022-09-26T12:40:01Z</time>
      </trkpt>
      <trkpt lat="41.5628070" lon="2.1156500">
        <ele>162.7</ele>
        <time>2022-09-26T12:40:02Z</time>
      </trkpt>
      <trkpt lat="41.5627520" lon="2.1156620">
        <ele>162.6</ele>
        <time>2022-09-26T12:40:03Z</time>
      </trkpt>
      <trkpt lat="41.5627000" lon="2.1156800">
        <ele>162.5</ele>
        <time>2022-09-26T12:40:04Z</time>
      </trkpt>
      <trkpt lat="41.5626490" lon="2.1157000">
        <ele>162.4</ele>
        <time>2022-09-26T12:40:05Z</time>
      </trkpt>
      <trkpt lat="41.5625940" lon="2.1157210">
        <ele>162.3</ele>
        <time>2022-09-26T12:40:06Z</time>
      </trkpt>
      <trkpt lat="41.5625420" lon="2.1157400">
        <ele>162.2</ele>
        <time>2022-09-26T12:40:07Z</time>
      </trkpt>
      <trkpt lat="41.5624860" lon="2.1157570">
        <ele>162.1</ele>
        <time>2022-09-26T12:40:08Z</time>
      </trkpt>
      <trkpt lat="41.5624310" lon="2.1157760">
        <ele>162.0</ele>
        <time>2022-09-26T12:40:09Z</time>
      </trkpt>
      <trkpt lat="41.5623770" lon="2.1157960">
        <ele>161.9</ele>
        <time>2022-09-26T12:40:10Z</time>
      </trkpt>
      <trkpt lat="41.5623230" lon="2.1158150">
        <ele>161.8</ele>
        <time>2022-09-26T12:40:11Z</time>
      </trkpt>
      <trkpt lat="41.5622670" lon="2.1158300">
        <ele>161.8</ele>
        <time>2022-09-26T12:40:12Z</time>
      </trkpt>
      <trkpt lat="41.5622110" lon="2.1158410">
        <ele>161.7</ele>
        <time>2022-09-26T12:40:13Z</time>
      </trkpt>
      <trkpt lat="41.5621510" lon="2.1158510">
        <ele>161.7</ele>
        <time>2022-09-26T12:40:14Z</time>
      </trkpt>
      <trkpt lat="41.5620940" lon="2.1158650">
        <ele>161.6</ele>
        <time>2022-09-26T12:40:15Z</time>
      </trkpt>
      <trkpt lat="41.5620390" lon="2.1158830">
        <ele>161.6</ele>
        <time>2022-09-26T12:40:16Z</time>
      </trkpt>
      <trkpt lat="41.5619820" lon="2.1159040">
        <ele>161.5</ele>
        <time>2022-09-26T12:40:17Z</time>
      </trkpt>
      <trkpt lat="41.5619240" lon="2.1159280">
        <ele>161.5</ele>
        <time>2022-09-26T12:40:18Z</time>
      </trkpt>
      <trkpt lat="41.5618670" lon="2.1159440">
        <ele>161.5</ele>
        <time>2022-09-26T12:40:19Z</time>
      </trkpt>
      <trkpt lat="41.5618090" lon="2.1159490">
        <ele>161.5</ele>
        <time>2022-09-26T12:40:20Z</time>
      </trkpt>
      <trkpt lat="41.5617480" lon="2.1159580">
        <ele>161.6</ele>
        <time>2022-09-26T12:40:21Z</time>
      </trkpt>
      <trkpt lat="41.5616900" lon="2.1159730">
        <ele>161.7</ele>
        <time>2022-09-26T12:40:22Z</time>
      </trkpt>
      <trkpt lat="41.5616290" lon="2.1159880">
        <ele>161.8</ele>
        <time>2022-09-26T12:40:23Z</time>
      </trkpt>
      <trkpt lat="41.5615710" lon="2.1160010">
        <ele>161.9</ele>
        <time>2022-09-26T12:40:24Z</time>
      </trkpt>
      <trkpt lat="41.5615170" lon="2.1160190">
        <ele>162.1</ele>
        <time>2022-09-26T12:40:25Z</time>
      </trkpt>
      <trkpt lat="41.5614670" lon="2.1160380">
        <ele>162.2</ele>
        <time>2022-09-26T12:40:26Z</time>
      </trkpt>
      <trkpt lat="41.5614170" lon="2.1160550">
        <ele>162.3</ele>
        <time>2022-09-26T12:40:27Z</time>
      </trkpt>
      <trkpt lat="41.5613690" lon="2.1160700">
        <ele>162.5</ele>
        <time>2022-09-26T12:40:28Z</time>
      </trkpt>
      <trkpt lat="41.5613240" lon="2.1160820">
        <ele>162.6</ele>
        <time>2022-09-26T12:40:29Z</time>
      </trkpt>
      <trkpt lat="41.5612780" lon="2.1160920">
        <ele>162.7</ele>
        <time>2022-09-26T12:40:30Z</time>
      </trkpt>
      <trkpt lat="41.5612320" lon="2.1161030">
        <ele>162.9</ele>
        <time>2022-09-26T12:40:31Z</time>
      </trkpt>
      <trkpt lat="41.5611890" lon="2.1161170">
        <ele>163.0</ele>
        <time>2022-09-26T12:40:32Z</time>
      </trkpt>
      <trkpt lat="41.5611600" lon="2.1161280">
        <ele>163.1</ele>
        <time>2022-09-26T12:40:33Z</time>
      </trkpt>
      <trkpt lat="41.5610860" lon="2.1161580">
        <ele>163.4</ele>
        <time>2022-09-26T12:40:35Z</time>
      </trkpt>
      <trkpt lat="41.5610530" lon="2.1161680">
        <ele>163.5</ele>
        <time>2022-09-26T12:40:36Z</time>
      </trkpt>
      <trkpt lat="41.5610170" lon="2.1161800">
        <ele>163.6</ele>
        <time>2022-09-26T12:40:37Z</time>
      </trkpt>
      <trkpt lat="41.5609730" lon="2.1161960">
        <ele>163.7</ele>
        <time>2022-09-26T12:40:38Z</time>
      </trkpt>
      <trkpt lat="41.5609450" lon="2.1162200">
        <ele>163.8</ele>
        <time>2022-09-26T12:40:39Z</time>
      </trkpt>
      <trkpt lat="41.5609390" lon="2.1162320">
        <ele>163.9</ele>
        <time>2022-09-26T12:40:40Z</time>
      </trkpt>
      <trkpt lat="41.5608780" lon="2.1162480">
        <ele>164.1</ele>
        <time>2022-09-26T12:40:41Z</time>
      </trkpt>
      <trkpt lat="41.5608160" lon="2.1162540">
        <ele>164.2</ele>
        <time>2022-09-26T12:40:42Z</time>
      </trkpt>
      <trkpt lat="41.5607680" lon="2.1162630">
        <ele>164.3</ele>
        <time>2022-09-26T12:40:43Z</time>
      </trkpt>
      <trkpt lat="41.5607230" lon="2.1162690">
        <ele>164.4</ele>
        <time>2022-09-26T12:40:44Z</time>
      </trkpt>
      <trkpt lat="41.5606800" lon="2.1162810">
        <ele>164.5</ele>
        <time>2022-09-26T12:40:45Z</time>
      </trkpt>
      <trkpt lat="41.5606370" lon="2.1163030">
        <ele>164.5</ele>
        <time>2022-09-26T12:40:47Z</time>
      </trkpt>
      <trkpt lat="41.5605950" lon="2.1163210">
        <ele>164.6</ele>
        <time>2022-09-26T12:40:48Z</time>
      </trkpt>
      <trkpt lat="41.5605330" lon="2.1163520">
        <ele>164.6</ele>
        <time>2022-09-26T12:40:49Z</time>
      </trkpt>
      <trkpt lat="41.5604870" lon="2.1163790">
        <ele>164.5</ele>
        <time>2022-09-26T12:40:50Z</time>
      </trkpt>
      <trkpt lat="41.5604450" lon="2.1164070">
        <ele>164.4</ele>
        <time>2022-09-26T12:40:51Z</time>
      </trkpt>
      <trkpt lat="41.5603840" lon="2.1164450">
        <ele>164.2</ele>
        <time>2022-09-26T12:40:53Z</time>
      </trkpt>
      <trkpt lat="41.5603240" lon="2.1164870">
        <ele>163.9</ele>
        <time>2022-09-26T12:40:54Z</time>
      </trkpt>
      <trkpt lat="41.5602770" lon="2.1165190">
        <ele>163.7</ele>
        <time>2022-09-26T12:40:55Z</time>
      </trkpt>
      <trkpt lat="41.5602290" lon="2.1165550">
        <ele>163.4</ele>
        <time>2022-09-26T12:40:56Z</time>
      </trkpt>
      <trkpt lat="41.5601770" lon="2.1165920">
        <ele>163.2</ele>
        <time>2022-09-26T12:40:57Z</time>
      </trkpt>
      <trkpt lat="41.5601220" lon="2.1166330">
        <ele>162.8</ele>
        <time>2022-09-26T12:40:58Z</time>
      </trkpt>
      <trkpt lat="41.5600670" lon="2.1166740">
        <ele>162.5</ele>
        <time>2022-09-26T12:40:59Z</time>
      </trkpt>
      <trkpt lat="41.5599500" lon="2.1167610">
        <ele>161.8</ele>
        <time>2022-09-26T12:41:01Z</time>
      </trkpt>
      <trkpt lat="41.5598890" lon="2.1168070">
        <ele>161.5</ele>
        <time>2022-09-26T12:41:02Z</time>
      </trkpt>
      <trkpt lat="41.5598280" lon="2.1168470">
        <ele>161.1</ele>
        <time>2022-09-26T12:41:03Z</time>
      </trkpt>
      <trkpt lat="41.5597610" lon="2.1168830">
        <ele>160.8</ele>
        <time>2022-09-26T12:41:04Z</time>
      </trkpt>
      <trkpt lat="41.5596950" lon="2.1169150">
        <ele>160.5</ele>
        <time>2022-09-26T12:41:05Z</time>
      </trkpt>
      <trkpt lat="41.5596250" lon="2.1169410">
        <ele>160.2</ele>
        <time>2022-09-26T12:41:06Z</time>
      </trkpt>
      <trkpt lat="41.5595500" lon="2.1169590">
        <ele>159.8</ele>
        <time>2022-09-26T12:41:07Z</time>
      </trkpt>
      <trkpt lat="41.5594710" lon="2.1169620">
        <ele>159.4</ele>
        <time>2022-09-26T12:41:08Z</time>
      </trkpt>
      <trkpt lat="41.5593950" lon="2.1169540">
        <ele>159.0</ele>
        <time>2022-09-26T12:41:09Z</time>
      </trkpt>
      <trkpt lat="41.5593180" lon="2.1169380">
        <ele>158.6</ele>
        <time>2022-09-26T12:41:10Z</time>
      </trkpt>
      <trkpt lat="41.5592390" lon="2.1169230">
        <ele>158.2</ele>
        <time>2022-09-26T12:41:11Z</time>
      </trkpt>
      <trkpt lat="41.5591560" lon="2.1169210">
        <ele>157.8</ele>
        <time>2022-09-26T12:41:12Z</time>
      </trkpt>
      <trkpt lat="41.5590720" lon="2.1169290">
        <ele>157.3</ele>
        <time>2022-09-26T12:41:13Z</time>
      </trkpt>
      <trkpt lat="41.5589880" lon="2.1169370">
        <ele>156.8</ele>
        <time>2022-09-26T12:41:14Z</time>
      </trkpt>
      <trkpt lat="41.5589060" lon="2.1169260">
        <ele>156.2</ele>
        <time>2022-09-26T12:41:15Z</time>
      </trkpt>
      <trkpt lat="41.5588340" lon="2.1168870">
        <ele>155.7</ele>
        <time>2022-09-26T12:41:16Z</time>
      </trkpt>
      <trkpt lat="41.5587690" lon="2.1168300">
        <ele>155.1</ele>
        <time>2022-09-26T12:41:17Z</time>
      </trkpt>
      <trkpt lat="41.5587120" lon="2.1167770">
        <ele>154.6</ele>
        <time>2022-09-26T12:41:18Z</time>
      </trkpt>
      <trkpt lat="41.5586630" lon="2.1167400">
        <ele>154.2</ele>
        <time>2022-09-26T12:41:19Z</time>
      </trkpt>
      <trkpt lat="41.5586310" lon="2.1167300">
        <ele>153.9</ele>
        <time>2022-09-26T12:41:20Z</time>
      </trkpt>
      <trkpt lat="41.5586170" lon="2.1167340">
        <ele>153.8</ele>
        <time>2022-09-26T12:41:21Z</time>
      </trkpt>
      <trkpt lat="41.5585970" lon="2.1167360">
        <ele>153.6</ele>
        <time>2022-09-26T12:41:22Z</time>
      </trkpt>
      <trkpt lat="41.5585670" lon="2.1167350">
        <ele>153.4</ele>
        <time>2022-09-26T12:41:23Z</time>
      </trkpt>
      <trkpt lat="41.5585580" lon="2.1167330">
        <ele>153.3</ele>
        <time>2022-09-26T12:41:24Z</time>
      </trkpt>
      <trkpt lat="41.5585300" lon="2.1167130">
        <ele>152.8</ele>
        <time>2022-09-26T12:41:25Z</time>
      </trkpt>
      <trkpt lat="41.5584900" lon="2.1166630">
        <ele>152.4</ele>
        <time>2022-09-26T12:41:26Z</time>
      </trkpt>
      <trkpt lat="41.5584550" lon="2.1166060">
        <ele>152.0</ele>
        <time>2022-09-26T12:41:27Z</time>
      </trkpt>
      <trkpt lat="41.5584200" lon="2.1165590">
        <ele>151.6</ele>
        <time>2022-09-26T12:41:28Z</time>
      </trkpt>
      <trkpt lat="41.5583750" lon="2.1165200">
        <ele>151.3</ele>
        <time>2022-09-26T12:41:29Z</time>
      </trkpt>
      <trkpt lat="41.5583240" lon="2.1164870">
        <ele>150.9</ele>
        <time>2022-09-26T12:41:30Z</time>
      </trkpt>
      <trkpt lat="41.5582720" lon="2.1164570">
        <ele>150.7</ele>
        <time>2022-09-26T12:41:31Z</time>
      </trkpt>
      <trkpt lat="41.5582170" lon="2.1164260">
        <ele>150.4</ele>
        <time>2022-09-26T12:41:32Z</time>
      </trkpt>
      <trkpt lat="41.5581640" lon="2.1163910">
        <ele>150.2</ele>
        <time>2022-09-26T12:41:33Z</time>
      </trkpt>
      <trkpt lat="41.5581170" lon="2.1163490">
        <ele>149.9</ele>
        <time>2022-09-26T12:41:34Z</time>
      </trkpt>
      <trkpt lat="41.5580690" lon="2.1163000">
        <ele>149.8</ele>
        <time>2022-09-26T12:41:35Z</time>
      </trkpt>
      <trkpt lat="41.5580230" lon="2.1162440">
        <ele>149.6</ele>
        <time>2022-09-26T12:41:36Z</time>
      </trkpt>
      <trkpt lat="41.5579870" lon="2.1161810">
        <ele>149.4</ele>
        <time>2022-09-26T12:41:37Z</time>
      </trkpt>
      <trkpt lat="41.5579630" lon="2.1161130">
        <ele>149.2</ele>
        <time>2022-09-26T12:41:38Z</time>
      </trkpt>
      <trkpt lat="41.5579490" lon="2.1160390">
        <ele>149.1</ele>
        <time>2022-09-26T12:41:39Z</time>
      </trkpt>
      <trkpt lat="41.5579390" lon="2.1159670">
        <ele>149.1</ele>
        <time>2022-09-26T12:41:40Z</time>
      </trkpt>
      <trkpt lat="41.5579280" lon="2.1159020">
        <ele>149.0</ele>
        <time>2022-09-26T12:41:41Z</time>
      </trkpt>
      <trkpt lat="41.5579170" lon="2.1158550">
        <ele>148.9</ele>
        <time>2022-09-26T12:41:42Z</time>
      </trkpt>
      <trkpt lat="41.5579090" lon="2.1158330">
        <ele>148.8</ele>
        <time>2022-09-26T12:41:43Z</time>
      </trkpt>
      <trkpt lat="41.5578710" lon="2.1158150">
        <ele>148.6</ele>
        <time>2022-09-26T12:41:44Z</time>
      </trkpt>
      <trkpt lat="41.5578140" lon="2.1158280">
        <ele>148.3</ele>
        <time>2022-09-26T12:41:45Z</time>
      </trkpt>
      <trkpt lat="41.5577580" lon="2.1158550">
        <ele>148.0</ele>
        <time>2022-09-26T12:41:46Z</time>
      </trkpt>
      <trkpt lat="41.5577060" lon="2.1158740">
        <ele>147.8</ele>
        <time>2022-09-26T12:41:47Z</time>
      </trkpt>
      <trkpt lat="41.5576530" lon="2.1158780">
        <ele>147.6</ele>
        <time>2022-09-26T12:41:48Z</time>
      </trkpt>
      <trkpt lat="41.5576040" lon="2.1158590">
        <ele>147.4</ele>
        <time>2022-09-26T12:41:49Z</time>
      </trkpt>
      <trkpt lat="41.5575600" lon="2.1158200">
        <ele>147.3</ele>
        <time>2022-09-26T12:41:50Z</time>
      </trkpt>
      <trkpt lat="41.5575270" lon="2.1157710">
        <ele>147.1</ele>
        <time>2022-09-26T12:41:51Z</time>
      </trkpt>
      <trkpt lat="41.5574960" lon="2.1157150">
        <ele>146.9</ele>
        <time>2022-09-26T12:41:52Z</time>
      </trkpt>
      <trkpt lat="41.5574800" lon="2.1156720">
        <ele>146.8</ele>
        <time>2022-09-26T12:41:53Z</time>
      </trkpt>
      <trkpt lat="41.5574560" lon="2.1156490">
        <ele>146.5</ele>
        <time>2022-09-26T12:41:54Z</time>
      </trkpt>
      <trkpt lat="41.5574350" lon="2.1156450">
        <ele>146.5</ele>
        <time>2022-09-26T12:41:55Z</time>
      </trkpt>
      <trkpt lat="41.5573900" lon="2.1156770">
        <ele>146.3</ele>
        <time>2022-09-26T12:41:57Z</time>
      </trkpt>
      <trkpt lat="41.5573860" lon="2.1157320">
        <ele>146.2</ele>
        <time>2022-09-26T12:41:58Z</time>
      </trkpt>
      <trkpt lat="41.5573820" lon="2.1157840">
        <ele>146.0</ele>
        <time>2022-09-26T12:41:59Z</time>
      </trkpt>
      <trkpt lat="41.5573680" lon="2.1158390">
        <ele>145.9</ele>
        <time>2022-09-26T12:42:00Z</time>
      </trkpt>
      <trkpt lat="41.5573380" lon="2.1159370">
        <ele>145.6</ele>
        <time>2022-09-26T12:42:01Z</time>
      </trkpt>
      <trkpt lat="41.5573050" lon="2.1159800">
        <ele>145.4</ele>
        <time>2022-09-26T12:42:02Z</time>
      </trkpt>
      <trkpt lat="41.5572840" lon="2.1159990">
        <ele>145.3</ele>
        <time>2022-09-26T12:42:03Z</time>
      </trkpt>
      <trkpt lat="41.5572340" lon="2.1160090">
        <ele>145.1</ele>
        <time>2022-09-26T12:42:04Z</time>
      </trkpt>
      <trkpt lat="41.5571830" lon="2.1159370">
        <ele>144.9</ele>
        <time>2022-09-26T12:42:05Z</time>
      </trkpt>
      <trkpt lat="41.5571390" lon="2.1158910">
        <ele>144.7</ele>
        <time>2022-09-26T12:42:06Z</time>
      </trkpt>
      <trkpt lat="41.5570900" lon="2.1158490">
        <ele>144.6</ele>
        <time>2022-09-26T12:42:07Z</time>
      </trkpt>
      <trkpt lat="41.5570360" lon="2.1158080">
        <ele>144.5</ele>
        <time>2022-09-26T12:42:08Z</time>
      </trkpt>
      <trkpt lat="41.5569830" lon="2.1157740">
        <ele>144.5</ele>
        <time>2022-09-26T12:42:09Z</time>
      </trkpt>
      <trkpt lat="41.5569310" lon="2.1157650">
        <ele>144.5</ele>
        <time>2022-09-26T12:42:10Z</time>
      </trkpt>
      <trkpt lat="41.5568840" lon="2.1157900">
        <ele>144.5</ele>
        <time>2022-09-26T12:42:11Z</time>
      </trkpt>
      <trkpt lat="41.5568510" lon="2.1158450">
        <ele>144.4</ele>
        <time>2022-09-26T12:42:12Z</time>
      </trkpt>
      <trkpt lat="41.5568230" lon="2.1159050">
        <ele>144.4</ele>
        <time>2022-09-26T12:42:13Z</time>
      </trkpt>
      <trkpt lat="41.5567940" lon="2.1159570">
        <ele>144.5</ele>
        <time>2022-09-26T12:42:14Z</time>
      </trkpt>
      <trkpt lat="41.5567650" lon="2.1160020">
        <ele>144.5</ele>
        <time>2022-09-26T12:42:15Z</time>
      </trkpt>
      <trkpt lat="41.5567450" lon="2.1160340">
        <ele>144.6</ele>
        <time>2022-09-26T12:42:16Z</time>
      </trkpt>
      <trkpt lat="41.5567210" lon="2.1160700">
        <ele>144.7</ele>
        <time>2022-09-26T12:42:17Z</time>
      </trkpt>
      <trkpt lat="41.5566950" lon="2.1161060">
        <ele>144.7</ele>
        <time>2022-09-26T12:42:18Z</time>
      </trkpt>
      <trkpt lat="41.5566650" lon="2.1161550">
        <ele>144.9</ele>
        <time>2022-09-26T12:42:19Z</time>
      </trkpt>
      <trkpt lat="41.5566530" lon="2.1161760">
        <ele>144.9</ele>
        <time>2022-09-26T12:42:20Z</time>
      </trkpt>
      <trkpt lat="41.5566330" lon="2.1162050">
        <ele>145.0</ele>
        <time>2022-09-26T12:42:21Z</time>
      </trkpt>
      <trkpt lat="41.5566090" lon="2.1162380">
        <ele>145.1</ele>
        <time>2022-09-26T12:42:22Z</time>
      </trkpt>
      <trkpt lat="41.5565830" lon="2.1162710">
        <ele>145.2</ele>
        <time>2022-09-26T12:42:23Z</time>
      </trkpt>
      <trkpt lat="41.5565620" lon="2.1162980">
        <ele>145.3</ele>
        <time>2022-09-26T12:42:24Z</time>
      </trkpt>
      <trkpt lat="41.5565410" lon="2.1163240">
        <ele>145.4</ele>
        <time>2022-09-26T12:42:25Z</time>
      </trkpt>
      <trkpt lat="41.5565170" lon="2.1163550">
        <ele>145.5</ele>
        <time>2022-09-26T12:42:26Z</time>
      </trkpt>
      <trkpt lat="41.5565210" lon="2.1163620">
        <ele>145.5</ele>
        <time>2022-09-26T12:42:27Z</time>
      </trkpt>
      <trkpt lat="41.5564910" lon="2.1164030">
        <ele>145.6</ele>
        <time>2022-09-26T12:42:29Z</time>
      </trkpt>
      <trkpt lat="41.5564470" lon="2.1164420">
        <ele>145.8</ele>
        <time>2022-09-26T12:42:30Z</time>
      </trkpt>
      <trkpt lat="41.5564180" lon="2.1164670">
        <ele>145.9</ele>
        <time>2022-09-26T12:42:31Z</time>
      </trkpt>
      <trkpt lat="41.5563900" lon="2.1164880">
        <ele>146.0</ele>
        <time>2022-09-26T12:42:32Z</time>
      </trkpt>
      <trkpt lat="41.5563700" lon="2.1165120">
        <ele>146.6</ele>
        <time>2022-09-26T12:42:33Z</time>
      </trkpt>
      <trkpt lat="41.5563690" lon="2.1165140">
        <ele>146.6</ele>
        <time>2022-09-26T12:42:34Z</time>
      </trkpt>
      <trkpt lat="41.5563730" lon="2.1165090">
        <ele>146.6</ele>
        <time>2022-09-26T12:42:35Z</time>
      </trkpt>
      <trkpt lat="41.5563760" lon="2.1165040">
        <ele>146.6</ele>
        <time>2022-09-26T12:42:36Z</time>
      </trkpt>
      <trkpt lat="41.5563800" lon="2.1164980">
        <ele>146.6</ele>
        <time>2022-09-26T12:42:37Z</time>
      </trkpt>
      <trkpt lat="41.5563840" lon="2.1164930">
        <ele>146.7</ele>
        <time>2022-09-26T12:42:38Z</time>
      </trkpt>
      <trkpt lat="41.5563870" lon="2.1164880">
        <ele>146.7</ele>
        <time>2022-09-26T12:42:39Z</time>
      </trkpt>
      <trkpt lat="41.5563910" lon="2.1164820">
        <ele>146.7</ele>
        <time>2022-09-26T12:42:40Z</time>
      </trkpt>
      <trkpt lat="41.5563950" lon="2.1164770">
        <ele>146.7</ele>
        <time>2022-09-26T12:42:41Z</time>
      </trkpt>
      <trkpt lat="41.5563980" lon="2.1164720">
        <ele>146.7</ele>
        <time>2022-09-26T12:42:42Z</time>
      </trkpt>
      <trkpt lat="41.5564020" lon="2.1164660">
        <ele>146.8</ele>
        <time>2022-09-26T12:42:44Z</time>
      </trkpt>
      <trkpt lat="41.5564060" lon="2.1164610">
        <ele>146.8</ele>
        <time>2022-09-26T12:42:45Z</time>
      </trkpt>
      <trkpt lat="41.5564090" lon="2.1164560">
        <ele>146.8</ele>
        <time>2022-09-26T12:42:46Z</time>
      </trkpt>
      <trkpt lat="41.5564130" lon="2.1164510">
        <ele>146.8</ele>
        <time>2022-09-26T12:42:48Z</time>
      </trkpt>
      <trkpt lat="41.5564170" lon="2.1164450">
        <ele>146.9</ele>
        <time>2022-09-26T12:43:15Z</time>
      </trkpt>
      <trkpt lat="41.5564200" lon="2.1164400">
        <ele>146.9</ele>
        <time>2022-09-26T12:43:17Z</time>
      </trkpt>
      <trkpt lat="41.5564240" lon="2.1164350">
        <ele>146.9</ele>
        <time>2022-09-26T12:43:18Z</time>
      </trkpt>
      <trkpt lat="41.5564450" lon="2.1163890">
        <ele>147.0</ele>
        <time>2022-09-26T12:43:19Z</time>
      </trkpt>
      <trkpt lat="41.5564540" lon="2.1163720">
        <ele>147.1</ele>
        <time>2022-09-26T12:43:20Z</time>
      </trkpt>
      <trkpt lat="41.5564760" lon="2.1163390">
        <ele>147.2</ele>
        <time>2022-09-26T12:43:22Z</time>
      </trkpt>
      <trkpt lat="41.5564970" lon="2.1163030">
        <ele>147.4</ele>
        <time>2022-09-26T12:43:23Z</time>
      </trkpt>
      <trkpt lat="41.5565120" lon="2.1162680">
        <ele>147.6</ele>
        <time>2022-09-26T12:43:24Z</time>
      </trkpt>
      <trkpt lat="41.5565330" lon="2.1162260">
        <ele>147.8</ele>
        <time>2022-09-26T12:43:25Z</time>
      </trkpt>
      <trkpt lat="41.5565400" lon="2.1162110">
        <ele>147.9</ele>
        <time>2022-09-26T12:43:26Z</time>
      </trkpt>
      <trkpt lat="41.5565590" lon="2.1161670">
        <ele>148.1</ele>
        <time>2022-09-26T12:43:28Z</time>
      </trkpt>
      <trkpt lat="41.5565770" lon="2.1161210">
        <ele>148.5</ele>
        <time>2022-09-26T12:43:29Z</time>
      </trkpt>
      <trkpt lat="41.5565890" lon="2.1160820">
        <ele>148.8</ele>
        <time>2022-09-26T12:43:30Z</time>
      </trkpt>
      <trkpt lat="41.5565950" lon="2.1160470">
        <ele>149.0</ele>
        <time>2022-09-26T12:43:31Z</time>
      </trkpt>
      <trkpt lat="41.5565850" lon="2.1159880">
        <ele>149.5</ele>
        <time>2022-09-26T12:43:33Z</time>
      </trkpt>
      <trkpt lat="41.5565750" lon="2.1159530">
        <ele>149.9</ele>
        <time>2022-09-26T12:43:34Z</time>
      </trkpt>
      <trkpt lat="41.5565680" lon="2.1159220">
        <ele>150.2</ele>
        <time>2022-09-26T12:43:35Z</time>
      </trkpt>
      <trkpt lat="41.5565650" lon="2.1159000">
        <ele>150.5</ele>
        <time>2022-09-26T12:43:37Z</time>
      </trkpt>
      <trkpt lat="41.5565620" lon="2.1158550">
        <ele>150.9</ele>
        <time>2022-09-26T12:43:38Z</time>
      </trkpt>
      <trkpt lat="41.5565590" lon="2.1158380">
        <ele>151.1</ele>
        <time>2022-09-26T12:43:39Z</time>
      </trkpt>
      <trkpt lat="41.5565370" lon="2.1158130">
        <ele>151.5</ele>
        <time>2022-09-26T12:43:40Z</time>
      </trkpt>
      <trkpt lat="41.5565230" lon="2.1158070">
        <ele>151.8</ele>
        <time>2022-09-26T12:43:42Z</time>
      </trkpt>
      <trkpt lat="41.5565100" lon="2.1158010">
        <ele>152.0</ele>
        <time>2022-09-26T12:43:43Z</time>
      </trkpt>
      <trkpt lat="41.5564970" lon="2.1157950">
        <ele>152.2</ele>
        <time>2022-09-26T12:43:44Z</time>
      </trkpt>
      <trkpt lat="41.5564820" lon="2.1157860">
        <ele>152.4</ele>
        <time>2022-09-26T12:43:45Z</time>
      </trkpt>
      <trkpt lat="41.5564680" lon="2.1157810">
        <ele>152.7</ele>
        <time>2022-09-26T12:43:46Z</time>
      </trkpt>
      <trkpt lat="41.5564500" lon="2.1157780">
        <ele>153.0</ele>
        <time>2022-09-26T12:43:48Z</time>
      </trkpt>
      <trkpt lat="41.5564350" lon="2.1157750">
        <ele>153.2</ele>
        <time>2022-09-26T12:43:49Z</time>
      </trkpt>
      <trkpt lat="41.5564070" lon="2.1157740">
        <ele>153.6</ele>
        <time>2022-09-26T12:43:50Z</time>
      </trkpt>
      <trkpt lat="41.5563970" lon="2.1157750">
        <ele>153.8</ele>
        <time>2022-09-26T12:43:51Z</time>
      </trkpt>
      <trkpt lat="41.5563690" lon="2.1157770">
        <ele>154.2</ele>
        <time>2022-09-26T12:43:52Z</time>
      </trkpt>
      <trkpt lat="41.5563550" lon="2.1157780">
        <ele>154.4</ele>
        <time>2022-09-26T12:43:54Z</time>
      </trkpt>
      <trkpt lat="41.5563400" lon="2.1157790">
        <ele>154.7</ele>
        <time>2022-09-26T12:43:55Z</time>
      </trkpt>
      <trkpt lat="41.5563260" lon="2.1157790">
        <ele>154.9</ele>
        <time>2022-09-26T12:43:56Z</time>
      </trkpt>
      <trkpt lat="41.5563070" lon="2.1157730">
        <ele>155.1</ele>
        <time>2022-09-26T12:43:57Z</time>
      </trkpt>
      <trkpt lat="41.5562890" lon="2.1157590">
        <ele>155.5</ele>
        <time>2022-09-26T12:43:59Z</time>
      </trkpt>
      <trkpt lat="41.5562650" lon="2.1157340">
        <ele>155.9</ele>
        <time>2022-09-26T12:44:00Z</time>
      </trkpt>
      <trkpt lat="41.5562580" lon="2.1157290">
        <ele>156.0</ele>
        <time>2022-09-26T12:44:01Z</time>
      </trkpt>
      <trkpt lat="41.5562430" lon="2.1157190">
        <ele>156.3</ele>
        <time>2022-09-26T12:44:02Z</time>
      </trkpt>
      <trkpt lat="41.5562320" lon="2.1157130">
        <ele>156.4</ele>
        <time>2022-09-26T12:44:03Z</time>
      </trkpt>
      <trkpt lat="41.5562100" lon="2.1156960">
        <ele>156.8</ele>
        <time>2022-09-26T12:44:04Z</time>
      </trkpt>
      <trkpt lat="41.5562000" lon="2.1156900">
        <ele>156.9</ele>
        <time>2022-09-26T12:44:05Z</time>
      </trkpt>
      <trkpt lat="41.5561850" lon="2.1156830">
        <ele>157.1</ele>
        <time>2022-09-26T12:44:07Z</time>
      </trkpt>
      <trkpt lat="41.5561710" lon="2.1156720">
        <ele>157.4</ele>
        <time>2022-09-26T12:44:08Z</time>
      </trkpt>
      <trkpt lat="41.5561570" lon="2.1156610">
        <ele>157.6</ele>
        <time>2022-09-26T12:44:09Z</time>
      </trkpt>
      <trkpt lat="41.5561430" lon="2.1156490">
        <ele>157.8</ele>
        <time>2022-09-26T12:44:10Z</time>
      </trkpt>
      <trkpt lat="41.5561300" lon="2.1156410">
        <ele>158.0</ele>
        <time>2022-09-26T12:44:11Z</time>
      </trkpt>
      <trkpt lat="41.5561090" lon="2.1156290">
        <ele>158.3</ele>
        <time>2022-09-26T12:44:13Z</time>
      </trkpt>
      <trkpt lat="41.5560930" lon="2.1156200">
        <ele>158.6</ele>
        <time>2022-09-26T12:44:14Z</time>
      </trkpt>
      <trkpt lat="41.5560790" lon="2.1156100">
        <ele>158.8</ele>
        <time>2022-09-26T12:44:16Z</time>
      </trkpt>
      <trkpt lat="41.5560610" lon="2.1155980">
        <ele>159.1</ele>
        <time>2022-09-26T12:44:17Z</time>
      </trkpt>
      <trkpt lat="41.5560500" lon="2.1155930">
        <ele>159.2</ele>
        <time>2022-09-26T12:44:18Z</time>
      </trkpt>
      <trkpt lat="41.5560390" lon="2.1155860">
        <ele>159.4</ele>
        <time>2022-09-26T12:44:19Z</time>
      </trkpt>
      <trkpt lat="41.5560280" lon="2.1155780">
        <ele>159.5</ele>
        <time>2022-09-26T12:44:20Z</time>
      </trkpt>
      <trkpt lat="41.5560140" lon="2.1155720">
        <ele>159.7</ele>
        <time>2022-09-26T12:44:22Z</time>
      </trkpt>
      <trkpt lat="41.5560010" lon="2.1155700">
        <ele>159.9</ele>
        <time>2022-09-26T12:44:23Z</time>
      </trkpt>
      <trkpt lat="41.5559790" lon="2.1155690">
        <ele>160.2</ele>
        <time>2022-09-26T12:44:24Z</time>
      </trkpt>
      <trkpt lat="41.5559670" lon="2.1155700">
        <ele>160.3</ele>
        <time>2022-09-26T12:44:25Z</time>
      </trkpt>
      <trkpt lat="41.5559550" lon="2.1155660">
        <ele>160.5</ele>
        <time>2022-09-26T12:44:27Z</time>
      </trkpt>
      <trkpt lat="41.5559440" lon="2.1155620">
        <ele>160.6</ele>
        <time>2022-09-26T12:44:28Z</time>
      </trkpt>
      <trkpt lat="41.5559280" lon="2.1155530">
        <ele>160.8</ele>
        <time>2022-09-26T12:44:29Z</time>
      </trkpt>
      <trkpt lat="41.5559160" lon="2.1155460">
        <ele>161.0</ele>
        <time>2022-09-26T12:44:30Z</time>
      </trkpt>
      <trkpt lat="41.5558920" lon="2.1155440">
        <ele>161.3</ele>
        <time>2022-09-26T12:44:31Z</time>
      </trkpt>
      <trkpt lat="41.5558820" lon="2.1155450">
        <ele>161.4</ele>
        <time>2022-09-26T12:44:32Z</time>
      </trkpt>
      <trkpt lat="41.5558730" lon="2.1155460">
        <ele>161.5</ele>
        <time>2022-09-26T12:44:33Z</time>
      </trkpt>
      <trkpt lat="41.5558580" lon="2.1155480">
        <ele>161.7</ele>
        <time>2022-09-26T12:44:34Z</time>
      </trkpt>
      <trkpt lat="41.5558450" lon="2.1155440">
        <ele>161.8</ele>
        <time>2022-09-26T12:44:35Z</time>
      </trkpt>
      <trkpt lat="41.5558190" lon="2.1155280">
        <ele>162.1</ele>
        <time>2022-09-26T12:44:37Z</time>
      </trkpt>
      <trkpt lat="41.5558080" lon="2.1155230">
        <ele>162.3</ele>
        <time>2022-09-26T12:44:38Z</time>
      </trkpt>
      <trkpt lat="41.5557850" lon="2.1155270">
        <ele>162.5</ele>
        <time>2022-09-26T12:44:40Z</time>
      </trkpt>
      <trkpt lat="41.5557740" lon="2.1155320">
        <ele>162.7</ele>
        <time>2022-09-26T12:44:41Z</time>
      </trkpt>
      <trkpt lat="41.5557540" lon="2.1155370">
        <ele>162.9</ele>
        <time>2022-09-26T12:44:43Z</time>
      </trkpt>
      <trkpt lat="41.5557420" lon="2.1155390">
        <ele>163.0</ele>
        <time>2022-09-26T12:44:44Z</time>
      </trkpt>
      <trkpt lat="41.5557240" lon="2.1155440">
        <ele>163.2</ele>
        <time>2022-09-26T12:44:45Z</time>
      </trkpt>
      <trkpt lat="41.5557140" lon="2.1155480">
        <ele>163.3</ele>
        <time>2022-09-26T12:44:46Z</time>
      </trkpt>
      <trkpt lat="41.5557010" lon="2.1155590">
        <ele>163.4</ele>
        <time>2022-09-26T12:44:48Z</time>
      </trkpt>
      <trkpt lat="41.5556920" lon="2.1155640">
        <ele>163.5</ele>
        <time>2022-09-26T12:44:49Z</time>
      </trkpt>
      <trkpt lat="41.5556830" lon="2.1155690">
        <ele>163.6</ele>
        <time>2022-09-26T12:44:50Z</time>
      </trkpt>
      <trkpt lat="41.5556730" lon="2.1155730">
        <ele>163.7</ele>
        <time>2022-09-26T12:44:51Z</time>
      </trkpt>
      <trkpt lat="41.5556490" lon="2.1155920">
        <ele>164.0</ele>
        <time>2022-09-26T12:44:52Z</time>
      </trkpt>
      <trkpt lat="41.5556240" lon="2.1156150">
        <ele>164.2</ele>
        <time>2022-09-26T12:44:53Z</time>
      </trkpt>
      <trkpt lat="41.5556170" lon="2.1156230">
        <ele>164.3</ele>
        <time>2022-09-26T12:44:54Z</time>
      </trkpt>
      <trkpt lat="41.5555990" lon="2.1156520">
        <ele>164.5</ele>
        <time>2022-09-26T12:44:55Z</time>
      </trkpt>
      <trkpt lat="41.5555920" lon="2.1156630">
        <ele>164.6</ele>
        <time>2022-09-26T12:44:56Z</time>
      </trkpt>
      <trkpt lat="41.5555740" lon="2.1156960">
        <ele>164.7</ele>
        <time>2022-09-26T12:44:57Z</time>
      </trkpt>
      <trkpt lat="41.5555680" lon="2.1157060">
        <ele>164.7</ele>
        <time>2022-09-26T12:44:58Z</time>
      </trkpt>
      <trkpt lat="41.5555500" lon="2.1157400">
        <ele>164.6</ele>
        <time>2022-09-26T12:44:59Z</time>
      </trkpt>
      <trkpt lat="41.5555440" lon="2.1157500">
        <ele>164.6</ele>
        <time>2022-09-26T12:45:00Z</time>
      </trkpt>
      <trkpt lat="41.5555240" lon="2.1157860">
        <ele>164.5</ele>
        <time>2022-09-26T12:45:01Z</time>
      </trkpt>
      <trkpt lat="41.5555170" lon="2.1157980">
        <ele>164.4</ele>
        <time>2022-09-26T12:45:02Z</time>
      </trkpt>
      <trkpt lat="41.5555030" lon="2.1158210">
        <ele>164.4</ele>
        <time>2022-09-26T12:45:03Z</time>
      </trkpt>
      <trkpt lat="41.5554960" lon="2.1158350">
        <ele>164.3</ele>
        <time>2022-09-26T12:45:04Z</time>
      </trkpt>
      <trkpt lat="41.5554810" lon="2.1158670">
        <ele>164.3</ele>
        <time>2022-09-26T12:45:05Z</time>
      </trkpt>
      <trkpt lat="41.5554760" lon="2.1158780">
        <ele>164.3</ele>
        <time>2022-09-26T12:45:06Z</time>
      </trkpt>
      <trkpt lat="41.5554580" lon="2.1159090">
        <ele>164.2</ele>
        <time>2022-09-26T12:45:07Z</time>
      </trkpt>
      <trkpt lat="41.5554520" lon="2.1159190">
        <ele>164.2</ele>
        <time>2022-09-26T12:45:08Z</time>
      </trkpt>
      <trkpt lat="41.5554180" lon="2.1159570">
        <ele>163.8</ele>
        <time>2022-09-26T12:45:10Z</time>
      </trkpt>
      <trkpt lat="41.5554030" lon="2.1159600">
        <ele>163.9</ele>
        <time>2022-09-26T12:45:12Z</time>
      </trkpt>
      <trkpt lat="41.5553880" lon="2.1159640">
        <ele>164.0</ele>
        <time>2022-09-26T12:45:13Z</time>
      </trkpt>
      <trkpt lat="41.5553780" lon="2.1159250">
        <ele>164.2</ele>
        <time>2022-09-26T12:45:15Z</time>
      </trkpt>
      <trkpt lat="41.5553670" lon="2.1159110">
        <ele>164.2</ele>
        <time>2022-09-26T12:45:16Z</time>
      </trkpt>
      <trkpt lat="41.5553540" lon="2.1159040">
        <ele>164.3</ele>
        <time>2022-09-26T12:45:17Z</time>
      </trkpt>
      <trkpt lat="41.5553430" lon="2.1158930">
        <ele>164.4</ele>
        <time>2022-09-26T12:45:18Z</time>
      </trkpt>
      <trkpt lat="41.5553280" lon="2.1158820">
        <ele>164.5</ele>
        <time>2022-09-26T12:45:19Z</time>
      </trkpt>
      <trkpt lat="41.5553120" lon="2.1158690">
        <ele>164.6</ele>
        <time>2022-09-26T12:45:20Z</time>
      </trkpt>
      <trkpt lat="41.5552930" lon="2.1158580">
        <ele>164.7</ele>
        <time>2022-09-26T12:45:22Z</time>
      </trkpt>
      <trkpt lat="41.5552590" lon="2.1158380">
        <ele>164.9</ele>
        <time>2022-09-26T12:45:23Z</time>
      </trkpt>
      <trkpt lat="41.5552480" lon="2.1158320">
        <ele>165.0</ele>
        <time>2022-09-26T12:45:24Z</time>
      </trkpt>
      <trkpt lat="41.5552300" lon="2.1158290">
        <ele>165.1</ele>
        <time>2022-09-26T12:45:25Z</time>
      </trkpt>
      <trkpt lat="41.5552170" lon="2.1158210">
        <ele>165.2</ele>
        <time>2022-09-26T12:45:26Z</time>
      </trkpt>
      <trkpt lat="41.5551940" lon="2.1157990">
        <ele>165.4</ele>
        <time>2022-09-26T12:45:28Z</time>
      </trkpt>
      <trkpt lat="41.5551770" lon="2.1157760">
        <ele>165.5</ele>
        <time>2022-09-26T12:45:29Z</time>
      </trkpt>
      <trkpt lat="41.5551510" lon="2.1157580">
        <ele>165.7</ele>
        <time>2022-09-26T12:45:31Z</time>
      </trkpt>
      <trkpt lat="41.5551330" lon="2.1157440">
        <ele>165.8</ele>
        <time>2022-09-26T12:45:32Z</time>
      </trkpt>
      <trkpt lat="41.5551190" lon="2.1157370">
        <ele>165.9</ele>
        <time>2022-09-26T12:45:33Z</time>
      </trkpt>
      <trkpt lat="41.5550860" lon="2.1157110">
        <ele>166.2</ele>
        <time>2022-09-26T12:45:34Z</time>
      </trkpt>
      <trkpt lat="41.5550750" lon="2.1157030">
        <ele>166.2</ele>
        <time>2022-09-26T12:45:35Z</time>
      </trkpt>
      <trkpt lat="41.5550530" lon="2.1156860">
        <ele>166.4</ele>
        <time>2022-09-26T12:45:36Z</time>
      </trkpt>
      <trkpt lat="41.5550250" lon="2.1156570">
        <ele>166.6</ele>
        <time>2022-09-26T12:45:38Z</time>
      </trkpt>
      <trkpt lat="41.5549990" lon="2.1156350">
        <ele>166.8</ele>
        <time>2022-09-26T12:45:39Z</time>
      </trkpt>
      <trkpt lat="41.5549880" lon="2.1156270">
        <ele>166.9</ele>
        <time>2022-09-26T12:45:40Z</time>
      </trkpt>
      <trkpt lat="41.5549540" lon="2.1155930">
        <ele>167.2</ele>
        <time>2022-09-26T12:45:42Z</time>
      </trkpt>
      <trkpt lat="41.5549390" lon="2.1155780">
        <ele>167.3</ele>
        <time>2022-09-26T12:45:43Z</time>
      </trkpt>
      <trkpt lat="41.5549090" lon="2.1155460">
        <ele>167.5</ele>
        <time>2022-09-26T12:45:44Z</time>
      </trkpt>
      <trkpt lat="41.5548980" lon="2.1155350">
        <ele>167.6</ele>
        <time>2022-09-26T12:45:45Z</time>
      </trkpt>
      <trkpt lat="41.5548730" lon="2.1155190">
        <ele>167.8</ele>
        <time>2022-09-26T12:45:46Z</time>
      </trkpt>
      <trkpt lat="41.5548650" lon="2.1155130">
        <ele>167.9</ele>
        <time>2022-09-26T12:45:47Z</time>
      </trkpt>
      <trkpt lat="41.5548310" lon="2.1154780">
        <ele>168.1</ele>
        <time>2022-09-26T12:45:49Z</time>
      </trkpt>
      <trkpt lat="41.5548190" lon="2.1154660">
        <ele>168.2</ele>
        <time>2022-09-26T12:45:50Z</time>
      </trkpt>
      <trkpt lat="41.5548060" lon="2.1154550">
        <ele>168.3</ele>
        <time>2022-09-26T12:45:51Z</time>
      </trkpt>
      <trkpt lat="41.5547840" lon="2.1154350">
        <ele>168.5</ele>
        <time>2022-09-26T12:45:52Z</time>
      </trkpt>
      <trkpt lat="41.5547610" lon="2.1154180">
        <ele>168.7</ele>
        <time>2022-09-26T12:45:54Z</time>
      </trkpt>
      <trkpt lat="41.5547290" lon="2.1153940">
        <ele>168.9</ele>
        <time>2022-09-26T12:45:55Z</time>
      </trkpt>
      <trkpt lat="41.5547180" lon="2.1153870">
        <ele>169.0</ele>
        <time>2022-09-26T12:45:56Z</time>
      </trkpt>
      <trkpt lat="41.5546840" lon="2.1153630">
        <ele>169.2</ele>
        <time>2022-09-26T12:45:57Z</time>
      </trkpt>
      <trkpt lat="41.5546710" lon="2.1153550">
        <ele>169.3</ele>
        <time>2022-09-26T12:45:58Z</time>
      </trkpt>
      <trkpt lat="41.5546400" lon="2.1153390">
        <ele>169.5</ele>
        <time>2022-09-26T12:45:59Z</time>
      </trkpt>
      <trkpt lat="41.5546310" lon="2.1153340">
        <ele>169.6</ele>
        <time>2022-09-26T12:46:00Z</time>
      </trkpt>
      <trkpt lat="41.5546030" lon="2.1153140">
        <ele>169.8</ele>
        <time>2022-09-26T12:46:01Z</time>
      </trkpt>
      <trkpt lat="41.5545940" lon="2.1153060">
        <ele>169.8</ele>
        <time>2022-09-26T12:46:02Z</time>
      </trkpt>
      <trkpt lat="41.5545780" lon="2.1152930">
        <ele>169.9</ele>
        <time>2022-09-26T12:46:03Z</time>
      </trkpt>
      <trkpt lat="41.5545530" lon="2.1152810">
        <ele>170.1</ele>
        <time>2022-09-26T12:46:05Z</time>
      </trkpt>
      <trkpt lat="41.5545240" lon="2.1152560">
        <ele>170.3</ele>
        <time>2022-09-26T12:46:06Z</time>
      </trkpt>
      <trkpt lat="41.5545150" lon="2.1152470">
        <ele>170.4</ele>
        <time>2022-09-26T12:46:07Z</time>
      </trkpt>
      <trkpt lat="41.5544920" lon="2.1152290">
        <ele>170.5</ele>
        <time>2022-09-26T12:46:08Z</time>
      </trkpt>
      <trkpt lat="41.5544600" lon="2.1152010">
        <ele>170.7</ele>
        <time>2022-09-26T12:46:10Z</time>
      </trkpt>
      <trkpt lat="41.5544270" lon="2.1151750">
        <ele>170.9</ele>
        <time>2022-09-26T12:46:11Z</time>
      </trkpt>
      <trkpt lat="41.5544180" lon="2.1151660">
        <ele>171.0</ele>
        <time>2022-09-26T12:46:12Z</time>
      </trkpt>
      <trkpt lat="41.5543940" lon="2.1151400">
        <ele>171.2</ele>
        <time>2022-09-26T12:46:13Z</time>
      </trkpt>
      <trkpt lat="41.5543800" lon="2.1151230">
        <ele>171.3</ele>
        <time>2022-09-26T12:46:14Z</time>
      </trkpt>
      <trkpt lat="41.5543530" lon="2.1150990">
        <ele>171.5</ele>
        <time>2022-09-26T12:46:16Z</time>
      </trkpt>
      <trkpt lat="41.5543390" lon="2.1150890">
        <ele>171.6</ele>
        <time>2022-09-26T12:46:17Z</time>
      </trkpt>
      <trkpt lat="41.5543160" lon="2.1150660">
        <ele>171.8</ele>
        <time>2022-09-26T12:46:19Z</time>
      </trkpt>
      <trkpt lat="41.5542870" lon="2.1150400">
        <ele>172.1</ele>
        <time>2022-09-26T12:46:20Z</time>
      </trkpt>
      <trkpt lat="41.5542760" lon="2.1150330">
        <ele>172.2</ele>
        <time>2022-09-26T12:46:21Z</time>
      </trkpt>
      <trkpt lat="41.5542410" lon="2.1150270">
        <ele>172.4</ele>
        <time>2022-09-26T12:46:22Z</time>
      </trkpt>
      <trkpt lat="41.5542280" lon="2.1150290">
        <ele>172.5</ele>
        <time>2022-09-26T12:46:23Z</time>
      </trkpt>
      <trkpt lat="41.5542000" lon="2.1150360">
        <ele>172.7</ele>
        <time>2022-09-26T12:46:24Z</time>
      </trkpt>
      <trkpt lat="41.5541720" lon="2.1150470">
        <ele>172.9</ele>
        <time>2022-09-26T12:46:25Z</time>
      </trkpt>
      <trkpt lat="41.5541460" lon="2.1150530">
        <ele>173.0</ele>
        <time>2022-09-26T12:46:26Z</time>
      </trkpt>
      <trkpt lat="41.5541100" lon="2.1150620">
        <ele>173.3</ele>
        <time>2022-09-26T12:46:27Z</time>
      </trkpt>
      <trkpt lat="41.5540970" lon="2.1150670">
        <ele>173.4</ele>
        <time>2022-09-26T12:46:28Z</time>
      </trkpt>
      <trkpt lat="41.5540600" lon="2.1150800">
        <ele>173.6</ele>
        <time>2022-09-26T12:46:29Z</time>
      </trkpt>
      <trkpt lat="41.5540480" lon="2.1150840">
        <ele>173.7</ele>
        <time>2022-09-26T12:46:30Z</time>
      </trkpt>
      <trkpt lat="41.5540130" lon="2.1150970">
        <ele>174.0</ele>
        <time>2022-09-26T12:46:31Z</time>
      </trkpt>
      <trkpt lat="41.5540040" lon="2.1151020">
        <ele>174.0</ele>
        <time>2022-09-26T12:46:32Z</time>
      </trkpt>
      <trkpt lat="41.5539730" lon="2.1151190">
        <ele>174.2</ele>
        <time>2022-09-26T12:46:34Z</time>
      </trkpt>
      <trkpt lat="41.5539460" lon="2.1151370">
        <ele>174.4</ele>
        <time>2022-09-26T12:46:35Z</time>
      </trkpt>
      <trkpt lat="41.5539190" lon="2.1151630">
        <ele>174.7</ele>
        <time>2022-09-26T12:46:36Z</time>
      </trkpt>
      <trkpt lat="41.5538990" lon="2.1151870">
        <ele>174.8</ele>
        <time>2022-09-26T12:46:37Z</time>
      </trkpt>
      <trkpt lat="41.5538780" lon="2.1152120">
        <ele>175.0</ele>
        <time>2022-09-26T12:46:38Z</time>
      </trkpt>
      <trkpt lat="41.5538550" lon="2.1152390">
        <ele>175.2</ele>
        <time>2022-09-26T12:46:39Z</time>
      </trkpt>
      <trkpt lat="41.5538490" lon="2.1152480">
        <ele>175.3</ele>
        <time>2022-09-26T12:46:40Z</time>
      </trkpt>
      <trkpt lat="41.5538190" lon="2.1152870">
        <ele>175.6</ele>
        <time>2022-09-26T12:46:42Z</time>
      </trkpt>
      <trkpt lat="41.5537990" lon="2.1153120">
        <ele>175.8</ele>
        <time>2022-09-26T12:46:43Z</time>
      </trkpt>
      <trkpt lat="41.5537760" lon="2.1153360">
        <ele>176.0</ele>
        <time>2022-09-26T12:46:44Z</time>
      </trkpt>
      <trkpt lat="41.5537530" lon="2.1153590">
        <ele>176.2</ele>
        <time>2022-09-26T12:46:45Z</time>
      </trkpt>
      <trkpt lat="41.5537290" lon="2.1153950">
        <ele>176.5</ele>
        <time>2022-09-26T12:46:46Z</time>
      </trkpt>
      <trkpt lat="41.5537210" lon="2.1154080">
        <ele>176.6</ele>
        <time>2022-09-26T12:46:47Z</time>
      </trkpt>
      <trkpt lat="41.5537000" lon="2.1154390">
        <ele>176.8</ele>
        <time>2022-09-26T12:46:48Z</time>
      </trkpt>
      <trkpt lat="41.5536910" lon="2.1154520">
        <ele>176.9</ele>
        <time>2022-09-26T12:46:49Z</time>
      </trkpt>
      <trkpt lat="41.5536670" lon="2.1154830">
        <ele>177.1</ele>
        <time>2022-09-26T12:46:50Z</time>
      </trkpt>
      <trkpt lat="41.5536610" lon="2.1154930">
        <ele>177.2</ele>
        <time>2022-09-26T12:46:51Z</time>
      </trkpt>
      <trkpt lat="41.5536390" lon="2.1155290">
        <ele>177.5</ele>
        <time>2022-09-26T12:46:52Z</time>
      </trkpt>
      <trkpt lat="41.5536330" lon="2.1155360">
        <ele>177.5</ele>
        <time>2022-09-26T12:46:53Z</time>
      </trkpt>
      <trkpt lat="41.5536150" lon="2.1155650">
        <ele>177.7</ele>
        <time>2022-09-26T12:46:54Z</time>
      </trkpt>
      <trkpt lat="41.5536100" lon="2.1155750">
        <ele>177.8</ele>
        <time>2022-09-26T12:46:55Z</time>
      </trkpt>
      <trkpt lat="41.5535800" lon="2.1156200">
        <ele>178.2</ele>
        <time>2022-09-26T12:46:57Z</time>
      </trkpt>
      <trkpt lat="41.5535690" lon="2.1156340">
        <ele>178.3</ele>
        <time>2022-09-26T12:46:58Z</time>
      </trkpt>
      <trkpt lat="41.5535570" lon="2.1156480">
        <ele>178.4</ele>
        <time>2022-09-26T12:46:59Z</time>
      </trkpt>
      <trkpt lat="41.5535330" lon="2.1156760">
        <ele>178.7</ele>
        <time>2022-09-26T12:47:00Z</time>
      </trkpt>
      <trkpt lat="41.5535250" lon="2.1156890">
        <ele>178.8</ele>
        <time>2022-09-26T12:47:01Z</time>
      </trkpt>
      <trkpt lat="41.5534980" lon="2.1157190">
        <ele>179.1</ele>
        <time>2022-09-26T12:47:02Z</time>
      </trkpt>
      <trkpt lat="41.5534880" lon="2.1157300">
        <ele>179.2</ele>
        <time>2022-09-26T12:47:03Z</time>
      </trkpt>
      <trkpt lat="41.5534610" lon="2.1157470">
        <ele>179.4</ele>
        <time>2022-09-26T12:47:05Z</time>
      </trkpt>
      <trkpt lat="41.5534300" lon="2.1157670">
        <ele>179.7</ele>
        <time>2022-09-26T12:47:06Z</time>
      </trkpt>
      <trkpt lat="41.5533930" lon="2.1157620">
        <ele>180.0</ele>
        <time>2022-09-26T12:47:07Z</time>
      </trkpt>
      <trkpt lat="41.5533820" lon="2.1157530">
        <ele>180.1</ele>
        <time>2022-09-26T12:47:08Z</time>
      </trkpt>
      <trkpt lat="41.5533580" lon="2.1157330">
        <ele>180.4</ele>
        <time>2022-09-26T12:47:09Z</time>
      </trkpt>
      <trkpt lat="41.5533490" lon="2.1157260">
        <ele>180.5</ele>
        <time>2022-09-26T12:47:10Z</time>
      </trkpt>
      <trkpt lat="41.5533310" lon="2.1156970">
        <ele>180.7</ele>
        <time>2022-09-26T12:47:11Z</time>
      </trkpt>
      <trkpt lat="41.5533250" lon="2.1156870">
        <ele>180.8</ele>
        <time>2022-09-26T12:47:12Z</time>
      </trkpt>
      <trkpt lat="41.5533160" lon="2.1156500">
        <ele>181.0</ele>
        <time>2022-09-26T12:47:13Z</time>
      </trkpt>
      <trkpt lat="41.5533130" lon="2.1156370">
        <ele>181.1</ele>
        <time>2022-09-26T12:47:14Z</time>
      </trkpt>
      <trkpt lat="41.5533130" lon="2.1155910">
        <ele>181.4</ele>
        <time>2022-09-26T12:47:16Z</time>
      </trkpt>
      <trkpt lat="41.5533120" lon="2.1155740">
        <ele>181.5</ele>
        <time>2022-09-26T12:47:17Z</time>
      </trkpt>
      <trkpt lat="41.5533130" lon="2.1155320">
        <ele>181.8</ele>
        <time>2022-09-26T12:47:18Z</time>
      </trkpt>
      <trkpt lat="41.5533200" lon="2.1155000">
        <ele>182.0</ele>
        <time>2022-09-26T12:47:19Z</time>
      </trkpt>
      <trkpt lat="41.5533330" lon="2.1154840">
        <ele>182.1</ele>
        <time>2022-09-26T12:47:21Z</time>
      </trkpt>
      <trkpt lat="41.5533540" lon="2.1154550">
        <ele>182.3</ele>
        <time>2022-09-26T12:47:22Z</time>
      </trkpt>
      <trkpt lat="41.5533740" lon="2.1154270">
        <ele>182.5</ele>
        <time>2022-09-26T12:47:23Z</time>
      </trkpt>
      <trkpt lat="41.5533800" lon="2.1154180">
        <ele>182.6</ele>
        <time>2022-09-26T12:47:24Z</time>
      </trkpt>
      <trkpt lat="41.5533960" lon="2.1154050">
        <ele>182.7</ele>
        <time>2022-09-26T12:47:25Z</time>
      </trkpt>
      <trkpt lat="41.5534100" lon="2.1153960">
        <ele>182.8</ele>
        <time>2022-09-26T12:47:26Z</time>
      </trkpt>
      <trkpt lat="41.5534220" lon="2.1153820">
        <ele>182.9</ele>
        <time>2022-09-26T12:47:27Z</time>
      </trkpt>
      <trkpt lat="41.5534360" lon="2.1153660">
        <ele>183.0</ele>
        <time>2022-09-26T12:47:28Z</time>
      </trkpt>
      <trkpt lat="41.5534580" lon="2.1153400">
        <ele>183.2</ele>
        <time>2022-09-26T12:47:29Z</time>
      </trkpt>
      <trkpt lat="41.5534660" lon="2.1153320">
        <ele>183.3</ele>
        <time>2022-09-26T12:47:30Z</time>
      </trkpt>
      <trkpt lat="41.5534820" lon="2.1153120">
        <ele>183.4</ele>
        <time>2022-09-26T12:47:31Z</time>
      </trkpt>
      <trkpt lat="41.5535010" lon="2.1152870">
        <ele>183.6</ele>
        <time>2022-09-26T12:47:33Z</time>
      </trkpt>
      <trkpt lat="41.5535200" lon="2.1152590">
        <ele>183.7</ele>
        <time>2022-09-26T12:47:34Z</time>
      </trkpt>
      <trkpt lat="41.5535280" lon="2.1152470">
        <ele>183.8</ele>
        <time>2022-09-26T12:47:35Z</time>
      </trkpt>
      <trkpt lat="41.5535490" lon="2.1152220">
        <ele>184.0</ele>
        <time>2022-09-26T12:47:36Z</time>
      </trkpt>
      <trkpt lat="41.5535580" lon="2.1152140">
        <ele>184.0</ele>
        <time>2022-09-26T12:47:37Z</time>
      </trkpt>
      <trkpt lat="41.5535700" lon="2.1152000">
        <ele>184.1</ele>
        <time>2022-09-26T12:47:38Z</time>
      </trkpt>
      <trkpt lat="41.5535830" lon="2.1151810">
        <ele>184.2</ele>
        <time>2022-09-26T12:47:39Z</time>
      </trkpt>
      <trkpt lat="41.5536050" lon="2.1151480">
        <ele>184.4</ele>
        <time>2022-09-26T12:47:40Z</time>
      </trkpt>
      <trkpt lat="41.5536130" lon="2.1151360">
        <ele>184.5</ele>
        <time>2022-09-26T12:47:41Z</time>
      </trkpt>
      <trkpt lat="41.5536390" lon="2.1151000">
        <ele>184.7</ele>
        <time>2022-09-26T12:47:42Z</time>
      </trkpt>
      <trkpt lat="41.5536480" lon="2.1150880">
        <ele>184.8</ele>
        <time>2022-09-26T12:47:43Z</time>
      </trkpt>
      <trkpt lat="41.5536710" lon="2.1150640">
        <ele>185.0</ele>
        <time>2022-09-26T12:47:45Z</time>
      </trkpt>
      <trkpt lat="41.5536980" lon="2.1150370">
        <ele>185.2</ele>
        <time>2022-09-26T12:47:46Z</time>
      </trkpt>
      <trkpt lat="41.5537230" lon="2.1150100">
        <ele>185.4</ele>
        <time>2022-09-26T12:47:47Z</time>
      </trkpt>
      <trkpt lat="41.5537320" lon="2.1149980">
        <ele>185.5</ele>
        <time>2022-09-26T12:47:48Z</time>
      </trkpt>
      <trkpt lat="41.5537530" lon="2.1149680">
        <ele>185.7</ele>
        <time>2022-09-26T12:47:49Z</time>
      </trkpt>
      <trkpt lat="41.5537600" lon="2.1149600">
        <ele>185.7</ele>
        <time>2022-09-26T12:47:50Z</time>
      </trkpt>
      <trkpt lat="41.5537810" lon="2.1149270">
        <ele>185.9</ele>
        <time>2022-09-26T12:47:51Z</time>
      </trkpt>
      <trkpt lat="41.5537880" lon="2.1149180">
        <ele>186.0</ele>
        <time>2022-09-26T12:47:52Z</time>
      </trkpt>
      <trkpt lat="41.5538110" lon="2.1148850">
        <ele>186.2</ele>
        <time>2022-09-26T12:47:53Z</time>
      </trkpt>
      <trkpt lat="41.5538190" lon="2.1148740">
        <ele>186.2</ele>
        <time>2022-09-26T12:47:54Z</time>
      </trkpt>
      <trkpt lat="41.5538360" lon="2.1148480">
        <ele>186.4</ele>
        <time>2022-09-26T12:47:55Z</time>
      </trkpt>
      <trkpt lat="41.5538430" lon="2.1148380">
        <ele>186.5</ele>
        <time>2022-09-26T12:47:56Z</time>
      </trkpt>
      <trkpt lat="41.5538710" lon="2.1148120">
        <ele>186.7</ele>
        <time>2022-09-26T12:47:57Z</time>
      </trkpt>
      <trkpt lat="41.5538800" lon="2.1148010">
        <ele>186.8</ele>
        <time>2022-09-26T12:47:58Z</time>
      </trkpt>
      <trkpt lat="41.5539040" lon="2.1147730">
        <ele>187.1</ele>
        <time>2022-09-26T12:47:59Z</time>
      </trkpt>
      <trkpt lat="41.5539090" lon="2.1147650">
        <ele>187.1</ele>
        <time>2022-09-26T12:48:00Z</time>
      </trkpt>
      <trkpt lat="41.5539440" lon="2.1147110">
        <ele>187.5</ele>
        <time>2022-09-26T12:48:02Z</time>
      </trkpt>
      <trkpt lat="41.5539570" lon="2.1146920">
        <ele>187.7</ele>
        <time>2022-09-26T12:48:03Z</time>
      </trkpt>
      <trkpt lat="41.5539700" lon="2.1146730">
        <ele>187.8</ele>
        <time>2022-09-26T12:48:04Z</time>
      </trkpt>
      <trkpt lat="41.5539870" lon="2.1146480">
        <ele>188.0</ele>
        <time>2022-09-26T12:48:05Z</time>
      </trkpt>
      <trkpt lat="41.5540140" lon="2.1146100">
        <ele>188.3</ele>
        <time>2022-09-26T12:48:07Z</time>
      </trkpt>
      <trkpt lat="41.5540340" lon="2.1145840">
        <ele>188.5</ele>
        <time>2022-09-26T12:48:08Z</time>
      </trkpt>
      <trkpt lat="41.5540620" lon="2.1145500">
        <ele>188.8</ele>
        <time>2022-09-26T12:48:09Z</time>
      </trkpt>
      <trkpt lat="41.5540700" lon="2.1145400">
        <ele>188.9</ele>
        <time>2022-09-26T12:48:10Z</time>
      </trkpt>
      <trkpt lat="41.5540850" lon="2.1145220">
        <ele>189.0</ele>
        <time>2022-09-26T12:48:11Z</time>
      </trkpt>
      <trkpt lat="41.5541210" lon="2.1144720">
        <ele>189.5</ele>
        <time>2022-09-26T12:48:13Z</time>
      </trkpt>
      <trkpt lat="41.5541390" lon="2.1144430">
        <ele>189.7</ele>
        <time>2022-09-26T12:48:14Z</time>
      </trkpt>
      <trkpt lat="41.5541560" lon="2.1144150">
        <ele>189.9</ele>
        <time>2022-09-26T12:48:15Z</time>
      </trkpt>
      <trkpt lat="41.5541730" lon="2.1143850">
        <ele>190.1</ele>
        <time>2022-09-26T12:48:16Z</time>
      </trkpt>
      <trkpt lat="41.5541910" lon="2.1143530">
        <ele>190.4</ele>
        <time>2022-09-26T12:48:17Z</time>
      </trkpt>
      <trkpt lat="41.5541980" lon="2.1143420">
        <ele>190.4</ele>
        <time>2022-09-26T12:48:18Z</time>
      </trkpt>
      <trkpt lat="41.5542210" lon="2.1142950">
        <ele>190.8</ele>
        <time>2022-09-26T12:48:20Z</time>
      </trkpt>
      <trkpt lat="41.5542370" lon="2.1142540">
        <ele>190.9</ele>
        <time>2022-09-26T12:48:21Z</time>
      </trkpt>
      <trkpt lat="41.5542550" lon="2.1142110">
        <ele>191.1</ele>
        <time>2022-09-26T12:48:23Z</time>
      </trkpt>
      <trkpt lat="41.5542600" lon="2.1141910">
        <ele>191.2</ele>
        <time>2022-09-26T12:48:24Z</time>
      </trkpt>
      <trkpt lat="41.5542740" lon="2.1141510">
        <ele>191.4</ele>
        <time>2022-09-26T12:48:25Z</time>
      </trkpt>
      <trkpt lat="41.5542880" lon="2.1141060">
        <ele>191.6</ele>
        <time>2022-09-26T12:48:27Z</time>
      </trkpt>
      <trkpt lat="41.5542880" lon="2.1140670">
        <ele>191.8</ele>
        <time>2022-09-26T12:48:28Z</time>
      </trkpt>
      <trkpt lat="41.5542840" lon="2.1140240">
        <ele>192.0</ele>
        <time>2022-09-26T12:48:29Z</time>
      </trkpt>
      <trkpt lat="41.5542820" lon="2.1140020">
        <ele>192.0</ele>
        <time>2022-09-26T12:48:30Z</time>
      </trkpt>
      <trkpt lat="41.5542780" lon="2.1139570">
        <ele>192.2</ele>
        <time>2022-09-26T12:48:31Z</time>
      </trkpt>
      <trkpt lat="41.5542770" lon="2.1139450">
        <ele>192.3</ele>
        <time>2022-09-26T12:48:32Z</time>
      </trkpt>
      <trkpt lat="41.5542710" lon="2.1138990">
        <ele>192.5</ele>
        <time>2022-09-26T12:48:33Z</time>
      </trkpt>
      <trkpt lat="41.5542690" lon="2.1138840">
        <ele>192.6</ele>
        <time>2022-09-26T12:48:34Z</time>
      </trkpt>
      <trkpt lat="41.5542590" lon="2.1138460">
        <ele>192.7</ele>
        <time>2022-09-26T12:48:35Z</time>
      </trkpt>
      <trkpt lat="41.5542550" lon="2.1138340">
        <ele>193.0</ele>
        <time>2022-09-26T12:48:36Z</time>
      </trkpt>
      <trkpt lat="41.5542500" lon="2.1138130">
        <ele>193.1</ele>
        <time>2022-09-26T12:48:37Z</time>
      </trkpt>
      <trkpt lat="41.5542300" lon="2.1137700">
        <ele>193.4</ele>
        <time>2022-09-26T12:48:39Z</time>
      </trkpt>
      <trkpt lat="41.5542250" lon="2.1137430">
        <ele>193.6</ele>
        <time>2022-09-26T12:48:40Z</time>
      </trkpt>
      <trkpt lat="41.5542240" lon="2.1137260">
        <ele>193.7</ele>
        <time>2022-09-26T12:48:41Z</time>
      </trkpt>
      <trkpt lat="41.5542250" lon="2.1137170">
        <ele>193.7</ele>
        <time>2022-09-26T12:48:42Z</time>
      </trkpt>
      <trkpt lat="41.5542290" lon="2.1137030">
        <ele>193.8</ele>
        <time>2022-09-26T12:48:44Z</time>
      </trkpt>
      <trkpt lat="41.5542280" lon="2.1137040">
        <ele>193.8</ele>
        <time>2022-09-26T12:48:45Z</time>
      </trkpt>
      <trkpt lat="41.5542280" lon="2.1137070">
        <ele>193.9</ele>
        <time>2022-09-26T12:48:46Z</time>
      </trkpt>
      <trkpt lat="41.5542270" lon="2.1137090">
        <ele>193.9</ele>
        <time>2022-09-26T12:48:47Z</time>
      </trkpt>
      <trkpt lat="41.5542270" lon="2.1137110">
        <ele>193.9</ele>
        <time>2022-09-26T12:48:48Z</time>
      </trkpt>
      <trkpt lat="41.5542260" lon="2.1137120">
        <ele>193.9</ele>
        <time>2022-09-26T12:48:49Z</time>
      </trkpt>
      <trkpt lat="41.5542260" lon="2.1137110">
        <ele>193.9</ele>
        <time>2022-09-26T12:48:50Z</time>
      </trkpt>
      <trkpt lat="41.5542270" lon="2.1137110">
        <ele>193.9</ele>
        <time>2022-09-26T12:48:51Z</time>
      </trkpt>
      <trkpt lat="41.5542280" lon="2.1137110">
        <ele>193.9</ele>
        <time>2022-09-26T12:48:52Z</time>
      </trkpt>
      <trkpt lat="41.5542290" lon="2.1137100">
        <ele>193.9</ele>
        <time>2022-09-26T12:48:53Z</time>
      </trkpt>
      <trkpt lat="41.5542290" lon="2.1137100">
        <ele>193.9</ele>
        <time>2022-09-26T12:48:54Z</time>
      </trkpt>
      <trkpt lat="41.5542280" lon="2.1136870">
        <ele>194.1</ele>
        <time>2022-09-26T12:49:05Z</time>
      </trkpt>
      <trkpt lat="41.5542260" lon="2.1136690">
        <ele>194.2</ele>
        <time>2022-09-26T12:49:06Z</time>
      </trkpt>
      <trkpt lat="41.5542200" lon="2.1136480">
        <ele>194.3</ele>
        <time>2022-09-26T12:49:08Z</time>
      </trkpt>
      <trkpt lat="41.5542130" lon="2.1136030">
        <ele>194.6</ele>
        <time>2022-09-26T12:49:09Z</time>
      </trkpt>
      <trkpt lat="41.5541960" lon="2.1135530">
        <ele>195.1</ele>
        <time>2022-09-26T12:49:10Z</time>
      </trkpt>
      <trkpt lat="41.5541910" lon="2.1135360">
        <ele>195.2</ele>
        <time>2022-09-26T12:49:11Z</time>
      </trkpt>
      <trkpt lat="41.5541750" lon="2.1135010">
        <ele>195.5</ele>
        <time>2022-09-26T12:49:13Z</time>
      </trkpt>
      <trkpt lat="41.5541600" lon="2.1134570">
        <ele>195.9</ele>
        <time>2022-09-26T12:49:14Z</time>
      </trkpt>
      <trkpt lat="41.5541510" lon="2.1134230">
        <ele>196.1</ele>
        <time>2022-09-26T12:49:15Z</time>
      </trkpt>
      <trkpt lat="41.5541390" lon="2.1133800">
        <ele>196.4</ele>
        <time>2022-09-26T12:49:16Z</time>
      </trkpt>
      <trkpt lat="41.5541350" lon="2.1133650">
        <ele>196.5</ele>
        <time>2022-09-26T12:49:17Z</time>
      </trkpt>
      <trkpt lat="41.5541290" lon="2.1133420">
        <ele>196.7</ele>
        <time>2022-09-26T12:49:18Z</time>
      </trkpt>
      <trkpt lat="41.5541160" lon="2.1133010">
        <ele>197.0</ele>
        <time>2022-09-26T12:49:20Z</time>
      </trkpt>
      <trkpt lat="41.5541090" lon="2.1132620">
        <ele>197.3</ele>
        <time>2022-09-26T12:49:21Z</time>
      </trkpt>
      <trkpt lat="41.5540990" lon="2.1132180">
        <ele>197.6</ele>
        <time>2022-09-26T12:49:22Z</time>
      </trkpt>
      <trkpt lat="41.5540910" lon="2.1131820">
        <ele>197.8</ele>
        <time>2022-09-26T12:49:23Z</time>
      </trkpt>
      <trkpt lat="41.5540760" lon="2.1131230">
        <ele>198.2</ele>
        <time>2022-09-26T12:49:25Z</time>
      </trkpt>
      <trkpt lat="41.5540710" lon="2.1130990">
        <ele>198.3</ele>
        <time>2022-09-26T12:49:26Z</time>
      </trkpt>
      <trkpt lat="41.5540660" lon="2.1130750">
        <ele>198.5</ele>
        <time>2022-09-26T12:49:27Z</time>
      </trkpt>
      <trkpt lat="41.5540520" lon="2.1130360">
        <ele>198.7</ele>
        <time>2022-09-26T12:49:28Z</time>
      </trkpt>
      <trkpt lat="41.5540480" lon="2.1130260">
        <ele>198.8</ele>
        <time>2022-09-26T12:49:29Z</time>
      </trkpt>
      <trkpt lat="41.5540340" lon="2.1129870">
        <ele>199.0</ele>
        <time>2022-09-26T12:49:31Z</time>
      </trkpt>
      <trkpt lat="41.5540280" lon="2.1129650">
        <ele>199.2</ele>
        <time>2022-09-26T12:49:32Z</time>
      </trkpt>
      <trkpt lat="41.5540150" lon="2.1129350">
        <ele>199.4</ele>
        <time>2022-09-26T12:49:34Z</time>
      </trkpt>
      <trkpt lat="41.5539980" lon="2.1128930">
        <ele>199.7</ele>
        <time>2022-09-26T12:49:35Z</time>
      </trkpt>
      <trkpt lat="41.5539800" lon="2.1128450">
        <ele>200.0</ele>
        <time>2022-09-26T12:49:36Z</time>
      </trkpt>
      <trkpt lat="41.5539740" lon="2.1128280">
        <ele>200.1</ele>
        <time>2022-09-26T12:49:37Z</time>
      </trkpt>
      <trkpt lat="41.5539630" lon="2.1127860">
        <ele>200.3</ele>
        <time>2022-09-26T12:49:39Z</time>
      </trkpt>
      <trkpt lat="41.5539550" lon="2.1127430">
        <ele>200.6</ele>
        <time>2022-09-26T12:49:40Z</time>
      </trkpt>
      <trkpt lat="41.5539410" lon="2.1126890">
        <ele>200.9</ele>
        <time>2022-09-26T12:49:42Z</time>
      </trkpt>
      <trkpt lat="41.5539260" lon="2.1126410">
        <ele>201.1</ele>
        <time>2022-09-26T12:49:43Z</time>
      </trkpt>
      <trkpt lat="41.5539200" lon="2.1126240">
        <ele>201.2</ele>
        <time>2022-09-26T12:49:44Z</time>
      </trkpt>
      <trkpt lat="41.5539100" lon="2.1125860">
        <ele>201.4</ele>
        <time>2022-09-26T12:49:45Z</time>
      </trkpt>
      <trkpt lat="41.5539090" lon="2.1125770">
        <ele>201.4</ele>
        <time>2022-09-26T12:49:46Z</time>
      </trkpt>
      <trkpt lat="41.5539360" lon="2.1125460">
        <ele>201.6</ele>
        <time>2022-09-26T12:49:48Z</time>
      </trkpt>
      <trkpt lat="41.5539480" lon="2.1125390">
        <ele>201.6</ele>
        <time>2022-09-26T12:49:49Z</time>
      </trkpt>
      <trkpt lat="41.5539670" lon="2.1125300">
        <ele>201.7</ele>
        <time>2022-09-26T12:49:50Z</time>
      </trkpt>
      <trkpt lat="41.5539800" lon="2.1125200">
        <ele>201.8</ele>
        <time>2022-09-26T12:49:51Z</time>
      </trkpt>
      <trkpt lat="41.5540020" lon="2.1124730">
        <ele>201.9</ele>
        <time>2022-09-26T12:49:53Z</time>
      </trkpt>
      <trkpt lat="41.5539990" lon="2.1124580">
        <ele>201.9</ele>
        <time>2022-09-26T12:49:54Z</time>
      </trkpt>
      <trkpt lat="41.5539950" lon="2.1124420">
        <ele>201.9</ele>
        <time>2022-09-26T12:49:55Z</time>
      </trkpt>
      <trkpt lat="41.5539940" lon="2.1124410">
        <ele>201.9</ele>
        <time>2022-09-26T12:49:56Z</time>
      </trkpt>
      <trkpt lat="41.5539940" lon="2.1124350">
        <ele>201.9</ele>
        <time>2022-09-26T12:49:57Z</time>
      </trkpt>
      <trkpt lat="41.5539940" lon="2.1124290">
        <ele>201.9</ele>
        <time>2022-09-26T12:49:58Z</time>
      </trkpt>
      <trkpt lat="41.5539940" lon="2.1124240">
        <ele>201.9</ele>
        <time>2022-09-26T12:49:59Z</time>
      </trkpt>
      <trkpt lat="41.5539930" lon="2.1124180">
        <ele>201.9</ele>
        <time>2022-09-26T12:50:00Z</time>
      </trkpt>
      <trkpt lat="41.5539930" lon="2.1124120">
        <ele>202.0</ele>
        <time>2022-09-26T12:50:02Z</time>
      </trkpt>
      <trkpt lat="41.5539930" lon="2.1124060">
        <ele>202.0</ele>
        <time>2022-09-26T12:50:03Z</time>
      </trkpt>
      <trkpt lat="41.5539920" lon="2.1124010">
        <ele>202.0</ele>
        <time>2022-09-26T12:50:04Z</time>
      </trkpt>
      <trkpt lat="41.5539920" lon="2.1123950">
        <ele>202.0</ele>
        <time>2022-09-26T12:50:05Z</time>
      </trkpt>
      <trkpt lat="41.5539920" lon="2.1123890">
        <ele>202.0</ele>
        <time>2022-09-26T12:50:06Z</time>
      </trkpt>
      <trkpt lat="41.5539910" lon="2.1123840">
        <ele>202.0</ele>
        <time>2022-09-26T12:50:07Z</time>
      </trkpt>
      <trkpt lat="41.5539910" lon="2.1123780">
        <ele>202.0</ele>
        <time>2022-09-26T12:50:08Z</time>
      </trkpt>
      <trkpt lat="41.5539910" lon="2.1123720">
        <ele>202.0</ele>
        <time>2022-09-26T12:50:09Z</time>
      </trkpt>
      <trkpt lat="41.5539700" lon="2.1122990">
        <ele>202.0</ele>
        <time>2022-09-26T12:50:11Z</time>
      </trkpt>
      <trkpt lat="41.5539540" lon="2.1122570">
        <ele>202.1</ele>
        <time>2022-09-26T12:50:12Z</time>
      </trkpt>
      <trkpt lat="41.5539410" lon="2.1122160">
        <ele>202.1</ele>
        <time>2022-09-26T12:50:13Z</time>
      </trkpt>
      <trkpt lat="41.5539250" lon="2.1121760">
        <ele>202.1</ele>
        <time>2022-09-26T12:50:14Z</time>
      </trkpt>
      <trkpt lat="41.5539070" lon="2.1121460">
        <ele>202.2</ele>
        <time>2022-09-26T12:50:15Z</time>
      </trkpt>
      <trkpt lat="41.5538710" lon="2.1121510">
        <ele>202.2</ele>
        <time>2022-09-26T12:50:16Z</time>
      </trkpt>
      <trkpt lat="41.5538380" lon="2.1121670">
        <ele>202.2</ele>
        <time>2022-09-26T12:50:17Z</time>
      </trkpt>
      <trkpt lat="41.5538040" lon="2.1121680">
        <ele>202.3</ele>
        <time>2022-09-26T12:50:18Z</time>
      </trkpt>
      <trkpt lat="41.5537820" lon="2.1121360">
        <ele>202.3</ele>
        <time>2022-09-26T12:50:19Z</time>
      </trkpt>
      <trkpt lat="41.5537800" lon="2.1121250">
        <ele>202.3</ele>
        <time>2022-09-26T12:50:20Z</time>
      </trkpt>
      <trkpt lat="41.5537840" lon="2.1121150">
        <ele>202.3</ele>
        <time>2022-09-26T12:50:21Z</time>
      </trkpt>
      <trkpt lat="41.5537850" lon="2.1121170">
        <ele>202.3</ele>
        <time>2022-09-26T12:50:22Z</time>
      </trkpt>
      <trkpt lat="41.5537920" lon="2.1121230">
        <ele>202.4</ele>
        <time>2022-09-26T12:50:23Z</time>
      </trkpt>
      <trkpt lat="41.5537930" lon="2.1121270">
        <ele>202.4</ele>
        <time>2022-09-26T12:50:24Z</time>
      </trkpt>
      <trkpt lat="41.5537940" lon="2.1121290">
        <ele>202.4</ele>
        <time>2022-09-26T12:50:25Z</time>
      </trkpt>
      <trkpt lat="41.5537940" lon="2.1121290">
        <ele>202.4</ele>
        <time>2022-09-26T12:50:26Z</time>
      </trkpt>
      <trkpt lat="41.5537930" lon="2.1121300">
        <ele>202.4</ele>
        <time>2022-09-26T12:50:27Z</time>
      </trkpt>
      <trkpt lat="41.5537930" lon="2.1121210">
        <ele>202.4</ele>
        <time>2022-09-26T12:50:28Z</time>
      </trkpt>
      <trkpt lat="41.5537930" lon="2.1121050">
        <ele>202.4</ele>
        <time>2022-09-26T12:50:29Z</time>
      </trkpt>
      <trkpt lat="41.5537960" lon="2.1120830">
        <ele>202.4</ele>
        <time>2022-09-26T12:50:30Z</time>
      </trkpt>
      <trkpt lat="41.5537810" lon="2.1120480">
        <ele>202.4</ele>
        <time>2022-09-26T12:50:31Z</time>
      </trkpt>
      <trkpt lat="41.5537610" lon="2.1119990">
        <ele>202.4</ele>
        <time>2022-09-26T12:50:32Z</time>
      </trkpt>
      <trkpt lat="41.5537560" lon="2.1119790">
        <ele>202.4</ele>
        <time>2022-09-26T12:50:33Z</time>
      </trkpt>
      <trkpt lat="41.5537400" lon="2.1119360">
        <ele>202.4</ele>
        <time>2022-09-26T12:50:34Z</time>
      </trkpt>
      <trkpt lat="41.5537240" lon="2.1118780">
        <ele>202.5</ele>
        <time>2022-09-26T12:50:35Z</time>
      </trkpt>
      <trkpt lat="41.5537120" lon="2.1118360">
        <ele>202.5</ele>
        <time>2022-09-26T12:50:36Z</time>
      </trkpt>
      <trkpt lat="41.5536870" lon="2.1117640">
        <ele>202.5</ele>
        <time>2022-09-26T12:50:37Z</time>
      </trkpt>
      <trkpt lat="41.5536600" lon="2.1116670">
        <ele>202.5</ele>
        <time>2022-09-26T12:50:39Z</time>
      </trkpt>
      <trkpt lat="41.5536210" lon="2.1115800">
        <ele>202.5</ele>
        <time>2022-09-26T12:50:40Z</time>
      </trkpt>
      <trkpt lat="41.5536000" lon="2.1115170">
        <ele>202.5</ele>
        <time>2022-09-26T12:50:41Z</time>
      </trkpt>
      <trkpt lat="41.5535810" lon="2.1114540">
        <ele>202.6</ele>
        <time>2022-09-26T12:50:42Z</time>
      </trkpt>
      <trkpt lat="41.5535610" lon="2.1113910">
        <ele>202.6</ele>
        <time>2022-09-26T12:50:43Z</time>
      </trkpt>
      <trkpt lat="41.5535420" lon="2.1113260">
        <ele>202.6</ele>
        <time>2022-09-26T12:50:44Z</time>
      </trkpt>
      <trkpt lat="41.5535270" lon="2.1112510">
        <ele>202.6</ele>
        <time>2022-09-26T12:50:45Z</time>
      </trkpt>
      <trkpt lat="41.5535080" lon="2.1111810">
        <ele>202.6</ele>
        <time>2022-09-26T12:50:46Z</time>
      </trkpt>
      <trkpt lat="41.5534870" lon="2.1111090">
        <ele>202.6</ele>
        <time>2022-09-26T12:50:47Z</time>
      </trkpt>
      <trkpt lat="41.5534760" lon="2.1110380">
        <ele>202.5</ele>
        <time>2022-09-26T12:50:48Z</time>
      </trkpt>
      <trkpt lat="41.5534650" lon="2.1109660">
        <ele>202.5</ele>
        <time>2022-09-26T12:50:49Z</time>
      </trkpt>
      <trkpt lat="41.5534560" lon="2.1108940">
        <ele>202.5</ele>
        <time>2022-09-26T12:50:50Z</time>
      </trkpt>
      <trkpt lat="41.5534400" lon="2.1108200">
        <ele>202.5</ele>
        <time>2022-09-26T12:50:51Z</time>
      </trkpt>
      <trkpt lat="41.5534250" lon="2.1107450">
        <ele>202.4</ele>
        <time>2022-09-26T12:50:52Z</time>
      </trkpt>
      <trkpt lat="41.5534110" lon="2.1106760">
        <ele>202.4</ele>
        <time>2022-09-26T12:50:53Z</time>
      </trkpt>
      <trkpt lat="41.5533950" lon="2.1106110">
        <ele>202.4</ele>
        <time>2022-09-26T12:50:54Z</time>
      </trkpt>
      <trkpt lat="41.5533730" lon="2.1105460">
        <ele>202.4</ele>
        <time>2022-09-26T12:50:55Z</time>
      </trkpt>
      <trkpt lat="41.5533450" lon="2.1104820">
        <ele>202.4</ele>
        <time>2022-09-26T12:50:56Z</time>
      </trkpt>
      <trkpt lat="41.5533170" lon="2.1104120">
        <ele>202.3</ele>
        <time>2022-09-26T12:50:57Z</time>
      </trkpt>
      <trkpt lat="41.5532900" lon="2.1103390">
        <ele>202.3</ele>
        <time>2022-09-26T12:50:58Z</time>
      </trkpt>
      <trkpt lat="41.5532610" lon="2.1102620">
        <ele>202.2</ele>
        <time>2022-09-26T12:50:59Z</time>
      </trkpt>
      <trkpt lat="41.5532370" lon="2.1101880">
        <ele>202.2</ele>
        <time>2022-09-26T12:51:00Z</time>
      </trkpt>
      <trkpt lat="41.5532190" lon="2.1101150">
        <ele>202.2</ele>
        <time>2022-09-26T12:51:01Z</time>
      </trkpt>
      <trkpt lat="41.5532100" lon="2.1100340">
        <ele>202.1</ele>
        <time>2022-09-26T12:51:02Z</time>
      </trkpt>
      <trkpt lat="41.5531960" lon="2.1099550">
        <ele>202.1</ele>
        <time>2022-09-26T12:51:03Z</time>
      </trkpt>
      <trkpt lat="41.5531770" lon="2.1098800">
        <ele>202.1</ele>
        <time>2022-09-26T12:51:04Z</time>
      </trkpt>
      <trkpt lat="41.5531550" lon="2.1098100">
        <ele>202.0</ele>
        <time>2022-09-26T12:51:05Z</time>
      </trkpt>
      <trkpt lat="41.5531310" lon="2.1097360">
        <ele>202.0</ele>
        <time>2022-09-26T12:51:06Z</time>
      </trkpt>
      <trkpt lat="41.5531110" lon="2.1096610">
        <ele>201.9</ele>
        <time>2022-09-26T12:51:07Z</time>
      </trkpt>
      <trkpt lat="41.5530880" lon="2.1095810">
        <ele>201.9</ele>
        <time>2022-09-26T12:51:08Z</time>
      </trkpt>
      <trkpt lat="41.5530670" lon="2.1095030">
        <ele>201.8</ele>
        <time>2022-09-26T12:51:09Z</time>
      </trkpt>
      <trkpt lat="41.5530440" lon="2.1094280">
        <ele>201.8</ele>
        <time>2022-09-26T12:51:10Z</time>
      </trkpt>
      <trkpt lat="41.5530230" lon="2.1093520">
        <ele>201.8</ele>
        <time>2022-09-26T12:51:11Z</time>
      </trkpt>
      <trkpt lat="41.5529990" lon="2.1092790">
        <ele>201.7</ele>
        <time>2022-09-26T12:51:12Z</time>
      </trkpt>
      <trkpt lat="41.5529750" lon="2.1092050">
        <ele>201.7</ele>
        <time>2022-09-26T12:51:13Z</time>
      </trkpt>
      <trkpt lat="41.5529510" lon="2.1091300">
        <ele>201.6</ele>
        <time>2022-09-26T12:51:14Z</time>
      </trkpt>
      <trkpt lat="41.5529290" lon="2.1090520">
        <ele>201.6</ele>
        <time>2022-09-26T12:51:15Z</time>
      </trkpt>
      <trkpt lat="41.5529080" lon="2.1089740">
        <ele>201.5</ele>
        <time>2022-09-26T12:51:16Z</time>
      </trkpt>
      <trkpt lat="41.5528870" lon="2.1089010">
        <ele>201.5</ele>
        <time>2022-09-26T12:51:17Z</time>
      </trkpt>
      <trkpt lat="41.5528670" lon="2.1088220">
        <ele>201.4</ele>
        <time>2022-09-26T12:51:18Z</time>
      </trkpt>
      <trkpt lat="41.5528450" lon="2.1087440">
        <ele>201.3</ele>
        <time>2022-09-26T12:51:19Z</time>
      </trkpt>
      <trkpt lat="41.5528200" lon="2.1086720">
        <ele>201.3</ele>
        <time>2022-09-26T12:51:20Z</time>
      </trkpt>
      <trkpt lat="41.5527960" lon="2.1085950">
        <ele>201.3</ele>
        <time>2022-09-26T12:51:21Z</time>
      </trkpt>
      <trkpt lat="41.5527740" lon="2.1085200">
        <ele>201.3</ele>
        <time>2022-09-26T12:51:22Z</time>
      </trkpt>
      <trkpt lat="41.5527490" lon="2.1084440">
        <ele>201.2</ele>
        <time>2022-09-26T12:51:23Z</time>
      </trkpt>
      <trkpt lat="41.5527260" lon="2.1083710">
        <ele>201.2</ele>
        <time>2022-09-26T12:51:24Z</time>
      </trkpt>
      <trkpt lat="41.5527050" lon="2.1083050">
        <ele>201.1</ele>
        <time>2022-09-26T12:51:25Z</time>
      </trkpt>
      <trkpt lat="41.5526890" lon="2.1082410">
        <ele>201.1</ele>
        <time>2022-09-26T12:51:26Z</time>
      </trkpt>
      <trkpt lat="41.5526720" lon="2.1081760">
        <ele>201.1</ele>
        <time>2022-09-26T12:51:27Z</time>
      </trkpt>
      <trkpt lat="41.5526580" lon="2.1081100">
        <ele>201.0</ele>
        <time>2022-09-26T12:51:28Z</time>
      </trkpt>
      <trkpt lat="41.5526340" lon="2.1080480">
        <ele>201.0</ele>
        <time>2022-09-26T12:51:29Z</time>
      </trkpt>
      <trkpt lat="41.5526160" lon="2.1079840">
        <ele>200.9</ele>
        <time>2022-09-26T12:51:30Z</time>
      </trkpt>
      <trkpt lat="41.5526050" lon="2.1079230">
        <ele>200.9</ele>
        <time>2022-09-26T12:51:31Z</time>
      </trkpt>
      <trkpt lat="41.5525900" lon="2.1078630">
        <ele>200.8</ele>
        <time>2022-09-26T12:51:32Z</time>
      </trkpt>
      <trkpt lat="41.5525750" lon="2.1078070">
        <ele>200.8</ele>
        <time>2022-09-26T12:51:33Z</time>
      </trkpt>
      <trkpt lat="41.5525650" lon="2.1077590">
        <ele>200.8</ele>
        <time>2022-09-26T12:51:34Z</time>
      </trkpt>
      <trkpt lat="41.5525600" lon="2.1077300">
        <ele>200.7</ele>
        <time>2022-09-26T12:51:35Z</time>
      </trkpt>
      <trkpt lat="41.5525590" lon="2.1077240">
        <ele>200.7</ele>
        <time>2022-09-26T12:51:36Z</time>
      </trkpt>
      <trkpt lat="41.5525570" lon="2.1077180">
        <ele>200.7</ele>
        <time>2022-09-26T12:51:37Z</time>
      </trkpt>
      <trkpt lat="41.5525560" lon="2.1077120">
        <ele>200.7</ele>
        <time>2022-09-26T12:51:38Z</time>
      </trkpt>
      <trkpt lat="41.5525550" lon="2.1077060">
        <ele>200.7</ele>
        <time>2022-09-26T12:51:39Z</time>
      </trkpt>
      <trkpt lat="41.5525530" lon="2.1077000">
        <ele>200.7</ele>
        <time>2022-09-26T12:51:40Z</time>
      </trkpt>
      <trkpt lat="41.5525520" lon="2.1076940">
        <ele>200.7</ele>
        <time>2022-09-26T12:51:41Z</time>
      </trkpt>
      <trkpt lat="41.5525500" lon="2.1076880">
        <ele>200.7</ele>
        <time>2022-09-26T12:51:42Z</time>
      </trkpt>
      <trkpt lat="41.5525490" lon="2.1076820">
        <ele>200.7</ele>
        <time>2022-09-26T12:51:43Z</time>
      </trkpt>
      <trkpt lat="41.5525480" lon="2.1076760">
        <ele>200.7</ele>
        <time>2022-09-26T12:51:44Z</time>
      </trkpt>
      <trkpt lat="41.5525460" lon="2.1076700">
        <ele>200.7</ele>
        <time>2022-09-26T12:51:45Z</time>
      </trkpt>
      <trkpt lat="41.5525450" lon="2.1076640">
        <ele>200.7</ele>
        <time>2022-09-26T12:51:46Z</time>
      </trkpt>
      <trkpt lat="41.5525440" lon="2.1076580">
        <ele>200.7</ele>
        <time>2022-09-26T12:51:47Z</time>
      </trkpt>
      <trkpt lat="41.5525420" lon="2.1076520">
        <ele>200.7</ele>
        <time>2022-09-26T12:51:50Z</time>
      </trkpt>
      <trkpt lat="41.5525410" lon="2.1076460">
        <ele>200.7</ele>
        <time>2022-09-26T12:51:51Z</time>
      </trkpt>
      <trkpt lat="41.5525280" lon="2.1075920">
        <ele>200.6</ele>
        <time>2022-09-26T12:51:52Z</time>
      </trkpt>
      <trkpt lat="41.5525090" lon="2.1075380">
        <ele>200.5</ele>
        <time>2022-09-26T12:51:53Z</time>
      </trkpt>
      <trkpt lat="41.5524620" lon="2.1073890">
        <ele>200.2</ele>
        <time>2022-09-26T12:51:55Z</time>
      </trkpt>
      <trkpt lat="41.5524430" lon="2.1072890">
        <ele>200.0</ele>
        <time>2022-09-26T12:51:56Z</time>
      </trkpt>
      <trkpt lat="41.5524010" lon="2.1071360">
        <ele>199.7</ele>
        <time>2022-09-26T12:51:58Z</time>
      </trkpt>
      <trkpt lat="41.5523810" lon="2.1070630">
        <ele>199.6</ele>
        <time>2022-09-26T12:51:59Z</time>
      </trkpt>
      <trkpt lat="41.5523590" lon="2.1069880">
        <ele>199.5</ele>
        <time>2022-09-26T12:52:00Z</time>
      </trkpt>
      <trkpt lat="41.5523390" lon="2.1069120">
        <ele>199.4</ele>
        <time>2022-09-26T12:52:01Z</time>
      </trkpt>
      <trkpt lat="41.5523160" lon="2.1068350">
        <ele>199.3</ele>
        <time>2022-09-26T12:52:02Z</time>
      </trkpt>
      <trkpt lat="41.5522940" lon="2.1067540">
        <ele>199.2</ele>
        <time>2022-09-26T12:52:03Z</time>
      </trkpt>
      <trkpt lat="41.5522730" lon="2.1066750">
        <ele>199.2</ele>
        <time>2022-09-26T12:52:04Z</time>
      </trkpt>
      <trkpt lat="41.5522480" lon="2.1065930">
        <ele>199.1</ele>
        <time>2022-09-26T12:52:05Z</time>
      </trkpt>
      <trkpt lat="41.5522270" lon="2.1065100">
        <ele>199.1</ele>
        <time>2022-09-26T12:52:06Z</time>
      </trkpt>
      <trkpt lat="41.5522050" lon="2.1064310">
        <ele>199.1</ele>
        <time>2022-09-26T12:52:07Z</time>
      </trkpt>
      <trkpt lat="41.5521820" lon="2.1063520">
        <ele>199.0</ele>
        <time>2022-09-26T12:52:08Z</time>
      </trkpt>
      <trkpt lat="41.5521530" lon="2.1062800">
        <ele>199.0</ele>
        <time>2022-09-26T12:52:09Z</time>
      </trkpt>
      <trkpt lat="41.5520870" lon="2.1061300">
        <ele>198.8</ele>
        <time>2022-09-26T12:52:11Z</time>
      </trkpt>
      <trkpt lat="41.5520610" lon="2.1060510">
        <ele>198.6</ele>
        <time>2022-09-26T12:52:12Z</time>
      </trkpt>
      <trkpt lat="41.5520390" lon="2.1059670">
        <ele>198.5</ele>
        <time>2022-09-26T12:52:13Z</time>
      </trkpt>
      <trkpt lat="41.5520180" lon="2.1058780">
        <ele>198.3</ele>
        <time>2022-09-26T12:52:14Z</time>
      </trkpt>
      <trkpt lat="41.5519960" lon="2.1057950">
        <ele>198.1</ele>
        <time>2022-09-26T12:52:15Z</time>
      </trkpt>
      <trkpt lat="41.5519710" lon="2.1057130">
        <ele>197.9</ele>
        <time>2022-09-26T12:52:16Z</time>
      </trkpt>
      <trkpt lat="41.5519460" lon="2.1056310">
        <ele>197.8</ele>
        <time>2022-09-26T12:52:17Z</time>
      </trkpt>
      <trkpt lat="41.5519200" lon="2.1055470">
        <ele>197.6</ele>
        <time>2022-09-26T12:52:18Z</time>
      </trkpt>
      <trkpt lat="41.5518930" lon="2.1054720">
        <ele>197.5</ele>
        <time>2022-09-26T12:52:19Z</time>
      </trkpt>
      <trkpt lat="41.5518670" lon="2.1053940">
        <ele>197.3</ele>
        <time>2022-09-26T12:52:20Z</time>
      </trkpt>
      <trkpt lat="41.5518390" lon="2.1053160">
        <ele>197.2</ele>
        <time>2022-09-26T12:52:21Z</time>
      </trkpt>
      <trkpt lat="41.5518180" lon="2.1052310">
        <ele>197.1</ele>
        <time>2022-09-26T12:52:22Z</time>
      </trkpt>
      <trkpt lat="41.5518050" lon="2.1051520">
        <ele>197.0</ele>
        <time>2022-09-26T12:52:23Z</time>
      </trkpt>
      <trkpt lat="41.5517900" lon="2.1050750">
        <ele>197.0</ele>
        <time>2022-09-26T12:52:24Z</time>
      </trkpt>
      <trkpt lat="41.5517710" lon="2.1050010">
        <ele>196.9</ele>
        <time>2022-09-26T12:52:25Z</time>
      </trkpt>
      <trkpt lat="41.5517530" lon="2.1049230">
        <ele>196.8</ele>
        <time>2022-09-26T12:52:26Z</time>
      </trkpt>
      <trkpt lat="41.5517370" lon="2.1048510">
        <ele>196.8</ele>
        <time>2022-09-26T12:52:27Z</time>
      </trkpt>
      <trkpt lat="41.5517220" lon="2.1047780">
        <ele>196.7</ele>
        <time>2022-09-26T12:52:28Z</time>
      </trkpt>
      <trkpt lat="41.5517040" lon="2.1047080">
        <ele>196.7</ele>
        <time>2022-09-26T12:52:29Z</time>
      </trkpt>
      <trkpt lat="41.5516840" lon="2.1046400">
        <ele>196.6</ele>
        <time>2022-09-26T12:52:30Z</time>
      </trkpt>
      <trkpt lat="41.5516670" lon="2.1045650">
        <ele>196.6</ele>
        <time>2022-09-26T12:52:31Z</time>
      </trkpt>
      <trkpt lat="41.5516510" lon="2.1044900">
        <ele>196.5</ele>
        <time>2022-09-26T12:52:32Z</time>
      </trkpt>
      <trkpt lat="41.5516310" lon="2.1044170">
        <ele>196.5</ele>
        <time>2022-09-26T12:52:33Z</time>
      </trkpt>
      <trkpt lat="41.5516170" lon="2.1043440">
        <ele>196.4</ele>
        <time>2022-09-26T12:52:34Z</time>
      </trkpt>
      <trkpt lat="41.5516050" lon="2.1042750">
        <ele>196.4</ele>
        <time>2022-09-26T12:52:35Z</time>
      </trkpt>
      <trkpt lat="41.5515880" lon="2.1042170">
        <ele>196.3</ele>
        <time>2022-09-26T12:52:36Z</time>
      </trkpt>
      <trkpt lat="41.5515730" lon="2.1041740">
        <ele>196.3</ele>
        <time>2022-09-26T12:52:37Z</time>
      </trkpt>
      <trkpt lat="41.5515670" lon="2.1041370">
        <ele>196.3</ele>
        <time>2022-09-26T12:52:38Z</time>
      </trkpt>
      <trkpt lat="41.5515640" lon="2.1041020">
        <ele>196.3</ele>
        <time>2022-09-26T12:52:40Z</time>
      </trkpt>
      <trkpt lat="41.5515610" lon="2.1041000">
        <ele>196.3</ele>
        <time>2022-09-26T12:52:41Z</time>
      </trkpt>
      <trkpt lat="41.5515540" lon="2.1040900">
        <ele>196.3</ele>
        <time>2022-09-26T12:52:42Z</time>
      </trkpt>
      <trkpt lat="41.5515500" lon="2.1040790">
        <ele>196.3</ele>
        <time>2022-09-26T12:52:43Z</time>
      </trkpt>
      <trkpt lat="41.5515470" lon="2.1040680">
        <ele>196.3</ele>
        <time>2022-09-26T12:52:44Z</time>
      </trkpt>
      <trkpt lat="41.5515430" lon="2.1040560">
        <ele>196.3</ele>
        <time>2022-09-26T12:52:45Z</time>
      </trkpt>
      <trkpt lat="41.5515400" lon="2.1040450">
        <ele>196.3</ele>
        <time>2022-09-26T12:52:46Z</time>
      </trkpt>
      <trkpt lat="41.5515370" lon="2.1040340">
        <ele>196.2</ele>
        <time>2022-09-26T12:52:47Z</time>
      </trkpt>
      <trkpt lat="41.5515330" lon="2.1040230">
        <ele>196.2</ele>
        <time>2022-09-26T12:52:48Z</time>
      </trkpt>
      <trkpt lat="41.5515300" lon="2.1040110">
        <ele>196.2</ele>
        <time>2022-09-26T12:52:49Z</time>
      </trkpt>
      <trkpt lat="41.5515260" lon="2.1040000">
        <ele>196.2</ele>
        <time>2022-09-26T12:52:50Z</time>
      </trkpt>
      <trkpt lat="41.5515230" lon="2.1039890">
        <ele>196.2</ele>
        <time>2022-09-26T12:52:51Z</time>
      </trkpt>
      <trkpt lat="41.5515200" lon="2.1039770">
        <ele>196.2</ele>
        <time>2022-09-26T12:53:22Z</time>
      </trkpt>
      <trkpt lat="41.5515160" lon="2.1039660">
        <ele>196.2</ele>
        <time>2022-09-26T12:53:23Z</time>
      </trkpt>
      <trkpt lat="41.5515140" lon="2.1039150">
        <ele>196.2</ele>
        <time>2022-09-26T12:53:24Z</time>
      </trkpt>
      <trkpt lat="41.5515020" lon="2.1038560">
        <ele>196.2</ele>
        <time>2022-09-26T12:53:25Z</time>
      </trkpt>
      <trkpt lat="41.5514840" lon="2.1037800">
        <ele>196.2</ele>
        <time>2022-09-26T12:53:26Z</time>
      </trkpt>
      <trkpt lat="41.5514650" lon="2.1037200">
        <ele>196.2</ele>
        <time>2022-09-26T12:53:27Z</time>
      </trkpt>
      <trkpt lat="41.5514470" lon="2.1036610">
        <ele>196.1</ele>
        <time>2022-09-26T12:53:28Z</time>
      </trkpt>
      <trkpt lat="41.5514270" lon="2.1036020">
        <ele>196.1</ele>
        <time>2022-09-26T12:53:29Z</time>
      </trkpt>
      <trkpt lat="41.5514100" lon="2.1035410">
        <ele>196.1</ele>
        <time>2022-09-26T12:53:30Z</time>
      </trkpt>
      <trkpt lat="41.5513960" lon="2.1034770">
        <ele>196.0</ele>
        <time>2022-09-26T12:53:31Z</time>
      </trkpt>
      <trkpt lat="41.5513820" lon="2.1034120">
        <ele>196.0</ele>
        <time>2022-09-26T12:53:32Z</time>
      </trkpt>
      <trkpt lat="41.5513670" lon="2.1033420">
        <ele>195.9</ele>
        <time>2022-09-26T12:53:33Z</time>
      </trkpt>
      <trkpt lat="41.5513490" lon="2.1032700">
        <ele>195.9</ele>
        <time>2022-09-26T12:53:34Z</time>
      </trkpt>
      <trkpt lat="41.5513320" lon="2.1032020">
        <ele>195.8</ele>
        <time>2022-09-26T12:53:35Z</time>
      </trkpt>
      <trkpt lat="41.5513150" lon="2.1031310">
        <ele>195.8</ele>
        <time>2022-09-26T12:53:36Z</time>
      </trkpt>
      <trkpt lat="41.5512990" lon="2.1030670">
        <ele>195.8</ele>
        <time>2022-09-26T12:53:37Z</time>
      </trkpt>
      <trkpt lat="41.5512790" lon="2.1029950">
        <ele>195.7</ele>
        <time>2022-09-26T12:53:38Z</time>
      </trkpt>
      <trkpt lat="41.5512630" lon="2.1029200">
        <ele>195.7</ele>
        <time>2022-09-26T12:53:39Z</time>
      </trkpt>
      <trkpt lat="41.5512490" lon="2.1028380">
        <ele>195.6</ele>
        <time>2022-09-26T12:53:40Z</time>
      </trkpt>
      <trkpt lat="41.5512350" lon="2.1027610">
        <ele>195.6</ele>
        <time>2022-09-26T12:53:41Z</time>
      </trkpt>
      <trkpt lat="41.5512220" lon="2.1026820">
        <ele>195.6</ele>
        <time>2022-09-26T12:53:42Z</time>
      </trkpt>
      <trkpt lat="41.5512100" lon="2.1026070">
        <ele>195.5</ele>
        <time>2022-09-26T12:53:43Z</time>
      </trkpt>
      <trkpt lat="41.5511930" lon="2.1025320">
        <ele>195.5</ele>
        <time>2022-09-26T12:53:44Z</time>
      </trkpt>
      <trkpt lat="41.5511670" lon="2.1024590">
        <ele>195.4</ele>
        <time>2022-09-26T12:53:45Z</time>
      </trkpt>
      <trkpt lat="41.5511370" lon="2.1023800">
        <ele>195.4</ele>
        <time>2022-09-26T12:53:46Z</time>
      </trkpt>
      <trkpt lat="41.5511120" lon="2.1023020">
        <ele>195.4</ele>
        <time>2022-09-26T12:53:47Z</time>
      </trkpt>
      <trkpt lat="41.5510970" lon="2.1022330">
        <ele>195.3</ele>
        <time>2022-09-26T12:53:48Z</time>
      </trkpt>
      <trkpt lat="41.5510930" lon="2.1021680">
        <ele>195.3</ele>
        <time>2022-09-26T12:53:49Z</time>
      </trkpt>
      <trkpt lat="41.5510770" lon="2.1021000">
        <ele>195.3</ele>
        <time>2022-09-26T12:53:50Z</time>
      </trkpt>
      <trkpt lat="41.5510610" lon="2.1020250">
        <ele>195.3</ele>
        <time>2022-09-26T12:53:51Z</time>
      </trkpt>
      <trkpt lat="41.5510430" lon="2.1019470">
        <ele>195.3</ele>
        <time>2022-09-26T12:53:52Z</time>
      </trkpt>
      <trkpt lat="41.5510210" lon="2.1018730">
        <ele>195.2</ele>
        <time>2022-09-26T12:53:53Z</time>
      </trkpt>
      <trkpt lat="41.5509990" lon="2.1017960">
        <ele>195.2</ele>
        <time>2022-09-26T12:53:54Z</time>
      </trkpt>
      <trkpt lat="41.5509790" lon="2.1017180">
        <ele>195.2</ele>
        <time>2022-09-26T12:53:55Z</time>
      </trkpt>
      <trkpt lat="41.5509520" lon="2.1016510">
        <ele>195.1</ele>
        <time>2022-09-26T12:53:56Z</time>
      </trkpt>
      <trkpt lat="41.5509240" lon="2.1015840">
        <ele>195.1</ele>
        <time>2022-09-26T12:53:57Z</time>
      </trkpt>
      <trkpt lat="41.5508970" lon="2.1015120">
        <ele>195.0</ele>
        <time>2022-09-26T12:53:58Z</time>
      </trkpt>
      <trkpt lat="41.5508740" lon="2.1014360">
        <ele>195.0</ele>
        <time>2022-09-26T12:53:59Z</time>
      </trkpt>
      <trkpt lat="41.5508540" lon="2.1013580">
        <ele>194.9</ele>
        <time>2022-09-26T12:54:00Z</time>
      </trkpt>
      <trkpt lat="41.5508340" lon="2.1012770">
        <ele>194.8</ele>
        <time>2022-09-26T12:54:01Z</time>
      </trkpt>
      <trkpt lat="41.5508190" lon="2.1012000">
        <ele>194.8</ele>
        <time>2022-09-26T12:54:02Z</time>
      </trkpt>
      <trkpt lat="41.5507980" lon="2.1011240">
        <ele>194.7</ele>
        <time>2022-09-26T12:54:03Z</time>
      </trkpt>
      <trkpt lat="41.5507800" lon="2.1010440">
        <ele>194.6</ele>
        <time>2022-09-26T12:54:04Z</time>
      </trkpt>
      <trkpt lat="41.5507610" lon="2.1009630">
        <ele>194.6</ele>
        <time>2022-09-26T12:54:05Z</time>
      </trkpt>
      <trkpt lat="41.5507420" lon="2.1008800">
        <ele>194.5</ele>
        <time>2022-09-26T12:54:06Z</time>
      </trkpt>
      <trkpt lat="41.5507220" lon="2.1008000">
        <ele>194.4</ele>
        <time>2022-09-26T12:54:07Z</time>
      </trkpt>
      <trkpt lat="41.5507000" lon="2.1007210">
        <ele>194.4</ele>
        <time>2022-09-26T12:54:08Z</time>
      </trkpt>
      <trkpt lat="41.5506790" lon="2.1006420">
        <ele>194.3</ele>
        <time>2022-09-26T12:54:09Z</time>
      </trkpt>
      <trkpt lat="41.5506620" lon="2.1005640">
        <ele>194.2</ele>
        <time>2022-09-26T12:54:10Z</time>
      </trkpt>
      <trkpt lat="41.5506490" lon="2.1004770">
        <ele>194.1</ele>
        <time>2022-09-26T12:54:11Z</time>
      </trkpt>
      <trkpt lat="41.5506330" lon="2.1003940">
        <ele>194.0</ele>
        <time>2022-09-26T12:54:12Z</time>
      </trkpt>
      <trkpt lat="41.5506130" lon="2.1003140">
        <ele>194.0</ele>
        <time>2022-09-26T12:54:13Z</time>
      </trkpt>
      <trkpt lat="41.5505980" lon="2.1002440">
        <ele>193.9</ele>
        <time>2022-09-26T12:54:14Z</time>
      </trkpt>
      <trkpt lat="41.5505820" lon="2.1001970">
        <ele>193.9</ele>
        <time>2022-09-26T12:54:15Z</time>
      </trkpt>
      <trkpt lat="41.5505850" lon="2.1001630">
        <ele>193.8</ele>
        <time>2022-09-26T12:54:16Z</time>
      </trkpt>
      <trkpt lat="41.5505890" lon="2.1001490">
        <ele>193.8</ele>
        <time>2022-09-26T12:54:17Z</time>
      </trkpt>
      <trkpt lat="41.5505930" lon="2.1001540">
        <ele>193.8</ele>
        <time>2022-09-26T12:54:18Z</time>
      </trkpt>
      <trkpt lat="41.5505950" lon="2.1001600">
        <ele>193.8</ele>
        <time>2022-09-26T12:54:19Z</time>
      </trkpt>
      <trkpt lat="41.5505990" lon="2.1001710">
        <ele>193.8</ele>
        <time>2022-09-26T12:54:20Z</time>
      </trkpt>
      <trkpt lat="41.5506010" lon="2.1001810">
        <ele>193.8</ele>
        <time>2022-09-26T12:54:21Z</time>
      </trkpt>
      <trkpt lat="41.5506080" lon="2.1001800">
        <ele>193.8</ele>
        <time>2022-09-26T12:54:22Z</time>
      </trkpt>
      <trkpt lat="41.5506060" lon="2.1001800">
        <ele>193.8</ele>
        <time>2022-09-26T12:54:23Z</time>
      </trkpt>
      <trkpt lat="41.5506030" lon="2.1001830">
        <ele>193.8</ele>
        <time>2022-09-26T12:54:24Z</time>
      </trkpt>
      <trkpt lat="41.5506030" lon="2.1001840">
        <ele>193.8</ele>
        <time>2022-09-26T12:54:25Z</time>
      </trkpt>
      <trkpt lat="41.5506030" lon="2.1001840">
        <ele>193.8</ele>
        <time>2022-09-26T12:54:26Z</time>
      </trkpt>
      <trkpt lat="41.5506050" lon="2.1001830">
        <ele>193.8</ele>
        <time>2022-09-26T12:54:27Z</time>
      </trkpt>
      <trkpt lat="41.5506060" lon="2.1001850">
        <ele>193.8</ele>
        <time>2022-09-26T12:54:28Z</time>
      </trkpt>
      <trkpt lat="41.5505900" lon="2.1002120">
        <ele>193.7</ele>
        <time>2022-09-26T12:54:39Z</time>
      </trkpt>
      <trkpt lat="41.5505900" lon="2.1002120">
        <ele>193.7</ele>
        <time>2022-09-26T12:54:40Z</time>
      </trkpt>
      <trkpt lat="41.5505900" lon="2.1002130">
        <ele>193.7</ele>
        <time>2022-09-26T12:54:41Z</time>
      </trkpt>
      <trkpt lat="41.5505900" lon="2.1002130">
        <ele>193.7</ele>
        <time>2022-09-26T12:54:42Z</time>
      </trkpt>
      <trkpt lat="41.5505900" lon="2.1002130">
        <ele>193.7</ele>
        <time>2022-09-26T12:54:43Z</time>
      </trkpt>
      <trkpt lat="41.5505900" lon="2.1002130">
        <ele>193.7</ele>
        <time>2022-09-26T12:54:44Z</time>
      </trkpt>
      <trkpt lat="41.5505900" lon="2.1002130">
        <ele>193.7</ele>
        <time>2022-09-26T12:54:45Z</time>
      </trkpt>
      <trkpt lat="41.5505900" lon="2.1002130">
        <ele>193.7</ele>
        <time>2022-09-26T12:54:46Z</time>
      </trkpt>
      <trkpt lat="41.5505900" lon="2.1002130">
        <ele>193.7</ele>
        <time>2022-09-26T12:54:47Z</time>
      </trkpt>
      <trkpt lat="41.5505900" lon="2.1002130">
        <ele>193.7</ele>
        <time>2022-09-26T12:54:48Z</time>
      </trkpt>
      <trkpt lat="41.5505900" lon="2.1002130">
        <ele>193.7</ele>
        <time>2022-09-26T12:54:49Z</time>
      </trkpt>
      <trkpt lat="41.5505900" lon="2.1002130">
        <ele>193.7</ele>
        <time>2022-09-26T12:54:50Z</time>
      </trkpt>
      <trkpt lat="41.5505900" lon="2.1002130">
        <ele>193.7</ele>
        <time>2022-09-26T12:54:51Z</time>
      </trkpt>
      <trkpt lat="41.5505900" lon="2.1002130">
        <ele>193.7</ele>
        <time>2022-09-26T12:54:52Z</time>
      </trkpt>
      <trkpt lat="41.5505900" lon="2.1002130">
        <ele>193.7</ele>
        <time>2022-09-26T12:54:53Z</time>
      </trkpt>
      <trkpt lat="41.5505900" lon="2.1002130">
        <ele>193.7</ele>
        <time>2022-09-26T12:54:54Z</time>
      </trkpt>
      <trkpt lat="41.5505900" lon="2.1002130">
        <ele>193.7</ele>
        <time>2022-09-26T12:54:55Z</time>
      </trkpt>
      <trkpt lat="41.5505900" lon="2.1002130">
        <ele>193.7</ele>
        <time>2022-09-26T12:54:56Z</time>
      </trkpt>
      <trkpt lat="41.5505900" lon="2.1002130">
        <ele>193.7</ele>
        <time>2022-09-26T12:54:57Z</time>
      </trkpt>
      <trkpt lat="41.5505900" lon="2.1002130">
        <ele>193.7</ele>
        <time>2022-09-26T12:54:58Z</time>
      </trkpt>
      <trkpt lat="41.5505900" lon="2.1002130">
        <ele>193.7</ele>
        <time>2022-09-26T12:54:59Z</time>
      </trkpt>
      <trkpt lat="41.5505900" lon="2.1002160">
        <ele>193.7</ele>
        <time>2022-09-26T12:55:00Z</time>
      </trkpt>
      <trkpt lat="41.5505860" lon="2.1002120">
        <ele>193.7</ele>
        <time>2022-09-26T12:55:01Z</time>
      </trkpt>
      <trkpt lat="41.5505770" lon="2.1002020">
        <ele>193.7</ele>
        <time>2022-09-26T12:55:02Z</time>
      </trkpt>
      <trkpt lat="41.5505670" lon="2.1001860">
        <ele>193.7</ele>
        <time>2022-09-26T12:55:03Z</time>
      </trkpt>
      <trkpt lat="41.5505550" lon="2.1001530">
        <ele>193.7</ele>
        <time>2022-09-26T12:55:04Z</time>
      </trkpt>
      <trkpt lat="41.5505450" lon="2.1000940">
        <ele>193.6</ele>
        <time>2022-09-26T12:55:05Z</time>
      </trkpt>
      <trkpt lat="41.5505410" lon="2.1000690">
        <ele>193.6</ele>
        <time>2022-09-26T12:55:06Z</time>
      </trkpt>
      <trkpt lat="41.5505550" lon="2.1000450">
        <ele>193.6</ele>
        <time>2022-09-26T12:55:07Z</time>
      </trkpt>
      <trkpt lat="41.5505540" lon="2.1000250">
        <ele>193.6</ele>
        <time>2022-09-26T12:55:08Z</time>
      </trkpt>
      <trkpt lat="41.5505360" lon="2.0999660">
        <ele>193.5</ele>
        <time>2022-09-26T12:55:09Z</time>
      </trkpt>
      <trkpt lat="41.5505170" lon="2.0999030">
        <ele>193.4</ele>
        <time>2022-09-26T12:55:10Z</time>
      </trkpt>
      <trkpt lat="41.5504940" lon="2.0998330">
        <ele>193.4</ele>
        <time>2022-09-26T12:55:11Z</time>
      </trkpt>
      <trkpt lat="41.5504770" lon="2.0997680">
        <ele>193.3</ele>
        <time>2022-09-26T12:55:12Z</time>
      </trkpt>
      <trkpt lat="41.5504580" lon="2.0997080">
        <ele>193.3</ele>
        <time>2022-09-26T12:55:13Z</time>
      </trkpt>
      <trkpt lat="41.5504450" lon="2.0996570">
        <ele>193.3</ele>
        <time>2022-09-26T12:55:14Z</time>
      </trkpt>
      <trkpt lat="41.5504200" lon="2.0995750">
        <ele>193.2</ele>
        <time>2022-09-26T12:55:15Z</time>
      </trkpt>
      <trkpt lat="41.5503970" lon="2.0995100">
        <ele>193.2</ele>
        <time>2022-09-26T12:55:16Z</time>
      </trkpt>
      <trkpt lat="41.5503790" lon="2.0994500">
        <ele>193.2</ele>
        <time>2022-09-26T12:55:17Z</time>
      </trkpt>
      <trkpt lat="41.5503630" lon="2.0993910">
        <ele>193.1</ele>
        <time>2022-09-26T12:55:18Z</time>
      </trkpt>
      <trkpt lat="41.5503510" lon="2.0993310">
        <ele>193.1</ele>
        <time>2022-09-26T12:55:19Z</time>
      </trkpt>
      <trkpt lat="41.5503400" lon="2.0992670">
        <ele>193.1</ele>
        <time>2022-09-26T12:55:20Z</time>
      </trkpt>
      <trkpt lat="41.5503220" lon="2.0992020">
        <ele>193.1</ele>
        <time>2022-09-26T12:55:21Z</time>
      </trkpt>
      <trkpt lat="41.5503040" lon="2.0991410">
        <ele>193.0</ele>
        <time>2022-09-26T12:55:22Z</time>
      </trkpt>
      <trkpt lat="41.5502920" lon="2.0990760">
        <ele>193.0</ele>
        <time>2022-09-26T12:55:23Z</time>
      </trkpt>
      <trkpt lat="41.5502920" lon="2.0989930">
        <ele>193.0</ele>
        <time>2022-09-26T12:55:24Z</time>
      </trkpt>
      <trkpt lat="41.5502870" lon="2.0989220">
        <ele>193.0</ele>
        <time>2022-09-26T12:55:25Z</time>
      </trkpt>
      <trkpt lat="41.5502970" lon="2.0988840">
        <ele>193.1</ele>
        <time>2022-09-26T12:55:26Z</time>
      </trkpt>
      <trkpt lat="41.5503080" lon="2.0988070">
        <ele>193.1</ele>
        <time>2022-09-26T12:55:27Z</time>
      </trkpt>
      <trkpt lat="41.5503100" lon="2.0987490">
        <ele>193.1</ele>
        <time>2022-09-26T12:55:28Z</time>
      </trkpt>
      <trkpt lat="41.5503100" lon="2.0986980">
        <ele>193.1</ele>
        <time>2022-09-26T12:55:29Z</time>
      </trkpt>
      <trkpt lat="41.5503300" lon="2.0986270">
        <ele>193.1</ele>
        <time>2022-09-26T12:55:30Z</time>
      </trkpt>
      <trkpt lat="41.5503560" lon="2.0985580">
        <ele>193.1</ele>
        <time>2022-09-26T12:55:31Z</time>
      </trkpt>
      <trkpt lat="41.5503840" lon="2.0984810">
        <ele>193.3</ele>
        <time>2022-09-26T12:55:32Z</time>
      </trkpt>
      <trkpt lat="41.5504000" lon="2.0984100">
        <ele>193.3</ele>
        <time>2022-09-26T12:55:33Z</time>
      </trkpt>
      <trkpt lat="41.5504170" lon="2.0983410">
        <ele>193.3</ele>
        <time>2022-09-26T12:55:34Z</time>
      </trkpt>
      <trkpt lat="41.5504280" lon="2.0982720">
        <ele>193.3</ele>
        <time>2022-09-26T12:55:35Z</time>
      </trkpt>
      <trkpt lat="41.5504300" lon="2.0982000">
        <ele>193.4</ele>
        <time>2022-09-26T12:55:36Z</time>
      </trkpt>
      <trkpt lat="41.5504210" lon="2.0981370">
        <ele>193.4</ele>
        <time>2022-09-26T12:55:37Z</time>
      </trkpt>
      <trkpt lat="41.5504030" lon="2.0980670">
        <ele>193.4</ele>
        <time>2022-09-26T12:55:38Z</time>
      </trkpt>
      <trkpt lat="41.5503770" lon="2.0980020">
        <ele>193.4</ele>
        <time>2022-09-26T12:55:39Z</time>
      </trkpt>
      <trkpt lat="41.5503490" lon="2.0979410">
        <ele>193.4</ele>
        <time>2022-09-26T12:55:40Z</time>
      </trkpt>
      <trkpt lat="41.5503210" lon="2.0978870">
        <ele>193.5</ele>
        <time>2022-09-26T12:55:41Z</time>
      </trkpt>
      <trkpt lat="41.5503000" lon="2.0978300">
        <ele>193.6</ele>
        <time>2022-09-26T12:55:42Z</time>
      </trkpt>
      <trkpt lat="41.5502830" lon="2.0977710">
        <ele>193.6</ele>
        <time>2022-09-26T12:55:43Z</time>
      </trkpt>
      <trkpt lat="41.5502700" lon="2.0977120">
        <ele>193.7</ele>
        <time>2022-09-26T12:55:44Z</time>
      </trkpt>
      <trkpt lat="41.5502670" lon="2.0976490">
        <ele>193.8</ele>
        <time>2022-09-26T12:55:45Z</time>
      </trkpt>
      <trkpt lat="41.5502730" lon="2.0975910">
        <ele>193.9</ele>
        <time>2022-09-26T12:55:46Z</time>
      </trkpt>
      <trkpt lat="41.5502790" lon="2.0975460">
        <ele>193.9</ele>
        <time>2022-09-26T12:55:47Z</time>
      </trkpt>
      <trkpt lat="41.5502860" lon="2.0974820">
        <ele>194.0</ele>
        <time>2022-09-26T12:55:48Z</time>
      </trkpt>
      <trkpt lat="41.5502930" lon="2.0974300">
        <ele>194.1</ele>
        <time>2022-09-26T12:55:49Z</time>
      </trkpt>
      <trkpt lat="41.5503030" lon="2.0973840">
        <ele>194.1</ele>
        <time>2022-09-26T12:55:50Z</time>
      </trkpt>
      <trkpt lat="41.5503180" lon="2.0973270">
        <ele>194.2</ele>
        <time>2022-09-26T12:55:51Z</time>
      </trkpt>
      <trkpt lat="41.5503150" lon="2.0972800">
        <ele>194.3</ele>
        <time>2022-09-26T12:55:52Z</time>
      </trkpt>
      <trkpt lat="41.5503110" lon="2.0972680">
        <ele>194.4</ele>
        <time>2022-09-26T12:55:53Z</time>
      </trkpt>
      <trkpt lat="41.5503420" lon="2.0971670">
        <ele>194.9</ele>
        <time>2022-09-26T12:55:55Z</time>
      </trkpt>
      <trkpt lat="41.5503560" lon="2.0971100">
        <ele>195.2</ele>
        <time>2022-09-26T12:55:56Z</time>
      </trkpt>
      <trkpt lat="41.5503660" lon="2.0970630">
        <ele>195.4</ele>
        <time>2022-09-26T12:55:57Z</time>
      </trkpt>
      <trkpt lat="41.5503750" lon="2.0970160">
        <ele>195.6</ele>
        <time>2022-09-26T12:55:58Z</time>
      </trkpt>
      <trkpt lat="41.5503840" lon="2.0969440">
        <ele>196.0</ele>
        <time>2022-09-26T12:56:00Z</time>
      </trkpt>
      <trkpt lat="41.5503930" lon="2.0968970">
        <ele>196.2</ele>
        <time>2022-09-26T12:56:01Z</time>
      </trkpt>
      <trkpt lat="41.5503990" lon="2.0968520">
        <ele>196.4</ele>
        <time>2022-09-26T12:56:02Z</time>
      </trkpt>
      <trkpt lat="41.5504060" lon="2.0968020">
        <ele>196.7</ele>
        <time>2022-09-26T12:56:03Z</time>
      </trkpt>
      <trkpt lat="41.5504080" lon="2.0967810">
        <ele>196.8</ele>
        <time>2022-09-26T12:56:04Z</time>
      </trkpt>
      <trkpt lat="41.5504240" lon="2.0967040">
        <ele>197.1</ele>
        <time>2022-09-26T12:56:06Z</time>
      </trkpt>
      <trkpt lat="41.5504360" lon="2.0966510">
        <ele>197.4</ele>
        <time>2022-09-26T12:56:07Z</time>
      </trkpt>
      <trkpt lat="41.5504430" lon="2.0966050">
        <ele>197.6</ele>
        <time>2022-09-26T12:56:08Z</time>
      </trkpt>
      <trkpt lat="41.5504470" lon="2.0965760">
        <ele>197.8</ele>
        <time>2022-09-26T12:56:09Z</time>
      </trkpt>
      <trkpt lat="41.5504570" lon="2.0965140">
        <ele>198.1</ele>
        <time>2022-09-26T12:56:11Z</time>
      </trkpt>
      <trkpt lat="41.5504650" lon="2.0964770">
        <ele>198.3</ele>
        <time>2022-09-26T12:56:12Z</time>
      </trkpt>
      <trkpt lat="41.5504700" lon="2.0964360">
        <ele>198.6</ele>
        <time>2022-09-26T12:56:13Z</time>
      </trkpt>
      <trkpt lat="41.5504790" lon="2.0963950">
        <ele>198.8</ele>
        <time>2022-09-26T12:56:14Z</time>
      </trkpt>
      <trkpt lat="41.5504890" lon="2.0963550">
        <ele>199.0</ele>
        <time>2022-09-26T12:56:15Z</time>
      </trkpt>
      <trkpt lat="41.5504930" lon="2.0963440">
        <ele>199.1</ele>
        <time>2022-09-26T12:56:16Z</time>
      </trkpt>
      <trkpt lat="41.5505000" lon="2.0963030">
        <ele>199.3</ele>
        <time>2022-09-26T12:56:17Z</time>
      </trkpt>
      <trkpt lat="41.5505020" lon="2.0962890">
        <ele>199.4</ele>
        <time>2022-09-26T12:56:18Z</time>
      </trkpt>
      <trkpt lat="41.5505100" lon="2.0962530">
        <ele>199.6</ele>
        <time>2022-09-26T12:56:19Z</time>
      </trkpt>
      <trkpt lat="41.5505130" lon="2.0962400">
        <ele>199.7</ele>
        <time>2022-09-26T12:56:20Z</time>
      </trkpt>
      <trkpt lat="41.5505170" lon="2.0962190">
        <ele>199.8</ele>
        <time>2022-09-26T12:56:21Z</time>
      </trkpt>
      <trkpt lat="41.5505220" lon="2.0961970">
        <ele>199.9</ele>
        <time>2022-09-26T12:56:22Z</time>
      </trkpt>
      <trkpt lat="41.5505300" lon="2.0961610">
        <ele>200.1</ele>
        <time>2022-09-26T12:56:23Z</time>
      </trkpt>
      <trkpt lat="41.5505320" lon="2.0961480">
        <ele>200.2</ele>
        <time>2022-09-26T12:56:24Z</time>
      </trkpt>
      <trkpt lat="41.5505390" lon="2.0961100">
        <ele>200.4</ele>
        <time>2022-09-26T12:56:25Z</time>
      </trkpt>
      <trkpt lat="41.5505390" lon="2.0960980">
        <ele>200.5</ele>
        <time>2022-09-26T12:56:26Z</time>
      </trkpt>
      <trkpt lat="41.5505400" lon="2.0960800">
        <ele>200.6</ele>
        <time>2022-09-26T12:56:27Z</time>
      </trkpt>
      <trkpt lat="41.5505420" lon="2.0960600">
        <ele>200.7</ele>
        <time>2022-09-26T12:56:28Z</time>
      </trkpt>
      <trkpt lat="41.5505480" lon="2.0960440">
        <ele>200.8</ele>
        <time>2022-09-26T12:56:29Z</time>
      </trkpt>
      <trkpt lat="41.5505530" lon="2.0960230">
        <ele>200.9</ele>
        <time>2022-09-26T12:56:30Z</time>
      </trkpt>
      <trkpt lat="41.5505570" lon="2.0960020">
        <ele>201.0</ele>
        <time>2022-09-26T12:56:31Z</time>
      </trkpt>
      <trkpt lat="41.5505640" lon="2.0959800">
        <ele>201.1</ele>
        <time>2022-09-26T12:56:32Z</time>
      </trkpt>
      <trkpt lat="41.5505670" lon="2.0959620">
        <ele>201.2</ele>
        <time>2022-09-26T12:56:33Z</time>
      </trkpt>
      <trkpt lat="41.5505720" lon="2.0959430">
        <ele>201.3</ele>
        <time>2022-09-26T12:56:34Z</time>
      </trkpt>
      <trkpt lat="41.5505790" lon="2.0959070">
        <ele>201.5</ele>
        <time>2022-09-26T12:56:36Z</time>
      </trkpt>
      <trkpt lat="41.5505880" lon="2.0958700">
        <ele>201.7</ele>
        <time>2022-09-26T12:56:37Z</time>
      </trkpt>
      <trkpt lat="41.5505930" lon="2.0958310">
        <ele>201.9</ele>
        <time>2022-09-26T12:56:38Z</time>
      </trkpt>
      <trkpt lat="41.5505950" lon="2.0958170">
        <ele>202.0</ele>
        <time>2022-09-26T12:56:39Z</time>
      </trkpt>
      <trkpt lat="41.5506030" lon="2.0957800">
        <ele>202.2</ele>
        <time>2022-09-26T12:56:40Z</time>
      </trkpt>
      <trkpt lat="41.5506060" lon="2.0957660">
        <ele>202.3</ele>
        <time>2022-09-26T12:56:41Z</time>
      </trkpt>
      <trkpt lat="41.5506160" lon="2.0957310">
        <ele>202.5</ele>
        <time>2022-09-26T12:56:42Z</time>
      </trkpt>
      <trkpt lat="41.5506200" lon="2.0957190">
        <ele>202.5</ele>
        <time>2022-09-26T12:56:43Z</time>
      </trkpt>
      <trkpt lat="41.5506300" lon="2.0956780">
        <ele>202.7</ele>
        <time>2022-09-26T12:56:44Z</time>
      </trkpt>
      <trkpt lat="41.5506320" lon="2.0956620">
        <ele>202.7</ele>
        <time>2022-09-26T12:56:45Z</time>
      </trkpt>
      <trkpt lat="41.5506410" lon="2.0956230">
        <ele>202.8</ele>
        <time>2022-09-26T12:56:46Z</time>
      </trkpt>
      <trkpt lat="41.5506440" lon="2.0956090">
        <ele>202.8</ele>
        <time>2022-09-26T12:56:47Z</time>
      </trkpt>
      <trkpt lat="41.5506500" lon="2.0955620">
        <ele>202.9</ele>
        <time>2022-09-26T12:56:48Z</time>
      </trkpt>
      <trkpt lat="41.5506540" lon="2.0955470">
        <ele>202.9</ele>
        <time>2022-09-26T12:56:49Z</time>
      </trkpt>
      <trkpt lat="41.5506580" lon="2.0955270">
        <ele>203.0</ele>
        <time>2022-09-26T12:56:50Z</time>
      </trkpt>
      <trkpt lat="41.5506620" lon="2.0955030">
        <ele>203.0</ele>
        <time>2022-09-26T12:56:51Z</time>
      </trkpt>
      <trkpt lat="41.5506720" lon="2.0954590">
        <ele>203.1</ele>
        <time>2022-09-26T12:56:52Z</time>
      </trkpt>
      <trkpt lat="41.5506750" lon="2.0954430">
        <ele>203.1</ele>
        <time>2022-09-26T12:56:53Z</time>
      </trkpt>
      <trkpt lat="41.5506830" lon="2.0954000">
        <ele>203.3</ele>
        <time>2022-09-26T12:56:54Z</time>
      </trkpt>
      <trkpt lat="41.5506840" lon="2.0953900">
        <ele>203.3</ele>
        <time>2022-09-26T12:56:55Z</time>
      </trkpt>
      <trkpt lat="41.5506950" lon="2.0953400">
        <ele>203.4</ele>
        <time>2022-09-26T12:56:57Z</time>
      </trkpt>
      <trkpt lat="41.5507010" lon="2.0952970">
        <ele>203.6</ele>
        <time>2022-09-26T12:56:58Z</time>
      </trkpt>
      <trkpt lat="41.5507010" lon="2.0952830">
        <ele>203.6</ele>
        <time>2022-09-26T12:56:59Z</time>
      </trkpt>
      <trkpt lat="41.5506980" lon="2.0952650">
        <ele>203.7</ele>
        <time>2022-09-26T12:57:00Z</time>
      </trkpt>
      <trkpt lat="41.5506980" lon="2.0952360">
        <ele>203.8</ele>
        <time>2022-09-26T12:57:01Z</time>
      </trkpt>
      <trkpt lat="41.5506890" lon="2.0951610">
        <ele>204.1</ele>
        <time>2022-09-26T12:57:03Z</time>
      </trkpt>
      <trkpt lat="41.5506880" lon="2.0951210">
        <ele>204.2</ele>
        <time>2022-09-26T12:57:04Z</time>
      </trkpt>
      <trkpt lat="41.5506790" lon="2.0950810">
        <ele>204.3</ele>
        <time>2022-09-26T12:57:05Z</time>
      </trkpt>
      <trkpt lat="41.5506740" lon="2.0950670">
        <ele>204.3</ele>
        <time>2022-09-26T12:57:06Z</time>
      </trkpt>
      <trkpt lat="41.5506530" lon="2.0950420">
        <ele>204.4</ele>
        <time>2022-09-26T12:57:07Z</time>
      </trkpt>
      <trkpt lat="41.5506230" lon="2.0950310">
        <ele>204.4</ele>
        <time>2022-09-26T12:57:08Z</time>
      </trkpt>
      <trkpt lat="41.5505890" lon="2.0950200">
        <ele>204.5</ele>
        <time>2022-09-26T12:57:09Z</time>
      </trkpt>
      <trkpt lat="41.5505530" lon="2.0950220">
        <ele>204.6</ele>
        <time>2022-09-26T12:57:10Z</time>
      </trkpt>
      <trkpt lat="41.5505230" lon="2.0950290">
        <ele>204.6</ele>
        <time>2022-09-26T12:57:11Z</time>
      </trkpt>
      <trkpt lat="41.5504870" lon="2.0950290">
        <ele>204.5</ele>
        <time>2022-09-26T12:57:12Z</time>
      </trkpt>
      <trkpt lat="41.5504460" lon="2.0950280">
        <ele>204.4</ele>
        <time>2022-09-26T12:57:13Z</time>
      </trkpt>
      <trkpt lat="41.5504000" lon="2.0950360">
        <ele>204.1</ele>
        <time>2022-09-26T12:57:14Z</time>
      </trkpt>
      <trkpt lat="41.5503470" lon="2.0950410">
        <ele>204.0</ele>
        <time>2022-09-26T12:57:15Z</time>
      </trkpt>
      <trkpt lat="41.5502940" lon="2.0950400">
        <ele>203.9</ele>
        <time>2022-09-26T12:57:16Z</time>
      </trkpt>
      <trkpt lat="41.5502390" lon="2.0950390">
        <ele>203.7</ele>
        <time>2022-09-26T12:57:17Z</time>
      </trkpt>
      <trkpt lat="41.5501880" lon="2.0950340">
        <ele>203.6</ele>
        <time>2022-09-26T12:57:18Z</time>
      </trkpt>
      <trkpt lat="41.5501390" lon="2.0950260">
        <ele>203.5</ele>
        <time>2022-09-26T12:57:19Z</time>
      </trkpt>
      <trkpt lat="41.5500880" lon="2.0950170">
        <ele>203.3</ele>
        <time>2022-09-26T12:57:20Z</time>
      </trkpt>
      <trkpt lat="41.5500360" lon="2.0950100">
        <ele>203.2</ele>
        <time>2022-09-26T12:57:21Z</time>
      </trkpt>
      <trkpt lat="41.5499800" lon="2.0950020">
        <ele>203.0</ele>
        <time>2022-09-26T12:57:22Z</time>
      </trkpt>
      <trkpt lat="41.5499250" lon="2.0949960">
        <ele>202.8</ele>
        <time>2022-09-26T12:57:23Z</time>
      </trkpt>
      <trkpt lat="41.5498700" lon="2.0949870">
        <ele>202.6</ele>
        <time>2022-09-26T12:57:24Z</time>
      </trkpt>
      <trkpt lat="41.5498150" lon="2.0949770">
        <ele>202.4</ele>
        <time>2022-09-26T12:57:25Z</time>
      </trkpt>
      <trkpt lat="41.5497570" lon="2.0949670">
        <ele>202.3</ele>
        <time>2022-09-26T12:57:26Z</time>
      </trkpt>
      <trkpt lat="41.5496980" lon="2.0949570">
        <ele>202.1</ele>
        <time>2022-09-26T12:57:27Z</time>
      </trkpt>
      <trkpt lat="41.5496410" lon="2.0949490">
        <ele>201.9</ele>
        <time>2022-09-26T12:57:28Z</time>
      </trkpt>
      <trkpt lat="41.5495850" lon="2.0949400">
        <ele>201.8</ele>
        <time>2022-09-26T12:57:29Z</time>
      </trkpt>
      <trkpt lat="41.5495280" lon="2.0949330">
        <ele>201.6</ele>
        <time>2022-09-26T12:57:30Z</time>
      </trkpt>
      <trkpt lat="41.5494680" lon="2.0949300">
        <ele>201.5</ele>
        <time>2022-09-26T12:57:31Z</time>
      </trkpt>
      <trkpt lat="41.5494110" lon="2.0949210">
        <ele>201.3</ele>
        <time>2022-09-26T12:57:32Z</time>
      </trkpt>
      <trkpt lat="41.5493500" lon="2.0949130">
        <ele>201.1</ele>
        <time>2022-09-26T12:57:33Z</time>
      </trkpt>
      <trkpt lat="41.5492920" lon="2.0949030">
        <ele>201.0</ele>
        <time>2022-09-26T12:57:34Z</time>
      </trkpt>
      <trkpt lat="41.5492340" lon="2.0948930">
        <ele>200.8</ele>
        <time>2022-09-26T12:57:35Z</time>
      </trkpt>
      <trkpt lat="41.5491760" lon="2.0948850">
        <ele>200.6</ele>
        <time>2022-09-26T12:57:36Z</time>
      </trkpt>
      <trkpt lat="41.5491170" lon="2.0948810">
        <ele>200.5</ele>
        <time>2022-09-26T12:57:37Z</time>
      </trkpt>
      <trkpt lat="41.5490590" lon="2.0948790">
        <ele>200.3</ele>
        <time>2022-09-26T12:57:38Z</time>
      </trkpt>
      <trkpt lat="41.5490010" lon="2.0948710">
        <ele>200.2</ele>
        <time>2022-09-26T12:57:39Z</time>
      </trkpt>
      <trkpt lat="41.5489450" lon="2.0948590">
        <ele>200.0</ele>
        <time>2022-09-26T12:57:40Z</time>
      </trkpt>
      <trkpt lat="41.5488900" lon="2.0948420">
        <ele>199.9</ele>
        <time>2022-09-26T12:57:41Z</time>
      </trkpt>
      <trkpt lat="41.5488330" lon="2.0948260">
        <ele>199.7</ele>
        <time>2022-09-26T12:57:42Z</time>
      </trkpt>
      <trkpt lat="41.5487750" lon="2.0948110">
        <ele>199.6</ele>
        <time>2022-09-26T12:57:43Z</time>
      </trkpt>
      <trkpt lat="41.5487150" lon="2.0947930">
        <ele>199.4</ele>
        <time>2022-09-26T12:57:44Z</time>
      </trkpt>
      <trkpt lat="41.5486610" lon="2.0947750">
        <ele>199.3</ele>
        <time>2022-09-26T12:57:45Z</time>
      </trkpt>
      <trkpt lat="41.5486160" lon="2.0947630">
        <ele>199.2</ele>
        <time>2022-09-26T12:57:46Z</time>
      </trkpt>
      <trkpt lat="41.5485850" lon="2.0947560">
        <ele>199.1</ele>
        <time>2022-09-26T12:57:47Z</time>
      </trkpt>
      <trkpt lat="41.5485620" lon="2.0947520">
        <ele>199.0</ele>
        <time>2022-09-26T12:57:48Z</time>
      </trkpt>
      <trkpt lat="41.5485490" lon="2.0947490">
        <ele>199.0</ele>
        <time>2022-09-26T12:57:49Z</time>
      </trkpt>
      <trkpt lat="41.5485420" lon="2.0947440">
        <ele>199.0</ele>
        <time>2022-09-26T12:57:50Z</time>
      </trkpt>
      <trkpt lat="41.5485360" lon="2.0947430">
        <ele>198.9</ele>
        <time>2022-09-26T12:57:51Z</time>
      </trkpt>
      <trkpt lat="41.5485310" lon="2.0947420">
        <ele>198.9</ele>
        <time>2022-09-26T12:57:52Z</time>
      </trkpt>
      <trkpt lat="41.5485250" lon="2.0947410">
        <ele>198.9</ele>
        <time>2022-09-26T12:57:53Z</time>
      </trkpt>
      <trkpt lat="41.5485200" lon="2.0947390">
        <ele>198.9</ele>
        <time>2022-09-26T12:57:54Z</time>
      </trkpt>
      <trkpt lat="41.5485140" lon="2.0947380">
        <ele>198.9</ele>
        <time>2022-09-26T12:57:55Z</time>
      </trkpt>
      <trkpt lat="41.5485090" lon="2.0947370">
        <ele>198.9</ele>
        <time>2022-09-26T12:57:56Z</time>
      </trkpt>
      <trkpt lat="41.5485030" lon="2.0947360">
        <ele>198.8</ele>
        <time>2022-09-26T12:57:57Z</time>
      </trkpt>
      <trkpt lat="41.5484970" lon="2.0947340">
        <ele>198.8</ele>
        <time>2022-09-26T12:57:58Z</time>
      </trkpt>
      <trkpt lat="41.5484920" lon="2.0947330">
        <ele>198.8</ele>
        <time>2022-09-26T12:57:59Z</time>
      </trkpt>
      <trkpt lat="41.5484610" lon="2.0947300">
        <ele>198.7</ele>
        <time>2022-09-26T12:58:00Z</time>
      </trkpt>
      <trkpt lat="41.5484230" lon="2.0947340">
        <ele>198.6</ele>
        <time>2022-09-26T12:58:01Z</time>
      </trkpt>
      <trkpt lat="41.5483790" lon="2.0947300">
        <ele>198.5</ele>
        <time>2022-09-26T12:58:02Z</time>
      </trkpt>
      <trkpt lat="41.5482970" lon="2.0947090">
        <ele>198.4</ele>
        <time>2022-09-26T12:58:04Z</time>
      </trkpt>
      <trkpt lat="41.5482380" lon="2.0946940">
        <ele>198.4</ele>
        <time>2022-09-26T12:58:05Z</time>
      </trkpt>
      <trkpt lat="41.5481910" lon="2.0946900">
        <ele>198.3</ele>
        <time>2022-09-26T12:58:06Z</time>
      </trkpt>
      <trkpt lat="41.5481390" lon="2.0946830">
        <ele>198.1</ele>
        <time>2022-09-26T12:58:07Z</time>
      </trkpt>
      <trkpt lat="41.5480900" lon="2.0946760">
        <ele>198.0</ele>
        <time>2022-09-26T12:58:08Z</time>
      </trkpt>
      <trkpt lat="41.5480350" lon="2.0946710">
        <ele>197.9</ele>
        <time>2022-09-26T12:58:09Z</time>
      </trkpt>
      <trkpt lat="41.5479780" lon="2.0946670">
        <ele>197.7</ele>
        <time>2022-09-26T12:58:10Z</time>
      </trkpt>
      <trkpt lat="41.5479210" lon="2.0946570">
        <ele>197.6</ele>
        <time>2022-09-26T12:58:11Z</time>
      </trkpt>
      <trkpt lat="41.5478580" lon="2.0946510">
        <ele>197.4</ele>
        <time>2022-09-26T12:58:12Z</time>
      </trkpt>
      <trkpt lat="41.5477960" lon="2.0946410">
        <ele>197.2</ele>
        <time>2022-09-26T12:58:13Z</time>
      </trkpt>
      <trkpt lat="41.5477320" lon="2.0946330">
        <ele>197.1</ele>
        <time>2022-09-26T12:58:14Z</time>
      </trkpt>
      <trkpt lat="41.5476750" lon="2.0946260">
        <ele>196.9</ele>
        <time>2022-09-26T12:58:15Z</time>
      </trkpt>
      <trkpt lat="41.5476170" lon="2.0946200">
        <ele>196.8</ele>
        <time>2022-09-26T12:58:16Z</time>
      </trkpt>
      <trkpt lat="41.5475580" lon="2.0946130">
        <ele>196.6</ele>
        <time>2022-09-26T12:58:17Z</time>
      </trkpt>
      <trkpt lat="41.5475030" lon="2.0946000">
        <ele>196.5</ele>
        <time>2022-09-26T12:58:18Z</time>
      </trkpt>
      <trkpt lat="41.5474460" lon="2.0945890">
        <ele>196.4</ele>
        <time>2022-09-26T12:58:19Z</time>
      </trkpt>
      <trkpt lat="41.5473880" lon="2.0945780">
        <ele>196.3</ele>
        <time>2022-09-26T12:58:20Z</time>
      </trkpt>
      <trkpt lat="41.5473270" lon="2.0945680">
        <ele>196.1</ele>
        <time>2022-09-26T12:58:21Z</time>
      </trkpt>
      <trkpt lat="41.5472660" lon="2.0945550">
        <ele>196.0</ele>
        <time>2022-09-26T12:58:22Z</time>
      </trkpt>
      <trkpt lat="41.5472040" lon="2.0945420">
        <ele>195.9</ele>
        <time>2022-09-26T12:58:23Z</time>
      </trkpt>
      <trkpt lat="41.5471420" lon="2.0945330">
        <ele>195.8</ele>
        <time>2022-09-26T12:58:24Z</time>
      </trkpt>
      <trkpt lat="41.5470770" lon="2.0945260">
        <ele>195.7</ele>
        <time>2022-09-26T12:58:25Z</time>
      </trkpt>
      <trkpt lat="41.5470140" lon="2.0945180">
        <ele>195.6</ele>
        <time>2022-09-26T12:58:26Z</time>
      </trkpt>
      <trkpt lat="41.5469510" lon="2.0945100">
        <ele>195.5</ele>
        <time>2022-09-26T12:58:27Z</time>
      </trkpt>
      <trkpt lat="41.5468870" lon="2.0945020">
        <ele>195.4</ele>
        <time>2022-09-26T12:58:28Z</time>
      </trkpt>
      <trkpt lat="41.5468250" lon="2.0944890">
        <ele>195.3</ele>
        <time>2022-09-26T12:58:29Z</time>
      </trkpt>
      <trkpt lat="41.5467610" lon="2.0944770">
        <ele>195.2</ele>
        <time>2022-09-26T12:58:30Z</time>
      </trkpt>
      <trkpt lat="41.5466990" lon="2.0944670">
        <ele>195.1</ele>
        <time>2022-09-26T12:58:31Z</time>
      </trkpt>
      <trkpt lat="41.5466350" lon="2.0944600">
        <ele>195.0</ele>
        <time>2022-09-26T12:58:32Z</time>
      </trkpt>
      <trkpt lat="41.5465700" lon="2.0944500">
        <ele>194.9</ele>
        <time>2022-09-26T12:58:33Z</time>
      </trkpt>
      <trkpt lat="41.5465050" lon="2.0944330">
        <ele>194.8</ele>
        <time>2022-09-26T12:58:34Z</time>
      </trkpt>
      <trkpt lat="41.5464410" lon="2.0944140">
        <ele>194.7</ele>
        <time>2022-09-26T12:58:35Z</time>
      </trkpt>
      <trkpt lat="41.5463760" lon="2.0943920">
        <ele>194.7</ele>
        <time>2022-09-26T12:58:36Z</time>
      </trkpt>
      <trkpt lat="41.5463120" lon="2.0943760">
        <ele>194.6</ele>
        <time>2022-09-26T12:58:37Z</time>
      </trkpt>
      <trkpt lat="41.5462520" lon="2.0943690">
        <ele>194.5</ele>
        <time>2022-09-26T12:58:38Z</time>
      </trkpt>
      <trkpt lat="41.5461920" lon="2.0943630">
        <ele>194.5</ele>
        <time>2022-09-26T12:58:39Z</time>
      </trkpt>
      <trkpt lat="41.5461310" lon="2.0943580">
        <ele>194.4</ele>
        <time>2022-09-26T12:58:40Z</time>
      </trkpt>
      <trkpt lat="41.5460700" lon="2.0943490">
        <ele>194.3</ele>
        <time>2022-09-26T12:58:41Z</time>
      </trkpt>
      <trkpt lat="41.5460070" lon="2.0943400">
        <ele>194.2</ele>
        <time>2022-09-26T12:58:42Z</time>
      </trkpt>
      <trkpt lat="41.5459460" lon="2.0943300">
        <ele>194.1</ele>
        <time>2022-09-26T12:58:43Z</time>
      </trkpt>
      <trkpt lat="41.5458860" lon="2.0943160">
        <ele>194.0</ele>
        <time>2022-09-26T12:58:44Z</time>
      </trkpt>
      <trkpt lat="41.5458250" lon="2.0943050">
        <ele>193.9</ele>
        <time>2022-09-26T12:58:45Z</time>
      </trkpt>
      <trkpt lat="41.5457670" lon="2.0942930">
        <ele>193.8</ele>
        <time>2022-09-26T12:58:46Z</time>
      </trkpt>
      <trkpt lat="41.5457050" lon="2.0942760">
        <ele>193.6</ele>
        <time>2022-09-26T12:58:47Z</time>
      </trkpt>
      <trkpt lat="41.5456440" lon="2.0942620">
        <ele>193.5</ele>
        <time>2022-09-26T12:58:48Z</time>
      </trkpt>
      <trkpt lat="41.5455840" lon="2.0942500">
        <ele>193.4</ele>
        <time>2022-09-26T12:58:49Z</time>
      </trkpt>
      <trkpt lat="41.5455250" lon="2.0942430">
        <ele>193.3</ele>
        <time>2022-09-26T12:58:50Z</time>
      </trkpt>
      <trkpt lat="41.5454660" lon="2.0942350">
        <ele>193.2</ele>
        <time>2022-09-26T12:58:51Z</time>
      </trkpt>
      <trkpt lat="41.5454080" lon="2.0942290">
        <ele>193.2</ele>
        <time>2022-09-26T12:58:52Z</time>
      </trkpt>
      <trkpt lat="41.5453490" lon="2.0942250">
        <ele>193.1</ele>
        <time>2022-09-26T12:58:53Z</time>
      </trkpt>
      <trkpt lat="41.5452880" lon="2.0942180">
        <ele>193.0</ele>
        <time>2022-09-26T12:58:54Z</time>
      </trkpt>
      <trkpt lat="41.5452290" lon="2.0942110">
        <ele>192.9</ele>
        <time>2022-09-26T12:58:55Z</time>
      </trkpt>
      <trkpt lat="41.5451690" lon="2.0942050">
        <ele>192.8</ele>
        <time>2022-09-26T12:58:56Z</time>
      </trkpt>
      <trkpt lat="41.5451150" lon="2.0941950">
        <ele>192.8</ele>
        <time>2022-09-26T12:58:57Z</time>
      </trkpt>
      <trkpt lat="41.5450590" lon="2.0941840">
        <ele>192.7</ele>
        <time>2022-09-26T12:58:58Z</time>
      </trkpt>
      <trkpt lat="41.5450060" lon="2.0941790">
        <ele>192.7</ele>
        <time>2022-09-26T12:58:59Z</time>
      </trkpt>
      <trkpt lat="41.5449510" lon="2.0941750">
        <ele>192.7</ele>
        <time>2022-09-26T12:59:00Z</time>
      </trkpt>
      <trkpt lat="41.5448970" lon="2.0941660">
        <ele>192.7</ele>
        <time>2022-09-26T12:59:01Z</time>
      </trkpt>
      <trkpt lat="41.5448450" lon="2.0941580">
        <ele>192.7</ele>
        <time>2022-09-26T12:59:02Z</time>
      </trkpt>
      <trkpt lat="41.5447890" lon="2.0941490">
        <ele>192.7</ele>
        <time>2022-09-26T12:59:03Z</time>
      </trkpt>
      <trkpt lat="41.5447370" lon="2.0941410">
        <ele>192.7</ele>
        <time>2022-09-26T12:59:04Z</time>
      </trkpt>
      <trkpt lat="41.5446850" lon="2.0941340">
        <ele>192.7</ele>
        <time>2022-09-26T12:59:05Z</time>
      </trkpt>
      <trkpt lat="41.5446360" lon="2.0941270">
        <ele>192.7</ele>
        <time>2022-09-26T12:59:06Z</time>
      </trkpt>
      <trkpt lat="41.5445850" lon="2.0941220">
        <ele>192.6</ele>
        <time>2022-09-26T12:59:07Z</time>
      </trkpt>
      <trkpt lat="41.5445360" lon="2.0941160">
        <ele>192.5</ele>
        <time>2022-09-26T12:59:08Z</time>
      </trkpt>
      <trkpt lat="41.5444850" lon="2.0941090">
        <ele>192.4</ele>
        <time>2022-09-26T12:59:09Z</time>
      </trkpt>
      <trkpt lat="41.5444350" lon="2.0940980">
        <ele>192.3</ele>
        <time>2022-09-26T12:59:10Z</time>
      </trkpt>
      <trkpt lat="41.5443810" lon="2.0940890">
        <ele>192.3</ele>
        <time>2022-09-26T12:59:11Z</time>
      </trkpt>
      <trkpt lat="41.5443290" lon="2.0940780">
        <ele>192.2</ele>
        <time>2022-09-26T12:59:12Z</time>
      </trkpt>
      <trkpt lat="41.5442870" lon="2.0940670">
        <ele>192.1</ele>
        <time>2022-09-26T12:59:13Z</time>
      </trkpt>
      <trkpt lat="41.5442600" lon="2.0940580">
        <ele>192.0</ele>
        <time>2022-09-26T12:59:14Z</time>
      </trkpt>
      <trkpt lat="41.5442380" lon="2.0940540">
        <ele>192.0</ele>
        <time>2022-09-26T12:59:15Z</time>
      </trkpt>
      <trkpt lat="41.5442350" lon="2.0940520">
        <ele>192.0</ele>
        <time>2022-09-26T12:59:16Z</time>
      </trkpt>
      <trkpt lat="41.5442320" lon="2.0940510">
        <ele>192.0</ele>
        <time>2022-09-26T12:59:17Z</time>
      </trkpt>
      <trkpt lat="41.5442280" lon="2.0940490">
        <ele>192.0</ele>
        <time>2022-09-26T12:59:18Z</time>
      </trkpt>
      <trkpt lat="41.5442250" lon="2.0940480">
        <ele>192.0</ele>
        <time>2022-09-26T12:59:19Z</time>
      </trkpt>
      <trkpt lat="41.5442210" lon="2.0940470">
        <ele>192.0</ele>
        <time>2022-09-26T12:59:20Z</time>
      </trkpt>
      <trkpt lat="41.5442180" lon="2.0940450">
        <ele>192.0</ele>
        <time>2022-09-26T12:59:21Z</time>
      </trkpt>
      <trkpt lat="41.5442150" lon="2.0940440">
        <ele>191.9</ele>
        <time>2022-09-26T12:59:22Z</time>
      </trkpt>
      <trkpt lat="41.5442110" lon="2.0940420">
        <ele>191.9</ele>
        <time>2022-09-26T12:59:23Z</time>
      </trkpt>
      <trkpt lat="41.5442080" lon="2.0940410">
        <ele>191.9</ele>
        <time>2022-09-26T12:59:24Z</time>
      </trkpt>
      <trkpt lat="41.5442040" lon="2.0940390">
        <ele>191.9</ele>
        <time>2022-09-26T12:59:25Z</time>
      </trkpt>
      <trkpt lat="41.5442010" lon="2.0940380">
        <ele>191.9</ele>
        <time>2022-09-26T12:59:26Z</time>
      </trkpt>
      <trkpt lat="41.5441980" lon="2.0940360">
        <ele>191.9</ele>
        <time>2022-09-26T13:00:08Z</time>
      </trkpt>
      <trkpt lat="41.5441940" lon="2.0940350">
        <ele>191.9</ele>
        <time>2022-09-26T13:00:09Z</time>
      </trkpt>
      <trkpt lat="41.5441910" lon="2.0940340">
        <ele>191.9</ele>
        <time>2022-09-26T13:00:10Z</time>
      </trkpt>
      <trkpt lat="41.5441640" lon="2.0940110">
        <ele>191.8</ele>
        <time>2022-09-26T13:00:11Z</time>
      </trkpt>
      <trkpt lat="41.5441580" lon="2.0940040">
        <ele>191.8</ele>
        <time>2022-09-26T13:00:12Z</time>
      </trkpt>
      <trkpt lat="41.5441470" lon="2.0939900">
        <ele>191.8</ele>
        <time>2022-09-26T13:00:13Z</time>
      </trkpt>
      <trkpt lat="41.5441400" lon="2.0939710">
        <ele>191.7</ele>
        <time>2022-09-26T13:00:14Z</time>
      </trkpt>
      <trkpt lat="41.5441340" lon="2.0939480">
        <ele>191.7</ele>
        <time>2022-09-26T13:00:15Z</time>
      </trkpt>
      <trkpt lat="41.5441140" lon="2.0939390">
        <ele>191.7</ele>
        <time>2022-09-26T13:00:17Z</time>
      </trkpt>
      <trkpt lat="41.5440850" lon="2.0939320">
        <ele>191.6</ele>
        <time>2022-09-26T13:00:18Z</time>
      </trkpt>
      <trkpt lat="41.5440420" lon="2.0939450">
        <ele>191.5</ele>
        <time>2022-09-26T13:00:19Z</time>
      </trkpt>
      <trkpt lat="41.5439780" lon="2.0939830">
        <ele>191.4</ele>
        <time>2022-09-26T13:00:20Z</time>
      </trkpt>
      <trkpt lat="41.5438610" lon="2.0939800">
        <ele>191.1</ele>
        <time>2022-09-26T13:00:21Z</time>
      </trkpt>
      <trkpt lat="41.5437550" lon="2.0939640">
        <ele>190.7</ele>
        <time>2022-09-26T13:00:22Z</time>
      </trkpt>
      <trkpt lat="41.5436550" lon="2.0939440">
        <ele>190.3</ele>
        <time>2022-09-26T13:00:23Z</time>
      </trkpt>
      <trkpt lat="41.5435610" lon="2.0939330">
        <ele>190.0</ele>
        <time>2022-09-26T13:00:24Z</time>
      </trkpt>
      <trkpt lat="41.5434780" lon="2.0939250">
        <ele>189.7</ele>
        <time>2022-09-26T13:00:25Z</time>
      </trkpt>
      <trkpt lat="41.5434010" lon="2.0939190">
        <ele>189.4</ele>
        <time>2022-09-26T13:00:26Z</time>
      </trkpt>
      <trkpt lat="41.5433250" lon="2.0939130">
        <ele>189.1</ele>
        <time>2022-09-26T13:00:27Z</time>
      </trkpt>
      <trkpt lat="41.5432510" lon="2.0939060">
        <ele>188.8</ele>
        <time>2022-09-26T13:00:28Z</time>
      </trkpt>
      <trkpt lat="41.5431800" lon="2.0938960">
        <ele>188.5</ele>
        <time>2022-09-26T13:00:29Z</time>
      </trkpt>
      <trkpt lat="41.5431110" lon="2.0938840">
        <ele>188.2</ele>
        <time>2022-09-26T13:00:30Z</time>
      </trkpt>
      <trkpt lat="41.5430430" lon="2.0938720">
        <ele>188.0</ele>
        <time>2022-09-26T13:00:31Z</time>
      </trkpt>
      <trkpt lat="41.5429750" lon="2.0938580">
        <ele>187.7</ele>
        <time>2022-09-26T13:00:32Z</time>
      </trkpt>
      <trkpt lat="41.5429070" lon="2.0938470">
        <ele>187.4</ele>
        <time>2022-09-26T13:00:33Z</time>
      </trkpt>
      <trkpt lat="41.5428400" lon="2.0938350">
        <ele>187.2</ele>
        <time>2022-09-26T13:00:34Z</time>
      </trkpt>
      <trkpt lat="41.5427760" lon="2.0938200">
        <ele>187.0</ele>
        <time>2022-09-26T13:00:35Z</time>
      </trkpt>
      <trkpt lat="41.5427160" lon="2.0938130">
        <ele>186.8</ele>
        <time>2022-09-26T13:00:36Z</time>
      </trkpt>
      <trkpt lat="41.5426520" lon="2.0938040">
        <ele>186.7</ele>
        <time>2022-09-26T13:00:37Z</time>
      </trkpt>
      <trkpt lat="41.5425850" lon="2.0937930">
        <ele>186.5</ele>
        <time>2022-09-26T13:00:38Z</time>
      </trkpt>
      <trkpt lat="41.5425180" lon="2.0937750">
        <ele>186.2</ele>
        <time>2022-09-26T13:00:39Z</time>
      </trkpt>
      <trkpt lat="41.5424540" lon="2.0937580">
        <ele>186.0</ele>
        <time>2022-09-26T13:00:40Z</time>
      </trkpt>
      <trkpt lat="41.5423840" lon="2.0937440">
        <ele>185.8</ele>
        <time>2022-09-26T13:00:41Z</time>
      </trkpt>
      <trkpt lat="41.5423170" lon="2.0937410">
        <ele>185.7</ele>
        <time>2022-09-26T13:00:42Z</time>
      </trkpt>
      <trkpt lat="41.5422490" lon="2.0937380">
        <ele>185.6</ele>
        <time>2022-09-26T13:00:43Z</time>
      </trkpt>
      <trkpt lat="41.5421840" lon="2.0937300">
        <ele>185.4</ele>
        <time>2022-09-26T13:00:44Z</time>
      </trkpt>
      <trkpt lat="41.5421210" lon="2.0937190">
        <ele>185.1</ele>
        <time>2022-09-26T13:00:45Z</time>
      </trkpt>
      <trkpt lat="41.5420560" lon="2.0937100">
        <ele>184.7</ele>
        <time>2022-09-26T13:00:46Z</time>
      </trkpt>
      <trkpt lat="41.5419960" lon="2.0937030">
        <ele>184.4</ele>
        <time>2022-09-26T13:00:47Z</time>
      </trkpt>
      <trkpt lat="41.5419440" lon="2.0936960">
        <ele>184.2</ele>
        <time>2022-09-26T13:00:48Z</time>
      </trkpt>
      <trkpt lat="41.5419000" lon="2.0936920">
        <ele>184.0</ele>
        <time>2022-09-26T13:00:49Z</time>
      </trkpt>
      <trkpt lat="41.5418620" lon="2.0936850">
        <ele>183.8</ele>
        <time>2022-09-26T13:00:50Z</time>
      </trkpt>
      <trkpt lat="41.5418490" lon="2.0936810">
        <ele>183.7</ele>
        <time>2022-09-26T13:00:51Z</time>
      </trkpt>
      <trkpt lat="41.5418130" lon="2.0936680">
        <ele>183.5</ele>
        <time>2022-09-26T13:00:52Z</time>
      </trkpt>
      <trkpt lat="41.5417990" lon="2.0936630">
        <ele>183.5</ele>
        <time>2022-09-26T13:00:53Z</time>
      </trkpt>
      <trkpt lat="41.5417590" lon="2.0936510">
        <ele>183.0</ele>
        <time>2022-09-26T13:00:54Z</time>
      </trkpt>
      <trkpt lat="41.5417430" lon="2.0936450">
        <ele>182.9</ele>
        <time>2022-09-26T13:00:55Z</time>
      </trkpt>
      <trkpt lat="41.5417240" lon="2.0936290">
        <ele>182.8</ele>
        <time>2022-09-26T13:00:56Z</time>
      </trkpt>
      <trkpt lat="41.5416810" lon="2.0935960">
        <ele>182.6</ele>
        <time>2022-09-26T13:00:58Z</time>
      </trkpt>
      <trkpt lat="41.5416610" lon="2.0935120">
        <ele>182.2</ele>
        <time>2022-09-26T13:00:59Z</time>
      </trkpt>
      <trkpt lat="41.5416510" lon="2.0934060">
        <ele>181.7</ele>
        <time>2022-09-26T13:01:00Z</time>
      </trkpt>
      <trkpt lat="41.5416350" lon="2.0933350">
        <ele>181.3</ele>
        <time>2022-09-26T13:01:01Z</time>
      </trkpt>
      <trkpt lat="41.5416160" lon="2.0932650">
        <ele>181.0</ele>
        <time>2022-09-26T13:01:02Z</time>
      </trkpt>
      <trkpt lat="41.5415960" lon="2.0931910">
        <ele>180.7</ele>
        <time>2022-09-26T13:01:03Z</time>
      </trkpt>
      <trkpt lat="41.5415740" lon="2.0931170">
        <ele>180.3</ele>
        <time>2022-09-26T13:01:04Z</time>
      </trkpt>
      <trkpt lat="41.5415480" lon="2.0930390">
        <ele>179.9</ele>
        <time>2022-09-26T13:01:05Z</time>
      </trkpt>
      <trkpt lat="41.5415210" lon="2.0929600">
        <ele>179.6</ele>
        <time>2022-09-26T13:01:06Z</time>
      </trkpt>
      <trkpt lat="41.5414940" lon="2.0928790">
        <ele>179.2</ele>
        <time>2022-09-26T13:01:07Z</time>
      </trkpt>
      <trkpt lat="41.5414680" lon="2.0927950">
        <ele>178.9</ele>
        <time>2022-09-26T13:01:08Z</time>
      </trkpt>
      <trkpt lat="41.5414410" lon="2.0927100">
        <ele>178.5</ele>
        <time>2022-09-26T13:01:09Z</time>
      </trkpt>
      <trkpt lat="41.5414150" lon="2.0926240">
        <ele>178.2</ele>
        <time>2022-09-26T13:01:10Z</time>
      </trkpt>
      <trkpt lat="41.5413880" lon="2.0925360">
        <ele>177.9</ele>
        <time>2022-09-26T13:01:11Z</time>
      </trkpt>
      <trkpt lat="41.5413640" lon="2.0924520">
        <ele>177.7</ele>
        <time>2022-09-26T13:01:12Z</time>
      </trkpt>
      <trkpt lat="41.5413450" lon="2.0923850">
        <ele>177.6</ele>
        <time>2022-09-26T13:01:13Z</time>
      </trkpt>
      <trkpt lat="41.5413290" lon="2.0923340">
        <ele>177.5</ele>
        <time>2022-09-26T13:01:14Z</time>
      </trkpt>
      <trkpt lat="41.5413160" lon="2.0922840">
        <ele>177.4</ele>
        <time>2022-09-26T13:01:15Z</time>
      </trkpt>
      <trkpt lat="41.5413110" lon="2.0922650">
        <ele>177.4</ele>
        <time>2022-09-26T13:01:16Z</time>
      </trkpt>
      <trkpt lat="41.5413030" lon="2.0922260">
        <ele>177.4</ele>
        <time>2022-09-26T13:01:17Z</time>
      </trkpt>
      <trkpt lat="41.5412980" lon="2.0922070">
        <ele>177.3</ele>
        <time>2022-09-26T13:01:18Z</time>
      </trkpt>
      <trkpt lat="41.5412920" lon="2.0921700">
        <ele>177.3</ele>
        <time>2022-09-26T13:01:19Z</time>
      </trkpt>
      <trkpt lat="41.5412780" lon="2.0921130">
        <ele>177.3</ele>
        <time>2022-09-26T13:01:20Z</time>
      </trkpt>
      <trkpt lat="41.5412580" lon="2.0920740">
        <ele>177.3</ele>
        <time>2022-09-26T13:01:21Z</time>
      </trkpt>
      <trkpt lat="41.5412340" lon="2.0920450">
        <ele>177.3</ele>
        <time>2022-09-26T13:01:22Z</time>
      </trkpt>
      <trkpt lat="41.5412020" lon="2.0920100">
        <ele>177.1</ele>
        <time>2022-09-26T13:01:23Z</time>
      </trkpt>
      <trkpt lat="41.5411710" lon="2.0919720">
        <ele>177.2</ele>
        <time>2022-09-26T13:01:24Z</time>
      </trkpt>
      <trkpt lat="41.5411500" lon="2.0919340">
        <ele>177.2</ele>
        <time>2022-09-26T13:01:25Z</time>
      </trkpt>
      <trkpt lat="41.5411440" lon="2.0919240">
        <ele>177.2</ele>
        <time>2022-09-26T13:01:26Z</time>
      </trkpt>
      <trkpt lat="41.5410980" lon="2.0918460">
        <ele>177.2</ele>
        <time>2022-09-26T13:01:28Z</time>
      </trkpt>
      <trkpt lat="41.5410670" lon="2.0917930">
        <ele>177.3</ele>
        <time>2022-09-26T13:01:29Z</time>
      </trkpt>
      <trkpt lat="41.5410360" lon="2.0917410">
        <ele>177.4</ele>
        <time>2022-09-26T13:01:30Z</time>
      </trkpt>
      <trkpt lat="41.5410110" lon="2.0916970">
        <ele>177.4</ele>
        <time>2022-09-26T13:01:31Z</time>
      </trkpt>
      <trkpt lat="41.5409870" lon="2.0916500">
        <ele>177.5</ele>
        <time>2022-09-26T13:01:32Z</time>
      </trkpt>
      <trkpt lat="41.5409650" lon="2.0916000">
        <ele>177.6</ele>
        <time>2022-09-26T13:01:34Z</time>
      </trkpt>
      <trkpt lat="41.5409440" lon="2.0915530">
        <ele>177.7</ele>
        <time>2022-09-26T13:01:35Z</time>
      </trkpt>
      <trkpt lat="41.5409120" lon="2.0914910">
        <ele>177.8</ele>
        <time>2022-09-26T13:01:36Z</time>
      </trkpt>
      <trkpt lat="41.5408830" lon="2.0914370">
        <ele>178.0</ele>
        <time>2022-09-26T13:01:37Z</time>
      </trkpt>
      <trkpt lat="41.5408670" lon="2.0914050">
        <ele>178.1</ele>
        <time>2022-09-26T13:01:38Z</time>
      </trkpt>
      <trkpt lat="41.5408440" lon="2.0913660">
        <ele>178.2</ele>
        <time>2022-09-26T13:01:39Z</time>
      </trkpt>
      <trkpt lat="41.5408200" lon="2.0913260">
        <ele>178.3</ele>
        <time>2022-09-26T13:01:40Z</time>
      </trkpt>
      <trkpt lat="41.5407730" lon="2.0912440">
        <ele>178.6</ele>
        <time>2022-09-26T13:01:42Z</time>
      </trkpt>
      <trkpt lat="41.5407500" lon="2.0912000">
        <ele>178.8</ele>
        <time>2022-09-26T13:01:44Z</time>
      </trkpt>
      <trkpt lat="41.5407170" lon="2.0911440">
        <ele>179.0</ele>
        <time>2022-09-26T13:01:45Z</time>
      </trkpt>
      <trkpt lat="41.5406910" lon="2.0910990">
        <ele>179.2</ele>
        <time>2022-09-26T13:01:46Z</time>
      </trkpt>
      <trkpt lat="41.5406730" lon="2.0910650">
        <ele>179.3</ele>
        <time>2022-09-26T13:01:47Z</time>
      </trkpt>
      <trkpt lat="41.5406450" lon="2.0910220">
        <ele>179.5</ele>
        <time>2022-09-26T13:01:48Z</time>
      </trkpt>
      <trkpt lat="41.5406350" lon="2.0910050">
        <ele>179.6</ele>
        <time>2022-09-26T13:01:49Z</time>
      </trkpt>
      <trkpt lat="41.5406160" lon="2.0909660">
        <ele>179.7</ele>
        <time>2022-09-26T13:01:50Z</time>
      </trkpt>
      <trkpt lat="41.5406010" lon="2.0909300">
        <ele>179.9</ele>
        <time>2022-09-26T13:01:51Z</time>
      </trkpt>
      <trkpt lat="41.5405810" lon="2.0908940">
        <ele>180.0</ele>
        <time>2022-09-26T13:01:52Z</time>
      </trkpt>
      <trkpt lat="41.5405580" lon="2.0908590">
        <ele>180.2</ele>
        <time>2022-09-26T13:01:53Z</time>
      </trkpt>
      <trkpt lat="41.5405280" lon="2.0908070">
        <ele>180.4</ele>
        <time>2022-09-26T13:01:55Z</time>
      </trkpt>
      <trkpt lat="41.5405050" lon="2.0907720">
        <ele>180.6</ele>
        <time>2022-09-26T13:01:56Z</time>
      </trkpt>
      <trkpt lat="41.5404810" lon="2.0907310">
        <ele>180.8</ele>
        <time>2022-09-26T13:01:57Z</time>
      </trkpt>
      <trkpt lat="41.5404630" lon="2.0906920">
        <ele>181.0</ele>
        <time>2022-09-26T13:01:58Z</time>
      </trkpt>
      <trkpt lat="41.5404390" lon="2.0906520">
        <ele>181.2</ele>
        <time>2022-09-26T13:01:59Z</time>
      </trkpt>
      <trkpt lat="41.5404300" lon="2.0906350">
        <ele>181.3</ele>
        <time>2022-09-26T13:02:00Z</time>
      </trkpt>
      <trkpt lat="41.5404110" lon="2.0906030">
        <ele>181.5</ele>
        <time>2022-09-26T13:02:01Z</time>
      </trkpt>
      <trkpt lat="41.5403890" lon="2.0905740">
        <ele>181.7</ele>
        <time>2022-09-26T13:02:02Z</time>
      </trkpt>
      <trkpt lat="41.5403720" lon="2.0905470">
        <ele>181.9</ele>
        <time>2022-09-26T13:02:03Z</time>
      </trkpt>
      <trkpt lat="41.5403460" lon="2.0904880">
        <ele>182.2</ele>
        <time>2022-09-26T13:02:05Z</time>
      </trkpt>
      <trkpt lat="41.5403330" lon="2.0904460">
        <ele>182.4</ele>
        <time>2022-09-26T13:02:06Z</time>
      </trkpt>
      <trkpt lat="41.5403090" lon="2.0904050">
        <ele>182.7</ele>
        <time>2022-09-26T13:02:07Z</time>
      </trkpt>
      <trkpt lat="41.5402990" lon="2.0903910">
        <ele>182.8</ele>
        <time>2022-09-26T13:02:08Z</time>
      </trkpt>
      <trkpt lat="41.5402790" lon="2.0903570">
        <ele>183.0</ele>
        <time>2022-09-26T13:02:09Z</time>
      </trkpt>
      <trkpt lat="41.5402710" lon="2.0903450">
        <ele>183.0</ele>
        <time>2022-09-26T13:02:10Z</time>
      </trkpt>
      <trkpt lat="41.5402490" lon="2.0902970">
        <ele>183.3</ele>
        <time>2022-09-26T13:02:12Z</time>
      </trkpt>
      <trkpt lat="41.5402290" lon="2.0902460">
        <ele>183.6</ele>
        <time>2022-09-26T13:02:13Z</time>
      </trkpt>
      <trkpt lat="41.5402100" lon="2.0902040">
        <ele>183.8</ele>
        <time>2022-09-26T13:02:14Z</time>
      </trkpt>
      <trkpt lat="41.5402020" lon="2.0901880">
        <ele>183.9</ele>
        <time>2022-09-26T13:02:15Z</time>
      </trkpt>
      <trkpt lat="41.5401820" lon="2.0901320">
        <ele>184.2</ele>
        <time>2022-09-26T13:02:17Z</time>
      </trkpt>
      <trkpt lat="41.5401770" lon="2.0901090">
        <ele>184.4</ele>
        <time>2022-09-26T13:02:18Z</time>
      </trkpt>
      <trkpt lat="41.5401720" lon="2.0900860">
        <ele>184.7</ele>
        <time>2022-09-26T13:02:19Z</time>
      </trkpt>
      <trkpt lat="41.5401690" lon="2.0900460">
        <ele>184.7</ele>
        <time>2022-09-26T13:02:20Z</time>
      </trkpt>
      <trkpt lat="41.5401740" lon="2.0900020">
        <ele>184.7</ele>
        <time>2022-09-26T13:02:21Z</time>
      </trkpt>
      <trkpt lat="41.5401770" lon="2.0899870">
        <ele>184.6</ele>
        <time>2022-09-26T13:02:22Z</time>
      </trkpt>
      <trkpt lat="41.5401840" lon="2.0899350">
        <ele>184.6</ele>
        <time>2022-09-26T13:02:23Z</time>
      </trkpt>
      <trkpt lat="41.5401860" lon="2.0899150">
        <ele>184.6</ele>
        <time>2022-09-26T13:02:24Z</time>
      </trkpt>
      <trkpt lat="41.5401700" lon="2.0898740">
        <ele>184.7</ele>
        <time>2022-09-26T13:02:25Z</time>
      </trkpt>
      <trkpt lat="41.5401610" lon="2.0898590">
        <ele>184.8</ele>
        <time>2022-09-26T13:02:26Z</time>
      </trkpt>
      <trkpt lat="41.5401380" lon="2.0898310">
        <ele>184.9</ele>
        <time>2022-09-26T13:02:27Z</time>
      </trkpt>
      <trkpt lat="41.5401130" lon="2.0898080">
        <ele>185.0</ele>
        <time>2022-09-26T13:02:28Z</time>
      </trkpt>
      <trkpt lat="41.5400860" lon="2.0897850">
        <ele>185.2</ele>
        <time>2022-09-26T13:02:29Z</time>
      </trkpt>
      <trkpt lat="41.5400570" lon="2.0897720">
        <ele>185.3</ele>
        <time>2022-09-26T13:02:30Z</time>
      </trkpt>
      <trkpt lat="41.5400220" lon="2.0897560">
        <ele>185.4</ele>
        <time>2022-09-26T13:02:31Z</time>
      </trkpt>
      <trkpt lat="41.5400090" lon="2.0897510">
        <ele>185.5</ele>
        <time>2022-09-26T13:02:32Z</time>
      </trkpt>
      <trkpt lat="41.5399800" lon="2.0897480">
        <ele>185.6</ele>
        <time>2022-09-26T13:02:33Z</time>
      </trkpt>
      <trkpt lat="41.5399510" lon="2.0897430">
        <ele>185.8</ele>
        <time>2022-09-26T13:02:34Z</time>
      </trkpt>
      <trkpt lat="41.5399240" lon="2.0897310">
        <ele>186.0</ele>
        <time>2022-09-26T13:02:35Z</time>
      </trkpt>
      <trkpt lat="41.5398920" lon="2.0897090">
        <ele>186.2</ele>
        <time>2022-09-26T13:02:36Z</time>
      </trkpt>
      <trkpt lat="41.5398810" lon="2.0896990">
        <ele>186.2</ele>
        <time>2022-09-26T13:02:37Z</time>
      </trkpt>
      <trkpt lat="41.5398380" lon="2.0896430">
        <ele>186.5</ele>
        <time>2022-09-26T13:02:39Z</time>
      </trkpt>
      <trkpt lat="41.5398160" lon="2.0896020">
        <ele>186.6</ele>
        <time>2022-09-26T13:02:40Z</time>
      </trkpt>
      <trkpt lat="41.5398100" lon="2.0895900">
        <ele>186.7</ele>
        <time>2022-09-26T13:02:41Z</time>
      </trkpt>
      <trkpt lat="41.5397860" lon="2.0895550">
        <ele>186.8</ele>
        <time>2022-09-26T13:02:42Z</time>
      </trkpt>
      <trkpt lat="41.5397770" lon="2.0895420">
        <ele>186.8</ele>
        <time>2022-09-26T13:02:43Z</time>
      </trkpt>
      <trkpt lat="41.5397570" lon="2.0895100">
        <ele>186.9</ele>
        <time>2022-09-26T13:02:44Z</time>
      </trkpt>
      <trkpt lat="41.5397370" lon="2.0894810">
        <ele>186.9</ele>
        <time>2022-09-26T13:02:45Z</time>
      </trkpt>
      <trkpt lat="41.5397120" lon="2.0894340">
        <ele>187.1</ele>
        <time>2022-09-26T13:02:47Z</time>
      </trkpt>
      <trkpt lat="41.5396900" lon="2.0893980">
        <ele>187.3</ele>
        <time>2022-09-26T13:02:48Z</time>
      </trkpt>
      <trkpt lat="41.5396820" lon="2.0893870">
        <ele>187.3</ele>
        <time>2022-09-26T13:02:49Z</time>
      </trkpt>
      <trkpt lat="41.5396590" lon="2.0893480">
        <ele>187.5</ele>
        <time>2022-09-26T13:02:50Z</time>
      </trkpt>
      <trkpt lat="41.5396520" lon="2.0893350">
        <ele>187.6</ele>
        <time>2022-09-26T13:02:51Z</time>
      </trkpt>
      <trkpt lat="41.5396330" lon="2.0893070">
        <ele>187.7</ele>
        <time>2022-09-26T13:02:52Z</time>
      </trkpt>
      <trkpt lat="41.5396250" lon="2.0892960">
        <ele>187.8</ele>
        <time>2022-09-26T13:02:53Z</time>
      </trkpt>
      <trkpt lat="41.5396010" lon="2.0892560">
        <ele>188.0</ele>
        <time>2022-09-26T13:02:55Z</time>
      </trkpt>
      <trkpt lat="41.5395780" lon="2.0892150">
        <ele>188.2</ele>
        <time>2022-09-26T13:02:56Z</time>
      </trkpt>
      <trkpt lat="41.5395600" lon="2.0891800">
        <ele>188.4</ele>
        <time>2022-09-26T13:02:57Z</time>
      </trkpt>
      <trkpt lat="41.5395520" lon="2.0891670">
        <ele>188.4</ele>
        <time>2022-09-26T13:02:58Z</time>
      </trkpt>
      <trkpt lat="41.5395220" lon="2.0891270">
        <ele>188.7</ele>
        <time>2022-09-26T13:03:00Z</time>
      </trkpt>
      <trkpt lat="41.5394960" lon="2.0890840">
        <ele>188.9</ele>
        <time>2022-09-26T13:03:01Z</time>
      </trkpt>
      <trkpt lat="41.5394740" lon="2.0890500">
        <ele>189.1</ele>
        <time>2022-09-26T13:03:02Z</time>
      </trkpt>
      <trkpt lat="41.5394660" lon="2.0890380">
        <ele>189.1</ele>
        <time>2022-09-26T13:03:03Z</time>
      </trkpt>
      <trkpt lat="41.5394410" lon="2.0889920">
        <ele>189.4</ele>
        <time>2022-09-26T13:03:05Z</time>
      </trkpt>
      <trkpt lat="41.5394180" lon="2.0889550">
        <ele>189.6</ele>
        <time>2022-09-26T13:03:06Z</time>
      </trkpt>
      <trkpt lat="41.5393970" lon="2.0889240">
        <ele>189.7</ele>
        <time>2022-09-26T13:03:08Z</time>
      </trkpt>
      <trkpt lat="41.5393700" lon="2.0888890">
        <ele>189.9</ele>
        <time>2022-09-26T13:03:09Z</time>
      </trkpt>
      <trkpt lat="41.5393520" lon="2.0888620">
        <ele>190.1</ele>
        <time>2022-09-26T13:03:10Z</time>
      </trkpt>
      <trkpt lat="41.5393350" lon="2.0888350">
        <ele>190.2</ele>
        <time>2022-09-26T13:03:11Z</time>
      </trkpt>
      <trkpt lat="41.5393050" lon="2.0887840">
        <ele>190.4</ele>
        <time>2022-09-26T13:03:13Z</time>
      </trkpt>
      <trkpt lat="41.5392890" lon="2.0887480">
        <ele>190.6</ele>
        <time>2022-09-26T13:03:14Z</time>
      </trkpt>
      <trkpt lat="41.5392710" lon="2.0887080">
        <ele>190.7</ele>
        <time>2022-09-26T13:03:15Z</time>
      </trkpt>
      <trkpt lat="41.5392550" lon="2.0886710">
        <ele>190.9</ele>
        <time>2022-09-26T13:03:16Z</time>
      </trkpt>
      <trkpt lat="41.5392390" lon="2.0886370">
        <ele>191.0</ele>
        <time>2022-09-26T13:03:17Z</time>
      </trkpt>
      <trkpt lat="41.5392180" lon="2.0885840">
        <ele>191.2</ele>
        <time>2022-09-26T13:03:19Z</time>
      </trkpt>
      <trkpt lat="41.5391990" lon="2.0885280">
        <ele>191.4</ele>
        <time>2022-09-26T13:03:21Z</time>
      </trkpt>
      <trkpt lat="41.5391920" lon="2.0884790">
        <ele>191.5</ele>
        <time>2022-09-26T13:03:22Z</time>
      </trkpt>
      <trkpt lat="41.5391900" lon="2.0884480">
        <ele>191.6</ele>
        <time>2022-09-26T13:03:23Z</time>
      </trkpt>
      <trkpt lat="41.5391880" lon="2.0883940">
        <ele>191.8</ele>
        <time>2022-09-26T13:03:25Z</time>
      </trkpt>
      <trkpt lat="41.5391830" lon="2.0883400">
        <ele>191.9</ele>
        <time>2022-09-26T13:03:26Z</time>
      </trkpt>
      <trkpt lat="41.5391620" lon="2.0882830">
        <ele>192.0</ele>
        <time>2022-09-26T13:03:27Z</time>
      </trkpt>
      <trkpt lat="41.5391450" lon="2.0882460">
        <ele>192.1</ele>
        <time>2022-09-26T13:03:29Z</time>
      </trkpt>
      <trkpt lat="41.5391110" lon="2.0882230">
        <ele>192.1</ele>
        <time>2022-09-26T13:03:30Z</time>
      </trkpt>
      <trkpt lat="41.5390460" lon="2.0881950">
        <ele>192.3</ele>
        <time>2022-09-26T13:03:31Z</time>
      </trkpt>
      <trkpt lat="41.5390100" lon="2.0881840">
        <ele>192.3</ele>
        <time>2022-09-26T13:03:32Z</time>
      </trkpt>
      <trkpt lat="41.5389810" lon="2.0881660">
        <ele>192.4</ele>
        <time>2022-09-26T13:03:33Z</time>
      </trkpt>
      <trkpt lat="41.5389550" lon="2.0881460">
        <ele>192.4</ele>
        <time>2022-09-26T13:03:34Z</time>
      </trkpt>
      <trkpt lat="41.5389300" lon="2.0881180">
        <ele>192.5</ele>
        <time>2022-09-26T13:03:35Z</time>
      </trkpt>
      <trkpt lat="41.5389020" lon="2.0880910">
        <ele>192.6</ele>
        <time>2022-09-26T13:03:36Z</time>
      </trkpt>
      <trkpt lat="41.5388730" lon="2.0880580">
        <ele>192.6</ele>
        <time>2022-09-26T13:03:37Z</time>
      </trkpt>
      <trkpt lat="41.5388450" lon="2.0880250">
        <ele>192.7</ele>
        <time>2022-09-26T13:03:38Z</time>
      </trkpt>
      <trkpt lat="41.5388200" lon="2.0879770">
        <ele>192.7</ele>
        <time>2022-09-26T13:03:40Z</time>
      </trkpt>
      <trkpt lat="41.5387850" lon="2.0879090">
        <ele>192.8</ele>
        <time>2022-09-26T13:03:41Z</time>
      </trkpt>
      <trkpt lat="41.5387590" lon="2.0878700">
        <ele>192.9</ele>
        <time>2022-09-26T13:03:42Z</time>
      </trkpt>
      <trkpt lat="41.5387370" lon="2.0878320">
        <ele>192.9</ele>
        <time>2022-09-26T13:03:43Z</time>
      </trkpt>
      <trkpt lat="41.5387190" lon="2.0877980">
        <ele>193.0</ele>
        <time>2022-09-26T13:03:44Z</time>
      </trkpt>
      <trkpt lat="41.5386810" lon="2.0877370">
        <ele>193.0</ele>
        <time>2022-09-26T13:03:46Z</time>
      </trkpt>
      <trkpt lat="41.5386390" lon="2.0876710">
        <ele>193.0</ele>
        <time>2022-09-26T13:03:47Z</time>
      </trkpt>
      <trkpt lat="41.5386090" lon="2.0876280">
        <ele>193.0</ele>
        <time>2022-09-26T13:03:48Z</time>
      </trkpt>
      <trkpt lat="41.5385710" lon="2.0875730">
        <ele>193.0</ele>
        <time>2022-09-26T13:03:50Z</time>
      </trkpt>
      <trkpt lat="41.5385290" lon="2.0875070">
        <ele>192.9</ele>
        <time>2022-09-26T13:03:51Z</time>
      </trkpt>
      <trkpt lat="41.5384960" lon="2.0874520">
        <ele>192.9</ele>
        <time>2022-09-26T13:03:52Z</time>
      </trkpt>
      <trkpt lat="41.5384670" lon="2.0874070">
        <ele>192.9</ele>
        <time>2022-09-26T13:03:53Z</time>
      </trkpt>
      <trkpt lat="41.5384350" lon="2.0873600">
        <ele>192.8</ele>
        <time>2022-09-26T13:03:54Z</time>
      </trkpt>
      <trkpt lat="41.5384030" lon="2.0873100">
        <ele>192.8</ele>
        <time>2022-09-26T13:03:55Z</time>
      </trkpt>
      <trkpt lat="41.5383720" lon="2.0872610">
        <ele>192.8</ele>
        <time>2022-09-26T13:03:56Z</time>
      </trkpt>
      <trkpt lat="41.5383420" lon="2.0872130">
        <ele>192.7</ele>
        <time>2022-09-26T13:03:57Z</time>
      </trkpt>
      <trkpt lat="41.5383130" lon="2.0871650">
        <ele>192.6</ele>
        <time>2022-09-26T13:03:58Z</time>
      </trkpt>
      <trkpt lat="41.5382850" lon="2.0871190">
        <ele>192.6</ele>
        <time>2022-09-26T13:03:59Z</time>
      </trkpt>
      <trkpt lat="41.5382570" lon="2.0870710">
        <ele>192.5</ele>
        <time>2022-09-26T13:04:00Z</time>
      </trkpt>
      <trkpt lat="41.5382260" lon="2.0870220">
        <ele>192.5</ele>
        <time>2022-09-26T13:04:01Z</time>
      </trkpt>
      <trkpt lat="41.5381950" lon="2.0869740">
        <ele>192.4</ele>
        <time>2022-09-26T13:04:02Z</time>
      </trkpt>
      <trkpt lat="41.5381650" lon="2.0869220">
        <ele>192.4</ele>
        <time>2022-09-26T13:04:03Z</time>
      </trkpt>
      <trkpt lat="41.5381350" lon="2.0868710">
        <ele>192.3</ele>
        <time>2022-09-26T13:04:04Z</time>
      </trkpt>
      <trkpt lat="41.5381020" lon="2.0868200">
        <ele>192.3</ele>
        <time>2022-09-26T13:04:05Z</time>
      </trkpt>
      <trkpt lat="41.5380710" lon="2.0867730">
        <ele>192.2</ele>
        <time>2022-09-26T13:04:06Z</time>
      </trkpt>
      <trkpt lat="41.5380380" lon="2.0867210">
        <ele>192.1</ele>
        <time>2022-09-26T13:04:07Z</time>
      </trkpt>
      <trkpt lat="41.5380050" lon="2.0866690">
        <ele>192.1</ele>
        <time>2022-09-26T13:04:08Z</time>
      </trkpt>
      <trkpt lat="41.5379730" lon="2.0866190">
        <ele>192.0</ele>
        <time>2022-09-26T13:04:09Z</time>
      </trkpt>
      <trkpt lat="41.5379370" lon="2.0865670">
        <ele>192.0</ele>
        <time>2022-09-26T13:04:10Z</time>
      </trkpt>
      <trkpt lat="41.5379050" lon="2.0865170">
        <ele>191.9</ele>
        <time>2022-09-26T13:04:11Z</time>
      </trkpt>
      <trkpt lat="41.5378740" lon="2.0864650">
        <ele>191.8</ele>
        <time>2022-09-26T13:04:12Z</time>
      </trkpt>
      <trkpt lat="41.5378420" lon="2.0864110">
        <ele>191.7</ele>
        <time>2022-09-26T13:04:14Z</time>
      </trkpt>
      <trkpt lat="41.5377720" lon="2.0863030">
        <ele>191.5</ele>
        <time>2022-09-26T13:04:15Z</time>
      </trkpt>
      <trkpt lat="41.5377000" lon="2.0861990">
        <ele>191.3</ele>
        <time>2022-09-26T13:04:17Z</time>
      </trkpt>
      <trkpt lat="41.5376650" lon="2.0861450">
        <ele>191.2</ele>
        <time>2022-09-26T13:04:18Z</time>
      </trkpt>
      <trkpt lat="41.5376340" lon="2.0860870">
        <ele>191.0</ele>
        <time>2022-09-26T13:04:19Z</time>
      </trkpt>
      <trkpt lat="41.5376020" lon="2.0860290">
        <ele>190.9</ele>
        <time>2022-09-26T13:04:20Z</time>
      </trkpt>
      <trkpt lat="41.5375660" lon="2.0859670">
        <ele>190.7</ele>
        <time>2022-09-26T13:04:21Z</time>
      </trkpt>
      <trkpt lat="41.5375280" lon="2.0859030">
        <ele>190.6</ele>
        <time>2022-09-26T13:04:22Z</time>
      </trkpt>
      <trkpt lat="41.5374900" lon="2.0858400">
        <ele>190.3</ele>
        <time>2022-09-26T13:04:23Z</time>
      </trkpt>
      <trkpt lat="41.5374500" lon="2.0857770">
        <ele>190.1</ele>
        <time>2022-09-26T13:04:24Z</time>
      </trkpt>
      <trkpt lat="41.5374060" lon="2.0857140">
        <ele>189.8</ele>
        <time>2022-09-26T13:04:25Z</time>
      </trkpt>
      <trkpt lat="41.5373620" lon="2.0856510">
        <ele>189.5</ele>
        <time>2022-09-26T13:04:26Z</time>
      </trkpt>
      <trkpt lat="41.5373170" lon="2.0855810">
        <ele>189.1</ele>
        <time>2022-09-26T13:04:27Z</time>
      </trkpt>
      <trkpt lat="41.5372740" lon="2.0855100">
        <ele>188.8</ele>
        <time>2022-09-26T13:04:28Z</time>
      </trkpt>
      <trkpt lat="41.5372290" lon="2.0854350">
        <ele>188.4</ele>
        <time>2022-09-26T13:04:29Z</time>
      </trkpt>
      <trkpt lat="41.5371840" lon="2.0853600">
        <ele>187.7</ele>
        <time>2022-09-26T13:04:30Z</time>
      </trkpt>
      <trkpt lat="41.5371340" lon="2.0852830">
        <ele>187.1</ele>
        <time>2022-09-26T13:04:31Z</time>
      </trkpt>
      <trkpt lat="41.5370790" lon="2.0852110">
        <ele>186.5</ele>
        <time>2022-09-26T13:04:32Z</time>
      </trkpt>
      <trkpt lat="41.5370200" lon="2.0851360">
        <ele>185.8</ele>
        <time>2022-09-26T13:04:33Z</time>
      </trkpt>
      <trkpt lat="41.5369550" lon="2.0850690">
        <ele>185.2</ele>
        <time>2022-09-26T13:04:34Z</time>
      </trkpt>
      <trkpt lat="41.5368860" lon="2.0850030">
        <ele>184.6</ele>
        <time>2022-09-26T13:04:35Z</time>
      </trkpt>
      <trkpt lat="41.5368150" lon="2.0849400">
        <ele>184.1</ele>
        <time>2022-09-26T13:04:36Z</time>
      </trkpt>
      <trkpt lat="41.5367380" lon="2.0848800">
        <ele>183.7</ele>
        <time>2022-09-26T13:04:37Z</time>
      </trkpt>
      <trkpt lat="41.5366590" lon="2.0848210">
        <ele>183.4</ele>
        <time>2022-09-26T13:04:38Z</time>
      </trkpt>
      <trkpt lat="41.5365810" lon="2.0847660">
        <ele>183.2</ele>
        <time>2022-09-26T13:04:39Z</time>
      </trkpt>
      <trkpt lat="41.5365060" lon="2.0847100">
        <ele>183.0</ele>
        <time>2022-09-26T13:04:40Z</time>
      </trkpt>
      <trkpt lat="41.5364320" lon="2.0846580">
        <ele>182.9</ele>
        <time>2022-09-26T13:04:41Z</time>
      </trkpt>
      <trkpt lat="41.5363580" lon="2.0846040">
        <ele>182.9</ele>
        <time>2022-09-26T13:04:42Z</time>
      </trkpt>
      <trkpt lat="41.5362850" lon="2.0845540">
        <ele>182.8</ele>
        <time>2022-09-26T13:04:43Z</time>
      </trkpt>
      <trkpt lat="41.5362160" lon="2.0845050">
        <ele>182.8</ele>
        <time>2022-09-26T13:04:44Z</time>
      </trkpt>
      <trkpt lat="41.5361490" lon="2.0844560">
        <ele>182.8</ele>
        <time>2022-09-26T13:04:45Z</time>
      </trkpt>
      <trkpt lat="41.5360900" lon="2.0844070">
        <ele>182.8</ele>
        <time>2022-09-26T13:04:46Z</time>
      </trkpt>
      <trkpt lat="41.5360340" lon="2.0843560">
        <ele>183.0</ele>
        <time>2022-09-26T13:04:47Z</time>
      </trkpt>
      <trkpt lat="41.5359780" lon="2.0843110">
        <ele>183.1</ele>
        <time>2022-09-26T13:04:48Z</time>
      </trkpt>
      <trkpt lat="41.5359220" lon="2.0842720">
        <ele>183.2</ele>
        <time>2022-09-26T13:04:49Z</time>
      </trkpt>
      <trkpt lat="41.5358660" lon="2.0842370">
        <ele>183.3</ele>
        <time>2022-09-26T13:04:50Z</time>
      </trkpt>
      <trkpt lat="41.5358120" lon="2.0842030">
        <ele>183.3</ele>
        <time>2022-09-26T13:04:51Z</time>
      </trkpt>
      <trkpt lat="41.5357590" lon="2.0841690">
        <ele>183.4</ele>
        <time>2022-09-26T13:04:52Z</time>
      </trkpt>
      <trkpt lat="41.5357140" lon="2.0841290">
        <ele>183.4</ele>
        <time>2022-09-26T13:04:53Z</time>
      </trkpt>
      <trkpt lat="41.5356830" lon="2.0840820">
        <ele>183.6</ele>
        <time>2022-09-26T13:04:54Z</time>
      </trkpt>
      <trkpt lat="41.5356460" lon="2.0840380">
        <ele>183.7</ele>
        <time>2022-09-26T13:04:55Z</time>
      </trkpt>
      <trkpt lat="41.5356030" lon="2.0840060">
        <ele>183.8</ele>
        <time>2022-09-26T13:04:56Z</time>
      </trkpt>
      <trkpt lat="41.5355610" lon="2.0839720">
        <ele>183.9</ele>
        <time>2022-09-26T13:04:57Z</time>
      </trkpt>
      <trkpt lat="41.5355210" lon="2.0839370">
        <ele>184.0</ele>
        <time>2022-09-26T13:04:58Z</time>
      </trkpt>
      <trkpt lat="41.5354830" lon="2.0838970">
        <ele>184.1</ele>
        <time>2022-09-26T13:04:59Z</time>
      </trkpt>
      <trkpt lat="41.5354460" lon="2.0838580">
        <ele>184.2</ele>
        <time>2022-09-26T13:05:00Z</time>
      </trkpt>
      <trkpt lat="41.5354150" lon="2.0838160">
        <ele>184.2</ele>
        <time>2022-09-26T13:05:01Z</time>
      </trkpt>
      <trkpt lat="41.5353880" lon="2.0837670">
        <ele>184.3</ele>
        <time>2022-09-26T13:05:02Z</time>
      </trkpt>
      <trkpt lat="41.5353590" lon="2.0837170">
        <ele>184.4</ele>
        <time>2022-09-26T13:05:03Z</time>
      </trkpt>
      <trkpt lat="41.5353310" lon="2.0836650">
        <ele>184.4</ele>
        <time>2022-09-26T13:05:04Z</time>
      </trkpt>
      <trkpt lat="41.5353080" lon="2.0836090">
        <ele>184.5</ele>
        <time>2022-09-26T13:05:05Z</time>
      </trkpt>
      <trkpt lat="41.5352910" lon="2.0835520">
        <ele>184.5</ele>
        <time>2022-09-26T13:05:06Z</time>
      </trkpt>
      <trkpt lat="41.5352720" lon="2.0834930">
        <ele>184.5</ele>
        <time>2022-09-26T13:05:07Z</time>
      </trkpt>
      <trkpt lat="41.5352580" lon="2.0834330">
        <ele>184.5</ele>
        <time>2022-09-26T13:05:08Z</time>
      </trkpt>
      <trkpt lat="41.5352460" lon="2.0833670">
        <ele>184.5</ele>
        <time>2022-09-26T13:05:09Z</time>
      </trkpt>
      <trkpt lat="41.5352370" lon="2.0833000">
        <ele>184.4</ele>
        <time>2022-09-26T13:05:10Z</time>
      </trkpt>
      <trkpt lat="41.5352310" lon="2.0832300">
        <ele>184.4</ele>
        <time>2022-09-26T13:05:11Z</time>
      </trkpt>
      <trkpt lat="41.5352270" lon="2.0831620">
        <ele>184.3</ele>
        <time>2022-09-26T13:05:12Z</time>
      </trkpt>
      <trkpt lat="41.5352260" lon="2.0830950">
        <ele>184.3</ele>
        <time>2022-09-26T13:05:13Z</time>
      </trkpt>
      <trkpt lat="41.5352240" lon="2.0830250">
        <ele>184.2</ele>
        <time>2022-09-26T13:05:14Z</time>
      </trkpt>
      <trkpt lat="41.5352220" lon="2.0829580">
        <ele>184.2</ele>
        <time>2022-09-26T13:05:15Z</time>
      </trkpt>
      <trkpt lat="41.5352220" lon="2.0828860">
        <ele>184.1</ele>
        <time>2022-09-26T13:05:16Z</time>
      </trkpt>
      <trkpt lat="41.5352230" lon="2.0828100">
        <ele>184.0</ele>
        <time>2022-09-26T13:05:17Z</time>
      </trkpt>
      <trkpt lat="41.5352250" lon="2.0827320">
        <ele>183.8</ele>
        <time>2022-09-26T13:05:18Z</time>
      </trkpt>
      <trkpt lat="41.5352290" lon="2.0826520">
        <ele>183.7</ele>
        <time>2022-09-26T13:05:19Z</time>
      </trkpt>
      <trkpt lat="41.5352300" lon="2.0825740">
        <ele>183.5</ele>
        <time>2022-09-26T13:05:20Z</time>
      </trkpt>
      <trkpt lat="41.5352330" lon="2.0824950">
        <ele>183.4</ele>
        <time>2022-09-26T13:05:21Z</time>
      </trkpt>
      <trkpt lat="41.5352330" lon="2.0824160">
        <ele>183.2</ele>
        <time>2022-09-26T13:05:22Z</time>
      </trkpt>
      <trkpt lat="41.5352340" lon="2.0823370">
        <ele>183.0</ele>
        <time>2022-09-26T13:05:23Z</time>
      </trkpt>
      <trkpt lat="41.5352340" lon="2.0822570">
        <ele>182.9</ele>
        <time>2022-09-26T13:05:24Z</time>
      </trkpt>
      <trkpt lat="41.5352350" lon="2.0821730">
        <ele>182.7</ele>
        <time>2022-09-26T13:05:25Z</time>
      </trkpt>
      <trkpt lat="41.5352340" lon="2.0820930">
        <ele>182.5</ele>
        <time>2022-09-26T13:05:26Z</time>
      </trkpt>
      <trkpt lat="41.5352310" lon="2.0820130">
        <ele>182.4</ele>
        <time>2022-09-26T13:05:27Z</time>
      </trkpt>
      <trkpt lat="41.5352270" lon="2.0819320">
        <ele>182.2</ele>
        <time>2022-09-26T13:05:28Z</time>
      </trkpt>
      <trkpt lat="41.5352270" lon="2.0818520">
        <ele>182.1</ele>
        <time>2022-09-26T13:05:29Z</time>
      </trkpt>
      <trkpt lat="41.5352230" lon="2.0817720">
        <ele>182.0</ele>
        <time>2022-09-26T13:05:30Z</time>
      </trkpt>
      <trkpt lat="41.5352210" lon="2.0816940">
        <ele>182.0</ele>
        <time>2022-09-26T13:05:31Z</time>
      </trkpt>
      <trkpt lat="41.5352220" lon="2.0816150">
        <ele>182.0</ele>
        <time>2022-09-26T13:05:32Z</time>
      </trkpt>
      <trkpt lat="41.5352280" lon="2.0815320">
        <ele>182.1</ele>
        <time>2022-09-26T13:05:33Z</time>
      </trkpt>
      <trkpt lat="41.5352270" lon="2.0814570">
        <ele>182.1</ele>
        <time>2022-09-26T13:05:34Z</time>
      </trkpt>
      <trkpt lat="41.5352260" lon="2.0813850">
        <ele>182.1</ele>
        <time>2022-09-26T13:05:35Z</time>
      </trkpt>
      <trkpt lat="41.5352280" lon="2.0813120">
        <ele>182.2</ele>
        <time>2022-09-26T13:05:36Z</time>
      </trkpt>
      <trkpt lat="41.5352310" lon="2.0812400">
        <ele>182.3</ele>
        <time>2022-09-26T13:05:37Z</time>
      </trkpt>
      <trkpt lat="41.5352290" lon="2.0811720">
        <ele>182.3</ele>
        <time>2022-09-26T13:05:38Z</time>
      </trkpt>
      <trkpt lat="41.5352250" lon="2.0811000">
        <ele>182.5</ele>
        <time>2022-09-26T13:05:39Z</time>
      </trkpt>
      <trkpt lat="41.5352290" lon="2.0810370">
        <ele>182.6</ele>
        <time>2022-09-26T13:05:40Z</time>
      </trkpt>
      <trkpt lat="41.5352310" lon="2.0809790">
        <ele>182.7</ele>
        <time>2022-09-26T13:05:41Z</time>
      </trkpt>
      <trkpt lat="41.5352350" lon="2.0809170">
        <ele>182.8</ele>
        <time>2022-09-26T13:05:42Z</time>
      </trkpt>
      <trkpt lat="41.5352390" lon="2.0808580">
        <ele>183.0</ele>
        <time>2022-09-26T13:05:43Z</time>
      </trkpt>
      <trkpt lat="41.5352400" lon="2.0808030">
        <ele>183.1</ele>
        <time>2022-09-26T13:05:44Z</time>
      </trkpt>
      <trkpt lat="41.5352390" lon="2.0807770">
        <ele>183.2</ele>
        <time>2022-09-26T13:05:45Z</time>
      </trkpt>
      <trkpt lat="41.5352380" lon="2.0807200">
        <ele>183.4</ele>
        <time>2022-09-26T13:05:46Z</time>
      </trkpt>
      <trkpt lat="41.5352340" lon="2.0806680">
        <ele>183.5</ele>
        <time>2022-09-26T13:05:47Z</time>
      </trkpt>
      <trkpt lat="41.5352330" lon="2.0806280">
        <ele>183.7</ele>
        <time>2022-09-26T13:05:48Z</time>
      </trkpt>
      <trkpt lat="41.5352370" lon="2.0805900">
        <ele>183.8</ele>
        <time>2022-09-26T13:05:49Z</time>
      </trkpt>
      <trkpt lat="41.5352500" lon="2.0805430">
        <ele>184.0</ele>
        <time>2022-09-26T13:05:50Z</time>
      </trkpt>
      <trkpt lat="41.5352870" lon="2.0805220">
        <ele>184.4</ele>
        <time>2022-09-26T13:05:51Z</time>
      </trkpt>
      <trkpt lat="41.5353010" lon="2.0805190">
        <ele>184.4</ele>
        <time>2022-09-26T13:05:52Z</time>
      </trkpt>
      <trkpt lat="41.5353350" lon="2.0805130">
        <ele>184.5</ele>
        <time>2022-09-26T13:05:53Z</time>
      </trkpt>
      <trkpt lat="41.5353630" lon="2.0804900">
        <ele>184.6</ele>
        <time>2022-09-26T13:05:54Z</time>
      </trkpt>
      <trkpt lat="41.5354080" lon="2.0804990">
        <ele>184.7</ele>
        <time>2022-09-26T13:05:55Z</time>
      </trkpt>
      <trkpt lat="41.5354400" lon="2.0804920">
        <ele>184.8</ele>
        <time>2022-09-26T13:05:56Z</time>
      </trkpt>
      <trkpt lat="41.5354730" lon="2.0804810">
        <ele>184.8</ele>
        <time>2022-09-26T13:05:57Z</time>
      </trkpt>
      <trkpt lat="41.5355030" lon="2.0804730">
        <ele>184.9</ele>
        <time>2022-09-26T13:05:58Z</time>
      </trkpt>
      <trkpt lat="41.5355850" lon="2.0804570">
        <ele>185.0</ele>
        <time>2022-09-26T13:06:00Z</time>
      </trkpt>
      <trkpt lat="41.5356250" lon="2.0804490">
        <ele>185.0</ele>
        <time>2022-09-26T13:06:01Z</time>
      </trkpt>
      <trkpt lat="41.5356690" lon="2.0804340">
        <ele>185.1</ele>
        <time>2022-09-26T13:06:02Z</time>
      </trkpt>
      <trkpt lat="41.5357010" lon="2.0804230">
        <ele>185.2</ele>
        <time>2022-09-26T13:06:03Z</time>
      </trkpt>
      <trkpt lat="41.5357520" lon="2.0803960">
        <ele>185.3</ele>
        <time>2022-09-26T13:06:05Z</time>
      </trkpt>
      <trkpt lat="41.5357890" lon="2.0803790">
        <ele>185.4</ele>
        <time>2022-09-26T13:06:06Z</time>
      </trkpt>
      <trkpt lat="41.5358490" lon="2.0803470">
        <ele>185.5</ele>
        <time>2022-09-26T13:06:07Z</time>
      </trkpt>
      <trkpt lat="41.5358860" lon="2.0803220">
        <ele>185.5</ele>
        <time>2022-09-26T13:06:08Z</time>
      </trkpt>
      <trkpt lat="41.5359190" lon="2.0802890">
        <ele>185.6</ele>
        <time>2022-09-26T13:06:09Z</time>
      </trkpt>
      <trkpt lat="41.5359310" lon="2.0802730">
        <ele>185.6</ele>
        <time>2022-09-26T13:06:10Z</time>
      </trkpt>
      <trkpt lat="41.5359460" lon="2.0802390">
        <ele>185.6</ele>
        <time>2022-09-26T13:06:11Z</time>
      </trkpt>
      <trkpt lat="41.5359430" lon="2.0801980">
        <ele>185.7</ele>
        <time>2022-09-26T13:06:12Z</time>
      </trkpt>
      <trkpt lat="41.5359420" lon="2.0801900">
        <ele>185.8</ele>
        <time>2022-09-26T13:06:13Z</time>
      </trkpt>
      <trkpt lat="41.5359380" lon="2.0802010">
        <ele>185.7</ele>
        <time>2022-09-26T13:06:14Z</time>
      </trkpt>
      <trkpt lat="41.5359350" lon="2.0802230">
        <ele>185.7</ele>
        <time>2022-09-26T13:06:15Z</time>
      </trkpt>
      <trkpt lat="41.5359350" lon="2.0802310">
        <ele>185.7</ele>
        <time>2022-09-26T13:06:17Z</time>
      </trkpt>
      <trkpt lat="41.5359350" lon="2.0802300">
        <ele>185.7</ele>
        <time>2022-09-26T13:06:18Z</time>
      </trkpt>
      <trkpt lat="41.5359350" lon="2.0802280">
        <ele>185.7</ele>
        <time>2022-09-26T13:06:19Z</time>
      </trkpt>
      <trkpt lat="41.5359350" lon="2.0802250">
        <ele>185.7</ele>
        <time>2022-09-26T13:06:20Z</time>
      </trkpt>
      <trkpt lat="41.5359340" lon="2.0802240">
        <ele>185.7</ele>
        <time>2022-09-26T13:06:21Z</time>
      </trkpt>
      <trkpt lat="41.5359330" lon="2.0802230">
        <ele>185.7</ele>
        <time>2022-09-26T13:06:22Z</time>
      </trkpt>
      <trkpt lat="41.5359330" lon="2.0802220">
        <ele>185.7</ele>
        <time>2022-09-26T13:06:23Z</time>
      </trkpt>
      <trkpt lat="41.5359330" lon="2.0802200">
        <ele>185.7</ele>
        <time>2022-09-26T13:06:24Z</time>
      </trkpt>
      <trkpt lat="41.5359330" lon="2.0802200">
        <ele>185.7</ele>
        <time>2022-09-26T13:06:26Z</time>
      </trkpt>
      <trkpt lat="41.5359200" lon="2.0801990">
        <ele>185.7</ele>
        <time>2022-09-26T13:07:17Z</time>
      </trkpt>
      <trkpt lat="41.5359170" lon="2.0801940">
        <ele>185.7</ele>
        <time>2022-09-26T13:07:19Z</time>
      </trkpt>
      <trkpt lat="41.5359160" lon="2.0801880">
        <ele>185.8</ele>
        <time>2022-09-26T13:07:20Z</time>
      </trkpt>
      <trkpt lat="41.5359150" lon="2.0801560">
        <ele>185.8</ele>
        <time>2022-09-26T13:07:22Z</time>
      </trkpt>
      <trkpt lat="41.5359140" lon="2.0801450">
        <ele>185.8</ele>
        <time>2022-09-26T13:07:23Z</time>
      </trkpt>
      <trkpt lat="41.5359130" lon="2.0801410">
        <ele>185.8</ele>
        <time>2022-09-26T13:07:24Z</time>
      </trkpt>
      <trkpt lat="41.5359110" lon="2.0801400">
        <ele>185.8</ele>
        <time>2022-09-26T13:07:25Z</time>
      </trkpt>
      <trkpt lat="41.5359100" lon="2.0801430">
        <ele>185.8</ele>
        <time>2022-09-26T13:07:26Z</time>
      </trkpt>
      <trkpt lat="41.5359090" lon="2.0801480">
        <ele>185.8</ele>
        <time>2022-09-26T13:07:27Z</time>
      </trkpt>
      <trkpt lat="41.5359070" lon="2.0801560">
        <ele>185.8</ele>
        <time>2022-09-26T13:07:28Z</time>
      </trkpt>
      <trkpt lat="41.5359060" lon="2.0801550">
        <ele>185.8</ele>
        <time>2022-09-26T13:07:29Z</time>
      </trkpt>
      <trkpt lat="41.5359060" lon="2.0801540">
        <ele>185.8</ele>
        <time>2022-09-26T13:07:31Z</time>
      </trkpt>
      <trkpt lat="41.5359040" lon="2.0801530">
        <ele>185.8</ele>
        <time>2022-09-26T13:07:32Z</time>
      </trkpt>
      <trkpt lat="41.5359010" lon="2.0801520">
        <ele>185.8</ele>
        <time>2022-09-26T13:07:33Z</time>
      </trkpt>
      <trkpt lat="41.5358940" lon="2.0801550">
        <ele>185.8</ele>
        <time>2022-09-26T13:07:34Z</time>
      </trkpt>
      <trkpt lat="41.5358660" lon="2.0801580">
        <ele>185.8</ele>
        <time>2022-09-26T13:07:36Z</time>
      </trkpt>
      <trkpt lat="41.5358650" lon="2.0801580">
        <ele>185.8</ele>
        <time>2022-09-26T13:07:37Z</time>
      </trkpt>
      <trkpt lat="41.5358640" lon="2.0801590">
        <ele>185.8</ele>
        <time>2022-09-26T13:07:38Z</time>
      </trkpt>
      <trkpt lat="41.5358650" lon="2.0801590">
        <ele>185.8</ele>
        <time>2022-09-26T13:07:39Z</time>
      </trkpt>
      <trkpt lat="41.5358660" lon="2.0801600">
        <ele>185.8</ele>
        <time>2022-09-26T13:07:40Z</time>
      </trkpt>
      <trkpt lat="41.5358680" lon="2.0801620">
        <ele>185.8</ele>
        <time>2022-09-26T13:07:41Z</time>
      </trkpt>
      <trkpt lat="41.5358730" lon="2.0801630">
        <ele>185.8</ele>
        <time>2022-09-26T13:07:42Z</time>
      </trkpt>
      <trkpt lat="41.5358780" lon="2.0801660">
        <ele>185.8</ele>
        <time>2022-09-26T13:07:43Z</time>
      </trkpt>
      <trkpt lat="41.5358830" lon="2.0801690">
        <ele>185.8</ele>
        <time>2022-09-26T13:07:44Z</time>
      </trkpt>
      <trkpt lat="41.5358970" lon="2.0801740">
        <ele>185.8</ele>
        <time>2022-09-26T13:07:46Z</time>
      </trkpt>
      <trkpt lat="41.5359010" lon="2.0801700">
        <ele>185.8</ele>
        <time>2022-09-26T13:07:47Z</time>
      </trkpt>
      <trkpt lat="41.5359080" lon="2.0801670">
        <ele>185.8</ele>
        <time>2022-09-26T13:07:48Z</time>
      </trkpt>
      <trkpt lat="41.5359140" lon="2.0801680">
        <ele>185.8</ele>
        <time>2022-09-26T13:07:49Z</time>
      </trkpt>
      <trkpt lat="41.5359200" lon="2.0801690">
        <ele>185.8</ele>
        <time>2022-09-26T13:07:50Z</time>
      </trkpt>
      <trkpt lat="41.5359260" lon="2.0801680">
        <ele>185.8</ele>
        <time>2022-09-26T13:07:51Z</time>
      </trkpt>
      <trkpt lat="41.5359260" lon="2.0801510">
        <ele>185.8</ele>
        <time>2022-09-26T13:07:52Z</time>
      </trkpt>
      <trkpt lat="41.5359190" lon="2.0801240">
        <ele>185.8</ele>
        <time>2022-09-26T13:07:53Z</time>
      </trkpt>
      <trkpt lat="41.5359120" lon="2.0800840">
        <ele>185.8</ele>
        <time>2022-09-26T13:07:54Z</time>
      </trkpt>
      <trkpt lat="41.5359100" lon="2.0800670">
        <ele>185.8</ele>
        <time>2022-09-26T13:07:55Z</time>
      </trkpt>
      <trkpt lat="41.5359080" lon="2.0800200">
        <ele>186.2</ele>
        <time>2022-09-26T13:07:56Z</time>
      </trkpt>
      <trkpt lat="41.5359030" lon="2.0799700">
        <ele>186.2</ele>
        <time>2022-09-26T13:07:57Z</time>
      </trkpt>
      <trkpt lat="41.5358920" lon="2.0799340">
        <ele>186.2</ele>
        <time>2022-09-26T13:07:58Z</time>
      </trkpt>
      <trkpt lat="41.5358620" lon="2.0798890">
        <ele>186.2</ele>
        <time>2022-09-26T13:08:00Z</time>
      </trkpt>
      <trkpt lat="41.5358350" lon="2.0798600">
        <ele>186.2</ele>
        <time>2022-09-26T13:08:01Z</time>
      </trkpt>
      <trkpt lat="41.5358210" lon="2.0798530">
        <ele>186.1</ele>
        <time>2022-09-26T13:08:02Z</time>
      </trkpt>
      <trkpt lat="41.5357810" lon="2.0798420">
        <ele>186.9</ele>
        <time>2022-09-26T13:08:04Z</time>
      </trkpt>
      <trkpt lat="41.5357380" lon="2.0798330">
        <ele>186.9</ele>
        <time>2022-09-26T13:08:05Z</time>
      </trkpt>
      <trkpt lat="41.5356950" lon="2.0798140">
        <ele>186.9</ele>
        <time>2022-09-26T13:08:06Z</time>
      </trkpt>
      <trkpt lat="41.5356510" lon="2.0797740">
        <ele>186.9</ele>
        <time>2022-09-26T13:08:08Z</time>
      </trkpt>
      <trkpt lat="41.5355380" lon="2.0797380">
        <ele>187.1</ele>
        <time>2022-09-26T13:08:09Z</time>
      </trkpt>
      <trkpt lat="41.5354730" lon="2.0797330">
        <ele>187.1</ele>
        <time>2022-09-26T13:08:10Z</time>
      </trkpt>
      <trkpt lat="41.5354070" lon="2.0797510">
        <ele>187.3</ele>
        <time>2022-09-26T13:08:11Z</time>
      </trkpt>
      <trkpt lat="41.5353650" lon="2.0797490">
        <ele>187.3</ele>
        <time>2022-09-26T13:08:12Z</time>
      </trkpt>
      <trkpt lat="41.5354050" lon="2.0798850">
        <ele>186.5</ele>
        <time>2022-09-26T13:08:13Z</time>
      </trkpt>
      <trkpt lat="41.5354130" lon="2.0799020">
        <ele>186.5</ele>
        <time>2022-09-26T13:08:14Z</time>
      </trkpt>
      <trkpt lat="41.5354360" lon="2.0799170">
        <ele>186.5</ele>
        <time>2022-09-26T13:08:15Z</time>
      </trkpt>
      <trkpt lat="41.5354580" lon="2.0799320">
        <ele>186.3</ele>
        <time>2022-09-26T13:08:16Z</time>
      </trkpt>
      <trkpt lat="41.5355000" lon="2.0799710">
        <ele>186.3</ele>
        <time>2022-09-26T13:08:17Z</time>
      </trkpt>
      <trkpt lat="41.5355300" lon="2.0799940">
        <ele>186.3</ele>
        <time>2022-09-26T13:08:18Z</time>
      </trkpt>
      <trkpt lat="41.5355580" lon="2.0800080">
        <ele>186.3</ele>
        <time>2022-09-26T13:08:19Z</time>
      </trkpt>
      <trkpt lat="41.5355960" lon="2.0800200">
        <ele>186.1</ele>
        <time>2022-09-26T13:08:20Z</time>
      </trkpt>
      <trkpt lat="41.5356070" lon="2.0800220">
        <ele>185.5</ele>
        <time>2022-09-26T13:08:21Z</time>
      </trkpt>
      <trkpt lat="41.5356320" lon="2.0800260">
        <ele>185.5</ele>
        <time>2022-09-26T13:08:22Z</time>
      </trkpt>
      <trkpt lat="41.5356420" lon="2.0800280">
        <ele>185.5</ele>
        <time>2022-09-26T13:08:23Z</time>
      </trkpt>
      <trkpt lat="41.5356490" lon="2.0800290">
        <ele>185.5</ele>
        <time>2022-09-26T13:08:24Z</time>
      </trkpt>
      <trkpt lat="41.5356550" lon="2.0800300">
        <ele>185.5</ele>
        <time>2022-09-26T13:08:25Z</time>
      </trkpt>
      <trkpt lat="41.5356770" lon="2.0800270">
        <ele>185.5</ele>
        <time>2022-09-26T13:08:26Z</time>
      </trkpt>
      <trkpt lat="41.5356780" lon="2.0800280">
        <ele>185.5</ele>
        <time>2022-09-26T13:08:27Z</time>
      </trkpt>
      <trkpt lat="41.5356790" lon="2.0800290">
        <ele>185.5</ele>
        <time>2022-09-26T13:08:28Z</time>
      </trkpt>
      <trkpt lat="41.5356870" lon="2.0800360">
        <ele>185.5</ele>
        <time>2022-09-26T13:08:29Z</time>
      </trkpt>
    </trkseg>
  </trk>
</gpx>
